﻿<?xml version="1.0" encoding="utf-8"?><gpx creator="Garmin Desktop App" version="1.1" xsi:schemaLocation="http://www.topografix.com/GPX/1/1 http://www.topografix.com/GPX/1/1/gpx.xsd http://www.garmin.com/xmlschemas/WaypointExtension/v1 http://www8.garmin.com/xmlschemas/WaypointExtensionv1.xsd http://www.garmin.com/xmlschemas/TrackPointExtension/v1 http://www.garmin.com/xmlschemas/TrackPointExtensionv1.xsd http://www.garmin.com/xmlschemas/GpxExtensions/v3 http://www8.garmin.com/xmlschemas/GpxExtensionsv3.xsd http://www.garmin.com/xmlschemas/ActivityExtension/v1 http://www8.garmin.com/xmlschemas/ActivityExtensionv1.xsd http://www.garmin.com/xmlschemas/AdventuresExtensions/v1 http://www8.garmin.com/xmlschemas/AdventuresExtensionv1.xsd http://www.garmin.com/xmlschemas/PressureExtension/v1 http://www.garmin.com/xmlschemas/PressureExtensionv1.xsd http://www.garmin.com/xmlschemas/TripExtensions/v1 http://www.garmin.com/xmlschemas/TripExtensionsv1.xsd http://www.garmin.com/xmlschemas/TripMetaDataExtensions/v1 http://www.garmin.com/xmlschemas/TripMetaDataExtensionsv1.xsd http://www.garmin.com/xmlschemas/ViaPointTransportationModeExtensions/v1 http://www.garmin.com/xmlschemas/ViaPointTransportationModeExtensionsv1.xsd http://www.garmin.com/xmlschemas/CreationTimeExtension/v1 http://www.garmin.com/xmlschemas/CreationTimeExtensionsv1.xsd http://www.garmin.com/xmlschemas/AccelerationExtension/v1 http://www.garmin.com/xmlschemas/AccelerationExtensionv1.xsd http://www.garmin.com/xmlschemas/PowerExtension/v1 http://www.garmin.com/xmlschemas/PowerExtensionv1.xsd http://www.garmin.com/xmlschemas/VideoExtension/v1 http://www.garmin.com/xmlschemas/VideoExtensionv1.xsd" xmlns="http://www.topografix.com/GPX/1/1" xmlns:xsi="http://www.w3.org/2001/XMLSchema-instance" xmlns:wptx1="http://www.garmin.com/xmlschemas/WaypointExtension/v1" xmlns:gpxtrx="http://www.garmin.com/xmlschemas/GpxExtensions/v3" xmlns:gpxtpx="http://www.garmin.com/xmlschemas/TrackPointExtension/v1" xmlns:gpxx="http://www.garmin.com/xmlschemas/GpxExtensions/v3" xmlns:trp="http://www.garmin.com/xmlschemas/TripExtensions/v1" xmlns:adv="http://www.garmin.com/xmlschemas/AdventuresExtensions/v1" xmlns:prs="http://www.garmin.com/xmlschemas/PressureExtension/v1" xmlns:tmd="http://www.garmin.com/xmlschemas/TripMetaDataExtensions/v1" xmlns:vptm="http://www.garmin.com/xmlschemas/ViaPointTransportationModeExtensions/v1" xmlns:ctx="http://www.garmin.com/xmlschemas/CreationTimeExtension/v1" xmlns:gpxacc="http://www.garmin.com/xmlschemas/AccelerationExtension/v1" xmlns:gpxpx="http://www.garmin.com/xmlschemas/PowerExtension/v1" xmlns:vidx1="http://www.garmin.com/xmlschemas/VideoExtension/v1">

  <metadata>
    <link href="http://www.garmin.com">
      <text>Garmin International</text>
    </link>
    <time>2021-01-24T12:52:12Z</time>
    <bounds maxlat="46.458569671958685" maxlon="11.864534066990018" minlat="46.40590944327414" minlon="11.628995127975941" />
  </metadata>

  <trk>
    <name>marmolada2016-03-19</name>
    <extensions>
      <gpxx:TrackExtension>
        <gpxx:DisplayColor>Yellow</gpxx:DisplayColor>
      </gpxx:TrackExtension>
      <gpxtrkx:TrackStatsExtension xmlns:gpxtrkx="http://www.garmin.com/xmlschemas/TrackStatsExtension/v1">
        <gpxtrkx:Distance>6231</gpxtrkx:Distance>
        <gpxtrkx:TotalElapsedTime>14349</gpxtrkx:TotalElapsedTime>
        <gpxtrkx:MovingTime>8868</gpxtrkx:MovingTime>
        <gpxtrkx:StoppedTime>5474</gpxtrkx:StoppedTime>
        <gpxtrkx:MovingSpeed>1</gpxtrkx:MovingSpeed>
        <gpxtrkx:MaxSpeed>3</gpxtrkx:MaxSpeed>
        <gpxtrkx:MaxElevation>3255</gpxtrkx:MaxElevation>
        <gpxtrkx:MinElevation>2628</gpxtrkx:MinElevation>
        <gpxtrkx:Ascent>621</gpxtrkx:Ascent>
        <gpxtrkx:Descent>637</gpxtrkx:Descent>
        <gpxtrkx:AvgAscentRate>0</gpxtrkx:AvgAscentRate>
        <gpxtrkx:MaxAscentRate>0</gpxtrkx:MaxAscentRate>
        <gpxtrkx:AvgDescentRate>0</gpxtrkx:AvgDescentRate>
        <gpxtrkx:MaxDescentRate>-1</gpxtrkx:MaxDescentRate>
      </gpxtrkx:TrackStatsExtension>
    </extensions>
    <trkseg>
      <trkpt lat="46.446079881861806" lon="11.860244795680046">
        <ele>2643.7600000000002</ele>
        <time>2016-03-19T09:08:13Z</time>
      </trkpt>
      <trkpt lat="46.446077786386013" lon="11.860246220603585">
        <ele>2643.7600000000002</ele>
        <time>2016-03-19T09:08:14Z</time>
      </trkpt>
      <trkpt lat="46.446088766679168" lon="11.860259547829628">
        <ele>2644.2399999999998</ele>
        <time>2016-03-19T09:08:24Z</time>
      </trkpt>
      <trkpt lat="46.446096142753959" lon="11.860244460403919">
        <ele>2644.2399999999998</ele>
        <time>2016-03-19T09:08:30Z</time>
      </trkpt>
      <trkpt lat="46.44610058516264" lon="11.860261224210262">
        <ele>2644.2399999999998</ele>
        <time>2016-03-19T09:08:37Z</time>
      </trkpt>
      <trkpt lat="46.446103686466813" lon="11.860285112634301">
        <ele>2644.2399999999998</ele>
        <time>2016-03-19T09:08:48Z</time>
      </trkpt>
      <trkpt lat="46.446102596819401" lon="11.860283687710762">
        <ele>2644.2399999999998</ele>
        <time>2016-03-19T09:09:04Z</time>
      </trkpt>
      <trkpt lat="46.446088431403041" lon="11.860255859792233">
        <ele>2644.7199999999998</ele>
        <time>2016-03-19T09:09:08Z</time>
      </trkpt>
      <trkpt lat="46.446086000651121" lon="11.86026256531477">
        <ele>2644.7199999999998</ele>
        <time>2016-03-19T09:09:16Z</time>
      </trkpt>
      <trkpt lat="46.446083821356297" lon="11.860265415161848">
        <ele>2644.7199999999998</ele>
        <time>2016-03-19T09:09:27Z</time>
      </trkpt>
      <trkpt lat="46.446056412532926" lon="11.860284190624952">
        <ele>2644.7199999999998</ele>
        <time>2016-03-19T09:09:46Z</time>
      </trkpt>
      <trkpt lat="46.446051131933928" lon="11.860274970531464">
        <ele>2644.7199999999998</ele>
        <time>2016-03-19T09:10:00Z</time>
      </trkpt>
      <trkpt lat="46.446059765294194" lon="11.86027086339891">
        <ele>2644.2399999999998</ele>
        <time>2016-03-19T09:10:13Z</time>
      </trkpt>
      <trkpt lat="46.446046689525247" lon="11.860284944996238">
        <ele>2644.7199999999998</ele>
        <time>2016-03-19T09:10:17Z</time>
      </trkpt>
      <trkpt lat="46.445990363135934" lon="11.860306235030293">
        <ele>2644.2399999999998</ele>
        <time>2016-03-19T09:10:24Z</time>
      </trkpt>
      <trkpt lat="46.445977706462145" lon="11.860323920845985">
        <ele>2644.7199999999998</ele>
        <time>2016-03-19T09:10:26Z</time>
      </trkpt>
      <trkpt lat="46.445961948484182" lon="11.860295422375202">
        <ele>2644.2399999999998</ele>
        <time>2016-03-19T09:10:35Z</time>
      </trkpt>
      <trkpt lat="46.445955745875835" lon="11.860283687710762">
        <ele>2644.7199999999998</ele>
        <time>2016-03-19T09:10:46Z</time>
      </trkpt>
      <trkpt lat="46.445969995111227" lon="11.860293243080378">
        <ele>2644.2399999999998</ele>
        <time>2016-03-19T09:11:01Z</time>
      </trkpt>
      <trkpt lat="46.445956248790026" lon="11.860294248908758">
        <ele>2644.2399999999998</ele>
        <time>2016-03-19T09:11:23Z</time>
      </trkpt>
      <trkpt lat="46.445958930999041" lon="11.86028016731143">
        <ele>2643.7600000000002</ele>
        <time>2016-03-19T09:11:41Z</time>
      </trkpt>
      <trkpt lat="46.445959182456136" lon="11.860272958874702">
        <ele>2645.21</ele>
        <time>2016-03-19T09:11:58Z</time>
      </trkpt>
      <trkpt lat="46.445967648178339" lon="11.860294081270695">
        <ele>2644.2399999999998</ele>
        <time>2016-03-19T09:12:15Z</time>
      </trkpt>
      <trkpt lat="46.44596085883677" lon="11.860286286100745">
        <ele>2643.7600000000002</ele>
        <time>2016-03-19T09:12:24Z</time>
      </trkpt>
      <trkpt lat="46.445955913513899" lon="11.860288130119443">
        <ele>2643.7600000000002</ele>
        <time>2016-03-19T09:12:26Z</time>
      </trkpt>
      <trkpt lat="46.445926576852798" lon="11.860301373526454">
        <ele>2643.7600000000002</ele>
        <time>2016-03-19T09:12:29Z</time>
      </trkpt>
      <trkpt lat="46.445835800841451" lon="11.860229289159179">
        <ele>2644.2399999999998</ele>
        <time>2016-03-19T09:12:40Z</time>
      </trkpt>
      <trkpt lat="46.445806799456477" lon="11.860149493440986">
        <ele>2646.1700000000001</ele>
        <time>2016-03-19T09:12:49Z</time>
      </trkpt>
      <trkpt lat="46.445787688717246" lon="11.860075648874044">
        <ele>2648.0900000000001</ele>
        <time>2016-03-19T09:12:59Z</time>
      </trkpt>
      <trkpt lat="46.44578643143177" lon="11.859969785436988">
        <ele>2649.5300000000002</ele>
        <time>2016-03-19T09:13:09Z</time>
      </trkpt>
      <trkpt lat="46.445796573534608" lon="11.859915805980563">
        <ele>2650.0100000000002</ele>
        <time>2016-03-19T09:13:13Z</time>
      </trkpt>
      <trkpt lat="46.445796573534608" lon="11.859857384115458">
        <ele>2650.0100000000002</ele>
        <time>2016-03-19T09:13:23Z</time>
      </trkpt>
      <trkpt lat="46.445787604898214" lon="11.859829053282738">
        <ele>2650.4899999999998</ele>
        <time>2016-03-19T09:13:33Z</time>
      </trkpt>
      <trkpt lat="46.445787185803056" lon="11.859811116009951">
        <ele>2650.4899999999998</ele>
        <time>2016-03-19T09:13:51Z</time>
      </trkpt>
      <trkpt lat="46.445776121690869" lon="11.859801141545177">
        <ele>2650.0100000000002</ele>
        <time>2016-03-19T09:14:07Z</time>
      </trkpt>
      <trkpt lat="46.44576346501708" lon="11.859788065776229">
        <ele>2650.9699999999998</ele>
        <time>2016-03-19T09:14:16Z</time>
      </trkpt>
      <trkpt lat="46.445754077285528" lon="11.859774570912123">
        <ele>2650.4899999999998</ele>
        <time>2016-03-19T09:14:29Z</time>
      </trkpt>
      <trkpt lat="46.445726249366999" lon="11.859754957258701">
        <ele>2651.9299999999998</ele>
        <time>2016-03-19T09:14:37Z</time>
      </trkpt>
      <trkpt lat="46.445681406185031" lon="11.859718831256032">
        <ele>2653.3800000000001</ele>
        <time>2016-03-19T09:14:45Z</time>
      </trkpt>
      <trkpt lat="46.445632958784699" lon="11.85966594144702">
        <ele>2655.3000000000002</ele>
        <time>2016-03-19T09:14:56Z</time>
      </trkpt>
      <trkpt lat="46.445572441443801" lon="11.859601652249694">
        <ele>2656.7399999999998</ele>
        <time>2016-03-19T09:15:07Z</time>
      </trkpt>
      <trkpt lat="46.445549977943301" lon="11.859599137678742">
        <ele>2658.1799999999998</ele>
        <time>2016-03-19T09:15:16Z</time>
      </trkpt>
      <trkpt lat="46.445529023185372" lon="11.859597964212298">
        <ele>2658.6599999999999</ele>
        <time>2016-03-19T09:15:23Z</time>
      </trkpt>
      <trkpt lat="46.445498177781701" lon="11.859604837372899">
        <ele>2658.1799999999998</ele>
        <time>2016-03-19T09:15:45Z</time>
      </trkpt>
      <trkpt lat="46.445449227467179" lon="11.859587654471397">
        <ele>2660.1100000000001</ele>
        <time>2016-03-19T09:15:55Z</time>
      </trkpt>
      <trkpt lat="46.445362977683544" lon="11.859617996960878">
        <ele>2661.5500000000002</ele>
        <time>2016-03-19T09:16:05Z</time>
      </trkpt>
      <trkpt lat="46.445341520011425" lon="11.859605759382248">
        <ele>2662.0300000000002</ele>
        <time>2016-03-19T09:16:18Z</time>
      </trkpt>
      <trkpt lat="46.445336239412427" lon="11.859622104093432">
        <ele>2662.0300000000002</ele>
        <time>2016-03-19T09:16:26Z</time>
      </trkpt>
      <trkpt lat="46.445246133953333" lon="11.859695110470057">
        <ele>2663.9499999999998</ele>
        <time>2016-03-19T09:16:39Z</time>
      </trkpt>
      <trkpt lat="46.445174720138311" lon="11.859750933945179">
        <ele>2665.8699999999999</ele>
        <time>2016-03-19T09:16:50Z</time>
      </trkpt>
      <trkpt lat="46.445117387920618" lon="11.859807847067714">
        <ele>2667.3099999999999</ele>
        <time>2016-03-19T09:17:02Z</time>
      </trkpt>
      <trkpt lat="46.445073382928967" lon="11.85987800359726">
        <ele>2669.2399999999998</ele>
        <time>2016-03-19T09:17:14Z</time>
      </trkpt>
      <trkpt lat="46.445003394037485" lon="11.859954614192247">
        <ele>2670.6799999999998</ele>
        <time>2016-03-19T09:17:26Z</time>
      </trkpt>
      <trkpt lat="46.444959975779057" lon="11.859963331371546">
        <ele>2671.6399999999999</ele>
        <time>2016-03-19T09:17:37Z</time>
      </trkpt>
      <trkpt lat="46.444945139810443" lon="11.859979927539825">
        <ele>2671.6399999999999</ele>
        <time>2016-03-19T09:17:47Z</time>
      </trkpt>
      <trkpt lat="46.444936590269208" lon="11.859991746023297">
        <ele>2672.1199999999999</ele>
        <time>2016-03-19T09:17:57Z</time>
      </trkpt>
      <trkpt lat="46.444883616641164" lon="11.860004821792245">
        <ele>2672.1199999999999</ele>
        <time>2016-03-19T09:18:07Z</time>
      </trkpt>
      <trkpt lat="46.444867523387074" lon="11.860004737973213">
        <ele>2672.1199999999999</ele>
        <time>2016-03-19T09:18:20Z</time>
      </trkpt>
      <trkpt lat="46.444846987724304" lon="11.859989650547504">
        <ele>2672.1199999999999</ele>
        <time>2016-03-19T09:18:39Z</time>
      </trkpt>
      <trkpt lat="46.444848412647843" lon="11.859985459595919">
        <ele>2672.1199999999999</ele>
        <time>2016-03-19T09:18:40Z</time>
      </trkpt>
      <trkpt lat="46.444872468709946" lon="11.859932653605938">
        <ele>2671.6399999999999</ele>
        <time>2016-03-19T09:18:45Z</time>
      </trkpt>
      <trkpt lat="46.444883700460196" lon="11.85994254425168">
        <ele>2671.6399999999999</ele>
        <time>2016-03-19T09:18:52Z</time>
      </trkpt>
      <trkpt lat="46.444883951917291" lon="11.85996157117188">
        <ele>2671.1599999999999</ele>
        <time>2016-03-19T09:19:15Z</time>
      </trkpt>
      <trkpt lat="46.444892417639494" lon="11.859947992488742">
        <ele>2670.1999999999998</ele>
        <time>2016-03-19T09:19:23Z</time>
      </trkpt>
      <trkpt lat="46.444892333820462" lon="11.859946651384234">
        <ele>2669.7199999999998</ele>
        <time>2016-03-19T09:19:41Z</time>
      </trkpt>
      <trkpt lat="46.44490784034133" lon="11.859948663040996">
        <ele>2670.1999999999998</ele>
        <time>2016-03-19T09:19:48Z</time>
      </trkpt>
      <trkpt lat="46.44490884616971" lon="11.859961403533816">
        <ele>2671.6399999999999</ele>
        <time>2016-03-19T09:19:55Z</time>
      </trkpt>
      <trkpt lat="46.44492544233799" lon="11.859946399927139">
        <ele>2671.1599999999999</ele>
        <time>2016-03-19T09:20:06Z</time>
      </trkpt>
      <trkpt lat="46.444849250838161" lon="11.86004463583231">
        <ele>2671.6399999999999</ele>
        <time>2016-03-19T09:20:17Z</time>
      </trkpt>
      <trkpt lat="46.444801557809114" lon="11.860082186758518">
        <ele>2671.6399999999999</ele>
        <time>2016-03-19T09:20:22Z</time>
      </trkpt>
      <trkpt lat="46.444700220599771" lon="11.860204143449664">
        <ele>2670.6799999999998</ele>
        <time>2016-03-19T09:20:34Z</time>
      </trkpt>
      <trkpt lat="46.444589579477906" lon="11.86029240489006">
        <ele>2670.6799999999998</ele>
        <time>2016-03-19T09:20:46Z</time>
      </trkpt>
      <trkpt lat="46.444507604464889" lon="11.860388880595565">
        <ele>2672.1199999999999</ele>
        <time>2016-03-19T09:20:58Z</time>
      </trkpt>
      <trkpt lat="46.444448260590434" lon="11.860490469262004">
        <ele>2674.52</ele>
        <time>2016-03-19T09:21:11Z</time>
      </trkpt>
      <trkpt lat="46.444385563954711" lon="11.860596835613251">
        <ele>2676.4499999999998</ele>
        <time>2016-03-19T09:21:23Z</time>
      </trkpt>
      <trkpt lat="46.444358490407467" lon="11.860644528642297">
        <ele>2677.4099999999999</ele>
        <time>2016-03-19T09:21:29Z</time>
      </trkpt>
      <trkpt lat="46.444326555356383" lon="11.86068962328136">
        <ele>2678.3699999999999</ele>
        <time>2016-03-19T09:21:37Z</time>
      </trkpt>
      <trkpt lat="46.444309456273913" lon="11.860719295218587">
        <ele>2677.8899999999999</ele>
        <time>2016-03-19T09:21:48Z</time>
      </trkpt>
      <trkpt lat="46.444320771843195" lon="11.860788529738784">
        <ele>2677.4099999999999</ele>
        <time>2016-03-19T09:21:58Z</time>
      </trkpt>
      <trkpt lat="46.44429562613368" lon="11.8607531581074">
        <ele>2679.3299999999999</ele>
        <time>2016-03-19T09:22:02Z</time>
      </trkpt>
      <trkpt lat="46.444221194833517" lon="11.860806969925761">
        <ele>2679.3299999999999</ele>
        <time>2016-03-19T09:22:11Z</time>
      </trkpt>
      <trkpt lat="46.444156318902969" lon="11.860888106748462">
        <ele>2680.77</ele>
        <time>2016-03-19T09:22:22Z</time>
      </trkpt>
      <trkpt lat="46.444131759926677" lon="11.860940996557474">
        <ele>2681.25</ele>
        <time>2016-03-19T09:22:29Z</time>
      </trkpt>
      <trkpt lat="46.444081887602806" lon="11.860994389280677">
        <ele>2682.2199999999998</ele>
        <time>2016-03-19T09:22:41Z</time>
      </trkpt>
      <trkpt lat="46.444063112139702" lon="11.861030263826251">
        <ele>2682.2199999999998</ele>
        <time>2016-03-19T09:22:52Z</time>
      </trkpt>
      <trkpt lat="46.44405129365623" lon="11.86106538400054">
        <ele>2683.1799999999998</ele>
        <time>2016-03-19T09:23:07Z</time>
      </trkpt>
      <trkpt lat="46.444016508758068" lon="11.861118273809552">
        <ele>2684.6199999999999</ele>
        <time>2016-03-19T09:23:18Z</time>
      </trkpt>
      <trkpt lat="46.443977784365416" lon="11.861153896898031">
        <ele>2686.0599999999999</ele>
        <time>2016-03-19T09:23:31Z</time>
      </trkpt>
      <trkpt lat="46.443937215954065" lon="11.861198656260967">
        <ele>2687.5</ele>
        <time>2016-03-19T09:23:42Z</time>
      </trkpt>
      <trkpt lat="46.443906622007489" lon="11.861254815012217">
        <ele>2688.9400000000001</ele>
        <time>2016-03-19T09:23:52Z</time>
      </trkpt>
      <trkpt lat="46.443862114101648" lon="11.861314913257957">
        <ele>2691.3499999999999</ele>
        <time>2016-03-19T09:24:03Z</time>
      </trkpt>
      <trkpt lat="46.443852977827191" lon="11.861347015947104">
        <ele>2690.8699999999999</ele>
        <time>2016-03-19T09:24:15Z</time>
      </trkpt>
      <trkpt lat="46.443843338638544" lon="11.861386243253946">
        <ele>2691.8299999999999</ele>
        <time>2016-03-19T09:24:27Z</time>
      </trkpt>
      <trkpt lat="46.443809391930699" lon="11.861411891877651">
        <ele>2692.79</ele>
        <time>2016-03-19T09:24:37Z</time>
      </trkpt>
      <trkpt lat="46.443759687244892" lon="11.861445503309369">
        <ele>2694.23</ele>
        <time>2016-03-19T09:24:48Z</time>
      </trkpt>
      <trkpt lat="46.443743426352739" lon="11.861490597948432">
        <ele>2695.6700000000001</ele>
        <time>2016-03-19T09:25:00Z</time>
      </trkpt>
      <trkpt lat="46.443719370290637" lon="11.861540134996176">
        <ele>2696.1500000000001</ele>
        <time>2016-03-19T09:25:12Z</time>
      </trkpt>
      <trkpt lat="46.44371073693037" lon="11.861576847732067">
        <ele>2697.5999999999999</ele>
        <time>2016-03-19T09:25:23Z</time>
      </trkpt>
      <trkpt lat="46.4436902012676" lon="11.861618757247925">
        <ele>2699.04</ele>
        <time>2016-03-19T09:25:33Z</time>
      </trkpt>
      <trkpt lat="46.443650554865599" lon="11.861665863543749">
        <ele>2699.52</ele>
        <time>2016-03-19T09:25:45Z</time>
      </trkpt>
      <trkpt lat="46.443593557924032" lon="11.861688913777471">
        <ele>2700.96</ele>
        <time>2016-03-19T09:25:57Z</time>
      </trkpt>
      <trkpt lat="46.443564891815186" lon="11.861755214631557">
        <ele>2701.4400000000001</ele>
        <time>2016-03-19T09:26:07Z</time>
      </trkpt>
      <trkpt lat="46.443548882380128" lon="11.861783042550087">
        <ele>2701.4400000000001</ele>
        <time>2016-03-19T09:26:18Z</time>
      </trkpt>
      <trkpt lat="46.443539075553417" lon="11.861758986487985">
        <ele>2700.96</ele>
        <time>2016-03-19T09:26:31Z</time>
      </trkpt>
      <trkpt lat="46.443505045026541" lon="11.861729314550757">
        <ele>2701.9200000000001</ele>
        <time>2016-03-19T09:26:40Z</time>
      </trkpt>
      <trkpt lat="46.443494819104671" lon="11.86173141002655">
        <ele>2701.4400000000001</ele>
        <time>2016-03-19T09:26:44Z</time>
      </trkpt>
      <trkpt lat="46.443421561270952" lon="11.861813301220536">
        <ele>2701.9200000000001</ele>
        <time>2016-03-19T09:26:54Z</time>
      </trkpt>
      <trkpt lat="46.443352159112692" lon="11.861863592639565">
        <ele>2703.3600000000001</ele>
        <time>2016-03-19T09:27:05Z</time>
      </trkpt>
      <trkpt lat="46.443286193534732" lon="11.861929809674621">
        <ele>2704.8099999999999</ele>
        <time>2016-03-19T09:27:18Z</time>
      </trkpt>
      <trkpt lat="46.443260796368122" lon="11.861974401399493">
        <ele>2706.73</ele>
        <time>2016-03-19T09:27:31Z</time>
      </trkpt>
      <trkpt lat="46.443237829953432" lon="11.861983956769109">
        <ele>2707.21</ele>
        <time>2016-03-19T09:27:43Z</time>
      </trkpt>
      <trkpt lat="46.443243781104684" lon="11.861972641199827">
        <ele>2707.21</ele>
        <time>2016-03-19T09:27:58Z</time>
      </trkpt>
      <trkpt lat="46.443234225735068" lon="11.861997451633215">
        <ele>2707.6900000000001</ele>
        <time>2016-03-19T09:28:18Z</time>
      </trkpt>
      <trkpt lat="46.443234393373132" lon="11.862022345885634">
        <ele>2707.21</ele>
        <time>2016-03-19T09:28:38Z</time>
      </trkpt>
      <trkpt lat="46.44319474697113" lon="11.862060567364097">
        <ele>2708.6500000000001</ele>
        <time>2016-03-19T09:28:50Z</time>
      </trkpt>
      <trkpt lat="46.443178066983819" lon="11.862082025036216">
        <ele>2709.1300000000001</ele>
        <time>2016-03-19T09:28:58Z</time>
      </trkpt>
      <trkpt lat="46.443116208538413" lon="11.862174477428198">
        <ele>2710.0900000000001</ele>
        <time>2016-03-19T09:29:09Z</time>
      </trkpt>
      <trkpt lat="46.443073460832238" lon="11.86224446631968">
        <ele>2712.02</ele>
        <time>2016-03-19T09:29:19Z</time>
      </trkpt>
      <trkpt lat="46.443047979846597" lon="11.862316215410829">
        <ele>2713.46</ele>
        <time>2016-03-19T09:29:29Z</time>
      </trkpt>
      <trkpt lat="46.443030796945095" lon="11.862414786592126">
        <ele>2714.9000000000001</ele>
        <time>2016-03-19T09:29:41Z</time>
      </trkpt>
      <trkpt lat="46.443019481375813" lon="11.862498018890619">
        <ele>2716.8200000000002</ele>
        <time>2016-03-19T09:29:54Z</time>
      </trkpt>
      <trkpt lat="46.443014452233911" lon="11.862601367756724">
        <ele>2718.75</ele>
        <time>2016-03-19T09:30:08Z</time>
      </trkpt>
      <trkpt lat="46.443005567416549" lon="11.86262802220881">
        <ele>2719.71</ele>
        <time>2016-03-19T09:30:25Z</time>
      </trkpt>
      <trkpt lat="46.442988971248269" lon="11.862709745764732">
        <ele>2720.6700000000001</ele>
        <time>2016-03-19T09:30:36Z</time>
      </trkpt>
      <trkpt lat="46.442968938499689" lon="11.862792642787099">
        <ele>2723.0700000000002</ele>
        <time>2016-03-19T09:30:48Z</time>
      </trkpt>
      <trkpt lat="46.442963406443596" lon="11.862812172621489">
        <ele>2723.5500000000002</ele>
        <time>2016-03-19T09:31:00Z</time>
      </trkpt>
      <trkpt lat="46.442951587960124" lon="11.86279758810997">
        <ele>2723.0700000000002</ele>
        <time>2016-03-19T09:31:11Z</time>
      </trkpt>
      <trkpt lat="46.442927028983831" lon="11.862812926992774">
        <ele>2724.5100000000002</ele>
        <time>2016-03-19T09:31:25Z</time>
      </trkpt>
      <trkpt lat="46.442865924909711" lon="11.862831450998783">
        <ele>2726.9200000000001</ele>
        <time>2016-03-19T09:31:34Z</time>
      </trkpt>
      <trkpt lat="46.442815801128745" lon="11.862856093794107">
        <ele>2728.8400000000001</ele>
        <time>2016-03-19T09:31:49Z</time>
      </trkpt>
      <trkpt lat="46.442762743681669" lon="11.862898087128997">
        <ele>2730.2800000000002</ele>
        <time>2016-03-19T09:32:00Z</time>
      </trkpt>
      <trkpt lat="46.4427231810987" lon="11.862918036058545">
        <ele>2732.1999999999998</ele>
        <time>2016-03-19T09:32:13Z</time>
      </trkpt>
      <trkpt lat="46.442668866366148" lon="11.862941924482584">
        <ele>2734.1300000000001</ele>
        <time>2016-03-19T09:32:25Z</time>
      </trkpt>
      <trkpt lat="46.442638942971826" lon="11.862956592813134">
        <ele>2735.5700000000002</ele>
        <time>2016-03-19T09:32:34Z</time>
      </trkpt>
      <trkpt lat="46.442660316824913" lon="11.863042674958706">
        <ele>2736.0500000000002</ele>
        <time>2016-03-19T09:32:45Z</time>
      </trkpt>
      <trkpt lat="46.442666100338101" lon="11.86306044459343">
        <ele>2736.5300000000002</ele>
        <time>2016-03-19T09:32:55Z</time>
      </trkpt>
      <trkpt lat="46.442673057317734" lon="11.863069077953696">
        <ele>2736.5300000000002</ele>
        <time>2016-03-19T09:33:16Z</time>
      </trkpt>
      <trkpt lat="46.44266601651907" lon="11.863059690222144">
        <ele>2737.0100000000002</ele>
        <time>2016-03-19T09:33:30Z</time>
      </trkpt>
      <trkpt lat="46.442653276026249" lon="11.863066479563713">
        <ele>2737.0100000000002</ele>
        <time>2016-03-19T09:33:54Z</time>
      </trkpt>
      <trkpt lat="46.442607678472996" lon="11.863085841760039">
        <ele>2737.9699999999998</ele>
        <time>2016-03-19T09:34:04Z</time>
      </trkpt>
      <trkpt lat="46.442576330155134" lon="11.863114507868886">
        <ele>2738.9299999999998</ele>
        <time>2016-03-19T09:34:16Z</time>
      </trkpt>
      <trkpt lat="46.442566104233265" lon="11.863098414614797">
        <ele>2738.4499999999998</ele>
        <time>2016-03-19T09:34:36Z</time>
      </trkpt>
      <trkpt lat="46.442530648782849" lon="11.863185167312622">
        <ele>2740.3800000000001</ele>
        <time>2016-03-19T09:34:48Z</time>
      </trkpt>
      <trkpt lat="46.442526709288359" lon="11.863173600286245">
        <ele>2739.8899999999999</ele>
        <time>2016-03-19T09:35:02Z</time>
      </trkpt>
      <trkpt lat="46.442530648782849" lon="11.863196147605777">
        <ele>2740.3800000000001</ele>
        <time>2016-03-19T09:35:17Z</time>
      </trkpt>
      <trkpt lat="46.442500054836273" lon="11.863268567249179">
        <ele>2741.3400000000001</ele>
        <time>2016-03-19T09:35:28Z</time>
      </trkpt>
      <trkpt lat="46.44245931878686" lon="11.863348865881562">
        <ele>2742.3000000000002</ele>
        <time>2016-03-19T09:35:40Z</time>
      </trkpt>
      <trkpt lat="46.442423528060317" lon="11.863415166735649">
        <ele>2743.2600000000002</ele>
        <time>2016-03-19T09:35:52Z</time>
      </trkpt>
      <trkpt lat="46.44239729270339" lon="11.863466799259186">
        <ele>2744.6999999999998</ele>
        <time>2016-03-19T09:36:04Z</time>
      </trkpt>
      <trkpt lat="46.442355299368501" lon="11.863512312993407">
        <ele>2746.1399999999999</ele>
        <time>2016-03-19T09:36:16Z</time>
      </trkpt>
      <trkpt lat="46.442306768149137" lon="11.863549947738647">
        <ele>2747.0999999999999</ele>
        <time>2016-03-19T09:36:28Z</time>
      </trkpt>
      <trkpt lat="46.442273743450642" lon="11.863565957173705">
        <ele>2748.5500000000002</ele>
        <time>2016-03-19T09:36:42Z</time>
      </trkpt>
      <trkpt lat="46.442238371819258" lon="11.863619182258844">
        <ele>2749.9899999999998</ele>
        <time>2016-03-19T09:36:53Z</time>
      </trkpt>
      <trkpt lat="46.442206436768174" lon="11.863665534183383">
        <ele>2751.4299999999998</ele>
        <time>2016-03-19T09:37:06Z</time>
      </trkpt>
      <trkpt lat="46.442178273573518" lon="11.863715825602412">
        <ele>2753.3499999999999</ele>
        <time>2016-03-19T09:37:18Z</time>
      </trkpt>
      <trkpt lat="46.442148014903069" lon="11.863769218325615">
        <ele>2755.2800000000002</ele>
        <time>2016-03-19T09:37:32Z</time>
      </trkpt>
      <trkpt lat="46.442123036831617" lon="11.863829819485545">
        <ele>2756.7199999999998</ele>
        <time>2016-03-19T09:37:45Z</time>
      </trkpt>
      <trkpt lat="46.442083390429616" lon="11.863872483372688">
        <ele>2758.1599999999999</ele>
        <time>2016-03-19T09:37:56Z</time>
      </trkpt>
      <trkpt lat="46.442059334367514" lon="11.863936772570014">
        <ele>2760.0799999999999</ele>
        <time>2016-03-19T09:38:11Z</time>
      </trkpt>
      <trkpt lat="46.442033937200904" lon="11.863964097574353">
        <ele>2760.5599999999999</ele>
        <time>2016-03-19T09:38:23Z</time>
      </trkpt>
      <trkpt lat="46.442006779834628" lon="11.864025956019759">
        <ele>2762.4899999999998</ele>
        <time>2016-03-19T09:38:38Z</time>
      </trkpt>
      <trkpt lat="46.44196780398488" lon="11.864060657098889">
        <ele>2763.4499999999998</ele>
        <time>2016-03-19T09:38:49Z</time>
      </trkpt>
      <trkpt lat="46.441937629133463" lon="11.864101644605398">
        <ele>2765.3699999999999</ele>
        <time>2016-03-19T09:39:03Z</time>
      </trkpt>
      <trkpt lat="46.441896725445986" lon="11.864149672910571">
        <ele>2766.8099999999999</ele>
        <time>2016-03-19T09:39:16Z</time>
      </trkpt>
      <trkpt lat="46.441878201439977" lon="11.864203233271837">
        <ele>2768.73</ele>
        <time>2016-03-19T09:39:30Z</time>
      </trkpt>
      <trkpt lat="46.441852049902081" lon="11.864278418943286">
        <ele>2770.1799999999998</ele>
        <time>2016-03-19T09:39:42Z</time>
      </trkpt>
      <trkpt lat="46.441818857565522" lon="11.864350587129593">
        <ele>2771.6199999999999</ele>
        <time>2016-03-19T09:39:53Z</time>
      </trkpt>
      <trkpt lat="46.441788598895073" lon="11.864414373412728">
        <ele>2772.5799999999999</ele>
        <time>2016-03-19T09:40:05Z</time>
      </trkpt>
      <trkpt lat="46.44176890142262" lon="11.864459970965981">
        <ele>2773.54</ele>
        <time>2016-03-19T09:40:16Z</time>
      </trkpt>
      <trkpt lat="46.441744593903422" lon="11.864500371739268">
        <ele>2774.02</ele>
        <time>2016-03-19T09:40:27Z</time>
      </trkpt>
      <trkpt lat="46.44174886867404" lon="11.864521997049451">
        <ele>2774.02</ele>
        <time>2016-03-19T09:40:47Z</time>
      </trkpt>
      <trkpt lat="46.44172104075551" lon="11.864505149424076">
        <ele>2774.5</ele>
        <time>2016-03-19T09:41:01Z</time>
      </trkpt>
      <trkpt lat="46.441665217280388" lon="11.864534066990018">
        <ele>2775.46</ele>
        <time>2016-03-19T09:41:13Z</time>
      </trkpt>
      <trkpt lat="46.441640658304095" lon="11.86449115164578">
        <ele>2777.3899999999999</ele>
        <time>2016-03-19T09:41:25Z</time>
      </trkpt>
      <trkpt lat="46.44162523560226" lon="11.864421833306551">
        <ele>2778.3499999999999</ele>
        <time>2016-03-19T09:41:38Z</time>
      </trkpt>
      <trkpt lat="46.441603191196918" lon="11.864367183297873">
        <ele>2779.3099999999999</ele>
        <time>2016-03-19T09:41:49Z</time>
      </trkpt>
      <trkpt lat="46.441585924476385" lon="11.864326614886522">
        <ele>2780.27</ele>
        <time>2016-03-19T09:42:03Z</time>
      </trkpt>
      <trkpt lat="46.441570837050676" lon="11.864288812503219">
        <ele>2781.23</ele>
        <time>2016-03-19T09:42:17Z</time>
      </trkpt>
      <trkpt lat="46.441569998860359" lon="11.864237012341619">
        <ele>2782.6700000000001</ele>
        <time>2016-03-19T09:42:28Z</time>
      </trkpt>
      <trkpt lat="46.441572513431311" lon="11.86423173174262">
        <ele>2781.71</ele>
        <time>2016-03-19T09:42:41Z</time>
      </trkpt>
      <trkpt lat="46.441552815958858" lon="11.864184876903892">
        <ele>2784.5999999999999</ele>
        <time>2016-03-19T09:42:51Z</time>
      </trkpt>
      <trkpt lat="46.441538818180561" lon="11.864140704274178">
        <ele>2785.5599999999999</ele>
        <time>2016-03-19T09:42:59Z</time>
      </trkpt>
      <trkpt lat="46.441513169556856" lon="11.864072056487203">
        <ele>2787.48</ele>
        <time>2016-03-19T09:43:10Z</time>
      </trkpt>
      <trkpt lat="46.441494980826974" lon="11.864026123657823">
        <ele>2788.9200000000001</ele>
        <time>2016-03-19T09:43:23Z</time>
      </trkpt>
      <trkpt lat="46.441484671086073" lon="11.863992847502232">
        <ele>2789.8800000000001</ele>
        <time>2016-03-19T09:43:33Z</time>
      </trkpt>
      <trkpt lat="46.441473523154855" lon="11.863953117281199">
        <ele>2790.3600000000001</ele>
        <time>2016-03-19T09:43:43Z</time>
      </trkpt>
      <trkpt lat="46.441416777670383" lon="11.863922439515591">
        <ele>2792.29</ele>
        <time>2016-03-19T09:43:57Z</time>
      </trkpt>
      <trkpt lat="46.441380064934492" lon="11.863897042348981">
        <ele>2793.73</ele>
        <time>2016-03-19T09:44:09Z</time>
      </trkpt>
      <trkpt lat="46.441365396603942" lon="11.863879021257162">
        <ele>2794.21</ele>
        <time>2016-03-19T09:44:19Z</time>
      </trkpt>
      <trkpt lat="46.441336479038" lon="11.863819845020771">
        <ele>2795.6500000000001</ele>
        <time>2016-03-19T09:44:30Z</time>
      </trkpt>
      <trkpt lat="46.441273195669055" lon="11.863820096477866">
        <ele>2797.0900000000001</ele>
        <time>2016-03-19T09:44:42Z</time>
      </trkpt>
      <trkpt lat="46.441263305023313" lon="11.863832082599401">
        <ele>2797.5700000000002</ele>
        <time>2016-03-19T09:44:52Z</time>
      </trkpt>
      <trkpt lat="46.441238997504115" lon="11.863825460895896">
        <ele>2797.5700000000002</ele>
        <time>2016-03-19T09:45:04Z</time>
      </trkpt>
      <trkpt lat="46.441244361922145" lon="11.86382076703012">
        <ele>2798.0500000000002</ele>
        <time>2016-03-19T09:45:20Z</time>
      </trkpt>
      <trkpt lat="46.441251402720809" lon="11.863834261894226">
        <ele>2798.0500000000002</ele>
        <time>2016-03-19T09:45:34Z</time>
      </trkpt>
      <trkpt lat="46.441246792674065" lon="11.863863095641136">
        <ele>2797.5700000000002</ele>
        <time>2016-03-19T09:45:56Z</time>
      </trkpt>
      <trkpt lat="46.441231537610292" lon="11.863850355148315">
        <ele>2798.0500000000002</ele>
        <time>2016-03-19T09:46:11Z</time>
      </trkpt>
      <trkpt lat="46.441168421879411" lon="11.863841135054827">
        <ele>2799.02</ele>
        <time>2016-03-19T09:46:22Z</time>
      </trkpt>
      <trkpt lat="46.44110195338726" lon="11.863810792565346">
        <ele>2800.46</ele>
        <time>2016-03-19T09:46:34Z</time>
      </trkpt>
      <trkpt lat="46.441081166267395" lon="11.863766703754663">
        <ele>2801.4200000000001</ele>
        <time>2016-03-19T09:46:45Z</time>
      </trkpt>
      <trkpt lat="46.441074209287763" lon="11.86372890137136">
        <ele>2802.8600000000001</ele>
        <time>2016-03-19T09:46:55Z</time>
      </trkpt>
      <trkpt lat="46.441049734130502" lon="11.86371230520308">
        <ele>2803.8200000000002</ele>
        <time>2016-03-19T09:47:04Z</time>
      </trkpt>
      <trkpt lat="46.441029282286763" lon="11.863690931349993">
        <ele>2805.2600000000002</ele>
        <time>2016-03-19T09:47:16Z</time>
      </trkpt>
      <trkpt lat="46.44100371748209" lon="11.863672826439142">
        <ele>2806.71</ele>
        <time>2016-03-19T09:47:26Z</time>
      </trkpt>
      <trkpt lat="46.440974799916148" lon="11.863628150895238">
        <ele>2807.6700000000001</ele>
        <time>2016-03-19T09:47:37Z</time>
      </trkpt>
      <trkpt lat="46.440949402749538" lon="11.863644076511264">
        <ele>2809.5900000000001</ele>
        <time>2016-03-19T09:47:49Z</time>
      </trkpt>
      <trkpt lat="46.440895507112145" lon="11.863710964098573">
        <ele>2811.0300000000002</ele>
        <time>2016-03-19T09:48:04Z</time>
      </trkpt>
      <trkpt lat="46.440848652273417" lon="11.863702749833465">
        <ele>2812.96</ele>
        <time>2016-03-19T09:48:18Z</time>
      </trkpt>
      <trkpt lat="46.440821159631014" lon="11.863660085946321">
        <ele>2813.9200000000001</ele>
        <time>2016-03-19T09:48:30Z</time>
      </trkpt>
      <trkpt lat="46.440806575119495" lon="11.86362043954432">
        <ele>2815.8400000000001</ele>
        <time>2016-03-19T09:48:41Z</time>
      </trkpt>
      <trkpt lat="46.440786458551884" lon="11.863577356562018">
        <ele>2816.8000000000002</ele>
        <time>2016-03-19T09:48:52Z</time>
      </trkpt>
      <trkpt lat="46.440761396661401" lon="11.863531842827797">
        <ele>2818.7199999999998</ele>
        <time>2016-03-19T09:49:05Z</time>
      </trkpt>
      <trkpt lat="46.440745471045375" lon="11.863488424569368">
        <ele>2819.6799999999998</ele>
        <time>2016-03-19T09:49:16Z</time>
      </trkpt>
      <trkpt lat="46.440733317285776" lon="11.863415837287903">
        <ele>2821.1300000000001</ele>
        <time>2016-03-19T09:49:30Z</time>
      </trkpt>
      <trkpt lat="46.440712446346879" lon="11.863390943035483">
        <ele>2822.5700000000002</ele>
        <time>2016-03-19T09:49:41Z</time>
      </trkpt>
      <trkpt lat="46.440696772187948" lon="11.863386500626802">
        <ele>2823.5300000000002</ele>
        <time>2016-03-19T09:49:52Z</time>
      </trkpt>
      <trkpt lat="46.440664166584611" lon="11.863353727385402">
        <ele>2824.9699999999998</ele>
        <time>2016-03-19T09:50:03Z</time>
      </trkpt>
      <trkpt lat="46.440633991733193" lon="11.863299831748009">
        <ele>2826.4099999999999</ele>
        <time>2016-03-19T09:50:17Z</time>
      </trkpt>
      <trkpt lat="46.440618233755231" lon="11.863246606662869">
        <ele>2827.8499999999999</ele>
        <time>2016-03-19T09:50:28Z</time>
      </trkpt>
      <trkpt lat="46.440593507140875" lon="11.863189777359366">
        <ele>2829.3000000000002</ele>
        <time>2016-03-19T09:50:40Z</time>
      </trkpt>
      <trkpt lat="46.44058495759964" lon="11.863172175362706">
        <ele>2829.7800000000002</ele>
        <time>2016-03-19T09:50:49Z</time>
      </trkpt>
      <trkpt lat="46.440559308975935" lon="11.863147113472223">
        <ele>2831.2199999999998</ele>
        <time>2016-03-19T09:51:00Z</time>
      </trkpt>
      <trkpt lat="46.440555034205317" lon="11.863111071288586">
        <ele>2832.1799999999998</ele>
        <time>2016-03-19T09:51:10Z</time>
      </trkpt>
      <trkpt lat="46.440562075003982" lon="11.863071424886584">
        <ele>2833.1399999999999</ele>
        <time>2016-03-19T09:51:20Z</time>
      </trkpt>
      <trkpt lat="46.440552268177271" lon="11.863035382702947">
        <ele>2834.0999999999999</ele>
        <time>2016-03-19T09:51:30Z</time>
      </trkpt>
      <trkpt lat="46.440533325076103" lon="11.863001771271229">
        <ele>2835.0599999999999</ele>
        <time>2016-03-19T09:51:42Z</time>
      </trkpt>
      <trkpt lat="46.440519830211997" lon="11.862946785986423">
        <ele>2836.9899999999998</ele>
        <time>2016-03-19T09:51:57Z</time>
      </trkpt>
      <trkpt lat="46.440515387803316" lon="11.862879227846861">
        <ele>2837.9499999999998</ele>
        <time>2016-03-19T09:52:09Z</time>
      </trkpt>
      <trkpt lat="46.440520752221346" lon="11.862879311665893">
        <ele>2838.4299999999998</ele>
        <time>2016-03-19T09:52:18Z</time>
      </trkpt>
      <trkpt lat="46.440506167709827" lon="11.862865900620818">
        <ele>2838.4299999999998</ele>
        <time>2016-03-19T09:52:35Z</time>
      </trkpt>
      <trkpt lat="46.440466102212667" lon="11.86280588619411">
        <ele>2840.3499999999999</ele>
        <time>2016-03-19T09:52:47Z</time>
      </trkpt>
      <trkpt lat="46.440448919311166" lon="11.862732712179422">
        <ele>2841.79</ele>
        <time>2016-03-19T09:52:58Z</time>
      </trkpt>
      <trkpt lat="46.440431652590632" lon="11.862645456567407">
        <ele>2843.2399999999998</ele>
        <time>2016-03-19T09:53:08Z</time>
      </trkpt>
      <trkpt lat="46.44040809944272" lon="11.862584268674254">
        <ele>2844.6799999999998</ele>
        <time>2016-03-19T09:53:18Z</time>
      </trkpt>
      <trkpt lat="46.440382618457079" lon="11.862546633929014">
        <ele>2846.5999999999999</ele>
        <time>2016-03-19T09:53:30Z</time>
      </trkpt>
      <trkpt lat="46.440350599586964" lon="11.862492822110653">
        <ele>2848.04</ele>
        <time>2016-03-19T09:53:43Z</time>
      </trkpt>
      <trkpt lat="46.44034213386476" lon="11.86252006329596">
        <ele>2848.52</ele>
        <time>2016-03-19T09:53:51Z</time>
      </trkpt>
      <trkpt lat="46.440360322594643" lon="11.862517632544041">
        <ele>2848.52</ele>
        <time>2016-03-19T09:54:06Z</time>
      </trkpt>
      <trkpt lat="46.440374739468098" lon="11.862518889829516">
        <ele>2848.04</ele>
        <time>2016-03-19T09:54:24Z</time>
      </trkpt>
      <trkpt lat="46.440365603193641" lon="11.862496510148048">
        <ele>2849</ele>
        <time>2016-03-19T09:54:35Z</time>
      </trkpt>
      <trkpt lat="46.440369710326195" lon="11.862506987527013">
        <ele>2848.52</ele>
        <time>2016-03-19T09:54:53Z</time>
      </trkpt>
      <trkpt lat="46.440362418070436" lon="11.862503467127681">
        <ele>2848.52</ele>
        <time>2016-03-19T09:55:10Z</time>
      </trkpt>
      <trkpt lat="46.440381612628698" lon="11.862505814060569">
        <ele>2848.04</ele>
        <time>2016-03-19T09:55:24Z</time>
      </trkpt>
      <trkpt lat="46.440389659255743" lon="11.862473879009485">
        <ele>2848.52</ele>
        <time>2016-03-19T09:55:39Z</time>
      </trkpt>
      <trkpt lat="46.440395107492805" lon="11.862483602017164">
        <ele>2849</ele>
        <time>2016-03-19T09:55:51Z</time>
      </trkpt>
      <trkpt lat="46.440395107492805" lon="11.862498018890619">
        <ele>2849</ele>
        <time>2016-03-19T09:56:09Z</time>
      </trkpt>
      <trkpt lat="46.440356718376279" lon="11.86245946213603">
        <ele>2849.48</ele>
        <time>2016-03-19T09:56:24Z</time>
      </trkpt>
      <trkpt lat="46.440340876579285" lon="11.862453175708652">
        <ele>2849.48</ele>
        <time>2016-03-19T09:56:40Z</time>
      </trkpt>
      <trkpt lat="46.440296452492476" lon="11.862440519034863">
        <ele>2851.4099999999999</ele>
        <time>2016-03-19T09:56:51Z</time>
      </trkpt>
      <trkpt lat="46.440266193822026" lon="11.862460635602474">
        <ele>2852.8499999999999</ele>
        <time>2016-03-19T09:57:04Z</time>
      </trkpt>
      <trkpt lat="46.440225038677454" lon="11.862459713593125">
        <ele>2854.29</ele>
        <time>2016-03-19T09:57:14Z</time>
      </trkpt>
      <trkpt lat="46.440178602933884" lon="11.862423084676266">
        <ele>2855.73</ele>
        <time>2016-03-19T09:57:26Z</time>
      </trkpt>
      <trkpt lat="46.440147003158927" lon="11.86236759647727">
        <ele>2857.1799999999998</ele>
        <time>2016-03-19T09:57:36Z</time>
      </trkpt>
      <trkpt lat="46.440113391727209" lon="11.862315963953733">
        <ele>2857.6599999999999</ele>
        <time>2016-03-19T09:57:49Z</time>
      </trkpt>
      <trkpt lat="46.44006360322237" lon="11.862294087186456">
        <ele>2859.5799999999999</ele>
        <time>2016-03-19T09:58:01Z</time>
      </trkpt>
      <trkpt lat="46.440044324845076" lon="11.862294003367424">
        <ele>2859.0999999999999</ele>
        <time>2016-03-19T09:58:11Z</time>
      </trkpt>
      <trkpt lat="46.440019682049751" lon="11.862268690019846">
        <ele>2859.5799999999999</ele>
        <time>2016-03-19T09:58:27Z</time>
      </trkpt>
      <trkpt lat="46.440014569088817" lon="11.862208675593138">
        <ele>2861.02</ele>
        <time>2016-03-19T09:58:39Z</time>
      </trkpt>
      <trkpt lat="46.439989926293492" lon="11.86213449575007">
        <ele>2863.4200000000001</ele>
        <time>2016-03-19T09:58:54Z</time>
      </trkpt>
      <trkpt lat="46.439933935180306" lon="11.862046653404832">
        <ele>2865.3499999999999</ele>
        <time>2016-03-19T09:59:07Z</time>
      </trkpt>
      <trkpt lat="46.439896132797003" lon="11.861971132457256">
        <ele>2866.3099999999999</ele>
        <time>2016-03-19T09:59:18Z</time>
      </trkpt>
      <trkpt lat="46.439872663468122" lon="11.861907765269279">
        <ele>2867.75</ele>
        <time>2016-03-19T09:59:29Z</time>
      </trkpt>
      <trkpt lat="46.439865455031395" lon="11.861886894330382">
        <ele>2868.71</ele>
        <time>2016-03-19T09:59:38Z</time>
      </trkpt>
      <trkpt lat="46.439862940460443" lon="11.861837692558765">
        <ele>2869.6700000000001</ele>
        <time>2016-03-19T09:59:50Z</time>
      </trkpt>
      <trkpt lat="46.439842991530895" lon="11.861809864640236">
        <ele>2871.5999999999999</ele>
        <time>2016-03-19T10:00:02Z</time>
      </trkpt>
      <trkpt lat="46.43983444198966" lon="11.861795531585813">
        <ele>2872.5599999999999</ele>
        <time>2016-03-19T10:00:14Z</time>
      </trkpt>
      <trkpt lat="46.439835196360946" lon="11.861765692010522">
        <ele>2873.52</ele>
        <time>2016-03-19T10:00:25Z</time>
      </trkpt>
      <trkpt lat="46.439847098663449" lon="11.861737025901675">
        <ele>2874</ele>
        <time>2016-03-19T10:00:39Z</time>
      </trkpt>
      <trkpt lat="46.439855983480811" lon="11.861733002588153">
        <ele>2873.04</ele>
        <time>2016-03-19T10:00:59Z</time>
      </trkpt>
      <trkpt lat="46.439855983480811" lon="11.861749766394496">
        <ele>2874</ele>
        <time>2016-03-19T10:01:15Z</time>
      </trkpt>
      <trkpt lat="46.439834190532565" lon="11.861678352579474">
        <ele>2874.96</ele>
        <time>2016-03-19T10:01:27Z</time>
      </trkpt>
      <trkpt lat="46.439796052873135" lon="11.861612387001514">
        <ele>2877.3600000000001</ele>
        <time>2016-03-19T10:01:38Z</time>
      </trkpt>
      <trkpt lat="46.439777612686157" lon="11.861631749197841">
        <ele>2877.3600000000001</ele>
        <time>2016-03-19T10:01:50Z</time>
      </trkpt>
      <trkpt lat="46.439768057316542" lon="11.861603669822216">
        <ele>2878.8099999999999</ele>
        <time>2016-03-19T10:02:01Z</time>
      </trkpt>
      <trkpt lat="46.439763363450766" lon="11.861546169966459">
        <ele>2879.29</ele>
        <time>2016-03-19T10:02:13Z</time>
      </trkpt>
      <trkpt lat="46.439756993204355" lon="11.861595204100013">
        <ele>2882.1700000000001</ele>
        <time>2016-03-19T10:02:20Z</time>
      </trkpt>
      <trkpt lat="46.439740480855107" lon="11.861646082252264">
        <ele>2882.1700000000001</ele>
        <time>2016-03-19T10:02:31Z</time>
      </trkpt>
      <trkpt lat="46.439714496955276" lon="11.861705593764782">
        <ele>2883.1300000000001</ele>
        <time>2016-03-19T10:02:45Z</time>
      </trkpt>
      <trkpt lat="46.439677448943257" lon="11.861788406968117">
        <ele>2884.5700000000002</ele>
        <time>2016-03-19T10:02:57Z</time>
      </trkpt>
      <trkpt lat="46.439645178616047" lon="11.8618393689394">
        <ele>2886.02</ele>
        <time>2016-03-19T10:03:06Z</time>
      </trkpt>
      <trkpt lat="46.439604442566633" lon="11.861891420558095">
        <ele>2887.9400000000001</ele>
        <time>2016-03-19T10:03:17Z</time>
      </trkpt>
      <trkpt lat="46.439596898853779" lon="11.861933749169111">
        <ele>2888.9000000000001</ele>
        <time>2016-03-19T10:03:27Z</time>
      </trkpt>
      <trkpt lat="46.439565466716886" lon="11.861997451633215">
        <ele>2889.8600000000001</ele>
        <time>2016-03-19T10:03:39Z</time>
      </trkpt>
      <trkpt lat="46.439548199996352" lon="11.862045060843229">
        <ele>2890.8200000000002</ele>
        <time>2016-03-19T10:03:49Z</time>
      </trkpt>
      <trkpt lat="46.439516767859459" lon="11.861947746947408">
        <ele>2891.7800000000002</ele>
        <time>2016-03-19T10:04:00Z</time>
      </trkpt>
      <trkpt lat="46.439476953819394" lon="11.861873902380466">
        <ele>2893.71</ele>
        <time>2016-03-19T10:04:14Z</time>
      </trkpt>
      <trkpt lat="46.439474103972316" lon="11.861821850761771">
        <ele>2894.6700000000001</ele>
        <time>2016-03-19T10:04:28Z</time>
      </trkpt>
      <trkpt lat="46.439467566087842" lon="11.861844062805176">
        <ele>2894.6700000000001</ele>
        <time>2016-03-19T10:04:47Z</time>
      </trkpt>
      <trkpt lat="46.439453400671482" lon="11.861782371997833">
        <ele>2895.6300000000001</ele>
        <time>2016-03-19T10:04:57Z</time>
      </trkpt>
      <trkpt lat="46.439431440085173" lon="11.861730655655265">
        <ele>2897.0700000000002</ele>
        <time>2016-03-19T10:05:08Z</time>
      </trkpt>
      <trkpt lat="46.439423058182001" lon="11.861684219911695">
        <ele>2898.0300000000002</ele>
        <time>2016-03-19T10:05:18Z</time>
      </trkpt>
      <trkpt lat="46.439418951049447" lon="11.861590342596173">
        <ele>2899.4699999999998</ele>
        <time>2016-03-19T10:05:30Z</time>
      </trkpt>
      <trkpt lat="46.439408725127578" lon="11.86155547387898">
        <ele>2900.4400000000001</ele>
        <time>2016-03-19T10:05:41Z</time>
      </trkpt>
      <trkpt lat="46.439396655187011" lon="11.861487999558449">
        <ele>2901.4000000000001</ele>
        <time>2016-03-19T10:05:51Z</time>
      </trkpt>
      <trkpt lat="46.439394475892186" lon="11.861461596563458">
        <ele>2902.3600000000001</ele>
        <time>2016-03-19T10:06:02Z</time>
      </trkpt>
      <trkpt lat="46.439390620216727" lon="11.861431421712041">
        <ele>2903.8000000000002</ele>
        <time>2016-03-19T10:06:13Z</time>
      </trkpt>
      <trkpt lat="46.439370419830084" lon="11.861374592408538">
        <ele>2905.7199999999998</ele>
        <time>2016-03-19T10:06:22Z</time>
      </trkpt>
      <trkpt lat="46.439343094825745" lon="11.861335700377822">
        <ele>2905.2399999999998</ele>
        <time>2016-03-19T10:06:33Z</time>
      </trkpt>
      <trkpt lat="46.439336054027081" lon="11.861404599621892">
        <ele>2906.1999999999998</ele>
        <time>2016-03-19T10:06:45Z</time>
      </trkpt>
      <trkpt lat="46.439306298270822" lon="11.861472995951772">
        <ele>2908.1300000000001</ele>
        <time>2016-03-19T10:06:56Z</time>
      </trkpt>
      <trkpt lat="46.439279727637768" lon="11.861516246572137">
        <ele>2909.5700000000002</ele>
        <time>2016-03-19T10:07:05Z</time>
      </trkpt>
      <trkpt lat="46.439262880012393" lon="11.861607693135738">
        <ele>2911.0100000000002</ele>
        <time>2016-03-19T10:07:17Z</time>
      </trkpt>
      <trkpt lat="46.439248295500875" lon="11.86164977028966">
        <ele>2912.4499999999998</ele>
        <time>2016-03-19T10:07:26Z</time>
      </trkpt>
      <trkpt lat="46.439213510602713" lon="11.861674329265952">
        <ele>2913.8899999999999</ele>
        <time>2016-03-19T10:07:36Z</time>
      </trkpt>
      <trkpt lat="46.439193896949291" lon="11.861703163012862">
        <ele>2914.8499999999999</ele>
        <time>2016-03-19T10:07:48Z</time>
      </trkpt>
      <trkpt lat="46.439174953848124" lon="11.861732918769121">
        <ele>2915.8200000000002</ele>
        <time>2016-03-19T10:08:03Z</time>
      </trkpt>
      <trkpt lat="46.439160285517573" lon="11.861760579049587">
        <ele>2916.7800000000002</ele>
        <time>2016-03-19T10:08:14Z</time>
      </trkpt>
      <trkpt lat="46.439143940806389" lon="11.861792346462607">
        <ele>2918.2199999999998</ele>
        <time>2016-03-19T10:08:25Z</time>
      </trkpt>
      <trkpt lat="46.439122902229428" lon="11.86180567368865">
        <ele>2919.1799999999998</ele>
        <time>2016-03-19T10:08:35Z</time>
      </trkpt>
      <trkpt lat="46.439117286354303" lon="11.861830484122038">
        <ele>2920.6199999999999</ele>
        <time>2016-03-19T10:08:46Z</time>
      </trkpt>
      <trkpt lat="46.439093900844455" lon="11.861835261806846">
        <ele>2921.5799999999999</ele>
        <time>2016-03-19T10:08:56Z</time>
      </trkpt>
      <trkpt lat="46.439085267484188" lon="11.861860658973455">
        <ele>2922.54</ele>
        <time>2016-03-19T10:09:06Z</time>
      </trkpt>
      <trkpt lat="46.439079232513905" lon="11.861898461356759">
        <ele>2923.9899999999998</ele>
        <time>2016-03-19T10:09:17Z</time>
      </trkpt>
      <trkpt lat="46.4390829205513" lon="11.861903909593821">
        <ele>2924.9499999999998</ele>
        <time>2016-03-19T10:09:26Z</time>
      </trkpt>
      <trkpt lat="46.439066575840116" lon="11.861941460520029">
        <ele>2925.4299999999998</ele>
        <time>2016-03-19T10:09:36Z</time>
      </trkpt>
      <trkpt lat="46.439052494242787" lon="11.861947495490313">
        <ele>2926.8699999999999</ele>
        <time>2016-03-19T10:09:45Z</time>
      </trkpt>
      <trkpt lat="46.439028773456812" lon="11.861976161599159">
        <ele>2927.3499999999999</ele>
        <time>2016-03-19T10:09:54Z</time>
      </trkpt>
      <trkpt lat="46.439026761800051" lon="11.862021423876286">
        <ele>2929.27</ele>
        <time>2016-03-19T10:10:04Z</time>
      </trkpt>
      <trkpt lat="46.439028605818748" lon="11.862010778859258">
        <ele>2929.75</ele>
        <time>2016-03-19T10:10:15Z</time>
      </trkpt>
      <trkpt lat="46.439040927216411" lon="11.862006168812513">
        <ele>2927.8299999999999</ele>
        <time>2016-03-19T10:10:20Z</time>
      </trkpt>
      <trkpt lat="46.439062971621752" lon="11.861932324245572">
        <ele>2927.8299999999999</ele>
        <time>2016-03-19T10:10:48Z</time>
      </trkpt>
      <trkpt lat="46.439040508121252" lon="11.861912375316024">
        <ele>2927.8299999999999</ele>
        <time>2016-03-19T10:11:22Z</time>
      </trkpt>
      <trkpt lat="46.439058696851134" lon="11.861939784139395">
        <ele>2927.8299999999999</ele>
        <time>2016-03-19T10:11:57Z</time>
      </trkpt>
      <trkpt lat="46.439064480364323" lon="11.86193123459816">
        <ele>2928.3099999999999</ele>
        <time>2016-03-19T10:12:37Z</time>
      </trkpt>
      <trkpt lat="46.439094906672835" lon="11.861950680613518">
        <ele>2929.27</ele>
        <time>2016-03-19T10:13:14Z</time>
      </trkpt>
      <trkpt lat="46.439069174230099" lon="11.861976329237223">
        <ele>2930.7199999999998</ele>
        <time>2016-03-19T10:13:20Z</time>
      </trkpt>
      <trkpt lat="46.439074706286192" lon="11.861949088051915">
        <ele>2930.7199999999998</ele>
        <time>2016-03-19T10:13:31Z</time>
      </trkpt>
      <trkpt lat="46.439036736264825" lon="11.861981526017189">
        <ele>2929.27</ele>
        <time>2016-03-19T10:13:47Z</time>
      </trkpt>
      <trkpt lat="46.439058948308229" lon="11.862001810222864">
        <ele>2930.7199999999998</ele>
        <time>2016-03-19T10:14:08Z</time>
      </trkpt>
      <trkpt lat="46.439042603597045" lon="11.861979179084301">
        <ele>2931.1999999999998</ele>
        <time>2016-03-19T10:14:18Z</time>
      </trkpt>
      <trkpt lat="46.43903698772192" lon="11.861967612057924">
        <ele>2931.1999999999998</ele>
        <time>2016-03-19T10:14:34Z</time>
      </trkpt>
      <trkpt lat="46.438987450674176" lon="11.861879099160433">
        <ele>2931.6799999999998</ele>
        <time>2016-03-19T10:14:46Z</time>
      </trkpt>
      <trkpt lat="46.438945792615414" lon="11.861802907660604">
        <ele>2932.6399999999999</ele>
        <time>2016-03-19T10:14:57Z</time>
      </trkpt>
      <trkpt lat="46.438891729339957" lon="11.861725207418203">
        <ele>2934.0799999999999</ele>
        <time>2016-03-19T10:15:09Z</time>
      </trkpt>
      <trkpt lat="46.438881838694215" lon="11.86170157045126">
        <ele>2935.52</ele>
        <time>2016-03-19T10:15:19Z</time>
      </trkpt>
      <trkpt lat="46.438888795673847" lon="11.861660582944751">
        <ele>2936.48</ele>
        <time>2016-03-19T10:15:29Z</time>
      </trkpt>
      <trkpt lat="46.438895082101226" lon="11.861660750582814">
        <ele>2936.48</ele>
        <time>2016-03-19T10:15:39Z</time>
      </trkpt>
      <trkpt lat="46.438924418762326" lon="11.861615404486656">
        <ele>2937.4499999999998</ele>
        <time>2016-03-19T10:16:02Z</time>
      </trkpt>
      <trkpt lat="46.438899775967002" lon="11.861547427251935">
        <ele>2938.4099999999999</ele>
        <time>2016-03-19T10:16:12Z</time>
      </trkpt>
      <trkpt lat="46.438894243910909" lon="11.861497638747096">
        <ele>2939.8499999999999</ele>
        <time>2016-03-19T10:16:22Z</time>
      </trkpt>
      <trkpt lat="46.438894579187036" lon="11.86150124296546">
        <ele>2940.3299999999999</ele>
        <time>2016-03-19T10:16:31Z</time>
      </trkpt>
      <trkpt lat="46.438907738775015" lon="11.861471235752106">
        <ele>2940.3299999999999</ele>
        <time>2016-03-19T10:16:48Z</time>
      </trkpt>
      <trkpt lat="46.438894243910909" lon="11.86147584579885">
        <ele>2940.8099999999999</ele>
        <time>2016-03-19T10:17:07Z</time>
      </trkpt>
      <trkpt lat="46.438882676884532" lon="11.861449191346765">
        <ele>2941.29</ele>
        <time>2016-03-19T10:17:22Z</time>
      </trkpt>
      <trkpt lat="46.438890807330608" lon="11.861378280445933">
        <ele>2941.29</ele>
        <time>2016-03-19T10:17:31Z</time>
      </trkpt>
      <trkpt lat="46.438906230032444" lon="11.861377526074648">
        <ele>2940.8099999999999</ele>
        <time>2016-03-19T10:17:42Z</time>
      </trkpt>
      <trkpt lat="46.438869349658489" lon="11.861441899091005">
        <ele>2941.29</ele>
        <time>2016-03-19T10:17:54Z</time>
      </trkpt>
      <trkpt lat="46.438827104866505" lon="11.861514234915376">
        <ele>2943.21</ele>
        <time>2016-03-19T10:18:05Z</time>
      </trkpt>
      <trkpt lat="46.438838504254818" lon="11.861517336219549">
        <ele>2943.21</ele>
        <time>2016-03-19T10:18:20Z</time>
      </trkpt>
      <trkpt lat="46.438800701871514" lon="11.861554887145758">
        <ele>2943.6900000000001</ele>
        <time>2016-03-19T10:18:31Z</time>
      </trkpt>
      <trkpt lat="46.438786955550313" lon="11.861608866602182">
        <ele>2945.1399999999999</ele>
        <time>2016-03-19T10:18:42Z</time>
      </trkpt>
      <trkpt lat="46.438779998570681" lon="11.861686315387487">
        <ele>2946.0999999999999</ele>
        <time>2016-03-19T10:18:54Z</time>
      </trkpt>
      <trkpt lat="46.438772873952985" lon="11.861747587099671">
        <ele>2946.5799999999999</ele>
        <time>2016-03-19T10:19:04Z</time>
      </trkpt>
      <trkpt lat="46.438759882003069" lon="11.86181447468698">
        <ele>2947.0599999999999</ele>
        <time>2016-03-19T10:19:15Z</time>
      </trkpt>
      <trkpt lat="46.438760720193386" lon="11.861872058361769">
        <ele>2947.0599999999999</ele>
        <time>2016-03-19T10:19:25Z</time>
      </trkpt>
      <trkpt lat="46.438762145116925" lon="11.861963085830212">
        <ele>2947.0599999999999</ele>
        <time>2016-03-19T10:19:37Z</time>
      </trkpt>
      <trkpt lat="46.43878435716033" lon="11.862044977024198">
        <ele>2946.5799999999999</ele>
        <time>2016-03-19T10:19:49Z</time>
      </trkpt>
      <trkpt lat="46.438833139836788" lon="11.862089820206165">
        <ele>2945.1399999999999</ele>
        <time>2016-03-19T10:20:00Z</time>
      </trkpt>
      <trkpt lat="46.438843365758657" lon="11.862108679488301">
        <ele>2944.6599999999999</ele>
        <time>2016-03-19T10:20:09Z</time>
      </trkpt>
      <trkpt lat="46.438845712691545" lon="11.862114798277617">
        <ele>2943.21</ele>
        <time>2016-03-19T10:20:18Z</time>
      </trkpt>
      <trkpt lat="46.43884252756834" lon="11.86208856292069">
        <ele>2942.73</ele>
        <time>2016-03-19T10:20:31Z</time>
      </trkpt>
      <trkpt lat="46.438875216990709" lon="11.86211253516376">
        <ele>2943.21</ele>
        <time>2016-03-19T10:20:57Z</time>
      </trkpt>
      <trkpt lat="46.438880832865834" lon="11.862100632861257">
        <ele>2943.21</ele>
        <time>2016-03-19T10:21:27Z</time>
      </trkpt>
      <trkpt lat="46.438873121514916" lon="11.862125946208835">
        <ele>2943.21</ele>
        <time>2016-03-19T10:21:48Z</time>
      </trkpt>
      <trkpt lat="46.438831463456154" lon="11.862113373354077">
        <ele>2942.73</ele>
        <time>2016-03-19T10:22:20Z</time>
      </trkpt>
      <trkpt lat="46.438831463456154" lon="11.862114043906331">
        <ele>2944.6599999999999</ele>
        <time>2016-03-19T10:22:25Z</time>
      </trkpt>
      <trkpt lat="46.438811682164669" lon="11.862096106633544">
        <ele>2945.1399999999999</ele>
        <time>2016-03-19T10:22:33Z</time>
      </trkpt>
      <trkpt lat="46.438833810389042" lon="11.862113540992141">
        <ele>2944.6599999999999</ele>
        <time>2016-03-19T10:22:50Z</time>
      </trkpt>
      <trkpt lat="46.438807575032115" lon="11.862124353647232">
        <ele>2944.6599999999999</ele>
        <time>2016-03-19T10:23:07Z</time>
      </trkpt>
      <trkpt lat="46.438802964985371" lon="11.862115804105997">
        <ele>2944.1700000000001</ele>
        <time>2016-03-19T10:23:33Z</time>
      </trkpt>
      <trkpt lat="46.438816292211413" lon="11.862089317291975">
        <ele>2943.6900000000001</ele>
        <time>2016-03-19T10:24:01Z</time>
      </trkpt>
      <trkpt lat="46.438833391293883" lon="11.86211253516376">
        <ele>2944.6599999999999</ele>
        <time>2016-03-19T10:24:15Z</time>
      </trkpt>
      <trkpt lat="46.438846383243799" lon="11.862121503800154">
        <ele>2944.6599999999999</ele>
        <time>2016-03-19T10:24:30Z</time>
      </trkpt>
      <trkpt lat="46.438848059624434" lon="11.862124772742391">
        <ele>2945.1399999999999</ele>
        <time>2016-03-19T10:24:54Z</time>
      </trkpt>
      <trkpt lat="46.438838671892881" lon="11.862136339768767">
        <ele>2944.1700000000001</ele>
        <time>2016-03-19T10:25:08Z</time>
      </trkpt>
      <trkpt lat="46.438838336616755" lon="11.862138686701655">
        <ele>2944.6599999999999</ele>
        <time>2016-03-19T10:25:24Z</time>
      </trkpt>
      <trkpt lat="46.438832636922598" lon="11.862145727500319">
        <ele>2944.6599999999999</ele>
        <time>2016-03-19T10:25:38Z</time>
      </trkpt>
      <trkpt lat="46.438833810389042" lon="11.862114211544394">
        <ele>2944.1700000000001</ele>
        <time>2016-03-19T10:25:53Z</time>
      </trkpt>
      <trkpt lat="46.438844120129943" lon="11.862117983400822">
        <ele>2944.1700000000001</ele>
        <time>2016-03-19T10:26:11Z</time>
      </trkpt>
      <trkpt lat="46.438832553103566" lon="11.862126113846898">
        <ele>2944.1700000000001</ele>
        <time>2016-03-19T10:26:26Z</time>
      </trkpt>
      <trkpt lat="46.438826182857156" lon="11.862117564305663">
        <ele>2944.1700000000001</ele>
        <time>2016-03-19T10:26:40Z</time>
      </trkpt>
      <trkpt lat="46.43883272074163" lon="11.862123683094978">
        <ele>2944.1700000000001</ele>
        <time>2016-03-19T10:26:51Z</time>
      </trkpt>
      <trkpt lat="46.438829116523266" lon="11.86206609942019">
        <ele>2944.6599999999999</ele>
        <time>2016-03-19T10:27:02Z</time>
      </trkpt>
      <trkpt lat="46.438768683001399" lon="11.86198303475976">
        <ele>2944.6599999999999</ele>
        <time>2016-03-19T10:27:15Z</time>
      </trkpt>
      <trkpt lat="46.438747560605407" lon="11.861905502155423">
        <ele>2946.5799999999999</ele>
        <time>2016-03-19T10:27:24Z</time>
      </trkpt>
      <trkpt lat="46.438739011064172" lon="11.861846912652254">
        <ele>2947.0599999999999</ele>
        <time>2016-03-19T10:27:30Z</time>
      </trkpt>
      <trkpt lat="46.438772538676858" lon="11.861715065315366">
        <ele>2946.5799999999999</ele>
        <time>2016-03-19T10:27:41Z</time>
      </trkpt>
      <trkpt lat="46.438747392967343" lon="11.861650692299008">
        <ele>2947.54</ele>
        <time>2016-03-19T10:27:52Z</time>
      </trkpt>
      <trkpt lat="46.438734987750649" lon="11.861623032018542">
        <ele>2948.02</ele>
        <time>2016-03-19T10:28:04Z</time>
      </trkpt>
      <trkpt lat="46.438721492886543" lon="11.861549019813538">
        <ele>2949.46</ele>
        <time>2016-03-19T10:28:18Z</time>
      </trkpt>
      <trkpt lat="46.438709003850818" lon="11.861454807221889">
        <ele>2950.9000000000001</ele>
        <time>2016-03-19T10:28:30Z</time>
      </trkpt>
      <trkpt lat="46.438689222559333" lon="11.861441563814878">
        <ele>2951.3800000000001</ele>
        <time>2016-03-19T10:28:41Z</time>
      </trkpt>
      <trkpt lat="46.438665585592389" lon="11.861394038423896">
        <ele>2952.3499999999999</ele>
        <time>2016-03-19T10:28:53Z</time>
      </trkpt>
      <trkpt lat="46.438648821786046" lon="11.861353470012546">
        <ele>2953.3099999999999</ele>
        <time>2016-03-19T10:29:02Z</time>
      </trkpt>
      <trkpt lat="46.43862065859139" lon="11.861348189413548">
        <ele>2954.27</ele>
        <time>2016-03-19T10:29:12Z</time>
      </trkpt>
      <trkpt lat="46.438593501225114" lon="11.861308375373483">
        <ele>2955.71</ele>
        <time>2016-03-19T10:29:22Z</time>
      </trkpt>
      <trkpt lat="46.438587717711926" lon="11.861269818618894">
        <ele>2957.1500000000001</ele>
        <time>2016-03-19T10:29:32Z</time>
      </trkpt>
      <trkpt lat="46.438589477911592" lon="11.861216509714723">
        <ele>2958.1100000000001</ele>
        <time>2016-03-19T10:29:39Z</time>
      </trkpt>
      <trkpt lat="46.438583694398403" lon="11.86116261407733">
        <ele>2958.1100000000001</ele>
        <time>2016-03-19T10:29:47Z</time>
      </trkpt>
      <trkpt lat="46.438581263646483" lon="11.86116605065763">
        <ele>2958.1100000000001</ele>
        <time>2016-03-19T10:29:57Z</time>
      </trkpt>
      <trkpt lat="46.438603391870856" lon="11.861140569671988">
        <ele>2958.5900000000001</ele>
        <time>2016-03-19T10:30:09Z</time>
      </trkpt>
      <trkpt lat="46.438601883128285" lon="11.861135959625244">
        <ele>2960.04</ele>
        <time>2016-03-19T10:30:12Z</time>
      </trkpt>
      <trkpt lat="46.438574139028788" lon="11.8610795494169">
        <ele>2960.52</ele>
        <time>2016-03-19T10:30:21Z</time>
      </trkpt>
      <trkpt lat="46.438553519546986" lon="11.861040825024247">
        <ele>2961.48</ele>
        <time>2016-03-19T10:30:33Z</time>
      </trkpt>
      <trkpt lat="46.438530553132296" lon="11.860979469493032">
        <ele>2962.9200000000001</ele>
        <time>2016-03-19T10:30:45Z</time>
      </trkpt>
      <trkpt lat="46.438505323603749" lon="11.860943092033267">
        <ele>2963.4000000000001</ele>
        <time>2016-03-19T10:30:54Z</time>
      </trkpt>
      <trkpt lat="46.438481267541647" lon="11.860894896090031">
        <ele>2964.8400000000001</ele>
        <time>2016-03-19T10:31:05Z</time>
      </trkpt>
      <trkpt lat="46.438473053276539" lon="11.860873773694038">
        <ele>2965.8000000000002</ele>
        <time>2016-03-19T10:31:21Z</time>
      </trkpt>
      <trkpt lat="46.438459809869528" lon="11.860831445083022">
        <ele>2967.73</ele>
        <time>2016-03-19T10:31:33Z</time>
      </trkpt>
      <trkpt lat="46.438440950587392" lon="11.86076732352376">
        <ele>2969.6500000000001</ele>
        <time>2016-03-19T10:31:44Z</time>
      </trkpt>
      <trkpt lat="46.438457714393735" lon="11.860832283273339">
        <ele>2969.1700000000001</ele>
        <time>2016-03-19T10:32:04Z</time>
      </trkpt>
      <trkpt lat="46.438451511785388" lon="11.860854579135776">
        <ele>2969.1700000000001</ele>
        <time>2016-03-19T10:32:36Z</time>
      </trkpt>
      <trkpt lat="46.438440699130297" lon="11.860901266336441">
        <ele>2970.6100000000001</ele>
        <time>2016-03-19T10:32:49Z</time>
      </trkpt>
      <trkpt lat="46.438431814312935" lon="11.860947282984853">
        <ele>2971.0900000000001</ele>
        <time>2016-03-19T10:32:58Z</time>
      </trkpt>
      <trkpt lat="46.438421085476875" lon="11.860984079539776">
        <ele>2972.0500000000002</ele>
        <time>2016-03-19T10:33:08Z</time>
      </trkpt>
      <trkpt lat="46.438407590612769" lon="11.86099749058485">
        <ele>2972.5300000000002</ele>
        <time>2016-03-19T10:33:19Z</time>
      </trkpt>
      <trkpt lat="46.438404489308596" lon="11.861015176400542">
        <ele>2973.5</ele>
        <time>2016-03-19T10:33:32Z</time>
      </trkpt>
      <trkpt lat="46.438387809321284" lon="11.861095810309052">
        <ele>2974.46</ele>
        <time>2016-03-19T10:33:43Z</time>
      </trkpt>
      <trkpt lat="46.438382780179381" lon="11.861153813079">
        <ele>2974.9400000000001</ele>
        <time>2016-03-19T10:33:53Z</time>
      </trkpt>
      <trkpt lat="46.438374482095242" lon="11.861188262701035">
        <ele>2975.9000000000001</ele>
        <time>2016-03-19T10:34:03Z</time>
      </trkpt>
      <trkpt lat="46.438359562307596" lon="11.861230758950114">
        <ele>2976.3800000000001</ele>
        <time>2016-03-19T10:34:15Z</time>
      </trkpt>
      <trkpt lat="46.438349336385727" lon="11.861248109489679">
        <ele>2976.8600000000001</ele>
        <time>2016-03-19T10:34:26Z</time>
      </trkpt>
      <trkpt lat="46.438329052180052" lon="11.861289264634252">
        <ele>2977.3400000000001</ele>
        <time>2016-03-19T10:34:43Z</time>
      </trkpt>
      <trkpt lat="46.438319999724627" lon="11.861341064795852">
        <ele>2978.3000000000002</ele>
        <time>2016-03-19T10:34:55Z</time>
      </trkpt>
      <trkpt lat="46.438290495425463" lon="11.861391440033913">
        <ele>2979.7399999999998</ele>
        <time>2016-03-19T10:35:06Z</time>
      </trkpt>
      <trkpt lat="46.438248585909605" lon="11.861421028152108">
        <ele>2981.6700000000001</ele>
        <time>2016-03-19T10:35:19Z</time>
      </trkpt>
      <trkpt lat="46.438265517354012" lon="11.861330922693014">
        <ele>2982.1500000000001</ele>
        <time>2016-03-19T10:35:36Z</time>
      </trkpt>
      <trkpt lat="46.438246574252844" lon="11.861287588253617">
        <ele>2983.1100000000001</ele>
        <time>2016-03-19T10:35:45Z</time>
      </trkpt>
      <trkpt lat="46.438220674172044" lon="11.861220616847277">
        <ele>2984.5500000000002</ele>
        <time>2016-03-19T10:35:56Z</time>
      </trkpt>
      <trkpt lat="46.438215142115951" lon="11.861154399812222">
        <ele>2985.0300000000002</ele>
        <time>2016-03-19T10:36:08Z</time>
      </trkpt>
      <trkpt lat="46.438228050246835" lon="11.861154567450285">
        <ele>2984.0700000000002</ele>
        <time>2016-03-19T10:36:26Z</time>
      </trkpt>
      <trkpt lat="46.438209777697921" lon="11.861100001260638">
        <ele>2987.4299999999998</ele>
        <time>2016-03-19T10:36:39Z</time>
      </trkpt>
      <trkpt lat="46.43819896504283" lon="11.861006543040276">
        <ele>2986.9499999999998</ele>
        <time>2016-03-19T10:36:50Z</time>
      </trkpt>
      <trkpt lat="46.438189661130309" lon="11.860952228307724">
        <ele>2988.4000000000001</ele>
        <time>2016-03-19T10:37:00Z</time>
      </trkpt>
      <trkpt lat="46.438190331682563" lon="11.860920377075672">
        <ele>2989.3600000000001</ele>
        <time>2016-03-19T10:37:09Z</time>
      </trkpt>
      <trkpt lat="46.438199300318956" lon="11.860924987122416">
        <ele>2989.8400000000001</ele>
        <time>2016-03-19T10:37:20Z</time>
      </trkpt>
      <trkpt lat="46.438183039426804" lon="11.86091342009604">
        <ele>2989.8400000000001</ele>
        <time>2016-03-19T10:37:34Z</time>
      </trkpt>
      <trkpt lat="46.438181279227138" lon="11.860904367640615">
        <ele>2990.8000000000002</ele>
        <time>2016-03-19T10:37:45Z</time>
      </trkpt>
      <trkpt lat="46.438150936737657" lon="11.860845191404223">
        <ele>2993.1999999999998</ele>
        <time>2016-03-19T10:37:59Z</time>
      </trkpt>
      <trkpt lat="46.438138196244836" lon="11.860770005732775">
        <ele>2994.1599999999999</ele>
        <time>2016-03-19T10:38:10Z</time>
      </trkpt>
      <trkpt lat="46.438130317255855" lon="11.860735807567835">
        <ele>2995.5999999999999</ele>
        <time>2016-03-19T10:38:19Z</time>
      </trkpt>
      <trkpt lat="46.438115313649178" lon="11.860751900821924">
        <ele>2996.5700000000002</ele>
        <time>2016-03-19T10:38:28Z</time>
      </trkpt>
      <trkpt lat="46.4381159003824" lon="11.860840748995543">
        <ele>2997.0500000000002</ele>
        <time>2016-03-19T10:38:46Z</time>
      </trkpt>
      <trkpt lat="46.438100645318627" lon="11.860897243022919">
        <ele>2998.4899999999998</ele>
        <time>2016-03-19T10:38:56Z</time>
      </trkpt>
      <trkpt lat="46.438089245930314" lon="11.860909145325422">
        <ele>2998.9699999999998</ele>
        <time>2016-03-19T10:39:09Z</time>
      </trkpt>
      <trkpt lat="46.43809444271028" lon="11.860934542492032">
        <ele>2998.9699999999998</ele>
        <time>2016-03-19T10:39:30Z</time>
      </trkpt>
      <trkpt lat="46.43807977437973" lon="11.860933536663651">
        <ele>2999.4499999999998</ele>
        <time>2016-03-19T10:39:50Z</time>
      </trkpt>
      <trkpt lat="46.438066195696592" lon="11.86099061742425">
        <ele>3000.4099999999999</ele>
        <time>2016-03-19T10:40:07Z</time>
      </trkpt>
      <trkpt lat="46.438032584264874" lon="11.861037136986852">
        <ele>3002.3299999999999</ele>
        <time>2016-03-19T10:40:19Z</time>
      </trkpt>
      <trkpt lat="46.438018418848515" lon="11.861066306009889">
        <ele>3003.3000000000002</ele>
        <time>2016-03-19T10:40:28Z</time>
      </trkpt>
      <trkpt lat="46.437993943691254" lon="11.861122800037265">
        <ele>3004.7399999999998</ele>
        <time>2016-03-19T10:40:39Z</time>
      </trkpt>
      <trkpt lat="46.437955554574728" lon="11.861192705109715">
        <ele>3006.6599999999999</ele>
        <time>2016-03-19T10:40:53Z</time>
      </trkpt>
      <trkpt lat="46.437944574281573" lon="11.861172588542104">
        <ele>3007.6199999999999</ele>
        <time>2016-03-19T10:41:05Z</time>
      </trkpt>
      <trkpt lat="46.437945244833827" lon="11.861124895513058">
        <ele>3007.1399999999999</ele>
        <time>2016-03-19T10:41:20Z</time>
      </trkpt>
      <trkpt lat="46.43793610855937" lon="11.861097821965814">
        <ele>3008.5799999999999</ele>
        <time>2016-03-19T10:41:30Z</time>
      </trkpt>
      <trkpt lat="46.437932839617133" lon="11.86108055524528">
        <ele>3008.5799999999999</ele>
        <time>2016-03-19T10:41:40Z</time>
      </trkpt>
      <trkpt lat="46.437925463542342" lon="11.861078459769487">
        <ele>3009.0599999999999</ele>
        <time>2016-03-19T10:41:58Z</time>
      </trkpt>
      <trkpt lat="46.437895791605115" lon="11.861017271876335">
        <ele>3010.9899999999998</ele>
        <time>2016-03-19T10:42:10Z</time>
      </trkpt>
      <trkpt lat="46.437880787998438" lon="11.860945522785187">
        <ele>3012.9099999999999</ele>
        <time>2016-03-19T10:42:22Z</time>
      </trkpt>
      <trkpt lat="46.43786964006722" lon="11.860868828371167">
        <ele>3014.3499999999999</ele>
        <time>2016-03-19T10:42:33Z</time>
      </trkpt>
      <trkpt lat="46.437850780785084" lon="11.86081032268703">
        <ele>3016.27</ele>
        <time>2016-03-19T10:42:44Z</time>
      </trkpt>
      <trkpt lat="46.437873914837837" lon="11.860805880278349">
        <ele>3017.23</ele>
        <time>2016-03-19T10:42:55Z</time>
      </trkpt>
      <trkpt lat="46.437872825190425" lon="11.86080688610673">
        <ele>3015.3099999999999</ele>
        <time>2016-03-19T10:43:23Z</time>
      </trkpt>
      <trkpt lat="46.437849188223481" lon="11.860746117308736">
        <ele>3017.7199999999998</ele>
        <time>2016-03-19T10:43:33Z</time>
      </trkpt>
      <trkpt lat="46.43781004473567" lon="11.860675374045968">
        <ele>3019.6399999999999</ele>
        <time>2016-03-19T10:43:45Z</time>
      </trkpt>
      <trkpt lat="46.437784731388092" lon="11.86058702878654">
        <ele>3021.0799999999999</ele>
        <time>2016-03-19T10:43:55Z</time>
      </trkpt>
      <trkpt lat="46.437764279544353" lon="11.860560541972518">
        <ele>3023.48</ele>
        <time>2016-03-19T10:44:07Z</time>
      </trkpt>
      <trkpt lat="46.4377670455724" lon="11.860607648268342">
        <ele>3023.48</ele>
        <time>2016-03-19T10:44:19Z</time>
      </trkpt>
      <trkpt lat="46.437759669497609" lon="11.860608654096723">
        <ele>3023.48</ele>
        <time>2016-03-19T10:44:37Z</time>
      </trkpt>
      <trkpt lat="46.437744917348027" lon="11.860662885010242">
        <ele>3025.8899999999999</ele>
        <time>2016-03-19T10:44:49Z</time>
      </trkpt>
      <trkpt lat="46.437714826315641" lon="11.860742345452309">
        <ele>3027.3299999999999</ele>
        <time>2016-03-19T10:45:01Z</time>
      </trkpt>
      <trkpt lat="46.43768641166389" lon="11.860809652134776">
        <ele>3028.29</ele>
        <time>2016-03-19T10:45:12Z</time>
      </trkpt>
      <trkpt lat="46.43767467699945" lon="11.860837982967496">
        <ele>3029.25</ele>
        <time>2016-03-19T10:45:25Z</time>
      </trkpt>
      <trkpt lat="46.437673671171069" lon="11.860855333507061">
        <ele>3029.25</ele>
        <time>2016-03-19T10:45:45Z</time>
      </trkpt>
      <trkpt lat="46.437660343945026" lon="11.860872432589531">
        <ele>3029.73</ele>
        <time>2016-03-19T10:45:55Z</time>
      </trkpt>
      <trkpt lat="46.437673252075911" lon="11.860907217487693">
        <ele>3030.21</ele>
        <time>2016-03-19T10:46:12Z</time>
      </trkpt>
      <trkpt lat="46.437662187963724" lon="11.860918030142784">
        <ele>3029.73</ele>
        <time>2016-03-19T10:46:33Z</time>
      </trkpt>
      <trkpt lat="46.437660092487931" lon="11.860889447852969">
        <ele>3031.1700000000001</ele>
        <time>2016-03-19T10:46:45Z</time>
      </trkpt>
      <trkpt lat="46.437676940113306" lon="11.860879389569163">
        <ele>3029.25</ele>
        <time>2016-03-19T10:47:03Z</time>
      </trkpt>
      <trkpt lat="46.437680711969733" lon="11.860873689875007">
        <ele>3028.77</ele>
        <time>2016-03-19T10:47:18Z</time>
      </trkpt>
      <trkpt lat="46.437665456905961" lon="11.860878132283688">
        <ele>3029.25</ele>
        <time>2016-03-19T10:47:35Z</time>
      </trkpt>
      <trkpt lat="46.437631258741021" lon="11.860967231914401">
        <ele>3031.6599999999999</ele>
        <time>2016-03-19T10:47:48Z</time>
      </trkpt>
      <trkpt lat="46.43759454600513" lon="11.861017607152462">
        <ele>3033.5799999999999</ele>
        <time>2016-03-19T10:47:59Z</time>
      </trkpt>
      <trkpt lat="46.437560431659222" lon="11.861094469204545">
        <ele>3035.5</ele>
        <time>2016-03-19T10:48:12Z</time>
      </trkpt>
      <trkpt lat="46.437522461637855" lon="11.86117535457015">
        <ele>3036.9400000000001</ele>
        <time>2016-03-19T10:48:25Z</time>
      </trkpt>
      <trkpt lat="46.437502093613148" lon="11.861241823062301">
        <ele>3038.3800000000001</ele>
        <time>2016-03-19T10:48:38Z</time>
      </trkpt>
      <trkpt lat="46.437478791922331" lon="11.861218521371484">
        <ele>3039.8299999999999</ele>
        <time>2016-03-19T10:48:49Z</time>
      </trkpt>
      <trkpt lat="46.437463788315654" lon="11.861166888847947">
        <ele>3039.8299999999999</ele>
        <time>2016-03-19T10:49:06Z</time>
      </trkpt>
      <trkpt lat="46.437445431947708" lon="11.861124308779836">
        <ele>3039.8299999999999</ele>
        <time>2016-03-19T10:49:18Z</time>
      </trkpt>
      <trkpt lat="46.437431601807475" lon="11.861080387607217">
        <ele>3040.3099999999999</ele>
        <time>2016-03-19T10:49:39Z</time>
      </trkpt>
      <trkpt lat="46.437474181875587" lon="11.861105114221573">
        <ele>3040.3099999999999</ele>
        <time>2016-03-19T10:50:04Z</time>
      </trkpt>
      <trkpt lat="46.437471332028508" lon="11.861144760623574">
        <ele>3040.79</ele>
        <time>2016-03-19T10:50:15Z</time>
      </trkpt>
      <trkpt lat="46.437491700053215" lon="11.861217431724072">
        <ele>3039.3499999999999</ele>
        <time>2016-03-19T10:50:25Z</time>
      </trkpt>
      <trkpt lat="46.43748507834971" lon="11.861200165003538">
        <ele>3039.3499999999999</ele>
        <time>2016-03-19T10:50:39Z</time>
      </trkpt>
      <trkpt lat="46.437489269301295" lon="11.861191028729081">
        <ele>3038.8600000000001</ele>
        <time>2016-03-19T10:50:53Z</time>
      </trkpt>
      <trkpt lat="46.437464542686939" lon="11.861219275742769">
        <ele>3038.8600000000001</ele>
        <time>2016-03-19T10:51:12Z</time>
      </trkpt>
      <trkpt lat="46.437487090006471" lon="11.861196476966143">
        <ele>3038.8600000000001</ele>
        <time>2016-03-19T10:51:25Z</time>
      </trkpt>
      <trkpt lat="46.437492622062564" lon="11.861205194145441">
        <ele>3039.3499999999999</ele>
        <time>2016-03-19T10:51:43Z</time>
      </trkpt>
      <trkpt lat="46.437468817457557" lon="11.861130008473992">
        <ele>3040.3099999999999</ele>
        <time>2016-03-19T10:51:54Z</time>
      </trkpt>
      <trkpt lat="46.437432272359729" lon="11.861070245504379">
        <ele>3041.75</ele>
        <time>2016-03-19T10:52:05Z</time>
      </trkpt>
      <trkpt lat="46.437429673969746" lon="11.861036885529757">
        <ele>3042.71</ele>
        <time>2016-03-19T10:52:14Z</time>
      </trkpt>
      <trkpt lat="46.437411233782768" lon="11.860973099246621">
        <ele>3044.1500000000001</ele>
        <time>2016-03-19T10:52:25Z</time>
      </trkpt>
      <trkpt lat="46.43738835118711" lon="11.860907133668661">
        <ele>3046.0700000000002</ele>
        <time>2016-03-19T10:52:37Z</time>
      </trkpt>
      <trkpt lat="46.437363540753722" lon="11.860844604671001">
        <ele>3047.52</ele>
        <time>2016-03-19T10:52:49Z</time>
      </trkpt>
      <trkpt lat="46.43735121935606" lon="11.860783584415913">
        <ele>3048.48</ele>
        <time>2016-03-19T10:53:00Z</time>
      </trkpt>
      <trkpt lat="46.437352392822504" lon="11.86080981977284">
        <ele>3049.4400000000001</ele>
        <time>2016-03-19T10:53:09Z</time>
      </trkpt>
      <trkpt lat="46.437339652329683" lon="11.86089875176549">
        <ele>3050.4000000000001</ele>
        <time>2016-03-19T10:53:22Z</time>
      </trkpt>
      <trkpt lat="46.437325654551387" lon="11.860960777848959">
        <ele>3051.8400000000001</ele>
        <time>2016-03-19T10:53:33Z</time>
      </trkpt>
      <trkpt lat="46.437309309840202" lon="11.861014422029257">
        <ele>3052.8000000000002</ele>
        <time>2016-03-19T10:53:42Z</time>
      </trkpt>
      <trkpt lat="46.437297994270921" lon="11.861041579395533">
        <ele>3053.77</ele>
        <time>2016-03-19T10:53:51Z</time>
      </trkpt>
      <trkpt lat="46.437294473871589" lon="11.860971674323082">
        <ele>3052.3200000000002</ele>
        <time>2016-03-19T10:54:01Z</time>
      </trkpt>
      <trkpt lat="46.437290534377098" lon="11.860975027084351">
        <ele>3054.25</ele>
        <time>2016-03-19T10:54:21Z</time>
      </trkpt>
      <trkpt lat="46.437275111675262" lon="11.860916521400213">
        <ele>3055.21</ele>
        <time>2016-03-19T10:54:30Z</time>
      </trkpt>
      <trkpt lat="46.437260024249554" lon="11.860875450074673">
        <ele>3055.21</ele>
        <time>2016-03-19T10:54:49Z</time>
      </trkpt>
      <trkpt lat="46.437220964580774" lon="11.860836138948798">
        <ele>3057.6100000000001</ele>
        <time>2016-03-19T10:55:00Z</time>
      </trkpt>
      <trkpt lat="46.437226748093963" lon="11.860920796170831">
        <ele>3059.5300000000002</ele>
        <time>2016-03-19T10:55:11Z</time>
      </trkpt>
      <trkpt lat="46.437195315957069" lon="11.860980307683349">
        <ele>3060.4899999999998</ele>
        <time>2016-03-19T10:55:24Z</time>
      </trkpt>
      <trkpt lat="46.437180144712329" lon="11.861051972955465">
        <ele>3062.4200000000001</ele>
        <time>2016-03-19T10:55:36Z</time>
      </trkpt>
      <trkpt lat="46.437172684818506" lon="11.861119950190187">
        <ele>3063.3800000000001</ele>
        <time>2016-03-19T10:55:48Z</time>
      </trkpt>
      <trkpt lat="46.43715625628829" lon="11.861188933253288">
        <ele>3064.8200000000002</ele>
        <time>2016-03-19T10:56:00Z</time>
      </trkpt>
      <trkpt lat="46.437129685655236" lon="11.861215252429247">
        <ele>3066.2600000000002</ele>
        <time>2016-03-19T10:56:11Z</time>
      </trkpt>
      <trkpt lat="46.43711376003921" lon="11.861174181103706">
        <ele>3066.7399999999998</ele>
        <time>2016-03-19T10:56:23Z</time>
      </trkpt>
      <trkpt lat="46.437105294317007" lon="11.861097402870655">
        <ele>3066.7399999999998</ele>
        <time>2016-03-19T10:56:42Z</time>
      </trkpt>
      <trkpt lat="46.43709858879447" lon="11.861091703176498">
        <ele>3066.2600000000002</ele>
        <time>2016-03-19T10:56:57Z</time>
      </trkpt>
      <trkpt lat="46.437103785574436" lon="11.861126823350787">
        <ele>3066.7399999999998</ele>
        <time>2016-03-19T10:57:12Z</time>
      </trkpt>
      <trkpt lat="46.437100516632199" lon="11.861105868592858">
        <ele>3066.7399999999998</ele>
        <time>2016-03-19T10:57:26Z</time>
      </trkpt>
      <trkpt lat="46.437097247689962" lon="11.861084662377834">
        <ele>3066.7399999999998</ele>
        <time>2016-03-19T10:57:41Z</time>
      </trkpt>
      <trkpt lat="46.437096577137709" lon="11.861069239675999">
        <ele>3067.2199999999998</ele>
        <time>2016-03-19T10:57:55Z</time>
      </trkpt>
      <trkpt lat="46.437094733119011" lon="11.861053900793195">
        <ele>3068.1900000000001</ele>
        <time>2016-03-19T10:58:05Z</time>
      </trkpt>
      <trkpt lat="46.437085513025522" lon="11.861046021804214">
        <ele>3068.1900000000001</ele>
        <time>2016-03-19T10:58:17Z</time>
      </trkpt>
      <trkpt lat="46.437092302367091" lon="11.861055744811893">
        <ele>3068.1900000000001</ele>
        <time>2016-03-19T10:58:34Z</time>
      </trkpt>
      <trkpt lat="46.43705315887928" lon="11.860989611595869">
        <ele>3069.6300000000001</ele>
        <time>2016-03-19T10:58:43Z</time>
      </trkpt>
      <trkpt lat="46.437031114473939" lon="11.860939655452967">
        <ele>3070.5900000000001</ele>
        <time>2016-03-19T10:58:49Z</time>
      </trkpt>
      <trkpt lat="46.437005549669266" lon="11.860852986574173">
        <ele>3072.5100000000002</ele>
        <time>2016-03-19T10:59:00Z</time>
      </trkpt>
      <trkpt lat="46.436978476122022" lon="11.86082256026566">
        <ele>3073.9499999999998</ele>
        <time>2016-03-19T10:59:10Z</time>
      </trkpt>
      <trkpt lat="46.436964478343725" lon="11.860806802287698">
        <ele>3075.4000000000001</ele>
        <time>2016-03-19T10:59:19Z</time>
      </trkpt>
      <trkpt lat="46.436967495828867" lon="11.860823733732104">
        <ele>3075.8800000000001</ele>
        <time>2016-03-19T10:59:30Z</time>
      </trkpt>
      <trkpt lat="46.436979565769434" lon="11.860850220546126">
        <ele>3075.8800000000001</ele>
        <time>2016-03-19T10:59:49Z</time>
      </trkpt>
      <trkpt lat="46.436966573819518" lon="11.860806215554476">
        <ele>3076.3600000000001</ele>
        <time>2016-03-19T11:00:02Z</time>
      </trkpt>
      <trkpt lat="46.436936482787132" lon="11.860759695991874">
        <ele>3078.2800000000002</ele>
        <time>2016-03-19T11:00:12Z</time>
      </trkpt>
      <trkpt lat="46.436898848041892" lon="11.860692976042628">
        <ele>3079.7199999999998</ele>
        <time>2016-03-19T11:00:21Z</time>
      </trkpt>
      <trkpt lat="46.436856687068939" lon="11.860661208629608">
        <ele>3081.1599999999999</ele>
        <time>2016-03-19T11:00:30Z</time>
      </trkpt>
      <trkpt lat="46.436830954626203" lon="11.860643858090043">
        <ele>3082.1199999999999</ele>
        <time>2016-03-19T11:00:40Z</time>
      </trkpt>
      <trkpt lat="46.436803629621863" lon="11.860558278858662">
        <ele>3083.5700000000002</ele>
        <time>2016-03-19T11:00:53Z</time>
      </trkpt>
      <trkpt lat="46.436772365123034" lon="11.860509160906076">
        <ele>3084.5300000000002</ele>
        <time>2016-03-19T11:01:03Z</time>
      </trkpt>
      <trkpt lat="46.436778148636222" lon="11.860548555850983">
        <ele>3085.4899999999998</ele>
        <time>2016-03-19T11:01:14Z</time>
      </trkpt>
      <trkpt lat="46.436768341809511" lon="11.86058945953846">
        <ele>3085.0100000000002</ele>
        <time>2016-03-19T11:01:27Z</time>
      </trkpt>
      <trkpt lat="46.43677856773138" lon="11.860576048493385">
        <ele>3084.5300000000002</ele>
        <time>2016-03-19T11:01:50Z</time>
      </trkpt>
      <trkpt lat="46.436766581609845" lon="11.860628854483366">
        <ele>3085.9699999999998</ele>
        <time>2016-03-19T11:01:59Z</time>
      </trkpt>
      <trkpt lat="46.436750404536724" lon="11.860673781484365">
        <ele>3086.9299999999998</ele>
        <time>2016-03-19T11:02:10Z</time>
      </trkpt>
      <trkpt lat="46.43673213198781" lon="11.860712086781859">
        <ele>3087.8899999999999</ele>
        <time>2016-03-19T11:02:19Z</time>
      </trkpt>
      <trkpt lat="46.436687875539064" lon="11.860754499211907">
        <ele>3090.29</ele>
        <time>2016-03-19T11:02:30Z</time>
      </trkpt>
      <trkpt lat="46.436662646010518" lon="11.860777800902724">
        <ele>3090.7800000000002</ele>
        <time>2016-03-19T11:02:39Z</time>
      </trkpt>
      <trkpt lat="46.436635823920369" lon="11.860813004896045">
        <ele>3092.2199999999998</ele>
        <time>2016-03-19T11:02:50Z</time>
      </trkpt>
      <trkpt lat="46.436632471159101" lon="11.860822895541787">
        <ele>3093.1799999999998</ele>
        <time>2016-03-19T11:03:03Z</time>
      </trkpt>
      <trkpt lat="46.436634315177798" lon="11.860825913026929">
        <ele>3093.6599999999999</ele>
        <time>2016-03-19T11:03:21Z</time>
      </trkpt>
      <trkpt lat="46.436608079820871" lon="11.860885005444288">
        <ele>3094.6199999999999</ele>
        <time>2016-03-19T11:03:33Z</time>
      </trkpt>
      <trkpt lat="46.436590477824211" lon="11.860949462279677">
        <ele>3096.0599999999999</ele>
        <time>2016-03-19T11:03:45Z</time>
      </trkpt>
      <trkpt lat="46.436554854735732" lon="11.860992712900043">
        <ele>3097.9899999999998</ele>
        <time>2016-03-19T11:03:56Z</time>
      </trkpt>
      <trkpt lat="46.436562398448586" lon="11.860982151702046">
        <ele>3098.4699999999998</ele>
        <time>2016-03-19T11:04:08Z</time>
      </trkpt>
      <trkpt lat="46.436567679047585" lon="11.860993383452296">
        <ele>3097.9899999999998</ele>
        <time>2016-03-19T11:04:30Z</time>
      </trkpt>
      <trkpt lat="46.436563152819872" lon="11.860997071489692">
        <ele>3098.4699999999998</ele>
        <time>2016-03-19T11:04:48Z</time>
      </trkpt>
      <trkpt lat="46.436545215547085" lon="11.861090445891023">
        <ele>3100.3899999999999</ele>
        <time>2016-03-19T11:05:01Z</time>
      </trkpt>
      <trkpt lat="46.43650833517313" lon="11.861146353185177">
        <ele>3101.8299999999999</ele>
        <time>2016-03-19T11:05:12Z</time>
      </trkpt>
      <trkpt lat="46.436478411778808" lon="11.861216006800532">
        <ele>3103.75</ele>
        <time>2016-03-19T11:05:27Z</time>
      </trkpt>
      <trkpt lat="46.436466425657272" lon="11.861261520534754">
        <ele>3105.1999999999998</ele>
        <time>2016-03-19T11:05:37Z</time>
      </trkpt>
      <trkpt lat="46.43646240234375" lon="11.861251378431916">
        <ele>3105.1999999999998</ele>
        <time>2016-03-19T11:05:48Z</time>
      </trkpt>
      <trkpt lat="46.436474220827222" lon="11.861273255199194">
        <ele>3105.1999999999998</ele>
        <time>2016-03-19T11:06:05Z</time>
      </trkpt>
      <trkpt lat="46.436442034319043" lon="11.861298400908709">
        <ele>3105.1999999999998</ele>
        <time>2016-03-19T11:06:17Z</time>
      </trkpt>
      <trkpt lat="46.43642719835043" lon="11.861340394243598">
        <ele>3104.71</ele>
        <time>2016-03-19T11:06:40Z</time>
      </trkpt>
      <trkpt lat="46.436440274119377" lon="11.861320110037923">
        <ele>3105.6799999999998</ele>
        <time>2016-03-19T11:06:54Z</time>
      </trkpt>
      <trkpt lat="46.436417223885655" lon="11.861366461962461">
        <ele>3106.6399999999999</ele>
        <time>2016-03-19T11:07:03Z</time>
      </trkpt>
      <trkpt lat="46.436394844204187" lon="11.861418345943093">
        <ele>3108.5599999999999</ele>
        <time>2016-03-19T11:07:14Z</time>
      </trkpt>
      <trkpt lat="46.436404986307025" lon="11.861528567969799">
        <ele>3110.48</ele>
        <time>2016-03-19T11:07:29Z</time>
      </trkpt>
      <trkpt lat="46.436381265521049" lon="11.861627390608191">
        <ele>3111.9200000000001</ele>
        <time>2016-03-19T11:07:40Z</time>
      </trkpt>
      <trkpt lat="46.436367770656943" lon="11.861688327044249">
        <ele>3112.8899999999999</ele>
        <time>2016-03-19T11:07:51Z</time>
      </trkpt>
      <trkpt lat="46.436344049870968" lon="11.861758567392826">
        <ele>3114.8099999999999</ele>
        <time>2016-03-19T11:08:02Z</time>
      </trkpt>
      <trkpt lat="46.436354191973805" lon="11.861819587647915">
        <ele>3115.77</ele>
        <time>2016-03-19T11:08:13Z</time>
      </trkpt>
      <trkpt lat="46.4363700337708" lon="11.861813887953758">
        <ele>3116.25</ele>
        <time>2016-03-19T11:08:24Z</time>
      </trkpt>
      <trkpt lat="46.436352599412203" lon="11.861820928752422">
        <ele>3116.25</ele>
        <time>2016-03-19T11:08:47Z</time>
      </trkpt>
      <trkpt lat="46.436343882232904" lon="11.861803326755762">
        <ele>3115.77</ele>
        <time>2016-03-19T11:09:02Z</time>
      </trkpt>
      <trkpt lat="46.436355952173471" lon="11.861892007291317">
        <ele>3116.73</ele>
        <time>2016-03-19T11:09:14Z</time>
      </trkpt>
      <trkpt lat="46.436357963830233" lon="11.861991500481963">
        <ele>3119.1300000000001</ele>
        <time>2016-03-19T11:09:28Z</time>
      </trkpt>
      <trkpt lat="46.436332063749433" lon="11.862085126340389">
        <ele>3120.5799999999999</ele>
        <time>2016-03-19T11:09:39Z</time>
      </trkpt>
      <trkpt lat="46.436320496723056" lon="11.862153522670269">
        <ele>3122.02</ele>
        <time>2016-03-19T11:09:50Z</time>
      </trkpt>
      <trkpt lat="46.436279341578484" lon="11.86224446631968">
        <ele>3123.9400000000001</ele>
        <time>2016-03-19T11:10:03Z</time>
      </trkpt>
      <trkpt lat="46.436262493953109" lon="11.862260140478611">
        <ele>3124.4200000000001</ele>
        <time>2016-03-19T11:10:12Z</time>
      </trkpt>
      <trkpt lat="46.436252854764462" lon="11.862255949527025">
        <ele>3123.9400000000001</ele>
        <time>2016-03-19T11:10:19Z</time>
      </trkpt>
      <trkpt lat="46.43626794219017" lon="11.862185457721353">
        <ele>3123.46</ele>
        <time>2016-03-19T11:10:34Z</time>
      </trkpt>
      <trkpt lat="46.436314042657614" lon="11.862194761633873">
        <ele>3123.9400000000001</ele>
        <time>2016-03-19T11:10:54Z</time>
      </trkpt>
      <trkpt lat="46.436309684067965" lon="11.862189313396811">
        <ele>3124.9000000000001</ele>
        <time>2016-03-19T11:11:01Z</time>
      </trkpt>
      <trkpt lat="46.436311528086662" lon="11.862185457721353">
        <ele>3125.3800000000001</ele>
        <time>2016-03-19T11:11:09Z</time>
      </trkpt>
      <trkpt lat="46.436305996030569" lon="11.862195013090968">
        <ele>3124.4200000000001</ele>
        <time>2016-03-19T11:11:20Z</time>
      </trkpt>
      <trkpt lat="46.436277329921722" lon="11.862177746370435">
        <ele>3125.3800000000001</ele>
        <time>2016-03-19T11:11:32Z</time>
      </trkpt>
      <trkpt lat="46.436255872249603" lon="11.862146984785795">
        <ele>3125.3800000000001</ele>
        <time>2016-03-19T11:11:46Z</time>
      </trkpt>
      <trkpt lat="46.436227960512042" lon="11.862075319513679">
        <ele>3126.3400000000001</ele>
        <time>2016-03-19T11:11:57Z</time>
      </trkpt>
      <trkpt lat="46.436182279139757" lon="11.862063081935048">
        <ele>3128.27</ele>
        <time>2016-03-19T11:12:08Z</time>
      </trkpt>
      <trkpt lat="46.436139950528741" lon="11.862044390290976">
        <ele>3129.71</ele>
        <time>2016-03-19T11:12:20Z</time>
      </trkpt>
      <trkpt lat="46.436091084033251" lon="11.862039780244231">
        <ele>3131.6300000000001</ele>
        <time>2016-03-19T11:12:31Z</time>
      </trkpt>
      <trkpt lat="46.436039200052619" lon="11.861990997567773">
        <ele>3133.0700000000002</ele>
        <time>2016-03-19T11:12:41Z</time>
      </trkpt>
      <trkpt lat="46.435999386012554" lon="11.861938191577792">
        <ele>3134.52</ele>
        <time>2016-03-19T11:12:52Z</time>
      </trkpt>
      <trkpt lat="46.435955297201872" lon="11.86193810775876">
        <ele>3135.96</ele>
        <time>2016-03-19T11:13:03Z</time>
      </trkpt>
      <trkpt lat="46.435943227261305" lon="11.862025195732713">
        <ele>3136.4400000000001</ele>
        <time>2016-03-19T11:13:12Z</time>
      </trkpt>
      <trkpt lat="46.435965523123741" lon="11.862048329785466">
        <ele>3137.4000000000001</ele>
        <time>2016-03-19T11:13:23Z</time>
      </trkpt>
      <trkpt lat="46.435966780409217" lon="11.862069200724363">
        <ele>3136.9200000000001</ele>
        <time>2016-03-19T11:13:40Z</time>
      </trkpt>
      <trkpt lat="46.435961248353124" lon="11.86210373416543">
        <ele>3137.4000000000001</ele>
        <time>2016-03-19T11:13:53Z</time>
      </trkpt>
      <trkpt lat="46.435957392677665" lon="11.86212862841785">
        <ele>3138.3600000000001</ele>
        <time>2016-03-19T11:14:04Z</time>
      </trkpt>
      <trkpt lat="46.435962170362473" lon="11.862139357253909">
        <ele>3139.3200000000002</ele>
        <time>2016-03-19T11:14:16Z</time>
      </trkpt>
      <trkpt lat="46.435977090150118" lon="11.862101806327701">
        <ele>3139.3200000000002</ele>
        <time>2016-03-19T11:14:32Z</time>
      </trkpt>
      <trkpt lat="46.43597717396915" lon="11.862114714458585">
        <ele>3139.3200000000002</ele>
        <time>2016-03-19T11:14:54Z</time>
      </trkpt>
      <trkpt lat="46.435955967754126" lon="11.862119408324361">
        <ele>3139.3200000000002</ele>
        <time>2016-03-19T11:15:17Z</time>
      </trkpt>
      <trkpt lat="46.435986561700702" lon="11.86210566200316">
        <ele>3139.3200000000002</ele>
        <time>2016-03-19T11:15:32Z</time>
      </trkpt>
      <trkpt lat="46.435974910855293" lon="11.862113373354077">
        <ele>3139.8000000000002</ele>
        <time>2016-03-19T11:15:48Z</time>
      </trkpt>
      <trkpt lat="46.435970552265644" lon="11.862099040299654">
        <ele>3139.3200000000002</ele>
        <time>2016-03-19T11:16:07Z</time>
      </trkpt>
      <trkpt lat="46.435957811772823" lon="11.86213449575007">
        <ele>3139.8000000000002</ele>
        <time>2016-03-19T11:16:27Z</time>
      </trkpt>
      <trkpt lat="46.435975832864642" lon="11.862118905410171">
        <ele>3139.3200000000002</ele>
        <time>2016-03-19T11:16:43Z</time>
      </trkpt>
      <trkpt lat="46.435977090150118" lon="11.862104656174779">
        <ele>3139.3200000000002</ele>
        <time>2016-03-19T11:17:00Z</time>
      </trkpt>
      <trkpt lat="46.435975916683674" lon="11.862114882096648">
        <ele>3139.3200000000002</ele>
        <time>2016-03-19T11:17:18Z</time>
      </trkpt>
      <trkpt lat="46.435954878106713" lon="11.862173052504659">
        <ele>3141.25</ele>
        <time>2016-03-19T11:17:28Z</time>
      </trkpt>
      <trkpt lat="46.435946747660637" lon="11.862250836566091">
        <ele>3142.21</ele>
        <time>2016-03-19T11:17:40Z</time>
      </trkpt>
      <trkpt lat="46.435932414606214" lon="11.862322669476271">
        <ele>3144.6100000000001</ele>
        <time>2016-03-19T11:17:54Z</time>
      </trkpt>
      <trkpt lat="46.435930654406548" lon="11.862395508214831">
        <ele>3146.5300000000002</ele>
        <time>2016-03-19T11:18:06Z</time>
      </trkpt>
      <trkpt lat="46.435908861458302" lon="11.862466335296631">
        <ele>3148.46</ele>
        <time>2016-03-19T11:18:19Z</time>
      </trkpt>
      <trkpt lat="46.435887487605214" lon="11.862514028325677">
        <ele>3149.4200000000001</ele>
        <time>2016-03-19T11:18:29Z</time>
      </trkpt>
      <trkpt lat="46.435892768204212" lon="11.862568259239197">
        <ele>3150.8600000000001</ele>
        <time>2016-03-19T11:18:40Z</time>
      </trkpt>
      <trkpt lat="46.435897210612893" lon="11.862602792680264">
        <ele>3151.8200000000002</ele>
        <time>2016-03-19T11:18:50Z</time>
      </trkpt>
      <trkpt lat="46.435885056853294" lon="11.862649563699961">
        <ele>3153.2600000000002</ele>
        <time>2016-03-19T11:19:00Z</time>
      </trkpt>
      <trkpt lat="46.435874830931425" lon="11.86266515403986">
        <ele>3153.7399999999998</ele>
        <time>2016-03-19T11:19:10Z</time>
      </trkpt>
      <trkpt lat="46.435855384916067" lon="11.862642774358392">
        <ele>3153.7399999999998</ele>
        <time>2016-03-19T11:19:34Z</time>
      </trkpt>
      <trkpt lat="46.435833675786853" lon="11.86266859062016">
        <ele>3154.6999999999998</ele>
        <time>2016-03-19T11:19:53Z</time>
      </trkpt>
      <trkpt lat="46.435827054083347" lon="11.862617209553719">
        <ele>3154.6999999999998</ele>
        <time>2016-03-19T11:20:14Z</time>
      </trkpt>
      <trkpt lat="46.435776259750128" lon="11.86266808770597">
        <ele>3156.1500000000001</ele>
        <time>2016-03-19T11:20:29Z</time>
      </trkpt>
      <trkpt lat="46.435706941410899" lon="11.862629950046539">
        <ele>3158.0700000000002</ele>
        <time>2016-03-19T11:20:41Z</time>
      </trkpt>
      <trkpt lat="46.435655727982521" lon="11.862561218440533">
        <ele>3159.5100000000002</ele>
        <time>2016-03-19T11:20:51Z</time>
      </trkpt>
      <trkpt lat="46.435610549524426" lon="11.862500617280602">
        <ele>3161.4299999999998</ele>
        <time>2016-03-19T11:21:01Z</time>
      </trkpt>
      <trkpt lat="46.435565622523427" lon="11.862449068576097">
        <ele>3163.3600000000001</ele>
        <time>2016-03-19T11:21:13Z</time>
      </trkpt>
      <trkpt lat="46.4355428237468" lon="11.862377570942044">
        <ele>3164.3200000000002</ele>
        <time>2016-03-19T11:21:25Z</time>
      </trkpt>
      <trkpt lat="46.435530502349138" lon="11.86235636472702">
        <ele>3164.8000000000002</ele>
        <time>2016-03-19T11:21:42Z</time>
      </trkpt>
      <trkpt lat="46.43550518900156" lon="11.862314706668258">
        <ele>3165.7600000000002</ele>
        <time>2016-03-19T11:21:52Z</time>
      </trkpt>
      <trkpt lat="46.435479959473014" lon="11.862273719161749">
        <ele>3167.6799999999998</ele>
        <time>2016-03-19T11:22:04Z</time>
      </trkpt>
      <trkpt lat="46.435460262000561" lon="11.862243209034204">
        <ele>3169.5999999999999</ele>
        <time>2016-03-19T11:22:14Z</time>
      </trkpt>
      <trkpt lat="46.435434613376856" lon="11.862188307568431">
        <ele>3170.0799999999999</ele>
        <time>2016-03-19T11:22:24Z</time>
      </trkpt>
      <trkpt lat="46.435407204553485" lon="11.862108930945396">
        <ele>3172.0100000000002</ele>
        <time>2016-03-19T11:22:39Z</time>
      </trkpt>
      <trkpt lat="46.43538105301559" lon="11.862041540443897">
        <ele>3173.9299999999998</ele>
        <time>2016-03-19T11:22:54Z</time>
      </trkpt>
      <trkpt lat="46.435345932841301" lon="11.86194347217679">
        <ele>3175.8499999999999</ele>
        <time>2016-03-19T11:23:08Z</time>
      </trkpt>
      <trkpt lat="46.435359595343471" lon="11.861873818561435">
        <ele>3178.2600000000002</ele>
        <time>2016-03-19T11:23:23Z</time>
      </trkpt>
      <trkpt lat="46.435340065509081" lon="11.861869962885976">
        <ele>3177.29</ele>
        <time>2016-03-19T11:23:42Z</time>
      </trkpt>
      <trkpt lat="46.435350375249982" lon="11.861887900158763">
        <ele>3176.3299999999999</ele>
        <time>2016-03-19T11:23:53Z</time>
      </trkpt>
      <trkpt lat="46.435316512361169" lon="11.861893013119698">
        <ele>3175.8499999999999</ele>
        <time>2016-03-19T11:24:20Z</time>
      </trkpt>
      <trkpt lat="46.435327157378197" lon="11.861872561275959">
        <ele>3176.8099999999999</ele>
        <time>2016-03-19T11:24:37Z</time>
      </trkpt>
      <trkpt lat="46.43530435860157" lon="11.861800225451589">
        <ele>3178.2600000000002</ele>
        <time>2016-03-19T11:24:47Z</time>
      </trkpt>
      <trkpt lat="46.435286086052656" lon="11.861724117770791">
        <ele>3179.2199999999998</ele>
        <time>2016-03-19T11:24:56Z</time>
      </trkpt>
      <trkpt lat="46.435258090496063" lon="11.86165270395577">
        <ele>3180.6599999999999</ele>
        <time>2016-03-19T11:25:07Z</time>
      </trkpt>
      <trkpt lat="46.435219701379538" lon="11.861590845510364">
        <ele>3183.0599999999999</ele>
        <time>2016-03-19T11:25:20Z</time>
      </trkpt>
      <trkpt lat="46.435202434659004" lon="11.861536195501685">
        <ele>3184.5</ele>
        <time>2016-03-19T11:25:31Z</time>
      </trkpt>
      <trkpt lat="46.435184665024281" lon="11.861475007608533">
        <ele>3186.4299999999998</ele>
        <time>2016-03-19T11:25:43Z</time>
      </trkpt>
      <trkpt lat="46.435168823227286" lon="11.861407700926065">
        <ele>3188.3499999999999</ele>
        <time>2016-03-19T11:25:55Z</time>
      </trkpt>
      <trkpt lat="46.435163039714098" lon="11.861417591571808">
        <ele>3188.8299999999999</ele>
        <time>2016-03-19T11:26:06Z</time>
      </trkpt>
      <trkpt lat="46.435162033885717" lon="11.861504428088665">
        <ele>3189.3099999999999</ele>
        <time>2016-03-19T11:26:15Z</time>
      </trkpt>
      <trkpt lat="46.435165219008923" lon="11.86151591129601">
        <ele>3189.79</ele>
        <time>2016-03-19T11:26:33Z</time>
      </trkpt>
      <trkpt lat="46.435163542628288" lon="11.861517000943422">
        <ele>3189.79</ele>
        <time>2016-03-19T11:26:50Z</time>
      </trkpt>
      <trkpt lat="46.435186844319105" lon="11.861527394503355">
        <ele>3189.79</ele>
        <time>2016-03-19T11:27:04Z</time>
      </trkpt>
      <trkpt lat="46.435185167938471" lon="11.861525885760784">
        <ele>3189.79</ele>
        <time>2016-03-19T11:27:27Z</time>
      </trkpt>
      <trkpt lat="46.435162369161844" lon="11.861542649567127">
        <ele>3189.3099999999999</ele>
        <time>2016-03-19T11:27:44Z</time>
      </trkpt>
      <trkpt lat="46.435159100219607" lon="11.861580032855272">
        <ele>3189.79</ele>
        <time>2016-03-19T11:27:57Z</time>
      </trkpt>
      <trkpt lat="46.435133200138807" lon="11.86171037144959">
        <ele>3191.23</ele>
        <time>2016-03-19T11:28:11Z</time>
      </trkpt>
      <trkpt lat="46.435120962560177" lon="11.861798213794827">
        <ele>3192.6799999999998</ele>
        <time>2016-03-19T11:28:24Z</time>
      </trkpt>
      <trkpt lat="46.435076789930463" lon="11.861753035336733">
        <ele>3193.1599999999999</ele>
        <time>2016-03-19T11:28:34Z</time>
      </trkpt>
      <trkpt lat="46.435078047215939" lon="11.861712299287319">
        <ele>3193.6399999999999</ele>
        <time>2016-03-19T11:28:45Z</time>
      </trkpt>
      <trkpt lat="46.435077879577875" lon="11.861688243225217">
        <ele>3194.1199999999999</ele>
        <time>2016-03-19T11:29:03Z</time>
      </trkpt>
      <trkpt lat="46.435081148520112" lon="11.861692601814866">
        <ele>3194.1199999999999</ele>
        <time>2016-03-19T11:29:23Z</time>
      </trkpt>
      <trkpt lat="46.435076789930463" lon="11.861695200204849">
        <ele>3194.1199999999999</ele>
        <time>2016-03-19T11:29:38Z</time>
      </trkpt>
      <trkpt lat="46.435068491846323" lon="11.861690087243915">
        <ele>3194.1199999999999</ele>
        <time>2016-03-19T11:29:53Z</time>
      </trkpt>
      <trkpt lat="46.435064803808928" lon="11.861682711169124">
        <ele>3195.0799999999999</ele>
        <time>2016-03-19T11:30:03Z</time>
      </trkpt>
      <trkpt lat="46.435076287016273" lon="11.861684722825885">
        <ele>3194.5999999999999</ele>
        <time>2016-03-19T11:30:24Z</time>
      </trkpt>
      <trkpt lat="46.435073604807258" lon="11.861667707562447">
        <ele>3195.0799999999999</ele>
        <time>2016-03-19T11:30:37Z</time>
      </trkpt>
      <trkpt lat="46.435066731646657" lon="11.861651362851262">
        <ele>3195.0799999999999</ele>
        <time>2016-03-19T11:30:57Z</time>
      </trkpt>
      <trkpt lat="46.435075784102082" lon="11.86165714636445">
        <ele>3195.0799999999999</ele>
        <time>2016-03-19T11:31:15Z</time>
      </trkpt>
      <trkpt lat="46.435125488787889" lon="11.861576428636909">
        <ele>3192.6799999999998</ele>
        <time>2016-03-19T11:31:23Z</time>
      </trkpt>
      <trkpt lat="46.435153819620609" lon="11.861525466665626">
        <ele>3190.75</ele>
        <time>2016-03-19T11:31:29Z</time>
      </trkpt>
      <trkpt lat="46.435147700831294" lon="11.861551953479648">
        <ele>3190.75</ele>
        <time>2016-03-19T11:31:41Z</time>
      </trkpt>
      <trkpt lat="46.435146108269691" lon="11.861648261547089">
        <ele>3191.23</ele>
        <time>2016-03-19T11:31:53Z</time>
      </trkpt>
      <trkpt lat="46.435127751901746" lon="11.861692015081644">
        <ele>3192.1999999999998</ele>
        <time>2016-03-19T11:32:03Z</time>
      </trkpt>
      <trkpt lat="46.435120794922113" lon="11.861762003973126">
        <ele>3192.6799999999998</ele>
        <time>2016-03-19T11:32:15Z</time>
      </trkpt>
      <trkpt lat="46.435115179046988" lon="11.861754879355431">
        <ele>3193.1599999999999</ele>
        <time>2016-03-19T11:32:27Z</time>
      </trkpt>
      <trkpt lat="46.435089111328125" lon="11.861763428896666">
        <ele>3193.6399999999999</ele>
        <time>2016-03-19T11:32:36Z</time>
      </trkpt>
      <trkpt lat="46.43509229645133" lon="11.861765440553427">
        <ele>3193.6399999999999</ele>
        <time>2016-03-19T11:33:00Z</time>
      </trkpt>
      <trkpt lat="46.435067234560847" lon="11.861713137477636">
        <ele>3195.0799999999999</ele>
        <time>2016-03-19T11:33:14Z</time>
      </trkpt>
      <trkpt lat="46.435046112164855" lon="11.861667623743415">
        <ele>3196.04</ele>
        <time>2016-03-19T11:33:23Z</time>
      </trkpt>
      <trkpt lat="46.435034796595573" lon="11.861637700349092">
        <ele>3197</ele>
        <time>2016-03-19T11:33:32Z</time>
      </trkpt>
      <trkpt lat="46.435018451884389" lon="11.861587408930063">
        <ele>3198.4400000000001</ele>
        <time>2016-03-19T11:33:41Z</time>
      </trkpt>
      <trkpt lat="46.435002190992236" lon="11.861555725336075">
        <ele>3198.9200000000001</ele>
        <time>2016-03-19T11:33:50Z</time>
      </trkpt>
      <trkpt lat="46.434970926493406" lon="11.861516330391169">
        <ele>3201.3299999999999</ele>
        <time>2016-03-19T11:34:06Z</time>
      </trkpt>
      <trkpt lat="46.434965394437313" lon="11.861466625705361">
        <ele>3201.8099999999999</ele>
        <time>2016-03-19T11:34:19Z</time>
      </trkpt>
      <trkpt lat="46.434937315061688" lon="11.861436786130071">
        <ele>3203.25</ele>
        <time>2016-03-19T11:34:29Z</time>
      </trkpt>
      <trkpt lat="46.434950139373541" lon="11.861454891040921">
        <ele>3203.73</ele>
        <time>2016-03-19T11:34:41Z</time>
      </trkpt>
      <trkpt lat="46.434954665601254" lon="11.861433014273643">
        <ele>3203.25</ele>
        <time>2016-03-19T11:34:54Z</time>
      </trkpt>
      <trkpt lat="46.434935387223959" lon="11.861371155828238">
        <ele>3204.21</ele>
        <time>2016-03-19T11:35:07Z</time>
      </trkpt>
      <trkpt lat="46.434919461607933" lon="11.861347015947104">
        <ele>3205.1700000000001</ele>
        <time>2016-03-19T11:35:17Z</time>
      </trkpt>
      <trkpt lat="46.434939159080386" lon="11.861384650692344">
        <ele>3206.6100000000001</ele>
        <time>2016-03-19T11:35:28Z</time>
      </trkpt>
      <trkpt lat="46.434915857389569" lon="11.861397977918386">
        <ele>3205.6500000000001</ele>
        <time>2016-03-19T11:35:45Z</time>
      </trkpt>
      <trkpt lat="46.43490613438189" lon="11.861436450853944">
        <ele>3206.6100000000001</ele>
        <time>2016-03-19T11:35:57Z</time>
      </trkpt>
      <trkpt lat="46.434864308685064" lon="11.861498979851604">
        <ele>3208.0599999999999</ele>
        <time>2016-03-19T11:36:09Z</time>
      </trkpt>
      <trkpt lat="46.43482499755919" lon="11.86152664013207">
        <ele>3209.02</ele>
        <time>2016-03-19T11:36:20Z</time>
      </trkpt>
      <trkpt lat="46.434794655069709" lon="11.861565783619881">
        <ele>3210.9400000000001</ele>
        <time>2016-03-19T11:36:30Z</time>
      </trkpt>
      <trkpt lat="46.434771688655019" lon="11.861577099189162">
        <ele>3211.4200000000001</ele>
        <time>2016-03-19T11:36:43Z</time>
      </trkpt>
      <trkpt lat="46.43474293872714" lon="11.861532339826226">
        <ele>3213.8200000000002</ele>
        <time>2016-03-19T11:36:57Z</time>
      </trkpt>
      <trkpt lat="46.434721145778894" lon="11.861499566584826">
        <ele>3213.8200000000002</ele>
        <time>2016-03-19T11:37:07Z</time>
      </trkpt>
      <trkpt lat="46.434722654521465" lon="11.86147928237915">
        <ele>3213.8200000000002</ele>
        <time>2016-03-19T11:37:23Z</time>
      </trkpt>
      <trkpt lat="46.434729946777225" lon="11.861461261287332">
        <ele>3213.3400000000001</ele>
        <time>2016-03-19T11:37:36Z</time>
      </trkpt>
      <trkpt lat="46.434730449691415" lon="11.861476516351104">
        <ele>3213.8200000000002</ele>
        <time>2016-03-19T11:37:52Z</time>
      </trkpt>
      <trkpt lat="46.434717541560531" lon="11.861450783908367">
        <ele>3214.3099999999999</ele>
        <time>2016-03-19T11:38:03Z</time>
      </trkpt>
      <trkpt lat="46.434693401679397" lon="11.861403090879321">
        <ele>3215.75</ele>
        <time>2016-03-19T11:38:14Z</time>
      </trkpt>
      <trkpt lat="46.434674626216292" lon="11.861468721181154">
        <ele>3217.6700000000001</ele>
        <time>2016-03-19T11:38:26Z</time>
      </trkpt>
      <trkpt lat="46.434643110260367" lon="11.86142941005528">
        <ele>3218.6300000000001</ele>
        <time>2016-03-19T11:38:35Z</time>
      </trkpt>
      <trkpt lat="46.434623664245009" lon="11.861416669562459">
        <ele>3219.1100000000001</ele>
        <time>2016-03-19T11:38:47Z</time>
      </trkpt>
      <trkpt lat="46.434618551284075" lon="11.861405270174146">
        <ele>3218.6300000000001</ele>
        <time>2016-03-19T11:39:07Z</time>
      </trkpt>
      <trkpt lat="46.434626849368215" lon="11.861405102536082">
        <ele>3218.6300000000001</ele>
        <time>2016-03-19T11:39:20Z</time>
      </trkpt>
      <trkpt lat="46.434627939015627" lon="11.861430164426565">
        <ele>3218.6300000000001</ele>
        <time>2016-03-19T11:39:34Z</time>
      </trkpt>
      <trkpt lat="46.434589885175228" lon="11.861349530518055">
        <ele>3220.0700000000002</ele>
        <time>2016-03-19T11:39:45Z</time>
      </trkpt>
      <trkpt lat="46.434579072520137" lon="11.861337041482329">
        <ele>3221.0300000000002</ele>
        <time>2016-03-19T11:39:47Z</time>
      </trkpt>
      <trkpt lat="46.434554848819971" lon="11.861234279349446">
        <ele>3222</ele>
        <time>2016-03-19T11:39:58Z</time>
      </trkpt>
      <trkpt lat="46.434514280408621" lon="11.861157668754458">
        <ele>3224.4000000000001</ele>
        <time>2016-03-19T11:40:09Z</time>
      </trkpt>
      <trkpt lat="46.43448343500495" lon="11.861094804480672">
        <ele>3226.3200000000002</ele>
        <time>2016-03-19T11:40:22Z</time>
      </trkpt>
      <trkpt lat="46.434473795816302" lon="11.861045183613896">
        <ele>3227.7600000000002</ele>
        <time>2016-03-19T11:40:32Z</time>
      </trkpt>
      <trkpt lat="46.434473292902112" lon="11.861031940206885">
        <ele>3227.7600000000002</ele>
        <time>2016-03-19T11:40:47Z</time>
      </trkpt>
      <trkpt lat="46.434437669813633" lon="11.860972512513399">
        <ele>3230.1700000000001</ele>
        <time>2016-03-19T11:40:59Z</time>
      </trkpt>
      <trkpt lat="46.434413529932499" lon="11.860921466723084">
        <ele>3232.0900000000001</ele>
        <time>2016-03-19T11:41:10Z</time>
      </trkpt>
      <trkpt lat="46.434406153857708" lon="11.860847622156143">
        <ele>3233.0500000000002</ele>
        <time>2016-03-19T11:41:19Z</time>
      </trkpt>
      <trkpt lat="46.434376062825322" lon="11.860810909420252">
        <ele>3234.4899999999998</ele>
        <time>2016-03-19T11:41:30Z</time>
      </trkpt>
      <trkpt lat="46.434349324554205" lon="11.860776292160153">
        <ele>3236.9000000000001</ele>
        <time>2016-03-19T11:41:44Z</time>
      </trkpt>
      <trkpt lat="46.434325771406293" lon="11.860712505877018">
        <ele>3239.3000000000002</ele>
        <time>2016-03-19T11:41:55Z</time>
      </trkpt>
      <trkpt lat="46.434335159137845" lon="11.860646288841963">
        <ele>3241.6999999999998</ele>
        <time>2016-03-19T11:42:05Z</time>
      </trkpt>
      <trkpt lat="46.434326693415642" lon="11.860610079020262">
        <ele>3243.1399999999999</ele>
        <time>2016-03-19T11:42:11Z</time>
      </trkpt>
      <trkpt lat="46.434335578233004" lon="11.860553082078695">
        <ele>3244.5900000000001</ele>
        <time>2016-03-19T11:42:22Z</time>
      </trkpt>
      <trkpt lat="46.434339014813304" lon="11.860478147864342">
        <ele>3244.1100000000001</ele>
        <time>2016-03-19T11:42:31Z</time>
      </trkpt>
      <trkpt lat="46.434312192723155" lon="11.8604785669595">
        <ele>3245.0700000000002</ele>
        <time>2016-03-19T11:42:41Z</time>
      </trkpt>
      <trkpt lat="46.434278078377247" lon="11.860513603314757">
        <ele>3246.9899999999998</ele>
        <time>2016-03-19T11:42:52Z</time>
      </trkpt>
      <trkpt lat="46.434247987344861" lon="11.860535144805908">
        <ele>3248.4299999999998</ele>
        <time>2016-03-19T11:43:02Z</time>
      </trkpt>
      <trkpt lat="46.434212196618319" lon="11.860534474253654">
        <ele>3250.3499999999999</ele>
        <time>2016-03-19T11:43:13Z</time>
      </trkpt>
      <trkpt lat="46.434196773916483" lon="11.860572695732117">
        <ele>3251.8000000000002</ele>
        <time>2016-03-19T11:43:22Z</time>
      </trkpt>
      <trkpt lat="46.434157881885767" lon="11.860575964674354">
        <ele>3253.2399999999998</ele>
        <time>2016-03-19T11:43:33Z</time>
      </trkpt>
      <trkpt lat="46.434143045917153" lon="11.860554171726108">
        <ele>3252.7600000000002</ele>
        <time>2016-03-19T11:43:44Z</time>
      </trkpt>
      <trkpt lat="46.434129383414984" lon="11.86057822778821">
        <ele>3253.7199999999998</ele>
        <time>2016-03-19T11:43:57Z</time>
      </trkpt>
      <trkpt lat="46.434123013168573" lon="11.860607899725437">
        <ele>3254.1999999999998</ele>
        <time>2016-03-19T11:44:08Z</time>
      </trkpt>
      <trkpt lat="46.434113793075085" lon="11.860627513378859">
        <ele>3253.7199999999998</ele>
        <time>2016-03-19T11:44:20Z</time>
      </trkpt>
      <trkpt lat="46.434085378423333" lon="11.860592979937792">
        <ele>3254.1999999999998</ele>
        <time>2016-03-19T11:44:30Z</time>
      </trkpt>
      <trkpt lat="46.434113960713148" lon="11.860588537529111">
        <ele>3254.1999999999998</ele>
        <time>2016-03-19T11:44:44Z</time>
      </trkpt>
      <trkpt lat="46.434136256575584" lon="11.860581412911415">
        <ele>3253.2399999999998</ele>
        <time>2016-03-19T11:44:55Z</time>
      </trkpt>
      <trkpt lat="46.434136340394616" lon="11.860572779551148">
        <ele>3252.7600000000002</ele>
        <time>2016-03-19T11:45:10Z</time>
      </trkpt>
      <trkpt lat="46.434154948219657" lon="11.86054746620357">
        <ele>3253.2399999999998</ele>
        <time>2016-03-19T11:45:31Z</time>
      </trkpt>
      <trkpt lat="46.434147488325834" lon="11.860573701560497">
        <ele>3253.2399999999998</ele>
        <time>2016-03-19T11:45:40Z</time>
      </trkpt>
      <trkpt lat="46.434149667620659" lon="11.86055526137352">
        <ele>3253.2399999999998</ele>
        <time>2016-03-19T11:45:48Z</time>
      </trkpt>
      <trkpt lat="46.434137094765902" lon="11.860531205311418">
        <ele>3253.2399999999998</ele>
        <time>2016-03-19T11:46:01Z</time>
      </trkpt>
      <trkpt lat="46.434148913249373" lon="11.860519973561168">
        <ele>3252.7600000000002</ele>
        <time>2016-03-19T11:46:15Z</time>
      </trkpt>
      <trkpt lat="46.434154696762562" lon="11.860559619963169">
        <ele>3253.7199999999998</ele>
        <time>2016-03-19T11:46:23Z</time>
      </trkpt>
      <trkpt lat="46.434151344001293" lon="11.860585939139128">
        <ele>3254.1999999999998</ele>
        <time>2016-03-19T11:46:37Z</time>
      </trkpt>
      <trkpt lat="46.434143800288439" lon="11.860582921653986">
        <ele>3254.1999999999998</ele>
        <time>2016-03-19T11:46:48Z</time>
      </trkpt>
      <trkpt lat="46.434142291545868" lon="11.860585184767842">
        <ele>3253.2399999999998</ele>
        <time>2016-03-19T11:46:51Z</time>
      </trkpt>
      <trkpt lat="46.434133658185601" lon="11.860583508387208">
        <ele>3253.2399999999998</ele>
        <time>2016-03-19T11:47:12Z</time>
      </trkpt>
      <trkpt lat="46.434127036482096" lon="11.860575880855322">
        <ele>3252.7600000000002</ele>
        <time>2016-03-19T11:47:22Z</time>
      </trkpt>
      <trkpt lat="46.434127455577254" lon="11.860559033229947">
        <ele>3252.7600000000002</ele>
        <time>2016-03-19T11:47:35Z</time>
      </trkpt>
      <trkpt lat="46.434148494154215" lon="11.860578479245305">
        <ele>3253.2399999999998</ele>
        <time>2016-03-19T11:47:44Z</time>
      </trkpt>
      <trkpt lat="46.434162156656384" lon="11.860587112605572">
        <ele>3253.7199999999998</ele>
        <time>2016-03-19T11:47:59Z</time>
      </trkpt>
      <trkpt lat="46.434168191626668" lon="11.860602200031281">
        <ele>3254.1999999999998</ele>
        <time>2016-03-19T11:48:17Z</time>
      </trkpt>
      <trkpt lat="46.434153271839023" lon="11.860589375719428">
        <ele>3253.2399999999998</ele>
        <time>2016-03-19T11:48:39Z</time>
      </trkpt>
      <trkpt lat="46.434156876057386" lon="11.860582167282701">
        <ele>3252.7600000000002</ele>
        <time>2016-03-19T11:48:59Z</time>
      </trkpt>
      <trkpt lat="46.434140112251043" lon="11.860555093735456">
        <ele>3252.2800000000002</ele>
        <time>2016-03-19T11:49:14Z</time>
      </trkpt>
      <trkpt lat="46.434141034260392" lon="11.860557356849313">
        <ele>3252.7600000000002</ele>
        <time>2016-03-19T11:49:23Z</time>
      </trkpt>
      <trkpt lat="46.434159725904465" lon="11.860536569729447">
        <ele>3252.7600000000002</ele>
        <time>2016-03-19T11:49:32Z</time>
      </trkpt>
      <trkpt lat="46.43414874561131" lon="11.860578563064337">
        <ele>3252.2800000000002</ele>
        <time>2016-03-19T11:49:46Z</time>
      </trkpt>
      <trkpt lat="46.434143884107471" lon="11.860575964674354">
        <ele>3252.2800000000002</ele>
        <time>2016-03-19T11:49:56Z</time>
      </trkpt>
      <trkpt lat="46.434133742004633" lon="11.860566576942801">
        <ele>3252.7600000000002</ele>
        <time>2016-03-19T11:50:08Z</time>
      </trkpt>
      <trkpt lat="46.434145476669073" lon="11.860582334920764">
        <ele>3253.7199999999998</ele>
        <time>2016-03-19T11:50:20Z</time>
      </trkpt>
      <trkpt lat="46.434152517467737" lon="11.860598595812917">
        <ele>3253.2399999999998</ele>
        <time>2016-03-19T11:50:34Z</time>
      </trkpt>
      <trkpt lat="46.434147404506803" lon="11.860588872805238">
        <ele>3253.2399999999998</ele>
        <time>2016-03-19T11:50:48Z</time>
      </trkpt>
      <trkpt lat="46.434145644307137" lon="11.860582251101732">
        <ele>3253.2399999999998</ele>
        <time>2016-03-19T11:51:06Z</time>
      </trkpt>
      <trkpt lat="46.4341458119452" lon="11.860584933310747">
        <ele>3252.7600000000002</ele>
        <time>2016-03-19T11:51:22Z</time>
      </trkpt>
      <trkpt lat="46.434133490547538" lon="11.860567750409245">
        <ele>3253.7199999999998</ele>
        <time>2016-03-19T11:51:35Z</time>
      </trkpt>
      <trkpt lat="46.434133071452379" lon="11.860550064593554">
        <ele>3252.2800000000002</ele>
        <time>2016-03-19T11:51:48Z</time>
      </trkpt>
      <trkpt lat="46.434134161099792" lon="11.860536402091384">
        <ele>3251.8000000000002</ele>
        <time>2016-03-19T11:51:59Z</time>
      </trkpt>
      <trkpt lat="46.43415461294353" lon="11.86056355945766">
        <ele>3251.8000000000002</ele>
        <time>2016-03-19T11:52:11Z</time>
      </trkpt>
      <trkpt lat="46.434154361486435" lon="11.860560961067677">
        <ele>3252.2800000000002</ele>
        <time>2016-03-19T11:52:33Z</time>
      </trkpt>
      <trkpt lat="46.434152517467737" lon="11.860569594427943">
        <ele>3252.2800000000002</ele>
        <time>2016-03-19T11:52:46Z</time>
      </trkpt>
      <trkpt lat="46.434154361486435" lon="11.860562805086374">
        <ele>3253.2399999999998</ele>
        <time>2016-03-19T11:52:58Z</time>
      </trkpt>
      <trkpt lat="46.434158300980926" lon="11.86055526137352">
        <ele>3252.2800000000002</ele>
        <time>2016-03-19T11:53:17Z</time>
      </trkpt>
      <trkpt lat="46.434141285717487" lon="11.860567834228277">
        <ele>3254.1999999999998</ele>
        <time>2016-03-19T11:53:32Z</time>
      </trkpt>
      <trkpt lat="46.43414287827909" lon="11.860578646883368">
        <ele>3253.2399999999998</ele>
        <time>2016-03-19T11:53:47Z</time>
      </trkpt>
      <trkpt lat="46.434140028432012" lon="11.860581832006574">
        <ele>3253.2399999999998</ele>
        <time>2016-03-19T11:54:01Z</time>
      </trkpt>
      <trkpt lat="46.434150924906135" lon="11.86058409512043">
        <ele>3253.2399999999998</ele>
        <time>2016-03-19T11:54:12Z</time>
      </trkpt>
      <trkpt lat="46.434141872450709" lon="11.860552579164505">
        <ele>3252.7600000000002</ele>
        <time>2016-03-19T11:54:29Z</time>
      </trkpt>
      <trkpt lat="46.434146901592612" lon="11.860562302172184">
        <ele>3253.7199999999998</ele>
        <time>2016-03-19T11:54:41Z</time>
      </trkpt>
      <trkpt lat="46.434142710641026" lon="11.860569678246975">
        <ele>3253.2399999999998</ele>
        <time>2016-03-19T11:54:55Z</time>
      </trkpt>
      <trkpt lat="46.434153188019991" lon="11.860571186989546">
        <ele>3253.2399999999998</ele>
        <time>2016-03-19T11:55:09Z</time>
      </trkpt>
      <trkpt lat="46.434150170534849" lon="11.860555177554488">
        <ele>3252.2800000000002</ele>
        <time>2016-03-19T11:55:27Z</time>
      </trkpt>
      <trkpt lat="46.434157881885767" lon="11.860575042665005">
        <ele>3251.8000000000002</ele>
        <time>2016-03-19T11:55:36Z</time>
      </trkpt>
      <trkpt lat="46.434149919077754" lon="11.860583173111081">
        <ele>3251.3200000000002</ele>
        <time>2016-03-19T11:55:53Z</time>
      </trkpt>
      <trkpt lat="46.434205491095781" lon="11.860540760681033">
        <ele>3250.3499999999999</ele>
        <time>2016-03-19T11:56:08Z</time>
      </trkpt>
      <trkpt lat="46.434218483045697" lon="11.86052056029439">
        <ele>3249.3899999999999</ele>
        <time>2016-03-19T11:56:12Z</time>
      </trkpt>
      <trkpt lat="46.434260979294777" lon="11.860509077087045">
        <ele>3247.4699999999998</ele>
        <time>2016-03-19T11:56:16Z</time>
      </trkpt>
      <trkpt lat="46.434312779456377" lon="11.860470771789551">
        <ele>3244.5900000000001</ele>
        <time>2016-03-19T11:56:22Z</time>
      </trkpt>
      <trkpt lat="46.434347061440349" lon="11.860508322715759">
        <ele>3243.1399999999999</ele>
        <time>2016-03-19T11:56:29Z</time>
      </trkpt>
      <trkpt lat="46.434340439736843" lon="11.860514273867011">
        <ele>3243.1399999999999</ele>
        <time>2016-03-19T11:56:37Z</time>
      </trkpt>
      <trkpt lat="46.434342870488763" lon="11.860554674640298">
        <ele>3242.1799999999998</ele>
        <time>2016-03-19T11:56:44Z</time>
      </trkpt>
      <trkpt lat="46.434352928772569" lon="11.860653078183532">
        <ele>3239.7800000000002</ele>
        <time>2016-03-19T11:56:50Z</time>
      </trkpt>
      <trkpt lat="46.434364495798945" lon="11.860781237483025">
        <ele>3236.4200000000001</ele>
        <time>2016-03-19T11:57:01Z</time>
      </trkpt>
      <trkpt lat="46.434381762519479" lon="11.86081032268703">
        <ele>3234.9699999999998</ele>
        <time>2016-03-19T11:57:09Z</time>
      </trkpt>
      <trkpt lat="46.434420822188258" lon="11.860865140333772">
        <ele>3232.5700000000002</ele>
        <time>2016-03-19T11:57:15Z</time>
      </trkpt>
      <trkpt lat="46.434452086687088" lon="11.860983660444617">
        <ele>3228.73</ele>
        <time>2016-03-19T11:57:25Z</time>
      </trkpt>
      <trkpt lat="46.43449223600328" lon="11.861055409535766">
        <ele>3226.8000000000002</ele>
        <time>2016-03-19T11:57:36Z</time>
      </trkpt>
      <trkpt lat="46.434479327872396" lon="11.861061863601208">
        <ele>3226.3200000000002</ele>
        <time>2016-03-19T11:57:41Z</time>
      </trkpt>
      <trkpt lat="46.434500869363546" lon="11.861110897734761">
        <ele>3225.3600000000001</ele>
        <time>2016-03-19T11:57:51Z</time>
      </trkpt>
      <trkpt lat="46.434555938467383" lon="11.861219024285674">
        <ele>3222.48</ele>
        <time>2016-03-19T11:58:00Z</time>
      </trkpt>
      <trkpt lat="46.434579910710454" lon="11.861260682344437">
        <ele>3221.0300000000002</ele>
        <time>2016-03-19T11:58:08Z</time>
      </trkpt>
      <trkpt lat="46.434621065855026" lon="11.861343244090676">
        <ele>3219.1100000000001</ele>
        <time>2016-03-19T11:58:16Z</time>
      </trkpt>
      <trkpt lat="46.434651659801602" lon="11.861404683440924">
        <ele>3216.71</ele>
        <time>2016-03-19T11:58:25Z</time>
      </trkpt>
      <trkpt lat="46.434706812724471" lon="11.86152764596045">
        <ele>3214.3099999999999</ele>
        <time>2016-03-19T11:58:36Z</time>
      </trkpt>
      <trkpt lat="46.434738915413618" lon="11.861625043675303">
        <ele>3212.3800000000001</ele>
        <time>2016-03-19T11:58:46Z</time>
      </trkpt>
      <trkpt lat="46.434789877384901" lon="11.861682627350092">
        <ele>3209.98</ele>
        <time>2016-03-19T11:58:54Z</time>
      </trkpt>
      <trkpt lat="46.434803958982229" lon="11.86169377528131">
        <ele>3208.54</ele>
        <time>2016-03-19T11:59:04Z</time>
      </trkpt>
      <trkpt lat="46.434851568192244" lon="11.86172453686595">
        <ele>3207.0999999999999</ele>
        <time>2016-03-19T11:59:17Z</time>
      </trkpt>
      <trkpt lat="46.434910828247666" lon="11.861757058650255">
        <ele>3203.73</ele>
        <time>2016-03-19T11:59:26Z</time>
      </trkpt>
      <trkpt lat="46.434960700571537" lon="11.861804332584143">
        <ele>3200.3699999999999</ele>
        <time>2016-03-19T11:59:35Z</time>
      </trkpt>
      <trkpt lat="46.43502096645534" lon="11.86185504309833">
        <ele>3197.48</ele>
        <time>2016-03-19T11:59:45Z</time>
      </trkpt>
      <trkpt lat="46.435041418299079" lon="11.861900975927711">
        <ele>3196.04</ele>
        <time>2016-03-19T11:59:50Z</time>
      </trkpt>
      <trkpt lat="46.435047453269362" lon="11.861923104152083">
        <ele>3195.5599999999999</ele>
        <time>2016-03-19T11:59:52Z</time>
      </trkpt>
      <trkpt lat="46.435048375278711" lon="11.861948585137725">
        <ele>3194.1199999999999</ele>
        <time>2016-03-19T12:00:03Z</time>
      </trkpt>
      <trkpt lat="46.435102690011263" lon="11.86198010109365">
        <ele>3191.71</ele>
        <time>2016-03-19T12:00:12Z</time>
      </trkpt>
      <trkpt lat="46.435126662254333" lon="11.861989321187139">
        <ele>3190.75</ele>
        <time>2016-03-19T12:00:15Z</time>
      </trkpt>
      <trkpt lat="46.435153232887387" lon="11.862020585685968">
        <ele>3189.3099999999999</ele>
        <time>2016-03-19T12:00:19Z</time>
      </trkpt>
      <trkpt lat="46.435158848762512" lon="11.862055622041225">
        <ele>3187.8699999999999</ele>
        <time>2016-03-19T12:00:31Z</time>
      </trkpt>
      <trkpt lat="46.435188604518771" lon="11.86209199950099">
        <ele>3186.9099999999999</ele>
        <time>2016-03-19T12:00:45Z</time>
      </trkpt>
      <trkpt lat="46.435238812118769" lon="11.862135333940387">
        <ele>3183.54</ele>
        <time>2016-03-19T12:00:53Z</time>
      </trkpt>
      <trkpt lat="46.435247780755162" lon="11.862138016149402">
        <ele>3183.54</ele>
        <time>2016-03-19T12:00:54Z</time>
      </trkpt>
      <trkpt lat="46.435290360823274" lon="11.862173220142722">
        <ele>3180.1799999999998</ele>
        <time>2016-03-19T12:01:02Z</time>
      </trkpt>
      <trkpt lat="46.435293294489384" lon="11.862176908180118">
        <ele>3179.6999999999998</ele>
        <time>2016-03-19T12:01:03Z</time>
      </trkpt>
      <trkpt lat="46.435314249247313" lon="11.862212782725692">
        <ele>3178.7399999999998</ele>
        <time>2016-03-19T12:01:15Z</time>
      </trkpt>
      <trkpt lat="46.435369653627276" lon="11.862273048609495">
        <ele>3175.3699999999999</ele>
        <time>2016-03-19T12:01:24Z</time>
      </trkpt>
      <trkpt lat="46.435392452403903" lon="11.862288136035204">
        <ele>3173.9299999999998</ele>
        <time>2016-03-19T12:01:27Z</time>
      </trkpt>
      <trkpt lat="46.435412652790546" lon="11.862337253987789">
        <ele>3172.4899999999998</ele>
        <time>2016-03-19T12:01:32Z</time>
      </trkpt>
      <trkpt lat="46.435406198725104" lon="11.862356029450893">
        <ele>3171.5300000000002</ele>
        <time>2016-03-19T12:01:42Z</time>
      </trkpt>
      <trkpt lat="46.435405947268009" lon="11.862354688346386">
        <ele>3171.5300000000002</ele>
        <time>2016-03-19T12:01:43Z</time>
      </trkpt>
      <trkpt lat="46.435409132391214" lon="11.862352844327688">
        <ele>3172.0100000000002</ele>
        <time>2016-03-19T12:02:00Z</time>
      </trkpt>
      <trkpt lat="46.435407288372517" lon="11.862389724701643">
        <ele>3172.0100000000002</ele>
        <time>2016-03-19T12:02:25Z</time>
      </trkpt>
      <trkpt lat="46.435455735772848" lon="11.862463988363743">
        <ele>3170.5700000000002</ele>
        <time>2016-03-19T12:02:35Z</time>
      </trkpt>
      <trkpt lat="46.43551642075181" lon="11.862507071346045">
        <ele>3167.1999999999998</ele>
        <time>2016-03-19T12:02:46Z</time>
      </trkpt>
      <trkpt lat="46.43554575741291" lon="11.862505897879601">
        <ele>3165.2800000000002</ele>
        <time>2016-03-19T12:02:55Z</time>
      </trkpt>
      <trkpt lat="46.43556579016149" lon="11.862459126859903">
        <ele>3163.3600000000001</ele>
        <time>2016-03-19T12:03:06Z</time>
      </trkpt>
      <trkpt lat="46.435607951134443" lon="11.862501623108983">
        <ele>3161.9099999999999</ele>
        <time>2016-03-19T12:03:22Z</time>
      </trkpt>
      <trkpt lat="46.435642400756478" lon="11.862549316138029">
        <ele>3160.4699999999998</ele>
        <time>2016-03-19T12:03:33Z</time>
      </trkpt>
      <trkpt lat="46.435684561729431" lon="11.862587286159396">
        <ele>3159.9899999999998</ele>
        <time>2016-03-19T12:03:41Z</time>
      </trkpt>
      <trkpt lat="46.435758322477341" lon="11.862652581185102">
        <ele>3156.6300000000001</ele>
        <time>2016-03-19T12:03:52Z</time>
      </trkpt>
      <trkpt lat="46.435799058526754" lon="11.862656185403466">
        <ele>3155.6599999999999</ele>
        <time>2016-03-19T12:04:01Z</time>
      </trkpt>
      <trkpt lat="46.435775756835938" lon="11.862664818763733">
        <ele>3155.6599999999999</ele>
        <time>2016-03-19T12:04:21Z</time>
      </trkpt>
      <trkpt lat="46.435772571712732" lon="11.862663477659225">
        <ele>3155.6599999999999</ele>
        <time>2016-03-19T12:04:38Z</time>
      </trkpt>
      <trkpt lat="46.435771565884352" lon="11.862652162089944">
        <ele>3155.1799999999998</ele>
        <time>2016-03-19T12:04:53Z</time>
      </trkpt>
      <trkpt lat="46.435770560055971" lon="11.862660795450211">
        <ele>3155.1799999999998</ele>
        <time>2016-03-19T12:05:09Z</time>
      </trkpt>
      <trkpt lat="46.435770895332098" lon="11.862653838470578">
        <ele>3155.1799999999998</ele>
        <time>2016-03-19T12:05:24Z</time>
      </trkpt>
      <trkpt lat="46.435762429609895" lon="11.862656017765403">
        <ele>3155.6599999999999</ele>
        <time>2016-03-19T12:05:46Z</time>
      </trkpt>
      <trkpt lat="46.435780869796872" lon="11.862653670832515">
        <ele>3154.6999999999998</ele>
        <time>2016-03-19T12:05:56Z</time>
      </trkpt>
      <trkpt lat="46.435807021334767" lon="11.862641600891948">
        <ele>3154.2199999999998</ele>
        <time>2016-03-19T12:05:58Z</time>
      </trkpt>
      <trkpt lat="46.435881871730089" lon="11.862570689991117">
        <ele>3151.3400000000001</ele>
        <time>2016-03-19T12:06:10Z</time>
      </trkpt>
      <trkpt lat="46.435887319967151" lon="11.862459545955062">
        <ele>3147.9699999999998</ele>
        <time>2016-03-19T12:06:20Z</time>
      </trkpt>
      <trkpt lat="46.435893941670656" lon="11.862423755228519">
        <ele>3147.4899999999998</ele>
        <time>2016-03-19T12:06:23Z</time>
      </trkpt>
      <trkpt lat="46.435904502868652" lon="11.862286124378443">
        <ele>3144.1300000000001</ele>
        <time>2016-03-19T12:06:34Z</time>
      </trkpt>
      <trkpt lat="46.435922775417566" lon="11.862167604267597">
        <ele>3141.25</ele>
        <time>2016-03-19T12:06:44Z</time>
      </trkpt>
      <trkpt lat="46.435949932783842" lon="11.862032823264599">
        <ele>3138.8400000000001</ele>
        <time>2016-03-19T12:06:56Z</time>
      </trkpt>
      <trkpt lat="46.435964601114392" lon="11.861919583752751">
        <ele>3135.96</ele>
        <time>2016-03-19T12:07:06Z</time>
      </trkpt>
      <trkpt lat="46.436017071828246" lon="11.861902987584472">
        <ele>3133.5500000000002</ele>
        <time>2016-03-19T12:07:16Z</time>
      </trkpt>
      <trkpt lat="46.436043391004205" lon="11.861934922635555">
        <ele>3132.5900000000001</ele>
        <time>2016-03-19T12:07:26Z</time>
      </trkpt>
      <trkpt lat="46.436007767915726" lon="11.861996278166771">
        <ele>3133.0700000000002</ele>
        <time>2016-03-19T12:07:42Z</time>
      </trkpt>
      <trkpt lat="46.435963679105043" lon="11.862064590677619">
        <ele>3132.5900000000001</ele>
        <time>2016-03-19T12:08:11Z</time>
      </trkpt>
      <trkpt lat="46.435980023816228" lon="11.862053694203496">
        <ele>3132.1100000000001</ele>
        <time>2016-03-19T12:08:23Z</time>
      </trkpt>
      <trkpt lat="46.435988405719399" lon="11.862056544050574">
        <ele>3132.1100000000001</ele>
        <time>2016-03-19T12:08:24Z</time>
      </trkpt>
      <trkpt lat="46.436034087091684" lon="11.862062579020858">
        <ele>3131.1500000000001</ele>
        <time>2016-03-19T12:08:28Z</time>
      </trkpt>
      <trkpt lat="46.436063339933753" lon="11.862054029479623">
        <ele>3130.6700000000001</ele>
        <time>2016-03-19T12:08:30Z</time>
      </trkpt>
      <trkpt lat="46.436123521998525" lon="11.862055622041225">
        <ele>3129.23</ele>
        <time>2016-03-19T12:08:35Z</time>
      </trkpt>
      <trkpt lat="46.436229133978486" lon="11.862084036692977">
        <ele>3125.8600000000001</ele>
        <time>2016-03-19T12:08:45Z</time>
      </trkpt>
      <trkpt lat="46.436256291344762" lon="11.862103817984462">
        <ele>3125.3800000000001</ele>
        <time>2016-03-19T12:08:48Z</time>
      </trkpt>
      <trkpt lat="46.436301050707698" lon="11.862082947045565">
        <ele>3122.98</ele>
        <time>2016-03-19T12:08:58Z</time>
      </trkpt>
      <trkpt lat="46.436309851706028" lon="11.862013461068273">
        <ele>3120.5799999999999</ele>
        <time>2016-03-19T12:09:10Z</time>
      </trkpt>
      <trkpt lat="46.436295434832573" lon="11.861992171034217">
        <ele>3120.5799999999999</ele>
        <time>2016-03-19T12:09:26Z</time>
      </trkpt>
      <trkpt lat="46.436289818957448" lon="11.861990578472614">
        <ele>3120.5799999999999</ele>
        <time>2016-03-19T12:09:42Z</time>
      </trkpt>
      <trkpt lat="46.436317982152104" lon="11.861902065575123">
        <ele>3119.1300000000001</ele>
        <time>2016-03-19T12:09:47Z</time>
      </trkpt>
      <trkpt lat="46.43632703460753" lon="11.861746245995164">
        <ele>3116.25</ele>
        <time>2016-03-19T12:09:58Z</time>
      </trkpt>
      <trkpt lat="46.436340697109699" lon="11.861623786389828">
        <ele>3113.3699999999999</ele>
        <time>2016-03-19T12:10:06Z</time>
      </trkpt>
      <trkpt lat="46.436371793970466" lon="11.861436450853944">
        <ele>3110</ele>
        <time>2016-03-19T12:10:18Z</time>
      </trkpt>
      <trkpt lat="46.436396688222885" lon="11.861317176371813">
        <ele>3107.5999999999999</ele>
        <time>2016-03-19T12:10:26Z</time>
      </trkpt>
      <trkpt lat="46.436439016833901" lon="11.861187173053622">
        <ele>3104.23</ele>
        <time>2016-03-19T12:10:37Z</time>
      </trkpt>
      <trkpt lat="46.436492744833231" lon="11.861074101179838">
        <ele>3101.3499999999999</ele>
        <time>2016-03-19T12:10:47Z</time>
      </trkpt>
      <trkpt lat="46.4365219976753" lon="11.861021127551794">
        <ele>3099.4299999999998</ele>
        <time>2016-03-19T12:10:52Z</time>
      </trkpt>
      <trkpt lat="46.436577066779137" lon="11.860901266336441">
        <ele>3096.54</ele>
        <time>2016-03-19T12:11:02Z</time>
      </trkpt>
      <trkpt lat="46.436635069549084" lon="11.86077612452209">
        <ele>3093.1799999999998</ele>
        <time>2016-03-19T12:11:12Z</time>
      </trkpt>
      <trkpt lat="46.436659628525376" lon="11.860734969377518">
        <ele>3091.2600000000002</ele>
        <time>2016-03-19T12:11:16Z</time>
      </trkpt>
      <trkpt lat="46.4367067348212" lon="11.860700268298388">
        <ele>3088.8499999999999</ele>
        <time>2016-03-19T12:11:21Z</time>
      </trkpt>
      <trkpt lat="46.43673213198781" lon="11.860670763999224">
        <ele>3087.8899999999999</ele>
        <time>2016-03-19T12:11:24Z</time>
      </trkpt>
      <trkpt lat="46.436777980998158" lon="11.860543275251985">
        <ele>3084.5300000000002</ele>
        <time>2016-03-19T12:11:34Z</time>
      </trkpt>
      <trkpt lat="46.43679516389966" lon="11.860497090965509">
        <ele>3083.0900000000001</ele>
        <time>2016-03-19T12:11:39Z</time>
      </trkpt>
      <trkpt lat="46.436809161677957" lon="11.86055039986968">
        <ele>3082.5999999999999</ele>
        <time>2016-03-19T12:11:50Z</time>
      </trkpt>
      <trkpt lat="46.436843695119023" lon="11.860624831169844">
        <ele>3081.1599999999999</ele>
        <time>2016-03-19T12:12:07Z</time>
      </trkpt>
      <trkpt lat="46.436876887455583" lon="11.860694400966167">
        <ele>3080.1999999999998</ele>
        <time>2016-03-19T12:12:18Z</time>
      </trkpt>
      <trkpt lat="46.436909409239888" lon="11.860722480341792">
        <ele>3078.2800000000002</ele>
        <time>2016-03-19T12:12:24Z</time>
      </trkpt>
      <trkpt lat="46.436966573819518" lon="11.860798839479685">
        <ele>3075.4000000000001</ele>
        <time>2016-03-19T12:12:34Z</time>
      </trkpt>
      <trkpt lat="46.437016949057579" lon="11.860883580520749">
        <ele>3072.5100000000002</ele>
        <time>2016-03-19T12:12:44Z</time>
      </trkpt>
      <trkpt lat="46.437033880501986" lon="11.860912162810564">
        <ele>3071.5500000000002</ele>
        <time>2016-03-19T12:12:47Z</time>
      </trkpt>
      <trkpt lat="46.437072856351733" lon="11.861017690971494">
        <ele>3068.6700000000001</ele>
        <time>2016-03-19T12:12:57Z</time>
      </trkpt>
      <trkpt lat="46.437104204669595" lon="11.861119950190187">
        <ele>3066.2600000000002</ele>
        <time>2016-03-19T12:13:07Z</time>
      </trkpt>
      <trkpt lat="46.437126500532031" lon="11.861192705109715">
        <ele>3063.8600000000001</ele>
        <time>2016-03-19T12:13:17Z</time>
      </trkpt>
      <trkpt lat="46.437128596007824" lon="11.861127577722073">
        <ele>3062.9000000000001</ele>
        <time>2016-03-19T12:13:31Z</time>
      </trkpt>
      <trkpt lat="46.437145108357072" lon="11.861068485304713">
        <ele>3061.9400000000001</ele>
        <time>2016-03-19T12:13:36Z</time>
      </trkpt>
      <trkpt lat="46.437163129448891" lon="11.860994221642613">
        <ele>3060.4899999999998</ele>
        <time>2016-03-19T12:13:42Z</time>
      </trkpt>
      <trkpt lat="46.437202524393797" lon="11.860887603834271">
        <ele>3058.0900000000001</ele>
        <time>2016-03-19T12:13:52Z</time>
      </trkpt>
      <trkpt lat="46.43724468536675" lon="11.860833372920752">
        <ele>3054.73</ele>
        <time>2016-03-19T12:14:01Z</time>
      </trkpt>
      <trkpt lat="46.437267232686281" lon="11.860911240801215">
        <ele>3053.77</ele>
        <time>2016-03-19T12:14:06Z</time>
      </trkpt>
      <trkpt lat="46.437296150252223" lon="11.861031940206885">
        <ele>3051.3600000000001</ele>
        <time>2016-03-19T12:14:16Z</time>
      </trkpt>
      <trkpt lat="46.437299167737365" lon="11.860981648787856">
        <ele>3050.8800000000001</ele>
        <time>2016-03-19T12:14:23Z</time>
      </trkpt>
      <trkpt lat="46.437312997877598" lon="11.860945438966155">
        <ele>3049.4400000000001</ele>
        <time>2016-03-19T12:14:26Z</time>
      </trkpt>
      <trkpt lat="46.437357505783439" lon="11.860828176140785">
        <ele>3047.04</ele>
        <time>2016-03-19T12:14:36Z</time>
      </trkpt>
      <trkpt lat="46.437397906556726" lon="11.860865224152803">
        <ele>3045.1100000000001</ele>
        <time>2016-03-19T12:14:47Z</time>
      </trkpt>
      <trkpt lat="46.437427410855889" lon="11.860980726778507">
        <ele>3042.71</ele>
        <time>2016-03-19T12:14:57Z</time>
      </trkpt>
      <trkpt lat="46.437440402805805" lon="11.861035125330091">
        <ele>3041.75</ele>
        <time>2016-03-19T12:15:02Z</time>
      </trkpt>
      <trkpt lat="46.437472086399794" lon="11.861145263537765">
        <ele>3039.3499999999999</ele>
        <time>2016-03-19T12:15:12Z</time>
      </trkpt>
      <trkpt lat="46.43750561401248" lon="11.861255653202534">
        <ele>3036.9400000000001</ele>
        <time>2016-03-19T12:15:23Z</time>
      </trkpt>
      <trkpt lat="46.437516761943698" lon="11.861169151961803">
        <ele>3035.5</ele>
        <time>2016-03-19T12:15:33Z</time>
      </trkpt>
      <trkpt lat="46.437526736408472" lon="11.861135205253959">
        <ele>3035.02</ele>
        <time>2016-03-19T12:15:36Z</time>
      </trkpt>
      <trkpt lat="46.437568813562393" lon="11.861021462827921">
        <ele>3032.1399999999999</ele>
        <time>2016-03-19T12:15:47Z</time>
      </trkpt>
      <trkpt lat="46.437613908201456" lon="11.860929010435939">
        <ele>3029.73</ele>
        <time>2016-03-19T12:15:57Z</time>
      </trkpt>
      <trkpt lat="46.437642825767398" lon="11.860837731510401">
        <ele>3027.3299999999999</ele>
        <time>2016-03-19T12:16:08Z</time>
      </trkpt>
      <trkpt lat="46.437680292874575" lon="11.860778303816915">
        <ele>3025.4099999999999</ele>
        <time>2016-03-19T12:16:17Z</time>
      </trkpt>
      <trkpt lat="46.437700409442186" lon="11.860715691000223">
        <ele>3023.48</ele>
        <time>2016-03-19T12:16:26Z</time>
      </trkpt>
      <trkpt lat="46.43770594149828" lon="11.860703956335783">
        <ele>3023.48</ele>
        <time>2016-03-19T12:16:27Z</time>
      </trkpt>
      <trkpt lat="46.437768554314971" lon="11.860558949410915">
        <ele>3020.5999999999999</ele>
        <time>2016-03-19T12:16:40Z</time>
      </trkpt>
      <trkpt lat="46.437797974795103" lon="11.860574204474688">
        <ele>3018.1999999999998</ele>
        <time>2016-03-19T12:16:50Z</time>
      </trkpt>
      <trkpt lat="46.437822869047523" lon="11.860667327418923">
        <ele>3016.27</ele>
        <time>2016-03-19T12:16:59Z</time>
      </trkpt>
      <trkpt lat="46.437839800491929" lon="11.860711332410574">
        <ele>3015.3099999999999</ele>
        <time>2016-03-19T12:17:03Z</time>
      </trkpt>
      <trkpt lat="46.437871567904949" lon="11.860809065401554">
        <ele>3012.9099999999999</ele>
        <time>2016-03-19T12:17:13Z</time>
      </trkpt>
      <trkpt lat="46.437885146588087" lon="11.860882993787527">
        <ele>3010.9899999999998</ele>
        <time>2016-03-19T12:17:22Z</time>
      </trkpt>
      <trkpt lat="46.437890846282244" lon="11.860925070941448">
        <ele>3010.0300000000002</ele>
        <time>2016-03-19T12:17:26Z</time>
      </trkpt>
      <trkpt lat="46.437913393601775" lon="11.861036801710725">
        <ele>3007.6199999999999</ele>
        <time>2016-03-19T12:17:35Z</time>
      </trkpt>
      <trkpt lat="46.437930408865213" lon="11.861126571893692">
        <ele>3005.2199999999998</ele>
        <time>2016-03-19T12:17:44Z</time>
      </trkpt>
      <trkpt lat="46.437956895679235" lon="11.861182898283005">
        <ele>3003.3000000000002</ele>
        <time>2016-03-19T12:17:54Z</time>
      </trkpt>
      <trkpt lat="46.43794734030962" lon="11.861164290457964">
        <ele>3002.8200000000002</ele>
        <time>2016-03-19T12:18:04Z</time>
      </trkpt>
      <trkpt lat="46.437943484634161" lon="11.861158674582839">
        <ele>3001.8499999999999</ele>
        <time>2016-03-19T12:18:14Z</time>
      </trkpt>
      <trkpt lat="46.437950944527984" lon="11.861173594370484">
        <ele>3001.8499999999999</ele>
        <time>2016-03-19T12:18:37Z</time>
      </trkpt>
      <trkpt lat="46.437980532646179" lon="11.861177952960134">
        <ele>3001.8499999999999</ele>
        <time>2016-03-19T12:19:02Z</time>
      </trkpt>
      <trkpt lat="46.43799134530127" lon="11.861173929646611">
        <ele>3001.3699999999999</ele>
        <time>2016-03-19T12:19:12Z</time>
      </trkpt>
      <trkpt lat="46.4379708096385" lon="11.861175438389182">
        <ele>3002.3299999999999</ele>
        <time>2016-03-19T12:19:20Z</time>
      </trkpt>
      <trkpt lat="46.437965193763375" lon="11.861171498894691">
        <ele>3002.8200000000002</ele>
        <time>2016-03-19T12:19:33Z</time>
      </trkpt>
      <trkpt lat="46.437982711941004" lon="11.861155489459634">
        <ele>3002.8200000000002</ele>
        <time>2016-03-19T12:19:49Z</time>
      </trkpt>
      <trkpt lat="46.438016910105944" lon="11.86110595241189">
        <ele>3001.8499999999999</ele>
        <time>2016-03-19T12:19:55Z</time>
      </trkpt>
      <trkpt lat="46.438065273687243" lon="11.860972344875336">
        <ele>2998.4899999999998</ele>
        <time>2016-03-19T12:20:07Z</time>
      </trkpt>
      <trkpt lat="46.438099471852183" lon="11.860866062343121">
        <ele>2996.0900000000001</ele>
        <time>2016-03-19T12:20:16Z</time>
      </trkpt>
      <trkpt lat="46.438143560662866" lon="11.860752236098051">
        <ele>2992.7199999999998</ele>
        <time>2016-03-19T12:20:26Z</time>
      </trkpt>
      <trkpt lat="46.438158648088574" lon="11.860783500596881">
        <ele>2991.2800000000002</ele>
        <time>2016-03-19T12:20:34Z</time>
      </trkpt>
      <trkpt lat="46.438160659745336" lon="11.860814178362489">
        <ele>2990.8000000000002</ele>
        <time>2016-03-19T12:20:36Z</time>
      </trkpt>
      <trkpt lat="46.438189577311277" lon="11.86094225384295">
        <ele>2987.9099999999999</ele>
        <time>2016-03-19T12:20:47Z</time>
      </trkpt>
      <trkpt lat="46.438216986134648" lon="11.861045770347118">
        <ele>2985.0300000000002</ele>
        <time>2016-03-19T12:20:57Z</time>
      </trkpt>
      <trkpt lat="46.438222015276551" lon="11.861064713448286">
        <ele>2984.5500000000002</ele>
        <time>2016-03-19T12:20:59Z</time>
      </trkpt>
      <trkpt lat="46.438228050246835" lon="11.861110646277666">
        <ele>2983.1100000000001</ele>
        <time>2016-03-19T12:21:03Z</time>
      </trkpt>
      <trkpt lat="46.438220422714949" lon="11.86118851415813">
        <ele>2981.6700000000001</ele>
        <time>2016-03-19T12:21:13Z</time>
      </trkpt>
      <trkpt lat="46.438224781304598" lon="11.86126914806664">
        <ele>2980.2199999999998</ele>
        <time>2016-03-19T12:21:21Z</time>
      </trkpt>
      <trkpt lat="46.438224026933312" lon="11.861305357888341">
        <ele>2979.7399999999998</ele>
        <time>2016-03-19T12:21:24Z</time>
      </trkpt>
      <trkpt lat="46.438251184299588" lon="11.861442402005196">
        <ele>2977.8200000000002</ele>
        <time>2016-03-19T12:21:35Z</time>
      </trkpt>
      <trkpt lat="46.438265852630138" lon="11.861404264345765">
        <ele>2977.8200000000002</ele>
        <time>2016-03-19T12:21:45Z</time>
      </trkpt>
      <trkpt lat="46.438287142664194" lon="11.8613575771451">
        <ele>2975.4200000000001</ele>
        <time>2016-03-19T12:21:50Z</time>
      </trkpt>
      <trkpt lat="46.43831237219274" lon="11.861340226605535">
        <ele>2973.98</ele>
        <time>2016-03-19T12:22:01Z</time>
      </trkpt>
      <trkpt lat="46.438317988067865" lon="11.861327737569809">
        <ele>2973.98</ele>
        <time>2016-03-19T12:22:15Z</time>
      </trkpt>
      <trkpt lat="46.43833139911294" lon="11.86129161156714">
        <ele>2973.5</ele>
        <time>2016-03-19T12:22:19Z</time>
      </trkpt>
      <trkpt lat="46.43837196752429" lon="11.861154651269317">
        <ele>2971.5700000000002</ele>
        <time>2016-03-19T12:22:29Z</time>
      </trkpt>
      <trkpt lat="46.438407674431801" lon="11.861020037904382">
        <ele>2969.6500000000001</ele>
        <time>2016-03-19T12:22:39Z</time>
      </trkpt>
      <trkpt lat="46.438423432409763" lon="11.860968237742782">
        <ele>2968.6900000000001</ele>
        <time>2016-03-19T12:22:49Z</time>
      </trkpt>
      <trkpt lat="46.438435921445489" lon="11.860933788120747">
        <ele>2968.21</ele>
        <time>2016-03-19T12:22:52Z</time>
      </trkpt>
      <trkpt lat="46.438473304733634" lon="11.860789200291038">
        <ele>2965.8000000000002</ele>
        <time>2016-03-19T12:23:03Z</time>
      </trkpt>
      <trkpt lat="46.438506664708257" lon="11.860833959653974">
        <ele>2963.4000000000001</ele>
        <time>2016-03-19T12:23:12Z</time>
      </trkpt>
      <trkpt lat="46.438545556738973" lon="11.860912749543786">
        <ele>2961.48</ele>
        <time>2016-03-19T12:23:21Z</time>
      </trkpt>
      <trkpt lat="46.43856349401176" lon="11.860974356532097">
        <ele>2960.04</ele>
        <time>2016-03-19T12:23:29Z</time>
      </trkpt>
      <trkpt lat="46.438571289181709" lon="11.861026072874665">
        <ele>2958.5900000000001</ele>
        <time>2016-03-19T12:23:38Z</time>
      </trkpt>
      <trkpt lat="46.438612611964345" lon="11.861142413690686">
        <ele>2955.71</ele>
        <time>2016-03-19T12:23:48Z</time>
      </trkpt>
      <trkpt lat="46.438617138192058" lon="11.861154232174158">
        <ele>2955.71</ele>
        <time>2016-03-19T12:23:49Z</time>
      </trkpt>
      <trkpt lat="46.438665166497231" lon="11.861273171380162">
        <ele>2952.3499999999999</ele>
        <time>2016-03-19T12:24:01Z</time>
      </trkpt>
      <trkpt lat="46.43867488950491" lon="11.86129504814744">
        <ele>2951.8699999999999</ele>
        <time>2016-03-19T12:24:03Z</time>
      </trkpt>
      <trkpt lat="46.438700370490551" lon="11.861340394243598">
        <ele>2950.9000000000001</ele>
        <time>2016-03-19T12:24:07Z</time>
      </trkpt>
      <trkpt lat="46.438743034377694" lon="11.861459836363792">
        <ele>2947.54</ele>
        <time>2016-03-19T12:24:18Z</time>
      </trkpt>
      <trkpt lat="46.438739262521267" lon="11.861513229086995">
        <ele>2946.0999999999999</ele>
        <time>2016-03-19T12:24:27Z</time>
      </trkpt>
      <trkpt lat="46.43875602632761" lon="11.861548684537411">
        <ele>2945.6199999999999</ele>
        <time>2016-03-19T12:24:36Z</time>
      </trkpt>
      <trkpt lat="46.438790559768677" lon="11.861667707562447">
        <ele>2943.21</ele>
        <time>2016-03-19T12:24:46Z</time>
      </trkpt>
      <trkpt lat="46.438818303868175" lon="11.861601155251265">
        <ele>2941.29</ele>
        <time>2016-03-19T12:24:55Z</time>
      </trkpt>
      <trkpt lat="46.438858117908239" lon="11.861498728394508">
        <ele>2939.3699999999999</ele>
        <time>2016-03-19T12:25:05Z</time>
      </trkpt>
      <trkpt lat="46.438878234475851" lon="11.861430499702692">
        <ele>2938.4099999999999</ele>
        <time>2016-03-19T12:25:14Z</time>
      </trkpt>
      <trkpt lat="46.438885107636452" lon="11.861429577693343">
        <ele>2937.9299999999998</ele>
        <time>2016-03-19T12:25:25Z</time>
      </trkpt>
      <trkpt lat="46.438881000503898" lon="11.861444665119052">
        <ele>2937.4499999999998</ele>
        <time>2016-03-19T12:25:39Z</time>
      </trkpt>
      <trkpt lat="46.43888846039772" lon="11.861392697319388">
        <ele>2936.9699999999998</ele>
        <time>2016-03-19T12:25:56Z</time>
      </trkpt>
      <trkpt lat="46.438939506188035" lon="11.861310638487339">
        <ele>2935.04</ele>
        <time>2016-03-19T12:26:07Z</time>
      </trkpt>
      <trkpt lat="46.438952079042792" lon="11.861217683181167">
        <ele>2933.5999999999999</ele>
        <time>2016-03-19T12:26:21Z</time>
      </trkpt>
      <trkpt lat="46.438994323834777" lon="11.861114921048284">
        <ele>2931.6799999999998</ele>
        <time>2016-03-19T12:26:32Z</time>
      </trkpt>
      <trkpt lat="46.439031204208732" lon="11.860979972407222">
        <ele>2928.3099999999999</ele>
        <time>2016-03-19T12:26:44Z</time>
      </trkpt>
      <trkpt lat="46.439043609425426" lon="11.860844185575843">
        <ele>2925.4299999999998</ele>
        <time>2016-03-19T12:26:55Z</time>
      </trkpt>
      <trkpt lat="46.439072443172336" lon="11.860717618837953">
        <ele>2923.0300000000002</ele>
        <time>2016-03-19T12:27:06Z</time>
      </trkpt>
      <trkpt lat="46.439106054604053" lon="11.860607648268342">
        <ele>2920.1399999999999</ele>
        <time>2016-03-19T12:27:17Z</time>
      </trkpt>
      <trkpt lat="46.439145365729928" lon="11.860541431233287">
        <ele>2918.2199999999998</ele>
        <time>2016-03-19T12:27:26Z</time>
      </trkpt>
      <trkpt lat="46.439152406528592" lon="11.860559200868011">
        <ele>2917.2600000000002</ele>
        <time>2016-03-19T12:27:28Z</time>
      </trkpt>
      <trkpt lat="46.439178893342614" lon="11.860640002414584">
        <ele>2915.8200000000002</ele>
        <time>2016-03-19T12:27:39Z</time>
      </trkpt>
      <trkpt lat="46.439166069030762" lon="11.860647210851312">
        <ele>2915.8200000000002</ele>
        <time>2016-03-19T12:27:53Z</time>
      </trkpt>
      <trkpt lat="46.439192052930593" lon="11.860652575269341">
        <ele>2915.3400000000001</ele>
        <time>2016-03-19T12:28:11Z</time>
      </trkpt>
      <trkpt lat="46.439198674634099" lon="11.86066372320056">
        <ele>2915.3400000000001</ele>
        <time>2016-03-19T12:28:12Z</time>
      </trkpt>
      <trkpt lat="46.439255587756634" lon="11.86076732352376">
        <ele>2912.9299999999998</ele>
        <time>2016-03-19T12:28:21Z</time>
      </trkpt>
      <trkpt lat="46.439296826720238" lon="11.860859859734774">
        <ele>2911.0100000000002</ele>
        <time>2016-03-19T12:28:31Z</time>
      </trkpt>
      <trkpt lat="46.43934678286314" lon="11.860983492806554">
        <ele>2908.1300000000001</ele>
        <time>2016-03-19T12:28:42Z</time>
      </trkpt>
      <trkpt lat="46.439359523355961" lon="11.861011991277337">
        <ele>2907.1599999999999</ele>
        <time>2016-03-19T12:28:45Z</time>
      </trkpt>
      <trkpt lat="46.439384585246444" lon="11.861079884693027">
        <ele>2905.2399999999998</ele>
        <time>2016-03-19T12:28:51Z</time>
      </trkpt>
      <trkpt lat="46.439415430650115" lon="11.861180551350117">
        <ele>2903.3200000000002</ele>
        <time>2016-03-19T12:29:00Z</time>
      </trkpt>
      <trkpt lat="46.439462285488844" lon="11.861316757276654">
        <ele>2899.9499999999998</ele>
        <time>2016-03-19T12:29:12Z</time>
      </trkpt>
      <trkpt lat="46.439499165862799" lon="11.861406695097685">
        <ele>2898.0300000000002</ele>
        <time>2016-03-19T12:29:21Z</time>
      </trkpt>
      <trkpt lat="46.439489023759961" lon="11.861408622935414">
        <ele>2898.0300000000002</ele>
        <time>2016-03-19T12:29:31Z</time>
      </trkpt>
      <trkpt lat="46.439524814486504" lon="11.861515576019883">
        <ele>2895.6300000000001</ele>
        <time>2016-03-19T12:29:41Z</time>
      </trkpt>
      <trkpt lat="46.439565131440759" lon="11.861593192443252">
        <ele>2892.7399999999998</ele>
        <time>2016-03-19T12:29:49Z</time>
      </trkpt>
      <trkpt lat="46.439594468101859" lon="11.861691009253263">
        <ele>2889.8600000000001</ele>
        <time>2016-03-19T12:29:58Z</time>
      </trkpt>
      <trkpt lat="46.439573429524899" lon="11.861841715872288">
        <ele>2887.46</ele>
        <time>2016-03-19T12:30:10Z</time>
      </trkpt>
      <trkpt lat="46.439580721780658" lon="11.861879602074623">
        <ele>2886.02</ele>
        <time>2016-03-19T12:30:21Z</time>
      </trkpt>
      <trkpt lat="46.439571250230074" lon="11.861862922087312">
        <ele>2885.5300000000002</ele>
        <time>2016-03-19T12:30:38Z</time>
      </trkpt>
      <trkpt lat="46.439574938267469" lon="11.861817911267281">
        <ele>2885.0500000000002</ele>
        <time>2016-03-19T12:30:52Z</time>
      </trkpt>
      <trkpt lat="46.439608968794346" lon="11.861757226288319">
        <ele>2884.0900000000001</ele>
        <time>2016-03-19T12:31:01Z</time>
      </trkpt>
      <trkpt lat="46.439644172787666" lon="11.861685225740075">
        <ele>2882.1700000000001</ele>
        <time>2016-03-19T12:31:09Z</time>
      </trkpt>
      <trkpt lat="46.439697565510869" lon="11.861567124724388">
        <ele>2879.29</ele>
        <time>2016-03-19T12:31:20Z</time>
      </trkpt>
      <trkpt lat="46.43973084166646" lon="11.861553126946092">
        <ele>2877.3600000000001</ele>
        <time>2016-03-19T12:31:29Z</time>
      </trkpt>
      <trkpt lat="46.439731931313872" lon="11.861592940986156">
        <ele>2876.8800000000001</ele>
        <time>2016-03-19T12:31:42Z</time>
      </trkpt>
      <trkpt lat="46.439734697341919" lon="11.861608363687992">
        <ele>2876.8800000000001</ele>
        <time>2016-03-19T12:31:44Z</time>
      </trkpt>
      <trkpt lat="46.439776020124555" lon="11.861705761402845">
        <ele>2874.48</ele>
        <time>2016-03-19T12:31:53Z</time>
      </trkpt>
      <trkpt lat="46.439822791144252" lon="11.861830735579133">
        <ele>2871.1100000000001</ele>
        <time>2016-03-19T12:32:04Z</time>
      </trkpt>
      <trkpt lat="46.439867969602346" lon="11.861927043646574">
        <ele>2867.75</ele>
        <time>2016-03-19T12:32:14Z</time>
      </trkpt>
      <trkpt lat="46.439887918531895" lon="11.861926876008511">
        <ele>2866.79</ele>
        <time>2016-03-19T12:32:23Z</time>
      </trkpt>
      <trkpt lat="46.439933516085148" lon="11.861968282610178">
        <ele>2863.9000000000001</ele>
        <time>2016-03-19T12:32:30Z</time>
      </trkpt>
      <trkpt lat="46.439998308196664" lon="11.862017400562763">
        <ele>2860.0599999999999</ele>
        <time>2016-03-19T12:32:38Z</time>
      </trkpt>
      <trkpt lat="46.440053209662437" lon="11.86205537058413">
        <ele>2857.1799999999998</ele>
        <time>2016-03-19T12:32:45Z</time>
      </trkpt>
      <trkpt lat="46.440119761973619" lon="11.862110020592809">
        <ele>2853.8099999999999</ele>
        <time>2016-03-19T12:32:53Z</time>
      </trkpt>
      <trkpt lat="46.440181117504835" lon="11.862157378345728">
        <ele>2852.3699999999999</ele>
        <time>2016-03-19T12:33:00Z</time>
      </trkpt>
      <trkpt lat="46.440270217135549" lon="11.862220074981451">
        <ele>2849</ele>
        <time>2016-03-19T12:33:11Z</time>
      </trkpt>
      <trkpt lat="46.440356886014342" lon="11.862284867092967">
        <ele>2845.6399999999999</ele>
        <time>2016-03-19T12:33:21Z</time>
      </trkpt>
      <trkpt lat="46.440417235717177" lon="11.862365417182446">
        <ele>2843.7199999999998</ele>
        <time>2016-03-19T12:33:31Z</time>
      </trkpt>
      <trkpt lat="46.440426791086793" lon="11.862384025007486">
        <ele>2843.2399999999998</ele>
        <time>2016-03-19T12:33:33Z</time>
      </trkpt>
      <trkpt lat="46.440436346456409" lon="11.862442614510655">
        <ele>2842.7600000000002</ele>
        <time>2016-03-19T12:33:37Z</time>
      </trkpt>
      <trkpt lat="46.440428383648396" lon="11.862534731626511">
        <ele>2842.7600000000002</ele>
        <time>2016-03-19T12:33:49Z</time>
      </trkpt>
      <trkpt lat="46.440417403355241" lon="11.862613689154387">
        <ele>2841.79</ele>
        <time>2016-03-19T12:34:03Z</time>
      </trkpt>
      <trkpt lat="46.440411703661084" lon="11.862664902582765">
        <ele>2841.3099999999999</ele>
        <time>2016-03-19T12:34:15Z</time>
      </trkpt>
      <trkpt lat="46.440423103049397" lon="11.862655179575086">
        <ele>2841.3099999999999</ele>
        <time>2016-03-19T12:34:31Z</time>
      </trkpt>
      <trkpt lat="46.44042955711484" lon="11.862653670832515">
        <ele>2841.3099999999999</ele>
        <time>2016-03-19T12:34:46Z</time>
      </trkpt>
      <trkpt lat="46.44043835811317" lon="11.862641517072916">
        <ele>2841.3099999999999</ele>
        <time>2016-03-19T12:35:00Z</time>
      </trkpt>
      <trkpt lat="46.440459899604321" lon="11.862683175131679">
        <ele>2840.3499999999999</ele>
        <time>2016-03-19T12:35:11Z</time>
      </trkpt>
      <trkpt lat="46.440479513257742" lon="11.862713601440191">
        <ele>2838.4299999999998</ele>
        <time>2016-03-19T12:35:14Z</time>
      </trkpt>
      <trkpt lat="46.440529888495803" lon="11.862798426300287">
        <ele>2835.5500000000002</ele>
        <time>2016-03-19T12:35:21Z</time>
      </trkpt>
      <trkpt lat="46.440554028376937" lon="11.862814519554377">
        <ele>2833.1399999999999</ele>
        <time>2016-03-19T12:35:26Z</time>
      </trkpt>
      <trkpt lat="46.440559895709157" lon="11.86282298527658">
        <ele>2831.6999999999998</ele>
        <time>2016-03-19T12:35:29Z</time>
      </trkpt>
      <trkpt lat="46.440572720021009" lon="11.862846035510302">
        <ele>2830.2600000000002</ele>
        <time>2016-03-19T12:35:32Z</time>
      </trkpt>
      <trkpt lat="46.44060306251049" lon="11.862884508445859">
        <ele>2827.3699999999999</ele>
        <time>2016-03-19T12:35:38Z</time>
      </trkpt>
      <trkpt lat="46.440645307302475" lon="11.862913593649864">
        <ele>2824.0100000000002</ele>
        <time>2016-03-19T12:35:44Z</time>
      </trkpt>
      <trkpt lat="46.440690401941538" lon="11.862919880077243">
        <ele>2822.0900000000001</ele>
        <time>2016-03-19T12:35:52Z</time>
      </trkpt>
      <trkpt lat="46.440698280930519" lon="11.862916862592101">
        <ele>2820.6500000000001</ele>
        <time>2016-03-19T12:36:03Z</time>
      </trkpt>
      <trkpt lat="46.440706327557564" lon="11.862896662205458">
        <ele>2820.6500000000001</ele>
        <time>2016-03-19T12:36:25Z</time>
      </trkpt>
      <trkpt lat="46.440720492973924" lon="11.862921556457877">
        <ele>2820.6500000000001</ele>
        <time>2016-03-19T12:36:35Z</time>
      </trkpt>
      <trkpt lat="46.440733317285776" lon="11.862935721874237">
        <ele>2819.6799999999998</ele>
        <time>2016-03-19T12:36:40Z</time>
      </trkpt>
      <trkpt lat="46.440815795212984" lon="11.862962292507291">
        <ele>2816.3200000000002</ele>
        <time>2016-03-19T12:36:47Z</time>
      </trkpt>
      <trkpt lat="46.440870026126504" lon="11.862995568662882">
        <ele>2812.96</ele>
        <time>2016-03-19T12:36:53Z</time>
      </trkpt>
      <trkpt lat="46.440924759954214" lon="11.863010069355369">
        <ele>2809.5900000000001</ele>
        <time>2016-03-19T12:36:59Z</time>
      </trkpt>
      <trkpt lat="46.440930292010307" lon="11.863012332469225">
        <ele>2809.5900000000001</ele>
        <time>2016-03-19T12:37:00Z</time>
      </trkpt>
      <trkpt lat="46.44097781740129" lon="11.863031946122646">
        <ele>2806.71</ele>
        <time>2016-03-19T12:37:06Z</time>
      </trkpt>
      <trkpt lat="46.441026600077748" lon="11.863046195358038">
        <ele>2803.3400000000001</ele>
        <time>2016-03-19T12:37:14Z</time>
      </trkpt>
      <trkpt lat="46.441034898161888" lon="11.863048374652863">
        <ele>2802.8600000000001</ele>
        <time>2016-03-19T12:37:15Z</time>
      </trkpt>
      <trkpt lat="46.441118381917477" lon="11.863047452643514">
        <ele>2798.54</ele>
        <time>2016-03-19T12:37:24Z</time>
      </trkpt>
      <trkpt lat="46.441192729398608" lon="11.8630326166749">
        <ele>2795.1700000000001</ele>
        <time>2016-03-19T12:37:32Z</time>
      </trkpt>
      <trkpt lat="46.44120211713016" lon="11.863030353561044">
        <ele>2795.1700000000001</ele>
        <time>2016-03-19T12:37:33Z</time>
      </trkpt>
      <trkpt lat="46.441244278103113" lon="11.863018367439508">
        <ele>2793.73</ele>
        <time>2016-03-19T12:37:38Z</time>
      </trkpt>
      <trkpt lat="46.44129398278892" lon="11.863002441823483">
        <ele>2791.3299999999999</ele>
        <time>2016-03-19T12:37:43Z</time>
      </trkpt>
      <trkpt lat="46.441373694688082" lon="11.862975535914302">
        <ele>2789.4000000000001</ele>
        <time>2016-03-19T12:37:52Z</time>
      </trkpt>
      <trkpt lat="46.441412251442671" lon="11.862959861755371">
        <ele>2786.52</ele>
        <time>2016-03-19T12:37:56Z</time>
      </trkpt>
      <trkpt lat="46.441472014412284" lon="11.8629549164325">
        <ele>2783.6300000000001</ele>
        <time>2016-03-19T12:38:05Z</time>
      </trkpt>
      <trkpt lat="46.441463716328144" lon="11.862949887290597">
        <ele>2783.6300000000001</ele>
        <time>2016-03-19T12:38:18Z</time>
      </trkpt>
      <trkpt lat="46.441463883966208" lon="11.862953994423151">
        <ele>2783.6300000000001</ele>
        <time>2016-03-19T12:38:27Z</time>
      </trkpt>
      <trkpt lat="46.441463632509112" lon="11.86297302134335">
        <ele>2784.1199999999999</ele>
        <time>2016-03-19T12:38:41Z</time>
      </trkpt>
      <trkpt lat="46.441430691629648" lon="11.862963130697608">
        <ele>2783.6300000000001</ele>
        <time>2016-03-19T12:39:10Z</time>
      </trkpt>
      <trkpt lat="46.441459190100431" lon="11.862942175939679">
        <ele>2783.6300000000001</ele>
        <time>2016-03-19T12:39:23Z</time>
      </trkpt>
      <trkpt lat="46.441483916714787" lon="11.862944355234504">
        <ele>2783.1500000000001</ele>
        <time>2016-03-19T12:39:34Z</time>
      </trkpt>
      <trkpt lat="46.441484419628978" lon="11.862931698560715">
        <ele>2783.1500000000001</ele>
        <time>2016-03-19T12:39:44Z</time>
      </trkpt>
      <trkpt lat="46.441574273630977" lon="11.86284251511097">
        <ele>2779.3099999999999</ele>
        <time>2016-03-19T12:39:54Z</time>
      </trkpt>
      <trkpt lat="46.441582068800926" lon="11.862823823466897">
        <ele>2778.3499999999999</ele>
        <time>2016-03-19T12:39:56Z</time>
      </trkpt>
      <trkpt lat="46.441603610292077" lon="11.862796833738685">
        <ele>2777.3899999999999</ele>
        <time>2016-03-19T12:39:59Z</time>
      </trkpt>
      <trkpt lat="46.441640239208937" lon="11.862762635573745">
        <ele>2775.46</ele>
        <time>2016-03-19T12:40:03Z</time>
      </trkpt>
      <trkpt lat="46.441661613062024" lon="11.862730868160725">
        <ele>2773.54</ele>
        <time>2016-03-19T12:40:07Z</time>
      </trkpt>
      <trkpt lat="46.441698912531137" lon="11.862691640853882">
        <ele>2770.6599999999999</ele>
        <time>2016-03-19T12:40:12Z</time>
      </trkpt>
      <trkpt lat="46.441741744056344" lon="11.862655179575086">
        <ele>2768.25</ele>
        <time>2016-03-19T12:40:16Z</time>
      </trkpt>
      <trkpt lat="46.441758843138814" lon="11.862636404111981">
        <ele>2767.29</ele>
        <time>2016-03-19T12:40:18Z</time>
      </trkpt>
      <trkpt lat="46.441773595288396" lon="11.862612934783101">
        <ele>2765.8499999999999</ele>
        <time>2016-03-19T12:40:21Z</time>
      </trkpt>
      <trkpt lat="46.441847607493401" lon="11.862530875951052">
        <ele>2762.4899999999998</ele>
        <time>2016-03-19T12:40:30Z</time>
      </trkpt>
      <trkpt lat="46.441852552816272" lon="11.862526433542371">
        <ele>2762</ele>
        <time>2016-03-19T12:40:31Z</time>
      </trkpt>
      <trkpt lat="46.44189203158021" lon="11.862535653635859">
        <ele>2760.0799999999999</ele>
        <time>2016-03-19T12:40:35Z</time>
      </trkpt>
      <trkpt lat="46.441926145926118" lon="11.86252199113369">
        <ele>2758.6399999999999</ele>
        <time>2016-03-19T12:40:38Z</time>
      </trkpt>
      <trkpt lat="46.441960427910089" lon="11.862504808232188">
        <ele>2757.1999999999998</ele>
        <time>2016-03-19T12:40:42Z</time>
      </trkpt>
      <trkpt lat="46.441997559741139" lon="11.862478740513325">
        <ele>2755.2800000000002</ele>
        <time>2016-03-19T12:40:46Z</time>
      </trkpt>
      <trkpt lat="46.442060759291053" lon="11.86244236305356">
        <ele>2752.3899999999999</ele>
        <time>2016-03-19T12:40:54Z</time>
      </trkpt>
      <trkpt lat="46.442085988819599" lon="11.862434148788452">
        <ele>2750.9499999999998</ele>
        <time>2016-03-19T12:41:03Z</time>
      </trkpt>
      <trkpt lat="46.442149020731449" lon="11.862413696944714">
        <ele>2748.0700000000002</ele>
        <time>2016-03-19T12:41:12Z</time>
      </trkpt>
      <trkpt lat="46.442183135077357" lon="11.862403051927686">
        <ele>2746.6199999999999</ele>
        <time>2016-03-19T12:41:15Z</time>
      </trkpt>
      <trkpt lat="46.442232253029943" lon="11.862389305606484">
        <ele>2744.2199999999998</ele>
        <time>2016-03-19T12:41:20Z</time>
      </trkpt>
      <trkpt lat="46.442264020442963" lon="11.862380001693964">
        <ele>2742.7800000000002</ele>
        <time>2016-03-19T12:41:23Z</time>
      </trkpt>
      <trkpt lat="46.442359993234277" lon="11.862339600920677">
        <ele>2738.9299999999998</ele>
        <time>2016-03-19T12:41:33Z</time>
      </trkpt>
      <trkpt lat="46.442407770082355" lon="11.862319065257907">
        <ele>2737.4899999999998</ele>
        <time>2016-03-19T12:41:38Z</time>
      </trkpt>
      <trkpt lat="46.442474322393537" lon="11.862178333103657">
        <ele>2734.6100000000001</ele>
        <time>2016-03-19T12:41:50Z</time>
      </trkpt>
      <trkpt lat="46.442503910511732" lon="11.862102644518018">
        <ele>2733.1700000000001</ele>
        <time>2016-03-19T12:41:57Z</time>
      </trkpt>
      <trkpt lat="46.442546574398875" lon="11.862026453018188">
        <ele>2730.7600000000002</ele>
        <time>2016-03-19T12:42:07Z</time>
      </trkpt>
      <trkpt lat="46.442542299628258" lon="11.862015808001161">
        <ele>2730.7600000000002</ele>
        <time>2016-03-19T12:42:20Z</time>
      </trkpt>
      <trkpt lat="46.442562248557806" lon="11.861951434984803">
        <ele>2729.3200000000002</ele>
        <time>2016-03-19T12:42:33Z</time>
      </trkpt>
      <trkpt lat="46.442598374560475" lon="11.861922098323703">
        <ele>2727.8800000000001</ele>
        <time>2016-03-19T12:42:37Z</time>
      </trkpt>
      <trkpt lat="46.442616395652294" lon="11.861902484670281">
        <ele>2727.4000000000001</ele>
        <time>2016-03-19T12:42:40Z</time>
      </trkpt>
      <trkpt lat="46.442693676799536" lon="11.861861916258931">
        <ele>2724.0300000000002</ele>
        <time>2016-03-19T12:42:52Z</time>
      </trkpt>
      <trkpt lat="46.44270365126431" lon="11.861885134130716">
        <ele>2723.5500000000002</ele>
        <time>2016-03-19T12:43:06Z</time>
      </trkpt>
      <trkpt lat="46.442710524424911" lon="11.861853618174791">
        <ele>2723.0700000000002</ele>
        <time>2016-03-19T12:43:18Z</time>
      </trkpt>
      <trkpt lat="46.44277892075479" lon="11.861770804971457">
        <ele>2720.1900000000001</ele>
        <time>2016-03-19T12:43:28Z</time>
      </trkpt>
      <trkpt lat="46.442853100597858" lon="11.861694613471627">
        <ele>2716.8200000000002</ele>
        <time>2016-03-19T12:43:37Z</time>
      </trkpt>
      <trkpt lat="46.442864751443267" lon="11.86168254353106">
        <ele>2716.3400000000001</ele>
        <time>2016-03-19T12:43:39Z</time>
      </trkpt>
      <trkpt lat="46.442882940173149" lon="11.861650859937072">
        <ele>2714.4200000000001</ele>
        <time>2016-03-19T12:43:44Z</time>
      </trkpt>
      <trkpt lat="46.442954773083329" lon="11.861570393666625">
        <ele>2711.54</ele>
        <time>2016-03-19T12:43:55Z</time>
      </trkpt>
      <trkpt lat="46.443006321787834" lon="11.861544074490666">
        <ele>2708.1700000000001</ele>
        <time>2016-03-19T12:44:00Z</time>
      </trkpt>
      <trkpt lat="46.443063318729401" lon="11.861510379239917">
        <ele>2705.29</ele>
        <time>2016-03-19T12:44:07Z</time>
      </trkpt>
      <trkpt lat="46.4431531727314" lon="11.861457573249936">
        <ele>2702.4000000000001</ele>
        <time>2016-03-19T12:44:18Z</time>
      </trkpt>
      <trkpt lat="46.443209415301681" lon="11.86140451580286">
        <ele>2700.96</ele>
        <time>2016-03-19T12:44:25Z</time>
      </trkpt>
      <trkpt lat="46.443298431113362" lon="11.861306950449944">
        <ele>2699.04</ele>
        <time>2016-03-19T12:44:36Z</time>
      </trkpt>
      <trkpt lat="46.443312093615532" lon="11.861288929358125">
        <ele>2698.0799999999999</ele>
        <time>2016-03-19T12:44:45Z</time>
      </trkpt>
      <trkpt lat="46.443323576822877" lon="11.861278954893351">
        <ele>2698.0799999999999</ele>
        <time>2016-03-19T12:44:46Z</time>
      </trkpt>
      <trkpt lat="46.443410664796829" lon="11.861213492229581">
        <ele>2695.1900000000001</ele>
        <time>2016-03-19T12:44:56Z</time>
      </trkpt>
      <trkpt lat="46.443473529070616" lon="11.861189855262637">
        <ele>2691.8299999999999</ele>
        <time>2016-03-19T12:45:03Z</time>
      </trkpt>
      <trkpt lat="46.443493645638227" lon="11.861174600198865">
        <ele>2691.3499999999999</ele>
        <time>2016-03-19T12:45:06Z</time>
      </trkpt>
      <trkpt lat="46.443571094423532" lon="11.861104024574161">
        <ele>2688.9400000000001</ele>
        <time>2016-03-19T12:45:15Z</time>
      </trkpt>
      <trkpt lat="46.443611914291978" lon="11.861064126715064">
        <ele>2687.02</ele>
        <time>2016-03-19T12:45:21Z</time>
      </trkpt>
      <trkpt lat="46.443682825192809" lon="11.86102875508368">
        <ele>2684.6199999999999</ele>
        <time>2016-03-19T12:45:30Z</time>
      </trkpt>
      <trkpt lat="46.443732026964426" lon="11.860986007377505">
        <ele>2683.1799999999998</ele>
        <time>2016-03-19T12:45:36Z</time>
      </trkpt>
      <trkpt lat="46.443814840167761" lon="11.86094761826098">
        <ele>2681.25</ele>
        <time>2016-03-19T12:45:45Z</time>
      </trkpt>
      <trkpt lat="46.443868651986122" lon="11.860901769250631">
        <ele>2681.25</ele>
        <time>2016-03-19T12:45:54Z</time>
      </trkpt>
      <trkpt lat="46.443891702219844" lon="11.86089045368135">
        <ele>2681.25</ele>
        <time>2016-03-19T12:46:05Z</time>
      </trkpt>
      <trkpt lat="46.44389002583921" lon="11.860912246629596">
        <ele>2681.25</ele>
        <time>2016-03-19T12:46:21Z</time>
      </trkpt>
      <trkpt lat="46.443902682512999" lon="11.860917862504721">
        <ele>2681.25</ele>
        <time>2016-03-19T12:46:41Z</time>
      </trkpt>
      <trkpt lat="46.443890277296305" lon="11.860931944102049">
        <ele>2681.25</ele>
        <time>2016-03-19T12:46:57Z</time>
      </trkpt>
      <trkpt lat="46.443887259811163" lon="11.86095055192709">
        <ele>2681.25</ele>
        <time>2016-03-19T12:47:19Z</time>
      </trkpt>
      <trkpt lat="46.443889606744051" lon="11.860926579684019">
        <ele>2681.25</ele>
        <time>2016-03-19T12:47:35Z</time>
      </trkpt>
      <trkpt lat="46.443895474076271" lon="11.86091878451407">
        <ele>2680.77</ele>
        <time>2016-03-19T12:47:53Z</time>
      </trkpt>
      <trkpt lat="46.443888181820512" lon="11.860915264114738">
        <ele>2679.8099999999999</ele>
        <time>2016-03-19T12:48:09Z</time>
      </trkpt>
      <trkpt lat="46.443876530975103" lon="11.860902607440948">
        <ele>2680.77</ele>
        <time>2016-03-19T12:48:25Z</time>
      </trkpt>
      <trkpt lat="46.443892540410161" lon="11.860897997394204">
        <ele>2680.77</ele>
        <time>2016-03-19T12:48:35Z</time>
      </trkpt>
      <trkpt lat="46.443898156285286" lon="11.860903613269329">
        <ele>2680.77</ele>
        <time>2016-03-19T12:48:45Z</time>
      </trkpt>
      <trkpt lat="46.443897485733032" lon="11.860913755372167">
        <ele>2680.29</ele>
        <time>2016-03-19T12:49:02Z</time>
      </trkpt>
      <trkpt lat="46.443892288953066" lon="11.860943511128426">
        <ele>2680.29</ele>
        <time>2016-03-19T12:49:21Z</time>
      </trkpt>
      <trkpt lat="46.443911902606487" lon="11.860916018486023">
        <ele>2680.77</ele>
        <time>2016-03-19T12:49:35Z</time>
      </trkpt>
      <trkpt lat="46.443924391642213" lon="11.860917191952467">
        <ele>2680.77</ele>
        <time>2016-03-19T12:49:44Z</time>
      </trkpt>
      <trkpt lat="46.443924056366086" lon="11.860924735665321">
        <ele>2680.29</ele>
        <time>2016-03-19T12:49:57Z</time>
      </trkpt>
      <trkpt lat="46.443940736353397" lon="11.860946947708726">
        <ele>2679.8099999999999</ele>
        <time>2016-03-19T12:50:15Z</time>
      </trkpt>
      <trkpt lat="46.443937132135034" lon="11.860928507521749">
        <ele>2680.29</ele>
        <time>2016-03-19T12:50:34Z</time>
      </trkpt>
      <trkpt lat="46.443923888728023" lon="11.860920460894704">
        <ele>2680.29</ele>
        <time>2016-03-19T12:50:50Z</time>
      </trkpt>
      <trkpt lat="46.443927241489291" lon="11.860912749543786">
        <ele>2680.29</ele>
        <time>2016-03-19T12:51:08Z</time>
      </trkpt>
      <trkpt lat="46.443918608129025" lon="11.8609051220119">
        <ele>2680.29</ele>
        <time>2016-03-19T12:51:21Z</time>
      </trkpt>
      <trkpt lat="46.44393160007894" lon="11.860916689038277">
        <ele>2680.29</ele>
        <time>2016-03-19T12:51:37Z</time>
      </trkpt>
      <trkpt lat="46.443928079679608" lon="11.860910654067993">
        <ele>2680.29</ele>
        <time>2016-03-19T12:51:51Z</time>
      </trkpt>
      <trkpt lat="46.443925648927689" lon="11.860906966030598">
        <ele>2680.29</ele>
        <time>2016-03-19T12:52:05Z</time>
      </trkpt>
      <trkpt lat="46.443915171548724" lon="11.860907217487693">
        <ele>2679.8099999999999</ele>
        <time>2016-03-19T12:52:22Z</time>
      </trkpt>
      <trkpt lat="46.443916093558073" lon="11.860915180295706">
        <ele>2679.8099999999999</ele>
        <time>2016-03-19T12:52:45Z</time>
      </trkpt>
      <trkpt lat="46.443922128528357" lon="11.860904954373837">
        <ele>2679.8099999999999</ele>
        <time>2016-03-19T12:53:06Z</time>
      </trkpt>
      <trkpt lat="46.44392229616642" lon="11.860915264114738">
        <ele>2679.8099999999999</ele>
        <time>2016-03-19T12:53:28Z</time>
      </trkpt>
      <trkpt lat="46.443939311429858" lon="11.860911576077342">
        <ele>2679.8099999999999</ele>
        <time>2016-03-19T12:53:50Z</time>
      </trkpt>
      <trkpt lat="46.443935791030526" lon="11.860891208052635">
        <ele>2680.29</ele>
        <time>2016-03-19T12:54:05Z</time>
      </trkpt>
      <trkpt lat="46.443931348621845" lon="11.860903445631266">
        <ele>2679.8099999999999</ele>
        <time>2016-03-19T12:54:18Z</time>
      </trkpt>
      <trkpt lat="46.44391693174839" lon="11.860924316570163">
        <ele>2679.8099999999999</ele>
        <time>2016-03-19T12:54:35Z</time>
      </trkpt>
      <trkpt lat="46.443942999467254" lon="11.86089045368135">
        <ele>2679.3299999999999</ele>
        <time>2016-03-19T12:54:47Z</time>
      </trkpt>
      <trkpt lat="46.444034613668919" lon="11.860750811174512">
        <ele>2676.9299999999998</ele>
        <time>2016-03-19T12:55:00Z</time>
      </trkpt>
      <trkpt lat="46.444101249799132" lon="11.860665399581194">
        <ele>2674.04</ele>
        <time>2016-03-19T12:55:09Z</time>
      </trkpt>
      <trkpt lat="46.444185236468911" lon="11.860617203637958">
        <ele>2671.1599999999999</ele>
        <time>2016-03-19T12:55:18Z</time>
      </trkpt>
      <trkpt lat="46.444213567301631" lon="11.860601445659995">
        <ele>2670.1999999999998</ele>
        <time>2016-03-19T12:55:21Z</time>
      </trkpt>
      <trkpt lat="46.444239048287272" lon="11.860602619126439">
        <ele>2669.7199999999998</ele>
        <time>2016-03-19T12:55:23Z</time>
      </trkpt>
      <trkpt lat="46.444347677752376" lon="11.860577892512083">
        <ele>2666.3499999999999</ele>
        <time>2016-03-19T12:55:34Z</time>
      </trkpt>
      <trkpt lat="46.444370560348034" lon="11.860578646883368">
        <ele>2665.8699999999999</ele>
        <time>2016-03-19T12:55:36Z</time>
      </trkpt>
      <trkpt lat="46.444385731592774" lon="11.860557189211249">
        <ele>2664.9099999999999</ele>
        <time>2016-03-19T12:55:38Z</time>
      </trkpt>
      <trkpt lat="46.444402663037181" lon="11.860543861985207">
        <ele>2664.9099999999999</ele>
        <time>2016-03-19T12:55:40Z</time>
      </trkpt>
      <trkpt lat="46.444476339966059" lon="11.860418133437634">
        <ele>2661.5500000000002</ele>
        <time>2016-03-19T12:55:51Z</time>
      </trkpt>
      <trkpt lat="46.444555381312966" lon="11.86030606739223">
        <ele>2660.5900000000001</ele>
        <time>2016-03-19T12:56:01Z</time>
      </trkpt>
      <trkpt lat="46.444596871733665" lon="11.860265415161848">
        <ele>2658.6599999999999</ele>
        <time>2016-03-19T12:56:06Z</time>
      </trkpt>
      <trkpt lat="46.444684797897935" lon="11.860184110701084">
        <ele>2659.1399999999999</ele>
        <time>2016-03-19T12:56:17Z</time>
      </trkpt>
      <trkpt lat="46.444771215319633" lon="11.860081432387233">
        <ele>2660.1100000000001</ele>
        <time>2016-03-19T12:56:28Z</time>
      </trkpt>
      <trkpt lat="46.444878000766039" lon="11.859973138198256">
        <ele>2659.6199999999999</ele>
        <time>2016-03-19T12:56:41Z</time>
      </trkpt>
      <trkpt lat="46.444961652159691" lon="11.859891414642334">
        <ele>2658.6599999999999</ele>
        <time>2016-03-19T12:56:52Z</time>
      </trkpt>
      <trkpt lat="46.445027533918619" lon="11.859848583117127">
        <ele>2657.2199999999998</ele>
        <time>2016-03-19T12:56:59Z</time>
      </trkpt>
      <trkpt lat="46.445045555010438" lon="11.859833495691419">
        <ele>2656.7399999999998</ele>
        <time>2016-03-19T12:57:01Z</time>
      </trkpt>
      <trkpt lat="46.445106575265527" lon="11.859803991392255">
        <ele>2655.7800000000002</ele>
        <time>2016-03-19T12:57:07Z</time>
      </trkpt>
      <trkpt lat="46.445220904424787" lon="11.859707264229655">
        <ele>2652.9000000000001</ele>
        <time>2016-03-19T12:57:19Z</time>
      </trkpt>
      <trkpt lat="46.445332048460841" lon="11.859637191519141">
        <ele>2649.5300000000002</ele>
        <time>2016-03-19T12:57:30Z</time>
      </trkpt>
      <trkpt lat="46.445437157526612" lon="11.859583044424653">
        <ele>2647.6100000000001</ele>
        <time>2016-03-19T12:57:40Z</time>
      </trkpt>
      <trkpt lat="46.445447467267513" lon="11.859579104930162">
        <ele>2647.6100000000001</ele>
        <time>2016-03-19T12:57:41Z</time>
      </trkpt>
      <trkpt lat="46.445554839447141" lon="11.859610201790929">
        <ele>2644.2399999999998</ele>
        <time>2016-03-19T12:57:51Z</time>
      </trkpt>
      <trkpt lat="46.445565149188042" lon="11.859613386914134">
        <ele>2644.2399999999998</ele>
        <time>2016-03-19T12:57:52Z</time>
      </trkpt>
      <trkpt lat="46.445672521367669" lon="11.85970064252615">
        <ele>2641.3600000000001</ele>
        <time>2016-03-19T12:58:04Z</time>
      </trkpt>
      <trkpt lat="46.445737145841122" lon="11.859773397445679">
        <ele>2637.9899999999998</ele>
        <time>2016-03-19T12:58:12Z</time>
      </trkpt>
      <trkpt lat="46.445781821385026" lon="11.860009096562862">
        <ele>2636.0700000000002</ele>
        <time>2016-03-19T12:58:26Z</time>
      </trkpt>
      <trkpt lat="46.445787269622087" lon="11.860047150403261">
        <ele>2636.0700000000002</ele>
        <time>2016-03-19T12:58:28Z</time>
      </trkpt>
      <trkpt lat="46.445819204673171" lon="11.860171537846327">
        <ele>2632.23</ele>
        <time>2016-03-19T12:58:38Z</time>
      </trkpt>
      <trkpt lat="46.445834878832102" lon="11.860196180641651">
        <ele>2631.27</ele>
        <time>2016-03-19T12:58:40Z</time>
      </trkpt>
      <trkpt lat="46.445881146937609" lon="11.860249573364854">
        <ele>2630.3000000000002</ele>
        <time>2016-03-19T12:58:45Z</time>
      </trkpt>
      <trkpt lat="46.446000589057803" lon="11.860298439860344">
        <ele>2629.8200000000002</ele>
        <time>2016-03-19T12:58:56Z</time>
      </trkpt>
      <trkpt lat="46.446034703403711" lon="11.86033389531076">
        <ele>2629.8200000000002</ele>
        <time>2016-03-19T12:59:02Z</time>
      </trkpt>
      <trkpt lat="46.446056244894862" lon="11.860472112894058">
        <ele>2629.8200000000002</ele>
        <time>2016-03-19T12:59:15Z</time>
      </trkpt>
      <trkpt lat="46.44606445915997" lon="11.860448643565178">
        <ele>2629.3400000000001</ele>
        <time>2016-03-19T12:59:28Z</time>
      </trkpt>
      <trkpt lat="46.446052137762308" lon="11.860407069325447">
        <ele>2629.8200000000002</ele>
        <time>2016-03-19T12:59:36Z</time>
      </trkpt>
      <trkpt lat="46.446046521887183" lon="11.860359543934464">
        <ele>2629.8200000000002</ele>
        <time>2016-03-19T12:59:40Z</time>
      </trkpt>
      <trkpt lat="46.446059178560972" lon="11.860328698530793">
        <ele>2630.3000000000002</ele>
        <time>2016-03-19T12:59:49Z</time>
      </trkpt>
      <trkpt lat="46.4460473600775" lon="11.860357532277703">
        <ele>2629.3400000000001</ele>
        <time>2016-03-19T13:00:00Z</time>
      </trkpt>
      <trkpt lat="46.44605808891356" lon="11.860355604439974">
        <ele>2629.3400000000001</ele>
        <time>2016-03-19T13:00:16Z</time>
      </trkpt>
      <trkpt lat="46.446053395047784" lon="11.860337164252996">
        <ele>2629.3400000000001</ele>
        <time>2016-03-19T13:00:37Z</time>
      </trkpt>
      <trkpt lat="46.446041408926249" lon="11.860338756814599">
        <ele>2628.8600000000001</ele>
        <time>2016-03-19T13:00:57Z</time>
      </trkpt>
      <trkpt lat="46.446037804707885" lon="11.860336074605584">
        <ele>2628.8600000000001</ele>
        <time>2016-03-19T13:01:20Z</time>
      </trkpt>
      <trkpt lat="46.446048449724913" lon="11.860316460952163">
        <ele>2628.8600000000001</ele>
        <time>2016-03-19T13:01:43Z</time>
      </trkpt>
      <trkpt lat="46.446052137762308" lon="11.860326435416937">
        <ele>2629.8200000000002</ele>
        <time>2016-03-19T13:02:04Z</time>
      </trkpt>
      <trkpt lat="46.446031434461474" lon="11.860343366861343">
        <ele>2628.8600000000001</ele>
        <time>2016-03-19T13:02:26Z</time>
      </trkpt>
      <trkpt lat="46.446020370349288" lon="11.860351916402578">
        <ele>2628.8600000000001</ele>
        <time>2016-03-19T13:02:47Z</time>
      </trkpt>
      <trkpt lat="46.446027914062142" lon="11.860346551984549">
        <ele>2628.8600000000001</ele>
        <time>2016-03-19T13:03:08Z</time>
      </trkpt>
      <trkpt lat="46.446049036458135" lon="11.860347473993897">
        <ele>2628.8600000000001</ele>
        <time>2016-03-19T13:03:29Z</time>
      </trkpt>
      <trkpt lat="46.446054149419069" lon="11.860326854512095">
        <ele>2628.8600000000001</ele>
        <time>2016-03-19T13:03:51Z</time>
      </trkpt>
      <trkpt lat="46.446056496351957" lon="11.860323501750827">
        <ele>2629.3400000000001</ele>
        <time>2016-03-19T13:04:09Z</time>
      </trkpt>
      <trkpt lat="46.446045935153961" lon="11.860325848683715">
        <ele>2629.3400000000001</ele>
        <time>2016-03-19T13:04:26Z</time>
      </trkpt>
      <trkpt lat="46.446041744202375" lon="11.860325681045651">
        <ele>2628.8600000000001</ele>
        <time>2016-03-19T13:04:51Z</time>
      </trkpt>
      <trkpt lat="46.446038475260139" lon="11.860329704359174">
        <ele>2628.8600000000001</ele>
        <time>2016-03-19T13:05:03Z</time>
      </trkpt>
      <trkpt lat="46.446043252944946" lon="11.860327273607254">
        <ele>2629.3400000000001</ele>
        <time>2016-03-19T13:05:25Z</time>
      </trkpt>
      <trkpt lat="46.446040403097868" lon="11.860333979129791">
        <ele>2629.3400000000001</ele>
        <time>2016-03-19T13:05:49Z</time>
      </trkpt>
      <trkpt lat="46.446024728938937" lon="11.860324256122112">
        <ele>2628.8600000000001</ele>
        <time>2016-03-19T13:06:11Z</time>
      </trkpt>
      <trkpt lat="46.446029338985682" lon="11.860353089869022">
        <ele>2629.8200000000002</ele>
        <time>2016-03-19T13:06:27Z</time>
      </trkpt>
      <trkpt lat="46.446036379784346" lon="11.860346551984549">
        <ele>2629.8200000000002</ele>
        <time>2016-03-19T13:06:44Z</time>
      </trkpt>
      <trkpt lat="46.446022968739271" lon="11.860368847846985">
        <ele>2629.8200000000002</ele>
        <time>2016-03-19T13:07:05Z</time>
      </trkpt>
      <trkpt lat="46.446024142205715" lon="11.860364153981209">
        <ele>2629.3400000000001</ele>
        <time>2016-03-19T13:07:17Z</time>
      </trkpt>
    </trkseg>
  </trk>

  <trk>
    <name>rifugio vajolet2016-03-20</name>
    <extensions>
      <gpxx:TrackExtension>
        <gpxx:DisplayColor>Yellow</gpxx:DisplayColor>
      </gpxx:TrackExtension>
      <gpxtrkx:TrackStatsExtension xmlns:gpxtrkx="http://www.garmin.com/xmlschemas/TrackStatsExtension/v1">
        <gpxtrkx:Distance>13764</gpxtrkx:Distance>
        <gpxtrkx:TotalElapsedTime>19022</gpxtrkx:TotalElapsedTime>
        <gpxtrkx:MovingTime>12029</gpxtrkx:MovingTime>
        <gpxtrkx:StoppedTime>6985</gpxtrkx:StoppedTime>
        <gpxtrkx:MovingSpeed>1</gpxtrkx:MovingSpeed>
        <gpxtrkx:MaxSpeed>2</gpxtrkx:MaxSpeed>
        <gpxtrkx:MaxElevation>2402</gpxtrkx:MaxElevation>
        <gpxtrkx:MinElevation>1807</gpxtrkx:MinElevation>
        <gpxtrkx:Ascent>654</gpxtrkx:Ascent>
        <gpxtrkx:Descent>843</gpxtrkx:Descent>
        <gpxtrkx:AvgAscentRate>0</gpxtrkx:AvgAscentRate>
        <gpxtrkx:MaxAscentRate>0</gpxtrkx:MaxAscentRate>
        <gpxtrkx:AvgDescentRate>0</gpxtrkx:AvgDescentRate>
        <gpxtrkx:MaxDescentRate>-0</gpxtrkx:MaxDescentRate>
      </gpxtrkx:TrackStatsExtension>
    </extensions>
    <trkseg>
      <trkpt lat="46.433633426204324" lon="11.6652493737638">
        <ele>1997.76</ele>
        <time>2016-03-20T08:15:37Z</time>
      </trkpt>
      <trkpt lat="46.433636024594307" lon="11.66525037959218">
        <ele>1997.76</ele>
        <time>2016-03-20T08:15:38Z</time>
      </trkpt>
      <trkpt lat="46.433634432032704" lon="11.665255827829242">
        <ele>2004.01</ele>
        <time>2016-03-20T08:15:43Z</time>
      </trkpt>
      <trkpt lat="46.433634767308831" lon="11.665255492553115">
        <ele>2003.52</ele>
        <time>2016-03-20T08:15:44Z</time>
      </trkpt>
      <trkpt lat="46.433622362092137" lon="11.665240069851279">
        <ele>2003.52</ele>
        <time>2016-03-20T08:15:58Z</time>
      </trkpt>
      <trkpt lat="46.433609537780285" lon="11.665265383198857">
        <ele>2003.52</ele>
        <time>2016-03-20T08:16:20Z</time>
      </trkpt>
      <trkpt lat="46.43361515365541" lon="11.665224814787507">
        <ele>2003.04</ele>
        <time>2016-03-20T08:16:34Z</time>
      </trkpt>
      <trkpt lat="46.433639544993639" lon="11.665241327136755">
        <ele>2003.52</ele>
        <time>2016-03-20T08:16:44Z</time>
      </trkpt>
      <trkpt lat="46.433638539165258" lon="11.66523277759552">
        <ele>2003.52</ele>
        <time>2016-03-20T08:16:57Z</time>
      </trkpt>
      <trkpt lat="46.433687238022685" lon="11.6652303468436">
        <ele>2003.52</ele>
        <time>2016-03-20T08:17:07Z</time>
      </trkpt>
      <trkpt lat="46.433688076213002" lon="11.66524208150804">
        <ele>2003.04</ele>
        <time>2016-03-20T08:17:16Z</time>
      </trkpt>
      <trkpt lat="46.433740966022015" lon="11.665214002132416">
        <ele>2004.01</ele>
        <time>2016-03-20T08:17:26Z</time>
      </trkpt>
      <trkpt lat="46.433732751756907" lon="11.665210230275989">
        <ele>2003.52</ele>
        <time>2016-03-20T08:17:39Z</time>
      </trkpt>
      <trkpt lat="46.433724034577608" lon="11.665199166163802">
        <ele>2003.52</ele>
        <time>2016-03-20T08:17:52Z</time>
      </trkpt>
      <trkpt lat="46.433728644624352" lon="11.665191706269979">
        <ele>2004.01</ele>
        <time>2016-03-20T08:18:02Z</time>
      </trkpt>
      <trkpt lat="46.433764854446054" lon="11.665210062637925">
        <ele>2004.01</ele>
        <time>2016-03-20T08:18:12Z</time>
      </trkpt>
      <trkpt lat="46.433763261884451" lon="11.66519321501255">
        <ele>2003.52</ele>
        <time>2016-03-20T08:18:27Z</time>
      </trkpt>
      <trkpt lat="46.433774996548891" lon="11.665205033496022">
        <ele>2003.52</ele>
        <time>2016-03-20T08:18:44Z</time>
      </trkpt>
      <trkpt lat="46.433788910508156" lon="11.665162872523069">
        <ele>2003.52</ele>
        <time>2016-03-20T08:18:58Z</time>
      </trkpt>
      <trkpt lat="46.433881865814328" lon="11.665069162845612">
        <ele>2003.04</ele>
        <time>2016-03-20T08:19:10Z</time>
      </trkpt>
      <trkpt lat="46.433992758393288" lon="11.66490538045764">
        <ele>2003.04</ele>
        <time>2016-03-20T08:19:22Z</time>
      </trkpt>
      <trkpt lat="46.434107339009643" lon="11.664690468460321">
        <ele>2002.0799999999999</ele>
        <time>2016-03-20T08:19:36Z</time>
      </trkpt>
      <trkpt lat="46.434166850522161" lon="11.664567170664668">
        <ele>2000.6400000000001</ele>
        <time>2016-03-20T08:19:47Z</time>
      </trkpt>
      <trkpt lat="46.434161234647036" lon="11.66455551981926">
        <ele>2001.1199999999999</ele>
        <time>2016-03-20T08:19:56Z</time>
      </trkpt>
      <trkpt lat="46.434290148317814" lon="11.664429372176528">
        <ele>2000.1600000000001</ele>
        <time>2016-03-20T08:20:09Z</time>
      </trkpt>
      <trkpt lat="46.434401711449027" lon="11.664378074929118">
        <ele>1999.6800000000001</ele>
        <time>2016-03-20T08:20:20Z</time>
      </trkpt>
      <trkpt lat="46.43452350050211" lon="11.664424175396562">
        <ele>1999.6800000000001</ele>
        <time>2016-03-20T08:20:31Z</time>
      </trkpt>
      <trkpt lat="46.434580245986581" lon="11.664494667202234">
        <ele>1998.72</ele>
        <time>2016-03-20T08:20:39Z</time>
      </trkpt>
      <trkpt lat="46.434653084725142" lon="11.664657276123762">
        <ele>1998.24</ele>
        <time>2016-03-20T08:20:52Z</time>
      </trkpt>
      <trkpt lat="46.434739753603935" lon="11.664777807891369">
        <ele>1995.8299999999999</ele>
        <time>2016-03-20T08:21:04Z</time>
      </trkpt>
      <trkpt lat="46.434826673939824" lon="11.664823237806559">
        <ele>1993.4300000000001</ele>
        <time>2016-03-20T08:21:15Z</time>
      </trkpt>
      <trkpt lat="46.43493982963264" lon="11.664939410984516">
        <ele>1991.99</ele>
        <time>2016-03-20T08:21:26Z</time>
      </trkpt>
      <trkpt lat="46.435055835172534" lon="11.665035132318735">
        <ele>1991.51</ele>
        <time>2016-03-20T08:21:37Z</time>
      </trkpt>
      <trkpt lat="46.435202434659004" lon="11.665190784260631">
        <ele>1990.55</ele>
        <time>2016-03-20T08:21:51Z</time>
      </trkpt>
      <trkpt lat="46.43530729226768" lon="11.66530997492373">
        <ele>1990.0699999999999</ele>
        <time>2016-03-20T08:22:02Z</time>
      </trkpt>
      <trkpt lat="46.435370743274689" lon="11.665382813662291">
        <ele>1989.5899999999999</ele>
        <time>2016-03-20T08:22:08Z</time>
      </trkpt>
      <trkpt lat="46.43545632250607" lon="11.66538130491972">
        <ele>1988.6199999999999</ele>
        <time>2016-03-20T08:22:16Z</time>
      </trkpt>
      <trkpt lat="46.435455987229943" lon="11.665216684341431">
        <ele>1985.26</ele>
        <time>2016-03-20T08:22:28Z</time>
      </trkpt>
      <trkpt lat="46.435416089370847" lon="11.665156753733754">
        <ele>1984.3</ele>
        <time>2016-03-20T08:22:32Z</time>
      </trkpt>
      <trkpt lat="46.435348279774189" lon="11.664964724332094">
        <ele>1982.3800000000001</ele>
        <time>2016-03-20T08:22:45Z</time>
      </trkpt>
      <trkpt lat="46.435315255075693" lon="11.664842600002885">
        <ele>1980.45</ele>
        <time>2016-03-20T08:22:54Z</time>
      </trkpt>
      <trkpt lat="46.43524426035583" lon="11.664670435711741">
        <ele>1977.5699999999999</ele>
        <time>2016-03-20T08:23:06Z</time>
      </trkpt>
      <trkpt lat="46.435212995857" lon="11.66456432081759">
        <ele>1975.6500000000001</ele>
        <time>2016-03-20T08:23:14Z</time>
      </trkpt>
      <trkpt lat="46.435202350839972" lon="11.664478238672018">
        <ele>1974.2</ele>
        <time>2016-03-20T08:23:19Z</time>
      </trkpt>
      <trkpt lat="46.435193801298738" lon="11.664352593943477">
        <ele>1972.76</ele>
        <time>2016-03-20T08:23:31Z</time>
      </trkpt>
      <trkpt lat="46.435224562883377" lon="11.664366256445646">
        <ele>1971.8</ele>
        <time>2016-03-20T08:23:43Z</time>
      </trkpt>
      <trkpt lat="46.435273429378867" lon="11.664420822635293">
        <ele>1970.8399999999999</ele>
        <time>2016-03-20T08:23:55Z</time>
      </trkpt>
      <trkpt lat="46.435416927561164" lon="11.66453355923295">
        <ele>1968.9200000000001</ele>
        <time>2016-03-20T08:24:11Z</time>
      </trkpt>
      <trkpt lat="46.43547048792243" lon="11.664507491514087">
        <ele>1967.96</ele>
        <time>2016-03-20T08:24:16Z</time>
      </trkpt>
      <trkpt lat="46.435429500415921" lon="11.664452506229281">
        <ele>1966.99</ele>
        <time>2016-03-20T08:24:21Z</time>
      </trkpt>
      <trkpt lat="46.435397984459996" lon="11.664428785443306">
        <ele>1965.55</ele>
        <time>2016-03-20T08:24:24Z</time>
      </trkpt>
      <trkpt lat="46.435490353032947" lon="11.664365418255329">
        <ele>1963.6300000000001</ele>
        <time>2016-03-20T08:24:33Z</time>
      </trkpt>
      <trkpt lat="46.435658913105726" lon="11.664434568956494">
        <ele>1963.1500000000001</ele>
        <time>2016-03-20T08:24:47Z</time>
      </trkpt>
      <trkpt lat="46.435692273080349" lon="11.66439475491643">
        <ele>1961.71</ele>
        <time>2016-03-20T08:24:52Z</time>
      </trkpt>
      <trkpt lat="46.435686824843287" lon="11.664318479597569">
        <ele>1961.23</ele>
        <time>2016-03-20T08:24:56Z</time>
      </trkpt>
      <trkpt lat="46.435566963627934" lon="11.66423013433814">
        <ele>1958.8199999999999</ele>
        <time>2016-03-20T08:25:09Z</time>
      </trkpt>
      <trkpt lat="46.435493538156152" lon="11.664215885102749">
        <ele>1955.9400000000001</ele>
        <time>2016-03-20T08:25:17Z</time>
      </trkpt>
      <trkpt lat="46.435424638912082" lon="11.664087222889066">
        <ele>1953.54</ele>
        <time>2016-03-20T08:25:29Z</time>
      </trkpt>
      <trkpt lat="46.435407288372517" lon="11.664033494889736">
        <ele>1952.5699999999999</ele>
        <time>2016-03-20T08:25:33Z</time>
      </trkpt>
      <trkpt lat="46.435445426031947" lon="11.663887314498425">
        <ele>1950.6500000000001</ele>
        <time>2016-03-20T08:25:42Z</time>
      </trkpt>
      <trkpt lat="46.435481552034616" lon="11.663823109120131">
        <ele>1949.6900000000001</ele>
        <time>2016-03-20T08:25:51Z</time>
      </trkpt>
      <trkpt lat="46.435510301962495" lon="11.663735853508115">
        <ele>1948.25</ele>
        <time>2016-03-20T08:25:56Z</time>
      </trkpt>
      <trkpt lat="46.435532765462995" lon="11.663697464391589">
        <ele>1947.77</ele>
        <time>2016-03-20T08:25:59Z</time>
      </trkpt>
      <trkpt lat="46.435580039396882" lon="11.663729064166546">
        <ele>1944.8800000000001</ele>
        <time>2016-03-20T08:26:08Z</time>
      </trkpt>
      <trkpt lat="46.435580542311072" lon="11.663871724158525">
        <ele>1942.48</ele>
        <time>2016-03-20T08:26:19Z</time>
      </trkpt>
      <trkpt lat="46.43560191616416" lon="11.663915561512113">
        <ele>1942</ele>
        <time>2016-03-20T08:26:23Z</time>
      </trkpt>
      <trkpt lat="46.435672407969832" lon="11.663941713050008">
        <ele>1938.6400000000001</ele>
        <time>2016-03-20T08:26:35Z</time>
      </trkpt>
      <trkpt lat="46.435629827901721" lon="11.663854876533151">
        <ele>1937.1900000000001</ele>
        <time>2016-03-20T08:26:45Z</time>
      </trkpt>
      <trkpt lat="46.43562295474112" lon="11.663800729438663">
        <ele>1937.1900000000001</ele>
        <time>2016-03-20T08:26:54Z</time>
      </trkpt>
      <trkpt lat="46.43569914624095" lon="11.663603084161878">
        <ele>1934.3099999999999</ele>
        <time>2016-03-20T08:27:06Z</time>
      </trkpt>
      <trkpt lat="46.435738373547792" lon="11.663573579862714">
        <ele>1932.8699999999999</ele>
        <time>2016-03-20T08:27:11Z</time>
      </trkpt>
      <trkpt lat="46.435769302770495" lon="11.663705427199602">
        <ele>1931.4300000000001</ele>
        <time>2016-03-20T08:27:18Z</time>
      </trkpt>
      <trkpt lat="46.435806434601545" lon="11.663815565407276">
        <ele>1929.02</ele>
        <time>2016-03-20T08:27:28Z</time>
      </trkpt>
      <trkpt lat="46.435866449028254" lon="11.66384163312614">
        <ele>1926.6199999999999</ele>
        <time>2016-03-20T08:27:35Z</time>
      </trkpt>
      <trkpt lat="46.435965774580836" lon="11.663898881524801">
        <ele>1923.25</ele>
        <time>2016-03-20T08:27:47Z</time>
      </trkpt>
      <trkpt lat="46.436037020757794" lon="11.664017401635647">
        <ele>1922.29</ele>
        <time>2016-03-20T08:27:57Z</time>
      </trkpt>
      <trkpt lat="46.43608027137816" lon="11.664092419669032">
        <ele>1921.3299999999999</ele>
        <time>2016-03-20T08:28:03Z</time>
      </trkpt>
      <trkpt lat="46.436135340481997" lon="11.664201803505421">
        <ele>1918.45</ele>
        <time>2016-03-20T08:28:12Z</time>
      </trkpt>
      <trkpt lat="46.436141710728407" lon="11.664202641695738">
        <ele>1916.53</ele>
        <time>2016-03-20T08:28:21Z</time>
      </trkpt>
      <trkpt lat="46.436134250834584" lon="11.664133155718446">
        <ele>1914.5999999999999</ele>
        <time>2016-03-20T08:28:27Z</time>
      </trkpt>
      <trkpt lat="46.436123438179493" lon="11.664007846266031">
        <ele>1913.1600000000001</ele>
        <time>2016-03-20T08:28:37Z</time>
      </trkpt>
      <trkpt lat="46.4360954426229" lon="11.663974989205599">
        <ele>1912.2</ele>
        <time>2016-03-20T08:28:42Z</time>
      </trkpt>
      <trkpt lat="46.436061915010214" lon="11.663859151303768">
        <ele>1909.8</ele>
        <time>2016-03-20T08:28:53Z</time>
      </trkpt>
      <trkpt lat="46.436140704900026" lon="11.66392176412046">
        <ele>1907.3900000000001</ele>
        <time>2016-03-20T08:29:03Z</time>
      </trkpt>
      <trkpt lat="46.436196947470307" lon="11.663965098559856">
        <ele>1905.95</ele>
        <time>2016-03-20T08:29:09Z</time>
      </trkpt>
      <trkpt lat="46.4362733066082" lon="11.664111614227295">
        <ele>1904.03</ele>
        <time>2016-03-20T08:29:21Z</time>
      </trkpt>
      <trkpt lat="46.436296440660954" lon="11.664154781028628">
        <ele>1903.55</ele>
        <time>2016-03-20T08:29:24Z</time>
      </trkpt>
      <trkpt lat="46.4363475702703" lon="11.664284113794565">
        <ele>1902.5899999999999</ele>
        <time>2016-03-20T08:29:32Z</time>
      </trkpt>
      <trkpt lat="46.43646826967597" lon="11.664428785443306">
        <ele>1899.7</ele>
        <time>2016-03-20T08:29:45Z</time>
      </trkpt>
      <trkpt lat="46.436544796451926" lon="11.664566583931446">
        <ele>1898.26</ele>
        <time>2016-03-20T08:29:57Z</time>
      </trkpt>
      <trkpt lat="46.436634566634893" lon="11.664718547835946">
        <ele>1896.3399999999999</ele>
        <time>2016-03-20T08:30:09Z</time>
      </trkpt>
      <trkpt lat="46.436698520556092" lon="11.664835643023252">
        <ele>1893.45</ele>
        <time>2016-03-20T08:30:21Z</time>
      </trkpt>
      <trkpt lat="46.43681712448597" lon="11.665012501180172">
        <ele>1890.0899999999999</ele>
        <time>2016-03-20T08:30:38Z</time>
      </trkpt>
      <trkpt lat="46.436797762289643" lon="11.664860956370831">
        <ele>1887.6900000000001</ele>
        <time>2016-03-20T08:30:51Z</time>
      </trkpt>
      <trkpt lat="46.436795582994819" lon="11.664843689650297">
        <ele>1887.21</ele>
        <time>2016-03-20T08:30:52Z</time>
      </trkpt>
      <trkpt lat="46.436784351244569" lon="11.66463665664196">
        <ele>1884.3199999999999</ele>
        <time>2016-03-20T08:31:05Z</time>
      </trkpt>
      <trkpt lat="46.436773370951414" lon="11.664513358846307">
        <ele>1881.4400000000001</ele>
        <time>2016-03-20T08:31:16Z</time>
      </trkpt>
      <trkpt lat="46.436763564124703" lon="11.664354605600238">
        <ele>1878.0699999999999</ele>
        <time>2016-03-20T08:31:26Z</time>
      </trkpt>
      <trkpt lat="46.436750823631883" lon="11.66418126784265">
        <ele>1875.6700000000001</ele>
        <time>2016-03-20T08:31:37Z</time>
      </trkpt>
      <trkpt lat="46.436750236898661" lon="11.663997955620289">
        <ele>1872.79</ele>
        <time>2016-03-20T08:31:48Z</time>
      </trkpt>
      <trkpt lat="46.436796588823199" lon="11.664041206240654">
        <ele>1871.3399999999999</ele>
        <time>2016-03-20T08:31:55Z</time>
      </trkpt>
      <trkpt lat="46.436838498339057" lon="11.664109183475375">
        <ele>1869.4200000000001</ele>
        <time>2016-03-20T08:32:00Z</time>
      </trkpt>
      <trkpt lat="46.436946876347065" lon="11.664245557039976">
        <ele>1867.5</ele>
        <time>2016-03-20T08:32:11Z</time>
      </trkpt>
      <trkpt lat="46.437018290162086" lon="11.664368100464344">
        <ele>1865.0899999999999</ele>
        <time>2016-03-20T08:32:23Z</time>
      </trkpt>
      <trkpt lat="46.437094984576106" lon="11.664452087134123">
        <ele>1861.73</ele>
        <time>2016-03-20T08:32:34Z</time>
      </trkpt>
      <trkpt lat="46.437198165804148" lon="11.664573037996888">
        <ele>1858.8499999999999</ele>
        <time>2016-03-20T08:32:45Z</time>
      </trkpt>
      <trkpt lat="46.437282990664244" lon="11.664701029658318">
        <ele>1855.96</ele>
        <time>2016-03-20T08:32:56Z</time>
      </trkpt>
      <trkpt lat="46.437309645116329" lon="11.664725923910737">
        <ele>1855.48</ele>
        <time>2016-03-20T08:32:58Z</time>
      </trkpt>
      <trkpt lat="46.437378711998463" lon="11.664842600002885">
        <ele>1853.5599999999999</ele>
        <time>2016-03-20T08:33:08Z</time>
      </trkpt>
      <trkpt lat="46.437391536310315" lon="11.664840839803219">
        <ele>1851.1600000000001</ele>
        <time>2016-03-20T08:33:15Z</time>
      </trkpt>
      <trkpt lat="46.437388435006142" lon="11.664789291098714">
        <ele>1850.6800000000001</ele>
        <time>2016-03-20T08:33:18Z</time>
      </trkpt>
      <trkpt lat="46.437370162457228" lon="11.664614276960492">
        <ele>1848.75</ele>
        <time>2016-03-20T08:33:30Z</time>
      </trkpt>
      <trkpt lat="46.437351386994123" lon="11.664524171501398">
        <ele>1847.3099999999999</ele>
        <time>2016-03-20T08:33:36Z</time>
      </trkpt>
      <trkpt lat="46.437362786382437" lon="11.664385534822941">
        <ele>1846.3499999999999</ele>
        <time>2016-03-20T08:33:48Z</time>
      </trkpt>
      <trkpt lat="46.437368737533689" lon="11.664355527609587">
        <ele>1846.3499999999999</ele>
        <time>2016-03-20T08:33:55Z</time>
      </trkpt>
      <trkpt lat="46.437356332316995" lon="11.664172131568193">
        <ele>1844.4300000000001</ele>
        <time>2016-03-20T08:34:07Z</time>
      </trkpt>
      <trkpt lat="46.437385249882936" lon="11.664038859307766">
        <ele>1842.98</ele>
        <time>2016-03-20T08:34:17Z</time>
      </trkpt>
      <trkpt lat="46.437413245439529" lon="11.664031147956848">
        <ele>1841.54</ele>
        <time>2016-03-20T08:34:22Z</time>
      </trkpt>
      <trkpt lat="46.437492873519659" lon="11.664198031648993">
        <ele>1840.0999999999999</ele>
        <time>2016-03-20T08:34:33Z</time>
      </trkpt>
      <trkpt lat="46.437554312869906" lon="11.664266595616937">
        <ele>1838.6600000000001</ele>
        <time>2016-03-20T08:34:41Z</time>
      </trkpt>
      <trkpt lat="46.43761994317174" lon="11.664392156526446">
        <ele>1837.22</ele>
        <time>2016-03-20T08:34:52Z</time>
      </trkpt>
      <trkpt lat="46.437695296481252" lon="11.664531631395221">
        <ele>1835.29</ele>
        <time>2016-03-20T08:35:03Z</time>
      </trkpt>
      <trkpt lat="46.437777858227491" lon="11.664654426276684">
        <ele>1833.3699999999999</ele>
        <time>2016-03-20T08:35:13Z</time>
      </trkpt>
      <trkpt lat="46.437817336991429" lon="11.664766324684024">
        <ele>1831.45</ele>
        <time>2016-03-20T08:35:23Z</time>
      </trkpt>
      <trkpt lat="46.437822449952364" lon="11.664698263630271">
        <ele>1830.49</ele>
        <time>2016-03-20T08:35:29Z</time>
      </trkpt>
      <trkpt lat="46.437789592891932" lon="11.6644929908216">
        <ele>1829.05</ele>
        <time>2016-03-20T08:35:42Z</time>
      </trkpt>
      <trkpt lat="46.437775511294603" lon="11.664366843178868">
        <ele>1829.05</ele>
        <time>2016-03-20T08:35:53Z</time>
      </trkpt>
      <trkpt lat="46.437786156311631" lon="11.664375979453325">
        <ele>1827.1199999999999</ele>
        <time>2016-03-20T08:36:03Z</time>
      </trkpt>
      <trkpt lat="46.437817336991429" lon="11.664186296984553">
        <ele>1825.2</ele>
        <time>2016-03-20T08:36:14Z</time>
      </trkpt>
      <trkpt lat="46.43785061314702" lon="11.663995608687401">
        <ele>1822.8</ele>
        <time>2016-03-20T08:36:26Z</time>
      </trkpt>
      <trkpt lat="46.437873495742679" lon="11.66386166587472">
        <ele>1819.9100000000001</ele>
        <time>2016-03-20T08:36:36Z</time>
      </trkpt>
      <trkpt lat="46.437872322276235" lon="11.663692686706781">
        <ele>1817.51</ele>
        <time>2016-03-20T08:36:47Z</time>
      </trkpt>
      <trkpt lat="46.437927894294262" lon="11.663576932623982">
        <ele>1815.5899999999999</ele>
        <time>2016-03-20T08:36:57Z</time>
      </trkpt>
      <trkpt lat="46.437936527654529" lon="11.663565700873733">
        <ele>1815.5899999999999</ele>
        <time>2016-03-20T08:36:58Z</time>
      </trkpt>
      <trkpt lat="46.437957650050521" lon="11.663553547114134">
        <ele>1814.6300000000001</ele>
        <time>2016-03-20T08:37:00Z</time>
      </trkpt>
      <trkpt lat="46.438005929812789" lon="11.663645580410957">
        <ele>1813.1800000000001</ele>
        <time>2016-03-20T08:37:06Z</time>
      </trkpt>
      <trkpt lat="46.438119588419795" lon="11.663615740835667">
        <ele>1811.26</ele>
        <time>2016-03-20T08:37:16Z</time>
      </trkpt>
      <trkpt lat="46.438208688050508" lon="11.663550864905119">
        <ele>1810.78</ele>
        <time>2016-03-20T08:37:26Z</time>
      </trkpt>
      <trkpt lat="46.438279515132308" lon="11.663556061685085">
        <ele>1810.3</ele>
        <time>2016-03-20T08:37:32Z</time>
      </trkpt>
      <trkpt lat="46.438391832634807" lon="11.663647843524814">
        <ele>1809.8199999999999</ele>
        <time>2016-03-20T08:37:42Z</time>
      </trkpt>
      <trkpt lat="46.438403818756342" lon="11.663651280105114">
        <ele>1809.3399999999999</ele>
        <time>2016-03-20T08:37:43Z</time>
      </trkpt>
      <trkpt lat="46.438474729657173" lon="11.663708193227649">
        <ele>1809.8199999999999</ele>
        <time>2016-03-20T08:37:54Z</time>
      </trkpt>
      <trkpt lat="46.438484871760011" lon="11.663737697526813">
        <ele>1807.4200000000001</ele>
        <time>2016-03-20T08:38:04Z</time>
      </trkpt>
      <trkpt lat="46.438501216471195" lon="11.663781031966209">
        <ele>1807.4200000000001</ele>
        <time>2016-03-20T08:38:24Z</time>
      </trkpt>
      <trkpt lat="46.438510436564684" lon="11.66379620321095">
        <ele>1807.4200000000001</ele>
        <time>2016-03-20T08:38:44Z</time>
      </trkpt>
      <trkpt lat="46.4384975284338" lon="11.663784133270383">
        <ele>1807.4200000000001</ele>
        <time>2016-03-20T08:39:06Z</time>
      </trkpt>
      <trkpt lat="46.438489817082882" lon="11.663815230131149">
        <ele>1807.4200000000001</ele>
        <time>2016-03-20T08:39:22Z</time>
      </trkpt>
      <trkpt lat="46.438491074368358" lon="11.663826629519463">
        <ele>1807.4200000000001</ele>
        <time>2016-03-20T08:39:37Z</time>
      </trkpt>
      <trkpt lat="46.438490739092231" lon="11.663812296465039">
        <ele>1807.9000000000001</ele>
        <time>2016-03-20T08:39:57Z</time>
      </trkpt>
      <trkpt lat="46.438496522605419" lon="11.663821348920465">
        <ele>1808.3800000000001</ele>
        <time>2016-03-20T08:40:04Z</time>
      </trkpt>
      <trkpt lat="46.438457127660513" lon="11.663739709183574">
        <ele>1808.8599999999999</ele>
        <time>2016-03-20T08:40:12Z</time>
      </trkpt>
      <trkpt lat="46.438435167074203" lon="11.663676090538502">
        <ele>1809.3399999999999</ele>
        <time>2016-03-20T08:40:25Z</time>
      </trkpt>
      <trkpt lat="46.438423180952668" lon="11.663677347823977">
        <ele>1809.3399999999999</ele>
        <time>2016-03-20T08:40:38Z</time>
      </trkpt>
      <trkpt lat="46.438408177345991" lon="11.663682963699102">
        <ele>1809.3399999999999</ele>
        <time>2016-03-20T08:40:42Z</time>
      </trkpt>
      <trkpt lat="46.438375990837812" lon="11.663681203499436">
        <ele>1809.3399999999999</ele>
        <time>2016-03-20T08:40:45Z</time>
      </trkpt>
      <trkpt lat="46.438249591737986" lon="11.663635605946183">
        <ele>1810.3</ele>
        <time>2016-03-20T08:40:57Z</time>
      </trkpt>
      <trkpt lat="46.4382195007056" lon="11.663595708087087">
        <ele>1810.78</ele>
        <time>2016-03-20T08:41:01Z</time>
      </trkpt>
      <trkpt lat="46.438186727464199" lon="11.663600821048021">
        <ele>1811.26</ele>
        <time>2016-03-20T08:41:04Z</time>
      </trkpt>
      <trkpt lat="46.438120091333985" lon="11.663568215444684">
        <ele>1812.22</ele>
        <time>2016-03-20T08:41:16Z</time>
      </trkpt>
      <trkpt lat="46.438122857362032" lon="11.663567628711462">
        <ele>1812.22</ele>
        <time>2016-03-20T08:41:19Z</time>
      </trkpt>
      <trkpt lat="46.438153116032481" lon="11.663559498265386">
        <ele>1811.74</ele>
        <time>2016-03-20T08:41:21Z</time>
      </trkpt>
      <trkpt lat="46.438226290047169" lon="11.663560420274734">
        <ele>1811.26</ele>
        <time>2016-03-20T08:41:26Z</time>
      </trkpt>
      <trkpt lat="46.438318658620119" lon="11.663595959544182">
        <ele>1810.3</ele>
        <time>2016-03-20T08:41:33Z</time>
      </trkpt>
      <trkpt lat="46.438431143760681" lon="11.663641054183245">
        <ele>1809.3399999999999</ele>
        <time>2016-03-20T08:41:44Z</time>
      </trkpt>
      <trkpt lat="46.43845846876502" lon="11.663717497140169">
        <ele>1809.3399999999999</ele>
        <time>2016-03-20T08:41:53Z</time>
      </trkpt>
      <trkpt lat="46.43848093226552" lon="11.663734931498766">
        <ele>1807.4200000000001</ele>
        <time>2016-03-20T08:42:00Z</time>
      </trkpt>
      <trkpt lat="46.438458804041147" lon="11.663710037246346">
        <ele>1807.4200000000001</ele>
        <time>2016-03-20T08:42:20Z</time>
      </trkpt>
      <trkpt lat="46.438472550362349" lon="11.663731159642339">
        <ele>1807.4200000000001</ele>
        <time>2016-03-20T08:42:31Z</time>
      </trkpt>
      <trkpt lat="46.438478752970695" lon="11.663722945377231">
        <ele>1808.3800000000001</ele>
        <time>2016-03-20T08:42:40Z</time>
      </trkpt>
      <trkpt lat="46.438456624746323" lon="11.66368531063199">
        <ele>1808.8599999999999</ele>
        <time>2016-03-20T08:42:51Z</time>
      </trkpt>
      <trkpt lat="46.438448242843151" lon="11.663661589846015">
        <ele>1809.3399999999999</ele>
        <time>2016-03-20T08:43:02Z</time>
      </trkpt>
      <trkpt lat="46.438437597826123" lon="11.663663266226649">
        <ele>1808.8599999999999</ele>
        <time>2016-03-20T08:43:18Z</time>
      </trkpt>
      <trkpt lat="46.438424186781049" lon="11.663664607331157">
        <ele>1808.8599999999999</ele>
        <time>2016-03-20T08:43:34Z</time>
      </trkpt>
      <trkpt lat="46.438430221751332" lon="11.663683885708451">
        <ele>1809.3399999999999</ele>
        <time>2016-03-20T08:43:51Z</time>
      </trkpt>
      <trkpt lat="46.438454026356339" lon="11.663734260946512">
        <ele>1808.3800000000001</ele>
        <time>2016-03-20T08:44:02Z</time>
      </trkpt>
      <trkpt lat="46.438451427966356" lon="11.663707522675395">
        <ele>1808.3800000000001</ele>
        <time>2016-03-20T08:44:16Z</time>
      </trkpt>
      <trkpt lat="46.438463078811765" lon="11.663745157420635">
        <ele>1808.3800000000001</ele>
        <time>2016-03-20T08:44:28Z</time>
      </trkpt>
      <trkpt lat="46.438441034406424" lon="11.663784217089415">
        <ele>1808.3800000000001</ele>
        <time>2016-03-20T08:44:48Z</time>
      </trkpt>
      <trkpt lat="46.438425108790398" lon="11.663801819086075">
        <ele>1808.3800000000001</ele>
        <time>2016-03-20T08:45:03Z</time>
      </trkpt>
      <trkpt lat="46.438438184559345" lon="11.663772985339165">
        <ele>1808.3800000000001</ele>
        <time>2016-03-20T08:45:19Z</time>
      </trkpt>
      <trkpt lat="46.438438100740314" lon="11.663770722225308">
        <ele>1807.9000000000001</ele>
        <time>2016-03-20T08:45:33Z</time>
      </trkpt>
      <trkpt lat="46.43848629668355" lon="11.663785139098763">
        <ele>1807.9000000000001</ele>
        <time>2016-03-20T08:45:39Z</time>
      </trkpt>
      <trkpt lat="46.4385786652565" lon="11.663930732756853">
        <ele>1807.4200000000001</ele>
        <time>2016-03-20T08:45:51Z</time>
      </trkpt>
      <trkpt lat="46.438664915040135" lon="11.663990998640656">
        <ele>1806.9400000000001</ele>
        <time>2016-03-20T08:46:02Z</time>
      </trkpt>
      <trkpt lat="46.43871889449656" lon="11.663941964507103">
        <ele>1808.8599999999999</ele>
        <time>2016-03-20T08:46:10Z</time>
      </trkpt>
      <trkpt lat="46.43876088783145" lon="11.663904832676053">
        <ele>1808.8599999999999</ele>
        <time>2016-03-20T08:46:16Z</time>
      </trkpt>
      <trkpt lat="46.438853004947305" lon="11.663792263716459">
        <ele>1809.8199999999999</ele>
        <time>2016-03-20T08:46:29Z</time>
      </trkpt>
      <trkpt lat="46.438860800117254" lon="11.663778014481068">
        <ele>1809.3399999999999</ele>
        <time>2016-03-20T08:46:30Z</time>
      </trkpt>
      <trkpt lat="46.438892986625433" lon="11.663592522963881">
        <ele>1810.3</ele>
        <time>2016-03-20T08:46:42Z</time>
      </trkpt>
      <trkpt lat="46.438916875049472" lon="11.663474924862385">
        <ele>1810.3</ele>
        <time>2016-03-20T08:46:53Z</time>
      </trkpt>
      <trkpt lat="46.438932046294212" lon="11.6634292434901">
        <ele>1810.3</ele>
        <time>2016-03-20T08:47:11Z</time>
      </trkpt>
      <trkpt lat="46.438933974131942" lon="11.663390602916479">
        <ele>1810.3</ele>
        <time>2016-03-20T08:47:19Z</time>
      </trkpt>
      <trkpt lat="46.439014775678515" lon="11.663176445290446">
        <ele>1808.3800000000001</ele>
        <time>2016-03-20T08:47:33Z</time>
      </trkpt>
      <trkpt lat="46.43900278955698" lon="11.663054991513491">
        <ele>1808.3800000000001</ele>
        <time>2016-03-20T08:47:44Z</time>
      </trkpt>
      <trkpt lat="46.438978482037783" lon="11.662916019558907">
        <ele>1807.9000000000001</ele>
        <time>2016-03-20T08:47:54Z</time>
      </trkpt>
      <trkpt lat="46.438978649675846" lon="11.662811581045389">
        <ele>1808.3800000000001</ele>
        <time>2016-03-20T08:48:01Z</time>
      </trkpt>
      <trkpt lat="46.439012847840786" lon="11.662676464766264">
        <ele>1809.3399999999999</ele>
        <time>2016-03-20T08:48:12Z</time>
      </trkpt>
      <trkpt lat="46.439009159803391" lon="11.662547467276454">
        <ele>1810.78</ele>
        <time>2016-03-20T08:48:23Z</time>
      </trkpt>
      <trkpt lat="46.438968004658818" lon="11.66237723082304">
        <ele>1812.22</ele>
        <time>2016-03-20T08:48:38Z</time>
      </trkpt>
      <trkpt lat="46.438929028809071" lon="11.662231050431728">
        <ele>1813.1800000000001</ele>
        <time>2016-03-20T08:48:52Z</time>
      </trkpt>
      <trkpt lat="46.438906732946634" lon="11.66208109818399">
        <ele>1813.6600000000001</ele>
        <time>2016-03-20T08:49:04Z</time>
      </trkpt>
      <trkpt lat="46.438812185078859" lon="11.662002224475145">
        <ele>1814.1500000000001</ele>
        <time>2016-03-20T08:49:16Z</time>
      </trkpt>
      <trkpt lat="46.438783770427108" lon="11.661850847303867">
        <ele>1815.5899999999999</ele>
        <time>2016-03-20T08:49:29Z</time>
      </trkpt>
      <trkpt lat="46.438766503706574" lon="11.66169754229486">
        <ele>1816.55</ele>
        <time>2016-03-20T08:49:42Z</time>
      </trkpt>
      <trkpt lat="46.438762731850147" lon="11.66164280846715">
        <ele>1817.03</ele>
        <time>2016-03-20T08:49:46Z</time>
      </trkpt>
      <trkpt lat="46.438752925023437" lon="11.661477517336607">
        <ele>1817.99</ele>
        <time>2016-03-20T08:49:59Z</time>
      </trkpt>
      <trkpt lat="46.438740603625774" lon="11.661320524290204">
        <ele>1818.47</ele>
        <time>2016-03-20T08:50:10Z</time>
      </trkpt>
      <trkpt lat="46.438719984143972" lon="11.661141905933619">
        <ele>1819.9100000000001</ele>
        <time>2016-03-20T08:50:25Z</time>
      </trkpt>
      <trkpt lat="46.43870078958571" lon="11.661047860980034">
        <ele>1820.3900000000001</ele>
        <time>2016-03-20T08:50:34Z</time>
      </trkpt>
      <trkpt lat="46.438661646097898" lon="11.660886006429791">
        <ele>1821.8399999999999</ele>
        <time>2016-03-20T08:50:48Z</time>
      </trkpt>
      <trkpt lat="46.438648737967014" lon="11.66075399145484">
        <ele>1821.8399999999999</ele>
        <time>2016-03-20T08:51:00Z</time>
      </trkpt>
      <trkpt lat="46.438629040494561" lon="11.660613594576716">
        <ele>1823.28</ele>
        <time>2016-03-20T08:51:12Z</time>
      </trkpt>
      <trkpt lat="46.438607834279537" lon="11.660459535196424">
        <ele>1826.1600000000001</ele>
        <time>2016-03-20T08:51:26Z</time>
      </trkpt>
      <trkpt lat="46.438604900613427" lon="11.660452829673886">
        <ele>1825.6800000000001</ele>
        <time>2016-03-20T08:51:27Z</time>
      </trkpt>
      <trkpt lat="46.438582856208086" lon="11.6603416018188">
        <ele>1827.1199999999999</ele>
        <time>2016-03-20T08:51:39Z</time>
      </trkpt>
      <trkpt lat="46.438537510111928" lon="11.660195337608457">
        <ele>1829.05</ele>
        <time>2016-03-20T08:51:53Z</time>
      </trkpt>
      <trkpt lat="46.438505491241813" lon="11.660124510526657">
        <ele>1831.45</ele>
        <time>2016-03-20T08:52:01Z</time>
      </trkpt>
      <trkpt lat="46.438496187329292" lon="11.659955279901624">
        <ele>1831.45</ele>
        <time>2016-03-20T08:52:13Z</time>
      </trkpt>
      <trkpt lat="46.438479339703918" lon="11.659851847216487">
        <ele>1833.3699999999999</ele>
        <time>2016-03-20T08:52:25Z</time>
      </trkpt>
      <trkpt lat="46.438473137095571" lon="11.659735674038529">
        <ele>1835.29</ele>
        <time>2016-03-20T08:52:36Z</time>
      </trkpt>
      <trkpt lat="46.438420163467526" lon="11.659647664055228">
        <ele>1837.7</ele>
        <time>2016-03-20T08:52:51Z</time>
      </trkpt>
      <trkpt lat="46.438393592834473" lon="11.659524198621511">
        <ele>1840.5799999999999</ele>
        <time>2016-03-20T08:53:05Z</time>
      </trkpt>
      <trkpt lat="46.438378086313605" lon="11.659351866692305">
        <ele>1842.5</ele>
        <time>2016-03-20T08:53:19Z</time>
      </trkpt>
      <trkpt lat="46.438331482931972" lon="11.659285649657249">
        <ele>1843.95</ele>
        <time>2016-03-20T08:53:30Z</time>
      </trkpt>
      <trkpt lat="46.438268534839153" lon="11.659198980778456">
        <ele>1845.8699999999999</ele>
        <time>2016-03-20T08:53:43Z</time>
      </trkpt>
      <trkpt lat="46.438249591737986" lon="11.659126309677958">
        <ele>1847.79</ele>
        <time>2016-03-20T08:53:54Z</time>
      </trkpt>
      <trkpt lat="46.438304828479886" lon="11.658927071839571">
        <ele>1848.27</ele>
        <time>2016-03-20T08:54:08Z</time>
      </trkpt>
      <trkpt lat="46.438337350264192" lon="11.658789357170463">
        <ele>1849.23</ele>
        <time>2016-03-20T08:54:20Z</time>
      </trkpt>
      <trkpt lat="46.438375320285559" lon="11.658572433516383">
        <ele>1850.6800000000001</ele>
        <time>2016-03-20T08:54:34Z</time>
      </trkpt>
      <trkpt lat="46.438380349427462" lon="11.65842323563993">
        <ele>1851.1600000000001</ele>
        <time>2016-03-20T08:54:45Z</time>
      </trkpt>
      <trkpt lat="46.438405830413103" lon="11.658351151272655">
        <ele>1851.1600000000001</ele>
        <time>2016-03-20T08:54:56Z</time>
      </trkpt>
      <trkpt lat="46.438406081870198" lon="11.658348301425576">
        <ele>1851.1600000000001</ele>
        <time>2016-03-20T08:54:57Z</time>
      </trkpt>
      <trkpt lat="46.438454277813435" lon="11.658255094662309">
        <ele>1851.1600000000001</ele>
        <time>2016-03-20T08:55:08Z</time>
      </trkpt>
      <trkpt lat="46.438469281420112" lon="11.658177562057972">
        <ele>1851.1600000000001</ele>
        <time>2016-03-20T08:55:16Z</time>
      </trkpt>
      <trkpt lat="46.438496941700578" lon="11.658004056662321">
        <ele>1851.6400000000001</ele>
        <time>2016-03-20T08:55:26Z</time>
      </trkpt>
      <trkpt lat="46.438512532040477" lon="11.657861648127437">
        <ele>1852.1199999999999</ele>
        <time>2016-03-20T08:55:37Z</time>
      </trkpt>
      <trkpt lat="46.438526110723615" lon="11.657696440815926">
        <ele>1853.0799999999999</ele>
        <time>2016-03-20T08:55:49Z</time>
      </trkpt>
      <trkpt lat="46.438535498455167" lon="11.657546572387218">
        <ele>1854.52</ele>
        <time>2016-03-20T08:56:00Z</time>
      </trkpt>
      <trkpt lat="46.438554022461176" lon="11.65745529346168">
        <ele>1855</ele>
        <time>2016-03-20T08:56:11Z</time>
      </trkpt>
      <trkpt lat="46.438576905056834" lon="11.657340712845325">
        <ele>1855.48</ele>
        <time>2016-03-20T08:56:20Z</time>
      </trkpt>
      <trkpt lat="46.438643792644143" lon="11.657142145559192">
        <ele>1856.4400000000001</ele>
        <time>2016-03-20T08:56:33Z</time>
      </trkpt>
      <trkpt lat="46.438689390197396" lon="11.657029073685408">
        <ele>1857.4000000000001</ele>
        <time>2016-03-20T08:56:44Z</time>
      </trkpt>
      <trkpt lat="46.438724342733622" lon="11.656909883022308">
        <ele>1858.3699999999999</ele>
        <time>2016-03-20T08:56:53Z</time>
      </trkpt>
      <trkpt lat="46.438747895881534" lon="11.65680686943233">
        <ele>1858.8499999999999</ele>
        <time>2016-03-20T08:57:00Z</time>
      </trkpt>
      <trkpt lat="46.438778573647141" lon="11.65669153444469">
        <ele>1859.8099999999999</ele>
        <time>2016-03-20T08:57:12Z</time>
      </trkpt>
      <trkpt lat="46.438811430707574" lon="11.656516771763563">
        <ele>1860.29</ele>
        <time>2016-03-20T08:57:24Z</time>
      </trkpt>
      <trkpt lat="46.438830373808742" lon="11.65633044205606">
        <ele>1860.77</ele>
        <time>2016-03-20T08:57:36Z</time>
      </trkpt>
      <trkpt lat="46.438845209777355" lon="11.656134305521846">
        <ele>1860.77</ele>
        <time>2016-03-20T08:57:49Z</time>
      </trkpt>
      <trkpt lat="46.43885962665081" lon="11.656022071838379">
        <ele>1861.25</ele>
        <time>2016-03-20T08:57:58Z</time>
      </trkpt>
      <trkpt lat="46.43886742182076" lon="11.655889302492142">
        <ele>1862.6900000000001</ele>
        <time>2016-03-20T08:58:10Z</time>
      </trkpt>
      <trkpt lat="46.438875216990709" lon="11.655782097950578">
        <ele>1863.6500000000001</ele>
        <time>2016-03-20T08:58:20Z</time>
      </trkpt>
      <trkpt lat="46.43887136131525" lon="11.655680676922202">
        <ele>1864.1300000000001</ele>
        <time>2016-03-20T08:58:27Z</time>
      </trkpt>
      <trkpt lat="46.438935650512576" lon="11.655521588400006">
        <ele>1866.0599999999999</ele>
        <time>2016-03-20T08:58:40Z</time>
      </trkpt>
      <trkpt lat="46.438951240852475" lon="11.655374821275473">
        <ele>1867.5</ele>
        <time>2016-03-20T08:58:51Z</time>
      </trkpt>
      <trkpt lat="46.438975380733609" lon="11.655188491567969">
        <ele>1867.5</ele>
        <time>2016-03-20T08:59:03Z</time>
      </trkpt>
      <trkpt lat="46.43899105489254" lon="11.65504926815629">
        <ele>1867.98</ele>
        <time>2016-03-20T08:59:14Z</time>
      </trkpt>
      <trkpt lat="46.439045704901218" lon="11.654914654791355">
        <ele>1868.46</ele>
        <time>2016-03-20T08:59:25Z</time>
      </trkpt>
      <trkpt lat="46.439089793711901" lon="11.654795631766319">
        <ele>1869.9000000000001</ele>
        <time>2016-03-20T08:59:36Z</time>
      </trkpt>
      <trkpt lat="46.439136397093534" lon="11.654629586264491">
        <ele>1871.8199999999999</ele>
        <time>2016-03-20T08:59:50Z</time>
      </trkpt>
      <trkpt lat="46.43920018337667" lon="11.654514167457819">
        <ele>1873.75</ele>
        <time>2016-03-20T09:00:03Z</time>
      </trkpt>
      <trkpt lat="46.439249133691192" lon="11.654395312070847">
        <ele>1874.23</ele>
        <time>2016-03-20T09:00:13Z</time>
      </trkpt>
      <trkpt lat="46.439219294115901" lon="11.654260028153658">
        <ele>1875.1900000000001</ele>
        <time>2016-03-20T09:00:25Z</time>
      </trkpt>
      <trkpt lat="46.439219294115901" lon="11.654236726462841">
        <ele>1875.6700000000001</ele>
        <time>2016-03-20T09:00:27Z</time>
      </trkpt>
      <trkpt lat="46.439215103164315" lon="11.654103202745318">
        <ele>1876.1500000000001</ele>
        <time>2016-03-20T09:00:38Z</time>
      </trkpt>
      <trkpt lat="46.439213426783681" lon="11.654093815013766">
        <ele>1876.1500000000001</ele>
        <time>2016-03-20T09:00:39Z</time>
      </trkpt>
      <trkpt lat="46.439249971881509" lon="11.653922656551003">
        <ele>1876.6300000000001</ele>
        <time>2016-03-20T09:00:50Z</time>
      </trkpt>
      <trkpt lat="46.439264807850122" lon="11.653805393725634">
        <ele>1878.0699999999999</ele>
        <time>2016-03-20T09:01:03Z</time>
      </trkpt>
      <trkpt lat="46.439282996580005" lon="11.653697853907943">
        <ele>1880</ele>
        <time>2016-03-20T09:01:14Z</time>
      </trkpt>
      <trkpt lat="46.439286516979337" lon="11.65356433019042">
        <ele>1881.4400000000001</ele>
        <time>2016-03-20T09:01:25Z</time>
      </trkpt>
      <trkpt lat="46.439316524192691" lon="11.653458718210459">
        <ele>1882.4000000000001</ele>
        <time>2016-03-20T09:01:37Z</time>
      </trkpt>
      <trkpt lat="46.439357092604041" lon="11.653360314667225">
        <ele>1884.3199999999999</ele>
        <time>2016-03-20T09:01:48Z</time>
      </trkpt>
      <trkpt lat="46.439385171979666" lon="11.653299210593104">
        <ele>1885.28</ele>
        <time>2016-03-20T09:01:54Z</time>
      </trkpt>
      <trkpt lat="46.439424650743604" lon="11.65314263664186">
        <ele>1886.72</ele>
        <time>2016-03-20T09:02:08Z</time>
      </trkpt>
      <trkpt lat="46.439454238861799" lon="11.652991008013487">
        <ele>1887.6900000000001</ele>
        <time>2016-03-20T09:02:22Z</time>
      </trkpt>
      <trkpt lat="46.439471589401364" lon="11.652842983603477">
        <ele>1888.1700000000001</ele>
        <time>2016-03-20T09:02:33Z</time>
      </trkpt>
      <trkpt lat="46.439473181962967" lon="11.652815826237202">
        <ele>1888.6500000000001</ele>
        <time>2016-03-20T09:02:36Z</time>
      </trkpt>
      <trkpt lat="46.439523138105869" lon="11.65268087759614">
        <ele>1889.6099999999999</ele>
        <time>2016-03-20T09:02:48Z</time>
      </trkpt>
      <trkpt lat="46.439543338492513" lon="11.652543246746063">
        <ele>1891.53</ele>
        <time>2016-03-20T09:03:02Z</time>
      </trkpt>
      <trkpt lat="46.439575860276818" lon="11.652376865968108">
        <ele>1892.49</ele>
        <time>2016-03-20T09:03:16Z</time>
      </trkpt>
      <trkpt lat="46.439649034291506" lon="11.652244264259934">
        <ele>1894.4200000000001</ele>
        <time>2016-03-20T09:03:29Z</time>
      </trkpt>
      <trkpt lat="46.43969270400703" lon="11.652124570682645">
        <ele>1895.8599999999999</ele>
        <time>2016-03-20T09:03:41Z</time>
      </trkpt>
      <trkpt lat="46.439704103395343" lon="11.652024993672967">
        <ele>1896.3399999999999</ele>
        <time>2016-03-20T09:03:53Z</time>
      </trkpt>
      <trkpt lat="46.439755819737911" lon="11.651895996183157">
        <ele>1896.8199999999999</ele>
        <time>2016-03-20T09:04:05Z</time>
      </trkpt>
      <trkpt lat="46.43975724466145" lon="11.651874706149101">
        <ele>1898.26</ele>
        <time>2016-03-20T09:04:06Z</time>
      </trkpt>
      <trkpt lat="46.439790101721883" lon="11.651735734194517">
        <ele>1897.78</ele>
        <time>2016-03-20T09:04:16Z</time>
      </trkpt>
      <trkpt lat="46.439840476959944" lon="11.651584943756461">
        <ele>1899.22</ele>
        <time>2016-03-20T09:04:27Z</time>
      </trkpt>
      <trkpt lat="46.439898731186986" lon="11.651443038135767">
        <ele>1900.1800000000001</ele>
        <time>2016-03-20T09:04:40Z</time>
      </trkpt>
      <trkpt lat="46.439926559105515" lon="11.651313118636608">
        <ele>1901.6300000000001</ele>
        <time>2016-03-20T09:04:54Z</time>
      </trkpt>
      <trkpt lat="46.440076343715191" lon="11.651245728135109">
        <ele>1902.5899999999999</ele>
        <time>2016-03-20T09:05:08Z</time>
      </trkpt>
      <trkpt lat="46.440134095028043" lon="11.651111785322428">
        <ele>1902.1099999999999</ele>
        <time>2016-03-20T09:05:20Z</time>
      </trkpt>
      <trkpt lat="46.440121605992317" lon="11.651042047888041">
        <ele>1902.1099999999999</ele>
        <time>2016-03-20T09:05:26Z</time>
      </trkpt>
      <trkpt lat="46.440137112513185" lon="11.650888742879033">
        <ele>1902.1099999999999</ele>
        <time>2016-03-20T09:05:39Z</time>
      </trkpt>
      <trkpt lat="46.440105177462101" lon="11.650757566094398">
        <ele>1902.5899999999999</ele>
        <time>2016-03-20T09:05:52Z</time>
      </trkpt>
      <trkpt lat="46.440107440575957" lon="11.65072051808238">
        <ele>1903.0699999999999</ele>
        <time>2016-03-20T09:05:54Z</time>
      </trkpt>
      <trkpt lat="46.440113391727209" lon="11.650580791756511">
        <ele>1904.03</ele>
        <time>2016-03-20T09:06:05Z</time>
      </trkpt>
      <trkpt lat="46.440193774178624" lon="11.650497391819954">
        <ele>1905.47</ele>
        <time>2016-03-20T09:06:17Z</time>
      </trkpt>
      <trkpt lat="46.440265355631709" lon="11.650451542809606">
        <ele>1906.9100000000001</ele>
        <time>2016-03-20T09:06:28Z</time>
      </trkpt>
      <trkpt lat="46.440338948741555" lon="11.650388510897756">
        <ele>1909.3199999999999</ele>
        <time>2016-03-20T09:06:41Z</time>
      </trkpt>
      <trkpt lat="46.440383708104491" lon="11.650352887809277">
        <ele>1909.8</ele>
        <time>2016-03-20T09:06:47Z</time>
      </trkpt>
      <trkpt lat="46.440473813563585" lon="11.650254232808948">
        <ele>1911.24</ele>
        <time>2016-03-20T09:07:00Z</time>
      </trkpt>
      <trkpt lat="46.440544473007321" lon="11.650104699656367">
        <ele>1913.1600000000001</ele>
        <time>2016-03-20T09:07:15Z</time>
      </trkpt>
      <trkpt lat="46.440566349774599" lon="11.649970002472401">
        <ele>1914.5999999999999</ele>
        <time>2016-03-20T09:07:28Z</time>
      </trkpt>
      <trkpt lat="46.440595686435699" lon="11.649872101843357">
        <ele>1916.04</ele>
        <time>2016-03-20T09:07:40Z</time>
      </trkpt>
      <trkpt lat="46.440638853237033" lon="11.649689124897122">
        <ele>1917.01</ele>
        <time>2016-03-20T09:07:54Z</time>
      </trkpt>
      <trkpt lat="46.440649833530188" lon="11.64959080517292">
        <ele>1917.97</ele>
        <time>2016-03-20T09:08:06Z</time>
      </trkpt>
      <trkpt lat="46.440710183233023" lon="11.649385532364249">
        <ele>1919.4100000000001</ele>
        <time>2016-03-20T09:08:22Z</time>
      </trkpt>
      <trkpt lat="46.440743543207645" lon="11.649251757189631">
        <ele>1919.4100000000001</ele>
        <time>2016-03-20T09:08:34Z</time>
      </trkpt>
      <trkpt lat="46.440699454396963" lon="11.649149246513844">
        <ele>1920.3699999999999</ele>
        <time>2016-03-20T09:08:45Z</time>
      </trkpt>
      <trkpt lat="46.440666262060404" lon="11.649012453854084">
        <ele>1921.8099999999999</ele>
        <time>2016-03-20T09:08:58Z</time>
      </trkpt>
      <trkpt lat="46.440628878772259" lon="11.648880857974291">
        <ele>1923.25</ele>
        <time>2016-03-20T09:09:10Z</time>
      </trkpt>
      <trkpt lat="46.440576072782278" lon="11.648836769163609">
        <ele>1924.7</ele>
        <time>2016-03-20T09:09:26Z</time>
      </trkpt>
      <trkpt lat="46.440582610666752" lon="11.648823358118534">
        <ele>1924.7</ele>
        <time>2016-03-20T09:09:39Z</time>
      </trkpt>
      <trkpt lat="46.440594680607319" lon="11.64879972115159">
        <ele>1924.7</ele>
        <time>2016-03-20T09:09:51Z</time>
      </trkpt>
      <trkpt lat="46.440579760819674" lon="11.648796619847417">
        <ele>1924.7</ele>
        <time>2016-03-20T09:10:11Z</time>
      </trkpt>
      <trkpt lat="46.440562075003982" lon="11.648775078356266">
        <ele>1925.1800000000001</ele>
        <time>2016-03-20T09:10:19Z</time>
      </trkpt>
      <trkpt lat="46.440493008121848" lon="11.648660581558943">
        <ele>1926.1400000000001</ele>
        <time>2016-03-20T09:10:31Z</time>
      </trkpt>
      <trkpt lat="46.440452942624688" lon="11.648572571575642">
        <ele>1926.1400000000001</ele>
        <time>2016-03-20T09:10:38Z</time>
      </trkpt>
      <trkpt lat="46.440418493002653" lon="11.648401496931911">
        <ele>1927.0999999999999</ele>
        <time>2016-03-20T09:10:51Z</time>
      </trkpt>
      <trkpt lat="46.440430395305157" lon="11.648252466693521">
        <ele>1928.54</ele>
        <time>2016-03-20T09:11:03Z</time>
      </trkpt>
      <trkpt lat="46.440465850755572" lon="11.648110644891858">
        <ele>1929.5</ele>
        <time>2016-03-20T09:11:12Z</time>
      </trkpt>
      <trkpt lat="46.440523853525519" lon="11.647964464500546">
        <ele>1930.95</ele>
        <time>2016-03-20T09:11:24Z</time>
      </trkpt>
      <trkpt lat="46.440574647858739" lon="11.647811159491539">
        <ele>1932.3900000000001</ele>
        <time>2016-03-20T09:11:37Z</time>
      </trkpt>
      <trkpt lat="46.440642541274428" lon="11.64769783616066">
        <ele>1933.8299999999999</ele>
        <time>2016-03-20T09:11:50Z</time>
      </trkpt>
      <trkpt lat="46.440684953704476" lon="11.647590463981032">
        <ele>1936.23</ele>
        <time>2016-03-20T09:12:05Z</time>
      </trkpt>
      <trkpt lat="46.44071202725172" lon="11.647516116499901">
        <ele>1937.1900000000001</ele>
        <time>2016-03-20T09:12:19Z</time>
      </trkpt>
      <trkpt lat="46.440722169354558" lon="11.647528186440468">
        <ele>1937.1900000000001</ele>
        <time>2016-03-20T09:12:41Z</time>
      </trkpt>
      <trkpt lat="46.440726276487112" lon="11.647594068199396">
        <ele>1937.1900000000001</ele>
        <time>2016-03-20T09:13:04Z</time>
      </trkpt>
      <trkpt lat="46.440771454945207" lon="11.64752927608788">
        <ele>1937.1900000000001</ele>
        <time>2016-03-20T09:13:29Z</time>
      </trkpt>
      <trkpt lat="46.440774388611317" lon="11.647468758746982">
        <ele>1937.1900000000001</ele>
        <time>2016-03-20T09:13:44Z</time>
      </trkpt>
      <trkpt lat="46.440758379176259" lon="11.647314699366689">
        <ele>1937.1900000000001</ele>
        <time>2016-03-20T09:13:54Z</time>
      </trkpt>
      <trkpt lat="46.440756283700466" lon="11.647152677178383">
        <ele>1937.6700000000001</ele>
        <time>2016-03-20T09:14:05Z</time>
      </trkpt>
      <trkpt lat="46.44078629091382" lon="11.647026278078556">
        <ele>1938.6400000000001</ele>
        <time>2016-03-20T09:14:14Z</time>
      </trkpt>
      <trkpt lat="46.440843036398292" lon="11.646887976676226">
        <ele>1940.0799999999999</ele>
        <time>2016-03-20T09:14:25Z</time>
      </trkpt>
      <trkpt lat="46.440880671143532" lon="11.646747831255198">
        <ele>1941.52</ele>
        <time>2016-03-20T09:14:36Z</time>
      </trkpt>
      <trkpt lat="46.440918641164899" lon="11.64661799557507">
        <ele>1943.4400000000001</ele>
        <time>2016-03-20T09:14:48Z</time>
      </trkpt>
      <trkpt lat="46.44096951931715" lon="11.646531745791435">
        <ele>1944.8800000000001</ele>
        <time>2016-03-20T09:15:00Z</time>
      </trkpt>
      <trkpt lat="46.441030623391271" lon="11.646419847384095">
        <ele>1946.3299999999999</ele>
        <time>2016-03-20T09:15:13Z</time>
      </trkpt>
      <trkpt lat="46.441113771870732" lon="11.646329993382096">
        <ele>1948.25</ele>
        <time>2016-03-20T09:15:25Z</time>
      </trkpt>
      <trkpt lat="46.44116741605103" lon="11.646225890144706">
        <ele>1949.6900000000001</ele>
        <time>2016-03-20T09:15:39Z</time>
      </trkpt>
      <trkpt lat="46.441250648349524" lon="11.646082056686282">
        <ele>1950.6500000000001</ele>
        <time>2016-03-20T09:15:53Z</time>
      </trkpt>
      <trkpt lat="46.441322062164545" lon="11.64596957154572">
        <ele>1951.1300000000001</ele>
        <time>2016-03-20T09:16:05Z</time>
      </trkpt>
      <trkpt lat="46.441417448222637" lon="11.645789192989469">
        <ele>1952.0899999999999</ele>
        <time>2016-03-20T09:16:20Z</time>
      </trkpt>
      <trkpt lat="46.44149431027472" lon="11.645694142207503">
        <ele>1953.0599999999999</ele>
        <time>2016-03-20T09:16:30Z</time>
      </trkpt>
      <trkpt lat="46.441566478461027" lon="11.6455596126616">
        <ele>1953.0599999999999</ele>
        <time>2016-03-20T09:16:43Z</time>
      </trkpt>
      <trkpt lat="46.441611237823963" lon="11.645364062860608">
        <ele>1954.02</ele>
        <time>2016-03-20T09:16:57Z</time>
      </trkpt>
      <trkpt lat="46.441650465130806" lon="11.645254762843251">
        <ele>1954.5</ele>
        <time>2016-03-20T09:17:08Z</time>
      </trkpt>
      <trkpt lat="46.441745180636644" lon="11.645119814202189">
        <ele>1954.98</ele>
        <time>2016-03-20T09:17:20Z</time>
      </trkpt>
      <trkpt lat="46.441796477884054" lon="11.645003305748105">
        <ele>1954.98</ele>
        <time>2016-03-20T09:17:31Z</time>
      </trkpt>
      <trkpt lat="46.441816845908761" lon="11.644955277442932">
        <ele>1954.98</ele>
        <time>2016-03-20T09:17:35Z</time>
      </trkpt>
      <trkpt lat="46.441858503967524" lon="11.644776659086347">
        <ele>1954.98</ele>
        <time>2016-03-20T09:17:48Z</time>
      </trkpt>
      <trkpt lat="46.441895300522447" lon="11.644624946638942">
        <ele>1954.98</ele>
        <time>2016-03-20T09:17:59Z</time>
      </trkpt>
      <trkpt lat="46.441917847841978" lon="11.644512880593538">
        <ele>1955.46</ele>
        <time>2016-03-20T09:18:09Z</time>
      </trkpt>
      <trkpt lat="46.441960427910089" lon="11.644385978579521">
        <ele>1955.46</ele>
        <time>2016-03-20T09:18:19Z</time>
      </trkpt>
      <trkpt lat="46.442011976614594" lon="11.644259579479694">
        <ele>1954.98</ele>
        <time>2016-03-20T09:18:30Z</time>
      </trkpt>
      <trkpt lat="46.442041145637631" lon="11.644131671637297">
        <ele>1954.98</ele>
        <time>2016-03-20T09:18:40Z</time>
      </trkpt>
      <trkpt lat="46.442136447876692" lon="11.644013905897737">
        <ele>1954.5</ele>
        <time>2016-03-20T09:18:51Z</time>
      </trkpt>
      <trkpt lat="46.442192606627941" lon="11.643874682486057">
        <ele>1955.9400000000001</ele>
        <time>2016-03-20T09:19:04Z</time>
      </trkpt>
      <trkpt lat="46.442281538620591" lon="11.643727580085397">
        <ele>1957.8599999999999</ele>
        <time>2016-03-20T09:19:18Z</time>
      </trkpt>
      <trkpt lat="46.442356975749135" lon="11.643671421334147">
        <ele>1959.3</ele>
        <time>2016-03-20T09:19:30Z</time>
      </trkpt>
      <trkpt lat="46.442428976297379" lon="11.643571089953184">
        <ele>1962.6700000000001</ele>
        <time>2016-03-20T09:19:49Z</time>
      </trkpt>
      <trkpt lat="46.442480525001884" lon="11.643456844612956">
        <ele>1964.1099999999999</ele>
        <time>2016-03-20T09:20:02Z</time>
      </trkpt>
      <trkpt lat="46.442526206374168" lon="11.643381910398602">
        <ele>1965.55</ele>
        <time>2016-03-20T09:20:13Z</time>
      </trkpt>
      <trkpt lat="46.442587310448289" lon="11.643285350874066">
        <ele>1966.03</ele>
        <time>2016-03-20T09:20:25Z</time>
      </trkpt>
      <trkpt lat="46.442611534148455" lon="11.643180828541517">
        <ele>1966.03</ele>
        <time>2016-03-20T09:20:32Z</time>
      </trkpt>
      <trkpt lat="46.442685630172491" lon="11.643004473298788">
        <ele>1964.5899999999999</ele>
        <time>2016-03-20T09:20:47Z</time>
      </trkpt>
      <trkpt lat="46.442743968218565" lon="11.64294789545238">
        <ele>1964.5899999999999</ele>
        <time>2016-03-20T09:20:55Z</time>
      </trkpt>
      <trkpt lat="46.442828290164471" lon="11.642782352864742">
        <ele>1963.6300000000001</ele>
        <time>2016-03-20T09:21:07Z</time>
      </trkpt>
      <trkpt lat="46.442878665402532" lon="11.64264882914722">
        <ele>1964.1099999999999</ele>
        <time>2016-03-20T09:21:18Z</time>
      </trkpt>
      <trkpt lat="46.442890483886003" lon="11.642624856904149">
        <ele>1963.6300000000001</ele>
        <time>2016-03-20T09:21:20Z</time>
      </trkpt>
      <trkpt lat="46.442953431978822" lon="11.642485298216343">
        <ele>1963.1500000000001</ele>
        <time>2016-03-20T09:21:31Z</time>
      </trkpt>
      <trkpt lat="46.443033143877983" lon="11.642336770892143">
        <ele>1961.23</ele>
        <time>2016-03-20T09:21:42Z</time>
      </trkpt>
      <trkpt lat="46.443115789443254" lon="11.6422164067626">
        <ele>1960.27</ele>
        <time>2016-03-20T09:21:52Z</time>
      </trkpt>
      <trkpt lat="46.443122243508697" lon="11.642201654613018">
        <ele>1960.27</ele>
        <time>2016-03-20T09:21:53Z</time>
      </trkpt>
      <trkpt lat="46.443200027570128" lon="11.642056480050087">
        <ele>1958.8199999999999</ele>
        <time>2016-03-20T09:22:04Z</time>
      </trkpt>
      <trkpt lat="46.443264484405518" lon="11.641897056251764">
        <ele>1957.3800000000001</ele>
        <time>2016-03-20T09:22:14Z</time>
      </trkpt>
      <trkpt lat="46.443310836330056" lon="11.641748696565628">
        <ele>1956.9000000000001</ele>
        <time>2016-03-20T09:22:23Z</time>
      </trkpt>
      <trkpt lat="46.443347381427884" lon="11.641603522002697">
        <ele>1957.3800000000001</ele>
        <time>2016-03-20T09:22:34Z</time>
      </trkpt>
      <trkpt lat="46.443370766937733" lon="11.641464298591018">
        <ele>1956.9000000000001</ele>
        <time>2016-03-20T09:22:45Z</time>
      </trkpt>
      <trkpt lat="46.443430865183473" lon="11.641329601407051">
        <ele>1956.4200000000001</ele>
        <time>2016-03-20T09:22:57Z</time>
      </trkpt>
      <trkpt lat="46.443485347554088" lon="11.641341000795364">
        <ele>1955.9400000000001</ele>
        <time>2016-03-20T09:23:11Z</time>
      </trkpt>
      <trkpt lat="46.443511499091983" lon="11.641347873955965">
        <ele>1955.9400000000001</ele>
        <time>2016-03-20T09:23:27Z</time>
      </trkpt>
      <trkpt lat="46.443528346717358" lon="11.641345107927918">
        <ele>1955.9400000000001</ele>
        <time>2016-03-20T09:23:33Z</time>
      </trkpt>
      <trkpt lat="46.44357779994607" lon="11.641342425718904">
        <ele>1955.9400000000001</ele>
        <time>2016-03-20T09:23:40Z</time>
      </trkpt>
      <trkpt lat="46.443641921505332" lon="11.641310909762979">
        <ele>1955.9400000000001</ele>
        <time>2016-03-20T09:23:49Z</time>
      </trkpt>
      <trkpt lat="46.443679304793477" lon="11.641280818730593">
        <ele>1955.9400000000001</ele>
        <time>2016-03-20T09:23:53Z</time>
      </trkpt>
      <trkpt lat="46.443744516000152" lon="11.64114193059504">
        <ele>1955.9400000000001</ele>
        <time>2016-03-20T09:24:04Z</time>
      </trkpt>
      <trkpt lat="46.443790700286627" lon="11.64102173410356">
        <ele>1955.9400000000001</ele>
        <time>2016-03-20T09:24:13Z</time>
      </trkpt>
      <trkpt lat="46.443861611187458" lon="11.640858203172684">
        <ele>1956.4200000000001</ele>
        <time>2016-03-20T09:24:25Z</time>
      </trkpt>
      <trkpt lat="46.44387586042285" lon="11.640845043584704">
        <ele>1956.4200000000001</ele>
        <time>2016-03-20T09:24:27Z</time>
      </trkpt>
      <trkpt lat="46.443960517644882" lon="11.640889970585704">
        <ele>1957.3800000000001</ele>
        <time>2016-03-20T09:24:37Z</time>
      </trkpt>
      <trkpt lat="46.44401173107326" lon="11.640971777960658">
        <ele>1958.3399999999999</ele>
        <time>2016-03-20T09:24:47Z</time>
      </trkpt>
      <trkpt lat="46.444145506247878" lon="11.640931125730276">
        <ele>1960.27</ele>
        <time>2016-03-20T09:25:02Z</time>
      </trkpt>
      <trkpt lat="46.444156402722001" lon="11.640936657786369">
        <ele>1960.27</ele>
        <time>2016-03-20T09:25:03Z</time>
      </trkpt>
      <trkpt lat="46.444308450445533" lon="11.640898352488875">
        <ele>1959.78</ele>
        <time>2016-03-20T09:25:16Z</time>
      </trkpt>
      <trkpt lat="46.44440651871264" lon="11.640784526243806">
        <ele>1959.78</ele>
        <time>2016-03-20T09:25:27Z</time>
      </trkpt>
      <trkpt lat="46.444517830386758" lon="11.640757787972689">
        <ele>1960.75</ele>
        <time>2016-03-20T09:25:40Z</time>
      </trkpt>
      <trkpt lat="46.444576168432832" lon="11.640798859298229">
        <ele>1960.75</ele>
        <time>2016-03-20T09:25:57Z</time>
      </trkpt>
      <trkpt lat="46.444685971364379" lon="11.640804978087544">
        <ele>1960.75</ele>
        <time>2016-03-20T09:26:07Z</time>
      </trkpt>
      <trkpt lat="46.444774065166712" lon="11.640702383592725">
        <ele>1961.71</ele>
        <time>2016-03-20T09:26:19Z</time>
      </trkpt>
      <trkpt lat="46.444813460111618" lon="11.640659300610423">
        <ele>1961.71</ele>
        <time>2016-03-20T09:26:29Z</time>
      </trkpt>
      <trkpt lat="46.444897698238492" lon="11.640575816854835">
        <ele>1962.6700000000001</ele>
        <time>2016-03-20T09:26:38Z</time>
      </trkpt>
      <trkpt lat="46.444976655766368" lon="11.640471629798412">
        <ele>1963.1500000000001</ele>
        <time>2016-03-20T09:26:50Z</time>
      </trkpt>
      <trkpt lat="46.445092745125294" lon="11.640373729169369">
        <ele>1961.71</ele>
        <time>2016-03-20T09:27:01Z</time>
      </trkpt>
      <trkpt lat="46.445243703201413" lon="11.640399293974042">
        <ele>1960.27</ele>
        <time>2016-03-20T09:27:13Z</time>
      </trkpt>
      <trkpt lat="46.445256108418107" lon="11.640429552644491">
        <ele>1960.75</ele>
        <time>2016-03-20T09:27:22Z</time>
      </trkpt>
      <trkpt lat="46.445273123681545" lon="11.640407089143991">
        <ele>1960.75</ele>
        <time>2016-03-20T09:27:40Z</time>
      </trkpt>
      <trkpt lat="46.445291815325618" lon="11.64043583907187">
        <ele>1960.75</ele>
        <time>2016-03-20T09:27:55Z</time>
      </trkpt>
      <trkpt lat="46.445297850295901" lon="11.640407927334309">
        <ele>1960.75</ele>
        <time>2016-03-20T09:28:08Z</time>
      </trkpt>
      <trkpt lat="46.445341436192393" lon="11.640477413311601">
        <ele>1961.23</ele>
        <time>2016-03-20T09:28:16Z</time>
      </trkpt>
      <trkpt lat="46.445417124778032" lon="11.6405672673136">
        <ele>1960.27</ele>
        <time>2016-03-20T09:28:26Z</time>
      </trkpt>
      <trkpt lat="46.445561042055488" lon="11.640587383881211">
        <ele>1959.78</ele>
        <time>2016-03-20T09:28:39Z</time>
      </trkpt>
      <trkpt lat="46.445588953793049" lon="11.640593083575368">
        <ele>1959.78</ele>
        <time>2016-03-20T09:28:42Z</time>
      </trkpt>
      <trkpt lat="46.445693057030439" lon="11.640630047768354">
        <ele>1959.78</ele>
        <time>2016-03-20T09:28:52Z</time>
      </trkpt>
      <trkpt lat="46.445839237421751" lon="11.640746556222439">
        <ele>1960.27</ele>
        <time>2016-03-20T09:29:08Z</time>
      </trkpt>
      <trkpt lat="46.445893803611398" lon="11.640774551779032">
        <ele>1959.78</ele>
        <time>2016-03-20T09:29:13Z</time>
      </trkpt>
      <trkpt lat="46.445927415043116" lon="11.640780670568347">
        <ele>1960.27</ele>
        <time>2016-03-20T09:29:16Z</time>
      </trkpt>
      <trkpt lat="46.44606051966548" lon="11.640689224004745">
        <ele>1960.75</ele>
        <time>2016-03-20T09:29:29Z</time>
      </trkpt>
      <trkpt lat="46.446153474971652" lon="11.640602806583047">
        <ele>1960.27</ele>
        <time>2016-03-20T09:29:38Z</time>
      </trkpt>
      <trkpt lat="46.446269731968641" lon="11.640562573447824">
        <ele>1960.75</ele>
        <time>2016-03-20T09:29:50Z</time>
      </trkpt>
      <trkpt lat="46.446390179917216" lon="11.640505073592067">
        <ele>1960.27</ele>
        <time>2016-03-20T09:30:01Z</time>
      </trkpt>
      <trkpt lat="46.44646461121738" lon="11.640370208770037">
        <ele>1958.3399999999999</ele>
        <time>2016-03-20T09:30:11Z</time>
      </trkpt>
      <trkpt lat="46.446547005325556" lon="11.640269458293915">
        <ele>1956.9000000000001</ele>
        <time>2016-03-20T09:30:22Z</time>
      </trkpt>
      <trkpt lat="46.446641469374299" lon="11.640230901539326">
        <ele>1955.46</ele>
        <time>2016-03-20T09:30:33Z</time>
      </trkpt>
      <trkpt lat="46.446672398597002" lon="11.640204750001431">
        <ele>1954.98</ele>
        <time>2016-03-20T09:30:36Z</time>
      </trkpt>
      <trkpt lat="46.446797288954258" lon="11.640103412792087">
        <ele>1953.0599999999999</ele>
        <time>2016-03-20T09:30:48Z</time>
      </trkpt>
      <trkpt lat="46.44683500751853" lon="11.6400439850986">
        <ele>1952.5699999999999</ele>
        <time>2016-03-20T09:30:59Z</time>
      </trkpt>
      <trkpt lat="46.446876581758261" lon="11.640018755570054">
        <ele>1952.5699999999999</ele>
        <time>2016-03-20T09:31:08Z</time>
      </trkpt>
      <trkpt lat="46.446953611448407" lon="11.639975756406784">
        <ele>1952.0899999999999</ele>
        <time>2016-03-20T09:31:21Z</time>
      </trkpt>
      <trkpt lat="46.447016475722194" lon="11.639959495514631">
        <ele>1952.5699999999999</ele>
        <time>2016-03-20T09:31:30Z</time>
      </trkpt>
      <trkpt lat="46.447007171809673" lon="11.639925129711628">
        <ele>1952.5699999999999</ele>
        <time>2016-03-20T09:31:47Z</time>
      </trkpt>
      <trkpt lat="46.44699040800333" lon="11.639960752800107">
        <ele>1952.5699999999999</ele>
        <time>2016-03-20T09:32:05Z</time>
      </trkpt>
      <trkpt lat="46.447006082162261" lon="11.639946755021811">
        <ele>1952.5699999999999</ele>
        <time>2016-03-20T09:32:24Z</time>
      </trkpt>
      <trkpt lat="46.447005830705166" lon="11.639964943751693">
        <ele>1952.5699999999999</ele>
        <time>2016-03-20T09:32:42Z</time>
      </trkpt>
      <trkpt lat="46.447014799341559" lon="11.639970894902945">
        <ele>1952.5699999999999</ele>
        <time>2016-03-20T09:33:00Z</time>
      </trkpt>
      <trkpt lat="46.44701530225575" lon="11.63998925127089">
        <ele>1952.5699999999999</ele>
        <time>2016-03-20T09:33:09Z</time>
      </trkpt>
      <trkpt lat="46.447065258398652" lon="11.639986904338002">
        <ele>1953.54</ele>
        <time>2016-03-20T09:33:21Z</time>
      </trkpt>
      <trkpt lat="46.447070706635714" lon="11.6400112118572">
        <ele>1953.0599999999999</ele>
        <time>2016-03-20T09:33:25Z</time>
      </trkpt>
      <trkpt lat="46.447056205943227" lon="11.640054630115628">
        <ele>1953.54</ele>
        <time>2016-03-20T09:33:33Z</time>
      </trkpt>
      <trkpt lat="46.447109514847398" lon="11.640087654814124">
        <ele>1953.0599999999999</ele>
        <time>2016-03-20T09:33:44Z</time>
      </trkpt>
      <trkpt lat="46.447098618373275" lon="11.640066532418132">
        <ele>1953.0599999999999</ele>
        <time>2016-03-20T09:33:53Z</time>
      </trkpt>
      <trkpt lat="46.447105407714844" lon="11.64004641585052">
        <ele>1953.0599999999999</ele>
        <time>2016-03-20T09:34:06Z</time>
      </trkpt>
      <trkpt lat="46.4471076708287" lon="11.640094192698598">
        <ele>1953.0599999999999</ele>
        <time>2016-03-20T09:34:24Z</time>
      </trkpt>
      <trkpt lat="46.446966771036386" lon="11.640125205740333">
        <ele>1952.5699999999999</ele>
        <time>2016-03-20T09:34:41Z</time>
      </trkpt>
      <trkpt lat="46.446954449638724" lon="11.640116907656193">
        <ele>1952.5699999999999</ele>
        <time>2016-03-20T09:34:59Z</time>
      </trkpt>
      <trkpt lat="46.447026366367936" lon="11.640107939019799">
        <ele>1952.5699999999999</ele>
        <time>2016-03-20T09:35:20Z</time>
      </trkpt>
      <trkpt lat="46.447041956707835" lon="11.640075752511621">
        <ele>1953.0599999999999</ele>
        <time>2016-03-20T09:35:39Z</time>
      </trkpt>
      <trkpt lat="46.447004657238722" lon="11.640018168836832">
        <ele>1953.0599999999999</ele>
        <time>2016-03-20T09:36:04Z</time>
      </trkpt>
      <trkpt lat="46.446961322799325" lon="11.640000231564045">
        <ele>1953.0599999999999</ele>
        <time>2016-03-20T09:36:25Z</time>
      </trkpt>
      <trkpt lat="46.446930142119527" lon="11.639982545748353">
        <ele>1953.0599999999999</ele>
        <time>2016-03-20T09:36:44Z</time>
      </trkpt>
      <trkpt lat="46.446936847642064" lon="11.639969302341342">
        <ele>1953.54</ele>
        <time>2016-03-20T09:37:07Z</time>
      </trkpt>
      <trkpt lat="46.446969117969275" lon="11.64000391960144">
        <ele>1953.54</ele>
        <time>2016-03-20T09:37:29Z</time>
      </trkpt>
      <trkpt lat="46.446990575641394" lon="11.640018587931991">
        <ele>1953.54</ele>
        <time>2016-03-20T09:37:49Z</time>
      </trkpt>
      <trkpt lat="46.446973895654082" lon="11.639989838004112">
        <ele>1954.02</ele>
        <time>2016-03-20T09:38:16Z</time>
      </trkpt>
      <trkpt lat="46.447011698037386" lon="11.640023868530989">
        <ele>1954.02</ele>
        <time>2016-03-20T09:38:47Z</time>
      </trkpt>
      <trkpt lat="46.447002394124866" lon="11.640011630952358">
        <ele>1954.5</ele>
        <time>2016-03-20T09:39:14Z</time>
      </trkpt>
      <trkpt lat="46.447008680552244" lon="11.639998974278569">
        <ele>1954.98</ele>
        <time>2016-03-20T09:39:37Z</time>
      </trkpt>
      <trkpt lat="46.447024857625365" lon="11.640010876581073">
        <ele>1954.5</ele>
        <time>2016-03-20T09:40:10Z</time>
      </trkpt>
      <trkpt lat="46.447028629481792" lon="11.640012301504612">
        <ele>1954.5</ele>
        <time>2016-03-20T09:40:30Z</time>
      </trkpt>
      <trkpt lat="46.447043381631374" lon="11.640007020905614">
        <ele>1954.98</ele>
        <time>2016-03-20T09:40:52Z</time>
      </trkpt>
      <trkpt lat="46.447041453793645" lon="11.640028478577733">
        <ele>1954.5</ele>
        <time>2016-03-20T09:41:11Z</time>
      </trkpt>
      <trkpt lat="46.447056289762259" lon="11.640092516317964">
        <ele>1953.54</ele>
        <time>2016-03-20T09:41:15Z</time>
      </trkpt>
      <trkpt lat="46.447090320289135" lon="11.640165355056524">
        <ele>1954.02</ele>
        <time>2016-03-20T09:41:18Z</time>
      </trkpt>
      <trkpt lat="46.447111610323191" lon="11.64020374417305">
        <ele>1953.54</ele>
        <time>2016-03-20T09:41:30Z</time>
      </trkpt>
      <trkpt lat="46.447106078267097" lon="11.640216652303934">
        <ele>1954.02</ele>
        <time>2016-03-20T09:41:52Z</time>
      </trkpt>
      <trkpt lat="46.447117226198316" lon="11.640214137732983">
        <ele>1954.02</ele>
        <time>2016-03-20T09:42:16Z</time>
      </trkpt>
      <trkpt lat="46.447095852345228" lon="11.640221932902932">
        <ele>1954.02</ele>
        <time>2016-03-20T09:42:45Z</time>
      </trkpt>
      <trkpt lat="46.447113370522857" lon="11.640225285664201">
        <ele>1954.02</ele>
        <time>2016-03-20T09:43:08Z</time>
      </trkpt>
      <trkpt lat="46.447109933942556" lon="11.640211874619126">
        <ele>1954.02</ele>
        <time>2016-03-20T09:43:34Z</time>
      </trkpt>
      <trkpt lat="46.447109095752239" lon="11.640206258744001">
        <ele>1954.02</ele>
        <time>2016-03-20T09:43:56Z</time>
      </trkpt>
      <trkpt lat="46.447105407714844" lon="11.640222184360027">
        <ele>1954.02</ele>
        <time>2016-03-20T09:44:12Z</time>
      </trkpt>
      <trkpt lat="46.447108760476112" lon="11.640210952609777">
        <ele>1954.02</ele>
        <time>2016-03-20T09:44:27Z</time>
      </trkpt>
      <trkpt lat="46.447114795446396" lon="11.640203576534986">
        <ele>1954.5</ele>
        <time>2016-03-20T09:45:12Z</time>
      </trkpt>
      <trkpt lat="46.447118232026696" lon="11.640207935124636">
        <ele>1954.02</ele>
        <time>2016-03-20T09:45:54Z</time>
      </trkpt>
      <trkpt lat="46.447107000276446" lon="11.640241127461195">
        <ele>1954.5</ele>
        <time>2016-03-20T09:46:26Z</time>
      </trkpt>
      <trkpt lat="46.447088895365596" lon="11.640218580141664">
        <ele>1954.5</ele>
        <time>2016-03-20T09:47:08Z</time>
      </trkpt>
      <trkpt lat="46.447100965306163" lon="11.640218831598759">
        <ele>1954.5</ele>
        <time>2016-03-20T09:47:37Z</time>
      </trkpt>
      <trkpt lat="46.447109347209334" lon="11.640207683667541">
        <ele>1954.5</ele>
        <time>2016-03-20T09:48:09Z</time>
      </trkpt>
      <trkpt lat="46.447107335552573" lon="11.640215395018458">
        <ele>1954.98</ele>
        <time>2016-03-20T09:48:44Z</time>
      </trkpt>
      <trkpt lat="46.447104318067431" lon="11.640207013115287">
        <ele>1954.98</ele>
        <time>2016-03-20T09:49:22Z</time>
      </trkpt>
      <trkpt lat="46.447126865386963" lon="11.640239115804434">
        <ele>1954.98</ele>
        <time>2016-03-20T09:49:55Z</time>
      </trkpt>
      <trkpt lat="46.447120998054743" lon="11.640263926237822">
        <ele>1954.5</ele>
        <time>2016-03-20T09:50:15Z</time>
      </trkpt>
      <trkpt lat="46.447109850123525" lon="11.640256214886904">
        <ele>1954.98</ele>
        <time>2016-03-20T09:50:37Z</time>
      </trkpt>
      <trkpt lat="46.447117142379284" lon="11.640243139117956">
        <ele>1954.98</ele>
        <time>2016-03-20T09:51:03Z</time>
      </trkpt>
      <trkpt lat="46.447106916457415" lon="11.640214892104268">
        <ele>1955.46</ele>
        <time>2016-03-20T09:51:24Z</time>
      </trkpt>
      <trkpt lat="46.447083028033376" lon="11.640152195468545">
        <ele>1955.46</ele>
        <time>2016-03-20T09:51:31Z</time>
      </trkpt>
      <trkpt lat="46.44711697474122" lon="11.640131240710616">
        <ele>1955.46</ele>
        <time>2016-03-20T09:51:45Z</time>
      </trkpt>
      <trkpt lat="46.447153016924858" lon="11.640062928199768">
        <ele>1955.46</ele>
        <time>2016-03-20T09:51:55Z</time>
      </trkpt>
      <trkpt lat="46.447113873437047" lon="11.640068208798766">
        <ele>1955.9400000000001</ele>
        <time>2016-03-20T09:51:57Z</time>
      </trkpt>
      <trkpt lat="46.4470783341676" lon="11.640153368934989">
        <ele>1955.9400000000001</ele>
        <time>2016-03-20T09:52:09Z</time>
      </trkpt>
      <trkpt lat="46.44706416875124" lon="11.640156805515289">
        <ele>1955.9400000000001</ele>
        <time>2016-03-20T09:52:41Z</time>
      </trkpt>
      <trkpt lat="46.447051092982292" lon="11.640156805515289">
        <ele>1956.4200000000001</ele>
        <time>2016-03-20T09:52:54Z</time>
      </trkpt>
      <trkpt lat="46.447046902030706" lon="11.640203492715955">
        <ele>1956.4200000000001</ele>
        <time>2016-03-20T09:53:03Z</time>
      </trkpt>
      <trkpt lat="46.447045058012009" lon="11.64022377692163">
        <ele>1956.9000000000001</ele>
        <time>2016-03-20T09:53:19Z</time>
      </trkpt>
      <trkpt lat="46.447036005556583" lon="11.640223944559693">
        <ele>1956.4200000000001</ele>
        <time>2016-03-20T09:53:31Z</time>
      </trkpt>
      <trkpt lat="46.447027623653412" lon="11.640215143561363">
        <ele>1955.9400000000001</ele>
        <time>2016-03-20T09:53:41Z</time>
      </trkpt>
      <trkpt lat="46.447049751877785" lon="11.64018320851028">
        <ele>1956.9000000000001</ele>
        <time>2016-03-20T09:54:01Z</time>
      </trkpt>
      <trkpt lat="46.447029635310173" lon="11.640230398625135">
        <ele>1957.3800000000001</ele>
        <time>2016-03-20T09:54:15Z</time>
      </trkpt>
      <trkpt lat="46.447045309469104" lon="11.640225201845169">
        <ele>1957.3800000000001</ele>
        <time>2016-03-20T09:54:25Z</time>
      </trkpt>
      <trkpt lat="46.447057714685798" lon="11.640224950388074">
        <ele>1958.8199999999999</ele>
        <time>2016-03-20T09:54:35Z</time>
      </trkpt>
      <trkpt lat="46.447042962536216" lon="11.640217490494251">
        <ele>1957.3800000000001</ele>
        <time>2016-03-20T09:54:56Z</time>
      </trkpt>
      <trkpt lat="46.446993425488472" lon="11.640240624547005">
        <ele>1957.3800000000001</ele>
        <time>2016-03-20T09:55:13Z</time>
      </trkpt>
      <trkpt lat="46.447028713300824" lon="11.640021437779069">
        <ele>1957.8599999999999</ele>
        <time>2016-03-20T09:55:25Z</time>
      </trkpt>
      <trkpt lat="46.447085542604327" lon="11.639921106398106">
        <ele>1957.3800000000001</ele>
        <time>2016-03-20T09:55:41Z</time>
      </trkpt>
      <trkpt lat="46.447107587009668" lon="11.639975672587752">
        <ele>1957.3800000000001</ele>
        <time>2016-03-20T09:55:56Z</time>
      </trkpt>
      <trkpt lat="46.447076490148902" lon="11.640000399202108">
        <ele>1957.3800000000001</ele>
        <time>2016-03-20T09:56:07Z</time>
      </trkpt>
      <trkpt lat="46.447109347209334" lon="11.639949353411794">
        <ele>1957.8599999999999</ele>
        <time>2016-03-20T09:56:17Z</time>
      </trkpt>
      <trkpt lat="46.447115130722523" lon="11.639961674809456">
        <ele>1957.8599999999999</ele>
        <time>2016-03-20T09:56:35Z</time>
      </trkpt>
      <trkpt lat="46.447132816538215" lon="11.639925884082913">
        <ele>1957.8599999999999</ele>
        <time>2016-03-20T09:56:42Z</time>
      </trkpt>
      <trkpt lat="46.447207499295473" lon="11.639883806928992">
        <ele>1959.3</ele>
        <time>2016-03-20T09:56:51Z</time>
      </trkpt>
      <trkpt lat="46.447331048548222" lon="11.639869892969728">
        <ele>1961.23</ele>
        <time>2016-03-20T09:57:04Z</time>
      </trkpt>
      <trkpt lat="46.447406569495797" lon="11.639876514673233">
        <ele>1962.6700000000001</ele>
        <time>2016-03-20T09:57:13Z</time>
      </trkpt>
      <trkpt lat="46.447470020502806" lon="11.639796467497945">
        <ele>1963.6300000000001</ele>
        <time>2016-03-20T09:57:23Z</time>
      </trkpt>
      <trkpt lat="46.447546295821667" lon="11.639681970700622">
        <ele>1965.0699999999999</ele>
        <time>2016-03-20T09:57:35Z</time>
      </trkpt>
      <trkpt lat="46.447564568370581" lon="11.639603348448873">
        <ele>1966.03</ele>
        <time>2016-03-20T09:57:48Z</time>
      </trkpt>
      <trkpt lat="46.447567837312818" lon="11.639637546613812">
        <ele>1966.03</ele>
        <time>2016-03-20T09:58:02Z</time>
      </trkpt>
      <trkpt lat="46.447579655796289" lon="11.63958172313869">
        <ele>1966.03</ele>
        <time>2016-03-20T09:58:14Z</time>
      </trkpt>
      <trkpt lat="46.447594910860062" lon="11.639574430882931">
        <ele>1966.03</ele>
        <time>2016-03-20T09:58:26Z</time>
      </trkpt>
      <trkpt lat="46.447632797062397" lon="11.639566970989108">
        <ele>1966.03</ele>
        <time>2016-03-20T09:58:46Z</time>
      </trkpt>
      <trkpt lat="46.447652662172914" lon="11.639504441991448">
        <ele>1966.99</ele>
        <time>2016-03-20T09:58:56Z</time>
      </trkpt>
      <trkpt lat="46.447630785405636" lon="11.639548279345036">
        <ele>1966.99</ele>
        <time>2016-03-20T09:59:08Z</time>
      </trkpt>
      <trkpt lat="46.447613267228007" lon="11.639553727582097">
        <ele>1966.99</ele>
        <time>2016-03-20T09:59:21Z</time>
      </trkpt>
      <trkpt lat="46.447604298591614" lon="11.639572586864233">
        <ele>1966.99</ele>
        <time>2016-03-20T09:59:40Z</time>
      </trkpt>
      <trkpt lat="46.447602370753884" lon="11.639576861634851">
        <ele>1966.99</ele>
        <time>2016-03-20T09:59:42Z</time>
      </trkpt>
      <trkpt lat="46.447569010779262" lon="11.639612652361393">
        <ele>1966.99</ele>
        <time>2016-03-20T09:59:52Z</time>
      </trkpt>
      <trkpt lat="46.447554090991616" lon="11.639562360942364">
        <ele>1965.55</ele>
        <time>2016-03-20T10:00:00Z</time>
      </trkpt>
      <trkpt lat="46.44754596054554" lon="11.639492120593786">
        <ele>1966.03</ele>
        <time>2016-03-20T10:00:18Z</time>
      </trkpt>
      <trkpt lat="46.447525257244706" lon="11.639461191371083">
        <ele>1966.03</ele>
        <time>2016-03-20T10:00:36Z</time>
      </trkpt>
      <trkpt lat="46.447513438761234" lon="11.639476697891951">
        <ele>1966.03</ele>
        <time>2016-03-20T10:00:46Z</time>
      </trkpt>
      <trkpt lat="46.447507822886109" lon="11.639416012912989">
        <ele>1966.03</ele>
        <time>2016-03-20T10:01:15Z</time>
      </trkpt>
      <trkpt lat="46.447606310248375" lon="11.639543753117323">
        <ele>1966.51</ele>
        <time>2016-03-20T10:01:25Z</time>
      </trkpt>
      <trkpt lat="46.447607567533851" lon="11.639544004574418">
        <ele>1966.99</ele>
        <time>2016-03-20T10:01:37Z</time>
      </trkpt>
      <trkpt lat="46.447609243914485" lon="11.639508213847876">
        <ele>1966.99</ele>
        <time>2016-03-20T10:01:50Z</time>
      </trkpt>
      <trkpt lat="46.447630198672414" lon="11.639497485011816">
        <ele>1966.99</ele>
        <time>2016-03-20T10:01:56Z</time>
      </trkpt>
      <trkpt lat="46.447690716013312" lon="11.63939262740314">
        <ele>1967.96</ele>
        <time>2016-03-20T10:02:06Z</time>
      </trkpt>
      <trkpt lat="46.447710581123829" lon="11.639365553855896">
        <ele>1967.96</ele>
        <time>2016-03-20T10:02:26Z</time>
      </trkpt>
      <trkpt lat="46.447773445397615" lon="11.639240914955735">
        <ele>1969.4000000000001</ele>
        <time>2016-03-20T10:02:37Z</time>
      </trkpt>
      <trkpt lat="46.447831029072404" lon="11.639165645465255">
        <ele>1970.3599999999999</ele>
        <time>2016-03-20T10:02:50Z</time>
      </trkpt>
      <trkpt lat="46.447823904454708" lon="11.639138823375106">
        <ele>1969.8800000000001</ele>
        <time>2016-03-20T10:03:02Z</time>
      </trkpt>
      <trkpt lat="46.447890875861049" lon="11.639048717916012">
        <ele>1971.3199999999999</ele>
        <time>2016-03-20T10:03:15Z</time>
      </trkpt>
      <trkpt lat="46.447953907772899" lon="11.638919804245234">
        <ele>1972.28</ele>
        <time>2016-03-20T10:03:30Z</time>
      </trkpt>
      <trkpt lat="46.448019035160542" lon="11.638793488964438">
        <ele>1973.24</ele>
        <time>2016-03-20T10:03:43Z</time>
      </trkpt>
      <trkpt lat="46.448050467297435" lon="11.638720482587814">
        <ele>1973.72</ele>
        <time>2016-03-20T10:03:50Z</time>
      </trkpt>
      <trkpt lat="46.448128670454025" lon="11.638636579737067">
        <ele>1975.1700000000001</ele>
        <time>2016-03-20T10:04:03Z</time>
      </trkpt>
      <trkpt lat="46.448189942166209" lon="11.638574721291661">
        <ele>1976.6099999999999</ele>
        <time>2016-03-20T10:04:18Z</time>
      </trkpt>
      <trkpt lat="46.448281891644001" lon="11.638515964150429">
        <ele>1978.05</ele>
        <time>2016-03-20T10:04:31Z</time>
      </trkpt>
      <trkpt lat="46.448332350701094" lon="11.638469193130732">
        <ele>1979.01</ele>
        <time>2016-03-20T10:04:43Z</time>
      </trkpt>
      <trkpt lat="46.448396220803261" lon="11.638425355777144">
        <ele>1979.97</ele>
        <time>2016-03-20T10:04:58Z</time>
      </trkpt>
      <trkpt lat="46.448492528870702" lon="11.638386463746428">
        <ele>1980.9300000000001</ele>
        <time>2016-03-20T10:05:17Z</time>
      </trkpt>
      <trkpt lat="46.448580203577876" lon="11.638307338580489">
        <ele>1981.9000000000001</ele>
        <time>2016-03-20T10:05:28Z</time>
      </trkpt>
      <trkpt lat="46.448661843314767" lon="11.638210779055953">
        <ele>1982.8599999999999</ele>
        <time>2016-03-20T10:05:40Z</time>
      </trkpt>
      <trkpt lat="46.448736190795898" lon="11.638144394382834">
        <ele>1984.3</ele>
        <time>2016-03-20T10:05:52Z</time>
      </trkpt>
      <trkpt lat="46.44879293628037" lon="11.638070130720735">
        <ele>1985.26</ele>
        <time>2016-03-20T10:06:03Z</time>
      </trkpt>
      <trkpt lat="46.448869463056326" lon="11.637976672500372">
        <ele>1986.7</ele>
        <time>2016-03-20T10:06:17Z</time>
      </trkpt>
      <trkpt lat="46.448922771960497" lon="11.637927303090692">
        <ele>1988.1400000000001</ele>
        <time>2016-03-20T10:06:27Z</time>
      </trkpt>
      <trkpt lat="46.448971889913082" lon="11.637818841263652">
        <ele>1990.0699999999999</ele>
        <time>2016-03-20T10:06:40Z</time>
      </trkpt>
      <trkpt lat="46.448986642062664" lon="11.637697303667665">
        <ele>1991.99</ele>
        <time>2016-03-20T10:06:54Z</time>
      </trkpt>
      <trkpt lat="46.449003992602229" lon="11.637570569291711">
        <ele>1994.3900000000001</ele>
        <time>2016-03-20T10:07:08Z</time>
      </trkpt>
      <trkpt lat="46.449027545750141" lon="11.637491947039962">
        <ele>1996.3199999999999</ele>
        <time>2016-03-20T10:07:23Z</time>
      </trkpt>
      <trkpt lat="46.449035592377186" lon="11.637484990060329">
        <ele>1996.3199999999999</ele>
        <time>2016-03-20T10:07:37Z</time>
      </trkpt>
      <trkpt lat="46.449036933481693" lon="11.637412738054991">
        <ele>1997.76</ele>
        <time>2016-03-20T10:07:47Z</time>
      </trkpt>
      <trkpt lat="46.448995610699058" lon="11.637276448309422">
        <ele>2000.1600000000001</ele>
        <time>2016-03-20T10:08:02Z</time>
      </trkpt>
      <trkpt lat="46.448934841901064" lon="11.637205788865685">
        <ele>2002.0799999999999</ele>
        <time>2016-03-20T10:08:16Z</time>
      </trkpt>
      <trkpt lat="46.44891707226634" lon="11.637080227956176">
        <ele>2003.52</ele>
        <time>2016-03-20T10:08:28Z</time>
      </trkpt>
      <trkpt lat="46.448963340371847" lon="11.63706480525434">
        <ele>2004.01</ele>
        <time>2016-03-20T10:08:39Z</time>
      </trkpt>
      <trkpt lat="46.449042297899723" lon="11.637083496898413">
        <ele>2004.97</ele>
        <time>2016-03-20T10:08:51Z</time>
      </trkpt>
      <trkpt lat="46.449110694229603" lon="11.63707947358489">
        <ele>2005.9300000000001</ele>
        <time>2016-03-20T10:08:59Z</time>
      </trkpt>
      <trkpt lat="46.449187556281686" lon="11.637082658708096">
        <ele>2007.3699999999999</ele>
        <time>2016-03-20T10:09:09Z</time>
      </trkpt>
      <trkpt lat="46.449216054752469" lon="11.637092716991901">
        <ele>2007.3699999999999</ele>
        <time>2016-03-20T10:09:12Z</time>
      </trkpt>
      <trkpt lat="46.449301885440946" lon="11.637180307880044">
        <ele>2008.8099999999999</ele>
        <time>2016-03-20T10:09:24Z</time>
      </trkpt>
      <trkpt lat="46.449307501316071" lon="11.637227581813931">
        <ele>2009.77</ele>
        <time>2016-03-20T10:09:28Z</time>
      </trkpt>
      <trkpt lat="46.449322002008557" lon="11.637369655072689">
        <ele>2011.7</ele>
        <time>2016-03-20T10:09:40Z</time>
      </trkpt>
      <trkpt lat="46.449333066120744" lon="11.637444505468011">
        <ele>2013.6199999999999</ele>
        <time>2016-03-20T10:09:53Z</time>
      </trkpt>
      <trkpt lat="46.449375227093697" lon="11.637485073879361">
        <ele>2015.0599999999999</ele>
        <time>2016-03-20T10:10:05Z</time>
      </trkpt>
      <trkpt lat="46.449414035305381" lon="11.637380970641971">
        <ele>2016.98</ele>
        <time>2016-03-20T10:10:18Z</time>
      </trkpt>
      <trkpt lat="46.4494613930583" lon="11.637319615110755">
        <ele>2018.9100000000001</ele>
        <time>2016-03-20T10:10:33Z</time>
      </trkpt>
      <trkpt lat="46.449514031410217" lon="11.637301342561841">
        <ele>2021.79</ele>
        <time>2016-03-20T10:10:44Z</time>
      </trkpt>
      <trkpt lat="46.449571950361133" lon="11.637255577370524">
        <ele>2022.27</ele>
        <time>2016-03-20T10:10:54Z</time>
      </trkpt>
      <trkpt lat="46.449633808806539" lon="11.637258427217603">
        <ele>2023.23</ele>
        <time>2016-03-20T10:11:05Z</time>
      </trkpt>
      <trkpt lat="46.449684100225568" lon="11.637233113870025">
        <ele>2025.1500000000001</ele>
        <time>2016-03-20T10:11:19Z</time>
      </trkpt>
      <trkpt lat="46.449741432443261" lon="11.637172177433968">
        <ele>2026.5999999999999</ele>
        <time>2016-03-20T10:11:31Z</time>
      </trkpt>
      <trkpt lat="46.449827933683991" lon="11.637096321210265">
        <ele>2028.52</ele>
        <time>2016-03-20T10:11:45Z</time>
      </trkpt>
      <trkpt lat="46.449928181245923" lon="11.637038234621286">
        <ele>2030.9200000000001</ele>
        <time>2016-03-20T10:12:01Z</time>
      </trkpt>
      <trkpt lat="46.450002864003181" lon="11.637010490521789">
        <ele>2031.4000000000001</ele>
        <time>2016-03-20T10:12:13Z</time>
      </trkpt>
      <trkpt lat="46.45008148625493" lon="11.636995822191238">
        <ele>2032.3599999999999</ele>
        <time>2016-03-20T10:12:26Z</time>
      </trkpt>
      <trkpt lat="46.45019480958581" lon="11.636963048949838">
        <ele>2032.3599999999999</ele>
        <time>2016-03-20T10:12:39Z</time>
      </trkpt>
      <trkpt lat="46.450262200087309" lon="11.636931616812944">
        <ele>2032.3599999999999</ele>
        <time>2016-03-20T10:12:49Z</time>
      </trkpt>
      <trkpt lat="46.450362280011177" lon="11.636898759752512">
        <ele>2032.8399999999999</ele>
        <time>2016-03-20T10:13:02Z</time>
      </trkpt>
      <trkpt lat="46.45045624114573" lon="11.636845115572214">
        <ele>2032.3599999999999</ele>
        <time>2016-03-20T10:13:14Z</time>
      </trkpt>
      <trkpt lat="46.450572665780783" lon="11.636772863566875">
        <ele>2032.3599999999999</ele>
        <time>2016-03-20T10:13:28Z</time>
      </trkpt>
      <trkpt lat="46.450588759034872" lon="11.63676674477756">
        <ele>2035.73</ele>
        <time>2016-03-20T10:13:30Z</time>
      </trkpt>
      <trkpt lat="46.450597057119012" lon="11.636762302368879">
        <ele>2035.73</ele>
        <time>2016-03-20T10:13:31Z</time>
      </trkpt>
      <trkpt lat="46.450689090415835" lon="11.636721566319466">
        <ele>2037.1700000000001</ele>
        <time>2016-03-20T10:13:42Z</time>
      </trkpt>
      <trkpt lat="46.450779782608151" lon="11.63662014529109">
        <ele>2038.1300000000001</ele>
        <time>2016-03-20T10:13:55Z</time>
      </trkpt>
      <trkpt lat="46.450863098725677" lon="11.636472959071398">
        <ele>2039.5699999999999</ele>
        <time>2016-03-20T10:14:09Z</time>
      </trkpt>
      <trkpt lat="46.450960747897625" lon="11.636458206921816">
        <ele>2040.54</ele>
        <time>2016-03-20T10:14:21Z</time>
      </trkpt>
      <trkpt lat="46.450967285782099" lon="11.63645158521831">
        <ele>2040.54</ele>
        <time>2016-03-20T10:14:22Z</time>
      </trkpt>
      <trkpt lat="46.451078010722995" lon="11.636381763964891">
        <ele>2040.54</ele>
        <time>2016-03-20T10:14:36Z</time>
      </trkpt>
      <trkpt lat="46.451191753149033" lon="11.636259304359555">
        <ele>2040.54</ele>
        <time>2016-03-20T10:14:51Z</time>
      </trkpt>
      <trkpt lat="46.451248666271567" lon="11.636246480047703">
        <ele>2040.54</ele>
        <time>2016-03-20T10:15:02Z</time>
      </trkpt>
      <trkpt lat="46.451347237452865" lon="11.636169282719493">
        <ele>2041.5</ele>
        <time>2016-03-20T10:15:14Z</time>
      </trkpt>
      <trkpt lat="46.451434660702944" lon="11.636148998513818">
        <ele>2041.98</ele>
        <time>2016-03-20T10:15:24Z</time>
      </trkpt>
      <trkpt lat="46.451523676514626" lon="11.636112621054053">
        <ele>2041.98</ele>
        <time>2016-03-20T10:15:35Z</time>
      </trkpt>
      <trkpt lat="46.451604226604104" lon="11.636008182540536">
        <ele>2042.9400000000001</ele>
        <time>2016-03-20T10:15:47Z</time>
      </trkpt>
      <trkpt lat="46.451683267951012" lon="11.635916903614998">
        <ele>2043.9000000000001</ele>
        <time>2016-03-20T10:15:59Z</time>
      </trkpt>
      <trkpt lat="46.451710592955351" lon="11.635885220021009">
        <ele>2043.9000000000001</ele>
        <time>2016-03-20T10:16:03Z</time>
      </trkpt>
      <trkpt lat="46.451811343431473" lon="11.63576066493988">
        <ele>2045.3399999999999</ele>
        <time>2016-03-20T10:16:18Z</time>
      </trkpt>
      <trkpt lat="46.451892731711268" lon="11.6356819588691">
        <ele>2046.78</ele>
        <time>2016-03-20T10:16:30Z</time>
      </trkpt>
      <trkpt lat="46.451960625126958" lon="11.635597385466099">
        <ele>2047.75</ele>
        <time>2016-03-20T10:16:42Z</time>
      </trkpt>
      <trkpt lat="46.451972611248493" lon="11.635567294433713">
        <ele>2047.75</ele>
        <time>2016-03-20T10:16:58Z</time>
      </trkpt>
      <trkpt lat="46.451986525207758" lon="11.635556062683463">
        <ele>2047.75</ele>
        <time>2016-03-20T10:17:16Z</time>
      </trkpt>
      <trkpt lat="46.45202080719173" lon="11.635520188137889">
        <ele>2048.71</ele>
        <time>2016-03-20T10:17:28Z</time>
      </trkpt>
      <trkpt lat="46.452072355896235" lon="11.635425472632051">
        <ele>2049.6700000000001</ele>
        <time>2016-03-20T10:17:39Z</time>
      </trkpt>
      <trkpt lat="46.452146703377366" lon="11.635294212028384">
        <ele>2050.1500000000001</ele>
        <time>2016-03-20T10:17:54Z</time>
      </trkpt>
      <trkpt lat="46.452227337285876" lon="11.635208129882813">
        <ele>2051.5900000000001</ele>
        <time>2016-03-20T10:18:04Z</time>
      </trkpt>
      <trkpt lat="46.452274024486542" lon="11.635161694139242">
        <ele>2051.5900000000001</ele>
        <time>2016-03-20T10:18:10Z</time>
      </trkpt>
      <trkpt lat="46.452366979792714" lon="11.635054405778646">
        <ele>2052.5500000000002</ele>
        <time>2016-03-20T10:18:23Z</time>
      </trkpt>
      <trkpt lat="46.452427580952644" lon="11.634960863739252">
        <ele>2053.9899999999998</ele>
        <time>2016-03-20T10:18:34Z</time>
      </trkpt>
      <trkpt lat="46.452467814087868" lon="11.634852821007371">
        <ele>2054.96</ele>
        <time>2016-03-20T10:18:44Z</time>
      </trkpt>
      <trkpt lat="46.452538389712572" lon="11.63473061285913">
        <ele>2056.4000000000001</ele>
        <time>2016-03-20T10:18:58Z</time>
      </trkpt>
      <trkpt lat="46.452580550685525" lon="11.634656433016062">
        <ele>2057.3600000000001</ele>
        <time>2016-03-20T10:19:07Z</time>
      </trkpt>
      <trkpt lat="46.45263260230422" lon="11.634530536830425">
        <ele>2058.8000000000002</ele>
        <time>2016-03-20T10:19:21Z</time>
      </trkpt>
      <trkpt lat="46.452725809067488" lon="11.634421404451132">
        <ele>2060.2399999999998</ele>
        <time>2016-03-20T10:19:37Z</time>
      </trkpt>
      <trkpt lat="46.452807281166315" lon="11.634362982586026">
        <ele>2060.7199999999998</ele>
        <time>2016-03-20T10:19:48Z</time>
      </trkpt>
      <trkpt lat="46.452868217602372" lon="11.634312942624092">
        <ele>2062.1700000000001</ele>
        <time>2016-03-20T10:19:59Z</time>
      </trkpt>
      <trkpt lat="46.45291406661272" lon="11.634270865470171">
        <ele>2063.6100000000001</ele>
        <time>2016-03-20T10:20:10Z</time>
      </trkpt>
      <trkpt lat="46.453022779896855" lon="11.634210096672177">
        <ele>2064.0900000000001</ele>
        <time>2016-03-20T10:20:24Z</time>
      </trkpt>
      <trkpt lat="46.453095115721226" lon="11.634202469140291">
        <ele>2064.5700000000002</ele>
        <time>2016-03-20T10:20:35Z</time>
      </trkpt>
      <trkpt lat="46.45318865776062" lon="11.634127367287874">
        <ele>2066.0100000000002</ele>
        <time>2016-03-20T10:20:49Z</time>
      </trkpt>
      <trkpt lat="46.453213300555944" lon="11.634058132767677">
        <ele>2067.4499999999998</ele>
        <time>2016-03-20T10:21:01Z</time>
      </trkpt>
      <trkpt lat="46.45322872325778" lon="11.634075148031116">
        <ele>2066.9699999999998</ele>
        <time>2016-03-20T10:21:14Z</time>
      </trkpt>
      <trkpt lat="46.453267112374306" lon="11.634067520499229">
        <ele>2066.9699999999998</ele>
        <time>2016-03-20T10:21:26Z</time>
      </trkpt>
      <trkpt lat="46.453253030776978" lon="11.63402259349823">
        <ele>2067.4499999999998</ele>
        <time>2016-03-20T10:21:39Z</time>
      </trkpt>
      <trkpt lat="46.453287648037076" lon="11.634029466658831">
        <ele>2067.9299999999998</ele>
        <time>2016-03-20T10:21:53Z</time>
      </trkpt>
      <trkpt lat="46.453354619443417" lon="11.63399082608521">
        <ele>2069.3800000000001</ele>
        <time>2016-03-20T10:22:03Z</time>
      </trkpt>
      <trkpt lat="46.453436678275466" lon="11.633909856900573">
        <ele>2070.8200000000002</ele>
        <time>2016-03-20T10:22:17Z</time>
      </trkpt>
      <trkpt lat="46.453549498692155" lon="11.633861493319273">
        <ele>2072.2600000000002</ele>
        <time>2016-03-20T10:22:32Z</time>
      </trkpt>
      <trkpt lat="46.453637424856424" lon="11.633844058960676">
        <ele>2073.2199999999998</ele>
        <time>2016-03-20T10:22:44Z</time>
      </trkpt>
      <trkpt lat="46.453705569729209" lon="11.633812207728624">
        <ele>2074.1799999999998</ele>
        <time>2016-03-20T10:22:56Z</time>
      </trkpt>
      <trkpt lat="46.453723339363933" lon="11.633808268234134">
        <ele>2074.6599999999999</ele>
        <time>2016-03-20T10:22:58Z</time>
      </trkpt>
      <trkpt lat="46.453812522813678" lon="11.633795024827123">
        <ele>2075.6199999999999</ele>
        <time>2016-03-20T10:23:11Z</time>
      </trkpt>
      <trkpt lat="46.45382534712553" lon="11.633815057575703">
        <ele>2075.6199999999999</ele>
        <time>2016-03-20T10:23:28Z</time>
      </trkpt>
      <trkpt lat="46.453866250813007" lon="11.633828217163682">
        <ele>2075.6199999999999</ele>
        <time>2016-03-20T10:23:53Z</time>
      </trkpt>
      <trkpt lat="46.453862227499485" lon="11.633771220222116">
        <ele>2075.6199999999999</ele>
        <time>2016-03-20T10:24:16Z</time>
      </trkpt>
      <trkpt lat="46.453919811174273" lon="11.633810950443149">
        <ele>2076.5900000000001</ele>
        <time>2016-03-20T10:24:28Z</time>
      </trkpt>
      <trkpt lat="46.453959457576275" lon="11.633777003735304">
        <ele>2076.5900000000001</ele>
        <time>2016-03-20T10:24:43Z</time>
      </trkpt>
      <trkpt lat="46.453939089551568" lon="11.633756635710597">
        <ele>2076.5900000000001</ele>
        <time>2016-03-20T10:24:59Z</time>
      </trkpt>
      <trkpt lat="46.453986950218678" lon="11.633744733408093">
        <ele>2077.5500000000002</ele>
        <time>2016-03-20T10:25:09Z</time>
      </trkpt>
      <trkpt lat="46.454081414267421" lon="11.633734591305256">
        <ele>2079.4699999999998</ele>
        <time>2016-03-20T10:25:22Z</time>
      </trkpt>
      <trkpt lat="46.454167831689119" lon="11.633703829720616">
        <ele>2080.9099999999999</ele>
        <time>2016-03-20T10:25:34Z</time>
      </trkpt>
      <trkpt lat="46.454223319888115" lon="11.633695531636477">
        <ele>2081.3899999999999</ele>
        <time>2016-03-20T10:25:45Z</time>
      </trkpt>
      <trkpt lat="46.454288028180599" lon="11.633750516921282">
        <ele>2082.3499999999999</ele>
        <time>2016-03-20T10:25:54Z</time>
      </trkpt>
      <trkpt lat="46.454388275742531" lon="11.633743559941649">
        <ele>2083.79</ele>
        <time>2016-03-20T10:26:06Z</time>
      </trkpt>
      <trkpt lat="46.454483158886433" lon="11.633733417838812">
        <ele>2084.7600000000002</ele>
        <time>2016-03-20T10:26:18Z</time>
      </trkpt>
      <trkpt lat="46.454603271558881" lon="11.633680025115609">
        <ele>2087.1599999999999</ele>
        <time>2016-03-20T10:26:34Z</time>
      </trkpt>
      <trkpt lat="46.454623974859715" lon="11.633672481402755">
        <ele>2087.1599999999999</ele>
        <time>2016-03-20T10:26:36Z</time>
      </trkpt>
      <trkpt lat="46.454763365909457" lon="11.633631996810436">
        <ele>2088.5999999999999</ele>
        <time>2016-03-20T10:26:51Z</time>
      </trkpt>
      <trkpt lat="46.454863781109452" lon="11.633628392592072">
        <ele>2090.04</ele>
        <time>2016-03-20T10:27:03Z</time>
      </trkpt>
      <trkpt lat="46.454958496615291" lon="11.633637780323625">
        <ele>2091</ele>
        <time>2016-03-20T10:27:15Z</time>
      </trkpt>
      <trkpt lat="46.455035693943501" lon="11.633636020123959">
        <ele>2091.9699999999998</ele>
        <time>2016-03-20T10:27:26Z</time>
      </trkpt>
      <trkpt lat="46.455117417499423" lon="11.633610622957349">
        <ele>2093.8899999999999</ele>
        <time>2016-03-20T10:27:37Z</time>
      </trkpt>
      <trkpt lat="46.455205846577883" lon="11.633565528318286">
        <ele>2095.3299999999999</ele>
        <time>2016-03-20T10:27:51Z</time>
      </trkpt>
      <trkpt lat="46.455261670053005" lon="11.633549686521292">
        <ele>2097.25</ele>
        <time>2016-03-20T10:28:01Z</time>
      </trkpt>
      <trkpt lat="46.455340124666691" lon="11.633543064817786">
        <ele>2098.6999999999998</ele>
        <time>2016-03-20T10:28:14Z</time>
      </trkpt>
      <trkpt lat="46.4554138854146" lon="11.63350073620677">
        <ele>2100.1399999999999</ele>
        <time>2016-03-20T10:28:26Z</time>
      </trkpt>
      <trkpt lat="46.455501560121775" lon="11.633461257442832">
        <ele>2101.5799999999999</ele>
        <time>2016-03-20T10:28:38Z</time>
      </trkpt>
      <trkpt lat="46.455591414123774" lon="11.633445164188743">
        <ele>2103.5</ele>
        <time>2016-03-20T10:28:52Z</time>
      </trkpt>
      <trkpt lat="46.455682190135121" lon="11.633375007659197">
        <ele>2104.9400000000001</ele>
        <time>2016-03-20T10:29:04Z</time>
      </trkpt>
      <trkpt lat="46.455739689990878" lon="11.633320692926645">
        <ele>2106.3899999999999</ele>
        <time>2016-03-20T10:29:15Z</time>
      </trkpt>
      <trkpt lat="46.455827280879021" lon="11.633306946605444">
        <ele>2108.3099999999999</ele>
        <time>2016-03-20T10:29:28Z</time>
      </trkpt>
      <trkpt lat="46.455886540934443" lon="11.633315999060869">
        <ele>2109.75</ele>
        <time>2016-03-20T10:29:38Z</time>
      </trkpt>
      <trkpt lat="46.455934066325426" lon="11.633241232484579">
        <ele>2111.1900000000001</ele>
        <time>2016-03-20T10:29:51Z</time>
      </trkpt>
      <trkpt lat="46.455973461270332" lon="11.633194126188755">
        <ele>2112.6300000000001</ele>
        <time>2016-03-20T10:30:01Z</time>
      </trkpt>
      <trkpt lat="46.45601780153811" lon="11.633152216672897">
        <ele>2114.0799999999999</ele>
        <time>2016-03-20T10:30:13Z</time>
      </trkpt>
      <trkpt lat="46.456081671640277" lon="11.633118102326989">
        <ele>2115.52</ele>
        <time>2016-03-20T10:30:25Z</time>
      </trkpt>
      <trkpt lat="46.456125341355801" lon="11.633060434833169">
        <ele>2117.4400000000001</ele>
        <time>2016-03-20T10:30:37Z</time>
      </trkpt>
      <trkpt lat="46.456156941130757" lon="11.63298424333334">
        <ele>2119.3600000000001</ele>
        <time>2016-03-20T10:30:50Z</time>
      </trkpt>
      <trkpt lat="46.456193821504712" lon="11.632900089025497">
        <ele>2121.29</ele>
        <time>2016-03-20T10:31:04Z</time>
      </trkpt>
      <trkpt lat="46.456232210621238" lon="11.632824903354049">
        <ele>2122.73</ele>
        <time>2016-03-20T10:31:16Z</time>
      </trkpt>
      <trkpt lat="46.456245118752122" lon="11.632838230580091">
        <ele>2123.21</ele>
        <time>2016-03-20T10:31:30Z</time>
      </trkpt>
      <trkpt lat="46.456280825659633" lon="11.632848456501961">
        <ele>2123.21</ele>
        <time>2016-03-20T10:31:48Z</time>
      </trkpt>
      <trkpt lat="46.456312593072653" lon="11.632768744602799">
        <ele>2124.1700000000001</ele>
        <time>2016-03-20T10:32:02Z</time>
      </trkpt>
      <trkpt lat="46.45637009292841" lon="11.632670508697629">
        <ele>2126.0900000000001</ele>
        <time>2016-03-20T10:32:14Z</time>
      </trkpt>
      <trkpt lat="46.456404877826571" lon="11.632568584755063">
        <ele>2128.5</ele>
        <time>2016-03-20T10:32:26Z</time>
      </trkpt>
      <trkpt lat="46.456407308578491" lon="11.632416872307658">
        <ele>2130.9000000000001</ele>
        <time>2016-03-20T10:32:40Z</time>
      </trkpt>
      <trkpt lat="46.456406386569142" lon="11.632283516228199">
        <ele>2132.8200000000002</ele>
        <time>2016-03-20T10:32:54Z</time>
      </trkpt>
      <trkpt lat="46.456432957202196" lon="11.632251916453242">
        <ele>2135.23</ele>
        <time>2016-03-20T10:32:58Z</time>
      </trkpt>
      <trkpt lat="46.456457683816552" lon="11.632219227030873">
        <ele>2135.23</ele>
        <time>2016-03-20T10:33:10Z</time>
      </trkpt>
      <trkpt lat="46.456527588889003" lon="11.632142784073949">
        <ele>2136.6700000000001</ele>
        <time>2016-03-20T10:33:20Z</time>
      </trkpt>
      <trkpt lat="46.456529349088669" lon="11.632123421877623">
        <ele>2138.1100000000001</ele>
        <time>2016-03-20T10:33:29Z</time>
      </trkpt>
      <trkpt lat="46.456515770405531" lon="11.632107496261597">
        <ele>2139.5500000000002</ele>
        <time>2016-03-20T10:33:40Z</time>
      </trkpt>
      <trkpt lat="46.456512585282326" lon="11.632043374702334">
        <ele>2141.4699999999998</ele>
        <time>2016-03-20T10:33:50Z</time>
      </trkpt>
      <trkpt lat="46.456573354080319" lon="11.631965339183807">
        <ele>2143.4000000000001</ele>
        <time>2016-03-20T10:34:01Z</time>
      </trkpt>
      <trkpt lat="46.456625992432237" lon="11.631906749680638">
        <ele>2144.8400000000001</ele>
        <time>2016-03-20T10:34:11Z</time>
      </trkpt>
      <trkpt lat="46.456716097891331" lon="11.631843382492661">
        <ele>2145.3200000000002</ele>
        <time>2016-03-20T10:34:21Z</time>
      </trkpt>
      <trkpt lat="46.456773765385151" lon="11.631760569289327">
        <ele>2147.2399999999998</ele>
        <time>2016-03-20T10:34:36Z</time>
      </trkpt>
      <trkpt lat="46.456796480342746" lon="11.63173827342689">
        <ele>2147.7199999999998</ele>
        <time>2016-03-20T10:34:38Z</time>
      </trkpt>
      <trkpt lat="46.456876443699002" lon="11.631656466051936">
        <ele>2150.1300000000001</ele>
        <time>2016-03-20T10:34:51Z</time>
      </trkpt>
      <trkpt lat="46.456912150606513" lon="11.631596032530069">
        <ele>2152.0500000000002</ele>
        <time>2016-03-20T10:34:59Z</time>
      </trkpt>
      <trkpt lat="46.45692078396678" lon="11.631523529067636">
        <ele>2153.0100000000002</ele>
        <time>2016-03-20T10:35:12Z</time>
      </trkpt>
      <trkpt lat="46.456889351829886" lon="11.631489582359791">
        <ele>2155.4099999999999</ele>
        <time>2016-03-20T10:35:23Z</time>
      </trkpt>
      <trkpt lat="46.456919861957431" lon="11.631469717249274">
        <ele>2155.4099999999999</ele>
        <time>2016-03-20T10:35:31Z</time>
      </trkpt>
      <trkpt lat="46.456918520852923" lon="11.6314338427037">
        <ele>2156.8600000000001</ele>
        <time>2016-03-20T10:35:46Z</time>
      </trkpt>
      <trkpt lat="46.456892285495996" lon="11.631394783034921">
        <ele>2158.3000000000002</ele>
        <time>2016-03-20T10:35:55Z</time>
      </trkpt>
      <trkpt lat="46.456871163100004" lon="11.631377600133419">
        <ele>2159.2600000000002</ele>
        <time>2016-03-20T10:36:06Z</time>
      </trkpt>
      <trkpt lat="46.456817854195833" lon="11.631335020065308">
        <ele>2160.6999999999998</ele>
        <time>2016-03-20T10:36:15Z</time>
      </trkpt>
      <trkpt lat="46.456819698214531" lon="11.63127257488668">
        <ele>2162.6199999999999</ele>
        <time>2016-03-20T10:36:25Z</time>
      </trkpt>
      <trkpt lat="46.456831600517035" lon="11.631216919049621">
        <ele>2164.0599999999999</ele>
        <time>2016-03-20T10:36:33Z</time>
      </trkpt>
      <trkpt lat="46.456900667399168" lon="11.63117777556181">
        <ele>2165.5100000000002</ele>
        <time>2016-03-20T10:36:44Z</time>
      </trkpt>
      <trkpt lat="46.456950372084975" lon="11.631147935986519">
        <ele>2165.5100000000002</ele>
        <time>2016-03-20T10:36:47Z</time>
      </trkpt>
      <trkpt lat="46.457039387896657" lon="11.631080377846956">
        <ele>2167.9099999999999</ele>
        <time>2016-03-20T10:36:58Z</time>
      </trkpt>
      <trkpt lat="46.457020863890648" lon="11.6310781147331">
        <ele>2169.3499999999999</ele>
        <time>2016-03-20T10:37:00Z</time>
      </trkpt>
      <trkpt lat="46.456943834200501" lon="11.631058668717742">
        <ele>2169.8299999999999</ele>
        <time>2016-03-20T10:37:11Z</time>
      </trkpt>
      <trkpt lat="46.456883987411857" lon="11.631118599325418">
        <ele>2170.3099999999999</ele>
        <time>2016-03-20T10:37:24Z</time>
      </trkpt>
      <trkpt lat="46.456788517534733" lon="11.631210800260305">
        <ele>2170.79</ele>
        <time>2016-03-20T10:37:38Z</time>
      </trkpt>
      <trkpt lat="46.456890860572457" lon="11.63112354464829">
        <ele>2170.3099999999999</ele>
        <time>2016-03-20T10:37:49Z</time>
      </trkpt>
      <trkpt lat="46.456741327419877" lon="11.631227731704712">
        <ele>2170.3099999999999</ele>
        <time>2016-03-20T10:38:04Z</time>
      </trkpt>
      <trkpt lat="46.457007117569447" lon="11.631077025085688">
        <ele>2170.3099999999999</ele>
        <time>2016-03-20T10:38:23Z</time>
      </trkpt>
      <trkpt lat="46.457039220258594" lon="11.630993457511067">
        <ele>2172.2399999999998</ele>
        <time>2016-03-20T10:38:33Z</time>
      </trkpt>
      <trkpt lat="46.457049446180463" lon="11.630948027595878">
        <ele>2174.1599999999999</ele>
        <time>2016-03-20T10:38:45Z</time>
      </trkpt>
      <trkpt lat="46.457087751477957" lon="11.630884492769837">
        <ele>2176.5599999999999</ele>
        <time>2016-03-20T10:38:57Z</time>
      </trkpt>
      <trkpt lat="46.457102755084634" lon="11.630847193300724">
        <ele>2178</ele>
        <time>2016-03-20T10:39:09Z</time>
      </trkpt>
      <trkpt lat="46.457133516669273" lon="11.630797740072012">
        <ele>2179.9299999999998</ele>
        <time>2016-03-20T10:39:21Z</time>
      </trkpt>
      <trkpt lat="46.457191351801157" lon="11.630783993750811">
        <ele>2181.3699999999999</ele>
        <time>2016-03-20T10:39:30Z</time>
      </trkpt>
      <trkpt lat="46.457209959626198" lon="11.630847863852978">
        <ele>2181.3699999999999</ele>
        <time>2016-03-20T10:39:39Z</time>
      </trkpt>
      <trkpt lat="46.457222616299987" lon="11.630850378423929">
        <ele>2181.3699999999999</ele>
        <time>2016-03-20T10:39:51Z</time>
      </trkpt>
      <trkpt lat="46.457246756181121" lon="11.630896897986531">
        <ele>2183.29</ele>
        <time>2016-03-20T10:40:00Z</time>
      </trkpt>
      <trkpt lat="46.457269052043557" lon="11.631022207438946">
        <ele>2185.21</ele>
        <time>2016-03-20T10:40:13Z</time>
      </trkpt>
      <trkpt lat="46.45727408118546" lon="11.631083814427257">
        <ele>2187.1399999999999</ele>
        <time>2016-03-20T10:40:26Z</time>
      </trkpt>
      <trkpt lat="46.457321774214506" lon="11.631145086139441">
        <ele>2189.0599999999999</ele>
        <time>2016-03-20T10:40:40Z</time>
      </trkpt>
      <trkpt lat="46.457305261865258" lon="11.631146930158138">
        <ele>2189.0599999999999</ele>
        <time>2016-03-20T10:40:45Z</time>
      </trkpt>
      <trkpt lat="46.457392182201147" lon="11.631160508841276">
        <ele>2190.02</ele>
        <time>2016-03-20T10:40:57Z</time>
      </trkpt>
      <trkpt lat="46.457453034818172" lon="11.631165035068989">
        <ele>2191.46</ele>
        <time>2016-03-20T10:41:09Z</time>
      </trkpt>
      <trkpt lat="46.457479940727353" lon="11.631125304847956">
        <ele>2192.4200000000001</ele>
        <time>2016-03-20T10:41:25Z</time>
      </trkpt>
      <trkpt lat="46.45750910975039" lon="11.631086245179176">
        <ele>2193.8699999999999</ele>
        <time>2016-03-20T10:41:34Z</time>
      </trkpt>
      <trkpt lat="46.457568285986781" lon="11.63107224740088">
        <ele>2196.27</ele>
        <time>2016-03-20T10:41:46Z</time>
      </trkpt>
      <trkpt lat="46.457658056169748" lon="11.631100242957473">
        <ele>2197.71</ele>
        <time>2016-03-20T10:41:56Z</time>
      </trkpt>
      <trkpt lat="46.457706335932016" lon="11.631134357303381">
        <ele>2199.1500000000001</ele>
        <time>2016-03-20T10:42:07Z</time>
      </trkpt>
      <trkpt lat="46.457779007032514" lon="11.631190348416567">
        <ele>2201.5599999999999</ele>
        <time>2016-03-20T10:42:20Z</time>
      </trkpt>
      <trkpt lat="46.457901634275913" lon="11.631183978170156">
        <ele>2203.96</ele>
        <time>2016-03-20T10:42:33Z</time>
      </trkpt>
      <trkpt lat="46.457968102768064" lon="11.631217673420906">
        <ele>2204.4400000000001</ele>
        <time>2016-03-20T10:42:44Z</time>
      </trkpt>
      <trkpt lat="46.457992997020483" lon="11.631252374500036">
        <ele>2206.3600000000001</ele>
        <time>2016-03-20T10:42:53Z</time>
      </trkpt>
      <trkpt lat="46.457919152453542" lon="11.631318842992187">
        <ele>2207.8099999999999</ele>
        <time>2016-03-20T10:43:02Z</time>
      </trkpt>
      <trkpt lat="46.457944130524993" lon="11.63134541362524">
        <ele>2207.8099999999999</ele>
        <time>2016-03-20T10:43:14Z</time>
      </trkpt>
      <trkpt lat="46.458006659522653" lon="11.631390089169145">
        <ele>2209.73</ele>
        <time>2016-03-20T10:43:24Z</time>
      </trkpt>
      <trkpt lat="46.458053262904286" lon="11.631486061960459">
        <ele>2211.6500000000001</ele>
        <time>2016-03-20T10:43:36Z</time>
      </trkpt>
      <trkpt lat="46.458060722798109" lon="11.631585974246264">
        <ele>2213.0900000000001</ele>
        <time>2016-03-20T10:43:47Z</time>
      </trkpt>
      <trkpt lat="46.458061393350363" lon="11.631664512678981">
        <ele>2214.5300000000002</ele>
        <time>2016-03-20T10:43:57Z</time>
      </trkpt>
      <trkpt lat="46.458038091659546" lon="11.631765933707356">
        <ele>2216.46</ele>
        <time>2016-03-20T10:44:08Z</time>
      </trkpt>
      <trkpt lat="46.458073714748025" lon="11.63182963617146">
        <ele>2217.9000000000001</ele>
        <time>2016-03-20T10:44:21Z</time>
      </trkpt>
      <trkpt lat="46.458121491596103" lon="11.63181739859283">
        <ele>2219.8200000000002</ele>
        <time>2016-03-20T10:44:34Z</time>
      </trkpt>
      <trkpt lat="46.458187960088253" lon="11.631758892908692">
        <ele>2221.7399999999998</ele>
        <time>2016-03-20T10:44:48Z</time>
      </trkpt>
      <trkpt lat="46.458246046677232" lon="11.631722515448928">
        <ele>2224.1500000000001</ele>
        <time>2016-03-20T10:45:01Z</time>
      </trkpt>
      <trkpt lat="46.45831536501646" lon="11.631718575954437">
        <ele>2226.0700000000002</ele>
        <time>2016-03-20T10:45:13Z</time>
      </trkpt>
      <trkpt lat="46.458351574838161" lon="11.631777165457606">
        <ele>2228.4699999999998</ele>
        <time>2016-03-20T10:45:23Z</time>
      </trkpt>
      <trkpt lat="46.458399519324303" lon="11.631761072203517">
        <ele>2230.8800000000001</ele>
        <time>2016-03-20T10:45:35Z</time>
      </trkpt>
      <trkpt lat="46.458442937582731" lon="11.631789989769459">
        <ele>2232.8000000000002</ele>
        <time>2016-03-20T10:45:46Z</time>
      </trkpt>
      <trkpt lat="46.458475878462195" lon="11.631819996982813">
        <ele>2235.1999999999998</ele>
        <time>2016-03-20T10:45:57Z</time>
      </trkpt>
      <trkpt lat="46.458505047485232" lon="11.631819494068623">
        <ele>2236.1599999999999</ele>
        <time>2016-03-20T10:46:02Z</time>
      </trkpt>
      <trkpt lat="46.458546537905931" lon="11.631792839616537">
        <ele>2238.5700000000002</ele>
        <time>2016-03-20T10:46:14Z</time>
      </trkpt>
      <trkpt lat="46.458569671958685" lon="11.631830641999841">
        <ele>2238.5700000000002</ele>
        <time>2016-03-20T10:46:24Z</time>
      </trkpt>
      <trkpt lat="46.458552069962025" lon="11.631844807416201">
        <ele>2239.0500000000002</ele>
        <time>2016-03-20T10:46:36Z</time>
      </trkpt>
      <trkpt lat="46.458568582311273" lon="11.63186433725059">
        <ele>2239.5300000000002</ele>
        <time>2016-03-20T10:46:56Z</time>
      </trkpt>
      <trkpt lat="46.458553243428469" lon="11.63188043050468">
        <ele>2240.4899999999998</ele>
        <time>2016-03-20T10:47:07Z</time>
      </trkpt>
      <trkpt lat="46.458540083840489" lon="11.631956705823541">
        <ele>2241.4499999999998</ele>
        <time>2016-03-20T10:47:22Z</time>
      </trkpt>
      <trkpt lat="46.458501862362027" lon="11.632037675008178">
        <ele>2243.3699999999999</ele>
        <time>2016-03-20T10:47:33Z</time>
      </trkpt>
      <trkpt lat="46.458469340577722" lon="11.632060809060931">
        <ele>2244.3299999999999</ele>
        <time>2016-03-20T10:47:45Z</time>
      </trkpt>
      <trkpt lat="46.458441261202097" lon="11.632115626707673">
        <ele>2245.7800000000002</ele>
        <time>2016-03-20T10:47:58Z</time>
      </trkpt>
      <trkpt lat="46.458430448547006" lon="11.632171953096986">
        <ele>2246.7399999999998</ele>
        <time>2016-03-20T10:48:07Z</time>
      </trkpt>
      <trkpt lat="46.458427682518959" lon="11.632238840684295">
        <ele>2247.2199999999998</ele>
        <time>2016-03-20T10:48:17Z</time>
      </trkpt>
      <trkpt lat="46.458414355292916" lon="11.632256023585796">
        <ele>2247.2199999999998</ele>
        <time>2016-03-20T10:48:28Z</time>
      </trkpt>
      <trkpt lat="46.458374289795756" lon="11.63225325755775">
        <ele>2247.6999999999998</ele>
        <time>2016-03-20T10:48:41Z</time>
      </trkpt>
      <trkpt lat="46.458385940641165" lon="11.632235068827868">
        <ele>2247.2199999999998</ele>
        <time>2016-03-20T10:48:57Z</time>
      </trkpt>
      <trkpt lat="46.458408152684569" lon="11.632266668602824">
        <ele>2247.6999999999998</ele>
        <time>2016-03-20T10:49:09Z</time>
      </trkpt>
      <trkpt lat="46.458402285352349" lon="11.632331712171435">
        <ele>2246.7399999999998</ele>
        <time>2016-03-20T10:49:16Z</time>
      </trkpt>
      <trkpt lat="46.458371356129646" lon="11.632350822910666">
        <ele>2247.2199999999998</ele>
        <time>2016-03-20T10:49:27Z</time>
      </trkpt>
      <trkpt lat="46.458366326987743" lon="11.632365407422185">
        <ele>2247.2199999999998</ele>
        <time>2016-03-20T10:49:42Z</time>
      </trkpt>
      <trkpt lat="46.458370098844171" lon="11.632354678586125">
        <ele>2247.6999999999998</ele>
        <time>2016-03-20T10:50:00Z</time>
      </trkpt>
      <trkpt lat="46.458319807425141" lon="11.632435228675604">
        <ele>2245.7800000000002</ele>
        <time>2016-03-20T10:50:11Z</time>
      </trkpt>
      <trkpt lat="46.458319220691919" lon="11.63244528695941">
        <ele>2246.2600000000002</ele>
        <time>2016-03-20T10:50:12Z</time>
      </trkpt>
      <trkpt lat="46.458261385560036" lon="11.632571602240205">
        <ele>2245.3000000000002</ele>
        <time>2016-03-20T10:50:22Z</time>
      </trkpt>
      <trkpt lat="46.458252752199769" lon="11.632592724636197">
        <ele>2245.3000000000002</ele>
        <time>2016-03-20T10:50:24Z</time>
      </trkpt>
      <trkpt lat="46.458203801885247" lon="11.632724152877927">
        <ele>2244.3299999999999</ele>
        <time>2016-03-20T10:50:35Z</time>
      </trkpt>
      <trkpt lat="46.458163736388087" lon="11.632845606654882">
        <ele>2242.8899999999999</ele>
        <time>2016-03-20T10:50:45Z</time>
      </trkpt>
      <trkpt lat="46.458081593737006" lon="11.632960857823491">
        <ele>2243.3699999999999</ele>
        <time>2016-03-20T10:50:56Z</time>
      </trkpt>
      <trkpt lat="46.45805049687624" lon="11.632987847551703">
        <ele>2242.8899999999999</ele>
        <time>2016-03-20T10:51:00Z</time>
      </trkpt>
      <trkpt lat="46.458002384752035" lon="11.633069068193436">
        <ele>2244.3299999999999</ele>
        <time>2016-03-20T10:51:10Z</time>
      </trkpt>
      <trkpt lat="46.457968018949032" lon="11.633177530020475">
        <ele>2243.3699999999999</ele>
        <time>2016-03-20T10:51:20Z</time>
      </trkpt>
      <trkpt lat="46.457939017564058" lon="11.633232096210122">
        <ele>2242.4099999999999</ele>
        <time>2016-03-20T10:51:25Z</time>
      </trkpt>
      <trkpt lat="46.457849079743028" lon="11.633319351822138">
        <ele>2242.4099999999999</ele>
        <time>2016-03-20T10:51:36Z</time>
      </trkpt>
      <trkpt lat="46.457776324823499" lon="11.633409122005105">
        <ele>2241.9299999999998</ele>
        <time>2016-03-20T10:51:46Z</time>
      </trkpt>
      <trkpt lat="46.457745395600796" lon="11.633457401767373">
        <ele>2241.9299999999998</ele>
        <time>2016-03-20T10:51:52Z</time>
      </trkpt>
      <trkpt lat="46.457692757248878" lon="11.633488666266203">
        <ele>2243.8499999999999</ele>
        <time>2016-03-20T10:52:06Z</time>
      </trkpt>
      <trkpt lat="46.457697451114655" lon="11.633477434515953">
        <ele>2244.3299999999999</ele>
        <time>2016-03-20T10:52:17Z</time>
      </trkpt>
      <trkpt lat="46.457693260163069" lon="11.633512135595083">
        <ele>2244.3299999999999</ele>
        <time>2016-03-20T10:52:29Z</time>
      </trkpt>
      <trkpt lat="46.457698121666908" lon="11.633504675701261">
        <ele>2244.3299999999999</ele>
        <time>2016-03-20T10:52:46Z</time>
      </trkpt>
      <trkpt lat="46.457697115838528" lon="11.633522277697921">
        <ele>2243.8499999999999</ele>
        <time>2016-03-20T10:52:56Z</time>
      </trkpt>
      <trkpt lat="46.457659900188446" lon="11.633542813360691">
        <ele>2243.3699999999999</ele>
        <time>2016-03-20T10:53:14Z</time>
      </trkpt>
      <trkpt lat="46.457638526335359" lon="11.633502580225468">
        <ele>2244.8200000000002</ele>
        <time>2016-03-20T10:53:23Z</time>
      </trkpt>
      <trkpt lat="46.457629892975092" lon="11.633515236899257">
        <ele>2245.3000000000002</ele>
        <time>2016-03-20T10:53:37Z</time>
      </trkpt>
      <trkpt lat="46.457646070048213" lon="11.633443655446172">
        <ele>2245.7800000000002</ele>
        <time>2016-03-20T10:53:49Z</time>
      </trkpt>
      <trkpt lat="46.457627546042204" lon="11.63340350612998">
        <ele>2245.7800000000002</ele>
        <time>2016-03-20T10:54:05Z</time>
      </trkpt>
      <trkpt lat="46.457668533548713" lon="11.633435608819127">
        <ele>2246.2600000000002</ele>
        <time>2016-03-20T10:54:16Z</time>
      </trkpt>
      <trkpt lat="46.457674484699965" lon="11.633460335433483">
        <ele>2245.7800000000002</ele>
        <time>2016-03-20T10:54:30Z</time>
      </trkpt>
      <trkpt lat="46.45769041031599" lon="11.633459329605103">
        <ele>2245.7800000000002</ele>
        <time>2016-03-20T10:54:47Z</time>
      </trkpt>
      <trkpt lat="46.45770600065589" lon="11.633449858054519">
        <ele>2245.7800000000002</ele>
        <time>2016-03-20T10:55:03Z</time>
      </trkpt>
      <trkpt lat="46.457718489691615" lon="11.633442314341664">
        <ele>2247.2199999999998</ele>
        <time>2016-03-20T10:55:10Z</time>
      </trkpt>
      <trkpt lat="46.457690745592117" lon="11.633409792557359">
        <ele>2245.7800000000002</ele>
        <time>2016-03-20T10:55:22Z</time>
      </trkpt>
      <trkpt lat="46.457709353417158" lon="11.633411049842834">
        <ele>2246.2600000000002</ele>
        <time>2016-03-20T10:55:41Z</time>
      </trkpt>
      <trkpt lat="46.457711532711983" lon="11.633470728993416">
        <ele>2246.2600000000002</ele>
        <time>2016-03-20T10:55:55Z</time>
      </trkpt>
      <trkpt lat="46.45771823823452" lon="11.633481960743666">
        <ele>2246.2600000000002</ele>
        <time>2016-03-20T10:56:11Z</time>
      </trkpt>
      <trkpt lat="46.457748413085938" lon="11.633484978228807">
        <ele>2246.2600000000002</ele>
        <time>2016-03-20T10:56:28Z</time>
      </trkpt>
      <trkpt lat="46.457725027576089" lon="11.633477602154016">
        <ele>2246.7399999999998</ele>
        <time>2016-03-20T10:56:43Z</time>
      </trkpt>
      <trkpt lat="46.457716561853886" lon="11.633449606597424">
        <ele>2246.7399999999998</ele>
        <time>2016-03-20T10:57:00Z</time>
      </trkpt>
      <trkpt lat="46.457712119445205" lon="11.633476093411446">
        <ele>2247.2199999999998</ele>
        <time>2016-03-20T10:57:19Z</time>
      </trkpt>
      <trkpt lat="46.457728212699294" lon="11.633473997935653">
        <ele>2246.7399999999998</ele>
        <time>2016-03-20T10:57:32Z</time>
      </trkpt>
      <trkpt lat="46.457725530490279" lon="11.63346410728991">
        <ele>2246.7399999999998</ele>
        <time>2016-03-20T10:57:50Z</time>
      </trkpt>
      <trkpt lat="46.457720585167408" lon="11.633450947701931">
        <ele>2247.2199999999998</ele>
        <time>2016-03-20T10:58:12Z</time>
      </trkpt>
      <trkpt lat="46.457747742533684" lon="11.633444158360362">
        <ele>2247.6999999999998</ele>
        <time>2016-03-20T10:58:30Z</time>
      </trkpt>
      <trkpt lat="46.457764003425837" lon="11.633449858054519">
        <ele>2246.7399999999998</ele>
        <time>2016-03-20T10:58:42Z</time>
      </trkpt>
      <trkpt lat="46.457802476361394" lon="11.633446840569377">
        <ele>2246.7399999999998</ele>
        <time>2016-03-20T10:58:53Z</time>
      </trkpt>
      <trkpt lat="46.457826364785433" lon="11.633407529443502">
        <ele>2245.7800000000002</ele>
        <time>2016-03-20T10:59:00Z</time>
      </trkpt>
      <trkpt lat="46.457853438332677" lon="11.633374001830816">
        <ele>2245.7800000000002</ele>
        <time>2016-03-20T10:59:07Z</time>
      </trkpt>
      <trkpt lat="46.457897108048201" lon="11.633329996839166">
        <ele>2245.7800000000002</ele>
        <time>2016-03-20T10:59:18Z</time>
      </trkpt>
      <trkpt lat="46.457943711429834" lon="11.633287081494927">
        <ele>2245.3000000000002</ele>
        <time>2016-03-20T10:59:32Z</time>
      </trkpt>
      <trkpt lat="46.457985956221819" lon="11.633216673508286">
        <ele>2246.2600000000002</ele>
        <time>2016-03-20T10:59:43Z</time>
      </trkpt>
      <trkpt lat="46.457995846867561" lon="11.633166382089257">
        <ele>2247.2199999999998</ele>
        <time>2016-03-20T10:59:49Z</time>
      </trkpt>
      <trkpt lat="46.457974053919315" lon="11.633108966052532">
        <ele>2247.6999999999998</ele>
        <time>2016-03-20T10:59:58Z</time>
      </trkpt>
      <trkpt lat="46.457935748621821" lon="11.633121203631163">
        <ele>2248.6599999999999</ele>
        <time>2016-03-20T11:00:06Z</time>
      </trkpt>
      <trkpt lat="46.457925355061889" lon="11.633118186146021">
        <ele>2248.1799999999998</ele>
        <time>2016-03-20T11:00:27Z</time>
      </trkpt>
      <trkpt lat="46.457958295941353" lon="11.633083736523986">
        <ele>2248.6599999999999</ele>
        <time>2016-03-20T11:00:36Z</time>
      </trkpt>
      <trkpt lat="46.457997439429164" lon="11.633017351850867">
        <ele>2249.1399999999999</ele>
        <time>2016-03-20T11:00:57Z</time>
      </trkpt>
      <trkpt lat="46.458007246255875" lon="11.632968233898282">
        <ele>2248.6599999999999</ele>
        <time>2016-03-20T11:01:07Z</time>
      </trkpt>
      <trkpt lat="46.458073211833835" lon="11.632865807041526">
        <ele>2248.1799999999998</ele>
        <time>2016-03-20T11:01:18Z</time>
      </trkpt>
      <trkpt lat="46.458119815215468" lon="11.63280688226223">
        <ele>2248.6599999999999</ele>
        <time>2016-03-20T11:01:28Z</time>
      </trkpt>
      <trkpt lat="46.458130460232496" lon="11.632716692984104">
        <ele>2249.1399999999999</ele>
        <time>2016-03-20T11:01:37Z</time>
      </trkpt>
      <trkpt lat="46.458145212382078" lon="11.632610997185111">
        <ele>2250.0999999999999</ele>
        <time>2016-03-20T11:01:48Z</time>
      </trkpt>
      <trkpt lat="46.458167424425483" lon="11.632585935294628">
        <ele>2250.5799999999999</ele>
        <time>2016-03-20T11:02:00Z</time>
      </trkpt>
      <trkpt lat="46.45816775970161" lon="11.63251468911767">
        <ele>2251.54</ele>
        <time>2016-03-20T11:02:10Z</time>
      </trkpt>
      <trkpt lat="46.458156276494265" lon="11.632440676912665">
        <ele>2252.5100000000002</ele>
        <time>2016-03-20T11:02:20Z</time>
      </trkpt>
      <trkpt lat="46.458139512687922" lon="11.632394324988127">
        <ele>2252.9899999999998</ele>
        <time>2016-03-20T11:02:29Z</time>
      </trkpt>
      <trkpt lat="46.458113612607121" lon="11.63238862529397">
        <ele>2253.9499999999998</ele>
        <time>2016-03-20T11:02:40Z</time>
      </trkpt>
      <trkpt lat="46.458117133006454" lon="11.632376052439213">
        <ele>2254.4299999999998</ele>
        <time>2016-03-20T11:02:54Z</time>
      </trkpt>
      <trkpt lat="46.458048820495605" lon="11.632424080744386">
        <ele>2255.8699999999999</ele>
        <time>2016-03-20T11:03:08Z</time>
      </trkpt>
      <trkpt lat="46.458069104701281" lon="11.632389379665256">
        <ele>2256.3499999999999</ele>
        <time>2016-03-20T11:03:17Z</time>
      </trkpt>
      <trkpt lat="46.458210507407784" lon="11.632349397987127">
        <ele>2254.4299999999998</ele>
        <time>2016-03-20T11:03:29Z</time>
      </trkpt>
      <trkpt lat="46.458297343924642" lon="11.632327437400818">
        <ele>2253.4699999999998</ele>
        <time>2016-03-20T11:03:36Z</time>
      </trkpt>
      <trkpt lat="46.458371188491583" lon="11.632466409355402">
        <ele>2252.9899999999998</ele>
        <time>2016-03-20T11:03:48Z</time>
      </trkpt>
      <trkpt lat="46.458446206524968" lon="11.632493399083614">
        <ele>2253.4699999999998</ele>
        <time>2016-03-20T11:03:57Z</time>
      </trkpt>
      <trkpt lat="46.458479650318623" lon="11.63253815844655">
        <ele>2253.9499999999998</ele>
        <time>2016-03-20T11:04:06Z</time>
      </trkpt>
      <trkpt lat="46.458476968109608" lon="11.632550982758403">
        <ele>2253.9499999999998</ele>
        <time>2016-03-20T11:04:18Z</time>
      </trkpt>
      <trkpt lat="46.458514183759689" lon="11.632508486509323">
        <ele>2253.4699999999998</ele>
        <time>2016-03-20T11:04:28Z</time>
      </trkpt>
      <trkpt lat="46.458481745794415" lon="11.632289635017514">
        <ele>2252.9899999999998</ele>
        <time>2016-03-20T11:04:41Z</time>
      </trkpt>
      <trkpt lat="46.458327518776059" lon="11.632024180144072">
        <ele>2253.4699999999998</ele>
        <time>2016-03-20T11:04:59Z</time>
      </trkpt>
      <trkpt lat="46.458262223750353" lon="11.63165956735611">
        <ele>2253.4699999999998</ele>
        <time>2016-03-20T11:05:12Z</time>
      </trkpt>
      <trkpt lat="46.458250321447849" lon="11.631653616204858">
        <ele>2253.9499999999998</ele>
        <time>2016-03-20T11:05:15Z</time>
      </trkpt>
      <trkpt lat="46.458263648673892" lon="11.631194790825248">
        <ele>2254.4299999999998</ele>
        <time>2016-03-20T11:05:32Z</time>
      </trkpt>
      <trkpt lat="46.458247136324644" lon="11.630694810301065">
        <ele>2254.4299999999998</ele>
        <time>2016-03-20T11:05:48Z</time>
      </trkpt>
      <trkpt lat="46.458152588456869" lon="11.630048817023635">
        <ele>2254.9099999999999</ele>
        <time>2016-03-20T11:06:08Z</time>
      </trkpt>
      <trkpt lat="46.458119982853532" lon="11.629596780985594">
        <ele>2254.9099999999999</ele>
        <time>2016-03-20T11:06:18Z</time>
      </trkpt>
      <trkpt lat="46.458108918741345" lon="11.629373151808977">
        <ele>2255.8699999999999</ele>
        <time>2016-03-20T11:06:31Z</time>
      </trkpt>
      <trkpt lat="46.458092154935002" lon="11.629253290593624">
        <ele>2256.3499999999999</ele>
        <time>2016-03-20T11:06:53Z</time>
      </trkpt>
      <trkpt lat="46.458075810223818" lon="11.629003090783954">
        <ele>2256.3499999999999</ele>
        <time>2016-03-20T11:07:14Z</time>
      </trkpt>
      <trkpt lat="46.458109254017472" lon="11.629121359437704">
        <ele>2257.3099999999999</ele>
        <time>2016-03-20T11:07:37Z</time>
      </trkpt>
      <trkpt lat="46.458139596506953" lon="11.629226468503475">
        <ele>2258.27</ele>
        <time>2016-03-20T11:07:59Z</time>
      </trkpt>
      <trkpt lat="46.458167424425483" lon="11.629309030249715">
        <ele>2258.27</ele>
        <time>2016-03-20T11:08:20Z</time>
      </trkpt>
      <trkpt lat="46.458200449123979" lon="11.629408691078424">
        <ele>2259.7199999999998</ele>
        <time>2016-03-20T11:08:35Z</time>
      </trkpt>
      <trkpt lat="46.458210423588753" lon="11.6295135486871">
        <ele>2259.7199999999998</ele>
        <time>2016-03-20T11:08:48Z</time>
      </trkpt>
      <trkpt lat="46.458223247900605" lon="11.629630560055375">
        <ele>2260.1999999999998</ele>
        <time>2016-03-20T11:09:04Z</time>
      </trkpt>
      <trkpt lat="46.458225762471557" lon="11.629700381308794">
        <ele>2260.1999999999998</ele>
        <time>2016-03-20T11:09:07Z</time>
      </trkpt>
      <trkpt lat="46.458220230415463" lon="11.629482200369239">
        <ele>2260.6799999999998</ele>
        <time>2016-03-20T11:09:24Z</time>
      </trkpt>
      <trkpt lat="46.45818879827857" lon="11.629316909238696">
        <ele>2261.6399999999999</ele>
        <time>2016-03-20T11:09:38Z</time>
      </trkpt>
      <trkpt lat="46.458215955644846" lon="11.629502987489104">
        <ele>2261.6399999999999</ele>
        <time>2016-03-20T11:09:47Z</time>
      </trkpt>
      <trkpt lat="46.458193995058537" lon="11.629552943632007">
        <ele>2261.6399999999999</ele>
        <time>2016-03-20T11:09:50Z</time>
      </trkpt>
      <trkpt lat="46.458178656175733" lon="11.6295619122684">
        <ele>2261.6399999999999</ele>
        <time>2016-03-20T11:09:52Z</time>
      </trkpt>
      <trkpt lat="46.458176895976067" lon="11.629733238369226">
        <ele>2261.1599999999999</ele>
        <time>2016-03-20T11:10:01Z</time>
      </trkpt>
      <trkpt lat="46.458207573741674" lon="11.629899200052023">
        <ele>2261.1599999999999</ele>
        <time>2016-03-20T11:10:16Z</time>
      </trkpt>
      <trkpt lat="46.45822056569159" lon="11.630041357129812">
        <ele>2261.1599999999999</ele>
        <time>2016-03-20T11:10:29Z</time>
      </trkpt>
      <trkpt lat="46.458245208486915" lon="11.630146466195583">
        <ele>2261.1599999999999</ele>
        <time>2016-03-20T11:10:40Z</time>
      </trkpt>
      <trkpt lat="46.458232719451189" lon="11.630217041820288">
        <ele>2261.6399999999999</ele>
        <time>2016-03-20T11:10:52Z</time>
      </trkpt>
      <trkpt lat="46.45833388902247" lon="11.631658729165792">
        <ele>2262.5999999999999</ele>
        <time>2016-03-20T11:11:00Z</time>
      </trkpt>
      <trkpt lat="46.458341516554356" lon="11.631745900958776">
        <ele>2263.0799999999999</ele>
        <time>2016-03-20T11:11:01Z</time>
      </trkpt>
      <trkpt lat="46.45831829868257" lon="11.631925273686647">
        <ele>2262.1199999999999</ele>
        <time>2016-03-20T11:11:07Z</time>
      </trkpt>
      <trkpt lat="46.458257613703609" lon="11.632097102701664">
        <ele>2262.1199999999999</ele>
        <time>2016-03-20T11:11:15Z</time>
      </trkpt>
      <trkpt lat="46.45808276720345" lon="11.632321318611503">
        <ele>2264.04</ele>
        <time>2016-03-20T11:11:25Z</time>
      </trkpt>
      <trkpt lat="46.457967013120651" lon="11.632410082966089">
        <ele>2265</ele>
        <time>2016-03-20T11:11:36Z</time>
      </trkpt>
      <trkpt lat="46.457942454144359" lon="11.632435144856572">
        <ele>2265.48</ele>
        <time>2016-03-20T11:11:45Z</time>
      </trkpt>
      <trkpt lat="46.457961732521653" lon="11.632348727434874">
        <ele>2266.4499999999998</ele>
        <time>2016-03-20T11:12:00Z</time>
      </trkpt>
      <trkpt lat="46.458008838817477" lon="11.632391391322017">
        <ele>2266.4499999999998</ele>
        <time>2016-03-20T11:12:12Z</time>
      </trkpt>
      <trkpt lat="46.457947986200452" lon="11.632434977218509">
        <ele>2266.4499999999998</ele>
        <time>2016-03-20T11:12:27Z</time>
      </trkpt>
      <trkpt lat="46.457971790805459" lon="11.63249658420682">
        <ele>2266.4499999999998</ele>
        <time>2016-03-20T11:12:35Z</time>
      </trkpt>
      <trkpt lat="46.458015125244856" lon="11.632475880905986">
        <ele>2266.4499999999998</ele>
        <time>2016-03-20T11:12:47Z</time>
      </trkpt>
      <trkpt lat="46.457979837432504" lon="11.632474372163415">
        <ele>2265.48</ele>
        <time>2016-03-20T11:13:06Z</time>
      </trkpt>
      <trkpt lat="46.457980843260884" lon="11.632449897006154">
        <ele>2265.48</ele>
        <time>2016-03-20T11:13:09Z</time>
      </trkpt>
      <trkpt lat="46.458003558218479" lon="11.632429109886289">
        <ele>2264.52</ele>
        <time>2016-03-20T11:13:16Z</time>
      </trkpt>
      <trkpt lat="46.458022585138679" lon="11.632414441555738">
        <ele>2264.04</ele>
        <time>2016-03-20T11:13:18Z</time>
      </trkpt>
      <trkpt lat="46.458052424713969" lon="11.632408238947392">
        <ele>2264.52</ele>
        <time>2016-03-20T11:13:19Z</time>
      </trkpt>
      <trkpt lat="46.458086203783751" lon="11.632402958348393">
        <ele>2264.04</ele>
        <time>2016-03-20T11:13:22Z</time>
      </trkpt>
      <trkpt lat="46.458204723894596" lon="11.632379237562418">
        <ele>2263.0799999999999</ele>
        <time>2016-03-20T11:13:32Z</time>
      </trkpt>
      <trkpt lat="46.458221990615129" lon="11.632393738254905">
        <ele>2263.5599999999999</ele>
        <time>2016-03-20T11:13:34Z</time>
      </trkpt>
      <trkpt lat="46.45827722735703" lon="11.632454507052898">
        <ele>2263.0799999999999</ele>
        <time>2016-03-20T11:13:40Z</time>
      </trkpt>
      <trkpt lat="46.458310252055526" lon="11.632506307214499">
        <ele>2262.5999999999999</ele>
        <time>2016-03-20T11:13:44Z</time>
      </trkpt>
      <trkpt lat="46.458334056660533" lon="11.632503625005484">
        <ele>2263.0799999999999</ele>
        <time>2016-03-20T11:13:46Z</time>
      </trkpt>
      <trkpt lat="46.458359453827143" lon="11.632518712431192">
        <ele>2264.04</ele>
        <time>2016-03-20T11:13:49Z</time>
      </trkpt>
      <trkpt lat="46.458433046936989" lon="11.632590126246214">
        <ele>2263.0799999999999</ele>
        <time>2016-03-20T11:14:00Z</time>
      </trkpt>
      <trkpt lat="46.458445871248841" lon="11.632566740736365">
        <ele>2262.5999999999999</ele>
        <time>2016-03-20T11:14:12Z</time>
      </trkpt>
      <trkpt lat="46.458408068865538" lon="11.632035244256258">
        <ele>2263.5599999999999</ele>
        <time>2016-03-20T11:14:26Z</time>
      </trkpt>
      <trkpt lat="46.458398010581732" lon="11.632001046091318">
        <ele>2262.5999999999999</ele>
        <time>2016-03-20T11:14:40Z</time>
      </trkpt>
      <trkpt lat="46.458452995866537" lon="11.632326766848564">
        <ele>2262.1199999999999</ele>
        <time>2016-03-20T11:15:00Z</time>
      </trkpt>
      <trkpt lat="46.458477135747671" lon="11.632569925859571">
        <ele>2262.1199999999999</ele>
        <time>2016-03-20T11:15:25Z</time>
      </trkpt>
      <trkpt lat="46.458456348627806" lon="11.632407149299979">
        <ele>2262.5999999999999</ele>
        <time>2016-03-20T11:15:44Z</time>
      </trkpt>
      <trkpt lat="46.458451906219125" lon="11.632404970005155">
        <ele>2262.1199999999999</ele>
        <time>2016-03-20T11:16:04Z</time>
      </trkpt>
      <trkpt lat="46.458434304222465" lon="11.632132055237889">
        <ele>2262.1199999999999</ele>
        <time>2016-03-20T11:16:21Z</time>
      </trkpt>
      <trkpt lat="46.458412846550345" lon="11.631938684731722">
        <ele>2262.1199999999999</ele>
        <time>2016-03-20T11:16:40Z</time>
      </trkpt>
      <trkpt lat="46.458428855985403" lon="11.632083943113685">
        <ele>2262.1199999999999</ele>
        <time>2016-03-20T11:16:57Z</time>
      </trkpt>
      <trkpt lat="46.458412762731314" lon="11.632211683318019">
        <ele>2261.6399999999999</ele>
        <time>2016-03-20T11:17:19Z</time>
      </trkpt>
      <trkpt lat="46.458416199311614" lon="11.632364401593804">
        <ele>2262.5999999999999</ele>
        <time>2016-03-20T11:17:42Z</time>
      </trkpt>
      <trkpt lat="46.458424078300595" lon="11.632372951135039">
        <ele>2264.52</ele>
        <time>2016-03-20T11:18:05Z</time>
      </trkpt>
      <trkpt lat="46.458440674468875" lon="11.632363479584455">
        <ele>2265</ele>
        <time>2016-03-20T11:18:23Z</time>
      </trkpt>
      <trkpt lat="46.45841259509325" lon="11.631936840713024">
        <ele>2265.96</ele>
        <time>2016-03-20T11:18:46Z</time>
      </trkpt>
      <trkpt lat="46.458372445777059" lon="11.631641462445259">
        <ele>2268.3699999999999</ele>
        <time>2016-03-20T11:19:07Z</time>
      </trkpt>
      <trkpt lat="46.45831243135035" lon="11.630598334595561">
        <ele>2269.8099999999999</ele>
        <time>2016-03-20T11:19:24Z</time>
      </trkpt>
      <trkpt lat="46.458312263712287" lon="11.630396330729127">
        <ele>2270.29</ele>
        <time>2016-03-20T11:19:43Z</time>
      </trkpt>
      <trkpt lat="46.458291644230485" lon="11.630187872797251">
        <ele>2272.21</ele>
        <time>2016-03-20T11:20:02Z</time>
      </trkpt>
      <trkpt lat="46.458257110789418" lon="11.629729215055704">
        <ele>2274.6199999999999</ele>
        <time>2016-03-20T11:20:22Z</time>
      </trkpt>
      <trkpt lat="46.458247136324644" lon="11.629333505406976">
        <ele>2277.02</ele>
        <time>2016-03-20T11:20:51Z</time>
      </trkpt>
      <trkpt lat="46.45824789069593" lon="11.629503490403295">
        <ele>2279.4200000000001</ele>
        <time>2016-03-20T11:21:10Z</time>
      </trkpt>
      <trkpt lat="46.45824545994401" lon="11.629573814570904">
        <ele>2281.3499999999999</ele>
        <time>2016-03-20T11:21:32Z</time>
      </trkpt>
      <trkpt lat="46.458222744986415" lon="11.629404751583934">
        <ele>2284.71</ele>
        <time>2016-03-20T11:21:55Z</time>
      </trkpt>
      <trkpt lat="46.458218973129988" lon="11.629201406612992">
        <ele>2285.6700000000001</ele>
        <time>2016-03-20T11:22:21Z</time>
      </trkpt>
      <trkpt lat="46.458202041685581" lon="11.629111049696803">
        <ele>2288.5599999999999</ele>
        <time>2016-03-20T11:22:42Z</time>
      </trkpt>
      <trkpt lat="46.458188379183412" lon="11.629135189577937">
        <ele>2291.4400000000001</ele>
        <time>2016-03-20T11:23:08Z</time>
      </trkpt>
      <trkpt lat="46.45818293094635" lon="11.628995127975941">
        <ele>2294.3200000000002</ele>
        <time>2016-03-20T11:23:29Z</time>
      </trkpt>
      <trkpt lat="46.458172956481576" lon="11.629111468791962">
        <ele>2297.21</ele>
        <time>2016-03-20T11:23:50Z</time>
      </trkpt>
      <trkpt lat="46.458158036693931" lon="11.629147343337536">
        <ele>2299.6100000000001</ele>
        <time>2016-03-20T11:24:13Z</time>
      </trkpt>
      <trkpt lat="46.458165161311626" lon="11.629136614501476">
        <ele>2300.5700000000002</ele>
        <time>2016-03-20T11:24:24Z</time>
      </trkpt>
      <trkpt lat="46.458214614540339" lon="11.629182295873761">
        <ele>2301.5300000000002</ele>
        <time>2016-03-20T11:24:39Z</time>
      </trkpt>
      <trkpt lat="46.458180332556367" lon="11.629201322793961">
        <ele>2302.4899999999998</ele>
        <time>2016-03-20T11:24:54Z</time>
      </trkpt>
      <trkpt lat="46.458176309242845" lon="11.62921691313386">
        <ele>2302.4899999999998</ele>
        <time>2016-03-20T11:25:02Z</time>
      </trkpt>
      <trkpt lat="46.458170441910625" lon="11.629266366362572">
        <ele>2303.46</ele>
        <time>2016-03-20T11:25:22Z</time>
      </trkpt>
      <trkpt lat="46.458188043907285" lon="11.629242058843374">
        <ele>2306.3400000000001</ele>
        <time>2016-03-20T11:25:44Z</time>
      </trkpt>
      <trkpt lat="46.458172369748354" lon="11.629210710525513">
        <ele>2308.7399999999998</ele>
        <time>2016-03-20T11:26:04Z</time>
      </trkpt>
      <trkpt lat="46.458154935389757" lon="11.629236610606313">
        <ele>2310.1900000000001</ele>
        <time>2016-03-20T11:26:21Z</time>
      </trkpt>
      <trkpt lat="46.458144541829824" lon="11.629277933388948">
        <ele>2313.0700000000002</ele>
        <time>2016-03-20T11:26:43Z</time>
      </trkpt>
      <trkpt lat="46.458137668669224" lon="11.629264019429684">
        <ele>2314.5100000000002</ele>
        <time>2016-03-20T11:27:07Z</time>
      </trkpt>
      <trkpt lat="46.458143284544349" lon="11.629274496808648">
        <ele>2314.5100000000002</ele>
        <time>2016-03-20T11:27:25Z</time>
      </trkpt>
      <trkpt lat="46.458149151876569" lon="11.62936694920063">
        <ele>2316.4299999999998</ele>
        <time>2016-03-20T11:27:48Z</time>
      </trkpt>
      <trkpt lat="46.45813942886889" lon="11.629359405487776">
        <ele>2317.8800000000001</ele>
        <time>2016-03-20T11:28:00Z</time>
      </trkpt>
      <trkpt lat="46.458105398342013" lon="11.629328643903136">
        <ele>2319.8000000000002</ele>
        <time>2016-03-20T11:28:17Z</time>
      </trkpt>
      <trkpt lat="46.458084527403116" lon="11.629258571192622">
        <ele>2322.6799999999998</ele>
        <time>2016-03-20T11:28:41Z</time>
      </trkpt>
      <trkpt lat="46.458084024488926" lon="11.629226803779602">
        <ele>2325.0900000000001</ele>
        <time>2016-03-20T11:29:06Z</time>
      </trkpt>
      <trkpt lat="46.458079917356372" lon="11.629207441583276">
        <ele>2328.4499999999998</ele>
        <time>2016-03-20T11:29:31Z</time>
      </trkpt>
      <trkpt lat="46.4580421987921" lon="11.629243567585945">
        <ele>2329.4099999999999</ele>
        <time>2016-03-20T11:29:52Z</time>
      </trkpt>
      <trkpt lat="46.458054939284921" lon="11.629273323342204">
        <ele>2330.3699999999999</ele>
        <time>2016-03-20T11:30:10Z</time>
      </trkpt>
      <trkpt lat="46.458065584301949" lon="11.629272988066077">
        <ele>2330.8499999999999</ele>
        <time>2016-03-20T11:30:33Z</time>
      </trkpt>
      <trkpt lat="46.458057705312967" lon="11.629262007772923">
        <ele>2331.8099999999999</ele>
        <time>2016-03-20T11:30:53Z</time>
      </trkpt>
      <trkpt lat="46.458060136064887" lon="11.629233341664076">
        <ele>2332.3000000000002</ele>
        <time>2016-03-20T11:31:08Z</time>
      </trkpt>
      <trkpt lat="46.458045719191432" lon="11.629261001944542">
        <ele>2332.7800000000002</ele>
        <time>2016-03-20T11:31:25Z</time>
      </trkpt>
      <trkpt lat="46.45803582854569" lon="11.629243986681104">
        <ele>2336.1399999999999</ele>
        <time>2016-03-20T11:31:45Z</time>
      </trkpt>
      <trkpt lat="46.45802166312933" lon="11.629206268116832">
        <ele>2338.0599999999999</ele>
        <time>2016-03-20T11:32:04Z</time>
      </trkpt>
      <trkpt lat="46.458023255690932" lon="11.629262091591954">
        <ele>2340.9499999999998</ele>
        <time>2016-03-20T11:32:24Z</time>
      </trkpt>
      <trkpt lat="46.458016633987427" lon="11.629264187067747">
        <ele>2342.3899999999999</ele>
        <time>2016-03-20T11:32:42Z</time>
      </trkpt>
      <trkpt lat="46.458002217113972" lon="11.629238957539201">
        <ele>2343.8299999999999</ele>
        <time>2016-03-20T11:33:02Z</time>
      </trkpt>
      <trkpt lat="46.457996685057878" lon="11.629221942275763">
        <ele>2344.3099999999999</ele>
        <time>2016-03-20T11:33:24Z</time>
      </trkpt>
      <trkpt lat="46.457983776926994" lon="11.629192102700472">
        <ele>2345.75</ele>
        <time>2016-03-20T11:33:44Z</time>
      </trkpt>
      <trkpt lat="46.457975395023823" lon="11.629205262288451">
        <ele>2346.7199999999998</ele>
        <time>2016-03-20T11:34:02Z</time>
      </trkpt>
      <trkpt lat="46.457967013120651" lon="11.629214733839035">
        <ele>2347.1999999999998</ele>
        <time>2016-03-20T11:34:18Z</time>
      </trkpt>
      <trkpt lat="46.45796550437808" lon="11.629162766039371">
        <ele>2349.1199999999999</ele>
        <time>2016-03-20T11:34:33Z</time>
      </trkpt>
      <trkpt lat="46.457975981757045" lon="11.629203921183944">
        <ele>2350.5599999999999</ele>
        <time>2016-03-20T11:34:50Z</time>
      </trkpt>
      <trkpt lat="46.457964414730668" lon="11.62919688038528">
        <ele>2352</ele>
        <time>2016-03-20T11:35:01Z</time>
      </trkpt>
      <trkpt lat="46.4579420350492" lon="11.629194030538201">
        <ele>2352.96</ele>
        <time>2016-03-20T11:35:13Z</time>
      </trkpt>
      <trkpt lat="46.457938849925995" lon="11.62919545546174">
        <ele>2354.4099999999999</ele>
        <time>2016-03-20T11:35:26Z</time>
      </trkpt>
      <trkpt lat="46.457922589033842" lon="11.629218002781272">
        <ele>2356.3299999999999</ele>
        <time>2016-03-20T11:35:43Z</time>
      </trkpt>
      <trkpt lat="46.457914123311639" lon="11.629243902862072">
        <ele>2358.25</ele>
        <time>2016-03-20T11:35:57Z</time>
      </trkpt>
      <trkpt lat="46.45793373696506" lon="11.629259996116161">
        <ele>2359.21</ele>
        <time>2016-03-20T11:36:09Z</time>
      </trkpt>
      <trkpt lat="46.457923343405128" lon="11.629248848184943">
        <ele>2361.1399999999999</ele>
        <time>2016-03-20T11:36:24Z</time>
      </trkpt>
      <trkpt lat="46.457903981208801" lon="11.629200987517834">
        <ele>2362.0999999999999</ele>
        <time>2016-03-20T11:36:43Z</time>
      </trkpt>
      <trkpt lat="46.457905322313309" lon="11.629234934225678">
        <ele>2364.98</ele>
        <time>2016-03-20T11:37:07Z</time>
      </trkpt>
      <trkpt lat="46.457891827449203" lon="11.629260834306479">
        <ele>2367.3800000000001</ele>
        <time>2016-03-20T11:37:28Z</time>
      </trkpt>
      <trkpt lat="46.457883361726999" lon="11.629251781851053">
        <ele>2369.3099999999999</ele>
        <time>2016-03-20T11:37:39Z</time>
      </trkpt>
      <trkpt lat="46.45787850022316" lon="11.629234347492456">
        <ele>2371.23</ele>
        <time>2016-03-20T11:37:49Z</time>
      </trkpt>
      <trkpt lat="46.457874225452542" lon="11.62924381904304">
        <ele>2373.1500000000001</ele>
        <time>2016-03-20T11:38:07Z</time>
      </trkpt>
      <trkpt lat="46.457841703668237" lon="11.629262259230018">
        <ele>2373.1500000000001</ele>
        <time>2016-03-20T11:38:19Z</time>
      </trkpt>
      <trkpt lat="46.457834243774414" lon="11.629278184846044">
        <ele>2374.1100000000001</ele>
        <time>2016-03-20T11:38:30Z</time>
      </trkpt>
      <trkpt lat="46.457854108884931" lon="11.629293356090784">
        <ele>2375.0700000000002</ele>
        <time>2016-03-20T11:38:41Z</time>
      </trkpt>
      <trkpt lat="46.457818066701293" lon="11.629282040521502">
        <ele>2377</ele>
        <time>2016-03-20T11:38:53Z</time>
      </trkpt>
      <trkpt lat="46.4578159712255" lon="11.629258403554559">
        <ele>2378.4400000000001</ele>
        <time>2016-03-20T11:39:04Z</time>
      </trkpt>
      <trkpt lat="46.457774061709642" lon="11.629233676940203">
        <ele>2380.8400000000001</ele>
        <time>2016-03-20T11:39:23Z</time>
      </trkpt>
      <trkpt lat="46.457768864929676" lon="11.629233090206981">
        <ele>2382.2800000000002</ele>
        <time>2016-03-20T11:39:29Z</time>
      </trkpt>
      <trkpt lat="46.457804990932345" lon="11.629158575087786">
        <ele>2384.6900000000001</ele>
        <time>2016-03-20T11:39:46Z</time>
      </trkpt>
      <trkpt lat="46.45781789906323" lon="11.629194617271423">
        <ele>2386.1300000000001</ele>
        <time>2016-03-20T11:39:56Z</time>
      </trkpt>
      <trkpt lat="46.457753274589777" lon="11.629174584522843">
        <ele>2388.5300000000002</ele>
        <time>2016-03-20T11:40:10Z</time>
      </trkpt>
      <trkpt lat="46.457729050889611" lon="11.629191096872091">
        <ele>2391.4200000000001</ele>
        <time>2016-03-20T11:40:26Z</time>
      </trkpt>
      <trkpt lat="46.457721339538693" lon="11.629213225096464">
        <ele>2392.3800000000001</ele>
        <time>2016-03-20T11:40:36Z</time>
      </trkpt>
      <trkpt lat="46.457720920443535" lon="11.629255972802639">
        <ele>2392.8600000000001</ele>
        <time>2016-03-20T11:40:45Z</time>
      </trkpt>
      <trkpt lat="46.457676328718662" lon="11.629294445738196">
        <ele>2394.3000000000002</ele>
        <time>2016-03-20T11:40:57Z</time>
      </trkpt>
      <trkpt lat="46.4578349981457" lon="11.630121488124132">
        <ele>2395.7399999999998</ele>
        <time>2016-03-20T11:41:11Z</time>
      </trkpt>
      <trkpt lat="46.457945723086596" lon="11.630598166957498">
        <ele>2397.1799999999998</ele>
        <time>2016-03-20T11:41:23Z</time>
      </trkpt>
      <trkpt lat="46.458012526854873" lon="11.630915254354477">
        <ele>2397.6700000000001</ele>
        <time>2016-03-20T11:41:35Z</time>
      </trkpt>
      <trkpt lat="46.458000792190433" lon="11.63091148249805">
        <ele>2397.6700000000001</ele>
        <time>2016-03-20T11:41:47Z</time>
      </trkpt>
      <trkpt lat="46.457986626774073" lon="11.630904693156481">
        <ele>2398.1500000000001</ele>
        <time>2016-03-20T11:42:00Z</time>
      </trkpt>
      <trkpt lat="46.457983106374741" lon="11.630968479439616">
        <ele>2397.6700000000001</ele>
        <time>2016-03-20T11:42:13Z</time>
      </trkpt>
      <trkpt lat="46.457936922088265" lon="11.631068978458643">
        <ele>2398.1500000000001</ele>
        <time>2016-03-20T11:42:33Z</time>
      </trkpt>
      <trkpt lat="46.458006324246526" lon="11.631159167736769">
        <ele>2399.5900000000001</ele>
        <time>2016-03-20T11:42:42Z</time>
      </trkpt>
      <trkpt lat="46.458076816052198" lon="11.631265534088016">
        <ele>2399.5900000000001</ele>
        <time>2016-03-20T11:42:51Z</time>
      </trkpt>
      <trkpt lat="46.458135992288589" lon="11.63129948079586">
        <ele>2402.4699999999998</ele>
        <time>2016-03-20T11:42:59Z</time>
      </trkpt>
      <trkpt lat="46.458254093304276" lon="11.631723521277308">
        <ele>2401.9899999999998</ele>
        <time>2016-03-20T11:43:11Z</time>
      </trkpt>
      <trkpt lat="46.458265576511621" lon="11.632049325853586">
        <ele>2401.5100000000002</ele>
        <time>2016-03-20T11:43:30Z</time>
      </trkpt>
      <trkpt lat="46.458404213190079" lon="11.632391475141048">
        <ele>2401.0300000000002</ele>
        <time>2016-03-20T11:43:50Z</time>
      </trkpt>
      <trkpt lat="46.458385270088911" lon="11.632370268926024">
        <ele>2400.0700000000002</ele>
        <time>2016-03-20T11:44:01Z</time>
      </trkpt>
      <trkpt lat="46.45844385959208" lon="11.632373202592134">
        <ele>2399.1100000000001</ele>
        <time>2016-03-20T11:44:16Z</time>
      </trkpt>
      <trkpt lat="46.458438998088241" lon="11.632330119609833">
        <ele>2398.1500000000001</ele>
        <time>2016-03-20T11:44:36Z</time>
      </trkpt>
      <trkpt lat="46.458412175998092" lon="11.63230556063354">
        <ele>2398.1500000000001</ele>
        <time>2016-03-20T11:44:39Z</time>
      </trkpt>
      <trkpt lat="46.458361968398094" lon="11.63224495947361">
        <ele>2396.6999999999998</ele>
        <time>2016-03-20T11:44:50Z</time>
      </trkpt>
      <trkpt lat="46.458362806588411" lon="11.632263567298651">
        <ele>2396.2199999999998</ele>
        <time>2016-03-20T11:45:01Z</time>
      </trkpt>
      <trkpt lat="46.458352748304605" lon="11.632215119898319">
        <ele>2395.2600000000002</ele>
        <time>2016-03-20T11:45:12Z</time>
      </trkpt>
      <trkpt lat="46.458368003368378" lon="11.632186118513346">
        <ele>2394.7800000000002</ele>
        <time>2016-03-20T11:45:18Z</time>
      </trkpt>
      <trkpt lat="46.458406392484903" lon="11.632098276168108">
        <ele>2395.2600000000002</ele>
        <time>2016-03-20T11:45:29Z</time>
      </trkpt>
      <trkpt lat="46.458428855985403" lon="11.632054103538394">
        <ele>2392.8600000000001</ele>
        <time>2016-03-20T11:45:35Z</time>
      </trkpt>
      <trkpt lat="46.458491804078221" lon="11.631933320313692">
        <ele>2389.9699999999998</ele>
        <time>2016-03-20T11:45:46Z</time>
      </trkpt>
      <trkpt lat="46.458534635603428" lon="11.631826451048255">
        <ele>2387.0900000000001</ele>
        <time>2016-03-20T11:45:55Z</time>
      </trkpt>
      <trkpt lat="46.45853622816503" lon="11.631744895130396">
        <ele>2384.6900000000001</ele>
        <time>2016-03-20T11:46:03Z</time>
      </trkpt>
      <trkpt lat="46.458534048870206" lon="11.631808429956436">
        <ele>2383.25</ele>
        <time>2016-03-20T11:46:12Z</time>
      </trkpt>
      <trkpt lat="46.458459030836821" lon="11.631832653656602">
        <ele>2379.4000000000001</ele>
        <time>2016-03-20T11:46:21Z</time>
      </trkpt>
      <trkpt lat="46.458444446325302" lon="11.631815554574132">
        <ele>2378.4400000000001</ele>
        <time>2016-03-20T11:46:23Z</time>
      </trkpt>
      <trkpt lat="46.458389880135655" lon="11.63169963285327">
        <ele>2375.0700000000002</ele>
        <time>2016-03-20T11:46:31Z</time>
      </trkpt>
      <trkpt lat="46.458331625908613" lon="11.631617406383157">
        <ele>2372.1900000000001</ele>
        <time>2016-03-20T11:46:40Z</time>
      </trkpt>
      <trkpt lat="46.458326680585742" lon="11.631619418039918">
        <ele>2371.71</ele>
        <time>2016-03-20T11:46:42Z</time>
      </trkpt>
      <trkpt lat="46.458312263712287" lon="11.631680186837912">
        <ele>2369.79</ele>
        <time>2016-03-20T11:46:51Z</time>
      </trkpt>
      <trkpt lat="46.458239927887917" lon="11.631724275648594">
        <ele>2366.9000000000001</ele>
        <time>2016-03-20T11:46:57Z</time>
      </trkpt>
      <trkpt lat="46.458181254565716" lon="11.631762078031898">
        <ele>2364.5</ele>
        <time>2016-03-20T11:47:02Z</time>
      </trkpt>
      <trkpt lat="46.458156360313296" lon="11.631767610087991">
        <ele>2363.54</ele>
        <time>2016-03-20T11:47:04Z</time>
      </trkpt>
      <trkpt lat="46.458098776638508" lon="11.631837347522378">
        <ele>2360.6500000000001</ele>
        <time>2016-03-20T11:47:11Z</time>
      </trkpt>
      <trkpt lat="46.45803096704185" lon="11.631764341145754">
        <ele>2357.77</ele>
        <time>2016-03-20T11:47:21Z</time>
      </trkpt>
      <trkpt lat="46.458023004233837" lon="11.63173533976078">
        <ele>2356.3299999999999</ele>
        <time>2016-03-20T11:47:24Z</time>
      </trkpt>
      <trkpt lat="46.458022752776742" lon="11.6317153070122">
        <ele>2355.8499999999999</ele>
        <time>2016-03-20T11:47:30Z</time>
      </trkpt>
      <trkpt lat="46.458022333681583" lon="11.631620675325394">
        <ele>2353.9299999999998</ele>
        <time>2016-03-20T11:47:36Z</time>
      </trkpt>
      <trkpt lat="46.4580197352916" lon="11.631606593728065">
        <ele>2353.4400000000001</ele>
        <time>2016-03-20T11:47:37Z</time>
      </trkpt>
      <trkpt lat="46.457999115809798" lon="11.631499389186502">
        <ele>2350.5599999999999</ele>
        <time>2016-03-20T11:47:44Z</time>
      </trkpt>
      <trkpt lat="46.457952596247196" lon="11.631372403353453">
        <ele>2347.1999999999998</ele>
        <time>2016-03-20T11:47:54Z</time>
      </trkpt>
      <trkpt lat="46.457862323150039" lon="11.631306353956461">
        <ele>2343.8299999999999</ele>
        <time>2016-03-20T11:48:04Z</time>
      </trkpt>
      <trkpt lat="46.457851845771074" lon="11.631296966224909">
        <ele>2343.8299999999999</ele>
        <time>2016-03-20T11:48:05Z</time>
      </trkpt>
      <trkpt lat="46.457821251824498" lon="11.631313897669315">
        <ele>2341.4299999999998</ele>
        <time>2016-03-20T11:48:15Z</time>
      </trkpt>
      <trkpt lat="46.457786215469241" lon="11.631310628727078">
        <ele>2340.4699999999998</ele>
        <time>2016-03-20T11:48:29Z</time>
      </trkpt>
      <trkpt lat="46.457698624581099" lon="11.631247764453292">
        <ele>2337.0999999999999</ele>
        <time>2016-03-20T11:48:39Z</time>
      </trkpt>
      <trkpt lat="46.457629390060902" lon="11.631193533539772">
        <ele>2334.2199999999998</ele>
        <time>2016-03-20T11:48:48Z</time>
      </trkpt>
      <trkpt lat="46.457546576857567" lon="11.631133602932096">
        <ele>2330.8499999999999</ele>
        <time>2016-03-20T11:48:57Z</time>
      </trkpt>
      <trkpt lat="46.457536183297634" lon="11.63113628514111">
        <ele>2330.8499999999999</ele>
        <time>2016-03-20T11:48:58Z</time>
      </trkpt>
      <trkpt lat="46.457506762817502" lon="11.631127903237939">
        <ele>2329.4099999999999</ele>
        <time>2016-03-20T11:49:01Z</time>
      </trkpt>
      <trkpt lat="46.457427721470594" lon="11.631161095574498">
        <ele>2325.5700000000002</ele>
        <time>2016-03-20T11:49:10Z</time>
      </trkpt>
      <trkpt lat="46.457388745620847" lon="11.631189174950123">
        <ele>2324.1199999999999</ele>
        <time>2016-03-20T11:49:14Z</time>
      </trkpt>
      <trkpt lat="46.457367287948728" lon="11.631195796653628">
        <ele>2322.6799999999998</ele>
        <time>2016-03-20T11:49:16Z</time>
      </trkpt>
      <trkpt lat="46.457267627120018" lon="11.63115874864161">
        <ele>2319.8000000000002</ele>
        <time>2016-03-20T11:49:24Z</time>
      </trkpt>
      <trkpt lat="46.457223705947399" lon="11.631024470552802">
        <ele>2316.4299999999998</ele>
        <time>2016-03-20T11:49:35Z</time>
      </trkpt>
      <trkpt lat="46.457205768674612" lon="11.630888599902391">
        <ele>2314.0300000000002</ele>
        <time>2016-03-20T11:49:46Z</time>
      </trkpt>
      <trkpt lat="46.45718757994473" lon="11.630859179422259">
        <ele>2312.5900000000001</ele>
        <time>2016-03-20T11:49:49Z</time>
      </trkpt>
      <trkpt lat="46.457143407315016" lon="11.630836799740791">
        <ele>2311.1500000000001</ele>
        <time>2016-03-20T11:49:53Z</time>
      </trkpt>
      <trkpt lat="46.457120440900326" lon="11.63085239008069">
        <ele>2310.6700000000001</ele>
        <time>2016-03-20T11:49:56Z</time>
      </trkpt>
      <trkpt lat="46.457082470878959" lon="11.630878541618586">
        <ele>2308.7399999999998</ele>
        <time>2016-03-20T11:50:01Z</time>
      </trkpt>
      <trkpt lat="46.457052128389478" lon="11.630909889936447">
        <ele>2306.8200000000002</ele>
        <time>2016-03-20T11:50:11Z</time>
      </trkpt>
      <trkpt lat="46.457041231915355" lon="11.630938053131104">
        <ele>2305.3800000000001</ele>
        <time>2016-03-20T11:50:14Z</time>
      </trkpt>
      <trkpt lat="46.45703318528831" lon="11.631014496088028">
        <ele>2302.98</ele>
        <time>2016-03-20T11:50:20Z</time>
      </trkpt>
      <trkpt lat="46.457003680989146" lon="11.631068056449294">
        <ele>2300.0900000000001</ele>
        <time>2016-03-20T11:50:27Z</time>
      </trkpt>
      <trkpt lat="46.456993371248245" lon="11.631111223250628">
        <ele>2298.1700000000001</ele>
        <time>2016-03-20T11:50:32Z</time>
      </trkpt>
      <trkpt lat="46.456973841413856" lon="11.631198478862643">
        <ele>2295.77</ele>
        <time>2016-03-20T11:50:41Z</time>
      </trkpt>
      <trkpt lat="46.456974344328046" lon="11.63126427680254">
        <ele>2293.8400000000001</ele>
        <time>2016-03-20T11:50:47Z</time>
      </trkpt>
      <trkpt lat="46.456906953826547" lon="11.631280118599534">
        <ele>2290.96</ele>
        <time>2016-03-20T11:50:54Z</time>
      </trkpt>
      <trkpt lat="46.456883987411857" lon="11.631383886560798">
        <ele>2287.1100000000001</ele>
        <time>2016-03-20T11:51:04Z</time>
      </trkpt>
      <trkpt lat="46.456850208342075" lon="11.631458653137088">
        <ele>2283.75</ele>
        <time>2016-03-20T11:51:12Z</time>
      </trkpt>
      <trkpt lat="46.45682062022388" lon="11.631483044475317">
        <ele>2282.79</ele>
        <time>2016-03-20T11:51:22Z</time>
      </trkpt>
      <trkpt lat="46.456814249977469" lon="11.631556050851941">
        <ele>2281.3499999999999</ele>
        <time>2016-03-20T11:51:26Z</time>
      </trkpt>
      <trkpt lat="46.45680159330368" lon="11.631605001166463">
        <ele>2279.9000000000001</ele>
        <time>2016-03-20T11:51:29Z</time>
      </trkpt>
      <trkpt lat="46.45678885281086" lon="11.631626877933741">
        <ele>2279.4200000000001</ele>
        <time>2016-03-20T11:51:31Z</time>
      </trkpt>
      <trkpt lat="46.456761863082647" lon="11.631714468821883">
        <ele>2276.0599999999999</ele>
        <time>2016-03-20T11:51:39Z</time>
      </trkpt>
      <trkpt lat="46.456774771213531" lon="11.631741961464286">
        <ele>2275.0999999999999</ele>
        <time>2016-03-20T11:51:41Z</time>
      </trkpt>
      <trkpt lat="46.456796731799841" lon="11.631760150194168">
        <ele>2273.6599999999999</ele>
        <time>2016-03-20T11:51:51Z</time>
      </trkpt>
      <trkpt lat="46.456768736243248" lon="11.631768029183149">
        <ele>2273.1700000000001</ele>
        <time>2016-03-20T11:52:08Z</time>
      </trkpt>
      <trkpt lat="46.456766221672297" lon="11.631760904565454">
        <ele>2272.21</ele>
        <time>2016-03-20T11:52:26Z</time>
      </trkpt>
      <trkpt lat="46.456733196973801" lon="11.631797114387155">
        <ele>2271.73</ele>
        <time>2016-03-20T11:52:48Z</time>
      </trkpt>
      <trkpt lat="46.456726239994168" lon="11.631771298125386">
        <ele>2271.73</ele>
        <time>2016-03-20T11:53:05Z</time>
      </trkpt>
      <trkpt lat="46.456781141459942" lon="11.631804490461946">
        <ele>2271.73</ele>
        <time>2016-03-20T11:53:19Z</time>
      </trkpt>
      <trkpt lat="46.456739818677306" lon="11.631802897900343">
        <ele>2271.25</ele>
        <time>2016-03-20T11:53:27Z</time>
      </trkpt>
      <trkpt lat="46.456670500338078" lon="11.631878921762109">
        <ele>2267.8899999999999</ele>
        <time>2016-03-20T11:53:39Z</time>
      </trkpt>
      <trkpt lat="46.456628926098347" lon="11.631942372769117">
        <ele>2265.48</ele>
        <time>2016-03-20T11:53:48Z</time>
      </trkpt>
      <trkpt lat="46.456579556688666" lon="11.632033316418529">
        <ele>2261.6399999999999</ele>
        <time>2016-03-20T11:53:57Z</time>
      </trkpt>
      <trkpt lat="46.456571258604527" lon="11.632059048861265">
        <ele>2261.1599999999999</ele>
        <time>2016-03-20T11:53:59Z</time>
      </trkpt>
      <trkpt lat="46.456542508676648" lon="11.632140772417188">
        <ele>2258.75</ele>
        <time>2016-03-20T11:54:05Z</time>
      </trkpt>
      <trkpt lat="46.456529265269637" lon="11.632219981402159">
        <ele>2256.3499999999999</ele>
        <time>2016-03-20T11:54:10Z</time>
      </trkpt>
      <trkpt lat="46.45645466633141" lon="11.632312936708331">
        <ele>2253.4699999999998</ele>
        <time>2016-03-20T11:54:19Z</time>
      </trkpt>
      <trkpt lat="46.456379815936089" lon="11.632395582273602">
        <ele>2250.0999999999999</ele>
        <time>2016-03-20T11:54:28Z</time>
      </trkpt>
      <trkpt lat="46.456340672448277" lon="11.632437324151397">
        <ele>2248.6599999999999</ele>
        <time>2016-03-20T11:54:32Z</time>
      </trkpt>
      <trkpt lat="46.456263978034258" lon="11.632492812350392">
        <ele>2245.3000000000002</ele>
        <time>2016-03-20T11:54:41Z</time>
      </trkpt>
      <trkpt lat="46.456202287226915" lon="11.632564309984446">
        <ele>2242.4099999999999</ele>
        <time>2016-03-20T11:54:50Z</time>
      </trkpt>
      <trkpt lat="46.456160545349121" lon="11.632597167044878">
        <ele>2240.4899999999998</ele>
        <time>2016-03-20T11:54:57Z</time>
      </trkpt>
      <trkpt lat="46.456056274473667" lon="11.632698085159063">
        <ele>2237.1300000000001</ele>
        <time>2016-03-20T11:55:07Z</time>
      </trkpt>
      <trkpt lat="46.456025345250964" lon="11.632748376578093">
        <ele>2235.1999999999998</ele>
        <time>2016-03-20T11:55:11Z</time>
      </trkpt>
      <trkpt lat="46.455948650836945" lon="11.632862370461226">
        <ele>2231.8400000000001</ele>
        <time>2016-03-20T11:55:22Z</time>
      </trkpt>
      <trkpt lat="46.45589274354279" lon="11.632933029904962">
        <ele>2229.9200000000001</ele>
        <time>2016-03-20T11:55:28Z</time>
      </trkpt>
      <trkpt lat="46.45587220788002" lon="11.632947949692607">
        <ele>2229.4299999999998</ele>
        <time>2016-03-20T11:55:30Z</time>
      </trkpt>
      <trkpt lat="46.455755364149809" lon="11.633057668805122">
        <ele>2226.5500000000002</ele>
        <time>2016-03-20T11:55:41Z</time>
      </trkpt>
      <trkpt lat="46.455804146826267" lon="11.633040150627494">
        <ele>2225.5900000000001</ele>
        <time>2016-03-20T11:55:57Z</time>
      </trkpt>
      <trkpt lat="46.455707587301731" lon="11.633166801184416">
        <ele>2222.71</ele>
        <time>2016-03-20T11:56:07Z</time>
      </trkpt>
      <trkpt lat="46.455652434378862" lon="11.633300157263875">
        <ele>2220.3000000000002</ele>
        <time>2016-03-20T11:56:17Z</time>
      </trkpt>
      <trkpt lat="46.455656960606575" lon="11.633324716240168">
        <ele>2218.8600000000001</ele>
        <time>2016-03-20T11:56:26Z</time>
      </trkpt>
      <trkpt lat="46.455657547339797" lon="11.633375594392419">
        <ele>2216.9400000000001</ele>
        <time>2016-03-20T11:56:30Z</time>
      </trkpt>
      <trkpt lat="46.455668611451983" lon="11.633391352370381">
        <ele>2215.0100000000002</ele>
        <time>2016-03-20T11:56:40Z</time>
      </trkpt>
      <trkpt lat="46.455616727471352" lon="11.633434602990746">
        <ele>2214.0500000000002</ele>
        <time>2016-03-20T11:56:51Z</time>
      </trkpt>
      <trkpt lat="46.455530058592558" lon="11.633545327931643">
        <ele>2211.6500000000001</ele>
        <time>2016-03-20T11:57:02Z</time>
      </trkpt>
      <trkpt lat="46.455503655597568" lon="11.633557062596083">
        <ele>2210.6900000000001</ele>
        <time>2016-03-20T11:57:05Z</time>
      </trkpt>
      <trkpt lat="46.455391254276037" lon="11.63360483944416">
        <ele>2207.8099999999999</ele>
        <time>2016-03-20T11:57:16Z</time>
      </trkpt>
      <trkpt lat="46.455298215150833" lon="11.633645659312606">
        <ele>2204.4400000000001</ele>
        <time>2016-03-20T11:57:27Z</time>
      </trkpt>
      <trkpt lat="46.45519251935184" lon="11.633676337078214">
        <ele>2201.5599999999999</ele>
        <time>2016-03-20T11:57:37Z</time>
      </trkpt>
      <trkpt lat="46.455100402235985" lon="11.633712630718946">
        <ele>2199.1500000000001</ele>
        <time>2016-03-20T11:57:46Z</time>
      </trkpt>
      <trkpt lat="46.455075088888407" lon="11.633690083399415">
        <ele>2197.71</ele>
        <time>2016-03-20T11:57:54Z</time>
      </trkpt>
      <trkpt lat="46.454951539635658" lon="11.633731825277209">
        <ele>2195.3099999999999</ele>
        <time>2016-03-20T11:58:05Z</time>
      </trkpt>
      <trkpt lat="46.454843245446682" lon="11.63371916860342">
        <ele>2192.9000000000001</ele>
        <time>2016-03-20T11:58:14Z</time>
      </trkpt>
      <trkpt lat="46.45478306338191" lon="11.633705925196409">
        <ele>2191.9400000000001</ele>
        <time>2016-03-20T11:58:19Z</time>
      </trkpt>
      <trkpt lat="46.454746266826987" lon="11.633696453645825">
        <ele>2191.46</ele>
        <time>2016-03-20T11:58:23Z</time>
      </trkpt>
      <trkpt lat="46.454694969579577" lon="11.633733501657844">
        <ele>2190.02</ele>
        <time>2016-03-20T11:58:28Z</time>
      </trkpt>
      <trkpt lat="46.454581310972571" lon="11.633790330961347">
        <ele>2188.0999999999999</ele>
        <time>2016-03-20T11:58:38Z</time>
      </trkpt>
      <trkpt lat="46.454460192471743" lon="11.633810112252831">
        <ele>2185.21</ele>
        <time>2016-03-20T11:58:49Z</time>
      </trkpt>
      <trkpt lat="46.454308228567243" lon="11.633816147223115">
        <ele>2182.8099999999999</ele>
        <time>2016-03-20T11:59:01Z</time>
      </trkpt>
      <trkpt lat="46.454205550253391" lon="11.633766191080213">
        <ele>2180.4099999999999</ele>
        <time>2016-03-20T11:59:11Z</time>
      </trkpt>
      <trkpt lat="46.454161796718836" lon="11.63375630043447">
        <ele>2179.9299999999998</ele>
        <time>2016-03-20T11:59:16Z</time>
      </trkpt>
      <trkpt lat="46.454043779522181" lon="11.633797958493233">
        <ele>2178</ele>
        <time>2016-03-20T11:59:27Z</time>
      </trkpt>
      <trkpt lat="46.453954847529531" lon="11.633812543004751">
        <ele>2176.0799999999999</ele>
        <time>2016-03-20T11:59:36Z</time>
      </trkpt>
      <trkpt lat="46.45383607596159" lon="11.633853111416101">
        <ele>2173.1999999999998</ele>
        <time>2016-03-20T11:59:48Z</time>
      </trkpt>
      <trkpt lat="46.453743288293481" lon="11.633879849687219">
        <ele>2171.7600000000002</ele>
        <time>2016-03-20T11:59:57Z</time>
      </trkpt>
      <trkpt lat="46.453622505068779" lon="11.633919915184379">
        <ele>2169.8299999999999</ele>
        <time>2016-03-20T12:00:07Z</time>
      </trkpt>
      <trkpt lat="46.453520664945245" lon="11.633960315957665">
        <ele>2168.3899999999999</ele>
        <time>2016-03-20T12:00:16Z</time>
      </trkpt>
      <trkpt lat="46.453413628041744" lon="11.634041536599398">
        <ele>2166.4699999999998</ele>
        <time>2016-03-20T12:00:27Z</time>
      </trkpt>
      <trkpt lat="46.453293934464455" lon="11.6340949293226">
        <ele>2163.5799999999999</ele>
        <time>2016-03-20T12:00:38Z</time>
      </trkpt>
      <trkpt lat="46.453283289447427" lon="11.634098617359996">
        <ele>2163.5799999999999</ele>
        <time>2016-03-20T12:00:39Z</time>
      </trkpt>
      <trkpt lat="46.453173821792006" lon="11.634159218519926">
        <ele>2163.0999999999999</ele>
        <time>2016-03-20T12:00:50Z</time>
      </trkpt>
      <trkpt lat="46.453092601150274" lon="11.63420045748353">
        <ele>2159.7399999999998</ele>
        <time>2016-03-20T12:01:00Z</time>
      </trkpt>
      <trkpt lat="46.453083548694849" lon="11.634200708940625">
        <ele>2159.7399999999998</ele>
        <time>2016-03-20T12:01:01Z</time>
      </trkpt>
      <trkpt lat="46.452985228970647" lon="11.634245049208403">
        <ele>2158.3000000000002</ele>
        <time>2016-03-20T12:01:11Z</time>
      </trkpt>
      <trkpt lat="46.45296779461205" lon="11.634258795529604">
        <ele>2158.3000000000002</ele>
        <time>2016-03-20T12:01:13Z</time>
      </trkpt>
      <trkpt lat="46.452848017215729" lon="11.634359713643789">
        <ele>2155.4099999999999</ele>
        <time>2016-03-20T12:01:25Z</time>
      </trkpt>
      <trkpt lat="46.452759085223079" lon="11.634450489655137">
        <ele>2153.4899999999998</ele>
        <time>2016-03-20T12:01:35Z</time>
      </trkpt>
      <trkpt lat="46.452713487669826" lon="11.634483681991696">
        <ele>2153.0100000000002</ele>
        <time>2016-03-20T12:01:40Z</time>
      </trkpt>
      <trkpt lat="46.452631177380681" lon="11.634610667824745">
        <ele>2151.0900000000001</ele>
        <time>2016-03-20T12:01:51Z</time>
      </trkpt>
      <trkpt lat="46.452568983659148" lon="11.634715776890516">
        <ele>2148.6799999999998</ele>
        <time>2016-03-20T12:02:01Z</time>
      </trkpt>
      <trkpt lat="46.452520536258817" lon="11.634813090786338">
        <ele>2147.7199999999998</ele>
        <time>2016-03-20T12:02:09Z</time>
      </trkpt>
      <trkpt lat="46.45243470557034" lon="11.634928341954947">
        <ele>2145.3200000000002</ele>
        <time>2016-03-20T12:02:20Z</time>
      </trkpt>
      <trkpt lat="46.452350383624434" lon="11.635060273110867">
        <ele>2143.4000000000001</ele>
        <time>2016-03-20T12:02:33Z</time>
      </trkpt>
      <trkpt lat="46.452248878777027" lon="11.635196814313531">
        <ele>2141.9499999999998</ele>
        <time>2016-03-20T12:02:45Z</time>
      </trkpt>
      <trkpt lat="46.452141925692558" lon="11.635324638336897">
        <ele>2140.0300000000002</ele>
        <time>2016-03-20T12:02:56Z</time>
      </trkpt>
      <trkpt lat="46.452054586261511" lon="11.635463275015354">
        <ele>2138.1100000000001</ele>
        <time>2016-03-20T12:03:07Z</time>
      </trkpt>
      <trkpt lat="46.451988872140646" lon="11.635584644973278">
        <ele>2136.6700000000001</ele>
        <time>2016-03-20T12:03:17Z</time>
      </trkpt>
      <trkpt lat="46.451907316222787" lon="11.635717581957579">
        <ele>2134.7399999999998</ele>
        <time>2016-03-20T12:03:28Z</time>
      </trkpt>
      <trkpt lat="46.451801620423794" lon="11.635828223079443">
        <ele>2133.3000000000002</ele>
        <time>2016-03-20T12:03:39Z</time>
      </trkpt>
      <trkpt lat="46.45167681388557" lon="11.63598689250648">
        <ele>2130.4200000000001</ele>
        <time>2016-03-20T12:03:54Z</time>
      </trkpt>
      <trkpt lat="46.45158788189292" lon="11.636106753721833">
        <ele>2129.46</ele>
        <time>2016-03-20T12:04:05Z</time>
      </trkpt>
      <trkpt lat="46.451482689008117" lon="11.636172803118825">
        <ele>2127.5300000000002</ele>
        <time>2016-03-20T12:04:16Z</time>
      </trkpt>
      <trkpt lat="46.451386716216803" lon="11.636189986020327">
        <ele>2127.0500000000002</ele>
        <time>2016-03-20T12:04:26Z</time>
      </trkpt>
      <trkpt lat="46.451367773115635" lon="11.636182693764567">
        <ele>2126.0900000000001</ele>
        <time>2016-03-20T12:04:39Z</time>
      </trkpt>
      <trkpt lat="46.4513298869133" lon="11.63620482198894">
        <ele>2125.6100000000001</ele>
        <time>2016-03-20T12:04:44Z</time>
      </trkpt>
      <trkpt lat="46.451197452843189" lon="11.636311523616314">
        <ele>2124.1700000000001</ele>
        <time>2016-03-20T12:04:57Z</time>
      </trkpt>
      <trkpt lat="46.451142383739352" lon="11.636369861662388">
        <ele>2124.1700000000001</ele>
        <time>2016-03-20T12:05:08Z</time>
      </trkpt>
      <trkpt lat="46.451062504202127" lon="11.636448735371232">
        <ele>2123.21</ele>
        <time>2016-03-20T12:05:19Z</time>
      </trkpt>
      <trkpt lat="46.450917078182101" lon="11.636537499725819">
        <ele>2122.73</ele>
        <time>2016-03-20T12:05:30Z</time>
      </trkpt>
      <trkpt lat="46.450787913054228" lon="11.636574547737837">
        <ele>2121.29</ele>
        <time>2016-03-20T12:05:41Z</time>
      </trkpt>
      <trkpt lat="46.450738459825516" lon="11.636714106425643">
        <ele>2118.8800000000001</ele>
        <time>2016-03-20T12:05:52Z</time>
      </trkpt>
      <trkpt lat="46.450586915016174" lon="11.636788956820965">
        <ele>2116.96</ele>
        <time>2016-03-20T12:06:05Z</time>
      </trkpt>
      <trkpt lat="46.450460935011506" lon="11.636861292645335">
        <ele>2115.04</ele>
        <time>2016-03-20T12:06:16Z</time>
      </trkpt>
      <trkpt lat="46.450358759611845" lon="11.63692994043231">
        <ele>2113.5999999999999</ele>
        <time>2016-03-20T12:06:27Z</time>
      </trkpt>
      <trkpt lat="46.450249459594488" lon="11.637007473036647">
        <ele>2112.1500000000001</ele>
        <time>2016-03-20T12:06:38Z</time>
      </trkpt>
      <trkpt lat="46.450147787109017" lon="11.637034211307764">
        <ele>2111.1900000000001</ele>
        <time>2016-03-20T12:06:49Z</time>
      </trkpt>
      <trkpt lat="46.450017029419541" lon="11.637047119438648">
        <ele>2109.75</ele>
        <time>2016-03-20T12:07:00Z</time>
      </trkpt>
      <trkpt lat="46.449901778250933" lon="11.637089112773538">
        <ele>2108.3099999999999</ele>
        <time>2016-03-20T12:07:10Z</time>
      </trkpt>
      <trkpt lat="46.449786359444261" lon="11.637177625671029">
        <ele>2105.4200000000001</ele>
        <time>2016-03-20T12:07:22Z</time>
      </trkpt>
      <trkpt lat="46.449692649766803" lon="11.637251973152161">
        <ele>2102.0599999999999</ele>
        <time>2016-03-20T12:07:33Z</time>
      </trkpt>
      <trkpt lat="46.449683764949441" lon="11.637259349226952">
        <ele>2102.0599999999999</ele>
        <time>2016-03-20T12:07:34Z</time>
      </trkpt>
      <trkpt lat="46.449639843776822" lon="11.637284243479371">
        <ele>2100.1399999999999</ele>
        <time>2016-03-20T12:07:41Z</time>
      </trkpt>
      <trkpt lat="46.449507158249617" lon="11.637317268177867">
        <ele>2096.77</ele>
        <time>2016-03-20T12:07:53Z</time>
      </trkpt>
      <trkpt lat="46.449430882930756" lon="11.637381305918097">
        <ele>2093.4099999999999</ele>
        <time>2016-03-20T12:08:02Z</time>
      </trkpt>
      <trkpt lat="46.449389476329088" lon="11.637490773573518">
        <ele>2091</ele>
        <time>2016-03-20T12:08:10Z</time>
      </trkpt>
      <trkpt lat="46.449385955929756" lon="11.63751382380724">
        <ele>2090.52</ele>
        <time>2016-03-20T12:08:12Z</time>
      </trkpt>
      <trkpt lat="46.449418310075998" lon="11.637558750808239">
        <ele>2089.5599999999999</ele>
        <time>2016-03-20T12:08:22Z</time>
      </trkpt>
      <trkpt lat="46.449449323117733" lon="11.637545675039291">
        <ele>2089.5599999999999</ele>
        <time>2016-03-20T12:08:36Z</time>
      </trkpt>
      <trkpt lat="46.449458124116063" lon="11.637566378340125">
        <ele>2088.1199999999999</ele>
        <time>2016-03-20T12:09:00Z</time>
      </trkpt>
      <trkpt lat="46.449453765526414" lon="11.63758029229939">
        <ele>2087.6399999999999</ele>
        <time>2016-03-20T12:09:07Z</time>
      </trkpt>
      <trkpt lat="46.449387464672327" lon="11.637585572898388">
        <ele>2088.1199999999999</ele>
        <time>2016-03-20T12:09:11Z</time>
      </trkpt>
      <trkpt lat="46.449271123856306" lon="11.637479122728109">
        <ele>2084.7600000000002</ele>
        <time>2016-03-20T12:09:22Z</time>
      </trkpt>
      <trkpt lat="46.449270788580179" lon="11.63746252655983">
        <ele>2084.7600000000002</ele>
        <time>2016-03-20T12:09:23Z</time>
      </trkpt>
      <trkpt lat="46.449268609285355" lon="11.637300420552492">
        <ele>2081.3899999999999</ele>
        <time>2016-03-20T12:09:32Z</time>
      </trkpt>
      <trkpt lat="46.449273638427258" lon="11.637245770543814">
        <ele>2080.4299999999998</ele>
        <time>2016-03-20T12:09:35Z</time>
      </trkpt>
      <trkpt lat="46.449237847700715" lon="11.637173099443316">
        <ele>2078.5100000000002</ele>
        <time>2016-03-20T12:09:40Z</time>
      </trkpt>
      <trkpt lat="46.4492092654109" lon="11.637141667306423">
        <ele>2077.5500000000002</ele>
        <time>2016-03-20T12:09:43Z</time>
      </trkpt>
      <trkpt lat="46.449059480801225" lon="11.637142086401582">
        <ele>2075.1399999999999</ele>
        <time>2016-03-20T12:09:55Z</time>
      </trkpt>
      <trkpt lat="46.448978092521429" lon="11.637193467468023">
        <ele>2072.2600000000002</ele>
        <time>2016-03-20T12:10:06Z</time>
      </trkpt>
      <trkpt lat="46.448949510231614" lon="11.637200843542814">
        <ele>2071.3000000000002</ele>
        <time>2016-03-20T12:10:09Z</time>
      </trkpt>
      <trkpt lat="46.449001729488373" lon="11.637349873781204">
        <ele>2067.4499999999998</ele>
        <time>2016-03-20T12:10:19Z</time>
      </trkpt>
      <trkpt lat="46.449020756408572" lon="11.637405529618263">
        <ele>2066.9699999999998</ele>
        <time>2016-03-20T12:10:23Z</time>
      </trkpt>
      <trkpt lat="46.449025869369507" lon="11.637455821037292">
        <ele>2065.5300000000002</ele>
        <time>2016-03-20T12:10:26Z</time>
      </trkpt>
      <trkpt lat="46.448965854942799" lon="11.637596217915416">
        <ele>2062.1700000000001</ele>
        <time>2016-03-20T12:10:35Z</time>
      </trkpt>
      <trkpt lat="46.448956970125437" lon="11.63764868862927">
        <ele>2061.1999999999998</ele>
        <time>2016-03-20T12:10:38Z</time>
      </trkpt>
      <trkpt lat="46.448949258774519" lon="11.637719683349133">
        <ele>2059.2800000000002</ele>
        <time>2016-03-20T12:10:42Z</time>
      </trkpt>
      <trkpt lat="46.44894297234714" lon="11.637759245932102">
        <ele>2058.3200000000002</ele>
        <time>2016-03-20T12:10:44Z</time>
      </trkpt>
      <trkpt lat="46.448929309844971" lon="11.637822780758142">
        <ele>2056.8800000000001</ele>
        <time>2016-03-20T12:10:55Z</time>
      </trkpt>
      <trkpt lat="46.448911372572184" lon="11.637856140732765">
        <ele>2055.9200000000001</ele>
        <time>2016-03-20T12:11:07Z</time>
      </trkpt>
      <trkpt lat="46.448930567130446" lon="11.637835772708058">
        <ele>2054.96</ele>
        <time>2016-03-20T12:11:24Z</time>
      </trkpt>
      <trkpt lat="46.448915144428611" lon="11.637872233986855">
        <ele>2054.4699999999998</ele>
        <time>2016-03-20T12:11:41Z</time>
      </trkpt>
      <trkpt lat="46.448912965133786" lon="11.637923698872328">
        <ele>2052.5500000000002</ele>
        <time>2016-03-20T12:11:55Z</time>
      </trkpt>
      <trkpt lat="46.448907433077693" lon="11.637935852631927">
        <ele>2052.0700000000002</ele>
        <time>2016-03-20T12:11:56Z</time>
      </trkpt>
      <trkpt lat="46.448904164135456" lon="11.637942893430591">
        <ele>2052.0700000000002</ele>
        <time>2016-03-20T12:12:00Z</time>
      </trkpt>
      <trkpt lat="46.448799138888717" lon="11.638090163469315">
        <ele>2048.71</ele>
        <time>2016-03-20T12:12:12Z</time>
      </trkpt>
      <trkpt lat="46.448704842478037" lon="11.638218574225903">
        <ele>2046.3</ele>
        <time>2016-03-20T12:12:23Z</time>
      </trkpt>
      <trkpt lat="46.448578778654337" lon="11.638342123478651">
        <ele>2043.9000000000001</ele>
        <time>2016-03-20T12:12:35Z</time>
      </trkpt>
      <trkpt lat="46.448448272421956" lon="11.638445388525724">
        <ele>2041.5</ele>
        <time>2016-03-20T12:12:47Z</time>
      </trkpt>
      <trkpt lat="46.448315503075719" lon="11.638547983020544">
        <ele>2039.0899999999999</ele>
        <time>2016-03-20T12:12:59Z</time>
      </trkpt>
      <trkpt lat="46.448197904974222" lon="11.6386245097965">
        <ele>2036.6900000000001</ele>
        <time>2016-03-20T12:13:10Z</time>
      </trkpt>
      <trkpt lat="46.448046946898103" lon="11.638772031292319">
        <ele>2033.8099999999999</ele>
        <time>2016-03-20T12:13:24Z</time>
      </trkpt>
      <trkpt lat="46.447983328253031" lon="11.638911506161094">
        <ele>2031.8800000000001</ele>
        <time>2016-03-20T12:13:35Z</time>
      </trkpt>
      <trkpt lat="46.447880901396275" lon="11.639055758714676">
        <ele>2029.96</ele>
        <time>2016-03-20T12:13:48Z</time>
      </trkpt>
      <trkpt lat="46.447806134819984" lon="11.639188947156072">
        <ele>2028.52</ele>
        <time>2016-03-20T12:14:00Z</time>
      </trkpt>
      <trkpt lat="46.447730446234345" lon="11.639326494187117">
        <ele>2026.5999999999999</ele>
        <time>2016-03-20T12:14:12Z</time>
      </trkpt>
      <trkpt lat="46.44766079261899" lon="11.639481391757727">
        <ele>2025.1500000000001</ele>
        <time>2016-03-20T12:14:23Z</time>
      </trkpt>
      <trkpt lat="46.447603544220328" lon="11.639566635712981">
        <ele>2023.71</ele>
        <time>2016-03-20T12:14:34Z</time>
      </trkpt>
      <trkpt lat="46.447608908638358" lon="11.639543166384101">
        <ele>2022.27</ele>
        <time>2016-03-20T12:14:46Z</time>
      </trkpt>
      <trkpt lat="46.447592312470078" lon="11.639513997361064">
        <ele>2022.27</ele>
        <time>2016-03-20T12:15:01Z</time>
      </trkpt>
      <trkpt lat="46.447607735171914" lon="11.639520283788443">
        <ele>2022.27</ele>
        <time>2016-03-20T12:15:14Z</time>
      </trkpt>
      <trkpt lat="46.44759139046073" lon="11.639528581872582">
        <ele>2021.79</ele>
        <time>2016-03-20T12:15:26Z</time>
      </trkpt>
      <trkpt lat="46.447580410167575" lon="11.639554649591446">
        <ele>2021.79</ele>
        <time>2016-03-20T12:15:40Z</time>
      </trkpt>
      <trkpt lat="46.447573034092784" lon="11.639552973210812">
        <ele>2021.79</ele>
        <time>2016-03-20T12:15:50Z</time>
      </trkpt>
      <trkpt lat="46.447569681331515" lon="11.639558421447873">
        <ele>2020.3499999999999</ele>
        <time>2016-03-20T12:16:06Z</time>
      </trkpt>
      <trkpt lat="46.447567921131849" lon="11.639566468074918">
        <ele>2020.3499999999999</ele>
        <time>2016-03-20T12:16:19Z</time>
      </trkpt>
      <trkpt lat="46.447558449581265" lon="11.639588847756386">
        <ele>2019.3900000000001</ele>
        <time>2016-03-20T12:16:28Z</time>
      </trkpt>
      <trkpt lat="46.447533974424005" lon="11.639685239642859">
        <ele>2018.4300000000001</ele>
        <time>2016-03-20T12:16:40Z</time>
      </trkpt>
      <trkpt lat="46.447532884776592" lon="11.639693537726998">
        <ele>2017.9400000000001</ele>
        <time>2016-03-20T12:16:42Z</time>
      </trkpt>
      <trkpt lat="46.447424674406648" lon="11.639855057001114">
        <ele>2016.02</ele>
        <time>2016-03-20T12:16:54Z</time>
      </trkpt>
      <trkpt lat="46.447355858981609" lon="11.639925045892596">
        <ele>2014.5799999999999</ele>
        <time>2016-03-20T12:17:01Z</time>
      </trkpt>
      <trkpt lat="46.44720540381968" lon="11.639927057549357">
        <ele>2011.7</ele>
        <time>2016-03-20T12:17:14Z</time>
      </trkpt>
      <trkpt lat="46.447069784626365" lon="11.640002075582743">
        <ele>2009.29</ele>
        <time>2016-03-20T12:17:25Z</time>
      </trkpt>
      <trkpt lat="46.447058552876115" lon="11.64004247635603">
        <ele>2009.29</ele>
        <time>2016-03-20T12:17:28Z</time>
      </trkpt>
      <trkpt lat="46.447060815989971" lon="11.640083212405443">
        <ele>2009.29</ele>
        <time>2016-03-20T12:17:31Z</time>
      </trkpt>
      <trkpt lat="46.44707246683538" lon="11.64013777859509">
        <ele>2008.8099999999999</ele>
        <time>2016-03-20T12:17:36Z</time>
      </trkpt>
      <trkpt lat="46.447042291983962" lon="11.640188908204436">
        <ele>2008.3299999999999</ele>
        <time>2016-03-20T12:17:42Z</time>
      </trkpt>
      <trkpt lat="46.447085123509169" lon="11.640201061964035">
        <ele>2006.4100000000001</ele>
        <time>2016-03-20T12:17:53Z</time>
      </trkpt>
      <trkpt lat="46.44711253233254" lon="11.640248587355018">
        <ele>2007.3699999999999</ele>
        <time>2016-03-20T12:18:01Z</time>
      </trkpt>
      <trkpt lat="46.447097444906831" lon="11.640240708366036">
        <ele>2006.8900000000001</ele>
        <time>2016-03-20T12:18:11Z</time>
      </trkpt>
      <trkpt lat="46.447099624201655" lon="11.640241127461195">
        <ele>2006.4100000000001</ele>
        <time>2016-03-20T12:18:20Z</time>
      </trkpt>
      <trkpt lat="46.447103982791305" lon="11.640235092490911">
        <ele>2005.9300000000001</ele>
        <time>2016-03-20T12:18:30Z</time>
      </trkpt>
      <trkpt lat="46.447105994448066" lon="11.640231739729643">
        <ele>2004.97</ele>
        <time>2016-03-20T12:18:55Z</time>
      </trkpt>
      <trkpt lat="46.447102474048734" lon="11.640235846862197">
        <ele>2004.49</ele>
        <time>2016-03-20T12:19:18Z</time>
      </trkpt>
      <trkpt lat="46.447096522897482" lon="11.640236685052514">
        <ele>2004.01</ele>
        <time>2016-03-20T12:19:42Z</time>
      </trkpt>
      <trkpt lat="46.447111610323191" lon="11.640220424160361">
        <ele>2003.52</ele>
        <time>2016-03-20T12:20:04Z</time>
      </trkpt>
      <trkpt lat="46.44712476991117" lon="11.640217574313283">
        <ele>2002.5599999999999</ele>
        <time>2016-03-20T12:20:29Z</time>
      </trkpt>
      <trkpt lat="46.447127871215343" lon="11.640212126076221">
        <ele>2002.5599999999999</ele>
        <time>2016-03-20T12:20:50Z</time>
      </trkpt>
      <trkpt lat="46.447129547595978" lon="11.640216568484902">
        <ele>2001.1199999999999</ele>
        <time>2016-03-20T12:21:10Z</time>
      </trkpt>
      <trkpt lat="46.447116807103157" lon="11.64021204225719">
        <ele>2000.6400000000001</ele>
        <time>2016-03-20T12:21:31Z</time>
      </trkpt>
      <trkpt lat="46.447094762697816" lon="11.64022084325552">
        <ele>2000.1600000000001</ele>
        <time>2016-03-20T12:21:49Z</time>
      </trkpt>
      <trkpt lat="46.44709694199264" lon="11.64020131342113">
        <ele>1999.6800000000001</ele>
        <time>2016-03-20T12:22:08Z</time>
      </trkpt>
      <trkpt lat="46.447088643908501" lon="11.640180945396423">
        <ele>1999.2</ele>
        <time>2016-03-20T12:22:28Z</time>
      </trkpt>
      <trkpt lat="46.447085877880454" lon="11.640238277614117">
        <ele>1998.72</ele>
        <time>2016-03-20T12:22:46Z</time>
      </trkpt>
      <trkpt lat="46.447057966142893" lon="11.640275744721293">
        <ele>1998.24</ele>
        <time>2016-03-20T12:23:19Z</time>
      </trkpt>
      <trkpt lat="46.447077663615346" lon="11.640253532677889">
        <ele>1997.76</ele>
        <time>2016-03-20T12:23:31Z</time>
      </trkpt>
      <trkpt lat="46.44710817374289" lon="11.64021891541779">
        <ele>1996.8</ele>
        <time>2016-03-20T12:24:02Z</time>
      </trkpt>
      <trkpt lat="46.447100043296814" lon="11.640243558213115">
        <ele>1995.8299999999999</ele>
        <time>2016-03-20T12:24:27Z</time>
      </trkpt>
      <trkpt lat="46.447082776576281" lon="11.640254538506269">
        <ele>1995.3499999999999</ele>
        <time>2016-03-20T12:24:52Z</time>
      </trkpt>
      <trkpt lat="46.447106916457415" lon="11.640223441645503">
        <ele>1995.3499999999999</ele>
        <time>2016-03-20T12:25:09Z</time>
      </trkpt>
      <trkpt lat="46.447133235633373" lon="11.640230314806104">
        <ele>1994.8699999999999</ele>
        <time>2016-03-20T12:25:32Z</time>
      </trkpt>
      <trkpt lat="46.447121081873775" lon="11.640204750001431">
        <ele>1994.3900000000001</ele>
        <time>2016-03-20T12:25:52Z</time>
      </trkpt>
      <trkpt lat="46.44711546599865" lon="11.640212628990412">
        <ele>1993.9100000000001</ele>
        <time>2016-03-20T12:26:16Z</time>
      </trkpt>
      <trkpt lat="46.44709300249815" lon="11.640219083055854">
        <ele>1993.4300000000001</ele>
        <time>2016-03-20T12:26:41Z</time>
      </trkpt>
      <trkpt lat="46.447103479877114" lon="11.640207096934319">
        <ele>1992.95</ele>
        <time>2016-03-20T12:27:01Z</time>
      </trkpt>
      <trkpt lat="46.447080262005329" lon="11.640201145783067">
        <ele>1992.47</ele>
        <time>2016-03-20T12:27:35Z</time>
      </trkpt>
      <trkpt lat="46.447102976962924" lon="11.64020718075335">
        <ele>1991.99</ele>
        <time>2016-03-20T12:27:51Z</time>
      </trkpt>
      <trkpt lat="46.447083698585629" lon="11.640209695324302">
        <ele>1991.99</ele>
        <time>2016-03-20T12:28:03Z</time>
      </trkpt>
      <trkpt lat="46.447079759091139" lon="11.640225201845169">
        <ele>1991.03</ele>
        <time>2016-03-20T12:28:23Z</time>
      </trkpt>
      <trkpt lat="46.447079423815012" lon="11.640226794406772">
        <ele>1990.55</ele>
        <time>2016-03-20T12:28:46Z</time>
      </trkpt>
      <trkpt lat="46.447075484320521" lon="11.640236601233482">
        <ele>1990.55</ele>
        <time>2016-03-20T12:29:11Z</time>
      </trkpt>
      <trkpt lat="46.447069365531206" lon="11.640230985358357">
        <ele>1990.0699999999999</ele>
        <time>2016-03-20T12:29:32Z</time>
      </trkpt>
      <trkpt lat="46.447078417986631" lon="11.640245402231812">
        <ele>1989.5899999999999</ele>
        <time>2016-03-20T12:29:56Z</time>
      </trkpt>
      <trkpt lat="46.447091829031706" lon="11.640242049470544">
        <ele>1989.0999999999999</ele>
        <time>2016-03-20T12:30:24Z</time>
      </trkpt>
      <trkpt lat="46.447097277268767" lon="11.640245066955686">
        <ele>1988.6199999999999</ele>
        <time>2016-03-20T12:30:50Z</time>
      </trkpt>
      <trkpt lat="46.44709006883204" lon="11.640236936509609">
        <ele>1988.1400000000001</ele>
        <time>2016-03-20T12:31:18Z</time>
      </trkpt>
      <trkpt lat="46.447095097973943" lon="11.640258897095919">
        <ele>1987.6600000000001</ele>
        <time>2016-03-20T12:31:42Z</time>
      </trkpt>
      <trkpt lat="46.447073137387633" lon="11.640264093875885">
        <ele>1987.1800000000001</ele>
        <time>2016-03-20T12:32:03Z</time>
      </trkpt>
      <trkpt lat="46.447065677493811" lon="11.640252023935318">
        <ele>1986.7</ele>
        <time>2016-03-20T12:32:30Z</time>
      </trkpt>
      <trkpt lat="46.447098618373275" lon="11.64024330675602">
        <ele>1986.7</ele>
        <time>2016-03-20T12:32:45Z</time>
      </trkpt>
      <trkpt lat="46.447079675272107" lon="11.640224447473884">
        <ele>1986.22</ele>
        <time>2016-03-20T12:33:02Z</time>
      </trkpt>
      <trkpt lat="46.447092834860086" lon="11.640219250693917">
        <ele>1985.74</ele>
        <time>2016-03-20T12:33:30Z</time>
      </trkpt>
      <trkpt lat="46.447093170136213" lon="11.640217574313283">
        <ele>1985.26</ele>
        <time>2016-03-20T12:33:54Z</time>
      </trkpt>
      <trkpt lat="46.44708713516593" lon="11.640224112197757">
        <ele>1984.78</ele>
        <time>2016-03-20T12:34:13Z</time>
      </trkpt>
      <trkpt lat="46.447090236470103" lon="11.640237774699926">
        <ele>1984.3</ele>
        <time>2016-03-20T12:34:32Z</time>
      </trkpt>
      <trkpt lat="46.447104820981622" lon="11.640203325077891">
        <ele>1984.3</ele>
        <time>2016-03-20T12:34:56Z</time>
      </trkpt>
      <trkpt lat="46.447103228420019" lon="11.640208354219794">
        <ele>1983.8199999999999</ele>
        <time>2016-03-20T12:35:23Z</time>
      </trkpt>
      <trkpt lat="46.447085458785295" lon="11.64022427983582">
        <ele>1983.8199999999999</ele>
        <time>2016-03-20T12:35:51Z</time>
      </trkpt>
      <trkpt lat="46.447079675272107" lon="11.640235763043165">
        <ele>1983.3399999999999</ele>
        <time>2016-03-20T12:36:19Z</time>
      </trkpt>
      <trkpt lat="46.447088224813342" lon="11.640238277614117">
        <ele>1982.8599999999999</ele>
        <time>2016-03-20T12:36:41Z</time>
      </trkpt>
      <trkpt lat="46.447115549817681" lon="11.640197541564703">
        <ele>1982.3800000000001</ele>
        <time>2016-03-20T12:37:03Z</time>
      </trkpt>
      <trkpt lat="46.447119321674109" lon="11.64021254517138">
        <ele>1981.9000000000001</ele>
        <time>2016-03-20T12:37:29Z</time>
      </trkpt>
      <trkpt lat="46.447100881487131" lon="11.640219753608108">
        <ele>1981.9000000000001</ele>
        <time>2016-03-20T12:37:53Z</time>
      </trkpt>
      <trkpt lat="46.447112616151571" lon="11.640236433595419">
        <ele>1981.4100000000001</ele>
        <time>2016-03-20T12:38:08Z</time>
      </trkpt>
      <trkpt lat="46.447114292532206" lon="11.640216317027807">
        <ele>1981.4100000000001</ele>
        <time>2016-03-20T12:38:27Z</time>
      </trkpt>
      <trkpt lat="46.447097444906831" lon="11.640202738344669">
        <ele>1981.4100000000001</ele>
        <time>2016-03-20T12:38:39Z</time>
      </trkpt>
      <trkpt lat="46.447102222591639" lon="11.640224615111947">
        <ele>1980.9300000000001</ele>
        <time>2016-03-20T12:38:54Z</time>
      </trkpt>
      <trkpt lat="46.447093086317182" lon="11.640250599011779">
        <ele>1981.4100000000001</ele>
        <time>2016-03-20T12:39:20Z</time>
      </trkpt>
      <trkpt lat="46.447085626423359" lon="11.640243390575051">
        <ele>1980.9300000000001</ele>
        <time>2016-03-20T12:39:37Z</time>
      </trkpt>
      <trkpt lat="46.447101719677448" lon="11.640242720022798">
        <ele>1981.4100000000001</ele>
        <time>2016-03-20T12:39:53Z</time>
      </trkpt>
      <trkpt lat="46.447099875658751" lon="11.64022327400744">
        <ele>1980.9300000000001</ele>
        <time>2016-03-20T12:40:12Z</time>
      </trkpt>
      <trkpt lat="46.447113621979952" lon="11.640212293714285">
        <ele>1980.9300000000001</ele>
        <time>2016-03-20T12:40:34Z</time>
      </trkpt>
      <trkpt lat="46.447112029418349" lon="11.640222351998091">
        <ele>1980.9300000000001</ele>
        <time>2016-03-20T12:41:01Z</time>
      </trkpt>
      <trkpt lat="46.447093840688467" lon="11.640216149389744">
        <ele>1980.45</ele>
        <time>2016-03-20T12:41:33Z</time>
      </trkpt>
      <trkpt lat="46.447084788233042" lon="11.640218999236822">
        <ele>1980.45</ele>
        <time>2016-03-20T12:41:57Z</time>
      </trkpt>
      <trkpt lat="46.447101468220353" lon="11.640224866569042">
        <ele>1979.97</ele>
        <time>2016-03-20T12:42:22Z</time>
      </trkpt>
      <trkpt lat="46.447085291147232" lon="11.640219837427139">
        <ele>1979.97</ele>
        <time>2016-03-20T12:42:41Z</time>
      </trkpt>
      <trkpt lat="46.447056205943227" lon="11.640208186581731">
        <ele>1980.45</ele>
        <time>2016-03-20T12:42:50Z</time>
      </trkpt>
      <trkpt lat="46.447048829868436" lon="11.640209695324302">
        <ele>1979.97</ele>
        <time>2016-03-20T12:42:51Z</time>
      </trkpt>
      <trkpt lat="46.446987893432379" lon="11.640184465795755">
        <ele>1979.97</ele>
        <time>2016-03-20T12:43:04Z</time>
      </trkpt>
      <trkpt lat="46.446990827098489" lon="11.640213802456856">
        <ele>1979.97</ele>
        <time>2016-03-20T12:43:16Z</time>
      </trkpt>
      <trkpt lat="46.446962915360928" lon="11.640200475230813">
        <ele>1980.45</ele>
        <time>2016-03-20T12:43:31Z</time>
      </trkpt>
      <trkpt lat="46.447018487378955" lon="11.640137610957026">
        <ele>1979.97</ele>
        <time>2016-03-20T12:43:40Z</time>
      </trkpt>
      <trkpt lat="46.447026953101158" lon="11.640101484954357">
        <ele>1980.45</ele>
        <time>2016-03-20T12:43:56Z</time>
      </trkpt>
      <trkpt lat="46.447047824040055" lon="11.640088660642505">
        <ele>1979.97</ele>
        <time>2016-03-20T12:44:16Z</time>
      </trkpt>
      <trkpt lat="46.447056205943227" lon="11.640104753896594">
        <ele>1979.49</ele>
        <time>2016-03-20T12:44:28Z</time>
      </trkpt>
      <trkpt lat="46.447048662230372" lon="11.640096455812454">
        <ele>1979.49</ele>
        <time>2016-03-20T12:44:42Z</time>
      </trkpt>
      <trkpt lat="46.447052769362926" lon="11.640085056424141">
        <ele>1979.49</ele>
        <time>2016-03-20T12:44:57Z</time>
      </trkpt>
      <trkpt lat="46.447049584239721" lon="11.640099473297596">
        <ele>1979.49</ele>
        <time>2016-03-20T12:45:10Z</time>
      </trkpt>
      <trkpt lat="46.447100881487131" lon="11.640224363654852">
        <ele>1978.53</ele>
        <time>2016-03-20T12:45:21Z</time>
      </trkpt>
      <trkpt lat="46.447100797668099" lon="11.640235846862197">
        <ele>1978.53</ele>
        <time>2016-03-20T12:45:22Z</time>
      </trkpt>
      <trkpt lat="46.447012536227703" lon="11.640180023387074">
        <ele>1978.53</ele>
        <time>2016-03-20T12:45:32Z</time>
      </trkpt>
      <trkpt lat="46.447036173194647" lon="11.640150519087911">
        <ele>1979.01</ele>
        <time>2016-03-20T12:45:48Z</time>
      </trkpt>
      <trkpt lat="46.447029719129205" lon="11.640134761109948">
        <ele>1979.01</ele>
        <time>2016-03-20T12:45:59Z</time>
      </trkpt>
      <trkpt lat="46.447022510692477" lon="11.640114057809114">
        <ele>1979.01</ele>
        <time>2016-03-20T12:46:13Z</time>
      </trkpt>
      <trkpt lat="46.446985546499491" lon="11.640063347294927">
        <ele>1979.01</ele>
        <time>2016-03-20T12:46:26Z</time>
      </trkpt>
      <trkpt lat="46.447012955322862" lon="11.639959327876568">
        <ele>1979.01</ele>
        <time>2016-03-20T12:46:36Z</time>
      </trkpt>
      <trkpt lat="46.447005830705166" lon="11.639940133318305">
        <ele>1979.01</ele>
        <time>2016-03-20T12:46:44Z</time>
      </trkpt>
      <trkpt lat="46.447020163759589" lon="11.639971565455198">
        <ele>1979.01</ele>
        <time>2016-03-20T12:46:56Z</time>
      </trkpt>
      <trkpt lat="46.447016643360257" lon="11.639980785548687">
        <ele>1978.53</ele>
        <time>2016-03-20T12:46:58Z</time>
      </trkpt>
      <trkpt lat="46.446954784914851" lon="11.639997130259871">
        <ele>1977.5699999999999</ele>
        <time>2016-03-20T12:47:09Z</time>
      </trkpt>
      <trkpt lat="46.446959730237722" lon="11.639999812468886">
        <ele>1977.5699999999999</ele>
        <time>2016-03-20T12:47:33Z</time>
      </trkpt>
      <trkpt lat="46.446960736066103" lon="11.640002829954028">
        <ele>1977.0899999999999</ele>
        <time>2016-03-20T12:47:47Z</time>
      </trkpt>
      <trkpt lat="46.446954198181629" lon="11.640009954571724">
        <ele>1976.6099999999999</ele>
        <time>2016-03-20T12:47:52Z</time>
      </trkpt>
      <trkpt lat="46.446892088279128" lon="11.640033423900604">
        <ele>1976.6099999999999</ele>
        <time>2016-03-20T12:48:02Z</time>
      </trkpt>
      <trkpt lat="46.446786895394325" lon="11.640139035880566">
        <ele>1977.0899999999999</ele>
        <time>2016-03-20T12:48:16Z</time>
      </trkpt>
      <trkpt lat="46.446704585105181" lon="11.640208521857858">
        <ele>1978.53</ele>
        <time>2016-03-20T12:48:28Z</time>
      </trkpt>
      <trkpt lat="46.446608612313867" lon="11.640283707529306">
        <ele>1979.97</ele>
        <time>2016-03-20T12:48:40Z</time>
      </trkpt>
      <trkpt lat="46.446541389450431" lon="11.640301728621125">
        <ele>1980.45</ele>
        <time>2016-03-20T12:48:50Z</time>
      </trkpt>
      <trkpt lat="46.446473328396678" lon="11.640356127172709">
        <ele>1980.9300000000001</ele>
        <time>2016-03-20T12:49:00Z</time>
      </trkpt>
      <trkpt lat="46.446428988128901" lon="11.640416057780385">
        <ele>1981.9000000000001</ele>
        <time>2016-03-20T12:49:10Z</time>
      </trkpt>
      <trkpt lat="46.44639135338366" lon="11.640482526272535">
        <ele>1983.3399999999999</ele>
        <time>2016-03-20T12:49:21Z</time>
      </trkpt>
      <trkpt lat="46.446292698383331" lon="11.640585120767355">
        <ele>1984.3</ele>
        <time>2016-03-20T12:49:35Z</time>
      </trkpt>
      <trkpt lat="46.446167221292853" lon="11.640653600916266">
        <ele>1984.3</ele>
        <time>2016-03-20T12:49:47Z</time>
      </trkpt>
      <trkpt lat="46.446070829406381" lon="11.640694085508585">
        <ele>1983.8199999999999</ele>
        <time>2016-03-20T12:49:57Z</time>
      </trkpt>
      <trkpt lat="46.446013329550624" lon="11.640757620334625">
        <ele>1984.78</ele>
        <time>2016-03-20T12:50:05Z</time>
      </trkpt>
      <trkpt lat="46.445983909070492" lon="11.640795087441802">
        <ele>1984.3</ele>
        <time>2016-03-20T12:50:09Z</time>
      </trkpt>
      <trkpt lat="46.445856839418411" lon="11.640837332233787">
        <ele>1983.3399999999999</ele>
        <time>2016-03-20T12:50:21Z</time>
      </trkpt>
      <trkpt lat="46.445807721465826" lon="11.640798859298229">
        <ele>1983.8199999999999</ele>
        <time>2016-03-20T12:50:31Z</time>
      </trkpt>
      <trkpt lat="46.445789784193039" lon="11.640770360827446">
        <ele>1983.8199999999999</ele>
        <time>2016-03-20T12:50:40Z</time>
      </trkpt>
      <trkpt lat="46.445719795301557" lon="11.640730379149318">
        <ele>1983.3399999999999</ele>
        <time>2016-03-20T12:50:52Z</time>
      </trkpt>
      <trkpt lat="46.445634970441461" lon="11.640694169327617">
        <ele>1982.8599999999999</ele>
        <time>2016-03-20T12:51:01Z</time>
      </trkpt>
      <trkpt lat="46.445529945194721" lon="11.640683440491557">
        <ele>1983.3399999999999</ele>
        <time>2016-03-20T12:51:11Z</time>
      </trkpt>
      <trkpt lat="46.445438414812088" lon="11.640673130750656">
        <ele>1983.3399999999999</ele>
        <time>2016-03-20T12:51:21Z</time>
      </trkpt>
      <trkpt lat="46.445417124778032" lon="11.640668688341975">
        <ele>1983.3399999999999</ele>
        <time>2016-03-20T12:51:23Z</time>
      </trkpt>
      <trkpt lat="46.445294916629791" lon="11.64054723456502">
        <ele>1984.3</ele>
        <time>2016-03-20T12:51:36Z</time>
      </trkpt>
      <trkpt lat="46.445189891383052" lon="11.640452099964023">
        <ele>1983.3399999999999</ele>
        <time>2016-03-20T12:51:48Z</time>
      </trkpt>
      <trkpt lat="46.445112945511937" lon="11.640440113842487">
        <ele>1983.3399999999999</ele>
        <time>2016-03-20T12:51:58Z</time>
      </trkpt>
      <trkpt lat="46.445014458149672" lon="11.640466265380383">
        <ele>1984.78</ele>
        <time>2016-03-20T12:52:09Z</time>
      </trkpt>
      <trkpt lat="46.444957377389073" lon="11.640496691688895">
        <ele>1985.26</ele>
        <time>2016-03-20T12:52:16Z</time>
      </trkpt>
      <trkpt lat="46.444867104291916" lon="11.640591658651829">
        <ele>1985.26</ele>
        <time>2016-03-20T12:52:28Z</time>
      </trkpt>
      <trkpt lat="46.444779429584742" lon="11.640701377764344">
        <ele>1984.3</ele>
        <time>2016-03-20T12:52:39Z</time>
      </trkpt>
      <trkpt lat="46.444747159257531" lon="11.640764493495226">
        <ele>1983.8199999999999</ele>
        <time>2016-03-20T12:52:45Z</time>
      </trkpt>
      <trkpt lat="46.444625286385417" lon="11.640838505700231">
        <ele>1983.3399999999999</ele>
        <time>2016-03-20T12:52:57Z</time>
      </trkpt>
      <trkpt lat="46.444597290828824" lon="11.640857616439462">
        <ele>1983.3399999999999</ele>
        <time>2016-03-20T12:53:00Z</time>
      </trkpt>
      <trkpt lat="46.444484554231167" lon="11.640828447416425">
        <ele>1982.8599999999999</ele>
        <time>2016-03-20T12:53:11Z</time>
      </trkpt>
      <trkpt lat="46.444420600309968" lon="11.64082040078938">
        <ele>1982.3800000000001</ele>
        <time>2016-03-20T12:53:19Z</time>
      </trkpt>
      <trkpt lat="46.444327896460891" lon="11.640917547047138">
        <ele>1981.9000000000001</ele>
        <time>2016-03-20T12:53:28Z</time>
      </trkpt>
      <trkpt lat="46.44423988647759" lon="11.640999438241124">
        <ele>1981.9000000000001</ele>
        <time>2016-03-20T12:53:38Z</time>
      </trkpt>
      <trkpt lat="46.444135867059231" lon="11.640986949205399">
        <ele>1982.3800000000001</ele>
        <time>2016-03-20T12:53:50Z</time>
      </trkpt>
      <trkpt lat="46.444067051634192" lon="11.640990218147635">
        <ele>1980.9300000000001</ele>
        <time>2016-03-20T12:53:58Z</time>
      </trkpt>
      <trkpt lat="46.443941993638873" lon="11.64088636636734">
        <ele>1978.53</ele>
        <time>2016-03-20T12:54:10Z</time>
      </trkpt>
      <trkpt lat="46.443925313651562" lon="11.640900447964668">
        <ele>1978.53</ele>
        <time>2016-03-20T12:54:22Z</time>
      </trkpt>
      <trkpt lat="46.443854318931699" lon="11.640953756868839">
        <ele>1978.05</ele>
        <time>2016-03-20T12:54:39Z</time>
      </trkpt>
      <trkpt lat="46.443848283961415" lon="11.640968844294548">
        <ele>1978.05</ele>
        <time>2016-03-20T12:54:41Z</time>
      </trkpt>
      <trkpt lat="46.443814085796475" lon="11.641056099906564">
        <ele>1977.5699999999999</ele>
        <time>2016-03-20T12:54:47Z</time>
      </trkpt>
      <trkpt lat="46.443766308948398" lon="11.641122316941619">
        <ele>1977.0899999999999</ele>
        <time>2016-03-20T12:54:53Z</time>
      </trkpt>
      <trkpt lat="46.443696739152074" lon="11.641263552010059">
        <ele>1977.0899999999999</ele>
        <time>2016-03-20T12:55:04Z</time>
      </trkpt>
      <trkpt lat="46.443658182397485" lon="11.641293559223413">
        <ele>1977.0899999999999</ele>
        <time>2016-03-20T12:55:09Z</time>
      </trkpt>
      <trkpt lat="46.443586181849241" lon="11.6413339599967">
        <ele>1976.6099999999999</ele>
        <time>2016-03-20T12:55:16Z</time>
      </trkpt>
      <trkpt lat="46.443467075005174" lon="11.641382072120905">
        <ele>1976.6099999999999</ele>
        <time>2016-03-20T12:55:27Z</time>
      </trkpt>
      <trkpt lat="46.443367497995496" lon="11.641457425430417">
        <ele>1976.1300000000001</ele>
        <time>2016-03-20T12:55:38Z</time>
      </trkpt>
      <trkpt lat="46.443355930969119" lon="11.64158315397799">
        <ele>1976.6099999999999</ele>
        <time>2016-03-20T12:55:48Z</time>
      </trkpt>
      <trkpt lat="46.443322990089655" lon="11.641716426238418">
        <ele>1977.5699999999999</ele>
        <time>2016-03-20T12:55:59Z</time>
      </trkpt>
      <trkpt lat="46.443288205191493" lon="11.641851458698511">
        <ele>1977.0899999999999</ele>
        <time>2016-03-20T12:56:08Z</time>
      </trkpt>
      <trkpt lat="46.443246463313699" lon="11.64199554361403">
        <ele>1977.0899999999999</ele>
        <time>2016-03-20T12:56:19Z</time>
      </trkpt>
      <trkpt lat="46.443194327875972" lon="11.642107609659433">
        <ele>1978.05</ele>
        <time>2016-03-20T12:56:30Z</time>
      </trkpt>
      <trkpt lat="46.443143533542752" lon="11.642220765352249">
        <ele>1979.49</ele>
        <time>2016-03-20T12:56:42Z</time>
      </trkpt>
      <trkpt lat="46.443093242123723" lon="11.642343895509839">
        <ele>1979.49</ele>
        <time>2016-03-20T12:56:53Z</time>
      </trkpt>
      <trkpt lat="46.443023420870304" lon="11.642455961555243">
        <ele>1980.45</ele>
        <time>2016-03-20T12:57:04Z</time>
      </trkpt>
      <trkpt lat="46.442953431978822" lon="11.64260976947844">
        <ele>1981.4100000000001</ele>
        <time>2016-03-20T12:57:17Z</time>
      </trkpt>
      <trkpt lat="46.44291378557682" lon="11.642713621258736">
        <ele>1982.3800000000001</ele>
        <time>2016-03-20T12:57:28Z</time>
      </trkpt>
      <trkpt lat="46.442868607118726" lon="11.642809174954891">
        <ele>1982.3800000000001</ele>
        <time>2016-03-20T12:57:38Z</time>
      </trkpt>
      <trkpt lat="46.442861314862967" lon="11.642833147197962">
        <ele>1981.9000000000001</ele>
        <time>2016-03-20T12:57:40Z</time>
      </trkpt>
      <trkpt lat="46.442807838320732" lon="11.642967592924833">
        <ele>1982.8599999999999</ele>
        <time>2016-03-20T12:57:52Z</time>
      </trkpt>
      <trkpt lat="46.44276768900454" lon="11.643022326752543">
        <ele>1983.3399999999999</ele>
        <time>2016-03-20T12:57:57Z</time>
      </trkpt>
      <trkpt lat="46.442645061761141" lon="11.643142607063055">
        <ele>1982.8599999999999</ele>
        <time>2016-03-20T12:58:09Z</time>
      </trkpt>
      <trkpt lat="46.442625531926751" lon="11.643176805227995">
        <ele>1982.8599999999999</ele>
        <time>2016-03-20T12:58:12Z</time>
      </trkpt>
      <trkpt lat="46.442604828625917" lon="11.643280573189259">
        <ele>1983.8199999999999</ele>
        <time>2016-03-20T12:58:23Z</time>
      </trkpt>
      <trkpt lat="46.442570714280009" lon="11.643406385555863">
        <ele>1984.3</ele>
        <time>2016-03-20T12:58:35Z</time>
      </trkpt>
      <trkpt lat="46.442528469488025" lon="11.643503028899431">
        <ele>1982.8599999999999</ele>
        <time>2016-03-20T12:58:46Z</time>
      </trkpt>
      <trkpt lat="46.44241631962359" lon="11.643700171262026">
        <ele>1979.49</ele>
        <time>2016-03-20T12:58:59Z</time>
      </trkpt>
      <trkpt lat="46.442373236641288" lon="11.643802933394909">
        <ele>1977.5699999999999</ele>
        <time>2016-03-20T12:59:05Z</time>
      </trkpt>
      <trkpt lat="46.44223116338253" lon="11.643990939483047">
        <ele>1974.2</ele>
        <time>2016-03-20T12:59:18Z</time>
      </trkpt>
      <trkpt lat="46.442151619121432" lon="11.644123960286379">
        <ele>1972.28</ele>
        <time>2016-03-20T12:59:30Z</time>
      </trkpt>
      <trkpt lat="46.442041480913758" lon="11.644285814836621">
        <ele>1972.28</ele>
        <time>2016-03-20T12:59:42Z</time>
      </trkpt>
      <trkpt lat="46.441981047391891" lon="11.644447585567832">
        <ele>1972.28</ele>
        <time>2016-03-20T12:59:55Z</time>
      </trkpt>
      <trkpt lat="46.441936120390892" lon="11.644597202539444">
        <ele>1972.28</ele>
        <time>2016-03-20T13:00:07Z</time>
      </trkpt>
      <trkpt lat="46.441884320229292" lon="11.644783616065979">
        <ele>1972.28</ele>
        <time>2016-03-20T13:00:20Z</time>
      </trkpt>
      <trkpt lat="46.441848278045654" lon="11.644934909418225">
        <ele>1971.3199999999999</ele>
        <time>2016-03-20T13:00:31Z</time>
      </trkpt>
      <trkpt lat="46.441813325509429" lon="11.645057201385498">
        <ele>1971.8</ele>
        <time>2016-03-20T13:00:42Z</time>
      </trkpt>
      <trkpt lat="46.44174694083631" lon="11.645246297121048">
        <ele>1971.8</ele>
        <time>2016-03-20T13:00:56Z</time>
      </trkpt>
      <trkpt lat="46.441687429323792" lon="11.645414857193828">
        <ele>1970.8399999999999</ele>
        <time>2016-03-20T13:01:08Z</time>
      </trkpt>
      <trkpt lat="46.441609896719456" lon="11.645586099475622">
        <ele>1969.8800000000001</ele>
        <time>2016-03-20T13:01:21Z</time>
      </trkpt>
      <trkpt lat="46.441548876464367" lon="11.645735129714012">
        <ele>1969.4000000000001</ele>
        <time>2016-03-20T13:01:32Z</time>
      </trkpt>
      <trkpt lat="46.441472768783569" lon="11.645873263478279">
        <ele>1968.4400000000001</ele>
        <time>2016-03-20T13:01:43Z</time>
      </trkpt>
      <trkpt lat="46.441371431574225" lon="11.646057581529021">
        <ele>1967.96</ele>
        <time>2016-03-20T13:01:58Z</time>
      </trkpt>
      <trkpt lat="46.441361457109451" lon="11.646079961210489">
        <ele>1967.48</ele>
        <time>2016-03-20T13:02:00Z</time>
      </trkpt>
      <trkpt lat="46.441251151263714" lon="11.646256316453218">
        <ele>1966.03</ele>
        <time>2016-03-20T13:02:13Z</time>
      </trkpt>
      <trkpt lat="46.441160039976239" lon="11.646405598148704">
        <ele>1964.5899999999999</ele>
        <time>2016-03-20T13:02:23Z</time>
      </trkpt>
      <trkpt lat="46.441040178760886" lon="11.646574912592769">
        <ele>1961.71</ele>
        <time>2016-03-20T13:02:36Z</time>
      </trkpt>
      <trkpt lat="46.440928867086768" lon="11.646736012771726">
        <ele>1959.3</ele>
        <time>2016-03-20T13:02:48Z</time>
      </trkpt>
      <trkpt lat="46.440866673365235" lon="11.646928377449512">
        <ele>1956.4200000000001</ele>
        <time>2016-03-20T13:03:01Z</time>
      </trkpt>
      <trkpt lat="46.440851334482431" lon="11.646954109892249">
        <ele>1955.9400000000001</ele>
        <time>2016-03-20T13:03:03Z</time>
      </trkpt>
      <trkpt lat="46.440738681703806" lon="11.647129040211439">
        <ele>1954.02</ele>
        <time>2016-03-20T13:03:17Z</time>
      </trkpt>
      <trkpt lat="46.440712111070752" lon="11.64731964468956">
        <ele>1953.0599999999999</ele>
        <time>2016-03-20T13:03:29Z</time>
      </trkpt>
      <trkpt lat="46.440714122727513" lon="11.647504130378366">
        <ele>1952.5699999999999</ele>
        <time>2016-03-20T13:03:40Z</time>
      </trkpt>
      <trkpt lat="46.440707165747881" lon="11.647572526708245">
        <ele>1952.5699999999999</ele>
        <time>2016-03-20T13:03:44Z</time>
      </trkpt>
      <trkpt lat="46.4406543597579" lon="11.647779811173677">
        <ele>1950.6500000000001</ele>
        <time>2016-03-20T13:03:56Z</time>
      </trkpt>
      <trkpt lat="46.440640278160572" lon="11.647804034873843">
        <ele>1949.6900000000001</ele>
        <time>2016-03-20T13:03:58Z</time>
      </trkpt>
      <trkpt lat="46.440537935122848" lon="11.647995645180345">
        <ele>1946.8099999999999</ele>
        <time>2016-03-20T13:04:10Z</time>
      </trkpt>
      <trkpt lat="46.440486218780279" lon="11.648095976561308">
        <ele>1945.8499999999999</ele>
        <time>2016-03-20T13:04:17Z</time>
      </trkpt>
      <trkpt lat="46.440408602356911" lon="11.648252299055457">
        <ele>1944.4000000000001</ele>
        <time>2016-03-20T13:04:29Z</time>
      </trkpt>
      <trkpt lat="46.44040809944272" lon="11.648461259901524">
        <ele>1942.48</ele>
        <time>2016-03-20T13:04:39Z</time>
      </trkpt>
      <trkpt lat="46.440442968159914" lon="11.648597968742251">
        <ele>1941.52</ele>
        <time>2016-03-20T13:04:49Z</time>
      </trkpt>
      <trkpt lat="46.440519411116838" lon="11.648746496066451">
        <ele>1940.5599999999999</ele>
        <time>2016-03-20T13:05:01Z</time>
      </trkpt>
      <trkpt lat="46.440645810216665" lon="11.648927796632051">
        <ele>1938.1600000000001</ele>
        <time>2016-03-20T13:05:14Z</time>
      </trkpt>
      <trkpt lat="46.440680595114827" lon="11.649044808000326">
        <ele>1936.71</ele>
        <time>2016-03-20T13:05:21Z</time>
      </trkpt>
      <trkpt lat="46.440704232081771" lon="11.649132398888469">
        <ele>1935.75</ele>
        <time>2016-03-20T13:05:26Z</time>
      </trkpt>
      <trkpt lat="46.440746309235692" lon="11.649317052215338">
        <ele>1934.79</ele>
        <time>2016-03-20T13:05:38Z</time>
      </trkpt>
      <trkpt lat="46.440691910684109" lon="11.649559624493122">
        <ele>1933.3499999999999</ele>
        <time>2016-03-20T13:05:52Z</time>
      </trkpt>
      <trkpt lat="46.440637595951557" lon="11.64977453649044">
        <ele>1931.4300000000001</ele>
        <time>2016-03-20T13:06:05Z</time>
      </trkpt>
      <trkpt lat="46.440600380301476" lon="11.649969834834337">
        <ele>1930.46</ele>
        <time>2016-03-20T13:06:16Z</time>
      </trkpt>
      <trkpt lat="46.440590573474765" lon="11.650021132081747">
        <ele>1929.98</ele>
        <time>2016-03-20T13:06:19Z</time>
      </trkpt>
      <trkpt lat="46.440510526299477" lon="11.650227997452021">
        <ele>1927.5799999999999</ele>
        <time>2016-03-20T13:06:32Z</time>
      </trkpt>
      <trkpt lat="46.440455708652735" lon="11.650319024920464">
        <ele>1925.6600000000001</ele>
        <time>2016-03-20T13:06:40Z</time>
      </trkpt>
      <trkpt lat="46.440329728648067" lon="11.650440059602261">
        <ele>1923.25</ele>
        <time>2016-03-20T13:06:53Z</time>
      </trkpt>
      <trkpt lat="46.44031330011785" lon="11.650447519496083">
        <ele>1922.29</ele>
        <time>2016-03-20T13:06:55Z</time>
      </trkpt>
      <trkpt lat="46.44018430262804" lon="11.650549191981554">
        <ele>1919.8900000000001</ele>
        <time>2016-03-20T13:07:06Z</time>
      </trkpt>
      <trkpt lat="46.440125796943903" lon="11.650705514475703">
        <ele>1917.97</ele>
        <time>2016-03-20T13:07:16Z</time>
      </trkpt>
      <trkpt lat="46.440129652619362" lon="11.650776844471693">
        <ele>1917.01</ele>
        <time>2016-03-20T13:07:20Z</time>
      </trkpt>
      <trkpt lat="46.440177261829376" lon="11.650922270491719">
        <ele>1916.53</ele>
        <time>2016-03-20T13:07:30Z</time>
      </trkpt>
      <trkpt lat="46.440146500244737" lon="11.651084208860993">
        <ele>1916.04</ele>
        <time>2016-03-20T13:07:39Z</time>
      </trkpt>
      <trkpt lat="46.440085899084806" lon="11.651295349001884">
        <ele>1916.53</ele>
        <time>2016-03-20T13:07:52Z</time>
      </trkpt>
      <trkpt lat="46.440042648464441" lon="11.651349496096373">
        <ele>1916.53</ele>
        <time>2016-03-20T13:07:57Z</time>
      </trkpt>
      <trkpt lat="46.440004343166947" lon="11.651378497481346">
        <ele>1916.53</ele>
        <time>2016-03-20T13:08:01Z</time>
      </trkpt>
      <trkpt lat="46.439978443086147" lon="11.651391070336103">
        <ele>1916.53</ele>
        <time>2016-03-20T13:08:04Z</time>
      </trkpt>
      <trkpt lat="46.439890852198005" lon="11.65157463401556">
        <ele>1914.5999999999999</ele>
        <time>2016-03-20T13:08:17Z</time>
      </trkpt>
      <trkpt lat="46.439823796972632" lon="11.651754174381495">
        <ele>1912.2</ele>
        <time>2016-03-20T13:08:29Z</time>
      </trkpt>
      <trkpt lat="46.439741402864456" lon="11.651977468281984">
        <ele>1910.76</ele>
        <time>2016-03-20T13:08:42Z</time>
      </trkpt>
      <trkpt lat="46.439685076475143" lon="11.652167737483978">
        <ele>1910.76</ele>
        <time>2016-03-20T13:08:54Z</time>
      </trkpt>
      <trkpt lat="46.439625900238752" lon="11.652370076626539">
        <ele>1908.3499999999999</ele>
        <time>2016-03-20T13:09:06Z</time>
      </trkpt>
      <trkpt lat="46.439569825306535" lon="11.652559088543057">
        <ele>1906.4300000000001</ele>
        <time>2016-03-20T13:09:17Z</time>
      </trkpt>
      <trkpt lat="46.439519533887506" lon="11.652774922549725">
        <ele>1904.03</ele>
        <time>2016-03-20T13:09:29Z</time>
      </trkpt>
      <trkpt lat="46.439497573301196" lon="11.652917582541704">
        <ele>1903.0699999999999</ele>
        <time>2016-03-20T13:09:37Z</time>
      </trkpt>
      <trkpt lat="46.439448287710547" lon="11.653162753209472">
        <ele>1901.6300000000001</ele>
        <time>2016-03-20T13:09:51Z</time>
      </trkpt>
      <trkpt lat="46.43938735127449" lon="11.653373055160046">
        <ele>1899.7</ele>
        <time>2016-03-20T13:10:04Z</time>
      </trkpt>
      <trkpt lat="46.439285343512893" lon="11.653563240543008">
        <ele>1896.8199999999999</ele>
        <time>2016-03-20T13:10:17Z</time>
      </trkpt>
      <trkpt lat="46.439265394583344" lon="11.653655357658863">
        <ele>1895.8599999999999</ele>
        <time>2016-03-20T13:10:24Z</time>
      </trkpt>
      <trkpt lat="46.43926614895463" lon="11.653763903304935">
        <ele>1894.4200000000001</ele>
        <time>2016-03-20T13:10:33Z</time>
      </trkpt>
      <trkpt lat="46.439267657697201" lon="11.653975211083889">
        <ele>1891.53</ele>
        <time>2016-03-20T13:10:45Z</time>
      </trkpt>
      <trkpt lat="46.439264807850122" lon="11.654008403420448">
        <ele>1891.05</ele>
        <time>2016-03-20T13:10:47Z</time>
      </trkpt>
      <trkpt lat="46.439243433997035" lon="11.654049390926957">
        <ele>1890.5699999999999</ele>
        <time>2016-03-20T13:10:50Z</time>
      </trkpt>
      <trkpt lat="46.439226167276502" lon="11.654146118089557">
        <ele>1890.0899999999999</ele>
        <time>2016-03-20T13:10:55Z</time>
      </trkpt>
      <trkpt lat="46.439247038215399" lon="11.654344936832786">
        <ele>1888.6500000000001</ele>
        <time>2016-03-20T13:11:06Z</time>
      </trkpt>
      <trkpt lat="46.439230442047119" lon="11.654548868536949">
        <ele>1887.21</ele>
        <time>2016-03-20T13:11:17Z</time>
      </trkpt>
      <trkpt lat="46.439143773168325" lon="11.654719272628427">
        <ele>1884.8</ele>
        <time>2016-03-20T13:11:29Z</time>
      </trkpt>
      <trkpt lat="46.439079735428095" lon="11.654899315908551">
        <ele>1882.4000000000001</ele>
        <time>2016-03-20T13:11:40Z</time>
      </trkpt>
      <trkpt lat="46.439018128439784" lon="11.65505706332624">
        <ele>1880.96</ele>
        <time>2016-03-20T13:11:51Z</time>
      </trkpt>
      <trkpt lat="46.438996000215411" lon="11.6552559658885">
        <ele>1880</ele>
        <time>2016-03-20T13:12:04Z</time>
      </trkpt>
      <trkpt lat="46.438962388783693" lon="11.655465681105852">
        <ele>1879.03</ele>
        <time>2016-03-20T13:12:16Z</time>
      </trkpt>
      <trkpt lat="46.438924334943295" lon="11.655669193714857">
        <ele>1877.1099999999999</ele>
        <time>2016-03-20T13:12:27Z</time>
      </trkpt>
      <trkpt lat="46.43893145956099" lon="11.655857618898153">
        <ele>1875.6700000000001</ele>
        <time>2016-03-20T13:12:38Z</time>
      </trkpt>
      <trkpt lat="46.438891477882862" lon="11.656064735725522">
        <ele>1873.27</ele>
        <time>2016-03-20T13:12:50Z</time>
      </trkpt>
      <trkpt lat="46.438887203112245" lon="11.656077979132533">
        <ele>1873.27</ele>
        <time>2016-03-20T13:12:51Z</time>
      </trkpt>
      <trkpt lat="46.438883598893881" lon="11.656154254451394">
        <ele>1873.27</ele>
        <time>2016-03-20T13:12:55Z</time>
      </trkpt>
      <trkpt lat="46.438850155100226" lon="11.656387355178595">
        <ele>1872.79</ele>
        <time>2016-03-20T13:13:08Z</time>
      </trkpt>
      <trkpt lat="46.438824003562331" lon="11.656596316024661">
        <ele>1872.3</ele>
        <time>2016-03-20T13:13:20Z</time>
      </trkpt>
      <trkpt lat="46.438782010227442" lon="11.656811479479074">
        <ele>1871.3399999999999</ele>
        <time>2016-03-20T13:13:32Z</time>
      </trkpt>
      <trkpt lat="46.43875258974731" lon="11.656938381493092">
        <ele>1870.8599999999999</ele>
        <time>2016-03-20T13:13:39Z</time>
      </trkpt>
      <trkpt lat="46.438701963052154" lon="11.657128231599927">
        <ele>1869.4200000000001</ele>
        <time>2016-03-20T13:13:51Z</time>
      </trkpt>
      <trkpt lat="46.438686875626445" lon="11.657158490270376">
        <ele>1868.9400000000001</ele>
        <time>2016-03-20T13:13:53Z</time>
      </trkpt>
      <trkpt lat="46.438621832057834" lon="11.657360158860683">
        <ele>1867.02</ele>
        <time>2016-03-20T13:14:05Z</time>
      </trkpt>
      <trkpt lat="46.43856885842979" lon="11.657541543245316">
        <ele>1866.0599999999999</ele>
        <time>2016-03-20T13:14:16Z</time>
      </trkpt>
      <trkpt lat="46.438539102673531" lon="11.657691998407245">
        <ele>1865.0899999999999</ele>
        <time>2016-03-20T13:14:25Z</time>
      </trkpt>
      <trkpt lat="46.438502054661512" lon="11.657946472987533">
        <ele>1863.6500000000001</ele>
        <time>2016-03-20T13:14:39Z</time>
      </trkpt>
      <trkpt lat="46.438480010256171" lon="11.65818041190505">
        <ele>1862.6900000000001</ele>
        <time>2016-03-20T13:14:51Z</time>
      </trkpt>
      <trkpt lat="46.438450003042817" lon="11.658358862623572">
        <ele>1862.6900000000001</ele>
        <time>2016-03-20T13:15:02Z</time>
      </trkpt>
      <trkpt lat="46.438405495136976" lon="11.658524991944432">
        <ele>1862.21</ele>
        <time>2016-03-20T13:15:13Z</time>
      </trkpt>
      <trkpt lat="46.438363501802087" lon="11.658719033002853">
        <ele>1860.77</ele>
        <time>2016-03-20T13:15:25Z</time>
      </trkpt>
      <trkpt lat="46.438338859006763" lon="11.658881139010191">
        <ele>1859.8099999999999</ele>
        <time>2016-03-20T13:15:36Z</time>
      </trkpt>
      <trkpt lat="46.438320083543658" lon="11.659085405990481">
        <ele>1858.3699999999999</ele>
        <time>2016-03-20T13:15:48Z</time>
      </trkpt>
      <trkpt lat="46.438318826258183" lon="11.659179870039225">
        <ele>1857.4000000000001</ele>
        <time>2016-03-20T13:15:58Z</time>
      </trkpt>
      <trkpt lat="46.438315389677882" lon="11.65916109457612">
        <ele>1856.9200000000001</ele>
        <time>2016-03-20T13:16:06Z</time>
      </trkpt>
      <trkpt lat="46.438299212604761" lon="11.659147096797824">
        <ele>1856.9200000000001</ele>
        <time>2016-03-20T13:16:24Z</time>
      </trkpt>
      <trkpt lat="46.438301727175713" lon="11.659164279699326">
        <ele>1856.9200000000001</ele>
        <time>2016-03-20T13:16:35Z</time>
      </trkpt>
      <trkpt lat="46.438305582851171" lon="11.659194035455585">
        <ele>1856.4400000000001</ele>
        <time>2016-03-20T13:16:50Z</time>
      </trkpt>
      <trkpt lat="46.438302984461188" lon="11.659171571955085">
        <ele>1856.4400000000001</ele>
        <time>2016-03-20T13:17:00Z</time>
      </trkpt>
      <trkpt lat="46.438288567587733" lon="11.659161513671279">
        <ele>1855.96</ele>
        <time>2016-03-20T13:17:16Z</time>
      </trkpt>
      <trkpt lat="46.438296781852841" lon="11.65915715508163">
        <ele>1855.96</ele>
        <time>2016-03-20T13:17:31Z</time>
      </trkpt>
      <trkpt lat="46.438299044966698" lon="11.659161262214184">
        <ele>1857.4000000000001</ele>
        <time>2016-03-20T13:17:40Z</time>
      </trkpt>
      <trkpt lat="46.438303487375379" lon="11.659170901402831">
        <ele>1855.48</ele>
        <time>2016-03-20T13:17:51Z</time>
      </trkpt>
      <trkpt lat="46.438304241746664" lon="11.659153550863266">
        <ele>1855.48</ele>
        <time>2016-03-20T13:18:02Z</time>
      </trkpt>
      <trkpt lat="46.438298458233476" lon="11.659136535599828">
        <ele>1855.48</ele>
        <time>2016-03-20T13:18:19Z</time>
      </trkpt>
      <trkpt lat="46.438273312523961" lon="11.659150365740061">
        <ele>1855.48</ele>
        <time>2016-03-20T13:18:33Z</time>
      </trkpt>
      <trkpt lat="46.438274150714278" lon="11.659136535599828">
        <ele>1855.48</ele>
        <time>2016-03-20T13:18:51Z</time>
      </trkpt>
      <trkpt lat="46.438270965591073" lon="11.659136200323701">
        <ele>1855</ele>
        <time>2016-03-20T13:19:05Z</time>
      </trkpt>
      <trkpt lat="46.438314970582724" lon="11.6592260543257">
        <ele>1854.52</ele>
        <time>2016-03-20T13:19:18Z</time>
      </trkpt>
      <trkpt lat="46.438389485701919" lon="11.659411797299981">
        <ele>1851.1600000000001</ele>
        <time>2016-03-20T13:19:30Z</time>
      </trkpt>
      <trkpt lat="46.438445141538978" lon="11.659622937440872">
        <ele>1848.27</ele>
        <time>2016-03-20T13:19:40Z</time>
      </trkpt>
      <trkpt lat="46.438477411866188" lon="11.659772135317326">
        <ele>1845.3900000000001</ele>
        <time>2016-03-20T13:19:48Z</time>
      </trkpt>
      <trkpt lat="46.438484117388725" lon="11.659895181655884">
        <ele>1842.5</ele>
        <time>2016-03-20T13:19:55Z</time>
      </trkpt>
      <trkpt lat="46.438511861488223" lon="11.660083523020148">
        <ele>1840.5799999999999</ele>
        <time>2016-03-20T13:20:07Z</time>
      </trkpt>
      <trkpt lat="46.43851462751627" lon="11.660098358988762">
        <ele>1840.5799999999999</ele>
        <time>2016-03-20T13:20:08Z</time>
      </trkpt>
      <trkpt lat="46.438572546467185" lon="11.660250155255198">
        <ele>1838.1800000000001</ele>
        <time>2016-03-20T13:20:19Z</time>
      </trkpt>
      <trkpt lat="46.438619820401073" lon="11.660457188263535">
        <ele>1835.29</ele>
        <time>2016-03-20T13:20:32Z</time>
      </trkpt>
      <trkpt lat="46.438648905605078" lon="11.660676961764693">
        <ele>1832.8900000000001</ele>
        <time>2016-03-20T13:20:44Z</time>
      </trkpt>
      <trkpt lat="46.438674302771688" lon="11.660880809649825">
        <ele>1830.49</ele>
        <time>2016-03-20T13:20:56Z</time>
      </trkpt>
      <trkpt lat="46.43871302716434" lon="11.661065714433789">
        <ele>1829.05</ele>
        <time>2016-03-20T13:21:08Z</time>
      </trkpt>
      <trkpt lat="46.438746387138963" lon="11.661303089931607">
        <ele>1826.6400000000001</ele>
        <time>2016-03-20T13:21:22Z</time>
      </trkpt>
      <trkpt lat="46.438758792355657" lon="11.661459999158978">
        <ele>1826.1600000000001</ele>
        <time>2016-03-20T13:21:32Z</time>
      </trkpt>
      <trkpt lat="46.438787039369345" lon="11.661684885621071">
        <ele>1824.72</ele>
        <time>2016-03-20T13:21:46Z</time>
      </trkpt>
      <trkpt lat="46.43883322365582" lon="11.661894265562296">
        <ele>1822.8</ele>
        <time>2016-03-20T13:21:58Z</time>
      </trkpt>
      <trkpt lat="46.438907235860825" lon="11.66206399910152">
        <ele>1821.3499999999999</ele>
        <time>2016-03-20T13:22:10Z</time>
      </trkpt>
      <trkpt lat="46.438954342156649" lon="11.662143124267459">
        <ele>1820.8699999999999</ele>
        <time>2016-03-20T13:22:16Z</time>
      </trkpt>
      <trkpt lat="46.43897638656199" lon="11.662411009892821">
        <ele>1819.4300000000001</ele>
        <time>2016-03-20T13:22:31Z</time>
      </trkpt>
      <trkpt lat="46.439014859497547" lon="11.662630867213011">
        <ele>1817.99</ele>
        <time>2016-03-20T13:22:44Z</time>
      </trkpt>
      <trkpt lat="46.439018631353974" lon="11.662663724273443">
        <ele>1817.51</ele>
        <time>2016-03-20T13:22:46Z</time>
      </trkpt>
      <trkpt lat="46.438998011872172" lon="11.662864638492465">
        <ele>1815.5899999999999</ele>
        <time>2016-03-20T13:22:58Z</time>
      </trkpt>
      <trkpt lat="46.438991390168667" lon="11.662878217175603">
        <ele>1815.5899999999999</ele>
        <time>2016-03-20T13:22:59Z</time>
      </trkpt>
      <trkpt lat="46.43898862414062" lon="11.662917360663414">
        <ele>1815.5899999999999</ele>
        <time>2016-03-20T13:23:02Z</time>
      </trkpt>
      <trkpt lat="46.439009997993708" lon="11.663080640137196">
        <ele>1815.1099999999999</ele>
        <time>2016-03-20T13:23:14Z</time>
      </trkpt>
      <trkpt lat="46.439005387946963" lon="11.663290690630674">
        <ele>1815.5899999999999</ele>
        <time>2016-03-20T13:23:27Z</time>
      </trkpt>
      <trkpt lat="46.438957527279854" lon="11.663410551846027">
        <ele>1816.55</ele>
        <time>2016-03-20T13:23:38Z</time>
      </trkpt>
      <trkpt lat="46.438932297751307" lon="11.663470817729831">
        <ele>1817.03</ele>
        <time>2016-03-20T13:23:43Z</time>
      </trkpt>
      <trkpt lat="46.438882509246469" lon="11.663648094981909">
        <ele>1816.55</ele>
        <time>2016-03-20T13:23:56Z</time>
      </trkpt>
      <trkpt lat="46.438871612772346" lon="11.663681203499436">
        <ele>1816.0699999999999</ele>
        <time>2016-03-20T13:24:07Z</time>
      </trkpt>
      <trkpt lat="46.438870020210743" lon="11.663713306188583">
        <ele>1816.55</ele>
        <time>2016-03-20T13:24:19Z</time>
      </trkpt>
      <trkpt lat="46.438809083774686" lon="11.663872562348843">
        <ele>1816.0699999999999</ele>
        <time>2016-03-20T13:24:30Z</time>
      </trkpt>
      <trkpt lat="46.438796930015087" lon="11.663887901231647">
        <ele>1816.55</ele>
        <time>2016-03-20T13:24:33Z</time>
      </trkpt>
      <trkpt lat="46.438722414895892" lon="11.663972558453679">
        <ele>1816.0699999999999</ele>
        <time>2016-03-20T13:24:41Z</time>
      </trkpt>
      <trkpt lat="46.438692742958665" lon="11.664007510989904">
        <ele>1815.5899999999999</ele>
        <time>2016-03-20T13:24:44Z</time>
      </trkpt>
      <trkpt lat="46.438631219789386" lon="11.664017150178552">
        <ele>1813.6600000000001</ele>
        <time>2016-03-20T13:24:50Z</time>
      </trkpt>
      <trkpt lat="46.438512783497572" lon="11.663861414417624">
        <ele>1813.1800000000001</ele>
        <time>2016-03-20T13:25:03Z</time>
      </trkpt>
      <trkpt lat="46.438432736322284" lon="11.663726046681404">
        <ele>1814.1500000000001</ele>
        <time>2016-03-20T13:25:15Z</time>
      </trkpt>
      <trkpt lat="46.438438184559345" lon="11.663719844073057">
        <ele>1813.1800000000001</ele>
        <time>2016-03-20T13:25:25Z</time>
      </trkpt>
      <trkpt lat="46.43841689452529" lon="11.663714731112123">
        <ele>1813.1800000000001</ele>
        <time>2016-03-20T13:25:47Z</time>
      </trkpt>
      <trkpt lat="46.43841689452529" lon="11.663701822981238">
        <ele>1813.1800000000001</ele>
        <time>2016-03-20T13:26:11Z</time>
      </trkpt>
      <trkpt lat="46.438392251729965" lon="11.663706097751856">
        <ele>1813.1800000000001</ele>
        <time>2016-03-20T13:26:35Z</time>
      </trkpt>
      <trkpt lat="46.43839686177671" lon="11.663774074986577">
        <ele>1813.1800000000001</ele>
        <time>2016-03-20T13:27:04Z</time>
      </trkpt>
      <trkpt lat="46.438413793221116" lon="11.663723951205611">
        <ele>1812.7</ele>
        <time>2016-03-20T13:27:28Z</time>
      </trkpt>
      <trkpt lat="46.438415553420782" lon="11.6637297347188">
        <ele>1812.7</ele>
        <time>2016-03-20T13:27:47Z</time>
      </trkpt>
      <trkpt lat="46.4384457282722" lon="11.663734680041671">
        <ele>1812.22</ele>
        <time>2016-03-20T13:28:11Z</time>
      </trkpt>
      <trkpt lat="46.438439693301916" lon="11.663720598444343">
        <ele>1812.22</ele>
        <time>2016-03-20T13:28:38Z</time>
      </trkpt>
      <trkpt lat="46.438461570069194" lon="11.663702996447682">
        <ele>1811.74</ele>
        <time>2016-03-20T13:29:01Z</time>
      </trkpt>
      <trkpt lat="46.438438184559345" lon="11.663739290088415">
        <ele>1812.22</ele>
        <time>2016-03-20T13:29:30Z</time>
      </trkpt>
      <trkpt lat="46.438441872596741" lon="11.663724621757865">
        <ele>1811.74</ele>
        <time>2016-03-20T13:29:59Z</time>
      </trkpt>
      <trkpt lat="46.438437094911933" lon="11.66373954154551">
        <ele>1811.74</ele>
        <time>2016-03-20T13:30:27Z</time>
      </trkpt>
      <trkpt lat="46.438426952809095" lon="11.663748007267714">
        <ele>1811.74</ele>
        <time>2016-03-20T13:30:53Z</time>
      </trkpt>
      <trkpt lat="46.438429718837142" lon="11.663751779124141">
        <ele>1812.7</ele>
        <time>2016-03-20T13:31:02Z</time>
      </trkpt>
      <trkpt lat="46.438422594219446" lon="11.663720514625311">
        <ele>1812.7</ele>
        <time>2016-03-20T13:31:11Z</time>
      </trkpt>
      <trkpt lat="46.438391916453838" lon="11.663685059174895">
        <ele>1813.1800000000001</ele>
        <time>2016-03-20T13:31:28Z</time>
      </trkpt>
      <trkpt lat="46.43837783485651" lon="11.663677934557199">
        <ele>1813.1800000000001</ele>
        <time>2016-03-20T13:31:41Z</time>
      </trkpt>
      <trkpt lat="46.438308013603091" lon="11.663647927343845">
        <ele>1815.1099999999999</ele>
        <time>2016-03-20T13:31:48Z</time>
      </trkpt>
      <trkpt lat="46.438269792124629" lon="11.663504345342517">
        <ele>1814.6300000000001</ele>
        <time>2016-03-20T13:32:00Z</time>
      </trkpt>
      <trkpt lat="46.438289321959019" lon="11.663356572389603">
        <ele>1815.1099999999999</ele>
        <time>2016-03-20T13:32:09Z</time>
      </trkpt>
      <trkpt lat="46.438299883157015" lon="11.663321368396282">
        <ele>1814.6300000000001</ele>
        <time>2016-03-20T13:32:12Z</time>
      </trkpt>
      <trkpt lat="46.438302313908935" lon="11.663209218531847">
        <ele>1815.5899999999999</ele>
        <time>2016-03-20T13:32:22Z</time>
      </trkpt>
      <trkpt lat="46.438234839588404" lon="11.663198238238692">
        <ele>1815.1099999999999</ele>
        <time>2016-03-20T13:32:34Z</time>
      </trkpt>
    </trkseg>
  </trk>

  <trk>
    <name>valle san nicolo monte pecol2016-03-18</name>
    <extensions>
      <gpxx:TrackExtension>
        <gpxx:DisplayColor>Yellow</gpxx:DisplayColor>
      </gpxx:TrackExtension>
      <gpxtrkx:TrackStatsExtension xmlns:gpxtrkx="http://www.garmin.com/xmlschemas/TrackStatsExtension/v1">
        <gpxtrkx:Distance>18204</gpxtrkx:Distance>
        <gpxtrkx:TotalElapsedTime>27701</gpxtrkx:TotalElapsedTime>
        <gpxtrkx:MovingTime>18049</gpxtrkx:MovingTime>
        <gpxtrkx:StoppedTime>9641</gpxtrkx:StoppedTime>
        <gpxtrkx:MovingSpeed>1</gpxtrkx:MovingSpeed>
        <gpxtrkx:MaxSpeed>3</gpxtrkx:MaxSpeed>
        <gpxtrkx:MaxElevation>2270</gpxtrkx:MaxElevation>
        <gpxtrkx:MinElevation>1362</gpxtrkx:MinElevation>
        <gpxtrkx:Ascent>954</gpxtrkx:Ascent>
        <gpxtrkx:Descent>951</gpxtrkx:Descent>
        <gpxtrkx:AvgAscentRate>0</gpxtrkx:AvgAscentRate>
        <gpxtrkx:MaxAscentRate>0</gpxtrkx:MaxAscentRate>
        <gpxtrkx:AvgDescentRate>0</gpxtrkx:AvgDescentRate>
        <gpxtrkx:MaxDescentRate>-0</gpxtrkx:MaxDescentRate>
      </gpxtrkx:TrackStatsExtension>
    </extensions>
    <trkseg>
      <trkpt lat="46.425561485812068" lon="11.699213348329067">
        <ele>1362.3299999999999</ele>
        <time>2016-03-18T07:56:54Z</time>
      </trkpt>
      <trkpt lat="46.425558887422085" lon="11.699210414662957">
        <ele>1362.3299999999999</ele>
        <time>2016-03-18T07:56:55Z</time>
      </trkpt>
      <trkpt lat="46.425556791946292" lon="11.699159452691674">
        <ele>1362.8099999999999</ele>
        <time>2016-03-18T07:57:04Z</time>
      </trkpt>
      <trkpt lat="46.425552517175674" lon="11.69902877882123">
        <ele>1362.3299999999999</ele>
        <time>2016-03-18T07:57:16Z</time>
      </trkpt>
      <trkpt lat="46.425512200221419" lon="11.699032550677657">
        <ele>1362.8099999999999</ele>
        <time>2016-03-18T07:57:27Z</time>
      </trkpt>
      <trkpt lat="46.425428465008736" lon="11.699028024449944">
        <ele>1363.77</ele>
        <time>2016-03-18T07:57:39Z</time>
      </trkpt>
      <trkpt lat="46.425358559936285" lon="11.699064318090677">
        <ele>1364.73</ele>
        <time>2016-03-18T07:57:47Z</time>
      </trkpt>
      <trkpt lat="46.425251439213753" lon="11.699088206514716">
        <ele>1366.1700000000001</ele>
        <time>2016-03-18T07:57:59Z</time>
      </trkpt>
      <trkpt lat="46.425230987370014" lon="11.699094828218222">
        <ele>1366.1700000000001</ele>
        <time>2016-03-18T07:58:01Z</time>
      </trkpt>
      <trkpt lat="46.425207685679197" lon="11.69911284931004">
        <ele>1366.1700000000001</ele>
        <time>2016-03-18T07:58:04Z</time>
      </trkpt>
      <trkpt lat="46.425179690122604" lon="11.699133636429906">
        <ele>1366.6500000000001</ele>
        <time>2016-03-18T07:58:07Z</time>
      </trkpt>
      <trkpt lat="46.425089165568352" lon="11.699192645028234">
        <ele>1368.0899999999999</ele>
        <time>2016-03-18T07:58:18Z</time>
      </trkpt>
      <trkpt lat="46.425067959353328" lon="11.699204379692674">
        <ele>1368.0899999999999</ele>
        <time>2016-03-18T07:58:20Z</time>
      </trkpt>
      <trkpt lat="46.424967125058174" lon="11.699255928397179">
        <ele>1368.5699999999999</ele>
        <time>2016-03-18T07:58:30Z</time>
      </trkpt>
      <trkpt lat="46.424928400665522" lon="11.699272189289331">
        <ele>1369.05</ele>
        <time>2016-03-18T07:58:34Z</time>
      </trkpt>
      <trkpt lat="46.424823040142655" lon="11.699343603104353">
        <ele>1370.02</ele>
        <time>2016-03-18T07:58:45Z</time>
      </trkpt>
      <trkpt lat="46.424705777317286" lon="11.69941870495677">
        <ele>1370.5</ele>
        <time>2016-03-18T07:58:57Z</time>
      </trkpt>
      <trkpt lat="46.424697730690241" lon="11.699426751583815">
        <ele>1370.98</ele>
        <time>2016-03-18T07:58:58Z</time>
      </trkpt>
      <trkpt lat="46.424580803140998" lon="11.699507720768452">
        <ele>1371.9400000000001</ele>
        <time>2016-03-18T07:59:10Z</time>
      </trkpt>
      <trkpt lat="46.424485333263874" lon="11.699585085734725">
        <ele>1372.4200000000001</ele>
        <time>2016-03-18T07:59:21Z</time>
      </trkpt>
      <trkpt lat="46.424420876428485" lon="11.699616266414523">
        <ele>1373.3800000000001</ele>
        <time>2016-03-18T07:59:30Z</time>
      </trkpt>
      <trkpt lat="46.424316186457872" lon="11.699688686057925">
        <ele>1373.8599999999999</ele>
        <time>2016-03-18T07:59:41Z</time>
      </trkpt>
      <trkpt lat="46.424224236980081" lon="11.699745263904333">
        <ele>1374.8199999999999</ele>
        <time>2016-03-18T07:59:50Z</time>
      </trkpt>
      <trkpt lat="46.424094066023827" lon="11.699816426262259">
        <ele>1374.3399999999999</ele>
        <time>2016-03-18T08:00:03Z</time>
      </trkpt>
      <trkpt lat="46.423983843997121" lon="11.699892533943057">
        <ele>1374.8199999999999</ele>
        <time>2016-03-18T08:00:15Z</time>
      </trkpt>
      <trkpt lat="46.423884853720665" lon="11.699956990778446">
        <ele>1375.3</ele>
        <time>2016-03-18T08:00:26Z</time>
      </trkpt>
      <trkpt lat="46.423832550644875" lon="11.699996134266257">
        <ele>1376.75</ele>
        <time>2016-03-18T08:00:32Z</time>
      </trkpt>
      <trkpt lat="46.423812014982104" lon="11.70000703074038">
        <ele>1376.75</ele>
        <time>2016-03-18T08:00:34Z</time>
      </trkpt>
      <trkpt lat="46.423784270882607" lon="11.700026141479611">
        <ele>1377.23</ele>
        <time>2016-03-18T08:00:37Z</time>
      </trkpt>
      <trkpt lat="46.42368377186358" lon="11.700094370171428">
        <ele>1378.1900000000001</ele>
        <time>2016-03-18T08:00:48Z</time>
      </trkpt>
      <trkpt lat="46.423643371090293" lon="11.70011792331934">
        <ele>1378.6700000000001</ele>
        <time>2016-03-18T08:00:53Z</time>
      </trkpt>
      <trkpt lat="46.423624930903316" lon="11.700123958289623">
        <ele>1379.1500000000001</ele>
        <time>2016-03-18T08:00:55Z</time>
      </trkpt>
      <trkpt lat="46.423605736345053" lon="11.700142566114664">
        <ele>1379.1500000000001</ele>
        <time>2016-03-18T08:00:57Z</time>
      </trkpt>
      <trkpt lat="46.423541363328695" lon="11.700196629390121">
        <ele>1379.6300000000001</ele>
        <time>2016-03-18T08:01:03Z</time>
      </trkpt>
      <trkpt lat="46.423510182648897" lon="11.70020492747426">
        <ele>1380.1099999999999</ele>
        <time>2016-03-18T08:01:06Z</time>
      </trkpt>
      <trkpt lat="46.423447988927364" lon="11.700244154781103">
        <ele>1380.5899999999999</ele>
        <time>2016-03-18T08:01:12Z</time>
      </trkpt>
      <trkpt lat="46.423427788540721" lon="11.70025086030364">
        <ele>1380.1099999999999</ele>
        <time>2016-03-18T08:01:14Z</time>
      </trkpt>
      <trkpt lat="46.423348160460591" lon="11.700303414836526">
        <ele>1380.5899999999999</ele>
        <time>2016-03-18T08:01:22Z</time>
      </trkpt>
      <trkpt lat="46.423304071649909" lon="11.700337948277593">
        <ele>1381.0699999999999</ele>
        <time>2016-03-18T08:01:26Z</time>
      </trkpt>
      <trkpt lat="46.423223773017526" lon="11.700414139777422">
        <ele>1381.0699999999999</ele>
        <time>2016-03-18T08:01:34Z</time>
      </trkpt>
      <trkpt lat="46.423190496861935" lon="11.700431071221828">
        <ele>1381.55</ele>
        <time>2016-03-18T08:01:37Z</time>
      </trkpt>
      <trkpt lat="46.423078766092658" lon="11.700507011264563">
        <ele>1382.03</ele>
        <time>2016-03-18T08:01:49Z</time>
      </trkpt>
      <trkpt lat="46.422996036708355" lon="11.700606504455209">
        <ele>1382.99</ele>
        <time>2016-03-18T08:01:58Z</time>
      </trkpt>
      <trkpt lat="46.422888664528728" lon="11.70068671926856">
        <ele>1383.96</ele>
        <time>2016-03-18T08:02:08Z</time>
      </trkpt>
      <trkpt lat="46.422777101397514" lon="11.700760144740343">
        <ele>1384.4400000000001</ele>
        <time>2016-03-18T08:02:20Z</time>
      </trkpt>
      <trkpt lat="46.42269873060286" lon="11.700818315148354">
        <ele>1384.9200000000001</ele>
        <time>2016-03-18T08:02:28Z</time>
      </trkpt>
      <trkpt lat="46.422665705904365" lon="11.700875731185079">
        <ele>1385.4000000000001</ele>
        <time>2016-03-18T08:02:33Z</time>
      </trkpt>
      <trkpt lat="46.422598315402865" lon="11.70094471424818">
        <ele>1385.4000000000001</ele>
        <time>2016-03-18T08:02:40Z</time>
      </trkpt>
      <trkpt lat="46.422491278499365" lon="11.701053762808442">
        <ele>1385.8800000000001</ele>
        <time>2016-03-18T08:02:51Z</time>
      </trkpt>
      <trkpt lat="46.42246806062758" lon="11.701082428917289">
        <ele>1386.3599999999999</ele>
        <time>2016-03-18T08:02:54Z</time>
      </trkpt>
      <trkpt lat="46.422407627105713" lon="11.701185861602426">
        <ele>1386.8399999999999</ele>
        <time>2016-03-18T08:03:03Z</time>
      </trkpt>
      <trkpt lat="46.422333363443613" lon="11.701325252652168">
        <ele>1386.8399999999999</ele>
        <time>2016-03-18T08:03:15Z</time>
      </trkpt>
      <trkpt lat="46.422312492504716" lon="11.701355595141649">
        <ele>1386.8399999999999</ele>
        <time>2016-03-18T08:03:20Z</time>
      </trkpt>
      <trkpt lat="46.422243341803551" lon="11.701501524075866">
        <ele>1388.28</ele>
        <time>2016-03-18T08:03:31Z</time>
      </trkpt>
      <trkpt lat="46.422175448387861" lon="11.70167176052928">
        <ele>1389.72</ele>
        <time>2016-03-18T08:03:43Z</time>
      </trkpt>
      <trkpt lat="46.422155583277345" lon="11.701730266213417">
        <ele>1389.72</ele>
        <time>2016-03-18T08:03:47Z</time>
      </trkpt>
      <trkpt lat="46.422147117555141" lon="11.701759016141295">
        <ele>1390.2</ele>
        <time>2016-03-18T08:03:49Z</time>
      </trkpt>
      <trkpt lat="46.42206204123795" lon="11.70192489400506">
        <ele>1391.1700000000001</ele>
        <time>2016-03-18T08:04:03Z</time>
      </trkpt>
      <trkpt lat="46.422010157257318" lon="11.702062860131264">
        <ele>1392.1300000000001</ele>
        <time>2016-03-18T08:04:14Z</time>
      </trkpt>
      <trkpt lat="46.421937234699726" lon="11.702205101028085">
        <ele>1392.6099999999999</ele>
        <time>2016-03-18T08:04:26Z</time>
      </trkpt>
      <trkpt lat="46.421861629933119" lon="11.702343905344605">
        <ele>1394.05</ele>
        <time>2016-03-18T08:04:37Z</time>
      </trkpt>
      <trkpt lat="46.421797592192888" lon="11.702442392706871">
        <ele>1395.01</ele>
        <time>2016-03-18T08:04:47Z</time>
      </trkpt>
      <trkpt lat="46.421794658526778" lon="11.702472902834415">
        <ele>1395.01</ele>
        <time>2016-03-18T08:04:49Z</time>
      </trkpt>
      <trkpt lat="46.421708660200238" lon="11.702626626938581">
        <ele>1395.97</ele>
        <time>2016-03-18T08:05:02Z</time>
      </trkpt>
      <trkpt lat="46.421630205586553" lon="11.702755205333233">
        <ele>1396.9300000000001</ele>
        <time>2016-03-18T08:05:14Z</time>
      </trkpt>
      <trkpt lat="46.421565245836973" lon="11.702861320227385">
        <ele>1397.8900000000001</ele>
        <time>2016-03-18T08:05:24Z</time>
      </trkpt>
      <trkpt lat="46.421501711010933" lon="11.702977661043406">
        <ele>1399.3399999999999</ele>
        <time>2016-03-18T08:05:35Z</time>
      </trkpt>
      <trkpt lat="46.421443037688732" lon="11.703059216961265">
        <ele>1399.8199999999999</ele>
        <time>2016-03-18T08:05:45Z</time>
      </trkpt>
      <trkpt lat="46.421374976634979" lon="11.703190980479121">
        <ele>1401.26</ele>
        <time>2016-03-18T08:05:58Z</time>
      </trkpt>
      <trkpt lat="46.421301383525133" lon="11.703302962705493">
        <ele>1402.22</ele>
        <time>2016-03-18T08:06:09Z</time>
      </trkpt>
      <trkpt lat="46.421216474846005" lon="11.703408574685454">
        <ele>1403.1800000000001</ele>
        <time>2016-03-18T08:06:20Z</time>
      </trkpt>
      <trkpt lat="46.421122513711452" lon="11.703519131988287">
        <ele>1404.1400000000001</ele>
        <time>2016-03-18T08:06:31Z</time>
      </trkpt>
      <trkpt lat="46.421019751578569" lon="11.70358819887042">
        <ele>1405.0999999999999</ele>
        <time>2016-03-18T08:06:41Z</time>
      </trkpt>
      <trkpt lat="46.420929059386253" lon="11.703660953789949">
        <ele>1405.0999999999999</ele>
        <time>2016-03-18T08:06:52Z</time>
      </trkpt>
      <trkpt lat="46.420870888978243" lon="11.703688027337193">
        <ele>1405.5799999999999</ele>
        <time>2016-03-18T08:07:01Z</time>
      </trkpt>
      <trkpt lat="46.420867117121816" lon="11.70371082611382">
        <ele>1406.0699999999999</ele>
        <time>2016-03-18T08:07:15Z</time>
      </trkpt>
      <trkpt lat="46.420844066888094" lon="11.703715939074755">
        <ele>1406.0699999999999</ele>
        <time>2016-03-18T08:07:20Z</time>
      </trkpt>
      <trkpt lat="46.420815736055374" lon="11.703775199130177">
        <ele>1407.03</ele>
        <time>2016-03-18T08:07:25Z</time>
      </trkpt>
      <trkpt lat="46.420770641416311" lon="11.703898832201958">
        <ele>1407.51</ele>
        <time>2016-03-18T08:07:34Z</time>
      </trkpt>
      <trkpt lat="46.420731917023659" lon="11.704057417809963">
        <ele>1408.47</ele>
        <time>2016-03-18T08:07:44Z</time>
      </trkpt>
      <trkpt lat="46.420696713030338" lon="11.704214913770556">
        <ele>1408.95</ele>
        <time>2016-03-18T08:07:55Z</time>
      </trkpt>
      <trkpt lat="46.420639464631677" lon="11.704408451914787">
        <ele>1409.9100000000001</ele>
        <time>2016-03-18T08:08:07Z</time>
      </trkpt>
      <trkpt lat="46.420605937018991" lon="11.704571563750505">
        <ele>1409.9100000000001</ele>
        <time>2016-03-18T08:08:17Z</time>
      </trkpt>
      <trkpt lat="46.420586910098791" lon="11.704665441066027">
        <ele>1410.3900000000001</ele>
        <time>2016-03-18T08:08:27Z</time>
      </trkpt>
      <trkpt lat="46.420545252040029" lon="11.704798629507422">
        <ele>1410.8699999999999</ele>
        <time>2016-03-18T08:08:40Z</time>
      </trkpt>
      <trkpt lat="46.420507952570915" lon="11.704954449087381">
        <ele>1411.8299999999999</ele>
        <time>2016-03-18T08:08:50Z</time>
      </trkpt>
      <trkpt lat="46.420496553182602" lon="11.70501010492444">
        <ele>1411.8299999999999</ele>
        <time>2016-03-18T08:08:54Z</time>
      </trkpt>
      <trkpt lat="46.420493787154555" lon="11.705039273947477">
        <ele>1411.8299999999999</ele>
        <time>2016-03-18T08:08:56Z</time>
      </trkpt>
      <trkpt lat="46.420474508777261" lon="11.705190567299724">
        <ele>1412.79</ele>
        <time>2016-03-18T08:09:08Z</time>
      </trkpt>
      <trkpt lat="46.420462522655725" lon="11.705309590324759">
        <ele>1413.28</ele>
        <time>2016-03-18T08:09:18Z</time>
      </trkpt>
      <trkpt lat="46.42043586820364" lon="11.705379160121083">
        <ele>1413.28</ele>
        <time>2016-03-18T08:09:24Z</time>
      </trkpt>
      <trkpt lat="46.420392198488116" lon="11.705509247258306">
        <ele>1414.72</ele>
        <time>2016-03-18T08:09:35Z</time>
      </trkpt>
      <trkpt lat="46.420354060828686" lon="11.705621397122741">
        <ele>1415.2</ele>
        <time>2016-03-18T08:09:45Z</time>
      </trkpt>
      <trkpt lat="46.420322209596634" lon="11.705762799829245">
        <ele>1415.6800000000001</ele>
        <time>2016-03-18T08:09:56Z</time>
      </trkpt>
      <trkpt lat="46.420288681983948" lon="11.705828094854951">
        <ele>1416.1600000000001</ele>
        <time>2016-03-18T08:10:05Z</time>
      </trkpt>
      <trkpt lat="46.420253813266754" lon="11.705888444557786">
        <ele>1416.6400000000001</ele>
        <time>2016-03-18T08:10:16Z</time>
      </trkpt>
      <trkpt lat="46.420255908742547" lon="11.705902358517051">
        <ele>1417.1199999999999</ele>
        <time>2016-03-18T08:10:33Z</time>
      </trkpt>
      <trkpt lat="46.420235708355904" lon="11.705905376002192">
        <ele>1416.6400000000001</ele>
        <time>2016-03-18T08:10:47Z</time>
      </trkpt>
      <trkpt lat="46.420252304524183" lon="11.705868244171143">
        <ele>1417.1199999999999</ele>
        <time>2016-03-18T08:10:59Z</time>
      </trkpt>
      <trkpt lat="46.420244593173265" lon="11.705865981057286">
        <ele>1417.1199999999999</ele>
        <time>2016-03-18T08:11:13Z</time>
      </trkpt>
      <trkpt lat="46.420243168249726" lon="11.705865897238255">
        <ele>1417.1199999999999</ele>
        <time>2016-03-18T08:11:31Z</time>
      </trkpt>
      <trkpt lat="46.420264458283782" lon="11.705899005755782">
        <ele>1416.1600000000001</ele>
        <time>2016-03-18T08:11:41Z</time>
      </trkpt>
      <trkpt lat="46.420244509354234" lon="11.705907471477985">
        <ele>1416.1600000000001</ele>
        <time>2016-03-18T08:12:05Z</time>
      </trkpt>
      <trkpt lat="46.420253897085786" lon="11.705885343253613">
        <ele>1415.6800000000001</ele>
        <time>2016-03-18T08:12:24Z</time>
      </trkpt>
      <trkpt lat="46.420271918177605" lon="11.705867405980825">
        <ele>1416.1600000000001</ele>
        <time>2016-03-18T08:12:43Z</time>
      </trkpt>
      <trkpt lat="46.420266889035702" lon="11.705924570560455">
        <ele>1416.1600000000001</ele>
        <time>2016-03-18T08:13:06Z</time>
      </trkpt>
      <trkpt lat="46.420250711962581" lon="11.70587545260787">
        <ele>1416.6400000000001</ele>
        <time>2016-03-18T08:13:35Z</time>
      </trkpt>
      <trkpt lat="46.420264039188623" lon="11.705911327153444">
        <ele>1416.6400000000001</ele>
        <time>2016-03-18T08:14:00Z</time>
      </trkpt>
      <trkpt lat="46.420256495475769" lon="11.705918787047267">
        <ele>1416.6400000000001</ele>
        <time>2016-03-18T08:14:19Z</time>
      </trkpt>
      <trkpt lat="46.4202531427145" lon="11.705895820632577">
        <ele>1416.6400000000001</ele>
        <time>2016-03-18T08:14:42Z</time>
      </trkpt>
      <trkpt lat="46.420289352536201" lon="11.705896910279989">
        <ele>1417.1199999999999</ele>
        <time>2016-03-18T08:15:07Z</time>
      </trkpt>
      <trkpt lat="46.420272924005985" lon="11.705890540033579">
        <ele>1417.5999999999999</ele>
        <time>2016-03-18T08:15:16Z</time>
      </trkpt>
      <trkpt lat="46.420253394171596" lon="11.705899592489004">
        <ele>1417.5999999999999</ele>
        <time>2016-03-18T08:15:34Z</time>
      </trkpt>
      <trkpt lat="46.420255741104484" lon="11.705884002149105">
        <ele>1417.5999999999999</ele>
        <time>2016-03-18T08:15:51Z</time>
      </trkpt>
      <trkpt lat="46.420275857672095" lon="11.705877464264631">
        <ele>1417.1199999999999</ele>
        <time>2016-03-18T08:16:04Z</time>
      </trkpt>
      <trkpt lat="46.420254819095135" lon="11.70593504793942">
        <ele>1417.5999999999999</ele>
        <time>2016-03-18T08:16:21Z</time>
      </trkpt>
      <trkpt lat="46.420236127451062" lon="11.705895652994514">
        <ele>1418.0799999999999</ele>
        <time>2016-03-18T08:16:33Z</time>
      </trkpt>
      <trkpt lat="46.420247610658407" lon="11.705894898623228">
        <ele>1418.0799999999999</ele>
        <time>2016-03-18T08:16:44Z</time>
      </trkpt>
      <trkpt lat="46.42026093788445" lon="11.705885427072644">
        <ele>1419.04</ele>
        <time>2016-03-18T08:16:54Z</time>
      </trkpt>
      <trkpt lat="46.420245096087456" lon="11.70589598827064">
        <ele>1417.5999999999999</ele>
        <time>2016-03-18T08:17:01Z</time>
      </trkpt>
      <trkpt lat="46.420254399999976" lon="11.705896407365799">
        <ele>1418.0799999999999</ele>
        <time>2016-03-18T08:17:16Z</time>
      </trkpt>
      <trkpt lat="46.420269487425685" lon="11.705922475084662">
        <ele>1418.0799999999999</ele>
        <time>2016-03-18T08:17:29Z</time>
      </trkpt>
      <trkpt lat="46.420269822701812" lon="11.705887606367469">
        <ele>1418.5599999999999</ele>
        <time>2016-03-18T08:17:38Z</time>
      </trkpt>
      <trkpt lat="46.42023847438395" lon="11.705957427620888">
        <ele>1419.04</ele>
        <time>2016-03-18T08:18:01Z</time>
      </trkpt>
      <trkpt lat="46.420179046690464" lon="11.706095980480313">
        <ele>1420.97</ele>
        <time>2016-03-18T08:18:14Z</time>
      </trkpt>
      <trkpt lat="46.420145016163588" lon="11.706203520298004">
        <ele>1422.4100000000001</ele>
        <time>2016-03-18T08:18:22Z</time>
      </trkpt>
      <trkpt lat="46.420099167153239" lon="11.706304522231221">
        <ele>1422.8900000000001</ele>
        <time>2016-03-18T08:18:29Z</time>
      </trkpt>
      <trkpt lat="46.420081900432706" lon="11.706338217481971">
        <ele>1422.8900000000001</ele>
        <time>2016-03-18T08:18:32Z</time>
      </trkpt>
      <trkpt lat="46.419980060309172" lon="11.706423126161098">
        <ele>1422.8900000000001</ele>
        <time>2016-03-18T08:18:43Z</time>
      </trkpt>
      <trkpt lat="46.419971678406" lon="11.706435866653919">
        <ele>1423.3699999999999</ele>
        <time>2016-03-18T08:18:44Z</time>
      </trkpt>
      <trkpt lat="46.419862797483802" lon="11.706536114215851">
        <ele>1423.8499999999999</ele>
        <time>2016-03-18T08:18:55Z</time>
      </trkpt>
      <trkpt lat="46.419837148860097" lon="11.706564528867602">
        <ele>1424.3299999999999</ele>
        <time>2016-03-18T08:18:57Z</time>
      </trkpt>
      <trkpt lat="46.419813763350248" lon="11.706573916599154">
        <ele>1424.3299999999999</ele>
        <time>2016-03-18T08:18:59Z</time>
      </trkpt>
      <trkpt lat="46.419782163575292" lon="11.706600403413177">
        <ele>1424.3299999999999</ele>
        <time>2016-03-18T08:19:02Z</time>
      </trkpt>
      <trkpt lat="46.419725753366947" lon="11.706683384254575">
        <ele>1424.8099999999999</ele>
        <time>2016-03-18T08:19:10Z</time>
      </trkpt>
      <trkpt lat="46.419639755040407" lon="11.70687323436141">
        <ele>1425.77</ele>
        <time>2016-03-18T08:19:22Z</time>
      </trkpt>
      <trkpt lat="46.419589715078473" lon="11.706975912675261">
        <ele>1425.77</ele>
        <time>2016-03-18T08:19:29Z</time>
      </trkpt>
      <trkpt lat="46.4195607136935" lon="11.707107005640864">
        <ele>1426.73</ele>
        <time>2016-03-18T08:19:40Z</time>
      </trkpt>
      <trkpt lat="46.419516038149595" lon="11.707242960110307">
        <ele>1427.21</ele>
        <time>2016-03-18T08:19:50Z</time>
      </trkpt>
      <trkpt lat="46.419473709538579" lon="11.707349997013807">
        <ele>1428.6600000000001</ele>
        <time>2016-03-18T08:20:00Z</time>
      </trkpt>
      <trkpt lat="46.419409923255444" lon="11.707451418042183">
        <ele>1430.0999999999999</ele>
        <time>2016-03-18T08:20:09Z</time>
      </trkpt>
      <trkpt lat="46.419388884678483" lon="11.707527777180076">
        <ele>1431.0599999999999</ele>
        <time>2016-03-18T08:20:16Z</time>
      </trkpt>
      <trkpt lat="46.419391315430403" lon="11.707708407193422">
        <ele>1432.98</ele>
        <time>2016-03-18T08:20:28Z</time>
      </trkpt>
      <trkpt lat="46.419353010132909" lon="11.707877889275551">
        <ele>1434.4200000000001</ele>
        <time>2016-03-18T08:20:39Z</time>
      </trkpt>
      <trkpt lat="46.419301964342594" lon="11.707986602559686">
        <ele>1435.8699999999999</ele>
        <time>2016-03-18T08:20:49Z</time>
      </trkpt>
      <trkpt lat="46.41926608979702" lon="11.70810797251761">
        <ele>1436.8299999999999</ele>
        <time>2016-03-18T08:20:58Z</time>
      </trkpt>
      <trkpt lat="46.41921479254961" lon="11.708192210644484">
        <ele>1437.79</ele>
        <time>2016-03-18T08:21:09Z</time>
      </trkpt>
      <trkpt lat="46.419201213866472" lon="11.708228923380375">
        <ele>1437.79</ele>
        <time>2016-03-18T08:21:20Z</time>
      </trkpt>
      <trkpt lat="46.419174056500196" lon="11.708325650542974">
        <ele>1439.71</ele>
        <time>2016-03-18T08:21:31Z</time>
      </trkpt>
      <trkpt lat="46.419106079265475" lon="11.708444841206074">
        <ele>1441.6300000000001</ele>
        <time>2016-03-18T08:21:44Z</time>
      </trkpt>
      <trkpt lat="46.419042376801372" lon="11.708535365760326">
        <ele>1443.5599999999999</ele>
        <time>2016-03-18T08:21:55Z</time>
      </trkpt>
      <trkpt lat="46.4189821947366" lon="11.708661848679185">
        <ele>1445.48</ele>
        <time>2016-03-18T08:22:08Z</time>
      </trkpt>
      <trkpt lat="46.418911702930927" lon="11.708771232515574">
        <ele>1447.4000000000001</ele>
        <time>2016-03-18T08:22:19Z</time>
      </trkpt>
      <trkpt lat="46.418835176154971" lon="11.708872485905886">
        <ele>1449.3199999999999</ele>
        <time>2016-03-18T08:22:30Z</time>
      </trkpt>
      <trkpt lat="46.418768540024757" lon="11.708959825336933">
        <ele>1450.29</ele>
        <time>2016-03-18T08:22:40Z</time>
      </trkpt>
      <trkpt lat="46.418755799531937" lon="11.708974242210388">
        <ele>1450.77</ele>
        <time>2016-03-18T08:22:42Z</time>
      </trkpt>
      <trkpt lat="46.418657563626766" lon="11.709091840311885">
        <ele>1452.6900000000001</ele>
        <time>2016-03-18T08:22:56Z</time>
      </trkpt>
      <trkpt lat="46.418590843677521" lon="11.70918295159936">
        <ele>1454.1300000000001</ele>
        <time>2016-03-18T08:23:06Z</time>
      </trkpt>
      <trkpt lat="46.418547006323934" lon="11.709169708192348">
        <ele>1454.6099999999999</ele>
        <time>2016-03-18T08:23:14Z</time>
      </trkpt>
      <trkpt lat="46.418537031859159" lon="11.709159063175321">
        <ele>1454.1300000000001</ele>
        <time>2016-03-18T08:23:31Z</time>
      </trkpt>
      <trkpt lat="46.418521776795387" lon="11.709193261340261">
        <ele>1454.6099999999999</ele>
        <time>2016-03-18T08:23:45Z</time>
      </trkpt>
      <trkpt lat="46.418507276102901" lon="11.709250593557954">
        <ele>1455.5699999999999</ele>
        <time>2016-03-18T08:23:56Z</time>
      </trkpt>
      <trkpt lat="46.418456397950649" lon="11.709346482530236">
        <ele>1457.5</ele>
        <time>2016-03-18T08:24:06Z</time>
      </trkpt>
      <trkpt lat="46.418428989127278" lon="11.709394175559282">
        <ele>1457.98</ele>
        <time>2016-03-18T08:24:12Z</time>
      </trkpt>
      <trkpt lat="46.41837383620441" lon="11.709485622122884">
        <ele>1459.4200000000001</ele>
        <time>2016-03-18T08:24:23Z</time>
      </trkpt>
      <trkpt lat="46.418308122083545" lon="11.709570279344916">
        <ele>1461.3399999999999</ele>
        <time>2016-03-18T08:24:33Z</time>
      </trkpt>
      <trkpt lat="46.418243497610092" lon="11.709675723686814">
        <ele>1462.78</ele>
        <time>2016-03-18T08:24:46Z</time>
      </trkpt>
      <trkpt lat="46.418169904500246" lon="11.709789298474789">
        <ele>1464.23</ele>
        <time>2016-03-18T08:24:59Z</time>
      </trkpt>
      <trkpt lat="46.418109554797411" lon="11.709895078092813">
        <ele>1465.1900000000001</ele>
        <time>2016-03-18T08:25:09Z</time>
      </trkpt>
      <trkpt lat="46.418064711615443" lon="11.71000731177628">
        <ele>1466.6300000000001</ele>
        <time>2016-03-18T08:25:21Z</time>
      </trkpt>
      <trkpt lat="46.418063370510936" lon="11.710044359788299">
        <ele>1467.1099999999999</ele>
        <time>2016-03-18T08:25:35Z</time>
      </trkpt>
      <trkpt lat="46.418058592826128" lon="11.710051568225026">
        <ele>1467.1099999999999</ele>
        <time>2016-03-18T08:25:36Z</time>
      </trkpt>
      <trkpt lat="46.417992543429136" lon="11.710163969546556">
        <ele>1469.03</ele>
        <time>2016-03-18T08:25:46Z</time>
      </trkpt>
      <trkpt lat="46.417941749095917" lon="11.710282741114497">
        <ele>1470.95</ele>
        <time>2016-03-18T08:25:57Z</time>
      </trkpt>
      <trkpt lat="46.417933953925967" lon="11.71042556874454">
        <ele>1472.4000000000001</ele>
        <time>2016-03-18T08:26:08Z</time>
      </trkpt>
      <trkpt lat="46.417969493195415" lon="11.710550207644701">
        <ele>1473.8399999999999</ele>
        <time>2016-03-18T08:26:19Z</time>
      </trkpt>
      <trkpt lat="46.418021628633142" lon="11.710696052759886">
        <ele>1475.28</ele>
        <time>2016-03-18T08:26:32Z</time>
      </trkpt>
      <trkpt lat="46.417994219809771" lon="11.710734274238348">
        <ele>1475.76</ele>
        <time>2016-03-18T08:26:44Z</time>
      </trkpt>
      <trkpt lat="46.417980724945664" lon="11.71072706580162">
        <ele>1475.76</ele>
        <time>2016-03-18T08:26:59Z</time>
      </trkpt>
      <trkpt lat="46.417994303628802" lon="11.710714157670736">
        <ele>1475.76</ele>
        <time>2016-03-18T08:27:14Z</time>
      </trkpt>
      <trkpt lat="46.41796194948256" lon="11.710767969489098">
        <ele>1475.28</ele>
        <time>2016-03-18T08:27:46Z</time>
      </trkpt>
      <trkpt lat="46.417976701632142" lon="11.710684653371572">
        <ele>1475.76</ele>
        <time>2016-03-18T08:28:04Z</time>
      </trkpt>
      <trkpt lat="46.41800981014967" lon="11.710709212347865">
        <ele>1474.8</ele>
        <time>2016-03-18T08:28:14Z</time>
      </trkpt>
      <trkpt lat="46.418030764907598" lon="11.710727484896779">
        <ele>1474.8</ele>
        <time>2016-03-18T08:28:28Z</time>
      </trkpt>
      <trkpt lat="46.418016767129302" lon="11.710719941183925">
        <ele>1474.3199999999999</ele>
        <time>2016-03-18T08:28:43Z</time>
      </trkpt>
      <trkpt lat="46.418017521500587" lon="11.710700411349535">
        <ele>1474.3199999999999</ele>
        <time>2016-03-18T08:29:03Z</time>
      </trkpt>
      <trkpt lat="46.418031519278884" lon="11.710679959505796">
        <ele>1474.8</ele>
        <time>2016-03-18T08:29:25Z</time>
      </trkpt>
      <trkpt lat="46.417997069656849" lon="11.710720779374242">
        <ele>1474.8</ele>
        <time>2016-03-18T08:29:41Z</time>
      </trkpt>
      <trkpt lat="46.417993633076549" lon="11.710747014731169">
        <ele>1474.3199999999999</ele>
        <time>2016-03-18T08:29:55Z</time>
      </trkpt>
      <trkpt lat="46.418016096577048" lon="11.710706865414977">
        <ele>1474.8</ele>
        <time>2016-03-18T08:30:16Z</time>
      </trkpt>
      <trkpt lat="46.418017018586397" lon="11.710748104378581">
        <ele>1475.76</ele>
        <time>2016-03-18T08:30:28Z</time>
      </trkpt>
      <trkpt lat="46.417996566742659" lon="11.71073435805738">
        <ele>1475.76</ele>
        <time>2016-03-18T08:30:37Z</time>
      </trkpt>
      <trkpt lat="46.417991537600756" lon="11.71069429256022">
        <ele>1476.24</ele>
        <time>2016-03-18T08:30:54Z</time>
      </trkpt>
      <trkpt lat="46.417971923947334" lon="11.710705272853374">
        <ele>1476.24</ele>
        <time>2016-03-18T08:31:07Z</time>
      </trkpt>
      <trkpt lat="46.417953735217452" lon="11.710792863741517">
        <ele>1476.24</ele>
        <time>2016-03-18T08:31:21Z</time>
      </trkpt>
      <trkpt lat="46.417896067723632" lon="11.710751792415977">
        <ele>1477.2</ele>
        <time>2016-03-18T08:31:30Z</time>
      </trkpt>
      <trkpt lat="46.417913166806102" lon="11.710709966719151">
        <ele>1477.2</ele>
        <time>2016-03-18T08:31:38Z</time>
      </trkpt>
      <trkpt lat="46.417919117957354" lon="11.710761934518814">
        <ele>1477.2</ele>
        <time>2016-03-18T08:31:53Z</time>
      </trkpt>
      <trkpt lat="46.41784904524684" lon="11.710782805457711">
        <ele>1478.1600000000001</ele>
        <time>2016-03-18T08:32:03Z</time>
      </trkpt>
      <trkpt lat="46.417830269783735" lon="11.71070259064436">
        <ele>1478.6500000000001</ele>
        <time>2016-03-18T08:32:15Z</time>
      </trkpt>
      <trkpt lat="46.417791461572051" lon="11.710634278133512">
        <ele>1480.0899999999999</ele>
        <time>2016-03-18T08:32:24Z</time>
      </trkpt>
      <trkpt lat="46.417721807956696" lon="11.710580214858055">
        <ele>1481.05</ele>
        <time>2016-03-18T08:32:31Z</time>
      </trkpt>
      <trkpt lat="46.417650058865547" lon="11.710465801879764">
        <ele>1482.49</ele>
        <time>2016-03-18T08:32:43Z</time>
      </trkpt>
      <trkpt lat="46.417610412463546" lon="11.710331691429019">
        <ele>1482.97</ele>
        <time>2016-03-18T08:32:54Z</time>
      </trkpt>
      <trkpt lat="46.417576214298606" lon="11.710181320086122">
        <ele>1484.4100000000001</ele>
        <time>2016-03-18T08:33:06Z</time>
      </trkpt>
      <trkpt lat="46.417476972565055" lon="11.710225660353899">
        <ele>1486.3399999999999</ele>
        <time>2016-03-18T08:33:18Z</time>
      </trkpt>
      <trkpt lat="46.417473452165723" lon="11.710366643965244">
        <ele>1488.26</ele>
        <time>2016-03-18T08:33:31Z</time>
      </trkpt>
      <trkpt lat="46.417498681694269" lon="11.710499580949545">
        <ele>1489.22</ele>
        <time>2016-03-18T08:33:42Z</time>
      </trkpt>
      <trkpt lat="46.417519468814135" lon="11.710644671693444">
        <ele>1490.6600000000001</ele>
        <time>2016-03-18T08:33:53Z</time>
      </trkpt>
      <trkpt lat="46.417545536532998" lon="11.710755145177245">
        <ele>1492.0999999999999</ele>
        <time>2016-03-18T08:34:03Z</time>
      </trkpt>
      <trkpt lat="46.417574621737003" lon="11.710872240364552">
        <ele>1494.51</ele>
        <time>2016-03-18T08:34:14Z</time>
      </trkpt>
      <trkpt lat="46.417614771053195" lon="11.711000902578235">
        <ele>1496.4300000000001</ele>
        <time>2016-03-18T08:34:26Z</time>
      </trkpt>
      <trkpt lat="46.417610580101609" lon="11.711170971393585">
        <ele>1498.3499999999999</ele>
        <time>2016-03-18T08:34:38Z</time>
      </trkpt>
      <trkpt lat="46.417573532089591" lon="11.711293766275048">
        <ele>1499.79</ele>
        <time>2016-03-18T08:34:49Z</time>
      </trkpt>
      <trkpt lat="46.417509578168392" lon="11.711415722966194">
        <ele>1501.24</ele>
        <time>2016-03-18T08:35:00Z</time>
      </trkpt>
      <trkpt lat="46.417486779391766" lon="11.711564417928457">
        <ele>1503.6400000000001</ele>
        <time>2016-03-18T08:35:13Z</time>
      </trkpt>
      <trkpt lat="46.417454509064555" lon="11.711682854220271">
        <ele>1506.04</ele>
        <time>2016-03-18T08:35:23Z</time>
      </trkpt>
      <trkpt lat="46.417436404153705" lon="11.711716465651989">
        <ele>1506.52</ele>
        <time>2016-03-18T08:35:26Z</time>
      </trkpt>
      <trkpt lat="46.417305311188102" lon="11.711808582767844">
        <ele>1507.97</ele>
        <time>2016-03-18T08:35:39Z</time>
      </trkpt>
      <trkpt lat="46.417225347831845" lon="11.711848815903068">
        <ele>1509.4100000000001</ele>
        <time>2016-03-18T08:35:48Z</time>
      </trkpt>
      <trkpt lat="46.417215708643198" lon="11.71186214312911">
        <ele>1509.8900000000001</ele>
        <time>2016-03-18T08:35:50Z</time>
      </trkpt>
      <trkpt lat="46.417116047814488" lon="11.711948812007904">
        <ele>1512.29</ele>
        <time>2016-03-18T08:36:03Z</time>
      </trkpt>
      <trkpt lat="46.417023679241538" lon="11.712009832262993">
        <ele>1513.73</ele>
        <time>2016-03-18T08:36:13Z</time>
      </trkpt>
      <trkpt lat="46.41692753881216" lon="11.712072193622589">
        <ele>1514.6900000000001</ele>
        <time>2016-03-18T08:36:21Z</time>
      </trkpt>
      <trkpt lat="46.416822848841548" lon="11.712167328223586">
        <ele>1515.6600000000001</ele>
        <time>2016-03-18T08:36:31Z</time>
      </trkpt>
      <trkpt lat="46.41681807115674" lon="11.712172608822584">
        <ele>1515.1800000000001</ele>
        <time>2016-03-18T08:36:32Z</time>
      </trkpt>
      <trkpt lat="46.41676384024322" lon="11.712266821414232">
        <ele>1515.6600000000001</ele>
        <time>2016-03-18T08:36:42Z</time>
      </trkpt>
      <trkpt lat="46.416796864941716" lon="11.712353071197867">
        <ele>1515.6600000000001</ele>
        <time>2016-03-18T08:36:51Z</time>
      </trkpt>
      <trkpt lat="46.416818657889962" lon="11.712456252425909">
        <ele>1516.6199999999999</ele>
        <time>2016-03-18T08:37:01Z</time>
      </trkpt>
      <trkpt lat="46.416792590171099" lon="11.712541999295354">
        <ele>1517.5799999999999</ele>
        <time>2016-03-18T08:37:10Z</time>
      </trkpt>
      <trkpt lat="46.416782950982451" lon="11.71269379556179">
        <ele>1518.54</ele>
        <time>2016-03-18T08:37:21Z</time>
      </trkpt>
      <trkpt lat="46.416777921840549" lon="11.712743248790503">
        <ele>1519.02</ele>
        <time>2016-03-18T08:37:24Z</time>
      </trkpt>
      <trkpt lat="46.416742298752069" lon="11.712922705337405">
        <ele>1520.46</ele>
        <time>2016-03-18T08:37:37Z</time>
      </trkpt>
      <trkpt lat="46.416728468611836" lon="11.713055977597833">
        <ele>1520.9400000000001</ele>
        <time>2016-03-18T08:37:46Z</time>
      </trkpt>
      <trkpt lat="46.416672645136714" lon="11.713204672560096">
        <ele>1521.9000000000001</ele>
        <time>2016-03-18T08:37:57Z</time>
      </trkpt>
      <trkpt lat="46.416541635990143" lon="11.713341549038887">
        <ele>1522.8699999999999</ele>
        <time>2016-03-18T08:38:08Z</time>
      </trkpt>
      <trkpt lat="46.416496708989143" lon="11.713384632021189">
        <ele>1523.3499999999999</ele>
        <time>2016-03-18T08:38:14Z</time>
      </trkpt>
      <trkpt lat="46.416438538581133" lon="11.713569285348058">
        <ele>1524.3099999999999</ele>
        <time>2016-03-18T08:38:26Z</time>
      </trkpt>
      <trkpt lat="46.416430743411183" lon="11.713685039430857">
        <ele>1524.3099999999999</ele>
        <time>2016-03-18T08:38:35Z</time>
      </trkpt>
      <trkpt lat="46.416390174999833" lon="11.713820658624172">
        <ele>1523.3499999999999</ele>
        <time>2016-03-18T08:38:45Z</time>
      </trkpt>
      <trkpt lat="46.416370728984475" lon="11.713933227583766">
        <ele>1523.8299999999999</ele>
        <time>2016-03-18T08:38:54Z</time>
      </trkpt>
      <trkpt lat="46.416357401758432" lon="11.714090639725327">
        <ele>1524.79</ele>
        <time>2016-03-18T08:39:04Z</time>
      </trkpt>
      <trkpt lat="46.416348349303007" lon="11.714291218668222">
        <ele>1525.75</ele>
        <time>2016-03-18T08:39:16Z</time>
      </trkpt>
      <trkpt lat="46.416347092017531" lon="11.714321728795767">
        <ele>1525.75</ele>
        <time>2016-03-18T08:39:18Z</time>
      </trkpt>
      <trkpt lat="46.4163538813591" lon="11.714484170079231">
        <ele>1526.23</ele>
        <time>2016-03-18T08:39:28Z</time>
      </trkpt>
      <trkpt lat="46.416350780054927" lon="11.714502358809114">
        <ele>1526.23</ele>
        <time>2016-03-18T08:39:29Z</time>
      </trkpt>
      <trkpt lat="46.41632211394608" lon="11.71463655307889">
        <ele>1526.71</ele>
        <time>2016-03-18T08:39:39Z</time>
      </trkpt>
      <trkpt lat="46.416288251057267" lon="11.71480611898005">
        <ele>1526.71</ele>
        <time>2016-03-18T08:39:49Z</time>
      </trkpt>
      <trkpt lat="46.416279533877969" lon="11.71485741622746">
        <ele>1526.71</ele>
        <time>2016-03-18T08:39:52Z</time>
      </trkpt>
      <trkpt lat="46.41627375036478" lon="11.714889770373702">
        <ele>1526.71</ele>
        <time>2016-03-18T08:39:54Z</time>
      </trkpt>
      <trkpt lat="46.416291855275631" lon="11.715134773403406">
        <ele>1525.27</ele>
        <time>2016-03-18T08:40:07Z</time>
      </trkpt>
      <trkpt lat="46.416275091469288" lon="11.715309284627438">
        <ele>1522.3900000000001</ele>
        <time>2016-03-18T08:40:17Z</time>
      </trkpt>
      <trkpt lat="46.416264697909355" lon="11.715397713705897">
        <ele>1521.4200000000001</ele>
        <time>2016-03-18T08:40:22Z</time>
      </trkpt>
      <trkpt lat="46.416267715394497" lon="11.715596532449126">
        <ele>1519.02</ele>
        <time>2016-03-18T08:40:34Z</time>
      </trkpt>
      <trkpt lat="46.416301662102342" lon="11.715668449178338">
        <ele>1518.0599999999999</ele>
        <time>2016-03-18T08:40:40Z</time>
      </trkpt>
      <trkpt lat="46.416338374838233" lon="11.715707257390022">
        <ele>1517.0999999999999</ele>
        <time>2016-03-18T08:40:44Z</time>
      </trkpt>
      <trkpt lat="46.416417080909014" lon="11.715738018974662">
        <ele>1515.6600000000001</ele>
        <time>2016-03-18T08:40:51Z</time>
      </trkpt>
      <trkpt lat="46.416438622400165" lon="11.71573843806982">
        <ele>1515.1800000000001</ele>
        <time>2016-03-18T08:40:53Z</time>
      </trkpt>
      <trkpt lat="46.416547251865268" lon="11.71585570089519">
        <ele>1513.25</ele>
        <time>2016-03-18T08:41:04Z</time>
      </trkpt>
      <trkpt lat="46.41666023992002" lon="11.716022836044431">
        <ele>1511.3299999999999</ele>
        <time>2016-03-18T08:41:17Z</time>
      </trkpt>
      <trkpt lat="46.416691923514009" lon="11.716090394183993">
        <ele>1510.8499999999999</ele>
        <time>2016-03-18T08:41:22Z</time>
      </trkpt>
      <trkpt lat="46.416745316237211" lon="11.716209165751934">
        <ele>1512.29</ele>
        <time>2016-03-18T08:41:33Z</time>
      </trkpt>
      <trkpt lat="46.416728971526027" lon="11.716250823810697">
        <ele>1511.8099999999999</ele>
        <time>2016-03-18T08:41:41Z</time>
      </trkpt>
      <trkpt lat="46.416718577966094" lon="11.716370182111859">
        <ele>1512.77</ele>
        <time>2016-03-18T08:41:51Z</time>
      </trkpt>
      <trkpt lat="46.41670030541718" lon="11.716544441878796">
        <ele>1514.6900000000001</ele>
        <time>2016-03-18T08:42:02Z</time>
      </trkpt>
      <trkpt lat="46.416695527732372" lon="11.7166927177459">
        <ele>1515.1800000000001</ele>
        <time>2016-03-18T08:42:12Z</time>
      </trkpt>
      <trkpt lat="46.416693599894643" lon="11.71675625257194">
        <ele>1516.1400000000001</ele>
        <time>2016-03-18T08:42:16Z</time>
      </trkpt>
      <trkpt lat="46.416666442528367" lon="11.716853315010667">
        <ele>1516.6199999999999</ele>
        <time>2016-03-18T08:42:22Z</time>
      </trkpt>
      <trkpt lat="46.416667699813843" lon="11.716893967241049">
        <ele>1516.6199999999999</ele>
        <time>2016-03-18T08:42:25Z</time>
      </trkpt>
      <trkpt lat="46.416679099202156" lon="11.716909976676106">
        <ele>1516.6199999999999</ele>
        <time>2016-03-18T08:42:34Z</time>
      </trkpt>
      <trkpt lat="46.416686223819852" lon="11.71689547598362">
        <ele>1517.5799999999999</ele>
        <time>2016-03-18T08:42:52Z</time>
      </trkpt>
      <trkpt lat="46.41667784191668" lon="11.716951131820679">
        <ele>1517.0999999999999</ele>
        <time>2016-03-18T08:43:02Z</time>
      </trkpt>
      <trkpt lat="46.416680021211505" lon="11.716981306672096">
        <ele>1517.0999999999999</ele>
        <time>2016-03-18T08:43:04Z</time>
      </trkpt>
      <trkpt lat="46.416683122515678" lon="11.717041321098804">
        <ele>1517.5799999999999</ele>
        <time>2016-03-18T08:43:08Z</time>
      </trkpt>
      <trkpt lat="46.416685553267598" lon="11.717203762382269">
        <ele>1519.02</ele>
        <time>2016-03-18T08:43:19Z</time>
      </trkpt>
      <trkpt lat="46.416668202728033" lon="11.717287749052048">
        <ele>1519.5</ele>
        <time>2016-03-18T08:43:29Z</time>
      </trkpt>
      <trkpt lat="46.416681110858917" lon="11.71736653894186">
        <ele>1519.98</ele>
        <time>2016-03-18T08:43:39Z</time>
      </trkpt>
      <trkpt lat="46.416697707027197" lon="11.717499140650034">
        <ele>1520.9400000000001</ele>
        <time>2016-03-18T08:43:51Z</time>
      </trkpt>
      <trkpt lat="46.416718494147062" lon="11.717639118432999">
        <ele>1521.9000000000001</ele>
        <time>2016-03-18T08:44:03Z</time>
      </trkpt>
      <trkpt lat="46.416738778352737" lon="11.717802146449685">
        <ele>1523.3499999999999</ele>
        <time>2016-03-18T08:44:15Z</time>
      </trkpt>
      <trkpt lat="46.416749926283956" lon="11.717969868332148">
        <ele>1524.3099999999999</ele>
        <time>2016-03-18T08:44:27Z</time>
      </trkpt>
      <trkpt lat="46.416758559644222" lon="11.718151839450002">
        <ele>1525.75</ele>
        <time>2016-03-18T08:44:41Z</time>
      </trkpt>
      <trkpt lat="46.416755877435207" lon="11.718300869688392">
        <ele>1526.71</ele>
        <time>2016-03-18T08:44:52Z</time>
      </trkpt>
      <trkpt lat="46.41674523241818" lon="11.718415869399905">
        <ele>1527.1900000000001</ele>
        <time>2016-03-18T08:45:01Z</time>
      </trkpt>
      <trkpt lat="46.416747160255909" lon="11.718552829697728">
        <ele>1527.6700000000001</ele>
        <time>2016-03-18T08:45:11Z</time>
      </trkpt>
      <trkpt lat="46.416740454733372" lon="11.718703955411911">
        <ele>1529.5899999999999</ele>
        <time>2016-03-18T08:45:22Z</time>
      </trkpt>
      <trkpt lat="46.416752357035875" lon="11.718758689239621">
        <ele>1530.0799999999999</ele>
        <time>2016-03-18T08:45:27Z</time>
      </trkpt>
      <trkpt lat="46.416758559644222" lon="11.718894056975842">
        <ele>1530.5599999999999</ele>
        <time>2016-03-18T08:45:37Z</time>
      </trkpt>
      <trkpt lat="46.416761493310332" lon="11.719010816887021">
        <ele>1531.52</ele>
        <time>2016-03-18T08:45:45Z</time>
      </trkpt>
      <trkpt lat="46.416762918233871" lon="11.71903763897717">
        <ele>1531.52</ele>
        <time>2016-03-18T08:45:47Z</time>
      </trkpt>
      <trkpt lat="46.416759062558413" lon="11.719201589003205">
        <ele>1532.96</ele>
        <time>2016-03-18T08:46:00Z</time>
      </trkpt>
      <trkpt lat="46.416714889928699" lon="11.719350535422564">
        <ele>1533.4400000000001</ele>
        <time>2016-03-18T08:46:11Z</time>
      </trkpt>
      <trkpt lat="46.416753279045224" lon="11.719410717487335">
        <ele>1534.4000000000001</ele>
        <time>2016-03-18T08:46:20Z</time>
      </trkpt>
      <trkpt lat="46.416762080043554" lon="11.719428654760122">
        <ele>1534.4000000000001</ele>
        <time>2016-03-18T08:46:22Z</time>
      </trkpt>
      <trkpt lat="46.416744897142053" lon="11.719467546790838">
        <ele>1534.4000000000001</ele>
        <time>2016-03-18T08:46:31Z</time>
      </trkpt>
      <trkpt lat="46.416729306802154" lon="11.719539714977145">
        <ele>1534.8800000000001</ele>
        <time>2016-03-18T08:46:43Z</time>
      </trkpt>
      <trkpt lat="46.416696365922689" lon="11.719586737453938">
        <ele>1534.8800000000001</ele>
        <time>2016-03-18T08:46:51Z</time>
      </trkpt>
      <trkpt lat="46.416693432256579" lon="11.719548935070634">
        <ele>1534.8800000000001</ele>
        <time>2016-03-18T08:47:06Z</time>
      </trkpt>
      <trkpt lat="46.416698796674609" lon="11.719545079395175">
        <ele>1535.3599999999999</ele>
        <time>2016-03-18T08:47:10Z</time>
      </trkpt>
      <trkpt lat="46.416671052575111" lon="11.719543403014541">
        <ele>1534.8800000000001</ele>
        <time>2016-03-18T08:47:13Z</time>
      </trkpt>
      <trkpt lat="46.416620006784797" lon="11.719633843749762">
        <ele>1535.3599999999999</ele>
        <time>2016-03-18T08:47:23Z</time>
      </trkpt>
      <trkpt lat="46.416600812226534" lon="11.719644572585821">
        <ele>1535.3599999999999</ele>
        <time>2016-03-18T08:47:39Z</time>
      </trkpt>
      <trkpt lat="46.416613887995481" lon="11.71970508992672">
        <ele>1535.8399999999999</ele>
        <time>2016-03-18T08:47:50Z</time>
      </trkpt>
      <trkpt lat="46.416667113080621" lon="11.719832746312022">
        <ele>1537.29</ele>
        <time>2016-03-18T08:48:03Z</time>
      </trkpt>
      <trkpt lat="46.416678931564093" lon="11.719850096851587">
        <ele>1537.29</ele>
        <time>2016-03-18T08:48:05Z</time>
      </trkpt>
      <trkpt lat="46.416762163862586" lon="11.719965515658259">
        <ele>1537.29</ele>
        <time>2016-03-18T08:48:17Z</time>
      </trkpt>
      <trkpt lat="46.416822010651231" lon="11.720102224498987">
        <ele>1537.77</ele>
        <time>2016-03-18T08:48:28Z</time>
      </trkpt>
      <trkpt lat="46.416831146925688" lon="11.720230551436543">
        <ele>1538.25</ele>
        <time>2016-03-18T08:48:39Z</time>
      </trkpt>
      <trkpt lat="46.416813964024186" lon="11.720287967473269">
        <ele>1538.25</ele>
        <time>2016-03-18T08:48:50Z</time>
      </trkpt>
      <trkpt lat="46.416827207431197" lon="11.720278495922685">
        <ele>1538.73</ele>
        <time>2016-03-18T08:49:06Z</time>
      </trkpt>
      <trkpt lat="46.416827710345387" lon="11.720329038798809">
        <ele>1538.73</ele>
        <time>2016-03-18T08:49:14Z</time>
      </trkpt>
      <trkpt lat="46.416822094470263" lon="11.720329457893968">
        <ele>1538.73</ele>
        <time>2016-03-18T08:49:16Z</time>
      </trkpt>
      <trkpt lat="46.416823184117675" lon="11.720376312732697">
        <ele>1539.21</ele>
        <time>2016-03-18T08:49:21Z</time>
      </trkpt>
      <trkpt lat="46.4168356731534" lon="11.720389137044549">
        <ele>1538.73</ele>
        <time>2016-03-18T08:49:29Z</time>
      </trkpt>
      <trkpt lat="46.416823603212833" lon="11.720358794555068">
        <ele>1538.25</ele>
        <time>2016-03-18T08:49:32Z</time>
      </trkpt>
      <trkpt lat="46.416764510795474" lon="11.720317555591464">
        <ele>1539.21</ele>
        <time>2016-03-18T08:49:42Z</time>
      </trkpt>
      <trkpt lat="46.416757386177778" lon="11.720321411266923">
        <ele>1538.73</ele>
        <time>2016-03-18T08:49:58Z</time>
      </trkpt>
      <trkpt lat="46.416733833029866" lon="11.720340522006154">
        <ele>1538.25</ele>
        <time>2016-03-18T08:50:11Z</time>
      </trkpt>
      <trkpt lat="46.416727211326361" lon="11.720352508127689">
        <ele>1538.25</ele>
        <time>2016-03-18T08:50:29Z</time>
      </trkpt>
      <trkpt lat="46.416721427813172" lon="11.72036424279213">
        <ele>1538.25</ele>
        <time>2016-03-18T08:50:51Z</time>
      </trkpt>
      <trkpt lat="46.416724696755409" lon="11.720394166186452">
        <ele>1538.25</ele>
        <time>2016-03-18T08:50:54Z</time>
      </trkpt>
      <trkpt lat="46.416707010939717" lon="11.720542358234525">
        <ele>1540.1700000000001</ele>
        <time>2016-03-18T08:51:05Z</time>
      </trkpt>
      <trkpt lat="46.41666367650032" lon="11.720689628273249">
        <ele>1541.1300000000001</ele>
        <time>2016-03-18T08:51:16Z</time>
      </trkpt>
      <trkpt lat="46.416675662621856" lon="11.720675127580762">
        <ele>1541.6099999999999</ele>
        <time>2016-03-18T08:51:26Z</time>
      </trkpt>
      <trkpt lat="46.416667448356748" lon="11.720750145614147">
        <ele>1542.0899999999999</ele>
        <time>2016-03-18T08:51:35Z</time>
      </trkpt>
      <trkpt lat="46.416633753105998" lon="11.720896326005459">
        <ele>1543.53</ele>
        <time>2016-03-18T08:51:45Z</time>
      </trkpt>
      <trkpt lat="46.416587149724364" lon="11.721042841672897">
        <ele>1544.5</ele>
        <time>2016-03-18T08:51:56Z</time>
      </trkpt>
      <trkpt lat="46.41650827601552" lon="11.721177203580737">
        <ele>1545.9400000000001</ele>
        <time>2016-03-18T08:52:07Z</time>
      </trkpt>
      <trkpt lat="46.41644231043756" lon="11.721272170543671">
        <ele>1547.3800000000001</ele>
        <time>2016-03-18T08:52:16Z</time>
      </trkpt>
      <trkpt lat="46.416360251605511" lon="11.721389517188072">
        <ele>1548.8199999999999</ele>
        <time>2016-03-18T08:52:27Z</time>
      </trkpt>
      <trkpt lat="46.416287496685982" lon="11.721525806933641">
        <ele>1549.3</ele>
        <time>2016-03-18T08:52:38Z</time>
      </trkpt>
      <trkpt lat="46.416227649897337" lon="11.721657318994403">
        <ele>1550.74</ele>
        <time>2016-03-18T08:52:49Z</time>
      </trkpt>
      <trkpt lat="46.416162354871631" lon="11.721768798306584">
        <ele>1551.71</ele>
        <time>2016-03-18T08:52:59Z</time>
      </trkpt>
      <trkpt lat="46.416108710691333" lon="11.72185362316668">
        <ele>1552.1900000000001</ele>
        <time>2016-03-18T08:53:06Z</time>
      </trkpt>
      <trkpt lat="46.416024221107364" lon="11.721978345885873">
        <ele>1553.6300000000001</ele>
        <time>2016-03-18T08:53:17Z</time>
      </trkpt>
      <trkpt lat="46.415973091498017" lon="11.722071133553982">
        <ele>1554.5899999999999</ele>
        <time>2016-03-18T08:53:26Z</time>
      </trkpt>
      <trkpt lat="46.415897235274315" lon="11.722178254276514">
        <ele>1556.03</ele>
        <time>2016-03-18T08:53:38Z</time>
      </trkpt>
      <trkpt lat="46.415833197534084" lon="11.722268024459481">
        <ele>1556.99</ele>
        <time>2016-03-18T08:53:49Z</time>
      </trkpt>
      <trkpt lat="46.415758011862636" lon="11.722431220114231">
        <ele>1558.4300000000001</ele>
        <time>2016-03-18T08:54:02Z</time>
      </trkpt>
      <trkpt lat="46.415719538927078" lon="11.722570694983006">
        <ele>1559.4000000000001</ele>
        <time>2016-03-18T08:54:12Z</time>
      </trkpt>
      <trkpt lat="46.4156873524189" lon="11.722669433802366">
        <ele>1560.3599999999999</ele>
        <time>2016-03-18T08:54:22Z</time>
      </trkpt>
      <trkpt lat="46.41565365716815" lon="11.722856434062123">
        <ele>1561.8</ele>
        <time>2016-03-18T08:54:37Z</time>
      </trkpt>
      <trkpt lat="46.415640497580171" lon="11.723012002184987">
        <ele>1563.24</ele>
        <time>2016-03-18T08:54:49Z</time>
      </trkpt>
      <trkpt lat="46.415640832856297" lon="11.723149633035064">
        <ele>1564.2</ele>
        <time>2016-03-18T08:55:00Z</time>
      </trkpt>
      <trkpt lat="46.415649550035596" lon="11.723257340490818">
        <ele>1564.6800000000001</ele>
        <time>2016-03-18T08:55:09Z</time>
      </trkpt>
      <trkpt lat="46.415612250566483" lon="11.723411651328206">
        <ele>1565.6400000000001</ele>
        <time>2016-03-18T08:55:23Z</time>
      </trkpt>
      <trkpt lat="46.415599510073662" lon="11.723544504493475">
        <ele>1567.0899999999999</ele>
        <time>2016-03-18T08:55:34Z</time>
      </trkpt>
      <trkpt lat="46.415609735995531" lon="11.723690601065755">
        <ele>1568.05</ele>
        <time>2016-03-18T08:55:46Z</time>
      </trkpt>
      <trkpt lat="46.415637144818902" lon="11.723827896639705">
        <ele>1569.01</ele>
        <time>2016-03-18T08:56:00Z</time>
      </trkpt>
      <trkpt lat="46.415644437074661" lon="11.723836529999971">
        <ele>1569.49</ele>
        <time>2016-03-18T08:56:02Z</time>
      </trkpt>
      <trkpt lat="46.415640329942107" lon="11.723945159465075">
        <ele>1570.45</ele>
        <time>2016-03-18T08:56:12Z</time>
      </trkpt>
      <trkpt lat="46.415656004101038" lon="11.723982878029346">
        <ele>1570.9300000000001</ele>
        <time>2016-03-18T08:56:16Z</time>
      </trkpt>
      <trkpt lat="46.415672935545444" lon="11.724126292392612">
        <ele>1571.8900000000001</ele>
        <time>2016-03-18T08:56:29Z</time>
      </trkpt>
      <trkpt lat="46.415677713230252" lon="11.724187815561891">
        <ele>1572.3699999999999</ele>
        <time>2016-03-18T08:56:35Z</time>
      </trkpt>
      <trkpt lat="46.415670504793525" lon="11.724222349002957">
        <ele>1572.8499999999999</ele>
        <time>2016-03-18T08:56:38Z</time>
      </trkpt>
      <trkpt lat="46.415643682703376" lon="11.724279848858714">
        <ele>1573.3299999999999</ele>
        <time>2016-03-18T08:56:49Z</time>
      </trkpt>
      <trkpt lat="46.415640832856297" lon="11.724302982911468">
        <ele>1573.8199999999999</ele>
        <time>2016-03-18T08:56:59Z</time>
      </trkpt>
      <trkpt lat="46.415603281930089" lon="11.724463161081076">
        <ele>1574.3</ele>
        <time>2016-03-18T08:57:10Z</time>
      </trkpt>
      <trkpt lat="46.415566736832261" lon="11.724620740860701">
        <ele>1576.22</ele>
        <time>2016-03-18T08:57:20Z</time>
      </trkpt>
      <trkpt lat="46.415523486211896" lon="11.724718390032649">
        <ele>1577.6600000000001</ele>
        <time>2016-03-18T08:57:31Z</time>
      </trkpt>
      <trkpt lat="46.415537567809224" lon="11.724705900996923">
        <ele>1577.6600000000001</ele>
        <time>2016-03-18T08:57:35Z</time>
      </trkpt>
      <trkpt lat="46.415511248633265" lon="11.724675726145506">
        <ele>1576.7</ele>
        <time>2016-03-18T08:57:44Z</time>
      </trkpt>
      <trkpt lat="46.41550999134779" lon="11.724668517708778">
        <ele>1577.1800000000001</ele>
        <time>2016-03-18T08:58:00Z</time>
      </trkpt>
      <trkpt lat="46.415490629151464" lon="11.72462803311646">
        <ele>1576.22</ele>
        <time>2016-03-18T08:58:18Z</time>
      </trkpt>
      <trkpt lat="46.415485600009561" lon="11.724630128592253">
        <ele>1576.22</ele>
        <time>2016-03-18T08:58:37Z</time>
      </trkpt>
      <trkpt lat="46.415511667728424" lon="11.724657872691751">
        <ele>1577.1800000000001</ele>
        <time>2016-03-18T08:58:45Z</time>
      </trkpt>
      <trkpt lat="46.415518708527088" lon="11.724674804136157">
        <ele>1577.1800000000001</ele>
        <time>2016-03-18T08:58:57Z</time>
      </trkpt>
      <trkpt lat="46.415524324402213" lon="11.724710343405604">
        <ele>1577.6600000000001</ele>
        <time>2016-03-18T08:59:10Z</time>
      </trkpt>
      <trkpt lat="46.415520133450627" lon="11.724732806906104">
        <ele>1577.6600000000001</ele>
        <time>2016-03-18T08:59:17Z</time>
      </trkpt>
      <trkpt lat="46.415477972477674" lon="11.724848980084062">
        <ele>1579.0999999999999</ele>
        <time>2016-03-18T08:59:25Z</time>
      </trkpt>
      <trkpt lat="46.415405804291368" lon="11.72502726316452">
        <ele>1580.0599999999999</ele>
        <time>2016-03-18T08:59:36Z</time>
      </trkpt>
      <trkpt lat="46.415368923917413" lon="11.725109741091728">
        <ele>1580.54</ele>
        <time>2016-03-18T08:59:42Z</time>
      </trkpt>
      <trkpt lat="46.415299773216248" lon="11.725238487124443">
        <ele>1581.03</ele>
        <time>2016-03-18T08:59:52Z</time>
      </trkpt>
      <trkpt lat="46.415216540917754" lon="11.725375698879361">
        <ele>1582.47</ele>
        <time>2016-03-18T09:00:03Z</time>
      </trkpt>
      <trkpt lat="46.415193155407906" lon="11.725414423272014">
        <ele>1582.95</ele>
        <time>2016-03-18T09:00:07Z</time>
      </trkpt>
      <trkpt lat="46.4151347335428" lon="11.725555323064327">
        <ele>1584.3900000000001</ele>
        <time>2016-03-18T09:00:19Z</time>
      </trkpt>
      <trkpt lat="46.415098356083035" lon="11.725643165409565">
        <ele>1585.3499999999999</ele>
        <time>2016-03-18T09:00:26Z</time>
      </trkpt>
      <trkpt lat="46.415044292807579" lon="11.725783897563815">
        <ele>1586.3099999999999</ele>
        <time>2016-03-18T09:00:37Z</time>
      </trkpt>
      <trkpt lat="46.415028534829617" lon="11.725903255864978">
        <ele>1587.27</ele>
        <time>2016-03-18T09:00:47Z</time>
      </trkpt>
      <trkpt lat="46.415027193725109" lon="11.726011801511049">
        <ele>1587.75</ele>
        <time>2016-03-18T09:00:54Z</time>
      </trkpt>
      <trkpt lat="46.415044460445642" lon="11.726074330508709">
        <ele>1588.72</ele>
        <time>2016-03-18T09:00:59Z</time>
      </trkpt>
      <trkpt lat="46.415071114897728" lon="11.726226042956114">
        <ele>1590.1600000000001</ele>
        <time>2016-03-18T09:01:11Z</time>
      </trkpt>
      <trkpt lat="46.415084945037961" lon="11.72635780647397">
        <ele>1591.5999999999999</ele>
        <time>2016-03-18T09:01:21Z</time>
      </trkpt>
      <trkpt lat="46.415087543427944" lon="11.726374821737409">
        <ele>1591.5999999999999</ele>
        <time>2016-03-18T09:01:22Z</time>
      </trkpt>
      <trkpt lat="46.415064996108413" lon="11.726535419002175">
        <ele>1592.5599999999999</ele>
        <time>2016-03-18T09:01:33Z</time>
      </trkpt>
      <trkpt lat="46.415063487365842" lon="11.726596774533391">
        <ele>1593.04</ele>
        <time>2016-03-18T09:01:38Z</time>
      </trkpt>
      <trkpt lat="46.415046053007245" lon="11.726735327392817">
        <ele>1594</ele>
        <time>2016-03-18T09:01:47Z</time>
      </trkpt>
      <trkpt lat="46.415043957531452" lon="11.726767932996154">
        <ele>1594</ele>
        <time>2016-03-18T09:01:49Z</time>
      </trkpt>
      <trkpt lat="46.415002970024943" lon="11.72691972926259">
        <ele>1595.9300000000001</ele>
        <time>2016-03-18T09:02:01Z</time>
      </trkpt>
      <trkpt lat="46.414959551766515" lon="11.727097006514668">
        <ele>1597.3699999999999</ele>
        <time>2016-03-18T09:02:14Z</time>
      </trkpt>
      <trkpt lat="46.414944715797901" lon="11.727241510525346">
        <ele>1599.29</ele>
        <time>2016-03-18T09:02:24Z</time>
      </trkpt>
      <trkpt lat="46.414919905364513" lon="11.72742641530931">
        <ele>1600.73</ele>
        <time>2016-03-18T09:02:36Z</time>
      </trkpt>
      <trkpt lat="46.414951672777534" lon="11.72756371088326">
        <ele>1601.6900000000001</ele>
        <time>2016-03-18T09:02:48Z</time>
      </trkpt>
      <trkpt lat="46.414975812658668" lon="11.727657755836844">
        <ele>1602.6600000000001</ele>
        <time>2016-03-18T09:02:58Z</time>
      </trkpt>
      <trkpt lat="46.41500330530107" lon="11.727745682001114">
        <ele>1603.1400000000001</ele>
        <time>2016-03-18T09:03:06Z</time>
      </trkpt>
      <trkpt lat="46.415016548708081" lon="11.727888844907284">
        <ele>1604.5799999999999</ele>
        <time>2016-03-18T09:03:17Z</time>
      </trkpt>
      <trkpt lat="46.415021494030952" lon="11.72801423817873">
        <ele>1606.02</ele>
        <time>2016-03-18T09:03:29Z</time>
      </trkpt>
      <trkpt lat="46.415000958368182" lon="11.728161592036486">
        <ele>1607.46</ele>
        <time>2016-03-18T09:03:41Z</time>
      </trkpt>
      <trkpt lat="46.414970448240638" lon="11.728311628103256">
        <ele>1607.9400000000001</ele>
        <time>2016-03-18T09:03:51Z</time>
      </trkpt>
      <trkpt lat="46.414919989183545" lon="11.728483960032463">
        <ele>1609.3800000000001</ele>
        <time>2016-03-18T09:04:03Z</time>
      </trkpt>
      <trkpt lat="46.414881264790893" lon="11.728609269484878">
        <ele>1610.3499999999999</ele>
        <time>2016-03-18T09:04:12Z</time>
      </trkpt>
      <trkpt lat="46.414811946451664" lon="11.7287168931216">
        <ele>1611.79</ele>
        <time>2016-03-18T09:04:24Z</time>
      </trkpt>
      <trkpt lat="46.414724020287395" lon="11.72879895195365">
        <ele>1613.23</ele>
        <time>2016-03-18T09:04:36Z</time>
      </trkpt>
      <trkpt lat="46.414606757462025" lon="11.72888595610857">
        <ele>1614.1900000000001</ele>
        <time>2016-03-18T09:04:47Z</time>
      </trkpt>
      <trkpt lat="46.414593011140823" lon="11.72888595610857">
        <ele>1614.6700000000001</ele>
        <time>2016-03-18T09:04:48Z</time>
      </trkpt>
      <trkpt lat="46.414553700014949" lon="11.728901462629437">
        <ele>1615.1500000000001</ele>
        <time>2016-03-18T09:05:00Z</time>
      </trkpt>
      <trkpt lat="46.414540875703096" lon="11.728877909481525">
        <ele>1614.1900000000001</ele>
        <time>2016-03-18T09:05:15Z</time>
      </trkpt>
      <trkpt lat="46.414515227079391" lon="11.728885788470507">
        <ele>1614.1900000000001</ele>
        <time>2016-03-18T09:05:32Z</time>
      </trkpt>
      <trkpt lat="46.414497792720795" lon="11.728908251971006">
        <ele>1614.1900000000001</ele>
        <time>2016-03-18T09:05:43Z</time>
      </trkpt>
      <trkpt lat="46.41446677967906" lon="11.728956867009401">
        <ele>1616.1099999999999</ele>
        <time>2016-03-18T09:05:58Z</time>
      </trkpt>
      <trkpt lat="46.414463175460696" lon="11.728936834260821">
        <ele>1615.6300000000001</ele>
        <time>2016-03-18T09:06:16Z</time>
      </trkpt>
      <trkpt lat="46.414508186280727" lon="11.728880759328604">
        <ele>1615.6300000000001</ele>
        <time>2016-03-18T09:06:31Z</time>
      </trkpt>
      <trkpt lat="46.414527883753181" lon="11.728868186473846">
        <ele>1615.6300000000001</ele>
        <time>2016-03-18T09:06:42Z</time>
      </trkpt>
      <trkpt lat="46.414514640346169" lon="11.728863576427102">
        <ele>1615.6300000000001</ele>
        <time>2016-03-18T09:06:53Z</time>
      </trkpt>
      <trkpt lat="46.414497876539826" lon="11.728921411558986">
        <ele>1616.1099999999999</ele>
        <time>2016-03-18T09:07:03Z</time>
      </trkpt>
      <trkpt lat="46.414450351148844" lon="11.729038674384356">
        <ele>1617.0699999999999</ele>
        <time>2016-03-18T09:07:14Z</time>
      </trkpt>
      <trkpt lat="46.414390588179231" lon="11.729148058220744">
        <ele>1618.52</ele>
        <time>2016-03-18T09:07:25Z</time>
      </trkpt>
      <trkpt lat="46.414314564317465" lon="11.729232966899872">
        <ele>1619.96</ele>
        <time>2016-03-18T09:07:37Z</time>
      </trkpt>
      <trkpt lat="46.414208952337503" lon="11.729175634682178">
        <ele>1620.9200000000001</ele>
        <time>2016-03-18T09:07:50Z</time>
      </trkpt>
      <trkpt lat="46.414177939295769" lon="11.729115368798375">
        <ele>1621.4000000000001</ele>
        <time>2016-03-18T09:08:01Z</time>
      </trkpt>
      <trkpt lat="46.414142483845353" lon="11.729063065722585">
        <ele>1621.4000000000001</ele>
        <time>2016-03-18T09:08:11Z</time>
      </trkpt>
      <trkpt lat="46.414129659533501" lon="11.729060132056475">
        <ele>1622.3599999999999</ele>
        <time>2016-03-18T09:08:24Z</time>
      </trkpt>
      <trkpt lat="46.414127061143517" lon="11.729023586958647">
        <ele>1622.3599999999999</ele>
        <time>2016-03-18T09:08:29Z</time>
      </trkpt>
      <trkpt lat="46.414136532694101" lon="11.728884363546968">
        <ele>1623.3199999999999</ele>
        <time>2016-03-18T09:08:41Z</time>
      </trkpt>
      <trkpt lat="46.414135526865721" lon="11.728871120139956">
        <ele>1623.3199999999999</ele>
        <time>2016-03-18T09:08:42Z</time>
      </trkpt>
      <trkpt lat="46.414148434996605" lon="11.728713791817427">
        <ele>1624.77</ele>
        <time>2016-03-18T09:08:53Z</time>
      </trkpt>
      <trkpt lat="46.414154134690762" lon="11.72865629196167">
        <ele>1625.25</ele>
        <time>2016-03-18T09:08:57Z</time>
      </trkpt>
      <trkpt lat="46.414152542129159" lon="11.728456132113934">
        <ele>1626.21</ele>
        <time>2016-03-18T09:09:09Z</time>
      </trkpt>
      <trkpt lat="46.414130246266723" lon="11.728315483778715">
        <ele>1627.6500000000001</ele>
        <time>2016-03-18T09:09:20Z</time>
      </trkpt>
      <trkpt lat="46.414105603471398" lon="11.728190844878554">
        <ele>1628.6099999999999</ele>
        <time>2016-03-18T09:09:30Z</time>
      </trkpt>
      <trkpt lat="46.414075847715139" lon="11.728018010035157">
        <ele>1630.05</ele>
        <time>2016-03-18T09:09:43Z</time>
      </trkpt>
      <trkpt lat="46.414121193811297" lon="11.727837296202779">
        <ele>1631.98</ele>
        <time>2016-03-18T09:09:55Z</time>
      </trkpt>
      <trkpt lat="46.414131922647357" lon="11.727683572098613">
        <ele>1632.9400000000001</ele>
        <time>2016-03-18T09:10:07Z</time>
      </trkpt>
      <trkpt lat="46.414126390591264" lon="11.727629844099283">
        <ele>1633.4200000000001</ele>
        <time>2016-03-18T09:10:11Z</time>
      </trkpt>
      <trkpt lat="46.414160085842013" lon="11.727510653436184">
        <ele>1634.3800000000001</ele>
        <time>2016-03-18T09:10:21Z</time>
      </trkpt>
      <trkpt lat="46.414170227944851" lon="11.727410741150379">
        <ele>1635.3399999999999</ele>
        <time>2016-03-18T09:10:32Z</time>
      </trkpt>
      <trkpt lat="46.41413795761764" lon="11.727349134162068">
        <ele>1636.78</ele>
        <time>2016-03-18T09:10:44Z</time>
      </trkpt>
      <trkpt lat="46.414110381156206" lon="11.72744988463819">
        <ele>1638.22</ele>
        <time>2016-03-18T09:10:55Z</time>
      </trkpt>
      <trkpt lat="46.41410275362432" lon="11.727574774995446">
        <ele>1639.1900000000001</ele>
        <time>2016-03-18T09:11:07Z</time>
      </trkpt>
      <trkpt lat="46.414055479690433" lon="11.727667478844523">
        <ele>1640.1500000000001</ele>
        <time>2016-03-18T09:11:19Z</time>
      </trkpt>
      <trkpt lat="46.414022538810968" lon="11.727783652022481">
        <ele>1641.5899999999999</ele>
        <time>2016-03-18T09:11:32Z</time>
      </trkpt>
      <trkpt lat="46.413986580446362" lon="11.727903680875897">
        <ele>1642.55</ele>
        <time>2016-03-18T09:11:44Z</time>
      </trkpt>
      <trkpt lat="46.413952801376581" lon="11.72805966809392">
        <ele>1643.51</ele>
        <time>2016-03-18T09:11:57Z</time>
      </trkpt>
      <trkpt lat="46.413922291249037" lon="11.728183468803763">
        <ele>1644.95</ele>
        <time>2016-03-18T09:12:09Z</time>
      </trkpt>
      <trkpt lat="46.413880465552211" lon="11.728284722194076">
        <ele>1646.4000000000001</ele>
        <time>2016-03-18T09:12:21Z</time>
      </trkpt>
      <trkpt lat="46.413862444460392" lon="11.728406008332968">
        <ele>1647.3599999999999</ele>
        <time>2016-03-18T09:12:35Z</time>
      </trkpt>
      <trkpt lat="46.413825899362564" lon="11.72847650013864">
        <ele>1648.8</ele>
        <time>2016-03-18T09:12:45Z</time>
      </trkpt>
      <trkpt lat="46.413785750046372" lon="11.728562749922276">
        <ele>1649.28</ele>
        <time>2016-03-18T09:12:58Z</time>
      </trkpt>
      <trkpt lat="46.413762029260397" lon="11.728662997484207">
        <ele>1650.72</ele>
        <time>2016-03-18T09:13:09Z</time>
      </trkpt>
      <trkpt lat="46.413701931014657" lon="11.728760814294219">
        <ele>1651.6800000000001</ele>
        <time>2016-03-18T09:13:23Z</time>
      </trkpt>
      <trkpt lat="46.413627164438367" lon="11.728874975815415">
        <ele>1652.6400000000001</ele>
        <time>2016-03-18T09:13:35Z</time>
      </trkpt>
      <trkpt lat="46.413549799472094" lon="11.728999111801386">
        <ele>1654.0899999999999</ele>
        <time>2016-03-18T09:13:48Z</time>
      </trkpt>
      <trkpt lat="46.413550553843379" lon="11.729024341329932">
        <ele>1654.0899999999999</ele>
        <time>2016-03-18T09:13:58Z</time>
      </trkpt>
      <trkpt lat="46.413550050929189" lon="11.729047894477844">
        <ele>1654.0899999999999</ele>
        <time>2016-03-18T09:14:17Z</time>
      </trkpt>
      <trkpt lat="46.413496490567923" lon="11.729112938046455">
        <ele>1655.05</ele>
        <time>2016-03-18T09:14:27Z</time>
      </trkpt>
      <trkpt lat="46.413493724539876" lon="11.729192482307553">
        <ele>1655.53</ele>
        <time>2016-03-18T09:14:36Z</time>
      </trkpt>
      <trkpt lat="46.413503447547555" lon="11.729269009083509">
        <ele>1656.49</ele>
        <time>2016-03-18T09:14:46Z</time>
      </trkpt>
      <trkpt lat="46.413458352908492" lon="11.729329191148281">
        <ele>1656.49</ele>
        <time>2016-03-18T09:14:59Z</time>
      </trkpt>
      <trkpt lat="46.413509147241712" lon="11.729366825893521">
        <ele>1656.97</ele>
        <time>2016-03-18T09:15:13Z</time>
      </trkpt>
      <trkpt lat="46.413511577993631" lon="11.729378728196025">
        <ele>1656.97</ele>
        <time>2016-03-18T09:15:14Z</time>
      </trkpt>
      <trkpt lat="46.413519373163581" lon="11.729502864181995">
        <ele>1657.9300000000001</ele>
        <time>2016-03-18T09:15:25Z</time>
      </trkpt>
      <trkpt lat="46.413463046774268" lon="11.72948257997632">
        <ele>1657.9300000000001</ele>
        <time>2016-03-18T09:15:41Z</time>
      </trkpt>
      <trkpt lat="46.413455251604319" lon="11.72949087806046">
        <ele>1657.9300000000001</ele>
        <time>2016-03-18T09:15:55Z</time>
      </trkpt>
      <trkpt lat="46.413478134199977" lon="11.729596490040421">
        <ele>1659.3699999999999</ele>
        <time>2016-03-18T09:16:06Z</time>
      </trkpt>
      <trkpt lat="46.413463465869427" lon="11.729715932160616">
        <ele>1660.3299999999999</ele>
        <time>2016-03-18T09:16:16Z</time>
      </trkpt>
      <trkpt lat="46.413459861651063" lon="11.729730432853103">
        <ele>1660.3299999999999</ele>
        <time>2016-03-18T09:16:17Z</time>
      </trkpt>
      <trkpt lat="46.413418706506491" lon="11.729876110330224">
        <ele>1661.3</ele>
        <time>2016-03-18T09:16:30Z</time>
      </trkpt>
      <trkpt lat="46.413387358188629" lon="11.730010639876127">
        <ele>1663.22</ele>
        <time>2016-03-18T09:16:44Z</time>
      </trkpt>
      <trkpt lat="46.413391465321183" lon="11.730064200237393">
        <ele>1663.7</ele>
        <time>2016-03-18T09:16:51Z</time>
      </trkpt>
      <trkpt lat="46.413346789777279" lon="11.730153886601329">
        <ele>1665.1400000000001</ele>
        <time>2016-03-18T09:17:01Z</time>
      </trkpt>
      <trkpt lat="46.413320554420352" lon="11.730265533551574">
        <ele>1666.0999999999999</ele>
        <time>2016-03-18T09:17:13Z</time>
      </trkpt>
      <trkpt lat="46.413316363468766" lon="11.730304090306163">
        <ele>1666.5799999999999</ele>
        <time>2016-03-18T09:17:16Z</time>
      </trkpt>
      <trkpt lat="46.413324829190969" lon="11.730398219078779">
        <ele>1666.5799999999999</ele>
        <time>2016-03-18T09:17:28Z</time>
      </trkpt>
      <trkpt lat="46.413305383175611" lon="11.730362931266427">
        <ele>1666.5799999999999</ele>
        <time>2016-03-18T09:17:42Z</time>
      </trkpt>
      <trkpt lat="46.413309322670102" lon="11.730395369231701">
        <ele>1665.6199999999999</ele>
        <time>2016-03-18T09:17:58Z</time>
      </trkpt>
      <trkpt lat="46.413324493914843" lon="11.730413557961583">
        <ele>1666.5799999999999</ele>
        <time>2016-03-18T09:18:15Z</time>
      </trkpt>
      <trkpt lat="46.413306137546897" lon="11.730494108051062">
        <ele>1667.0599999999999</ele>
        <time>2016-03-18T09:18:23Z</time>
      </trkpt>
      <trkpt lat="46.413303203880787" lon="11.73063182272017">
        <ele>1668.02</ele>
        <time>2016-03-18T09:18:33Z</time>
      </trkpt>
      <trkpt lat="46.413316028192639" lon="11.730747492983937">
        <ele>1669.47</ele>
        <time>2016-03-18T09:18:43Z</time>
      </trkpt>
      <trkpt lat="46.413332959637046" lon="11.730853524059057">
        <ele>1669.95</ele>
        <time>2016-03-18T09:18:50Z</time>
      </trkpt>
      <trkpt lat="46.413354584947228" lon="11.730975229293108">
        <ele>1670.9100000000001</ele>
        <time>2016-03-18T09:19:02Z</time>
      </trkpt>
      <trkpt lat="46.413366235792637" lon="11.731073129922152">
        <ele>1671.8699999999999</ele>
        <time>2016-03-18T09:19:10Z</time>
      </trkpt>
      <trkpt lat="46.413388699293137" lon="11.731218555942178">
        <ele>1673.3099999999999</ele>
        <time>2016-03-18T09:19:21Z</time>
      </trkpt>
      <trkpt lat="46.413386687636375" lon="11.731353756040335">
        <ele>1674.27</ele>
        <time>2016-03-18T09:19:32Z</time>
      </trkpt>
      <trkpt lat="46.41335517168045" lon="11.731465570628643">
        <ele>1675.23</ele>
        <time>2016-03-18T09:19:41Z</time>
      </trkpt>
      <trkpt lat="46.413341173902154" lon="11.731572356075048">
        <ele>1676.2</ele>
        <time>2016-03-18T09:19:51Z</time>
      </trkpt>
      <trkpt lat="46.413327679038048" lon="11.731636645272374">
        <ele>1676.6800000000001</ele>
        <time>2016-03-18T09:19:56Z</time>
      </trkpt>
      <trkpt lat="46.41329649835825" lon="11.731778047978878">
        <ele>1677.6400000000001</ele>
        <time>2016-03-18T09:20:05Z</time>
      </trkpt>
      <trkpt lat="46.413263473659754" lon="11.731979716569185">
        <ele>1679.0799999999999</ele>
        <time>2016-03-18T09:20:19Z</time>
      </trkpt>
      <trkpt lat="46.413217624649405" lon="11.732096476480365">
        <ele>1680.04</ele>
        <time>2016-03-18T09:20:29Z</time>
      </trkpt>
      <trkpt lat="46.41320806927979" lon="11.732125477865338">
        <ele>1680.52</ele>
        <time>2016-03-18T09:20:32Z</time>
      </trkpt>
      <trkpt lat="46.413143360987306" lon="11.732246680185199">
        <ele>1681.96</ele>
        <time>2016-03-18T09:20:45Z</time>
      </trkpt>
      <trkpt lat="46.413055183365941" lon="11.732308622449636">
        <ele>1682.9300000000001</ele>
        <time>2016-03-18T09:20:57Z</time>
      </trkpt>
      <trkpt lat="46.412969436496496" lon="11.732351956889033">
        <ele>1683.8900000000001</ele>
        <time>2016-03-18T09:21:05Z</time>
      </trkpt>
      <trkpt lat="46.412887796759605" lon="11.732375677675009">
        <ele>1684.3699999999999</ele>
        <time>2016-03-18T09:21:11Z</time>
      </trkpt>
      <trkpt lat="46.412795092910528" lon="11.732370983809233">
        <ele>1685.8099999999999</ele>
        <time>2016-03-18T09:21:23Z</time>
      </trkpt>
      <trkpt lat="46.412728959694505" lon="11.732329241931438">
        <ele>1687.25</ele>
        <time>2016-03-18T09:21:33Z</time>
      </trkpt>
      <trkpt lat="46.412666849792004" lon="11.732269478961825">
        <ele>1688.21</ele>
        <time>2016-03-18T09:21:44Z</time>
      </trkpt>
      <trkpt lat="46.412647739052773" lon="11.732223210856318">
        <ele>1688.6900000000001</ele>
        <time>2016-03-18T09:21:55Z</time>
      </trkpt>
      <trkpt lat="46.412622509524226" lon="11.732208039611578">
        <ele>1689.1700000000001</ele>
        <time>2016-03-18T09:21:58Z</time>
      </trkpt>
      <trkpt lat="46.412525782361627" lon="11.732183145359159">
        <ele>1690.6199999999999</ele>
        <time>2016-03-18T09:22:07Z</time>
      </trkpt>
      <trkpt lat="46.41244288533926" lon="11.732174260541797">
        <ele>1692.0599999999999</ele>
        <time>2016-03-18T09:22:18Z</time>
      </trkpt>
      <trkpt lat="46.412364263087511" lon="11.732191862538457">
        <ele>1693.98</ele>
        <time>2016-03-18T09:22:30Z</time>
      </trkpt>
      <trkpt lat="46.412291927263141" lon="11.732215667143464">
        <ele>1695.9000000000001</ele>
        <time>2016-03-18T09:22:41Z</time>
      </trkpt>
      <trkpt lat="46.412193356081843" lon="11.732261851429939">
        <ele>1696.8599999999999</ele>
        <time>2016-03-18T09:22:53Z</time>
      </trkpt>
      <trkpt lat="46.412114482372999" lon="11.732279369607568">
        <ele>1697.8299999999999</ele>
        <time>2016-03-18T09:23:03Z</time>
      </trkpt>
      <trkpt lat="46.412008283659816" lon="11.732327397912741">
        <ele>1698.79</ele>
        <time>2016-03-18T09:23:15Z</time>
      </trkpt>
      <trkpt lat="46.411972241476178" lon="11.732367211952806">
        <ele>1699.75</ele>
        <time>2016-03-18T09:23:25Z</time>
      </trkpt>
      <trkpt lat="46.411877945065498" lon="11.732438625767827">
        <ele>1700.23</ele>
        <time>2016-03-18T09:23:37Z</time>
      </trkpt>
      <trkpt lat="46.411795215681195" lon="11.732513392344117">
        <ele>1700.71</ele>
        <time>2016-03-18T09:23:46Z</time>
      </trkpt>
      <trkpt lat="46.411764621734619" lon="11.732528144493699">
        <ele>1700.71</ele>
        <time>2016-03-18T09:23:49Z</time>
      </trkpt>
      <trkpt lat="46.411666553467512" lon="11.732605174183846">
        <ele>1701.1900000000001</ele>
        <time>2016-03-18T09:24:01Z</time>
      </trkpt>
      <trkpt lat="46.411588937044144" lon="11.73269821330905">
        <ele>1702.6300000000001</ele>
        <time>2016-03-18T09:24:13Z</time>
      </trkpt>
      <trkpt lat="46.411496065557003" lon="11.732752192765474">
        <ele>1703.1099999999999</ele>
        <time>2016-03-18T09:24:25Z</time>
      </trkpt>
      <trkpt lat="46.411383328959346" lon="11.732796281576157">
        <ele>1704.55</ele>
        <time>2016-03-18T09:24:36Z</time>
      </trkpt>
      <trkpt lat="46.41124670393765" lon="11.732805920764804">
        <ele>1705.52</ele>
        <time>2016-03-18T09:24:47Z</time>
      </trkpt>
      <trkpt lat="46.411120807752013" lon="11.732813213020563">
        <ele>1706.96</ele>
        <time>2016-03-18T09:25:01Z</time>
      </trkpt>
      <trkpt lat="46.411029361188412" lon="11.732812877744436">
        <ele>1708.4000000000001</ele>
        <time>2016-03-18T09:25:13Z</time>
      </trkpt>
      <trkpt lat="46.410948894917965" lon="11.732783373445272">
        <ele>1709.8399999999999</ele>
        <time>2016-03-18T09:25:24Z</time>
      </trkpt>
      <trkpt lat="46.410847809165716" lon="11.732758563011885">
        <ele>1710.8</ele>
        <time>2016-03-18T09:25:35Z</time>
      </trkpt>
      <trkpt lat="46.410738425329328" lon="11.73273392021656">
        <ele>1711.76</ele>
        <time>2016-03-18T09:25:47Z</time>
      </trkpt>
      <trkpt lat="46.410712525248528" lon="11.73272998072207">
        <ele>1711.76</ele>
        <time>2016-03-18T09:25:49Z</time>
      </trkpt>
      <trkpt lat="46.410634657368064" lon="11.73273635096848">
        <ele>1713.21</ele>
        <time>2016-03-18T09:26:00Z</time>
      </trkpt>
      <trkpt lat="46.410548239946365" lon="11.732755964621902">
        <ele>1713.6900000000001</ele>
        <time>2016-03-18T09:26:12Z</time>
      </trkpt>
      <trkpt lat="46.410482106730342" lon="11.732781110331416">
        <ele>1715.1300000000001</ele>
        <time>2016-03-18T09:26:22Z</time>
      </trkpt>
      <trkpt lat="46.410455200821161" lon="11.732811452820897">
        <ele>1715.6099999999999</ele>
        <time>2016-03-18T09:26:38Z</time>
      </trkpt>
      <trkpt lat="46.410399461165071" lon="11.732821259647608">
        <ele>1717.05</ele>
        <time>2016-03-18T09:26:49Z</time>
      </trkpt>
      <trkpt lat="46.410313546657562" lon="11.732914047315717">
        <ele>1718.01</ele>
        <time>2016-03-18T09:26:58Z</time>
      </trkpt>
      <trkpt lat="46.41025822609663" lon="11.73295478336513">
        <ele>1718.49</ele>
        <time>2016-03-18T09:27:08Z</time>
      </trkpt>
      <trkpt lat="46.410204079002142" lon="11.733011109754443">
        <ele>1718.97</ele>
        <time>2016-03-18T09:27:18Z</time>
      </trkpt>
      <trkpt lat="46.410127971321344" lon="11.73304664902389">
        <ele>1719.46</ele>
        <time>2016-03-18T09:27:28Z</time>
      </trkpt>
      <trkpt lat="46.410083547234535" lon="11.7330979462713">
        <ele>1720.4200000000001</ele>
        <time>2016-03-18T09:27:38Z</time>
      </trkpt>
      <trkpt lat="46.410032333806157" lon="11.733167348429561">
        <ele>1721.8599999999999</ele>
        <time>2016-03-18T09:27:48Z</time>
      </trkpt>
      <trkpt lat="46.410019006580114" lon="11.733190314844251">
        <ele>1721.8599999999999</ele>
        <time>2016-03-18T09:27:50Z</time>
      </trkpt>
      <trkpt lat="46.4099489338696" lon="11.733288466930389">
        <ele>1722.8199999999999</ele>
        <time>2016-03-18T09:28:01Z</time>
      </trkpt>
      <trkpt lat="46.40986486338079" lon="11.733405729755759">
        <ele>1724.74</ele>
        <time>2016-03-18T09:28:12Z</time>
      </trkpt>
      <trkpt lat="46.40980769880116" lon="11.733483178541064">
        <ele>1726.1800000000001</ele>
        <time>2016-03-18T09:28:22Z</time>
      </trkpt>
      <trkpt lat="46.409752545878291" lon="11.733585521578789">
        <ele>1727.6300000000001</ele>
        <time>2016-03-18T09:28:33Z</time>
      </trkpt>
      <trkpt lat="46.409701500087976" lon="11.733686188235879">
        <ele>1728.5899999999999</ele>
        <time>2016-03-18T09:28:43Z</time>
      </trkpt>
      <trkpt lat="46.409649951383471" lon="11.733764223754406">
        <ele>1729.0699999999999</ele>
        <time>2016-03-18T09:28:51Z</time>
      </trkpt>
      <trkpt lat="46.409547105431557" lon="11.733877714723349">
        <ele>1730.03</ele>
        <time>2016-03-18T09:29:05Z</time>
      </trkpt>
      <trkpt lat="46.409482816234231" lon="11.73396815545857">
        <ele>1730.99</ele>
        <time>2016-03-18T09:29:16Z</time>
      </trkpt>
      <trkpt lat="46.409385083243251" lon="11.734051052480936">
        <ele>1732.4300000000001</ele>
        <time>2016-03-18T09:29:28Z</time>
      </trkpt>
      <trkpt lat="46.409316938370466" lon="11.734124980866909">
        <ele>1733.3900000000001</ele>
        <time>2016-03-18T09:29:38Z</time>
      </trkpt>
      <trkpt lat="46.409227754920721" lon="11.734183486551046">
        <ele>1735.3199999999999</ele>
        <time>2016-03-18T09:29:49Z</time>
      </trkpt>
      <trkpt lat="46.409162292256951" lon="11.734230844303966">
        <ele>1736.76</ele>
        <time>2016-03-18T09:29:58Z</time>
      </trkpt>
      <trkpt lat="46.409046705812216" lon="11.73424911685288">
        <ele>1738.2</ele>
        <time>2016-03-18T09:30:09Z</time>
      </trkpt>
      <trkpt lat="46.408969173207879" lon="11.734277447685599">
        <ele>1739.6400000000001</ele>
        <time>2016-03-18T09:30:21Z</time>
      </trkpt>
      <trkpt lat="46.408960120752454" lon="11.734271580353379">
        <ele>1739.6400000000001</ele>
        <time>2016-03-18T09:30:22Z</time>
      </trkpt>
      <trkpt lat="46.408875547349453" lon="11.734289936721325">
        <ele>1741.5699999999999</ele>
        <time>2016-03-18T09:30:35Z</time>
      </trkpt>
      <trkpt lat="46.408765744417906" lon="11.734327571466565">
        <ele>1743.49</ele>
        <time>2016-03-18T09:30:47Z</time>
      </trkpt>
      <trkpt lat="46.408659964799881" lon="11.73431659117341">
        <ele>1744.45</ele>
        <time>2016-03-18T09:30:58Z</time>
      </trkpt>
      <trkpt lat="46.408568518236279" lon="11.734350202605128">
        <ele>1745.8900000000001</ele>
        <time>2016-03-18T09:31:09Z</time>
      </trkpt>
      <trkpt lat="46.408487716689706" lon="11.734343999996781">
        <ele>1747.3299999999999</ele>
        <time>2016-03-18T09:31:21Z</time>
      </trkpt>
      <trkpt lat="46.408413872122765" lon="11.734345844015479">
        <ele>1748.29</ele>
        <time>2016-03-18T09:31:31Z</time>
      </trkpt>
      <trkpt lat="46.408313373103738" lon="11.73437861725688">
        <ele>1750.22</ele>
        <time>2016-03-18T09:31:45Z</time>
      </trkpt>
      <trkpt lat="46.408235169947147" lon="11.734446845948696">
        <ele>1751.1800000000001</ele>
        <time>2016-03-18T09:31:57Z</time>
      </trkpt>
      <trkpt lat="46.408134754747152" lon="11.734508033841848">
        <ele>1752.1400000000001</ele>
        <time>2016-03-18T09:32:09Z</time>
      </trkpt>
      <trkpt lat="46.408037273213267" lon="11.734587829560041">
        <ele>1753.0999999999999</ele>
        <time>2016-03-18T09:32:21Z</time>
      </trkpt>
      <trkpt lat="46.407998129725456" lon="11.734598390758038">
        <ele>1753.0999999999999</ele>
        <time>2016-03-18T09:32:38Z</time>
      </trkpt>
      <trkpt lat="46.407919758930802" lon="11.734619764611125">
        <ele>1752.1400000000001</ele>
        <time>2016-03-18T09:33:02Z</time>
      </trkpt>
      <trkpt lat="46.40788103453815" lon="11.734668631106615">
        <ele>1752.1400000000001</ele>
        <time>2016-03-18T09:33:23Z</time>
      </trkpt>
      <trkpt lat="46.407905258238316" lon="11.734664775431156">
        <ele>1753.0999999999999</ele>
        <time>2016-03-18T09:33:38Z</time>
      </trkpt>
      <trkpt lat="46.4079181663692" lon="11.734636444598436">
        <ele>1753.0999999999999</ele>
        <time>2016-03-18T09:33:54Z</time>
      </trkpt>
      <trkpt lat="46.407957477495074" lon="11.734606605023146">
        <ele>1753.5799999999999</ele>
        <time>2016-03-18T09:34:07Z</time>
      </trkpt>
      <trkpt lat="46.407937528565526" lon="11.734643569216132">
        <ele>1753.0999999999999</ele>
        <time>2016-03-18T09:34:24Z</time>
      </trkpt>
      <trkpt lat="46.407933840528131" lon="11.734589925035834">
        <ele>1752.1400000000001</ele>
        <time>2016-03-18T09:34:41Z</time>
      </trkpt>
      <trkpt lat="46.407965524122119" lon="11.734623368829489">
        <ele>1753.0999999999999</ele>
        <time>2016-03-18T09:35:03Z</time>
      </trkpt>
      <trkpt lat="46.407892685383558" lon="11.734718251973391">
        <ele>1754.0599999999999</ele>
        <time>2016-03-18T09:35:15Z</time>
      </trkpt>
      <trkpt lat="46.407827138900757" lon="11.734775919467211">
        <ele>1754.54</ele>
        <time>2016-03-18T09:35:28Z</time>
      </trkpt>
      <trkpt lat="46.407813057303429" lon="11.734825791791081">
        <ele>1754.0599999999999</ele>
        <time>2016-03-18T09:35:44Z</time>
      </trkpt>
      <trkpt lat="46.407796880230308" lon="11.734845824539661">
        <ele>1753.5799999999999</ele>
        <time>2016-03-18T09:35:59Z</time>
      </trkpt>
      <trkpt lat="46.407808614894748" lon="11.734824450686574">
        <ele>1754.0599999999999</ele>
        <time>2016-03-18T09:36:13Z</time>
      </trkpt>
      <trkpt lat="46.407791096717119" lon="11.734818164259195">
        <ele>1753.5799999999999</ele>
        <time>2016-03-18T09:36:25Z</time>
      </trkpt>
      <trkpt lat="46.407794449478388" lon="11.734820175915956">
        <ele>1754.0599999999999</ele>
        <time>2016-03-18T09:36:36Z</time>
      </trkpt>
      <trkpt lat="46.407811129465699" lon="11.734823444858193">
        <ele>1753.5799999999999</ele>
        <time>2016-03-18T09:36:48Z</time>
      </trkpt>
      <trkpt lat="46.407806184142828" lon="11.734831491485238">
        <ele>1754.0599999999999</ele>
        <time>2016-03-18T09:37:05Z</time>
      </trkpt>
      <trkpt lat="46.407812805846334" lon="11.734839454293251">
        <ele>1754.0599999999999</ele>
        <time>2016-03-18T09:37:19Z</time>
      </trkpt>
      <trkpt lat="46.407841891050339" lon="11.734922435134649">
        <ele>1755.5</ele>
        <time>2016-03-18T09:37:30Z</time>
      </trkpt>
      <trkpt lat="46.407837867736816" lon="11.734993262216449">
        <ele>1756.47</ele>
        <time>2016-03-18T09:37:39Z</time>
      </trkpt>
      <trkpt lat="46.407813811674714" lon="11.73503877595067">
        <ele>1756.47</ele>
        <time>2016-03-18T09:37:44Z</time>
      </trkpt>
      <trkpt lat="46.407776847481728" lon="11.735101472586393">
        <ele>1756.47</ele>
        <time>2016-03-18T09:37:52Z</time>
      </trkpt>
      <trkpt lat="46.407768046483397" lon="11.735162492841482">
        <ele>1755.99</ele>
        <time>2016-03-18T09:38:01Z</time>
      </trkpt>
      <trkpt lat="46.407753797248006" lon="11.735179927200079">
        <ele>1755.99</ele>
        <time>2016-03-18T09:38:23Z</time>
      </trkpt>
      <trkpt lat="46.40778087079525" lon="11.735201887786388">
        <ele>1756.47</ele>
        <time>2016-03-18T09:38:33Z</time>
      </trkpt>
      <trkpt lat="46.407791515812278" lon="11.735191326588392">
        <ele>1756.47</ele>
        <time>2016-03-18T09:38:45Z</time>
      </trkpt>
      <trkpt lat="46.407832587137818" lon="11.735188728198409">
        <ele>1756.47</ele>
        <time>2016-03-18T09:39:01Z</time>
      </trkpt>
      <trkpt lat="46.407829318195581" lon="11.735205072909594">
        <ele>1756.47</ele>
        <time>2016-03-18T09:39:16Z</time>
      </trkpt>
      <trkpt lat="46.407805094495416" lon="11.735208090394735">
        <ele>1756.47</ele>
        <time>2016-03-18T09:39:25Z</time>
      </trkpt>
      <trkpt lat="46.407803501933813" lon="11.735242204740644">
        <ele>1755.99</ele>
        <time>2016-03-18T09:39:39Z</time>
      </trkpt>
      <trkpt lat="46.407794365659356" lon="11.735206162557006">
        <ele>1756.47</ele>
        <time>2016-03-18T09:39:51Z</time>
      </trkpt>
      <trkpt lat="46.407797634601593" lon="11.735180094838142">
        <ele>1755.99</ele>
        <time>2016-03-18T09:40:08Z</time>
      </trkpt>
      <trkpt lat="46.407791767269373" lon="11.73517850227654">
        <ele>1756.47</ele>
        <time>2016-03-18T09:40:25Z</time>
      </trkpt>
      <trkpt lat="46.407760502770543" lon="11.735155787318945">
        <ele>1756.47</ele>
        <time>2016-03-18T09:40:44Z</time>
      </trkpt>
      <trkpt lat="46.407744828611612" lon="11.735153188928962">
        <ele>1756.95</ele>
        <time>2016-03-18T09:41:01Z</time>
      </trkpt>
      <trkpt lat="46.407774752005935" lon="11.73515654169023">
        <ele>1756.95</ele>
        <time>2016-03-18T09:41:19Z</time>
      </trkpt>
      <trkpt lat="46.407771734520793" lon="11.735202055424452">
        <ele>1756.95</ele>
        <time>2016-03-18T09:41:38Z</time>
      </trkpt>
      <trkpt lat="46.407769052311778" lon="11.735192583873868">
        <ele>1756.95</ele>
        <time>2016-03-18T09:41:56Z</time>
      </trkpt>
      <trkpt lat="46.407773578539491" lon="11.735186465084553">
        <ele>1757.4300000000001</ele>
        <time>2016-03-18T09:42:13Z</time>
      </trkpt>
      <trkpt lat="46.407771399244666" lon="11.735185459256172">
        <ele>1757.4300000000001</ele>
        <time>2016-03-18T09:42:24Z</time>
      </trkpt>
      <trkpt lat="46.407792270183563" lon="11.735209096223116">
        <ele>1757.4300000000001</ele>
        <time>2016-03-18T09:42:39Z</time>
      </trkpt>
      <trkpt lat="46.407807776704431" lon="11.73525963909924">
        <ele>1757.9100000000001</ele>
        <time>2016-03-18T09:42:48Z</time>
      </trkpt>
      <trkpt lat="46.407814817503095" lon="11.735305404290557">
        <ele>1757.9100000000001</ele>
        <time>2016-03-18T09:42:57Z</time>
      </trkpt>
      <trkpt lat="46.407830575481057" lon="11.735402382910252">
        <ele>1758.3900000000001</ele>
        <time>2016-03-18T09:43:06Z</time>
      </trkpt>
      <trkpt lat="46.407819679006934" lon="11.735519981011748">
        <ele>1759.3499999999999</ele>
        <time>2016-03-18T09:43:16Z</time>
      </trkpt>
      <trkpt lat="46.407809788361192" lon="11.735605141147971">
        <ele>1759.8299999999999</ele>
        <time>2016-03-18T09:43:23Z</time>
      </trkpt>
      <trkpt lat="46.407836023718119" lon="11.735645793378353">
        <ele>1760.79</ele>
        <time>2016-03-18T09:43:30Z</time>
      </trkpt>
      <trkpt lat="46.407828228548169" lon="11.735599525272846">
        <ele>1760.3099999999999</ele>
        <time>2016-03-18T09:43:44Z</time>
      </trkpt>
      <trkpt lat="46.407839711755514" lon="11.735598100349307">
        <ele>1759.8299999999999</ele>
        <time>2016-03-18T09:43:57Z</time>
      </trkpt>
      <trkpt lat="46.407834431156516" lon="11.735602123662829">
        <ele>1759.8299999999999</ele>
        <time>2016-03-18T09:44:09Z</time>
      </trkpt>
      <trkpt lat="46.407855469733477" lon="11.735624754801393">
        <ele>1759.8299999999999</ele>
        <time>2016-03-18T09:44:19Z</time>
      </trkpt>
      <trkpt lat="46.407848512753844" lon="11.735622575506568">
        <ele>1760.3099999999999</ele>
        <time>2016-03-18T09:44:35Z</time>
      </trkpt>
      <trkpt lat="46.407838705927134" lon="11.735606733709574">
        <ele>1759.8299999999999</ele>
        <time>2016-03-18T09:44:42Z</time>
      </trkpt>
      <trkpt lat="46.407902911305428" lon="11.73566616140306">
        <ele>1760.3099999999999</ele>
        <time>2016-03-18T09:44:52Z</time>
      </trkpt>
      <trkpt lat="46.407966278493404" lon="11.735667251050472">
        <ele>1760.3099999999999</ele>
        <time>2016-03-18T09:45:02Z</time>
      </trkpt>
      <trkpt lat="46.408052779734135" lon="11.735738329589367">
        <ele>1760.79</ele>
        <time>2016-03-18T09:45:14Z</time>
      </trkpt>
      <trkpt lat="46.408072812482715" lon="11.735826339572668">
        <ele>1762.71</ele>
        <time>2016-03-18T09:45:25Z</time>
      </trkpt>
      <trkpt lat="46.408075243234634" lon="11.735930107533932">
        <ele>1764.1600000000001</ele>
        <time>2016-03-18T09:45:37Z</time>
      </trkpt>
      <trkpt lat="46.40808479860425" lon="11.736014597117901">
        <ele>1765.5999999999999</ele>
        <time>2016-03-18T09:45:47Z</time>
      </trkpt>
      <trkpt lat="46.408120673149824" lon="11.736136889085174">
        <ele>1766.5599999999999</ele>
        <time>2016-03-18T09:46:01Z</time>
      </trkpt>
      <trkpt lat="46.40813609585166" lon="11.736277118325233">
        <ele>1768.48</ele>
        <time>2016-03-18T09:46:13Z</time>
      </trkpt>
      <trkpt lat="46.408110866323113" lon="11.736378455534577">
        <ele>1769.9200000000001</ele>
        <time>2016-03-18T09:46:25Z</time>
      </trkpt>
      <trkpt lat="46.4080770034343" lon="11.736349454149604">
        <ele>1770.4100000000001</ele>
        <time>2016-03-18T09:46:38Z</time>
      </trkpt>
      <trkpt lat="46.408021096140146" lon="11.736426902934909">
        <ele>1771.3699999999999</ele>
        <time>2016-03-18T09:46:50Z</time>
      </trkpt>
      <trkpt lat="46.407945239916444" lon="11.736472081393003">
        <ele>1772.8099999999999</ele>
        <time>2016-03-18T09:46:59Z</time>
      </trkpt>
      <trkpt lat="46.407845830544829" lon="11.73652270808816">
        <ele>1774.25</ele>
        <time>2016-03-18T09:47:11Z</time>
      </trkpt>
      <trkpt lat="46.407787157222629" lon="11.736568724736571">
        <ele>1775.6900000000001</ele>
        <time>2016-03-18T09:47:23Z</time>
      </trkpt>
      <trkpt lat="46.407703254371881" lon="11.736609796062112">
        <ele>1777.1300000000001</ele>
        <time>2016-03-18T09:47:36Z</time>
      </trkpt>
      <trkpt lat="46.407652208581567" lon="11.736638629809022">
        <ele>1778.5799999999999</ele>
        <time>2016-03-18T09:47:48Z</time>
      </trkpt>
      <trkpt lat="46.407590853050351" lon="11.736682299524546">
        <ele>1779.54</ele>
        <time>2016-03-18T09:47:57Z</time>
      </trkpt>
      <trkpt lat="46.407543495297432" lon="11.73675287514925">
        <ele>1781.46</ele>
        <time>2016-03-18T09:48:10Z</time>
      </trkpt>
      <trkpt lat="46.407511224970222" lon="11.736764693632722">
        <ele>1782.4200000000001</ele>
        <time>2016-03-18T09:48:20Z</time>
      </trkpt>
      <trkpt lat="46.407455652952194" lon="11.736798388883471">
        <ele>1783.8599999999999</ele>
        <time>2016-03-18T09:48:30Z</time>
      </trkpt>
      <trkpt lat="46.407369319349527" lon="11.736819176003337">
        <ele>1784.8199999999999</ele>
        <time>2016-03-18T09:48:40Z</time>
      </trkpt>
      <trkpt lat="46.407302767038345" lon="11.736869970336556">
        <ele>1785.3099999999999</ele>
        <time>2016-03-18T09:48:48Z</time>
      </trkpt>
      <trkpt lat="46.407234622165561" lon="11.736918836832047">
        <ele>1786.75</ele>
        <time>2016-03-18T09:48:57Z</time>
      </trkpt>
      <trkpt lat="46.407210817560554" lon="11.736994693055749">
        <ele>1787.71</ele>
        <time>2016-03-18T09:49:06Z</time>
      </trkpt>
      <trkpt lat="46.407127166166902" lon="11.737088151276112">
        <ele>1788.1900000000001</ele>
        <time>2016-03-18T09:49:20Z</time>
      </trkpt>
      <trkpt lat="46.407070504501462" lon="11.737143639475107">
        <ele>1788.6700000000001</ele>
        <time>2016-03-18T09:49:28Z</time>
      </trkpt>
      <trkpt lat="46.407040748745203" lon="11.737167863175273">
        <ele>1790.1099999999999</ele>
        <time>2016-03-18T09:49:33Z</time>
      </trkpt>
      <trkpt lat="46.406949302181602" lon="11.737217819318175">
        <ele>1790.1099999999999</ele>
        <time>2016-03-18T09:49:45Z</time>
      </trkpt>
      <trkpt lat="46.406869757920504" lon="11.737253023311496">
        <ele>1791.0699999999999</ele>
        <time>2016-03-18T09:49:55Z</time>
      </trkpt>
      <trkpt lat="46.406786609441042" lon="11.737303817644715">
        <ele>1792.03</ele>
        <time>2016-03-18T09:50:07Z</time>
      </trkpt>
      <trkpt lat="46.406770767644048" lon="11.737362910062075">
        <ele>1793.48</ele>
        <time>2016-03-18T09:50:18Z</time>
      </trkpt>
      <trkpt lat="46.406759284436703" lon="11.737408507615328">
        <ele>1794.9200000000001</ele>
        <time>2016-03-18T09:50:29Z</time>
      </trkpt>
      <trkpt lat="46.406752243638039" lon="11.737458128482103">
        <ele>1796.3599999999999</ele>
        <time>2016-03-18T09:50:36Z</time>
      </trkpt>
      <trkpt lat="46.406721398234367" lon="11.73750096000731">
        <ele>1797.8</ele>
        <time>2016-03-18T09:50:47Z</time>
      </trkpt>
      <trkpt lat="46.406684266403317" lon="11.737576732411981">
        <ele>1799.24</ele>
        <time>2016-03-18T09:50:57Z</time>
      </trkpt>
      <trkpt lat="46.406688876450062" lon="11.737647727131844">
        <ele>1800.6900000000001</ele>
        <time>2016-03-18T09:51:06Z</time>
      </trkpt>
      <trkpt lat="46.406656019389629" lon="11.737680248916149">
        <ele>1801.1700000000001</ele>
        <time>2016-03-18T09:51:15Z</time>
      </trkpt>
      <trkpt lat="46.406630789861083" lon="11.737755769863725">
        <ele>1801.6500000000001</ele>
        <time>2016-03-18T09:51:28Z</time>
      </trkpt>
      <trkpt lat="46.406618887558579" lon="11.737820310518146">
        <ele>1803.5699999999999</ele>
        <time>2016-03-18T09:51:33Z</time>
      </trkpt>
      <trkpt lat="46.406597346067429" lon="11.737930700182915">
        <ele>1804.53</ele>
        <time>2016-03-18T09:51:44Z</time>
      </trkpt>
      <trkpt lat="46.406598268076777" lon="11.737949643284082">
        <ele>1805.01</ele>
        <time>2016-03-18T09:51:46Z</time>
      </trkpt>
      <trkpt lat="46.406548731029034" lon="11.738049807026982">
        <ele>1806.9400000000001</ele>
        <time>2016-03-18T09:51:59Z</time>
      </trkpt>
      <trkpt lat="46.406513024121523" lon="11.738079395145178">
        <ele>1807.4200000000001</ele>
        <time>2016-03-18T09:52:10Z</time>
      </trkpt>
      <trkpt lat="46.406498355790973" lon="11.738076629117131">
        <ele>1807.4200000000001</ele>
        <time>2016-03-18T09:52:26Z</time>
      </trkpt>
      <trkpt lat="46.406480921432376" lon="11.738083334639668">
        <ele>1807.9000000000001</ele>
        <time>2016-03-18T09:52:42Z</time>
      </trkpt>
      <trkpt lat="46.406464828178287" lon="11.73811711370945">
        <ele>1808.3800000000001</ele>
        <time>2016-03-18T09:53:00Z</time>
      </trkpt>
      <trkpt lat="46.406446807086468" lon="11.738178804516792">
        <ele>1809.8199999999999</ele>
        <time>2016-03-18T09:53:09Z</time>
      </trkpt>
      <trkpt lat="46.406434653326869" lon="11.738263126462698">
        <ele>1812.22</ele>
        <time>2016-03-18T09:53:20Z</time>
      </trkpt>
      <trkpt lat="46.406384445726871" lon="11.738356919959188">
        <ele>1813.6600000000001</ele>
        <time>2016-03-18T09:53:33Z</time>
      </trkpt>
      <trkpt lat="46.406379751861095" lon="11.738361865282059">
        <ele>1815.1099999999999</ele>
        <time>2016-03-18T09:53:34Z</time>
      </trkpt>
      <trkpt lat="46.406363490968943" lon="11.738441241905093">
        <ele>1816.0699999999999</ele>
        <time>2016-03-18T09:53:45Z</time>
      </trkpt>
      <trkpt lat="46.406337926164269" lon="11.738451048731804">
        <ele>1816.55</ele>
        <time>2016-03-18T09:53:54Z</time>
      </trkpt>
      <trkpt lat="46.406348487362266" lon="11.738473428413272">
        <ele>1816.55</ele>
        <time>2016-03-18T09:54:12Z</time>
      </trkpt>
      <trkpt lat="46.406342200934887" lon="11.738546099513769">
        <ele>1818.47</ele>
        <time>2016-03-18T09:54:26Z</time>
      </trkpt>
      <trkpt lat="46.406324934214354" lon="11.738635031506419">
        <ele>1819.9100000000001</ele>
        <time>2016-03-18T09:54:36Z</time>
      </trkpt>
      <trkpt lat="46.406292831525207" lon="11.738699823617935">
        <ele>1821.8399999999999</ele>
        <time>2016-03-18T09:54:47Z</time>
      </trkpt>
      <trkpt lat="46.406276235356927" lon="11.738748690113425">
        <ele>1823.28</ele>
        <time>2016-03-18T09:54:56Z</time>
      </trkpt>
      <trkpt lat="46.406227201223373" lon="11.738781295716763">
        <ele>1824.24</ele>
        <time>2016-03-18T09:55:06Z</time>
      </trkpt>
      <trkpt lat="46.406239019706845" lon="11.73879043199122">
        <ele>1824.24</ele>
        <time>2016-03-18T09:55:21Z</time>
      </trkpt>
      <trkpt lat="46.406254190951586" lon="11.738760005682707">
        <ele>1823.76</ele>
        <time>2016-03-18T09:55:36Z</time>
      </trkpt>
      <trkpt lat="46.406228542327881" lon="11.738779535517097">
        <ele>1825.2</ele>
        <time>2016-03-18T09:55:48Z</time>
      </trkpt>
      <trkpt lat="46.406207587569952" lon="11.738835694268346">
        <ele>1826.6400000000001</ele>
        <time>2016-03-18T09:55:59Z</time>
      </trkpt>
      <trkpt lat="46.406192500144243" lon="11.738900486379862">
        <ele>1828.0799999999999</ele>
        <time>2016-03-18T09:56:08Z</time>
      </trkpt>
      <trkpt lat="46.406167605891824" lon="11.738996962085366">
        <ele>1829.53</ele>
        <time>2016-03-18T09:56:18Z</time>
      </trkpt>
      <trkpt lat="46.406125193461776" lon="11.739084888249636">
        <ele>1831.45</ele>
        <time>2016-03-18T09:56:29Z</time>
      </trkpt>
      <trkpt lat="46.40608093701303" lon="11.739161079749465">
        <ele>1832.8900000000001</ele>
        <time>2016-03-18T09:56:42Z</time>
      </trkpt>
      <trkpt lat="46.40612343326211" lon="11.739244228228927">
        <ele>1834.8099999999999</ele>
        <time>2016-03-18T09:56:52Z</time>
      </trkpt>
      <trkpt lat="46.40605847351253" lon="11.739346235990524">
        <ele>1835.77</ele>
        <time>2016-03-18T09:57:04Z</time>
      </trkpt>
      <trkpt lat="46.405992172658443" lon="11.739441035315394">
        <ele>1837.7</ele>
        <time>2016-03-18T09:57:15Z</time>
      </trkpt>
      <trkpt lat="46.405953196808696" lon="11.739529799669981">
        <ele>1838.6600000000001</ele>
        <time>2016-03-18T09:57:26Z</time>
      </trkpt>
      <trkpt lat="46.405935930088162" lon="11.739624347537756">
        <ele>1840.5799999999999</ele>
        <time>2016-03-18T09:57:37Z</time>
      </trkpt>
      <trkpt lat="46.405926793813705" lon="11.739718141034245">
        <ele>1841.54</ele>
        <time>2016-03-18T09:57:48Z</time>
      </trkpt>
      <trkpt lat="46.40590944327414" lon="11.739810258150101">
        <ele>1843.47</ele>
        <time>2016-03-18T09:58:00Z</time>
      </trkpt>
      <trkpt lat="46.40591966919601" lon="11.739876307547092">
        <ele>1844.9100000000001</ele>
        <time>2016-03-18T09:58:12Z</time>
      </trkpt>
      <trkpt lat="46.405913969501853" lon="11.739935735240579">
        <ele>1846.3499999999999</ele>
        <time>2016-03-18T09:58:22Z</time>
      </trkpt>
      <trkpt lat="46.405943306162953" lon="11.739997593685985">
        <ele>1848.27</ele>
        <time>2016-03-18T09:58:38Z</time>
      </trkpt>
      <trkpt lat="46.405969709157944" lon="11.740059703588486">
        <ele>1849.23</ele>
        <time>2016-03-18T09:58:50Z</time>
      </trkpt>
      <trkpt lat="46.405978929251432" lon="11.740128267556429">
        <ele>1851.1600000000001</ele>
        <time>2016-03-18T09:59:01Z</time>
      </trkpt>
      <trkpt lat="46.405982114374638" lon="11.740186521783471">
        <ele>1852.5999999999999</ele>
        <time>2016-03-18T09:59:14Z</time>
      </trkpt>
      <trkpt lat="46.405988903716207" lon="11.740257600322366">
        <ele>1853.5599999999999</ele>
        <time>2016-03-18T09:59:22Z</time>
      </trkpt>
      <trkpt lat="46.405992675572634" lon="11.740302192047238">
        <ele>1855</ele>
        <time>2016-03-18T09:59:33Z</time>
      </trkpt>
      <trkpt lat="46.405991669744253" lon="11.740315519273281">
        <ele>1856.9200000000001</ele>
        <time>2016-03-18T09:59:37Z</time>
      </trkpt>
      <trkpt lat="46.406020168215036" lon="11.740369498729706">
        <ele>1856.9200000000001</ele>
        <time>2016-03-18T09:59:49Z</time>
      </trkpt>
      <trkpt lat="46.406050678342581" lon="11.740423226729035">
        <ele>1858.3699999999999</ele>
        <time>2016-03-18T10:00:00Z</time>
      </trkpt>
      <trkpt lat="46.406075153499842" lon="11.740453988313675">
        <ele>1858.8499999999999</ele>
        <time>2016-03-18T10:00:08Z</time>
      </trkpt>
      <trkpt lat="46.406109016388655" lon="11.740491539239883">
        <ele>1860.77</ele>
        <time>2016-03-18T10:00:19Z</time>
      </trkpt>
      <trkpt lat="46.406156541779637" lon="11.740535879507661">
        <ele>1862.21</ele>
        <time>2016-03-18T10:00:32Z</time>
      </trkpt>
      <trkpt lat="46.406173137947917" lon="11.740501346066594">
        <ele>1863.6500000000001</ele>
        <time>2016-03-18T10:00:44Z</time>
      </trkpt>
      <trkpt lat="46.406156709417701" lon="11.740466896444559">
        <ele>1863.6500000000001</ele>
        <time>2016-03-18T10:01:06Z</time>
      </trkpt>
      <trkpt lat="46.406139442697167" lon="11.740452311933041">
        <ele>1863.6500000000001</ele>
        <time>2016-03-18T10:01:24Z</time>
      </trkpt>
      <trkpt lat="46.406161822378635" lon="11.740448204800487">
        <ele>1863.1700000000001</ele>
        <time>2016-03-18T10:01:46Z</time>
      </trkpt>
      <trkpt lat="46.40615620650351" lon="11.740455580875278">
        <ele>1863.1700000000001</ele>
        <time>2016-03-18T10:02:01Z</time>
      </trkpt>
      <trkpt lat="46.406158050522208" lon="11.740467650815845">
        <ele>1863.6500000000001</ele>
        <time>2016-03-18T10:02:19Z</time>
      </trkpt>
      <trkpt lat="46.406169198453426" lon="11.740535125136375">
        <ele>1863.6500000000001</ele>
        <time>2016-03-18T10:02:34Z</time>
      </trkpt>
      <trkpt lat="46.406161990016699" lon="11.740520037710667">
        <ele>1863.6500000000001</ele>
        <time>2016-03-18T10:02:50Z</time>
      </trkpt>
      <trkpt lat="46.406188476830721" lon="11.740499502047896">
        <ele>1864.1300000000001</ele>
        <time>2016-03-18T10:03:01Z</time>
      </trkpt>
      <trkpt lat="46.406228542327881" lon="11.740432782098651">
        <ele>1866.0599999999999</ele>
        <time>2016-03-18T10:03:13Z</time>
      </trkpt>
      <trkpt lat="46.406243294477463" lon="11.740372013300657">
        <ele>1867.98</ele>
        <time>2016-03-18T10:03:25Z</time>
      </trkpt>
      <trkpt lat="46.406270703300834" lon="11.74029934220016">
        <ele>1869.9000000000001</ele>
        <time>2016-03-18T10:03:37Z</time>
      </trkpt>
      <trkpt lat="46.406299537047744" lon="11.740254582837224">
        <ele>1871.8199999999999</ele>
        <time>2016-03-18T10:03:49Z</time>
      </trkpt>
      <trkpt lat="46.406387547031045" lon="11.740232203155756">
        <ele>1873.75</ele>
        <time>2016-03-18T10:04:03Z</time>
      </trkpt>
      <trkpt lat="46.406463487073779" lon="11.740264473482966">
        <ele>1874.71</ele>
        <time>2016-03-18T10:04:12Z</time>
      </trkpt>
      <trkpt lat="46.406519562005997" lon="11.740217870101333">
        <ele>1876.6300000000001</ele>
        <time>2016-03-18T10:04:25Z</time>
      </trkpt>
      <trkpt lat="46.40656272880733" lon="11.740231867879629">
        <ele>1878.55</ele>
        <time>2016-03-18T10:04:39Z</time>
      </trkpt>
      <trkpt lat="46.406580079346895" lon="11.740235388278961">
        <ele>1880</ele>
        <time>2016-03-18T10:04:52Z</time>
      </trkpt>
      <trkpt lat="46.406654929742217" lon="11.740242931991816">
        <ele>1880.96</ele>
        <time>2016-03-18T10:05:03Z</time>
      </trkpt>
      <trkpt lat="46.406736569479108" lon="11.740269921720028">
        <ele>1881.9200000000001</ele>
        <time>2016-03-18T10:05:15Z</time>
      </trkpt>
      <trkpt lat="46.406806809827685" lon="11.740305293351412">
        <ele>1883.3599999999999</ele>
        <time>2016-03-18T10:05:26Z</time>
      </trkpt>
      <trkpt lat="46.406779233366251" lon="11.740381484851241">
        <ele>1884.3199999999999</ele>
        <time>2016-03-18T10:05:37Z</time>
      </trkpt>
      <trkpt lat="46.406751237809658" lon="11.740431440994143">
        <ele>1885.28</ele>
        <time>2016-03-18T10:05:50Z</time>
      </trkpt>
      <trkpt lat="46.406735563650727" lon="11.740480223670602">
        <ele>1886.24</ele>
        <time>2016-03-18T10:06:02Z</time>
      </trkpt>
      <trkpt lat="46.406706310808659" lon="11.740537891164422">
        <ele>1887.21</ele>
        <time>2016-03-18T10:06:12Z</time>
      </trkpt>
      <trkpt lat="46.406737491488457" lon="11.740619614720345">
        <ele>1889.1300000000001</ele>
        <time>2016-03-18T10:06:24Z</time>
      </trkpt>
      <trkpt lat="46.40679189004004" lon="11.740667726844549">
        <ele>1890.5699999999999</ele>
        <time>2016-03-18T10:06:36Z</time>
      </trkpt>
      <trkpt lat="46.406791554763913" lon="11.740714246407151">
        <ele>1891.53</ele>
        <time>2016-03-18T10:06:48Z</time>
      </trkpt>
      <trkpt lat="46.406778143718839" lon="11.740802340209484">
        <ele>1892.49</ele>
        <time>2016-03-18T10:06:59Z</time>
      </trkpt>
      <trkpt lat="46.406759200617671" lon="11.74087886698544">
        <ele>1893.9300000000001</ele>
        <time>2016-03-18T10:07:11Z</time>
      </trkpt>
      <trkpt lat="46.406774958595634" lon="11.740912729874253">
        <ele>1894.9000000000001</ele>
        <time>2016-03-18T10:07:23Z</time>
      </trkpt>
      <trkpt lat="46.406787363812327" lon="11.740979198366404">
        <ele>1896.3399999999999</ele>
        <time>2016-03-18T10:07:35Z</time>
      </trkpt>
      <trkpt lat="46.406808067113161" lon="11.741076009348035">
        <ele>1897.78</ele>
        <time>2016-03-18T10:07:48Z</time>
      </trkpt>
      <trkpt lat="46.406810916960239" lon="11.741147506982088">
        <ele>1899.22</ele>
        <time>2016-03-18T10:08:00Z</time>
      </trkpt>
      <trkpt lat="46.406826255843043" lon="11.741223698481917">
        <ele>1900.6600000000001</ele>
        <time>2016-03-18T10:08:11Z</time>
      </trkpt>
      <trkpt lat="46.406824579462409" lon="11.741305757313967">
        <ele>1902.1099999999999</ele>
        <time>2016-03-18T10:08:24Z</time>
      </trkpt>
      <trkpt lat="46.406832039356232" lon="11.741341631859541">
        <ele>1903.0699999999999</ele>
        <time>2016-03-18T10:08:35Z</time>
      </trkpt>
      <trkpt lat="46.406858945265412" lon="11.74146082252264">
        <ele>1904.51</ele>
        <time>2016-03-18T10:08:51Z</time>
      </trkpt>
      <trkpt lat="46.40687151812017" lon="11.741478927433491">
        <ele>1905.95</ele>
        <time>2016-03-18T10:09:08Z</time>
      </trkpt>
      <trkpt lat="46.40692918561399" lon="11.741435592994094">
        <ele>1907.8699999999999</ele>
        <time>2016-03-18T10:09:24Z</time>
      </trkpt>
      <trkpt lat="46.40693161636591" lon="11.7414197511971">
        <ele>1907.8699999999999</ele>
        <time>2016-03-18T10:09:25Z</time>
      </trkpt>
      <trkpt lat="46.406940501183271" lon="11.74129125662148">
        <ele>1909.8</ele>
        <time>2016-03-18T10:09:36Z</time>
      </trkpt>
      <trkpt lat="46.407019710168242" lon="11.741282539442182">
        <ele>1910.76</ele>
        <time>2016-03-18T10:09:45Z</time>
      </trkpt>
      <trkpt lat="46.407080814242363" lon="11.74125605262816">
        <ele>1912.2</ele>
        <time>2016-03-18T10:09:56Z</time>
      </trkpt>
      <trkpt lat="46.407119035720825" lon="11.741230320185423">
        <ele>1913.6400000000001</ele>
        <time>2016-03-18T10:10:08Z</time>
      </trkpt>
      <trkpt lat="46.40715105459094" lon="11.741191931068897">
        <ele>1914.1199999999999</ele>
        <time>2016-03-18T10:10:12Z</time>
      </trkpt>
      <trkpt lat="46.407220456749201" lon="11.741164354607463">
        <ele>1914.5999999999999</ele>
        <time>2016-03-18T10:10:22Z</time>
      </trkpt>
      <trkpt lat="46.407291954383254" lon="11.74115396104753">
        <ele>1915.5599999999999</ele>
        <time>2016-03-18T10:10:32Z</time>
      </trkpt>
      <trkpt lat="46.407344844192266" lon="11.741129904985428">
        <ele>1916.04</ele>
        <time>2016-03-18T10:10:43Z</time>
      </trkpt>
      <trkpt lat="46.407390357926488" lon="11.741124037653208">
        <ele>1917.01</ele>
        <time>2016-03-18T10:10:52Z</time>
      </trkpt>
      <trkpt lat="46.407439392060041" lon="11.741099311038852">
        <ele>1917.97</ele>
        <time>2016-03-18T10:11:04Z</time>
      </trkpt>
      <trkpt lat="46.407507620751858" lon="11.741053881123662">
        <ele>1918.45</ele>
        <time>2016-03-18T10:11:15Z</time>
      </trkpt>
      <trkpt lat="46.407566964626312" lon="11.741027059033513">
        <ele>1919.4100000000001</ele>
        <time>2016-03-18T10:11:27Z</time>
      </trkpt>
      <trkpt lat="46.407571909949183" lon="11.741007696837187">
        <ele>1919.4100000000001</ele>
        <time>2016-03-18T10:11:33Z</time>
      </trkpt>
      <trkpt lat="46.407619686797261" lon="11.740971989929676">
        <ele>1921.8099999999999</ele>
        <time>2016-03-18T10:11:43Z</time>
      </trkpt>
      <trkpt lat="46.407674504444003" lon="11.740964110940695">
        <ele>1922.29</ele>
        <time>2016-03-18T10:11:54Z</time>
      </trkpt>
      <trkpt lat="46.407711803913116" lon="11.740949107334018">
        <ele>1922.77</ele>
        <time>2016-03-18T10:12:05Z</time>
      </trkpt>
      <trkpt lat="46.407786402851343" lon="11.740928152576089">
        <ele>1924.22</ele>
        <time>2016-03-18T10:12:15Z</time>
      </trkpt>
      <trkpt lat="46.407809033989906" lon="11.740889847278595">
        <ele>1925.1800000000001</ele>
        <time>2016-03-18T10:12:22Z</time>
      </trkpt>
      <trkpt lat="46.4077955391258" lon="11.740897474810481">
        <ele>1925.1800000000001</ele>
        <time>2016-03-18T10:12:40Z</time>
      </trkpt>
      <trkpt lat="46.407766789197922" lon="11.740929493680596">
        <ele>1925.1800000000001</ele>
        <time>2016-03-18T10:12:57Z</time>
      </trkpt>
      <trkpt lat="46.407779110595584" lon="11.74100199714303">
        <ele>1925.1800000000001</ele>
        <time>2016-03-18T10:13:14Z</time>
      </trkpt>
      <trkpt lat="46.407782547175884" lon="11.741033680737019">
        <ele>1924.7</ele>
        <time>2016-03-18T10:13:26Z</time>
      </trkpt>
      <trkpt lat="46.407784810289741" lon="11.741023622453213">
        <ele>1925.1800000000001</ele>
        <time>2016-03-18T10:13:40Z</time>
      </trkpt>
      <trkpt lat="46.407860582694411" lon="11.740965116769075">
        <ele>1925.6600000000001</ele>
        <time>2016-03-18T10:13:51Z</time>
      </trkpt>
      <trkpt lat="46.407942809164524" lon="11.740957237780094">
        <ele>1927.5799999999999</ele>
        <time>2016-03-18T10:14:01Z</time>
      </trkpt>
      <trkpt lat="46.407991088926792" lon="11.740954723209143">
        <ele>1928.54</ele>
        <time>2016-03-18T10:14:11Z</time>
      </trkpt>
      <trkpt lat="46.408043140545487" lon="11.74094189889729">
        <ele>1929.98</ele>
        <time>2016-03-18T10:14:23Z</time>
      </trkpt>
      <trkpt lat="46.408118074759841" lon="11.740977102890611">
        <ele>1930.95</ele>
        <time>2016-03-18T10:14:34Z</time>
      </trkpt>
      <trkpt lat="46.408189488574862" lon="11.741004344075918">
        <ele>1931.4300000000001</ele>
        <time>2016-03-18T10:14:46Z</time>
      </trkpt>
      <trkpt lat="46.40826266258955" lon="11.741007780656219">
        <ele>1932.8699999999999</ele>
        <time>2016-03-18T10:14:56Z</time>
      </trkpt>
      <trkpt lat="46.408343799412251" lon="11.741035776212811">
        <ele>1934.3099999999999</ele>
        <time>2016-03-18T10:15:08Z</time>
      </trkpt>
      <trkpt lat="46.408417727798223" lon="11.741086570546031">
        <ele>1935.27</ele>
        <time>2016-03-18T10:15:21Z</time>
      </trkpt>
      <trkpt lat="46.408454440534115" lon="11.741111380979419">
        <ele>1936.71</ele>
        <time>2016-03-18T10:15:33Z</time>
      </trkpt>
      <trkpt lat="46.408509258180857" lon="11.741136275231838">
        <ele>1938.1600000000001</ele>
        <time>2016-03-18T10:15:42Z</time>
      </trkpt>
      <trkpt lat="46.408540857955813" lon="11.741206096485257">
        <ele>1939.5999999999999</ele>
        <time>2016-03-18T10:15:53Z</time>
      </trkpt>
      <trkpt lat="46.408491740003228" lon="11.741244485601783">
        <ele>1941.04</ele>
        <time>2016-03-18T10:16:03Z</time>
      </trkpt>
      <trkpt lat="46.408440275117755" lon="11.74125655554235">
        <ele>1942.48</ele>
        <time>2016-03-18T10:16:19Z</time>
      </trkpt>
      <trkpt lat="46.408433737233281" lon="11.741244737058878">
        <ele>1942</ele>
        <time>2016-03-18T10:16:35Z</time>
      </trkpt>
      <trkpt lat="46.408396102488041" lon="11.74122772179544">
        <ele>1942.48</ele>
        <time>2016-03-18T10:16:50Z</time>
      </trkpt>
      <trkpt lat="46.408368358388543" lon="11.741313384845853">
        <ele>1944.4000000000001</ele>
        <time>2016-03-18T10:17:00Z</time>
      </trkpt>
      <trkpt lat="46.408296693116426" lon="11.741358563303947">
        <ele>1946.3299999999999</ele>
        <time>2016-03-18T10:17:12Z</time>
      </trkpt>
      <trkpt lat="46.408210610970855" lon="11.741364933550358">
        <ele>1948.73</ele>
        <time>2016-03-18T10:17:24Z</time>
      </trkpt>
      <trkpt lat="46.408169288188219" lon="11.741439616307616">
        <ele>1950.6500000000001</ele>
        <time>2016-03-18T10:17:37Z</time>
      </trkpt>
      <trkpt lat="46.408122265711427" lon="11.741510611027479">
        <ele>1952.5699999999999</ele>
        <time>2016-03-18T10:17:51Z</time>
      </trkpt>
      <trkpt lat="46.408078679814935" lon="11.74159568734467">
        <ele>1954.5</ele>
        <time>2016-03-18T10:18:04Z</time>
      </trkpt>
      <trkpt lat="46.40801539644599" lon="11.74166752025485">
        <ele>1956.4200000000001</ele>
        <time>2016-03-18T10:18:19Z</time>
      </trkpt>
      <trkpt lat="46.40796409919858" lon="11.741755614057183">
        <ele>1958.3399999999999</ele>
        <time>2016-03-18T10:18:33Z</time>
      </trkpt>
      <trkpt lat="46.407977510243654" lon="11.741783358156681">
        <ele>1958.8199999999999</ele>
        <time>2016-03-18T10:18:44Z</time>
      </trkpt>
      <trkpt lat="46.407947419211268" lon="11.741805821657181">
        <ele>1959.3</ele>
        <time>2016-03-18T10:18:58Z</time>
      </trkpt>
      <trkpt lat="46.407920848578215" lon="11.741858208552003">
        <ele>1960.27</ele>
        <time>2016-03-18T10:19:08Z</time>
      </trkpt>
      <trkpt lat="46.40791037119925" lon="11.741905147209764">
        <ele>1962.1900000000001</ele>
        <time>2016-03-18T10:19:18Z</time>
      </trkpt>
      <trkpt lat="46.40787860378623" lon="11.74198460765183">
        <ele>1963.6300000000001</ele>
        <time>2016-03-18T10:19:30Z</time>
      </trkpt>
      <trkpt lat="46.407870640978217" lon="11.742073288187385">
        <ele>1965.0699999999999</ele>
        <time>2016-03-18T10:19:41Z</time>
      </trkpt>
      <trkpt lat="46.40786737203598" lon="11.742161801084876">
        <ele>1966.03</ele>
        <time>2016-03-18T10:19:52Z</time>
      </trkpt>
      <trkpt lat="46.407867204397917" lon="11.742221731692553">
        <ele>1967.48</ele>
        <time>2016-03-18T10:20:02Z</time>
      </trkpt>
      <trkpt lat="46.407915903255343" lon="11.742205386981368">
        <ele>1968.4400000000001</ele>
        <time>2016-03-18T10:20:13Z</time>
      </trkpt>
      <trkpt lat="46.407955382019281" lon="11.742167500779033">
        <ele>1969.8800000000001</ele>
        <time>2016-03-18T10:20:22Z</time>
      </trkpt>
      <trkpt lat="46.40798513777554" lon="11.742130871862173">
        <ele>1971.3199999999999</ele>
        <time>2016-03-18T10:20:34Z</time>
      </trkpt>
      <trkpt lat="46.408042805269361" lon="11.742114359512925">
        <ele>1972.28</ele>
        <time>2016-03-18T10:20:46Z</time>
      </trkpt>
      <trkpt lat="46.40810776501894" lon="11.742097930982709">
        <ele>1973.72</ele>
        <time>2016-03-18T10:20:57Z</time>
      </trkpt>
      <trkpt lat="46.408173311501741" lon="11.742098182439804">
        <ele>1975.1700000000001</ele>
        <time>2016-03-18T10:21:09Z</time>
      </trkpt>
      <trkpt lat="46.408240869641304" lon="11.742080328986049">
        <ele>1976.6099999999999</ele>
        <time>2016-03-18T10:21:20Z</time>
      </trkpt>
      <trkpt lat="46.408319910988212" lon="11.742057194933295">
        <ele>1978.05</ele>
        <time>2016-03-18T10:21:34Z</time>
      </trkpt>
      <trkpt lat="46.408327370882034" lon="11.742063062265515">
        <ele>1978.05</ele>
        <time>2016-03-18T10:21:35Z</time>
      </trkpt>
      <trkpt lat="46.40835109166801" lon="11.742098685353994">
        <ele>1978.53</ele>
        <time>2016-03-18T10:21:46Z</time>
      </trkpt>
      <trkpt lat="46.408358635380864" lon="11.742095584049821">
        <ele>1978.53</ele>
        <time>2016-03-18T10:21:47Z</time>
      </trkpt>
      <trkpt lat="46.408439269289374" lon="11.742178648710251">
        <ele>1979.01</ele>
        <time>2016-03-18T10:21:58Z</time>
      </trkpt>
      <trkpt lat="46.40845125541091" lon="11.742270682007074">
        <ele>1979.49</ele>
        <time>2016-03-18T10:22:09Z</time>
      </trkpt>
      <trkpt lat="46.408469947054982" lon="11.742329774424434">
        <ele>1979.49</ele>
        <time>2016-03-18T10:22:20Z</time>
      </trkpt>
      <trkpt lat="46.408485118299723" lon="11.742393979802728">
        <ele>1981.4100000000001</ele>
        <time>2016-03-18T10:22:28Z</time>
      </trkpt>
      <trkpt lat="46.408520070835948" lon="11.742482325062156">
        <ele>1982.8599999999999</ele>
        <time>2016-03-18T10:22:40Z</time>
      </trkpt>
      <trkpt lat="46.408548736944795" lon="11.742522139102221">
        <ele>1984.3</ele>
        <time>2016-03-18T10:22:49Z</time>
      </trkpt>
      <trkpt lat="46.408582013100386" lon="11.742593385279179">
        <ele>1985.74</ele>
        <time>2016-03-18T10:23:00Z</time>
      </trkpt>
      <trkpt lat="46.408603051677346" lon="11.742692962288857">
        <ele>1987.1800000000001</ele>
        <time>2016-03-18T10:23:11Z</time>
      </trkpt>
      <trkpt lat="46.408621575683355" lon="11.742778709158301">
        <ele>1988.1400000000001</ele>
        <time>2016-03-18T10:23:24Z</time>
      </trkpt>
      <trkpt lat="46.408630963414907" lon="11.742857415229082">
        <ele>1990.0699999999999</ele>
        <time>2016-03-18T10:23:35Z</time>
      </trkpt>
      <trkpt lat="46.408630041405559" lon="11.742816343903542">
        <ele>1990.0699999999999</ele>
        <time>2016-03-18T10:23:44Z</time>
      </trkpt>
      <trkpt lat="46.408625682815909" lon="11.742804022505879">
        <ele>1990.55</ele>
        <time>2016-03-18T10:24:00Z</time>
      </trkpt>
      <trkpt lat="46.408627526834607" lon="11.742796059697866">
        <ele>1990.55</ele>
        <time>2016-03-18T10:24:14Z</time>
      </trkpt>
      <trkpt lat="46.408667927607894" lon="11.742838891223073">
        <ele>1991.51</ele>
        <time>2016-03-18T10:24:22Z</time>
      </trkpt>
      <trkpt lat="46.408718889579177" lon="11.742848362773657">
        <ele>1992.95</ele>
        <time>2016-03-18T10:24:31Z</time>
      </trkpt>
      <trkpt lat="46.408742778003216" lon="11.742871329188347">
        <ele>1992.95</ele>
        <time>2016-03-18T10:24:43Z</time>
      </trkpt>
      <trkpt lat="46.408735318109393" lon="11.742893373593688">
        <ele>1991.99</ele>
        <time>2016-03-18T10:24:55Z</time>
      </trkpt>
      <trkpt lat="46.408720482140779" lon="11.742857499048114">
        <ele>1991.99</ele>
        <time>2016-03-18T10:25:16Z</time>
      </trkpt>
      <trkpt lat="46.408701203763485" lon="11.742839980870485">
        <ele>1991.99</ele>
        <time>2016-03-18T10:25:34Z</time>
      </trkpt>
      <trkpt lat="46.408660467714071" lon="11.742785247042775">
        <ele>1991.99</ele>
        <time>2016-03-18T10:26:08Z</time>
      </trkpt>
      <trkpt lat="46.408672705292702" lon="11.742837214842439">
        <ele>1991.99</ele>
        <time>2016-03-18T10:26:40Z</time>
      </trkpt>
      <trkpt lat="46.40870195813477" lon="11.742807878181338">
        <ele>1992.95</ele>
        <time>2016-03-18T10:27:11Z</time>
      </trkpt>
      <trkpt lat="46.408714866265655" lon="11.742882141843438">
        <ele>1992.95</ele>
        <time>2016-03-18T10:27:21Z</time>
      </trkpt>
      <trkpt lat="46.408778736367822" lon="11.742889350280166">
        <ele>1993.9100000000001</ele>
        <time>2016-03-18T10:27:29Z</time>
      </trkpt>
      <trkpt lat="46.408835481852293" lon="11.74292572773993">
        <ele>1996.8</ele>
        <time>2016-03-18T10:27:41Z</time>
      </trkpt>
      <trkpt lat="46.40879918821156" lon="11.743004936724901">
        <ele>1998.24</ele>
        <time>2016-03-18T10:27:52Z</time>
      </trkpt>
      <trkpt lat="46.408753339201212" lon="11.743091773241758">
        <ele>1999.6800000000001</ele>
        <time>2016-03-18T10:28:08Z</time>
      </trkpt>
      <trkpt lat="46.408756440505385" lon="11.743143489584327">
        <ele>2000.6400000000001</ele>
        <time>2016-03-18T10:28:20Z</time>
      </trkpt>
      <trkpt lat="46.40873515047133" lon="11.743132341653109">
        <ele>2000.6400000000001</ele>
        <time>2016-03-18T10:28:33Z</time>
      </trkpt>
      <trkpt lat="46.408742694184184" lon="11.743109794333577">
        <ele>1999.6800000000001</ele>
        <time>2016-03-18T10:28:41Z</time>
      </trkpt>
      <trkpt lat="46.408692067489028" lon="11.74306939356029">
        <ele>2000.1600000000001</ele>
        <time>2016-03-18T10:29:04Z</time>
      </trkpt>
      <trkpt lat="46.408687876537442" lon="11.743062604218721">
        <ele>2000.1600000000001</ele>
        <time>2016-03-18T10:29:32Z</time>
      </trkpt>
      <trkpt lat="46.408690474927425" lon="11.743038212880492">
        <ele>2000.1600000000001</ele>
        <time>2016-03-18T10:30:05Z</time>
      </trkpt>
      <trkpt lat="46.408702041953802" lon="11.743038715794683">
        <ele>2000.1600000000001</ele>
        <time>2016-03-18T10:30:35Z</time>
      </trkpt>
      <trkpt lat="46.408719141036272" lon="11.743086576461792">
        <ele>2000.1600000000001</ele>
        <time>2016-03-18T10:30:58Z</time>
      </trkpt>
      <trkpt lat="46.408727271482348" lon="11.743091773241758">
        <ele>1999.6800000000001</ele>
        <time>2016-03-18T10:31:24Z</time>
      </trkpt>
      <trkpt lat="46.408757446333766" lon="11.743124127388">
        <ele>2000.1600000000001</ele>
        <time>2016-03-18T10:31:50Z</time>
      </trkpt>
      <trkpt lat="46.408750992268324" lon="11.743147764354944">
        <ele>1999.6800000000001</ele>
        <time>2016-03-18T10:32:19Z</time>
      </trkpt>
      <trkpt lat="46.40873271971941" lon="11.743143489584327">
        <ele>1999.6800000000001</ele>
        <time>2016-03-18T10:32:50Z</time>
      </trkpt>
      <trkpt lat="46.408710507676005" lon="11.743105184286833">
        <ele>1999.6800000000001</ele>
        <time>2016-03-18T10:33:19Z</time>
      </trkpt>
      <trkpt lat="46.408719141036272" lon="11.743071069940925">
        <ele>1999.6800000000001</ele>
        <time>2016-03-18T10:33:45Z</time>
      </trkpt>
      <trkpt lat="46.40873028896749" lon="11.743087330833077">
        <ele>1999.6800000000001</ele>
        <time>2016-03-18T10:34:15Z</time>
      </trkpt>
      <trkpt lat="46.408750405535102" lon="11.743080290034413">
        <ele>1999.2</ele>
        <time>2016-03-18T10:34:39Z</time>
      </trkpt>
      <trkpt lat="46.408699611201882" lon="11.743026226758957">
        <ele>1999.6800000000001</ele>
        <time>2016-03-18T10:35:10Z</time>
      </trkpt>
      <trkpt lat="46.40868728980422" lon="11.743087666109204">
        <ele>1999.2</ele>
        <time>2016-03-18T10:35:29Z</time>
      </trkpt>
      <trkpt lat="46.408736994490027" lon="11.74312362447381">
        <ele>1999.6800000000001</ele>
        <time>2016-03-18T10:35:51Z</time>
      </trkpt>
      <trkpt lat="46.408710172399879" lon="11.743074674159288">
        <ele>1999.6800000000001</ele>
        <time>2016-03-18T10:36:15Z</time>
      </trkpt>
      <trkpt lat="46.408695923164487" lon="11.743100825697184">
        <ele>1999.6800000000001</ele>
        <time>2016-03-18T10:36:42Z</time>
      </trkpt>
      <trkpt lat="46.408686703070998" lon="11.743056485429406">
        <ele>2000.1600000000001</ele>
        <time>2016-03-18T10:37:10Z</time>
      </trkpt>
      <trkpt lat="46.408707574009895" lon="11.743109626695514">
        <ele>2000.1600000000001</ele>
        <time>2016-03-18T10:37:40Z</time>
      </trkpt>
      <trkpt lat="46.408730875700712" lon="11.743165450170636">
        <ele>2000.1600000000001</ele>
        <time>2016-03-18T10:38:09Z</time>
      </trkpt>
      <trkpt lat="46.408721823245287" lon="11.743062436580658">
        <ele>2000.6400000000001</ele>
        <time>2016-03-18T10:38:42Z</time>
      </trkpt>
      <trkpt lat="46.408701706677675" lon="11.743078446015716">
        <ele>2000.6400000000001</ele>
        <time>2016-03-18T10:39:08Z</time>
      </trkpt>
      <trkpt lat="46.408720901235938" lon="11.743066208437085">
        <ele>2001.5999999999999</ele>
        <time>2016-03-18T10:39:28Z</time>
      </trkpt>
      <trkpt lat="46.408745963126421" lon="11.743123289197683">
        <ele>2001.5999999999999</ele>
        <time>2016-03-18T10:39:44Z</time>
      </trkpt>
      <trkpt lat="46.408753003925085" lon="11.743150781840086">
        <ele>2002.0799999999999</ele>
        <time>2016-03-18T10:40:03Z</time>
      </trkpt>
      <trkpt lat="46.408760631456971" lon="11.743213394656777">
        <ele>2003.04</ele>
        <time>2016-03-18T10:40:18Z</time>
      </trkpt>
      <trkpt lat="46.408716961741447" lon="11.743318755179644">
        <ele>2005.45</ele>
        <time>2016-03-18T10:40:30Z</time>
      </trkpt>
      <trkpt lat="46.408702377229929" lon="11.743423528969288">
        <ele>2007.3699999999999</ele>
        <time>2016-03-18T10:40:41Z</time>
      </trkpt>
      <trkpt lat="46.408684104681015" lon="11.743527883663774">
        <ele>2008.8099999999999</ele>
        <time>2016-03-18T10:40:53Z</time>
      </trkpt>
      <trkpt lat="46.40868385322392" lon="11.743610361590981">
        <ele>2010.73</ele>
        <time>2016-03-18T10:41:05Z</time>
      </trkpt>
      <trkpt lat="46.408658120781183" lon="11.743692671880126">
        <ele>2012.1800000000001</ele>
        <time>2016-03-18T10:41:16Z</time>
      </trkpt>
      <trkpt lat="46.408659880980849" lon="11.743799792602658">
        <ele>2013.6199999999999</ele>
        <time>2016-03-18T10:41:27Z</time>
      </trkpt>
      <trkpt lat="46.408616211265326" lon="11.743915630504489">
        <ele>2015.0599999999999</ele>
        <time>2016-03-18T10:41:38Z</time>
      </trkpt>
      <trkpt lat="46.40861252322793" lon="11.744015123695135">
        <ele>2016.02</ele>
        <time>2016-03-18T10:41:48Z</time>
      </trkpt>
      <trkpt lat="46.40857539139688" lon="11.744109252467752">
        <ele>2017.46</ele>
        <time>2016-03-18T10:41:59Z</time>
      </trkpt>
      <trkpt lat="46.408529793843627" lon="11.744222575798631">
        <ele>2018.9100000000001</ele>
        <time>2016-03-18T10:42:12Z</time>
      </trkpt>
      <trkpt lat="46.408493416383862" lon="11.744314609095454">
        <ele>2020.8299999999999</ele>
        <time>2016-03-18T10:42:24Z</time>
      </trkpt>
      <trkpt lat="46.408467097207904" lon="11.744393398985267">
        <ele>2022.75</ele>
        <time>2016-03-18T10:42:36Z</time>
      </trkpt>
      <trkpt lat="46.40845762565732" lon="11.744489371776581">
        <ele>2024.1900000000001</ele>
        <time>2016-03-18T10:42:47Z</time>
      </trkpt>
      <trkpt lat="46.408455530181527" lon="11.744508063420653">
        <ele>2024.6700000000001</ele>
        <time>2016-03-18T10:42:49Z</time>
      </trkpt>
      <trkpt lat="46.408460643142462" lon="11.744535304605961">
        <ele>2026.5999999999999</ele>
        <time>2016-03-18T10:43:00Z</time>
      </trkpt>
      <trkpt lat="46.408508252352476" lon="11.744481576606631">
        <ele>2028.52</ele>
        <time>2016-03-18T10:43:12Z</time>
      </trkpt>
      <trkpt lat="46.408575642853975" lon="11.744464561343193">
        <ele>2030.4400000000001</ele>
        <time>2016-03-18T10:43:24Z</time>
      </trkpt>
      <trkpt lat="46.408662479370832" lon="11.744418377056718">
        <ele>2031.8800000000001</ele>
        <time>2016-03-18T10:43:36Z</time>
      </trkpt>
      <trkpt lat="46.408711010590196" lon="11.744377641007304">
        <ele>2033.8099999999999</ele>
        <time>2016-03-18T10:43:49Z</time>
      </trkpt>
      <trkpt lat="46.408775802701712" lon="11.744332630187273">
        <ele>2034.77</ele>
        <time>2016-03-18T10:44:01Z</time>
      </trkpt>
      <trkpt lat="46.408847970888019" lon="11.744321566075087">
        <ele>2036.6900000000001</ele>
        <time>2016-03-18T10:44:14Z</time>
      </trkpt>
      <trkpt lat="46.408917456865311" lon="11.744262389838696">
        <ele>2038.6099999999999</ele>
        <time>2016-03-18T10:44:26Z</time>
      </trkpt>
      <trkpt lat="46.408977471292019" lon="11.744182677939534">
        <ele>2040.05</ele>
        <time>2016-03-18T10:44:39Z</time>
      </trkpt>
      <trkpt lat="46.40904008410871" lon="11.744137583300471">
        <ele>2041.98</ele>
        <time>2016-03-18T10:44:50Z</time>
      </trkpt>
      <trkpt lat="46.409088531509042" lon="11.74405787140131">
        <ele>2043.4200000000001</ele>
        <time>2016-03-18T10:45:02Z</time>
      </trkpt>
      <trkpt lat="46.409138236194849" lon="11.74400850199163">
        <ele>2044.3800000000001</ele>
        <time>2016-03-18T10:45:11Z</time>
      </trkpt>
      <trkpt lat="46.409193640574813" lon="11.743989558890462">
        <ele>2045.8199999999999</ele>
        <time>2016-03-18T10:45:23Z</time>
      </trkpt>
      <trkpt lat="46.409202357754111" lon="11.743966592475772">
        <ele>2046.3</ele>
        <time>2016-03-18T10:45:35Z</time>
      </trkpt>
      <trkpt lat="46.409271005541086" lon="11.743947314098477">
        <ele>2047.26</ele>
        <time>2016-03-18T10:45:47Z</time>
      </trkpt>
      <trkpt lat="46.409330265596509" lon="11.743946811184287">
        <ele>2048.23</ele>
        <time>2016-03-18T10:46:00Z</time>
      </trkpt>
      <trkpt lat="46.409369241446257" lon="11.743933316320181">
        <ele>2049.1900000000001</ele>
        <time>2016-03-18T10:46:11Z</time>
      </trkpt>
      <trkpt lat="46.409401092678308" lon="11.743941362947226">
        <ele>2051.1100000000001</ele>
        <time>2016-03-18T10:46:23Z</time>
      </trkpt>
      <trkpt lat="46.409384161233902" lon="11.744010597467422">
        <ele>2052.0700000000002</ele>
        <time>2016-03-18T10:46:36Z</time>
      </trkpt>
      <trkpt lat="46.409359686076641" lon="11.744096847251058">
        <ele>2053.5100000000002</ele>
        <time>2016-03-18T10:46:47Z</time>
      </trkpt>
      <trkpt lat="46.409336132928729" lon="11.744168261066079">
        <ele>2053.9899999999998</ele>
        <time>2016-03-18T10:46:58Z</time>
      </trkpt>
      <trkpt lat="46.409302102401853" lon="11.744207823649049">
        <ele>2055.4400000000001</ele>
        <time>2016-03-18T10:47:09Z</time>
      </trkpt>
      <trkpt lat="46.40928533859551" lon="11.744292229413986">
        <ele>2056.8800000000001</ele>
        <time>2016-03-18T10:47:21Z</time>
      </trkpt>
      <trkpt lat="46.409276118502021" lon="11.744355177506804">
        <ele>2057.3600000000001</ele>
        <time>2016-03-18T10:47:33Z</time>
      </trkpt>
      <trkpt lat="46.409312495961785" lon="11.744372108951211">
        <ele>2058.8000000000002</ele>
        <time>2016-03-18T10:47:44Z</time>
      </trkpt>
      <trkpt lat="46.409364715218544" lon="11.744342939928174">
        <ele>2059.7600000000002</ele>
        <time>2016-03-18T10:47:56Z</time>
      </trkpt>
      <trkpt lat="46.409400422126055" lon="11.744377892464399">
        <ele>2060.7199999999998</ele>
        <time>2016-03-18T10:48:08Z</time>
      </trkpt>
      <trkpt lat="46.40938307158649" lon="11.744440170004964">
        <ele>2062.1700000000001</ele>
        <time>2016-03-18T10:48:17Z</time>
      </trkpt>
      <trkpt lat="46.409417018294334" lon="11.744499010965228">
        <ele>2063.6100000000001</ele>
        <time>2016-03-18T10:48:29Z</time>
      </trkpt>
      <trkpt lat="46.409426322206855" lon="11.744526671245694">
        <ele>2063.6100000000001</ele>
        <time>2016-03-18T10:48:38Z</time>
      </trkpt>
      <trkpt lat="46.409446187317371" lon="11.744589200243354">
        <ele>2065.0500000000002</ele>
        <time>2016-03-18T10:48:50Z</time>
      </trkpt>
      <trkpt lat="46.409462783485651" lon="11.744616189971566">
        <ele>2066.4899999999998</ele>
        <time>2016-03-18T10:49:01Z</time>
      </trkpt>
      <trkpt lat="46.409486839547753" lon="11.744660446420312">
        <ele>2067.9299999999998</ele>
        <time>2016-03-18T10:49:11Z</time>
      </trkpt>
      <trkpt lat="46.409489354118705" lon="11.744724148884416">
        <ele>2069.3800000000001</ele>
        <time>2016-03-18T10:49:22Z</time>
      </trkpt>
      <trkpt lat="46.409491030499339" lon="11.744749462231994">
        <ele>2070.3400000000001</ele>
        <time>2016-03-18T10:49:33Z</time>
      </trkpt>
      <trkpt lat="46.409456077963114" lon="11.744781816378236">
        <ele>2071.3000000000002</ele>
        <time>2016-03-18T10:49:44Z</time>
      </trkpt>
      <trkpt lat="46.409419365227222" lon="11.744831521064043">
        <ele>2072.2600000000002</ele>
        <time>2016-03-18T10:49:57Z</time>
      </trkpt>
      <trkpt lat="46.409415006637573" lon="11.744835376739502">
        <ele>2072.2600000000002</ele>
        <time>2016-03-18T10:50:00Z</time>
      </trkpt>
      <trkpt lat="46.40937133692205" lon="11.744876448065042">
        <ele>2073.6999999999998</ele>
        <time>2016-03-18T10:50:09Z</time>
      </trkpt>
      <trkpt lat="46.409322805702686" lon="11.744887260720134">
        <ele>2075.1399999999999</ele>
        <time>2016-03-18T10:50:19Z</time>
      </trkpt>
      <trkpt lat="46.409276118502021" lon="11.744923135265708">
        <ele>2075.6199999999999</ele>
        <time>2016-03-18T10:50:32Z</time>
      </trkpt>
      <trkpt lat="46.4092340413481" lon="11.744940569624305">
        <ele>2077.5500000000002</ele>
        <time>2016-03-18T10:50:44Z</time>
      </trkpt>
      <trkpt lat="46.409219959750772" lon="11.744979126378894">
        <ele>2078.5100000000002</ele>
        <time>2016-03-18T10:50:55Z</time>
      </trkpt>
      <trkpt lat="46.409187018871307" lon="11.745048444718122">
        <ele>2079.4699999999998</ele>
        <time>2016-03-18T10:51:05Z</time>
      </trkpt>
      <trkpt lat="46.409161789342761" lon="11.745103178545833">
        <ele>2080.4299999999998</ele>
        <time>2016-03-18T10:51:16Z</time>
      </trkpt>
      <trkpt lat="46.409161370247602" lon="11.745152464136481">
        <ele>2081.3899999999999</ele>
        <time>2016-03-18T10:51:26Z</time>
      </trkpt>
      <trkpt lat="46.409137062728405" lon="11.74523301422596">
        <ele>2081.8699999999999</ele>
        <time>2016-03-18T10:51:36Z</time>
      </trkpt>
      <trkpt lat="46.409116610884666" lon="11.745320521295071">
        <ele>2082.8299999999999</ele>
        <time>2016-03-18T10:51:49Z</time>
      </trkpt>
      <trkpt lat="46.409093979746103" lon="11.745409369468689">
        <ele>2084.2800000000002</ele>
        <time>2016-03-18T10:52:02Z</time>
      </trkpt>
      <trkpt lat="46.409078724682331" lon="11.745453290641308">
        <ele>2084.7600000000002</ele>
        <time>2016-03-18T10:52:14Z</time>
      </trkpt>
      <trkpt lat="46.409042766317725" lon="11.745506515726447">
        <ele>2085.7199999999998</ele>
        <time>2016-03-18T10:52:24Z</time>
      </trkpt>
      <trkpt lat="46.409033462405205" lon="11.74558337777853">
        <ele>2087.1599999999999</ele>
        <time>2016-03-18T10:52:38Z</time>
      </trkpt>
      <trkpt lat="46.409059865400195" lon="11.745631070807576">
        <ele>2088.5999999999999</ele>
        <time>2016-03-18T10:52:49Z</time>
      </trkpt>
      <trkpt lat="46.40908601693809" lon="11.745653115212917">
        <ele>2089.5599999999999</ele>
        <time>2016-03-18T10:53:01Z</time>
      </trkpt>
      <trkpt lat="46.409094482660294" lon="11.745663760229945">
        <ele>2090.04</ele>
        <time>2016-03-18T10:53:16Z</time>
      </trkpt>
      <trkpt lat="46.409088363870978" lon="11.745664766058326">
        <ele>2090.04</ele>
        <time>2016-03-18T10:53:29Z</time>
      </trkpt>
      <trkpt lat="46.409127926453948" lon="11.745679266750813">
        <ele>2090.52</ele>
        <time>2016-03-18T10:53:41Z</time>
      </trkpt>
      <trkpt lat="46.409172434359789" lon="11.745674153789878">
        <ele>2091</ele>
        <time>2016-03-18T10:53:51Z</time>
      </trkpt>
      <trkpt lat="46.409189952537417" lon="11.745643727481365">
        <ele>2091.9699999999998</ele>
        <time>2016-03-18T10:54:02Z</time>
      </trkpt>
      <trkpt lat="46.409265892580152" lon="11.745598632842302">
        <ele>2094.3699999999999</ele>
        <time>2016-03-18T10:54:14Z</time>
      </trkpt>
      <trkpt lat="46.409315010532737" lon="11.745577426627278">
        <ele>2095.8099999999999</ele>
        <time>2016-03-18T10:54:24Z</time>
      </trkpt>
      <trkpt lat="46.409380054101348" lon="11.74560097977519">
        <ele>2096.77</ele>
        <time>2016-03-18T10:54:36Z</time>
      </trkpt>
      <trkpt lat="46.409431435167789" lon="11.7456713039428">
        <ele>2097.73</ele>
        <time>2016-03-18T10:54:46Z</time>
      </trkpt>
      <trkpt lat="46.409459933638573" lon="11.745757972821593">
        <ele>2098.6999999999998</ele>
        <time>2016-03-18T10:54:56Z</time>
      </trkpt>
      <trkpt lat="46.409470494836569" lon="11.745835589244962">
        <ele>2099.6599999999999</ele>
        <time>2016-03-18T10:55:10Z</time>
      </trkpt>
      <trkpt lat="46.409461358562112" lon="11.745930053293705">
        <ele>2101.0999999999999</ele>
        <time>2016-03-18T10:55:22Z</time>
      </trkpt>
      <trkpt lat="46.409468315541744" lon="11.746050333604217">
        <ele>2102.0599999999999</ele>
        <time>2016-03-18T10:55:37Z</time>
      </trkpt>
      <trkpt lat="46.409484492614865" lon="11.746119651943445">
        <ele>2103.02</ele>
        <time>2016-03-18T10:55:47Z</time>
      </trkpt>
      <trkpt lat="46.409495724365115" lon="11.746215457096696">
        <ele>2103.98</ele>
        <time>2016-03-18T10:56:00Z</time>
      </trkpt>
      <trkpt lat="46.409489521756768" lon="11.746291313320398">
        <ele>2104.9400000000001</ele>
        <time>2016-03-18T10:56:12Z</time>
      </trkpt>
      <trkpt lat="46.409508129581809" lon="11.746340682730079">
        <ele>2106.3899999999999</ele>
        <time>2016-03-18T10:56:24Z</time>
      </trkpt>
      <trkpt lat="46.409520450979471" lon="11.746428608894348">
        <ele>2107.3499999999999</ele>
        <time>2016-03-18T10:56:36Z</time>
      </trkpt>
      <trkpt lat="46.409516260027885" lon="11.746511925011873">
        <ele>2108.3099999999999</ele>
        <time>2016-03-18T10:56:48Z</time>
      </trkpt>
      <trkpt lat="46.409522965550423" lon="11.746581494808197">
        <ele>2109.27</ele>
        <time>2016-03-18T10:57:00Z</time>
      </trkpt>
      <trkpt lat="46.409534700214863" lon="11.746661625802517">
        <ele>2110.23</ele>
        <time>2016-03-18T10:57:11Z</time>
      </trkpt>
      <trkpt lat="46.409558756276965" lon="11.746755838394165">
        <ele>2110.71</ele>
        <time>2016-03-18T10:57:21Z</time>
      </trkpt>
      <trkpt lat="46.409535706043243" lon="11.746770422905684">
        <ele>2110.71</ele>
        <time>2016-03-18T10:57:32Z</time>
      </trkpt>
      <trkpt lat="46.409529000520706" lon="11.746797077357769">
        <ele>2110.71</ele>
        <time>2016-03-18T10:57:52Z</time>
      </trkpt>
      <trkpt lat="46.409563953056931" lon="11.746842423453927">
        <ele>2111.1900000000001</ele>
        <time>2016-03-18T10:58:06Z</time>
      </trkpt>
      <trkpt lat="46.40960200689733" lon="11.746911657974124">
        <ele>2111.6700000000001</ele>
        <time>2016-03-18T10:58:17Z</time>
      </trkpt>
      <trkpt lat="46.409612316638231" lon="11.746930601075292">
        <ele>2111.1900000000001</ele>
        <time>2016-03-18T10:58:36Z</time>
      </trkpt>
      <trkpt lat="46.409639306366444" lon="11.746925236657262">
        <ele>2111.6700000000001</ele>
        <time>2016-03-18T10:59:04Z</time>
      </trkpt>
      <trkpt lat="46.409653387963772" lon="11.746942503377795">
        <ele>2112.6300000000001</ele>
        <time>2016-03-18T10:59:21Z</time>
      </trkpt>
      <trkpt lat="46.409631930291653" lon="11.746966894716024">
        <ele>2112.1500000000001</ele>
        <time>2016-03-18T10:59:34Z</time>
      </trkpt>
      <trkpt lat="46.409622458741069" lon="11.746986927464604">
        <ele>2112.6300000000001</ele>
        <time>2016-03-18T10:59:56Z</time>
      </trkpt>
      <trkpt lat="46.409622794017196" lon="11.746963458135724">
        <ele>2112.6300000000001</ele>
        <time>2016-03-18T11:00:11Z</time>
      </trkpt>
      <trkpt lat="46.409622877836227" lon="11.747002936899662">
        <ele>2113.5999999999999</ele>
        <time>2016-03-18T11:00:21Z</time>
      </trkpt>
      <trkpt lat="46.409638216719031" lon="11.746996063739061">
        <ele>2113.5999999999999</ele>
        <time>2016-03-18T11:00:38Z</time>
      </trkpt>
      <trkpt lat="46.409626482054591" lon="11.747001763433218">
        <ele>2113.5999999999999</ele>
        <time>2016-03-18T11:00:52Z</time>
      </trkpt>
      <trkpt lat="46.409632433205843" lon="11.747017689049244">
        <ele>2113.5999999999999</ele>
        <time>2016-03-18T11:01:04Z</time>
      </trkpt>
      <trkpt lat="46.409634193405509" lon="11.747080637142062">
        <ele>2114.5599999999999</ele>
        <time>2016-03-18T11:01:15Z</time>
      </trkpt>
      <trkpt lat="46.409618938341737" lon="11.747171496972442">
        <ele>2116</ele>
        <time>2016-03-18T11:01:27Z</time>
      </trkpt>
      <trkpt lat="46.409583734348416" lon="11.747282557189465">
        <ele>2117.4400000000001</ele>
        <time>2016-03-18T11:01:38Z</time>
      </trkpt>
      <trkpt lat="46.409554816782475" lon="11.747361095622182">
        <ele>2118.4000000000001</ele>
        <time>2016-03-18T11:01:48Z</time>
      </trkpt>
      <trkpt lat="46.40952967107296" lon="11.74744944088161">
        <ele>2120.3200000000002</ele>
        <time>2016-03-18T11:02:01Z</time>
      </trkpt>
      <trkpt lat="46.409496227279305" lon="11.747539797797799">
        <ele>2121.29</ele>
        <time>2016-03-18T11:02:12Z</time>
      </trkpt>
      <trkpt lat="46.409476865082979" lon="11.747619593515992">
        <ele>2122.73</ele>
        <time>2016-03-18T11:02:23Z</time>
      </trkpt>
      <trkpt lat="46.409447612240911" lon="11.747693605720997">
        <ele>2124.1700000000001</ele>
        <time>2016-03-18T11:02:33Z</time>
      </trkpt>
      <trkpt lat="46.409410228952765" lon="11.747762085869908">
        <ele>2125.1300000000001</ele>
        <time>2016-03-18T11:02:44Z</time>
      </trkpt>
      <trkpt lat="46.409389274194837" lon="11.747820172458887">
        <ele>2126.0900000000001</ele>
        <time>2016-03-18T11:02:53Z</time>
      </trkpt>
      <trkpt lat="46.409363122656941" lon="11.747866021469235">
        <ele>2127.5300000000002</ele>
        <time>2016-03-18T11:03:03Z</time>
      </trkpt>
      <trkpt lat="46.40934593975544" lon="11.747940201312304">
        <ele>2128.5</ele>
        <time>2016-03-18T11:03:14Z</time>
      </trkpt>
      <trkpt lat="46.409338060766459" lon="11.748020835220814">
        <ele>2130.4200000000001</ele>
        <time>2016-03-18T11:03:26Z</time>
      </trkpt>
      <trkpt lat="46.409336216747761" lon="11.748078586533666">
        <ele>2130.9000000000001</ele>
        <time>2016-03-18T11:03:36Z</time>
      </trkpt>
      <trkpt lat="46.409364882856607" lon="11.748083867132664">
        <ele>2131.8600000000001</ele>
        <time>2016-03-18T11:03:46Z</time>
      </trkpt>
      <trkpt lat="46.409394638612866" lon="11.748029300943017">
        <ele>2133.3000000000002</ele>
        <time>2016-03-18T11:03:57Z</time>
      </trkpt>
      <trkpt lat="46.409427495673299" lon="11.747996862977743">
        <ele>2134.7399999999998</ele>
        <time>2016-03-18T11:04:08Z</time>
      </trkpt>
      <trkpt lat="46.409475356340408" lon="11.747979931533337">
        <ele>2135.71</ele>
        <time>2016-03-18T11:04:20Z</time>
      </trkpt>
      <trkpt lat="46.409507291391492" lon="11.747963419184089">
        <ele>2137.1500000000001</ele>
        <time>2016-03-18T11:04:29Z</time>
      </trkpt>
      <trkpt lat="46.409537047147751" lon="11.747965849936008">
        <ele>2137.6300000000001</ele>
        <time>2016-03-18T11:04:45Z</time>
      </trkpt>
      <trkpt lat="46.409590188413858" lon="11.747988732531667">
        <ele>2139.0700000000002</ele>
        <time>2016-03-18T11:04:54Z</time>
      </trkpt>
      <trkpt lat="46.40960393473506" lon="11.748015889897943">
        <ele>2139.5500000000002</ele>
        <time>2016-03-18T11:05:07Z</time>
      </trkpt>
      <trkpt lat="46.409620949998498" lon="11.748085459694266">
        <ele>2141.4699999999998</ele>
        <time>2016-03-18T11:05:19Z</time>
      </trkpt>
      <trkpt lat="46.409625560045242" lon="11.748147737234831">
        <ele>2142.9200000000001</ele>
        <time>2016-03-18T11:05:30Z</time>
      </trkpt>
      <trkpt lat="46.409612568095326" lon="11.748188892379403">
        <ele>2143.8800000000001</ele>
        <time>2016-03-18T11:05:41Z</time>
      </trkpt>
      <trkpt lat="46.409626314416528" lon="11.748238680884242">
        <ele>2145.3200000000002</ele>
        <time>2016-03-18T11:05:51Z</time>
      </trkpt>
      <trkpt lat="46.409605359658599" lon="11.748309005051851">
        <ele>2146.7600000000002</ele>
        <time>2016-03-18T11:06:03Z</time>
      </trkpt>
      <trkpt lat="46.409578956663609" lon="11.748365079984069">
        <ele>2148.1999999999998</ele>
        <time>2016-03-18T11:06:13Z</time>
      </trkpt>
      <trkpt lat="46.40954433940351" lon="11.748420065268874">
        <ele>2149.1599999999999</ele>
        <time>2016-03-18T11:06:24Z</time>
      </trkpt>
      <trkpt lat="46.409523384645581" lon="11.748456442728639">
        <ele>2150.1300000000001</ele>
        <time>2016-03-18T11:06:32Z</time>
      </trkpt>
      <trkpt lat="46.409512488171458" lon="11.748493490740657">
        <ele>2151.0900000000001</ele>
        <time>2016-03-18T11:06:43Z</time>
      </trkpt>
      <trkpt lat="46.40948424115777" lon="11.748564066365361">
        <ele>2151.5700000000002</ele>
        <time>2016-03-18T11:06:55Z</time>
      </trkpt>
      <trkpt lat="46.409482648596168" lon="11.748628271743655">
        <ele>2152.0500000000002</ele>
        <time>2016-03-18T11:07:09Z</time>
      </trkpt>
      <trkpt lat="46.409458257257938" lon="11.748684011399746">
        <ele>2153.4899999999998</ele>
        <time>2016-03-18T11:07:18Z</time>
      </trkpt>
      <trkpt lat="46.409427830949426" lon="11.74872625619173">
        <ele>2153.9699999999998</ele>
        <time>2016-03-18T11:07:28Z</time>
      </trkpt>
      <trkpt lat="46.409418778494" lon="11.748728267848492">
        <ele>2153.9699999999998</ele>
        <time>2016-03-18T11:07:41Z</time>
      </trkpt>
      <trkpt lat="46.409416683018208" lon="11.748760705813766">
        <ele>2154.4499999999998</ele>
        <time>2016-03-18T11:07:54Z</time>
      </trkpt>
      <trkpt lat="46.409382903948426" lon="11.748826671391726">
        <ele>2154.9299999999998</ele>
        <time>2016-03-18T11:08:05Z</time>
      </trkpt>
      <trkpt lat="46.409351639449596" lon="11.748888613656163">
        <ele>2158.3000000000002</ele>
        <time>2016-03-18T11:08:16Z</time>
      </trkpt>
      <trkpt lat="46.409323895350099" lon="11.748955082148314">
        <ele>2158.3000000000002</ele>
        <time>2016-03-18T11:08:27Z</time>
      </trkpt>
      <trkpt lat="46.409342335537076" lon="11.748968409374356">
        <ele>2159.2600000000002</ele>
        <time>2016-03-18T11:08:36Z</time>
      </trkpt>
      <trkpt lat="46.409386172890663" lon="11.748990789055824">
        <ele>2160.6999999999998</ele>
        <time>2016-03-18T11:08:46Z</time>
      </trkpt>
      <trkpt lat="46.40939581207931" lon="11.749004870653152">
        <ele>2161.1799999999998</ele>
        <time>2016-03-18T11:08:58Z</time>
      </trkpt>
      <trkpt lat="46.409428333863616" lon="11.749011995270848">
        <ele>2162.1399999999999</ele>
        <time>2016-03-18T11:09:13Z</time>
      </trkpt>
      <trkpt lat="46.409467644989491" lon="11.749046444892883">
        <ele>2163.0999999999999</ele>
        <time>2016-03-18T11:09:23Z</time>
      </trkpt>
      <trkpt lat="46.409476865082979" lon="11.749062957242131">
        <ele>2164.0599999999999</ele>
        <time>2016-03-18T11:09:32Z</time>
      </trkpt>
      <trkpt lat="46.409483151510358" lon="11.749069495126605">
        <ele>2164.0599999999999</ele>
        <time>2016-03-18T11:09:45Z</time>
      </trkpt>
      <trkpt lat="46.409519780427217" lon="11.749095730483532">
        <ele>2165.5100000000002</ele>
        <time>2016-03-18T11:09:54Z</time>
      </trkpt>
      <trkpt lat="46.409528832882643" lon="11.7491733469069">
        <ele>2166.9499999999998</ele>
        <time>2016-03-18T11:10:05Z</time>
      </trkpt>
      <trkpt lat="46.409497652202845" lon="11.74922464415431">
        <ele>2167.9099999999999</ele>
        <time>2016-03-18T11:10:17Z</time>
      </trkpt>
      <trkpt lat="46.409463789314032" lon="11.74924517981708">
        <ele>2169.3499999999999</ele>
        <time>2016-03-18T11:10:27Z</time>
      </trkpt>
      <trkpt lat="46.409466890618205" lon="11.74926521256566">
        <ele>2169.3499999999999</ele>
        <time>2016-03-18T11:10:36Z</time>
      </trkpt>
      <trkpt lat="46.409506620839238" lon="11.749273091554642">
        <ele>2169.8299999999999</ele>
        <time>2016-03-18T11:10:52Z</time>
      </trkpt>
      <trkpt lat="46.40954677015543" lon="11.74929010681808">
        <ele>2171.27</ele>
        <time>2016-03-18T11:11:03Z</time>
      </trkpt>
      <trkpt lat="46.40956680290401" lon="11.749321790412068">
        <ele>2172.7199999999998</ele>
        <time>2016-03-18T11:11:14Z</time>
      </trkpt>
      <trkpt lat="46.409545512869954" lon="11.749362526461482">
        <ele>2173.6799999999998</ele>
        <time>2016-03-18T11:11:34Z</time>
      </trkpt>
      <trkpt lat="46.409506537020206" lon="11.749439388513565">
        <ele>2175.1199999999999</ele>
        <time>2016-03-18T11:11:47Z</time>
      </trkpt>
      <trkpt lat="46.409505950286984" lon="11.749495882540941">
        <ele>2176.5599999999999</ele>
        <time>2016-03-18T11:11:58Z</time>
      </trkpt>
      <trkpt lat="46.409477200359106" lon="11.749547515064478">
        <ele>2178.48</ele>
        <time>2016-03-18T11:12:08Z</time>
      </trkpt>
      <trkpt lat="46.409459095448256" lon="11.749599734321237">
        <ele>2180.4099999999999</ele>
        <time>2016-03-18T11:12:19Z</time>
      </trkpt>
      <trkpt lat="46.409446774050593" lon="11.749660084024072">
        <ele>2180.8899999999999</ele>
        <time>2016-03-18T11:12:29Z</time>
      </trkpt>
      <trkpt lat="46.409461945295334" lon="11.749691851437092">
        <ele>2181.3699999999999</ele>
        <time>2016-03-18T11:12:46Z</time>
      </trkpt>
      <trkpt lat="46.409419449046254" lon="11.749752452597022">
        <ele>2182.3299999999999</ele>
        <time>2016-03-18T11:12:55Z</time>
      </trkpt>
      <trkpt lat="46.409415006637573" lon="11.749802744016051">
        <ele>2184.25</ele>
        <time>2016-03-18T11:13:06Z</time>
      </trkpt>
      <trkpt lat="46.409409139305353" lon="11.749869547784328">
        <ele>2185.6900000000001</ele>
        <time>2016-03-18T11:13:18Z</time>
      </trkpt>
      <trkpt lat="46.409409726038575" lon="11.749924113973975">
        <ele>2186.6599999999999</ele>
        <time>2016-03-18T11:13:30Z</time>
      </trkpt>
      <trkpt lat="46.409436548128724" lon="11.749925203621387">
        <ele>2187.6199999999999</ele>
        <time>2016-03-18T11:13:44Z</time>
      </trkpt>
      <trkpt lat="46.409481978043914" lon="11.74993559718132">
        <ele>2189.0599999999999</ele>
        <time>2016-03-18T11:13:54Z</time>
      </trkpt>
      <trkpt lat="46.409523217007518" lon="11.749955881386995">
        <ele>2190.98</ele>
        <time>2016-03-18T11:14:06Z</time>
      </trkpt>
      <trkpt lat="46.409556576982141" lon="11.749988235533237">
        <ele>2191.46</ele>
        <time>2016-03-18T11:14:16Z</time>
      </trkpt>
      <trkpt lat="46.409571496769786" lon="11.750011285766959">
        <ele>2191.46</ele>
        <time>2016-03-18T11:14:27Z</time>
      </trkpt>
      <trkpt lat="46.409585578367114" lon="11.750009609386325">
        <ele>2192.9000000000001</ele>
        <time>2016-03-18T11:14:39Z</time>
      </trkpt>
      <trkpt lat="46.409605359658599" lon="11.750045316293836">
        <ele>2193.3899999999999</ele>
        <time>2016-03-18T11:14:56Z</time>
      </trkpt>
      <trkpt lat="46.409645592793822" lon="11.750060236081481">
        <ele>2193.8699999999999</ele>
        <time>2016-03-18T11:15:05Z</time>
      </trkpt>
      <trkpt lat="46.409653890877962" lon="11.750073814764619">
        <ele>2194.3499999999999</ele>
        <time>2016-03-18T11:15:21Z</time>
      </trkpt>
      <trkpt lat="46.409660931676626" lon="11.750065516680479">
        <ele>2193.8699999999999</ele>
        <time>2016-03-18T11:15:38Z</time>
      </trkpt>
      <trkpt lat="46.409653890877962" lon="11.750047244131565">
        <ele>2193.8699999999999</ele>
        <time>2016-03-18T11:15:54Z</time>
      </trkpt>
      <trkpt lat="46.409634025767446" lon="11.750087644904852">
        <ele>2194.3499999999999</ele>
        <time>2016-03-18T11:16:03Z</time>
      </trkpt>
      <trkpt lat="46.409614663571119" lon="11.750092674046755">
        <ele>2194.8299999999999</ele>
        <time>2016-03-18T11:16:14Z</time>
      </trkpt>
      <trkpt lat="46.409616842865944" lon="11.750115305185318">
        <ele>2194.8299999999999</ele>
        <time>2016-03-18T11:16:28Z</time>
      </trkpt>
      <trkpt lat="46.409617681056261" lon="11.750092841684818">
        <ele>2195.3099999999999</ele>
        <time>2016-03-18T11:16:48Z</time>
      </trkpt>
      <trkpt lat="46.409629415720701" lon="11.750112036243081">
        <ele>2195.3099999999999</ele>
        <time>2016-03-18T11:17:05Z</time>
      </trkpt>
      <trkpt lat="46.409619189798832" lon="11.750107426196337">
        <ele>2194.8299999999999</ele>
        <time>2016-03-18T11:17:20Z</time>
      </trkpt>
      <trkpt lat="46.409633187577128" lon="11.750109102576971">
        <ele>2194.8299999999999</ele>
        <time>2016-03-18T11:17:44Z</time>
      </trkpt>
      <trkpt lat="46.409632014110684" lon="11.750138942152262">
        <ele>2194.8299999999999</ele>
        <time>2016-03-18T11:18:15Z</time>
      </trkpt>
      <trkpt lat="46.409643748775125" lon="11.750187808647752">
        <ele>2193.8699999999999</ele>
        <time>2016-03-18T11:18:25Z</time>
      </trkpt>
      <trkpt lat="46.409637965261936" lon="11.750298449769616">
        <ele>2192.4200000000001</ele>
        <time>2016-03-18T11:18:35Z</time>
      </trkpt>
      <trkpt lat="46.409636959433556" lon="11.75036265514791">
        <ele>2191.9400000000001</ele>
        <time>2016-03-18T11:18:39Z</time>
      </trkpt>
      <trkpt lat="46.409620363265276" lon="11.750544542446733">
        <ele>2190.98</ele>
        <time>2016-03-18T11:18:51Z</time>
      </trkpt>
      <trkpt lat="46.409624638035893" lon="11.750738164409995">
        <ele>2189.0599999999999</ele>
        <time>2016-03-18T11:19:02Z</time>
      </trkpt>
      <trkpt lat="46.409626398235559" lon="11.750926841050386">
        <ele>2189.0599999999999</ele>
        <time>2016-03-18T11:19:14Z</time>
      </trkpt>
      <trkpt lat="46.409624051302671" lon="11.751092551276088">
        <ele>2189.54</ele>
        <time>2016-03-18T11:19:26Z</time>
      </trkpt>
      <trkpt lat="46.409624302759767" lon="11.751209730282426">
        <ele>2190.02</ele>
        <time>2016-03-18T11:19:36Z</time>
      </trkpt>
      <trkpt lat="46.40963964164257" lon="11.751248957589269">
        <ele>2190.5</ele>
        <time>2016-03-18T11:19:48Z</time>
      </trkpt>
      <trkpt lat="46.409632014110684" lon="11.751326490193605">
        <ele>2191.46</ele>
        <time>2016-03-18T11:19:59Z</time>
      </trkpt>
      <trkpt lat="46.409634444862604" lon="11.751362951472402">
        <ele>2191.9400000000001</ele>
        <time>2016-03-18T11:20:11Z</time>
      </trkpt>
      <trkpt lat="46.40963570214808" lon="11.751406285911798">
        <ele>2191.9400000000001</ele>
        <time>2016-03-18T11:20:21Z</time>
      </trkpt>
      <trkpt lat="46.40962153673172" lon="11.75138390623033">
        <ele>2190.98</ele>
        <time>2016-03-18T11:20:43Z</time>
      </trkpt>
      <trkpt lat="46.409610975533724" lon="11.751380385830998">
        <ele>2191.9400000000001</ele>
        <time>2016-03-18T11:20:59Z</time>
      </trkpt>
      <trkpt lat="46.409585410729051" lon="11.751417936757207">
        <ele>2191.9400000000001</ele>
        <time>2016-03-18T11:21:09Z</time>
      </trkpt>
      <trkpt lat="46.409578789025545" lon="11.751568224281073">
        <ele>2190.98</ele>
        <time>2016-03-18T11:21:21Z</time>
      </trkpt>
      <trkpt lat="46.409576609730721" lon="11.751690683886409">
        <ele>2190.98</ele>
        <time>2016-03-18T11:21:31Z</time>
      </trkpt>
      <trkpt lat="46.409565713256598" lon="11.751828566193581">
        <ele>2190.5</ele>
        <time>2016-03-18T11:21:41Z</time>
      </trkpt>
      <trkpt lat="46.409545848146081" lon="11.75196192227304">
        <ele>2190.98</ele>
        <time>2016-03-18T11:21:52Z</time>
      </trkpt>
      <trkpt lat="46.409514164552093" lon="11.752094272524118">
        <ele>2192.4200000000001</ele>
        <time>2016-03-18T11:22:04Z</time>
      </trkpt>
      <trkpt lat="46.409523468464613" lon="11.75210801884532">
        <ele>2192.4200000000001</ele>
        <time>2016-03-18T11:22:14Z</time>
      </trkpt>
      <trkpt lat="46.409534197300673" lon="11.752131404355168">
        <ele>2192.4200000000001</ele>
        <time>2016-03-18T11:22:16Z</time>
      </trkpt>
      <trkpt lat="46.409521205350757" lon="11.752201979979873">
        <ele>2193.3899999999999</ele>
        <time>2016-03-18T11:22:23Z</time>
      </trkpt>
      <trkpt lat="46.409488935023546" lon="11.752354614436626">
        <ele>2193.3899999999999</ele>
        <time>2016-03-18T11:22:35Z</time>
      </trkpt>
      <trkpt lat="46.40947837382555" lon="11.752400798723102">
        <ele>2192.9000000000001</ele>
        <time>2016-03-18T11:22:39Z</time>
      </trkpt>
      <trkpt lat="46.409466722980142" lon="11.752453939989209">
        <ele>2192.9000000000001</ele>
        <time>2016-03-18T11:22:44Z</time>
      </trkpt>
      <trkpt lat="46.409415928646922" lon="11.752577992156148">
        <ele>2192.4200000000001</ele>
        <time>2016-03-18T11:22:57Z</time>
      </trkpt>
      <trkpt lat="46.40942607074976" lon="11.752569861710072">
        <ele>2192.4200000000001</ele>
        <time>2016-03-18T11:23:13Z</time>
      </trkpt>
      <trkpt lat="46.409403858706355" lon="11.752662230283022">
        <ele>2191.9400000000001</ele>
        <time>2016-03-18T11:23:26Z</time>
      </trkpt>
      <trkpt lat="46.409388855099678" lon="11.752902204170823">
        <ele>2190.5</ele>
        <time>2016-03-18T11:23:40Z</time>
      </trkpt>
      <trkpt lat="46.40940603800118" lon="11.753032878041267">
        <ele>2190.5</ele>
        <time>2016-03-18T11:23:49Z</time>
      </trkpt>
      <trkpt lat="46.409452222287655" lon="11.753132455050945">
        <ele>2191.46</ele>
        <time>2016-03-18T11:23:59Z</time>
      </trkpt>
      <trkpt lat="46.409469237551093" lon="11.753181740641594">
        <ele>2191.46</ele>
        <time>2016-03-18T11:24:10Z</time>
      </trkpt>
      <trkpt lat="46.409486504271626" lon="11.753174448385835">
        <ele>2191.46</ele>
        <time>2016-03-18T11:24:23Z</time>
      </trkpt>
      <trkpt lat="46.409486755728722" lon="11.753185512498021">
        <ele>2191.46</ele>
        <time>2016-03-18T11:24:29Z</time>
      </trkpt>
      <trkpt lat="46.409545512869954" lon="11.753260362893343">
        <ele>2191.9400000000001</ele>
        <time>2016-03-18T11:24:38Z</time>
      </trkpt>
      <trkpt lat="46.409611813724041" lon="11.753327418118715">
        <ele>2193.3899999999999</ele>
        <time>2016-03-18T11:24:48Z</time>
      </trkpt>
      <trkpt lat="46.409708289429545" lon="11.753376703709364">
        <ele>2192.9000000000001</ele>
        <time>2016-03-18T11:24:58Z</time>
      </trkpt>
      <trkpt lat="46.409824881702662" lon="11.753464043140411">
        <ele>2191.9400000000001</ele>
        <time>2016-03-18T11:25:10Z</time>
      </trkpt>
      <trkpt lat="46.409875759854913" lon="11.753497989848256">
        <ele>2191.46</ele>
        <time>2016-03-18T11:25:21Z</time>
      </trkpt>
      <trkpt lat="46.409959914162755" lon="11.753473011776805">
        <ele>2191.9400000000001</ele>
        <time>2016-03-18T11:25:34Z</time>
      </trkpt>
      <trkpt lat="46.410028394311666" lon="11.753466976806521">
        <ele>2192.4200000000001</ele>
        <time>2016-03-18T11:25:45Z</time>
      </trkpt>
      <trkpt lat="46.410094276070595" lon="11.753423810005188">
        <ele>2193.8699999999999</ele>
        <time>2016-03-18T11:26:00Z</time>
      </trkpt>
      <trkpt lat="46.410116488113999" lon="11.753360778093338">
        <ele>2193.8699999999999</ele>
        <time>2016-03-18T11:26:17Z</time>
      </trkpt>
      <trkpt lat="46.410165606066585" lon="11.753395143896341">
        <ele>2195.3099999999999</ele>
        <time>2016-03-18T11:26:30Z</time>
      </trkpt>
      <trkpt lat="46.410242887213826" lon="11.753438813611865">
        <ele>2196.75</ele>
        <time>2016-03-18T11:26:41Z</time>
      </trkpt>
      <trkpt lat="46.410302566364408" lon="11.753504695370793">
        <ele>2198.1900000000001</ele>
        <time>2016-03-18T11:26:52Z</time>
      </trkpt>
      <trkpt lat="46.410358557477593" lon="11.753660263493657">
        <ele>2198.6700000000001</ele>
        <time>2016-03-18T11:27:05Z</time>
      </trkpt>
      <trkpt lat="46.410433491691947" lon="11.753793284296989">
        <ele>2198.1900000000001</ele>
        <time>2016-03-18T11:27:18Z</time>
      </trkpt>
      <trkpt lat="46.410474060103297" lon="11.753863943740726">
        <ele>2198.6700000000001</ele>
        <time>2016-03-18T11:27:28Z</time>
      </trkpt>
      <trkpt lat="46.410530135035515" lon="11.753944912925363">
        <ele>2199.1500000000001</ele>
        <time>2016-03-18T11:27:40Z</time>
      </trkpt>
      <trkpt lat="46.410564668476582" lon="11.753987325355411">
        <ele>2199.1500000000001</ele>
        <time>2016-03-18T11:27:48Z</time>
      </trkpt>
      <trkpt lat="46.410612696781754" lon="11.754067372530699">
        <ele>2199.6300000000001</ele>
        <time>2016-03-18T11:28:02Z</time>
      </trkpt>
      <trkpt lat="46.410677405074239" lon="11.754150353372097">
        <ele>2201.0799999999999</ele>
        <time>2016-03-18T11:28:14Z</time>
      </trkpt>
      <trkpt lat="46.410750411450863" lon="11.754228472709656">
        <ele>2200.1100000000001</ele>
        <time>2016-03-18T11:28:27Z</time>
      </trkpt>
      <trkpt lat="46.410832470282912" lon="11.754301311448216">
        <ele>2199.1500000000001</ele>
        <time>2016-03-18T11:28:41Z</time>
      </trkpt>
      <trkpt lat="46.41090078279376" lon="11.75437381491065">
        <ele>2198.1900000000001</ele>
        <time>2016-03-18T11:28:52Z</time>
      </trkpt>
      <trkpt lat="46.410943027585745" lon="11.754439612850547">
        <ele>2198.6700000000001</ele>
        <time>2016-03-18T11:29:03Z</time>
      </trkpt>
      <trkpt lat="46.410983260720968" lon="11.754529299214482">
        <ele>2198.6700000000001</ele>
        <time>2016-03-18T11:29:16Z</time>
      </trkpt>
      <trkpt lat="46.411007735878229" lon="11.754646645858884">
        <ele>2199.1500000000001</ele>
        <time>2016-03-18T11:29:29Z</time>
      </trkpt>
      <trkpt lat="46.411001365631819" lon="11.754710013046861">
        <ele>2200.5900000000001</ele>
        <time>2016-03-18T11:29:40Z</time>
      </trkpt>
      <trkpt lat="46.411009160801768" lon="11.754713114351034">
        <ele>2200.5900000000001</ele>
        <time>2016-03-18T11:29:56Z</time>
      </trkpt>
      <trkpt lat="46.410987703129649" lon="11.754823168739676">
        <ele>2201.0799999999999</ele>
        <time>2016-03-18T11:30:06Z</time>
      </trkpt>
      <trkpt lat="46.411039000377059" lon="11.754919225350022">
        <ele>2201.0799999999999</ele>
        <time>2016-03-18T11:30:17Z</time>
      </trkpt>
      <trkpt lat="46.411092057824135" lon="11.755015617236495">
        <ele>2201.0799999999999</ele>
        <time>2016-03-18T11:30:27Z</time>
      </trkpt>
      <trkpt lat="46.411123489961028" lon="11.755043780431151">
        <ele>2201.5599999999999</ele>
        <time>2016-03-18T11:30:32Z</time>
      </trkpt>
      <trkpt lat="46.41115483827889" lon="11.755066243931651">
        <ele>2201.5599999999999</ele>
        <time>2016-03-18T11:30:44Z</time>
      </trkpt>
      <trkpt lat="46.411143941804767" lon="11.755057191476226">
        <ele>2201.0799999999999</ele>
        <time>2016-03-18T11:31:01Z</time>
      </trkpt>
      <trkpt lat="46.411175709217787" lon="11.75511653535068">
        <ele>2201.0799999999999</ele>
        <time>2016-03-18T11:31:25Z</time>
      </trkpt>
      <trkpt lat="46.411173027008772" lon="11.755100945010781">
        <ele>2201.0799999999999</ele>
        <time>2016-03-18T11:31:45Z</time>
      </trkpt>
      <trkpt lat="46.41120370477438" lon="11.755148470401764">
        <ele>2201.5599999999999</ele>
        <time>2016-03-18T11:31:51Z</time>
      </trkpt>
      <trkpt lat="46.411262042820454" lon="11.755254669114947">
        <ele>2203</ele>
        <time>2016-03-18T11:32:04Z</time>
      </trkpt>
      <trkpt lat="46.411262378096581" lon="11.755361286923289">
        <ele>2204.9200000000001</ele>
        <time>2016-03-18T11:32:15Z</time>
      </trkpt>
      <trkpt lat="46.411264054477215" lon="11.755439909175038">
        <ele>2206.3600000000001</ele>
        <time>2016-03-18T11:32:23Z</time>
      </trkpt>
      <trkpt lat="46.411264557391405" lon="11.75554602406919">
        <ele>2207.3200000000002</ele>
        <time>2016-03-18T11:32:33Z</time>
      </trkpt>
      <trkpt lat="46.411270340904593" lon="11.755660939961672">
        <ele>2209.25</ele>
        <time>2016-03-18T11:32:46Z</time>
      </trkpt>
      <trkpt lat="46.411256343126297" lon="11.755742160603404">
        <ele>2210.6900000000001</ele>
        <time>2016-03-18T11:32:59Z</time>
      </trkpt>
      <trkpt lat="46.411240249872208" lon="11.75586218945682">
        <ele>2212.1300000000001</ele>
        <time>2016-03-18T11:33:13Z</time>
      </trkpt>
      <trkpt lat="46.411206386983395" lon="11.755946343764663">
        <ele>2213.5700000000002</ele>
        <time>2016-03-18T11:33:25Z</time>
      </trkpt>
      <trkpt lat="46.411176631227136" lon="11.756000826135278">
        <ele>2215.0100000000002</ele>
        <time>2016-03-18T11:33:36Z</time>
      </trkpt>
      <trkpt lat="46.411146707832813" lon="11.756057990714908">
        <ele>2216.46</ele>
        <time>2016-03-18T11:33:47Z</time>
      </trkpt>
      <trkpt lat="46.411115610972047" lon="11.756109371781349">
        <ele>2218.3800000000001</ele>
        <time>2016-03-18T11:34:00Z</time>
      </trkpt>
      <trkpt lat="46.411125669255853" lon="11.756139965727925">
        <ele>2218.8600000000001</ele>
        <time>2016-03-18T11:34:13Z</time>
      </trkpt>
      <trkpt lat="46.411114856600761" lon="11.756182294338942">
        <ele>2219.8200000000002</ele>
        <time>2016-03-18T11:34:23Z</time>
      </trkpt>
      <trkpt lat="46.411115527153015" lon="11.75623744726181">
        <ele>2221.7399999999998</ele>
        <time>2016-03-18T11:34:34Z</time>
      </trkpt>
      <trkpt lat="46.411081999540329" lon="11.756279524415731">
        <ele>2221.7399999999998</ele>
        <time>2016-03-18T11:34:45Z</time>
      </trkpt>
      <trkpt lat="46.411098847165704" lon="11.756354374811053">
        <ele>2222.71</ele>
        <time>2016-03-18T11:34:55Z</time>
      </trkpt>
      <trkpt lat="46.411144863814116" lon="11.756459148600698">
        <ele>2223.6700000000001</ele>
        <time>2016-03-18T11:35:07Z</time>
      </trkpt>
      <trkpt lat="46.411165231838822" lon="11.75657314248383">
        <ele>2224.1500000000001</ele>
        <time>2016-03-18T11:35:20Z</time>
      </trkpt>
      <trkpt lat="46.411180989816785" lon="11.756648998707533">
        <ele>2223.6700000000001</ele>
        <time>2016-03-18T11:35:26Z</time>
      </trkpt>
      <trkpt lat="46.411183839663863" lon="11.756771961227059">
        <ele>2222.71</ele>
        <time>2016-03-18T11:35:37Z</time>
      </trkpt>
      <trkpt lat="46.411193897947669" lon="11.756853349506855">
        <ele>2223.6700000000001</ele>
        <time>2016-03-18T11:35:49Z</time>
      </trkpt>
      <trkpt lat="46.411210829392076" lon="11.756938509643078">
        <ele>2224.6300000000001</ele>
        <time>2016-03-18T11:36:00Z</time>
      </trkpt>
      <trkpt lat="46.411204542964697" lon="11.757027022540569">
        <ele>2226.0700000000002</ele>
        <time>2016-03-18T11:36:10Z</time>
      </trkpt>
      <trkpt lat="46.411133632063866" lon="11.757104974240065">
        <ele>2226.0700000000002</ele>
        <time>2016-03-18T11:36:21Z</time>
      </trkpt>
      <trkpt lat="46.411119215190411" lon="11.757121151313186">
        <ele>2226.0700000000002</ele>
        <time>2016-03-18T11:36:32Z</time>
      </trkpt>
      <trkpt lat="46.411110917106271" lon="11.757148643955588">
        <ele>2226.0700000000002</ele>
        <time>2016-03-18T11:36:36Z</time>
      </trkpt>
      <trkpt lat="46.411080323159695" lon="11.757217207923532">
        <ele>2227.0300000000002</ele>
        <time>2016-03-18T11:36:47Z</time>
      </trkpt>
      <trkpt lat="46.411087866872549" lon="11.757240425795317">
        <ele>2227.0300000000002</ele>
        <time>2016-03-18T11:36:49Z</time>
      </trkpt>
      <trkpt lat="46.411109073087573" lon="11.757336733862758">
        <ele>2227.0300000000002</ele>
        <time>2016-03-18T11:37:00Z</time>
      </trkpt>
      <trkpt lat="46.411116700619459" lon="11.757384845986962">
        <ele>2227.5100000000002</ele>
        <time>2016-03-18T11:37:10Z</time>
      </trkpt>
      <trkpt lat="46.411074036732316" lon="11.757452990859747">
        <ele>2227.9899999999998</ele>
        <time>2016-03-18T11:37:20Z</time>
      </trkpt>
      <trkpt lat="46.411038162186742" lon="11.757554914802313">
        <ele>2227.0300000000002</ele>
        <time>2016-03-18T11:37:30Z</time>
      </trkpt>
      <trkpt lat="46.411007903516293" lon="11.757628004997969">
        <ele>2227.0300000000002</ele>
        <time>2016-03-18T11:37:39Z</time>
      </trkpt>
      <trkpt lat="46.411013854667544" lon="11.757736299186945">
        <ele>2227.0300000000002</ele>
        <time>2016-03-18T11:37:49Z</time>
      </trkpt>
      <trkpt lat="46.411012765020132" lon="11.757804360240698">
        <ele>2228.4699999999998</ele>
        <time>2016-03-18T11:38:01Z</time>
      </trkpt>
      <trkpt lat="46.410962473601103" lon="11.757875774055719">
        <ele>2229.4299999999998</ele>
        <time>2016-03-18T11:38:11Z</time>
      </trkpt>
      <trkpt lat="46.410894496366382" lon="11.757949450984597">
        <ele>2230.4000000000001</ele>
        <time>2016-03-18T11:38:22Z</time>
      </trkpt>
      <trkpt lat="46.410905979573727" lon="11.758026396855712">
        <ele>2232.8000000000002</ele>
        <time>2016-03-18T11:38:34Z</time>
      </trkpt>
      <trkpt lat="46.410920061171055" lon="11.758090937510133">
        <ele>2231.8400000000001</ele>
        <time>2016-03-18T11:38:41Z</time>
      </trkpt>
      <trkpt lat="46.410949816927314" lon="11.758201159536839">
        <ele>2231.3600000000001</ele>
        <time>2016-03-18T11:38:51Z</time>
      </trkpt>
      <trkpt lat="46.410986026749015" lon="11.758327893912792">
        <ele>2231.8400000000001</ele>
        <time>2016-03-18T11:39:04Z</time>
      </trkpt>
      <trkpt lat="46.410972867161036" lon="11.758409114554524">
        <ele>2231.8400000000001</ele>
        <time>2016-03-18T11:39:15Z</time>
      </trkpt>
      <trkpt lat="46.4109867811203" lon="11.758516151458025">
        <ele>2232.8000000000002</ele>
        <time>2016-03-18T11:39:26Z</time>
      </trkpt>
      <trkpt lat="46.411000695079565" lon="11.758611788973212">
        <ele>2232.8000000000002</ele>
        <time>2016-03-18T11:39:36Z</time>
      </trkpt>
      <trkpt lat="46.411002455279231" lon="11.758700050413609">
        <ele>2233.2800000000002</ele>
        <time>2016-03-18T11:39:46Z</time>
      </trkpt>
      <trkpt lat="46.410992732271552" lon="11.758764507248998">
        <ele>2233.7600000000002</ele>
        <time>2016-03-18T11:39:54Z</time>
      </trkpt>
      <trkpt lat="46.41099558211863" lon="11.758876740932465">
        <ele>2234.2399999999998</ele>
        <time>2016-03-18T11:40:07Z</time>
      </trkpt>
      <trkpt lat="46.411013938486576" lon="11.758957374840975">
        <ele>2234.7199999999998</ele>
        <time>2016-03-18T11:40:19Z</time>
      </trkpt>
      <trkpt lat="46.411032797768712" lon="11.75905586220324">
        <ele>2235.1999999999998</ele>
        <time>2016-03-18T11:40:30Z</time>
      </trkpt>
      <trkpt lat="46.41105274669826" lon="11.759105734527111">
        <ele>2235.6799999999998</ele>
        <time>2016-03-18T11:40:41Z</time>
      </trkpt>
      <trkpt lat="46.411065990105271" lon="11.759099112823606">
        <ele>2236.6399999999999</ele>
        <time>2016-03-18T11:40:54Z</time>
      </trkpt>
      <trkpt lat="46.411103457212448" lon="11.759177399799228">
        <ele>2238.0900000000001</ele>
        <time>2016-03-18T11:41:04Z</time>
      </trkpt>
      <trkpt lat="46.411155508831143" lon="11.759244706481695">
        <ele>2238.5700000000002</ele>
        <time>2016-03-18T11:41:15Z</time>
      </trkpt>
      <trkpt lat="46.411202112212777" lon="11.759300697594881">
        <ele>2238.5700000000002</ele>
        <time>2016-03-18T11:41:26Z</time>
      </trkpt>
      <trkpt lat="46.411229269579053" lon="11.75935928709805">
        <ele>2239.5300000000002</ele>
        <time>2016-03-18T11:41:38Z</time>
      </trkpt>
      <trkpt lat="46.411238992586732" lon="11.759437406435609">
        <ele>2240.9699999999998</ele>
        <time>2016-03-18T11:41:49Z</time>
      </trkpt>
      <trkpt lat="46.411259779706597" lon="11.759491972625256">
        <ele>2242.4099999999999</ele>
        <time>2016-03-18T11:42:00Z</time>
      </trkpt>
      <trkpt lat="46.411262713372707" lon="11.759583503007889">
        <ele>2242.8899999999999</ele>
        <time>2016-03-18T11:42:10Z</time>
      </trkpt>
      <trkpt lat="46.411277214065194" lon="11.759560704231262">
        <ele>2242.8899999999999</ele>
        <time>2016-03-18T11:42:34Z</time>
      </trkpt>
      <trkpt lat="46.411284673959017" lon="11.759558189660311">
        <ele>2242.8899999999999</ele>
        <time>2016-03-18T11:42:47Z</time>
      </trkpt>
      <trkpt lat="46.411298839375377" lon="11.759635638445616">
        <ele>2243.3699999999999</ele>
        <time>2016-03-18T11:42:56Z</time>
      </trkpt>
      <trkpt lat="46.411299342289567" lon="11.759662795811892">
        <ele>2244.3299999999999</ele>
        <time>2016-03-18T11:43:06Z</time>
      </trkpt>
      <trkpt lat="46.411314764991403" lon="11.759696742519736">
        <ele>2244.8200000000002</ele>
        <time>2016-03-18T11:43:20Z</time>
      </trkpt>
      <trkpt lat="46.41133077442646" lon="11.759781064465642">
        <ele>2246.2600000000002</ele>
        <time>2016-03-18T11:43:33Z</time>
      </trkpt>
      <trkpt lat="46.411341419443488" lon="11.75984350964427">
        <ele>2247.6999999999998</ele>
        <time>2016-03-18T11:43:43Z</time>
      </trkpt>
      <trkpt lat="46.41134493984282" lon="11.759947445243597">
        <ele>2248.6599999999999</ele>
        <time>2016-03-18T11:43:53Z</time>
      </trkpt>
      <trkpt lat="46.41134100034833" lon="11.760000754147768">
        <ele>2249.1399999999999</ele>
        <time>2016-03-18T11:44:02Z</time>
      </trkpt>
      <trkpt lat="46.411339491605759" lon="11.759999748319387">
        <ele>2249.1399999999999</ele>
        <time>2016-03-18T11:44:25Z</time>
      </trkpt>
      <trkpt lat="46.411327924579382" lon="11.760092535987496">
        <ele>2250.5799999999999</ele>
        <time>2016-03-18T11:44:35Z</time>
      </trkpt>
      <trkpt lat="46.411280399188399" lon="11.760158082470298">
        <ele>2252.0300000000002</ele>
        <time>2016-03-18T11:44:45Z</time>
      </trkpt>
      <trkpt lat="46.411244357004762" lon="11.76020217128098">
        <ele>2252.9899999999998</ele>
        <time>2016-03-18T11:44:58Z</time>
      </trkpt>
      <trkpt lat="46.411218121647835" lon="11.760214576497674">
        <ele>2254.4299999999998</ele>
        <time>2016-03-18T11:45:07Z</time>
      </trkpt>
      <trkpt lat="46.411199597641826" lon="11.760244416072965">
        <ele>2255.3899999999999</ele>
        <time>2016-03-18T11:45:18Z</time>
      </trkpt>
      <trkpt lat="46.411183420568705" lon="11.76027593202889">
        <ele>2256.3499999999999</ele>
        <time>2016-03-18T11:45:27Z</time>
      </trkpt>
      <trkpt lat="46.411169674247503" lon="11.760308872908354">
        <ele>2257.3099999999999</ele>
        <time>2016-03-18T11:45:36Z</time>
      </trkpt>
      <trkpt lat="46.411153832450509" lon="11.760344412177801">
        <ele>2258.27</ele>
        <time>2016-03-18T11:45:47Z</time>
      </trkpt>
      <trkpt lat="46.411145199090242" lon="11.760382885113358">
        <ele>2259.2399999999998</ele>
        <time>2016-03-18T11:45:58Z</time>
      </trkpt>
      <trkpt lat="46.411149641498923" lon="11.760432254523039">
        <ele>2260.1999999999998</ele>
        <time>2016-03-18T11:46:08Z</time>
      </trkpt>
      <trkpt lat="46.411156514659524" lon="11.760448599234223">
        <ele>2260.6799999999998</ele>
        <time>2016-03-18T11:46:21Z</time>
      </trkpt>
      <trkpt lat="46.411174200475216" lon="11.760497381910682">
        <ele>2262.5999999999999</ele>
        <time>2016-03-18T11:46:32Z</time>
      </trkpt>
      <trkpt lat="46.411170596256852" lon="11.760538201779127">
        <ele>2263.0799999999999</ele>
        <time>2016-03-18T11:46:44Z</time>
      </trkpt>
      <trkpt lat="46.411179816350341" lon="11.760606933385134">
        <ele>2264.52</ele>
        <time>2016-03-18T11:46:56Z</time>
      </trkpt>
      <trkpt lat="46.411198424175382" lon="11.760638952255249">
        <ele>2265.48</ele>
        <time>2016-03-18T11:47:06Z</time>
      </trkpt>
      <trkpt lat="46.411219798028469" lon="11.760682286694646">
        <ele>2266.4499999999998</ele>
        <time>2016-03-18T11:47:17Z</time>
      </trkpt>
      <trkpt lat="46.411203285679221" lon="11.760680442675948">
        <ele>2266.4499999999998</ele>
        <time>2016-03-18T11:47:34Z</time>
      </trkpt>
      <trkpt lat="46.411224575713277" lon="11.760717993602157">
        <ele>2266.9299999999998</ele>
        <time>2016-03-18T11:47:45Z</time>
      </trkpt>
      <trkpt lat="46.411228599026799" lon="11.760802567005157">
        <ele>2267.8899999999999</ele>
        <time>2016-03-18T11:47:56Z</time>
      </trkpt>
      <trkpt lat="46.411235807463527" lon="11.760842297226191">
        <ele>2268.3699999999999</ele>
        <time>2016-03-18T11:48:06Z</time>
      </trkpt>
      <trkpt lat="46.411221558228135" lon="11.760845063254237">
        <ele>2268.8499999999999</ele>
        <time>2016-03-18T11:48:19Z</time>
      </trkpt>
      <trkpt lat="46.411224659532309" lon="11.760834418237209">
        <ele>2268.3699999999999</ele>
        <time>2016-03-18T11:48:28Z</time>
      </trkpt>
      <trkpt lat="46.411224575713277" lon="11.760837519541383">
        <ele>2268.3699999999999</ele>
        <time>2016-03-18T11:48:45Z</time>
      </trkpt>
      <trkpt lat="46.411212338134646" lon="11.760840453207493">
        <ele>2267.8899999999999</ele>
        <time>2016-03-18T11:48:59Z</time>
      </trkpt>
      <trkpt lat="46.411204542964697" lon="11.760847410187125">
        <ele>2268.3699999999999</ele>
        <time>2016-03-18T11:49:13Z</time>
      </trkpt>
      <trkpt lat="46.411214601248503" lon="11.760834585875273">
        <ele>2268.3699999999999</ele>
        <time>2016-03-18T11:49:31Z</time>
      </trkpt>
      <trkpt lat="46.411209488287568" lon="11.760837770998478">
        <ele>2268.3699999999999</ele>
        <time>2016-03-18T11:49:47Z</time>
      </trkpt>
      <trkpt lat="46.411208482459188" lon="11.760818408802152">
        <ele>2267.4099999999999</ele>
        <time>2016-03-18T11:49:58Z</time>
      </trkpt>
      <trkpt lat="46.411212589591742" lon="11.760832322761416">
        <ele>2266.9299999999998</ele>
        <time>2016-03-18T11:50:16Z</time>
      </trkpt>
      <trkpt lat="46.411205213516951" lon="11.760838273912668">
        <ele>2266.9299999999998</ele>
        <time>2016-03-18T11:50:38Z</time>
      </trkpt>
      <trkpt lat="46.411200352013111" lon="11.76082662306726">
        <ele>2266.9299999999998</ele>
        <time>2016-03-18T11:51:02Z</time>
      </trkpt>
      <trkpt lat="46.41119247302413" lon="11.760830478742719">
        <ele>2266.9299999999998</ele>
        <time>2016-03-18T11:51:30Z</time>
      </trkpt>
      <trkpt lat="46.41118660569191" lon="11.760822096839547">
        <ele>2266.9299999999998</ele>
        <time>2016-03-18T11:51:58Z</time>
      </trkpt>
      <trkpt lat="46.411183001473546" lon="11.760805584490299">
        <ele>2267.4099999999999</ele>
        <time>2016-03-18T11:52:22Z</time>
      </trkpt>
      <trkpt lat="46.411188533529639" lon="11.76081882789731">
        <ele>2266.9299999999998</ele>
        <time>2016-03-18T11:52:51Z</time>
      </trkpt>
      <trkpt lat="46.41120127402246" lon="11.7608158942312">
        <ele>2267.4099999999999</ele>
        <time>2016-03-18T11:53:29Z</time>
      </trkpt>
      <trkpt lat="46.411217199638486" lon="11.760811787098646">
        <ele>2267.4099999999999</ele>
        <time>2016-03-18T11:54:06Z</time>
      </trkpt>
      <trkpt lat="46.411213260143995" lon="11.760801561176777">
        <ele>2267.4099999999999</ele>
        <time>2016-03-18T11:54:34Z</time>
      </trkpt>
      <trkpt lat="46.411214433610439" lon="11.760825701057911">
        <ele>2267.8899999999999</ele>
        <time>2016-03-18T11:54:53Z</time>
      </trkpt>
      <trkpt lat="46.411188449710608" lon="11.760821174830198">
        <ele>2267.4099999999999</ele>
        <time>2016-03-18T11:55:16Z</time>
      </trkpt>
      <trkpt lat="46.411193059757352" lon="11.760825281962752">
        <ele>2267.4099999999999</ele>
        <time>2016-03-18T11:55:40Z</time>
      </trkpt>
      <trkpt lat="46.411182414740324" lon="11.760815558955073">
        <ele>2267.4099999999999</ele>
        <time>2016-03-18T11:56:01Z</time>
      </trkpt>
      <trkpt lat="46.411196999251842" lon="11.760823102667928">
        <ele>2267.4099999999999</ele>
        <time>2016-03-18T11:56:17Z</time>
      </trkpt>
      <trkpt lat="46.411201944574714" lon="11.760823773220181">
        <ele>2267.4099999999999</ele>
        <time>2016-03-18T11:56:36Z</time>
      </trkpt>
      <trkpt lat="46.411206219345331" lon="11.760827377438545">
        <ele>2267.4099999999999</ele>
        <time>2016-03-18T11:56:57Z</time>
      </trkpt>
      <trkpt lat="46.411205716431141" lon="11.760834418237209">
        <ele>2267.4099999999999</ele>
        <time>2016-03-18T11:57:22Z</time>
      </trkpt>
      <trkpt lat="46.411201022565365" lon="11.760831233114004">
        <ele>2266.9299999999998</ele>
        <time>2016-03-18T11:57:42Z</time>
      </trkpt>
      <trkpt lat="46.411181576550007" lon="11.760823102667928">
        <ele>2267.4099999999999</ele>
        <time>2016-03-18T11:58:06Z</time>
      </trkpt>
      <trkpt lat="46.411181408911943" lon="11.760815223678946">
        <ele>2267.4099999999999</ele>
        <time>2016-03-18T11:58:39Z</time>
      </trkpt>
      <trkpt lat="46.411167243495584" lon="11.760817738249898">
        <ele>2266.9299999999998</ele>
        <time>2016-03-18T11:59:05Z</time>
      </trkpt>
      <trkpt lat="46.411163974553347" lon="11.760822432115674">
        <ele>2266.9299999999998</ele>
        <time>2016-03-18T11:59:38Z</time>
      </trkpt>
      <trkpt lat="46.4111646451056" lon="11.760826958343387">
        <ele>2266.9299999999998</ele>
        <time>2016-03-18T12:00:02Z</time>
      </trkpt>
      <trkpt lat="46.41118073835969" lon="11.76081832498312">
        <ele>2266.9299999999998</ele>
        <time>2016-03-18T12:00:34Z</time>
      </trkpt>
      <trkpt lat="46.411180989816785" lon="11.760824946686625">
        <ele>2266.4499999999998</ele>
        <time>2016-03-18T12:00:59Z</time>
      </trkpt>
      <trkpt lat="46.411181325092912" lon="11.760828970000148">
        <ele>2266.4499999999998</ele>
        <time>2016-03-18T12:01:20Z</time>
      </trkpt>
      <trkpt lat="46.411185935139656" lon="11.760837938636541">
        <ele>2266.4499999999998</ele>
        <time>2016-03-18T12:01:34Z</time>
      </trkpt>
      <trkpt lat="46.411191551014781" lon="11.760835172608495">
        <ele>2266.4499999999998</ele>
        <time>2016-03-18T12:01:53Z</time>
      </trkpt>
      <trkpt lat="46.411198088899255" lon="11.760832238942385">
        <ele>2266.9299999999998</ele>
        <time>2016-03-18T12:02:08Z</time>
      </trkpt>
      <trkpt lat="46.411188952624798" lon="11.760827796533704">
        <ele>2266.9299999999998</ele>
        <time>2016-03-18T12:02:25Z</time>
      </trkpt>
      <trkpt lat="46.411203620955348" lon="11.760833244770765">
        <ele>2266.4499999999998</ele>
        <time>2016-03-18T12:02:41Z</time>
      </trkpt>
      <trkpt lat="46.411190209910274" lon="11.76082662306726">
        <ele>2266.9299999999998</ele>
        <time>2016-03-18T12:02:51Z</time>
      </trkpt>
      <trkpt lat="46.41117344610393" lon="11.760810613632202">
        <ele>2266.4499999999998</ele>
        <time>2016-03-18T12:03:12Z</time>
      </trkpt>
      <trkpt lat="46.411171685904264" lon="11.760812709107995">
        <ele>2266.4499999999998</ele>
        <time>2016-03-18T12:03:41Z</time>
      </trkpt>
      <trkpt lat="46.411170093342662" lon="11.760808015242219">
        <ele>2266.4499999999998</ele>
        <time>2016-03-18T12:04:09Z</time>
      </trkpt>
      <trkpt lat="46.411174200475216" lon="11.760808350518346">
        <ele>2266.4499999999998</ele>
        <time>2016-03-18T12:04:41Z</time>
      </trkpt>
      <trkpt lat="46.41116900369525" lon="11.760819163173437">
        <ele>2266.4499999999998</ele>
        <time>2016-03-18T12:04:50Z</time>
      </trkpt>
      <trkpt lat="46.411182582378387" lon="11.760824276134372">
        <ele>2266.9299999999998</ele>
        <time>2016-03-18T12:05:07Z</time>
      </trkpt>
      <trkpt lat="46.411177134141326" lon="11.760808601975441">
        <ele>2266.4499999999998</ele>
        <time>2016-03-18T12:05:31Z</time>
      </trkpt>
      <trkpt lat="46.411176463589072" lon="11.760803991928697">
        <ele>2266.9299999999998</ele>
        <time>2016-03-18T12:06:00Z</time>
      </trkpt>
      <trkpt lat="46.411187276244164" lon="11.760826874524355">
        <ele>2266.4499999999998</ele>
        <time>2016-03-18T12:06:33Z</time>
      </trkpt>
      <trkpt lat="46.411180989816785" lon="11.760820085182786">
        <ele>2266.9299999999998</ele>
        <time>2016-03-18T12:06:59Z</time>
      </trkpt>
      <trkpt lat="46.411182247102261" lon="11.760816564783454">
        <ele>2266.4499999999998</ele>
        <time>2016-03-18T12:07:30Z</time>
      </trkpt>
      <trkpt lat="46.411185516044497" lon="11.7608090210706">
        <ele>2266.9299999999998</ele>
        <time>2016-03-18T12:07:56Z</time>
      </trkpt>
      <trkpt lat="46.411196663975716" lon="11.760814720764756">
        <ele>2266.9299999999998</ele>
        <time>2016-03-18T12:08:15Z</time>
      </trkpt>
      <trkpt lat="46.411207560449839" lon="11.760833160951734">
        <ele>2267.8899999999999</ele>
        <time>2016-03-18T12:08:29Z</time>
      </trkpt>
      <trkpt lat="46.411191634833813" lon="11.760826036334038">
        <ele>2267.4099999999999</ele>
        <time>2016-03-18T12:08:45Z</time>
      </trkpt>
      <trkpt lat="46.411219881847501" lon="11.760840956121683">
        <ele>2266.9299999999998</ele>
        <time>2016-03-18T12:09:06Z</time>
      </trkpt>
      <trkpt lat="46.411225749179721" lon="11.760843386873603">
        <ele>2266.9299999999998</ele>
        <time>2016-03-18T12:09:30Z</time>
      </trkpt>
      <trkpt lat="46.411211248487234" lon="11.760837603360415">
        <ele>2266.9299999999998</ele>
        <time>2016-03-18T12:10:01Z</time>
      </trkpt>
      <trkpt lat="46.411210410296917" lon="11.760834585875273">
        <ele>2266.9299999999998</ele>
        <time>2016-03-18T12:10:25Z</time>
      </trkpt>
      <trkpt lat="46.411202196031809" lon="11.760835507884622">
        <ele>2266.9299999999998</ele>
        <time>2016-03-18T12:11:01Z</time>
      </trkpt>
      <trkpt lat="46.411212086677551" lon="11.760839615017176">
        <ele>2266.4499999999998</ele>
        <time>2016-03-18T12:11:30Z</time>
      </trkpt>
      <trkpt lat="46.411205800250173" lon="11.760839279741049">
        <ele>2266.9299999999998</ele>
        <time>2016-03-18T12:12:04Z</time>
      </trkpt>
      <trkpt lat="46.411209404468536" lon="11.760840453207493">
        <ele>2266.4499999999998</ele>
        <time>2016-03-18T12:12:31Z</time>
      </trkpt>
      <trkpt lat="46.411205464974046" lon="11.760844979435205">
        <ele>2266.4499999999998</ele>
        <time>2016-03-18T12:13:02Z</time>
      </trkpt>
      <trkpt lat="46.411200352013111" lon="11.760828802362084">
        <ele>2265.96</ele>
        <time>2016-03-18T12:13:26Z</time>
      </trkpt>
      <trkpt lat="46.411197753623128" lon="11.760827209800482">
        <ele>2265.96</ele>
        <time>2016-03-18T12:13:56Z</time>
      </trkpt>
      <trkpt lat="46.41120714135468" lon="11.76083349622786">
        <ele>2265.96</ele>
        <time>2016-03-18T12:14:26Z</time>
      </trkpt>
      <trkpt lat="46.411206051707268" lon="11.760825701057911">
        <ele>2265.96</ele>
        <time>2016-03-18T12:14:51Z</time>
      </trkpt>
      <trkpt lat="46.411191634833813" lon="11.760832825675607">
        <ele>2265.96</ele>
        <time>2016-03-18T12:15:16Z</time>
      </trkpt>
      <trkpt lat="46.411199513822794" lon="11.760838944464922">
        <ele>2265.96</ele>
        <time>2016-03-18T12:15:46Z</time>
      </trkpt>
      <trkpt lat="46.411204626783729" lon="11.760834585875273">
        <ele>2265.96</ele>
        <time>2016-03-18T12:16:10Z</time>
      </trkpt>
      <trkpt lat="46.411208063364029" lon="11.760838776826859">
        <ele>2265.96</ele>
        <time>2016-03-18T12:16:32Z</time>
      </trkpt>
      <trkpt lat="46.41121543943882" lon="11.760835172608495">
        <ele>2265.96</ele>
        <time>2016-03-18T12:16:47Z</time>
      </trkpt>
      <trkpt lat="46.411202866584063" lon="11.760830394923687">
        <ele>2265.96</ele>
        <time>2016-03-18T12:17:24Z</time>
      </trkpt>
      <trkpt lat="46.411216026172042" lon="11.760842213407159">
        <ele>2265.48</ele>
        <time>2016-03-18T12:17:48Z</time>
      </trkpt>
      <trkpt lat="46.41120663844049" lon="11.760841123759747">
        <ele>2265.96</ele>
        <time>2016-03-18T12:18:12Z</time>
      </trkpt>
      <trkpt lat="46.411206973716617" lon="11.760828886181116">
        <ele>2265.48</ele>
        <time>2016-03-18T12:18:34Z</time>
      </trkpt>
      <trkpt lat="46.411223486065865" lon="11.760834250599146">
        <ele>2265.48</ele>
        <time>2016-03-18T12:19:07Z</time>
      </trkpt>
      <trkpt lat="46.411205129697919" lon="11.760847494006157">
        <ele>2265.48</ele>
        <time>2016-03-18T12:19:26Z</time>
      </trkpt>
      <trkpt lat="46.411214685067534" lon="11.760841794312">
        <ele>2265.48</ele>
        <time>2016-03-18T12:19:43Z</time>
      </trkpt>
      <trkpt lat="46.411202363669872" lon="11.760834585875273">
        <ele>2265.96</ele>
        <time>2016-03-18T12:20:12Z</time>
      </trkpt>
      <trkpt lat="46.4111905451864" lon="11.760808518156409">
        <ele>2266.9299999999998</ele>
        <time>2016-03-18T12:20:21Z</time>
      </trkpt>
      <trkpt lat="46.411191131919622" lon="11.760818408802152">
        <ele>2266.9299999999998</ele>
        <time>2016-03-18T12:20:32Z</time>
      </trkpt>
      <trkpt lat="46.411195239052176" lon="11.760817151516676">
        <ele>2267.4099999999999</ele>
        <time>2016-03-18T12:20:45Z</time>
      </trkpt>
      <trkpt lat="46.411193059757352" lon="11.760825449600816">
        <ele>2267.4099999999999</ele>
        <time>2016-03-18T12:21:03Z</time>
      </trkpt>
      <trkpt lat="46.411187779158354" lon="11.760815810412169">
        <ele>2267.4099999999999</ele>
        <time>2016-03-18T12:21:17Z</time>
      </trkpt>
      <trkpt lat="46.411193311214447" lon="11.760813966393471">
        <ele>2266.9299999999998</ele>
        <time>2016-03-18T12:21:37Z</time>
      </trkpt>
      <trkpt lat="46.411190461367369" lon="11.76081539131701">
        <ele>2266.9299999999998</ele>
        <time>2016-03-18T12:21:49Z</time>
      </trkpt>
      <trkpt lat="46.411209153011441" lon="11.760862749069929">
        <ele>2266.9299999999998</ele>
        <time>2016-03-18T12:22:01Z</time>
      </trkpt>
      <trkpt lat="46.411217702552676" lon="11.760869957506657">
        <ele>2266.4499999999998</ele>
        <time>2016-03-18T12:22:10Z</time>
      </trkpt>
      <trkpt lat="46.411213846877217" lon="11.760870460420847">
        <ele>2266.4499999999998</ele>
        <time>2016-03-18T12:22:18Z</time>
      </trkpt>
      <trkpt lat="46.411208147183061" lon="11.760905161499977">
        <ele>2266.4499999999998</ele>
        <time>2016-03-18T12:22:27Z</time>
      </trkpt>
      <trkpt lat="46.411211332306266" lon="11.760977832600474">
        <ele>2266.4499999999998</ele>
        <time>2016-03-18T12:22:36Z</time>
      </trkpt>
      <trkpt lat="46.411237819120288" lon="11.761107668280602">
        <ele>2264.04</ele>
        <time>2016-03-18T12:22:47Z</time>
      </trkpt>
      <trkpt lat="46.41124184243381" lon="11.761161899194121">
        <ele>2262.5999999999999</ele>
        <time>2016-03-18T12:22:52Z</time>
      </trkpt>
      <trkpt lat="46.41124083660543" lon="11.761247059330344">
        <ele>2261.1599999999999</ele>
        <time>2016-03-18T12:23:00Z</time>
      </trkpt>
      <trkpt lat="46.411246117204428" lon="11.761274049058557">
        <ele>2260.1999999999998</ele>
        <time>2016-03-18T12:23:02Z</time>
      </trkpt>
      <trkpt lat="46.41125257126987" lon="11.761374045163393">
        <ele>2258.27</ele>
        <time>2016-03-18T12:23:13Z</time>
      </trkpt>
      <trkpt lat="46.411265814676881" lon="11.761428443714976">
        <ele>2256.8299999999999</ele>
        <time>2016-03-18T12:23:19Z</time>
      </trkpt>
      <trkpt lat="46.411263216286898" lon="11.761534223333001">
        <ele>2255.3899999999999</ele>
        <time>2016-03-18T12:23:29Z</time>
      </trkpt>
      <trkpt lat="46.411278387531638" lon="11.761649558320642">
        <ele>2252.9899999999998</ele>
        <time>2016-03-18T12:23:41Z</time>
      </trkpt>
      <trkpt lat="46.411289367824793" lon="11.761750057339668">
        <ele>2251.54</ele>
        <time>2016-03-18T12:23:50Z</time>
      </trkpt>
      <trkpt lat="46.411284925416112" lon="11.761742597445846">
        <ele>2252.0300000000002</ele>
        <time>2016-03-18T12:24:00Z</time>
      </trkpt>
      <trkpt lat="46.411292133852839" lon="11.761803114786744">
        <ele>2251.0599999999999</ele>
        <time>2016-03-18T12:24:13Z</time>
      </trkpt>
      <trkpt lat="46.411320129409432" lon="11.761939572170377">
        <ele>2248.6599999999999</ele>
        <time>2016-03-18T12:24:25Z</time>
      </trkpt>
      <trkpt lat="46.411320883780718" lon="11.761954911053181">
        <ele>2248.6599999999999</ele>
        <time>2016-03-18T12:24:26Z</time>
      </trkpt>
      <trkpt lat="46.411316776648164" lon="11.762004280462861">
        <ele>2247.6999999999998</ele>
        <time>2016-03-18T12:24:30Z</time>
      </trkpt>
      <trkpt lat="46.411342844367027" lon="11.762108467519283">
        <ele>2245.7800000000002</ele>
        <time>2016-03-18T12:24:41Z</time>
      </trkpt>
      <trkpt lat="46.411368912085891" lon="11.762226233258843">
        <ele>2243.8499999999999</ele>
        <time>2016-03-18T12:24:51Z</time>
      </trkpt>
      <trkpt lat="46.411383580416441" lon="11.762248780578375">
        <ele>2242.8899999999999</ele>
        <time>2016-03-18T12:24:55Z</time>
      </trkpt>
      <trkpt lat="46.411417694762349" lon="11.762375263497233">
        <ele>2240.4899999999998</ele>
        <time>2016-03-18T12:25:05Z</time>
      </trkpt>
      <trkpt lat="46.411414677277207" lon="11.762460255995393">
        <ele>2239.0500000000002</ele>
        <time>2016-03-18T12:25:15Z</time>
      </trkpt>
      <trkpt lat="46.411356590688229" lon="11.762478109449148">
        <ele>2239.0500000000002</ele>
        <time>2016-03-18T12:25:32Z</time>
      </trkpt>
      <trkpt lat="46.411372181028128" lon="11.76254365593195">
        <ele>2238.0900000000001</ele>
        <time>2016-03-18T12:25:40Z</time>
      </trkpt>
      <trkpt lat="46.411448288708925" lon="11.762610543519258">
        <ele>2234.7199999999998</ele>
        <time>2016-03-18T12:25:52Z</time>
      </trkpt>
      <trkpt lat="46.411498161032796" lon="11.76263895817101">
        <ele>2231.8400000000001</ele>
        <time>2016-03-18T12:26:03Z</time>
      </trkpt>
      <trkpt lat="46.411542417481542" lon="11.762701151892543">
        <ele>2228.4699999999998</ele>
        <time>2016-03-18T12:26:12Z</time>
      </trkpt>
      <trkpt lat="46.411609640344977" lon="11.762760663405061">
        <ele>2225.5900000000001</ele>
        <time>2016-03-18T12:26:22Z</time>
      </trkpt>
      <trkpt lat="46.411644844338298" lon="11.762850433588028">
        <ele>2222.2199999999998</ele>
        <time>2016-03-18T12:26:32Z</time>
      </trkpt>
      <trkpt lat="46.411693124100566" lon="11.76287985406816">
        <ele>2219.3400000000001</ele>
        <time>2016-03-18T12:26:42Z</time>
      </trkpt>
      <trkpt lat="46.41175095923245" lon="11.762925703078508">
        <ele>2215.98</ele>
        <time>2016-03-18T12:26:50Z</time>
      </trkpt>
      <trkpt lat="46.411795634776354" lon="11.762967864051461">
        <ele>2213.0900000000001</ele>
        <time>2016-03-18T12:26:58Z</time>
      </trkpt>
      <trkpt lat="46.411794796586037" lon="11.762955375015736">
        <ele>2212.6100000000001</ele>
        <time>2016-03-18T12:27:11Z</time>
      </trkpt>
      <trkpt lat="46.411832850426435" lon="11.762993261218071">
        <ele>2210.6900000000001</ele>
        <time>2016-03-18T12:27:18Z</time>
      </trkpt>
      <trkpt lat="46.411890266463161" lon="11.763087222352624">
        <ele>2207.3200000000002</ele>
        <time>2016-03-18T12:27:27Z</time>
      </trkpt>
      <trkpt lat="46.411936869844794" lon="11.763137262314558">
        <ele>2204.9200000000001</ele>
        <time>2016-03-18T12:27:35Z</time>
      </trkpt>
      <trkpt lat="46.411940809339285" lon="11.763170706108212">
        <ele>2203</ele>
        <time>2016-03-18T12:27:44Z</time>
      </trkpt>
      <trkpt lat="46.411961177363992" lon="11.763253938406706">
        <ele>2200.5900000000001</ele>
        <time>2016-03-18T12:27:56Z</time>
      </trkpt>
      <trkpt lat="46.411957992240787" lon="11.763259219005704">
        <ele>2199.6300000000001</ele>
        <time>2016-03-18T12:28:09Z</time>
      </trkpt>
      <trkpt lat="46.41197819262743" lon="11.763223679736257">
        <ele>2199.6300000000001</ele>
        <time>2016-03-18T12:28:21Z</time>
      </trkpt>
      <trkpt lat="46.411975007504225" lon="11.763232899829745">
        <ele>2199.6300000000001</ele>
        <time>2016-03-18T12:28:41Z</time>
      </trkpt>
      <trkpt lat="46.411965200677514" lon="11.763237174600363">
        <ele>2199.6300000000001</ele>
        <time>2016-03-18T12:28:57Z</time>
      </trkpt>
      <trkpt lat="46.411954388022423" lon="11.763224098831415">
        <ele>2199.6300000000001</ele>
        <time>2016-03-18T12:29:19Z</time>
      </trkpt>
      <trkpt lat="46.411942820996046" lon="11.763232396915555">
        <ele>2199.6300000000001</ele>
        <time>2016-03-18T12:29:36Z</time>
      </trkpt>
      <trkpt lat="46.411927985027432" lon="11.763223176822066">
        <ele>2200.1100000000001</ele>
        <time>2016-03-18T12:29:53Z</time>
      </trkpt>
      <trkpt lat="46.411937456578016" lon="11.763224853202701">
        <ele>2199.6300000000001</ele>
        <time>2016-03-18T12:30:15Z</time>
      </trkpt>
      <trkpt lat="46.411946592852473" lon="11.763243041932583">
        <ele>2200.1100000000001</ele>
        <time>2016-03-18T12:30:36Z</time>
      </trkpt>
      <trkpt lat="46.411921614781022" lon="11.763224182650447">
        <ele>2200.1100000000001</ele>
        <time>2016-03-18T12:30:55Z</time>
      </trkpt>
      <trkpt lat="46.411913903430104" lon="11.7632404435426">
        <ele>2200.1100000000001</ele>
        <time>2016-03-18T12:31:13Z</time>
      </trkpt>
      <trkpt lat="46.411948436871171" lon="11.763234660029411">
        <ele>2200.1100000000001</ele>
        <time>2016-03-18T12:31:28Z</time>
      </trkpt>
      <trkpt lat="46.411930164322257" lon="11.763241700828075">
        <ele>2200.1100000000001</ele>
        <time>2016-03-18T12:31:43Z</time>
      </trkpt>
      <trkpt lat="46.41194156371057" lon="11.76321605220437">
        <ele>2199.6300000000001</ele>
        <time>2016-03-18T12:31:55Z</time>
      </trkpt>
      <trkpt lat="46.411938881501555" lon="11.763233905658126">
        <ele>2200.1100000000001</ele>
        <time>2016-03-18T12:32:17Z</time>
      </trkpt>
      <trkpt lat="46.411945167928934" lon="11.763218231499195">
        <ele>2199.6300000000001</ele>
        <time>2016-03-18T12:32:34Z</time>
      </trkpt>
      <trkpt lat="46.411929661408067" lon="11.763231139630079">
        <ele>2200.1100000000001</ele>
        <time>2016-03-18T12:32:54Z</time>
      </trkpt>
      <trkpt lat="46.411956064403057" lon="11.763229127973318">
        <ele>2200.1100000000001</ele>
        <time>2016-03-18T12:33:14Z</time>
      </trkpt>
      <trkpt lat="46.411965871229768" lon="11.763226697221398">
        <ele>2200.1100000000001</ele>
        <time>2016-03-18T12:33:31Z</time>
      </trkpt>
      <trkpt lat="46.411944413557649" lon="11.763231894001365">
        <ele>2200.1100000000001</ele>
        <time>2016-03-18T12:33:51Z</time>
      </trkpt>
      <trkpt lat="46.41194399446249" lon="11.763208424672484">
        <ele>2200.1100000000001</ele>
        <time>2016-03-18T12:34:10Z</time>
      </trkpt>
      <trkpt lat="46.411923374980688" lon="11.763226613402367">
        <ele>2200.1100000000001</ele>
        <time>2016-03-18T12:34:29Z</time>
      </trkpt>
      <trkpt lat="46.411945335566998" lon="11.763234240934253">
        <ele>2200.1100000000001</ele>
        <time>2016-03-18T12:34:46Z</time>
      </trkpt>
      <trkpt lat="46.411932595074177" lon="11.763236504048109">
        <ele>2200.1100000000001</ele>
        <time>2016-03-18T12:34:59Z</time>
      </trkpt>
      <trkpt lat="46.411935025826097" lon="11.763241868466139">
        <ele>2200.5900000000001</ele>
        <time>2016-03-18T12:35:17Z</time>
      </trkpt>
      <trkpt lat="46.41194986179471" lon="11.763240024447441">
        <ele>2200.1100000000001</ele>
        <time>2016-03-18T12:35:33Z</time>
      </trkpt>
      <trkpt lat="46.411949107423425" lon="11.763226613402367">
        <ele>2200.1100000000001</ele>
        <time>2016-03-18T12:35:47Z</time>
      </trkpt>
      <trkpt lat="46.411920944228768" lon="11.763232816010714">
        <ele>2200.1100000000001</ele>
        <time>2016-03-18T12:36:01Z</time>
      </trkpt>
      <trkpt lat="46.411915244534612" lon="11.763242874294519">
        <ele>2200.5900000000001</ele>
        <time>2016-03-18T12:36:15Z</time>
      </trkpt>
      <trkpt lat="46.411996465176344" lon="11.763352174311876">
        <ele>2198.1900000000001</ele>
        <time>2016-03-18T12:36:23Z</time>
      </trkpt>
      <trkpt lat="46.412020269781351" lon="11.763392742723227">
        <ele>2197.23</ele>
        <time>2016-03-18T12:36:26Z</time>
      </trkpt>
      <trkpt lat="46.41208129003644" lon="11.763482177630067">
        <ele>2194.3499999999999</ele>
        <time>2016-03-18T12:36:34Z</time>
      </trkpt>
      <trkpt lat="46.412165779620409" lon="11.763616120442748">
        <ele>2191.9400000000001</ele>
        <time>2016-03-18T12:36:45Z</time>
      </trkpt>
      <trkpt lat="46.412184722721577" lon="11.763694826513529">
        <ele>2191.9400000000001</ele>
        <time>2016-03-18T12:36:52Z</time>
      </trkpt>
      <trkpt lat="46.412234092131257" lon="11.763758026063442">
        <ele>2191.46</ele>
        <time>2016-03-18T12:37:04Z</time>
      </trkpt>
      <trkpt lat="46.412197295576334" lon="11.763757858425379">
        <ele>2191.46</ele>
        <time>2016-03-18T12:37:17Z</time>
      </trkpt>
      <trkpt lat="46.41221908852458" lon="11.763784680515528">
        <ele>2190.98</ele>
        <time>2016-03-18T12:37:28Z</time>
      </trkpt>
      <trkpt lat="46.412242641672492" lon="11.763790464028716">
        <ele>2190.98</ele>
        <time>2016-03-18T12:37:38Z</time>
      </trkpt>
      <trkpt lat="46.41225328668952" lon="11.763773700222373">
        <ele>2190.98</ele>
        <time>2016-03-18T12:37:56Z</time>
      </trkpt>
      <trkpt lat="46.412242306396365" lon="11.76381217315793">
        <ele>2190.98</ele>
        <time>2016-03-18T12:38:04Z</time>
      </trkpt>
      <trkpt lat="46.412286227568984" lon="11.763851316645741">
        <ele>2189.54</ele>
        <time>2016-03-18T12:38:13Z</time>
      </trkpt>
      <trkpt lat="46.412277007475495" lon="11.763825751841068">
        <ele>2189.54</ele>
        <time>2016-03-18T12:38:23Z</time>
      </trkpt>
      <trkpt lat="46.412260998040438" lon="11.763817872852087">
        <ele>2189.54</ele>
        <time>2016-03-18T12:38:39Z</time>
      </trkpt>
      <trkpt lat="46.412252951413393" lon="11.76381359808147">
        <ele>2189.54</ele>
        <time>2016-03-18T12:38:56Z</time>
      </trkpt>
      <trkpt lat="46.412249011918902" lon="11.763823153451085">
        <ele>2189.54</ele>
        <time>2016-03-18T12:39:11Z</time>
      </trkpt>
      <trkpt lat="46.412180867046118" lon="11.763879898935556">
        <ele>2189.54</ele>
        <time>2016-03-18T12:39:35Z</time>
      </trkpt>
      <trkpt lat="46.412258902564645" lon="11.763852825388312">
        <ele>2188.5799999999999</ele>
        <time>2016-03-18T12:39:52Z</time>
      </trkpt>
      <trkpt lat="46.412283042445779" lon="11.763844611123204">
        <ele>2188.5799999999999</ele>
        <time>2016-03-18T12:40:15Z</time>
      </trkpt>
      <trkpt lat="46.412264769896865" lon="11.763826925307512">
        <ele>2188.5799999999999</ele>
        <time>2016-03-18T12:40:34Z</time>
      </trkpt>
      <trkpt lat="46.412264686077833" lon="11.763836061581969">
        <ele>2189.0599999999999</ele>
        <time>2016-03-18T12:40:46Z</time>
      </trkpt>
      <trkpt lat="46.412256136536598" lon="11.763853747397661">
        <ele>2189.0599999999999</ele>
        <time>2016-03-18T12:40:58Z</time>
      </trkpt>
      <trkpt lat="46.41225965693593" lon="11.763837402686477">
        <ele>2190.02</ele>
        <time>2016-03-18T12:41:11Z</time>
      </trkpt>
      <trkpt lat="46.412259237840772" lon="11.763844024389982">
        <ele>2188.5799999999999</ele>
        <time>2016-03-18T12:41:30Z</time>
      </trkpt>
      <trkpt lat="46.412255968898535" lon="11.763839330524206">
        <ele>2189.0599999999999</ele>
        <time>2016-03-18T12:41:43Z</time>
      </trkpt>
      <trkpt lat="46.41227088868618" lon="11.763840168714523">
        <ele>2189.0599999999999</ele>
        <time>2016-03-18T12:41:53Z</time>
      </trkpt>
      <trkpt lat="46.412259573116899" lon="11.763821309432387">
        <ele>2189.54</ele>
        <time>2016-03-18T12:42:08Z</time>
      </trkpt>
      <trkpt lat="46.41227038577199" lon="11.763824913650751">
        <ele>2189.54</ele>
        <time>2016-03-18T12:42:21Z</time>
      </trkpt>
      <trkpt lat="46.412277342751622" lon="11.763803875073791">
        <ele>2190.02</ele>
        <time>2016-03-18T12:42:33Z</time>
      </trkpt>
      <trkpt lat="46.412276001647115" lon="11.763817956671119">
        <ele>2190.02</ele>
        <time>2016-03-18T12:42:44Z</time>
      </trkpt>
      <trkpt lat="46.41227139160037" lon="11.763817621394992">
        <ele>2190.02</ele>
        <time>2016-03-18T12:42:59Z</time>
      </trkpt>
      <trkpt lat="46.41226259060204" lon="11.763794822618365">
        <ele>2190.02</ele>
        <time>2016-03-18T12:43:29Z</time>
      </trkpt>
      <trkpt lat="46.412259321659803" lon="11.763803036883473">
        <ele>2190.02</ele>
        <time>2016-03-18T12:43:48Z</time>
      </trkpt>
      <trkpt lat="46.412268625572324" lon="11.763830361887813">
        <ele>2190.02</ele>
        <time>2016-03-18T12:44:04Z</time>
      </trkpt>
      <trkpt lat="46.412269966676831" lon="11.76384637132287">
        <ele>2190.02</ele>
        <time>2016-03-18T12:44:19Z</time>
      </trkpt>
      <trkpt lat="46.41226259060204" lon="11.763841928914189">
        <ele>2190.5</ele>
        <time>2016-03-18T12:44:36Z</time>
      </trkpt>
      <trkpt lat="46.412286059930921" lon="11.76384100690484">
        <ele>2190.02</ele>
        <time>2016-03-18T12:44:52Z</time>
      </trkpt>
      <trkpt lat="46.412282790988684" lon="11.763837235048413">
        <ele>2189.54</ele>
        <time>2016-03-18T12:45:10Z</time>
      </trkpt>
      <trkpt lat="46.412276336923242" lon="11.763843102380633">
        <ele>2190.02</ele>
        <time>2016-03-18T12:45:26Z</time>
      </trkpt>
      <trkpt lat="46.412307014688849" lon="11.76383656449616">
        <ele>2190.02</ele>
        <time>2016-03-18T12:45:43Z</time>
      </trkpt>
      <trkpt lat="46.412283712998033" lon="11.7638482991606">
        <ele>2190.02</ele>
        <time>2016-03-18T12:45:56Z</time>
      </trkpt>
      <trkpt lat="46.412278097122908" lon="11.76387520506978">
        <ele>2190.02</ele>
        <time>2016-03-18T12:46:07Z</time>
      </trkpt>
      <trkpt lat="46.412303829565644" lon="11.76387176848948">
        <ele>2190.02</ele>
        <time>2016-03-18T12:46:20Z</time>
      </trkpt>
      <trkpt lat="46.412288155406713" lon="11.763849724084139">
        <ele>2190.02</ele>
        <time>2016-03-18T12:46:36Z</time>
      </trkpt>
      <trkpt lat="46.412257561460137" lon="11.763839833438396">
        <ele>2190.02</ele>
        <time>2016-03-18T12:46:54Z</time>
      </trkpt>
      <trkpt lat="46.41225865110755" lon="11.763853663578629">
        <ele>2190.5</ele>
        <time>2016-03-18T12:47:10Z</time>
      </trkpt>
      <trkpt lat="46.412264350801706" lon="11.763856764882803">
        <ele>2190.02</ele>
        <time>2016-03-18T12:47:28Z</time>
      </trkpt>
      <trkpt lat="46.412269044667482" lon="11.763845449313521">
        <ele>2190.02</ele>
        <time>2016-03-18T12:47:51Z</time>
      </trkpt>
      <trkpt lat="46.41222738660872" lon="11.763846455141902">
        <ele>2190.02</ele>
        <time>2016-03-18T12:48:10Z</time>
      </trkpt>
      <trkpt lat="46.412235097959638" lon="11.763879396021366">
        <ele>2190.02</ele>
        <time>2016-03-18T12:48:25Z</time>
      </trkpt>
      <trkpt lat="46.412238450720906" lon="11.763866823166609">
        <ele>2190.5</ele>
        <time>2016-03-18T12:48:40Z</time>
      </trkpt>
      <trkpt lat="46.412243815138936" lon="11.76386103965342">
        <ele>2190.02</ele>
        <time>2016-03-18T12:48:53Z</time>
      </trkpt>
      <trkpt lat="46.41228991560638" lon="11.763835893943906">
        <ele>2190.02</ele>
        <time>2016-03-18T12:49:20Z</time>
      </trkpt>
      <trkpt lat="46.412289831787348" lon="11.763880988582969">
        <ele>2190.02</ele>
        <time>2016-03-18T12:49:32Z</time>
      </trkpt>
      <trkpt lat="46.41231095418334" lon="11.763905212283134">
        <ele>2189.0599999999999</ele>
        <time>2016-03-18T12:49:38Z</time>
      </trkpt>
      <trkpt lat="46.412342470139265" lon="11.763927340507507">
        <ele>2188.0999999999999</ele>
        <time>2016-03-18T12:49:41Z</time>
      </trkpt>
      <trkpt lat="46.412385469302535" lon="11.763962125405669">
        <ele>2186.6599999999999</ele>
        <time>2016-03-18T12:49:46Z</time>
      </trkpt>
      <trkpt lat="46.412451518699527" lon="11.764020128175616">
        <ele>2183.77</ele>
        <time>2016-03-18T12:49:55Z</time>
      </trkpt>
      <trkpt lat="46.412471299991012" lon="11.763999927788973">
        <ele>2182.3299999999999</ele>
        <time>2016-03-18T12:50:05Z</time>
      </trkpt>
      <trkpt lat="46.412484040483832" lon="11.763964388519526">
        <ele>2181.8499999999999</ele>
        <time>2016-03-18T12:50:08Z</time>
      </trkpt>
      <trkpt lat="46.412504240870476" lon="11.763901021331549">
        <ele>2180.8899999999999</ele>
        <time>2016-03-18T12:50:19Z</time>
      </trkpt>
      <trkpt lat="46.41252838075161" lon="11.763943517580628">
        <ele>2179.4499999999998</ele>
        <time>2016-03-18T12:50:28Z</time>
      </trkpt>
      <trkpt lat="46.412562411278486" lon="11.763998754322529">
        <ele>2178.48</ele>
        <time>2016-03-18T12:50:36Z</time>
      </trkpt>
      <trkpt lat="46.412560399621725" lon="11.764030605554581">
        <ele>2177.52</ele>
        <time>2016-03-18T12:50:44Z</time>
      </trkpt>
      <trkpt lat="46.412584036588669" lon="11.764048794284463">
        <ele>2175.5999999999999</ele>
        <time>2016-03-18T12:51:01Z</time>
      </trkpt>
      <trkpt lat="46.412651594728231" lon="11.764092380180955">
        <ele>2172.2399999999998</ele>
        <time>2016-03-18T12:51:10Z</time>
      </trkpt>
      <trkpt lat="46.412658300250769" lon="11.764101851731539">
        <ele>2171.7600000000002</ele>
        <time>2016-03-18T12:51:11Z</time>
      </trkpt>
      <trkpt lat="46.412671459838748" lon="11.764136888086796">
        <ele>2170.79</ele>
        <time>2016-03-18T12:51:14Z</time>
      </trkpt>
      <trkpt lat="46.412703897804022" lon="11.764198578894138">
        <ele>2168.3899999999999</ele>
        <time>2016-03-18T12:51:20Z</time>
      </trkpt>
      <trkpt lat="46.412725606933236" lon="11.764284996315837">
        <ele>2165.9899999999998</ele>
        <time>2016-03-18T12:51:29Z</time>
      </trkpt>
      <trkpt lat="46.412743963301182" lon="11.764374347403646">
        <ele>2163.0999999999999</ele>
        <time>2016-03-18T12:51:39Z</time>
      </trkpt>
      <trkpt lat="46.412766678258777" lon="11.764432433992624">
        <ele>2160.2199999999998</ele>
        <time>2016-03-18T12:51:50Z</time>
      </trkpt>
      <trkpt lat="46.41278981231153" lon="11.764428662136197">
        <ele>2159.2600000000002</ele>
        <time>2016-03-18T12:51:52Z</time>
      </trkpt>
      <trkpt lat="46.412813952192664" lon="11.764456238597631">
        <ele>2157.8200000000002</ele>
        <time>2016-03-18T12:51:57Z</time>
      </trkpt>
      <trkpt lat="46.412879582494497" lon="11.764499740675092">
        <ele>2153.9699999999998</ele>
        <time>2016-03-18T12:52:06Z</time>
      </trkpt>
      <trkpt lat="46.412901040166616" lon="11.76453192718327">
        <ele>2153.0100000000002</ele>
        <time>2016-03-18T12:52:09Z</time>
      </trkpt>
      <trkpt lat="46.412937082350254" lon="11.764603592455387">
        <ele>2149.6500000000001</ele>
        <time>2016-03-18T12:52:18Z</time>
      </trkpt>
      <trkpt lat="46.412932556122541" lon="11.764696799218655">
        <ele>2147.2399999999998</ele>
        <time>2016-03-18T12:52:29Z</time>
      </trkpt>
      <trkpt lat="46.412926185876131" lon="11.764788078144193">
        <ele>2143.8800000000001</ele>
        <time>2016-03-18T12:52:44Z</time>
      </trkpt>
      <trkpt lat="46.412964658811688" lon="11.764765866100788">
        <ele>2141.9499999999998</ele>
        <time>2016-03-18T12:52:56Z</time>
      </trkpt>
      <trkpt lat="46.412972705438733" lon="11.764755472540855">
        <ele>2141.9499999999998</ele>
        <time>2016-03-18T12:53:15Z</time>
      </trkpt>
      <trkpt lat="46.413026684895158" lon="11.764814984053373">
        <ele>2140.5100000000002</ele>
        <time>2016-03-18T12:53:31Z</time>
      </trkpt>
      <trkpt lat="46.413028864189982" lon="11.764886816963553">
        <ele>2138.5900000000001</ele>
        <time>2016-03-18T12:53:43Z</time>
      </trkpt>
      <trkpt lat="46.413007490336895" lon="11.764911711215973">
        <ele>2137.6300000000001</ele>
        <time>2016-03-18T12:53:57Z</time>
      </trkpt>
      <trkpt lat="46.413011848926544" lon="11.764916488900781">
        <ele>2137.1500000000001</ele>
        <time>2016-03-18T12:53:58Z</time>
      </trkpt>
      <trkpt lat="46.413049818947911" lon="11.765000559389591">
        <ele>2133.7800000000002</ele>
        <time>2016-03-18T12:54:08Z</time>
      </trkpt>
      <trkpt lat="46.413072282448411" lon="11.765044732019305">
        <ele>2130.4200000000001</ele>
        <time>2016-03-18T12:54:17Z</time>
      </trkpt>
      <trkpt lat="46.413130201399326" lon="11.765038445591927">
        <ele>2128.5</ele>
        <time>2016-03-18T12:54:28Z</time>
      </trkpt>
      <trkpt lat="46.413167081773281" lon="11.765094939619303">
        <ele>2126.0900000000001</ele>
        <time>2016-03-18T12:54:35Z</time>
      </trkpt>
      <trkpt lat="46.413151742890477" lon="11.765215219929814">
        <ele>2122.73</ele>
        <time>2016-03-18T12:54:45Z</time>
      </trkpt>
      <trkpt lat="46.413173452019691" lon="11.765247490257025">
        <ele>2120.3200000000002</ele>
        <time>2016-03-18T12:54:51Z</time>
      </trkpt>
      <trkpt lat="46.413202285766602" lon="11.76526291295886">
        <ele>2118.8800000000001</ele>
        <time>2016-03-18T12:54:54Z</time>
      </trkpt>
      <trkpt lat="46.413216199725866" lon="11.765282358974218">
        <ele>2117.4400000000001</ele>
        <time>2016-03-18T12:54:57Z</time>
      </trkpt>
      <trkpt lat="46.413251990452409" lon="11.765340194106102">
        <ele>2114.5599999999999</ele>
        <time>2016-03-18T12:55:04Z</time>
      </trkpt>
      <trkpt lat="46.413287781178951" lon="11.765378834679723">
        <ele>2111.1900000000001</ele>
        <time>2016-03-18T12:55:11Z</time>
      </trkpt>
      <trkpt lat="46.413308819755912" lon="11.76537916995585">
        <ele>2110.23</ele>
        <time>2016-03-18T12:55:15Z</time>
      </trkpt>
      <trkpt lat="46.413376294076443" lon="11.765453014522791">
        <ele>2107.3499999999999</ele>
        <time>2016-03-18T12:55:24Z</time>
      </trkpt>
      <trkpt lat="46.413329606875777" lon="11.765538761392236">
        <ele>2104.46</ele>
        <time>2016-03-18T12:55:33Z</time>
      </trkpt>
      <trkpt lat="46.413331283256412" lon="11.765561308711767">
        <ele>2103.5</ele>
        <time>2016-03-18T12:55:35Z</time>
      </trkpt>
      <trkpt lat="46.413316698744893" lon="11.765624508261681">
        <ele>2101.0999999999999</ele>
        <time>2016-03-18T12:55:43Z</time>
      </trkpt>
      <trkpt lat="46.413309071213007" lon="11.765659628435969">
        <ele>2100.6199999999999</ele>
        <time>2016-03-18T12:55:46Z</time>
      </trkpt>
      <trkpt lat="46.41331217251718" lon="11.765713440254331">
        <ele>2099.1799999999998</ele>
        <time>2016-03-18T12:55:57Z</time>
      </trkpt>
      <trkpt lat="46.413296749815345" lon="11.76571193151176">
        <ele>2099.6599999999999</ele>
        <time>2016-03-18T12:56:09Z</time>
      </trkpt>
      <trkpt lat="46.41328283585608" lon="11.765851657837629">
        <ele>2096.29</ele>
        <time>2016-03-18T12:56:18Z</time>
      </trkpt>
      <trkpt lat="46.413305466994643" lon="11.765922317281365">
        <ele>2092.9299999999998</ele>
        <time>2016-03-18T12:56:27Z</time>
      </trkpt>
      <trkpt lat="46.413315944373608" lon="11.765972776338458">
        <ele>2091.4899999999998</ele>
        <time>2016-03-18T12:56:31Z</time>
      </trkpt>
      <trkpt lat="46.413335474207997" lon="11.766038071364164">
        <ele>2088.5999999999999</ele>
        <time>2016-03-18T12:56:37Z</time>
      </trkpt>
      <trkpt lat="46.413353327661753" lon="11.766092805191875">
        <ele>2085.7199999999998</ele>
        <time>2016-03-18T12:56:44Z</time>
      </trkpt>
      <trkpt lat="46.41336883418262" lon="11.766133038327098">
        <ele>2084.2800000000002</ele>
        <time>2016-03-18T12:56:48Z</time>
      </trkpt>
      <trkpt lat="46.413371851667762" lon="11.766142761334777">
        <ele>2083.79</ele>
        <time>2016-03-18T12:56:49Z</time>
      </trkpt>
      <trkpt lat="46.413385262712836" lon="11.766208475455642">
        <ele>2081.8699999999999</ele>
        <time>2016-03-18T12:56:54Z</time>
      </trkpt>
      <trkpt lat="46.413369253277779" lon="11.766364462673664">
        <ele>2078.5100000000002</ele>
        <time>2016-03-18T12:57:04Z</time>
      </trkpt>
      <trkpt lat="46.413363972678781" lon="11.76650108769536">
        <ele>2075.6199999999999</ele>
        <time>2016-03-18T12:57:14Z</time>
      </trkpt>
      <trkpt lat="46.413346286863089" lon="11.766609214246273">
        <ele>2073.6999999999998</ele>
        <time>2016-03-18T12:57:24Z</time>
      </trkpt>
      <trkpt lat="46.413378724828362" lon="11.76657878793776">
        <ele>2073.6999999999998</ele>
        <time>2016-03-18T12:57:38Z</time>
      </trkpt>
      <trkpt lat="46.413366571068764" lon="11.76663008518517">
        <ele>2073.6999999999998</ele>
        <time>2016-03-18T12:57:51Z</time>
      </trkpt>
      <trkpt lat="46.413335809484124" lon="11.766627905890346">
        <ele>2073.6999999999998</ele>
        <time>2016-03-18T12:58:06Z</time>
      </trkpt>
      <trkpt lat="46.413326170295477" lon="11.766659673303366">
        <ele>2073.2199999999998</ele>
        <time>2016-03-18T12:58:22Z</time>
      </trkpt>
      <trkpt lat="46.41332776285708" lon="11.766657242551446">
        <ele>2073.2199999999998</ele>
        <time>2016-03-18T12:58:36Z</time>
      </trkpt>
      <trkpt lat="46.413318878039718" lon="11.766784815117717">
        <ele>2070.8200000000002</ele>
        <time>2016-03-18T12:58:48Z</time>
      </trkpt>
      <trkpt lat="46.413363302126527" lon="11.766860838979483">
        <ele>2066.9699999999998</ele>
        <time>2016-03-18T12:58:56Z</time>
      </trkpt>
      <trkpt lat="46.413367995992303" lon="11.76686804741621">
        <ele>2066.9699999999998</ele>
        <time>2016-03-18T12:58:57Z</time>
      </trkpt>
      <trkpt lat="46.413392052054405" lon="11.766908448189497">
        <ele>2065.0500000000002</ele>
        <time>2016-03-18T12:59:01Z</time>
      </trkpt>
      <trkpt lat="46.41339959576726" lon="11.76692814566195">
        <ele>2064.0900000000001</ele>
        <time>2016-03-18T12:59:03Z</time>
      </trkpt>
      <trkpt lat="46.413406804203987" lon="11.766973910853267">
        <ele>2062.6500000000001</ele>
        <time>2016-03-18T12:59:06Z</time>
      </trkpt>
      <trkpt lat="46.413439409807324" lon="11.767086563631892">
        <ele>2059.2800000000002</ele>
        <time>2016-03-18T12:59:15Z</time>
      </trkpt>
      <trkpt lat="46.413449971005321" lon="11.76718270406127">
        <ele>2056.4000000000001</ele>
        <time>2016-03-18T12:59:23Z</time>
      </trkpt>
      <trkpt lat="46.413451647385955" lon="11.767305582761765">
        <ele>2053.0300000000002</ele>
        <time>2016-03-18T12:59:36Z</time>
      </trkpt>
      <trkpt lat="46.413467405363917" lon="11.767376912757754">
        <ele>2050.6300000000001</ele>
        <time>2016-03-18T12:59:45Z</time>
      </trkpt>
      <trkpt lat="46.41347436234355" lon="11.767392000183463">
        <ele>2050.6300000000001</ele>
        <time>2016-03-18T12:59:51Z</time>
      </trkpt>
      <trkpt lat="46.413510823622346" lon="11.767392586916685">
        <ele>2049.6700000000001</ele>
        <time>2016-03-18T12:59:55Z</time>
      </trkpt>
      <trkpt lat="46.413544099777937" lon="11.767502138391137">
        <ele>2046.78</ele>
        <time>2016-03-18T13:00:06Z</time>
      </trkpt>
      <trkpt lat="46.413535717874765" lon="11.767473975196481">
        <ele>2046.3</ele>
        <time>2016-03-18T13:00:21Z</time>
      </trkpt>
      <trkpt lat="46.413539238274097" lon="11.767485123127699">
        <ele>2046.78</ele>
        <time>2016-03-18T13:00:39Z</time>
      </trkpt>
      <trkpt lat="46.413546530529857" lon="11.767515046522021">
        <ele>2046.78</ele>
        <time>2016-03-18T13:00:45Z</time>
      </trkpt>
      <trkpt lat="46.413537729531527" lon="11.767560308799148">
        <ele>2045.8199999999999</ele>
        <time>2016-03-18T13:00:59Z</time>
      </trkpt>
      <trkpt lat="46.413531191647053" lon="11.767546394839883">
        <ele>2046.3</ele>
        <time>2016-03-18T13:01:21Z</time>
      </trkpt>
      <trkpt lat="46.413554912433028" lon="11.767566930502653">
        <ele>2045.8199999999999</ele>
        <time>2016-03-18T13:01:43Z</time>
      </trkpt>
      <trkpt lat="46.413543177768588" lon="11.767594339326024">
        <ele>2045.8199999999999</ele>
        <time>2016-03-18T13:02:01Z</time>
      </trkpt>
      <trkpt lat="46.413531024008989" lon="11.767482273280621">
        <ele>2046.3</ele>
        <time>2016-03-18T13:02:14Z</time>
      </trkpt>
      <trkpt lat="46.413526330143213" lon="11.767446147277951">
        <ele>2046.3</ele>
        <time>2016-03-18T13:02:27Z</time>
      </trkpt>
      <trkpt lat="46.413538651540875" lon="11.767463246360421">
        <ele>2046.3</ele>
        <time>2016-03-18T13:02:40Z</time>
      </trkpt>
      <trkpt lat="46.413529934361577" lon="11.767475986853242">
        <ele>2046.3</ele>
        <time>2016-03-18T13:02:57Z</time>
      </trkpt>
      <trkpt lat="46.413523061200976" lon="11.767477747052908">
        <ele>2046.3</ele>
        <time>2016-03-18T13:03:11Z</time>
      </trkpt>
      <trkpt lat="46.41352029517293" lon="11.767495265230536">
        <ele>2046.3</ele>
        <time>2016-03-18T13:03:19Z</time>
      </trkpt>
      <trkpt lat="46.413535717874765" lon="11.767483782023191">
        <ele>2046.3</ele>
        <time>2016-03-18T13:03:35Z</time>
      </trkpt>
      <trkpt lat="46.413527084514499" lon="11.767497109249234">
        <ele>2046.78</ele>
        <time>2016-03-18T13:03:54Z</time>
      </trkpt>
      <trkpt lat="46.413531610742211" lon="11.767481435090303">
        <ele>2046.3</ele>
        <time>2016-03-18T13:04:09Z</time>
      </trkpt>
      <trkpt lat="46.413557259365916" lon="11.767521919682622">
        <ele>2046.3</ele>
        <time>2016-03-18T13:04:21Z</time>
      </trkpt>
      <trkpt lat="46.413563881069422" lon="11.767533821985126">
        <ele>2046.3</ele>
        <time>2016-03-18T13:04:32Z</time>
      </trkpt>
      <trkpt lat="46.413556085899472" lon="11.767545640468597">
        <ele>2046.3</ele>
        <time>2016-03-18T13:04:51Z</time>
      </trkpt>
      <trkpt lat="46.413557678461075" lon="11.767568690702319">
        <ele>2046.3</ele>
        <time>2016-03-18T13:05:05Z</time>
      </trkpt>
      <trkpt lat="46.413552481681108" lon="11.767569445073605">
        <ele>2046.3</ele>
        <time>2016-03-18T13:05:20Z</time>
      </trkpt>
      <trkpt lat="46.413551308214664" lon="11.767531642690301">
        <ele>2046.3</ele>
        <time>2016-03-18T13:05:38Z</time>
      </trkpt>
      <trkpt lat="46.413572346791625" lon="11.76750959828496">
        <ele>2046.78</ele>
        <time>2016-03-18T13:05:55Z</time>
      </trkpt>
      <trkpt lat="46.41356036067009" lon="11.767499540001154">
        <ele>2046.3</ele>
        <time>2016-03-18T13:06:12Z</time>
      </trkpt>
      <trkpt lat="46.413553906604648" lon="11.767512196674943">
        <ele>2046.3</ele>
        <time>2016-03-18T13:06:27Z</time>
      </trkpt>
      <trkpt lat="46.413554074242711" lon="11.767517561092973">
        <ele>2046.78</ele>
        <time>2016-03-18T13:06:37Z</time>
      </trkpt>
      <trkpt lat="46.413539405912161" lon="11.767506077885628">
        <ele>2046.3</ele>
        <time>2016-03-18T13:06:50Z</time>
      </trkpt>
      <trkpt lat="46.413543177768588" lon="11.767513621598482">
        <ele>2046.3</ele>
        <time>2016-03-18T13:06:59Z</time>
      </trkpt>
      <trkpt lat="46.413524486124516" lon="11.767527032643557">
        <ele>2046.78</ele>
        <time>2016-03-18T13:07:11Z</time>
      </trkpt>
      <trkpt lat="46.413531862199306" lon="11.767532648518682">
        <ele>2046.78</ele>
        <time>2016-03-18T13:07:30Z</time>
      </trkpt>
      <trkpt lat="46.413532868027687" lon="11.767520578578115">
        <ele>2046.78</ele>
        <time>2016-03-18T13:07:45Z</time>
      </trkpt>
      <trkpt lat="46.41355306841433" lon="11.767510855570436">
        <ele>2046.78</ele>
        <time>2016-03-18T13:08:02Z</time>
      </trkpt>
      <trkpt lat="46.413531862199306" lon="11.767495851963758">
        <ele>2046.78</ele>
        <time>2016-03-18T13:08:19Z</time>
      </trkpt>
      <trkpt lat="46.413537980988622" lon="11.767503311857581">
        <ele>2046.78</ele>
        <time>2016-03-18T13:08:33Z</time>
      </trkpt>
      <trkpt lat="46.413528760895133" lon="11.767500964924693">
        <ele>2046.78</ele>
        <time>2016-03-18T13:08:44Z</time>
      </trkpt>
      <trkpt lat="46.413514176383615" lon="11.767505574971437">
        <ele>2046.78</ele>
        <time>2016-03-18T13:08:57Z</time>
      </trkpt>
      <trkpt lat="46.413556002080441" lon="11.767500294372439">
        <ele>2046.78</ele>
        <time>2016-03-18T13:09:20Z</time>
      </trkpt>
      <trkpt lat="46.413542171940207" lon="11.767502306029201">
        <ele>2045.3399999999999</ele>
        <time>2016-03-18T13:09:41Z</time>
      </trkpt>
      <trkpt lat="46.413540160283446" lon="11.767503395676613">
        <ele>2045.3399999999999</ele>
        <time>2016-03-18T13:09:42Z</time>
      </trkpt>
      <trkpt lat="46.41355792991817" lon="11.767515549436212">
        <ele>2046.78</ele>
        <time>2016-03-18T13:09:47Z</time>
      </trkpt>
      <trkpt lat="46.413563042879105" lon="11.767518650740385">
        <ele>2046.78</ele>
        <time>2016-03-18T13:10:07Z</time>
      </trkpt>
      <trkpt lat="46.413564467802644" lon="11.767499204725027">
        <ele>2048.23</ele>
        <time>2016-03-18T13:10:24Z</time>
      </trkpt>
      <trkpt lat="46.413555582985282" lon="11.76751940511167">
        <ele>2047.26</ele>
        <time>2016-03-18T13:10:39Z</time>
      </trkpt>
      <trkpt lat="46.413542423397303" lon="11.767492750659585">
        <ele>2047.75</ele>
        <time>2016-03-18T13:10:53Z</time>
      </trkpt>
      <trkpt lat="46.413545608520508" lon="11.767513453960419">
        <ele>2047.75</ele>
        <time>2016-03-18T13:11:08Z</time>
      </trkpt>
      <trkpt lat="46.413539825007319" lon="11.767537510022521">
        <ele>2047.75</ele>
        <time>2016-03-18T13:11:24Z</time>
      </trkpt>
      <trkpt lat="46.41352959908545" lon="11.767514795064926">
        <ele>2047.26</ele>
        <time>2016-03-18T13:11:45Z</time>
      </trkpt>
      <trkpt lat="46.41358139924705" lon="11.767423935234547">
        <ele>2047.26</ele>
        <time>2016-03-18T13:12:06Z</time>
      </trkpt>
      <trkpt lat="46.413568826392293" lon="11.767462491989136">
        <ele>2047.26</ele>
        <time>2016-03-18T13:12:25Z</time>
      </trkpt>
      <trkpt lat="46.413576537743211" lon="11.767547568306327">
        <ele>2047.26</ele>
        <time>2016-03-18T13:12:44Z</time>
      </trkpt>
      <trkpt lat="46.413557762280107" lon="11.767514543607831">
        <ele>2047.26</ele>
        <time>2016-03-18T13:13:03Z</time>
      </trkpt>
      <trkpt lat="46.413552146404982" lon="11.767516052350402">
        <ele>2047.26</ele>
        <time>2016-03-18T13:13:20Z</time>
      </trkpt>
      <trkpt lat="46.413570418953896" lon="11.767533821985126">
        <ele>2047.26</ele>
        <time>2016-03-18T13:13:38Z</time>
      </trkpt>
      <trkpt lat="46.41355256550014" lon="11.767498617991805">
        <ele>2047.75</ele>
        <time>2016-03-18T13:13:55Z</time>
      </trkpt>
      <trkpt lat="46.413544099777937" lon="11.767495768144727">
        <ele>2047.26</ele>
        <time>2016-03-18T13:14:18Z</time>
      </trkpt>
      <trkpt lat="46.413547703996301" lon="11.767514627426863">
        <ele>2047.26</ele>
        <time>2016-03-18T13:14:42Z</time>
      </trkpt>
      <trkpt lat="46.413561115041375" lon="11.767511023208499">
        <ele>2047.75</ele>
        <time>2016-03-18T13:14:55Z</time>
      </trkpt>
      <trkpt lat="46.413555918261409" lon="11.767543293535709">
        <ele>2047.26</ele>
        <time>2016-03-18T13:15:09Z</time>
      </trkpt>
      <trkpt lat="46.413565138354897" lon="11.767562991008162">
        <ele>2047.26</ele>
        <time>2016-03-18T13:15:23Z</time>
      </trkpt>
      <trkpt lat="46.413578884676099" lon="11.767567433416843">
        <ele>2047.26</ele>
        <time>2016-03-18T13:15:35Z</time>
      </trkpt>
      <trkpt lat="46.413582405075431" lon="11.767530888319016">
        <ele>2047.26</ele>
        <time>2016-03-18T13:15:46Z</time>
      </trkpt>
      <trkpt lat="46.413570921868086" lon="11.767512783408165">
        <ele>2047.26</ele>
        <time>2016-03-18T13:15:59Z</time>
      </trkpt>
      <trkpt lat="46.413582572713494" lon="11.767544383183122">
        <ele>2046.3</ele>
        <time>2016-03-18T13:16:08Z</time>
      </trkpt>
      <trkpt lat="46.413635965436697" lon="11.767611857503653">
        <ele>2043.9000000000001</ele>
        <time>2016-03-18T13:16:18Z</time>
      </trkpt>
      <trkpt lat="46.4136703312397" lon="11.767672877758741">
        <ele>2041.5</ele>
        <time>2016-03-18T13:16:27Z</time>
      </trkpt>
      <trkpt lat="46.413697488605976" lon="11.767673883587122">
        <ele>2040.54</ele>
        <time>2016-03-18T13:16:35Z</time>
      </trkpt>
      <trkpt lat="46.413719449192286" lon="11.767731299623847">
        <ele>2039.5699999999999</ele>
        <time>2016-03-18T13:16:39Z</time>
      </trkpt>
      <trkpt lat="46.413791617378592" lon="11.767828445881605">
        <ele>2036.21</ele>
        <time>2016-03-18T13:16:49Z</time>
      </trkpt>
      <trkpt lat="46.413857750594616" lon="11.767867337912321">
        <ele>2034.29</ele>
        <time>2016-03-18T13:16:59Z</time>
      </trkpt>
      <trkpt lat="46.413914244621992" lon="11.767978565767407">
        <ele>2031.4000000000001</ele>
        <time>2016-03-18T13:17:09Z</time>
      </trkpt>
      <trkpt lat="46.413976522162557" lon="11.768074287101626">
        <ele>2028.04</ele>
        <time>2016-03-18T13:17:18Z</time>
      </trkpt>
      <trkpt lat="46.41400158405304" lon="11.768103959038854">
        <ele>2026.5999999999999</ele>
        <time>2016-03-18T13:17:21Z</time>
      </trkpt>
      <trkpt lat="46.41406461596489" lon="11.768156429752707">
        <ele>2023.71</ele>
        <time>2016-03-18T13:17:30Z</time>
      </trkpt>
      <trkpt lat="46.414098981767893" lon="11.768204877153039">
        <ele>2021.79</ele>
        <time>2016-03-18T13:17:35Z</time>
      </trkpt>
      <trkpt lat="46.414112476631999" lon="11.768274195492268">
        <ele>2020.3499999999999</ele>
        <time>2016-03-18T13:17:40Z</time>
      </trkpt>
      <trkpt lat="46.414122451096773" lon="11.768340161070228">
        <ele>2019.3900000000001</ele>
        <time>2016-03-18T13:17:51Z</time>
      </trkpt>
      <trkpt lat="46.414103675633669" lon="11.768495813012123">
        <ele>2016.02</ele>
        <time>2016-03-18T13:18:02Z</time>
      </trkpt>
      <trkpt lat="46.414101328700781" lon="11.768585667014122">
        <ele>2013.1400000000001</ele>
        <time>2016-03-18T13:18:08Z</time>
      </trkpt>
      <trkpt lat="46.414087247103453" lon="11.768721453845501">
        <ele>2010.25</ele>
        <time>2016-03-18T13:18:17Z</time>
      </trkpt>
      <trkpt lat="46.414091857150197" lon="11.768896300345659">
        <ele>2006.4100000000001</ele>
        <time>2016-03-18T13:18:28Z</time>
      </trkpt>
      <trkpt lat="46.414088169112802" lon="11.769048515707254">
        <ele>2004.01</ele>
        <time>2016-03-18T13:18:37Z</time>
      </trkpt>
      <trkpt lat="46.414034776389599" lon="11.769201820716262">
        <ele>2002.0799999999999</ele>
        <time>2016-03-18T13:18:47Z</time>
      </trkpt>
      <trkpt lat="46.41402262263" lon="11.769357305020094">
        <ele>2001.1199999999999</ele>
        <time>2016-03-18T13:18:57Z</time>
      </trkpt>
      <trkpt lat="46.414029328152537" lon="11.769417403265834">
        <ele>2000.6400000000001</ele>
        <time>2016-03-18T13:19:03Z</time>
      </trkpt>
      <trkpt lat="46.414093701168895" lon="11.769573474302888">
        <ele>1997.28</ele>
        <time>2016-03-18T13:19:14Z</time>
      </trkpt>
      <trkpt lat="46.414092360064387" lon="11.769623011350632">
        <ele>1996.3199999999999</ele>
        <time>2016-03-18T13:19:17Z</time>
      </trkpt>
      <trkpt lat="46.414066879078746" lon="11.769743040204048">
        <ele>1992.95</ele>
        <time>2016-03-18T13:19:24Z</time>
      </trkpt>
      <trkpt lat="46.414060927927494" lon="11.769754523411393">
        <ele>1992.95</ele>
        <time>2016-03-18T13:19:25Z</time>
      </trkpt>
      <trkpt lat="46.414039889350533" lon="11.769840102642775">
        <ele>1990.55</ele>
        <time>2016-03-18T13:19:31Z</time>
      </trkpt>
      <trkpt lat="46.4140450861305" lon="11.769975302740932">
        <ele>1987.6600000000001</ele>
        <time>2016-03-18T13:19:43Z</time>
      </trkpt>
      <trkpt lat="46.414078362286091" lon="11.770097594708204">
        <ele>1985.26</ele>
        <time>2016-03-18T13:19:54Z</time>
      </trkpt>
      <trkpt lat="46.414048690348864" lon="11.77025618031621">
        <ele>1981.9000000000001</ele>
        <time>2016-03-18T13:20:06Z</time>
      </trkpt>
      <trkpt lat="46.414045505225658" lon="11.770419627428055">
        <ele>1979.97</ele>
        <time>2016-03-18T13:20:16Z</time>
      </trkpt>
      <trkpt lat="46.414063610136509" lon="11.770528675988317">
        <ele>1979.01</ele>
        <time>2016-03-18T13:20:25Z</time>
      </trkpt>
      <trkpt lat="46.414069309830666" lon="11.770553570240736">
        <ele>1978.53</ele>
        <time>2016-03-18T13:20:27Z</time>
      </trkpt>
      <trkpt lat="46.414106693118811" lon="11.770633952692151">
        <ele>1976.6099999999999</ele>
        <time>2016-03-18T13:20:34Z</time>
      </trkpt>
      <trkpt lat="46.414118092507124" lon="11.77073554135859">
        <ele>1974.2</ele>
        <time>2016-03-18T13:20:41Z</time>
      </trkpt>
      <trkpt lat="46.414162013679743" lon="11.770863784477115">
        <ele>1970.8399999999999</ele>
        <time>2016-03-18T13:20:50Z</time>
      </trkpt>
      <trkpt lat="46.414238372817636" lon="11.770993703976274">
        <ele>1967.96</ele>
        <time>2016-03-18T13:21:01Z</time>
      </trkpt>
      <trkpt lat="46.414323952049017" lon="11.77109956741333">
        <ele>1964.5899999999999</ele>
        <time>2016-03-18T13:21:12Z</time>
      </trkpt>
      <trkpt lat="46.414342224597931" lon="11.771111050620675">
        <ele>1964.1099999999999</ele>
        <time>2016-03-18T13:21:14Z</time>
      </trkpt>
      <trkpt lat="46.414449010044336" lon="11.771154133602977">
        <ele>1960.75</ele>
        <time>2016-03-18T13:21:25Z</time>
      </trkpt>
      <trkpt lat="46.414474742487073" lon="11.771157905459404">
        <ele>1959.78</ele>
        <time>2016-03-18T13:21:28Z</time>
      </trkpt>
      <trkpt lat="46.414564931765199" lon="11.771155726164579">
        <ele>1956.9000000000001</ele>
        <time>2016-03-18T13:21:38Z</time>
      </trkpt>
      <trkpt lat="46.414677249267697" lon="11.771184476092458">
        <ele>1953.54</ele>
        <time>2016-03-18T13:21:48Z</time>
      </trkpt>
      <trkpt lat="46.414777832105756" lon="11.77124323323369">
        <ele>1950.1700000000001</ele>
        <time>2016-03-18T13:21:58Z</time>
      </trkpt>
      <trkpt lat="46.414819741621614" lon="11.771282041445374">
        <ele>1948.73</ele>
        <time>2016-03-18T13:22:03Z</time>
      </trkpt>
      <trkpt lat="46.414849245920777" lon="11.771307019516826">
        <ele>1947.77</ele>
        <time>2016-03-18T13:22:06Z</time>
      </trkpt>
      <trkpt lat="46.414873050525784" lon="11.771372649818659">
        <ele>1946.3299999999999</ele>
        <time>2016-03-18T13:22:15Z</time>
      </trkpt>
      <trkpt lat="46.414910014718771" lon="11.771488571539521">
        <ele>1944.4000000000001</ele>
        <time>2016-03-18T13:22:25Z</time>
      </trkpt>
      <trkpt lat="46.414961982518435" lon="11.771625112742186">
        <ele>1941.04</ele>
        <time>2016-03-18T13:22:36Z</time>
      </trkpt>
      <trkpt lat="46.415002550929785" lon="11.771760396659374">
        <ele>1938.6400000000001</ele>
        <time>2016-03-18T13:22:46Z</time>
      </trkpt>
      <trkpt lat="46.415045214816928" lon="11.77191948518157">
        <ele>1936.71</ele>
        <time>2016-03-18T13:22:57Z</time>
      </trkpt>
      <trkpt lat="46.415078490972519" lon="11.772012021392584">
        <ele>1935.27</ele>
        <time>2016-03-18T13:23:04Z</time>
      </trkpt>
      <trkpt lat="46.415118640288711" lon="11.772161722183228">
        <ele>1933.8299999999999</ele>
        <time>2016-03-18T13:23:15Z</time>
      </trkpt>
      <trkpt lat="46.415109252557158" lon="11.772225508466363">
        <ele>1933.3499999999999</ele>
        <time>2016-03-18T13:23:19Z</time>
      </trkpt>
      <trkpt lat="46.415119310840964" lon="11.772257862612605">
        <ele>1932.8699999999999</ele>
        <time>2016-03-18T13:23:22Z</time>
      </trkpt>
      <trkpt lat="46.415100703015924" lon="11.772492891177535">
        <ele>1929.98</ele>
        <time>2016-03-18T13:23:35Z</time>
      </trkpt>
      <trkpt lat="46.415166920050979" lon="11.772650387138128">
        <ele>1928.0599999999999</ele>
        <time>2016-03-18T13:23:46Z</time>
      </trkpt>
      <trkpt lat="46.415198855102062" lon="11.772702941671014">
        <ele>1926.6199999999999</ele>
        <time>2016-03-18T13:23:51Z</time>
      </trkpt>
      <trkpt lat="46.415309580042958" lon="11.77271937020123">
        <ele>1923.25</ele>
        <time>2016-03-18T13:24:01Z</time>
      </trkpt>
      <trkpt lat="46.415409408509731" lon="11.77272574044764">
        <ele>1919.8900000000001</ele>
        <time>2016-03-18T13:24:11Z</time>
      </trkpt>
      <trkpt lat="46.41543623059988" lon="11.772722722962499">
        <ele>1919.4100000000001</ele>
        <time>2016-03-18T13:24:14Z</time>
      </trkpt>
      <trkpt lat="46.415560785681009" lon="11.7726881057024">
        <ele>1916.53</ele>
        <time>2016-03-18T13:24:27Z</time>
      </trkpt>
      <trkpt lat="46.415635803714395" lon="11.772623145952821">
        <ele>1914.5999999999999</ele>
        <time>2016-03-18T13:24:36Z</time>
      </trkpt>
      <trkpt lat="46.415657764300704" lon="11.772598586976528">
        <ele>1914.1199999999999</ele>
        <time>2016-03-18T13:24:39Z</time>
      </trkpt>
      <trkpt lat="46.415718784555793" lon="11.772551061585546">
        <ele>1911.72</ele>
        <time>2016-03-18T13:24:50Z</time>
      </trkpt>
      <trkpt lat="46.415748875588179" lon="11.772519629448652">
        <ele>1911.24</ele>
        <time>2016-03-18T13:24:56Z</time>
      </trkpt>
      <trkpt lat="46.415792712941766" lon="11.772457687184215">
        <ele>1909.8</ele>
        <time>2016-03-18T13:25:01Z</time>
      </trkpt>
      <trkpt lat="46.415810482576489" lon="11.772410664707422">
        <ele>1909.3199999999999</ele>
        <time>2016-03-18T13:25:04Z</time>
      </trkpt>
      <trkpt lat="46.415882566943765" lon="11.772306310012937">
        <ele>1907.8699999999999</ele>
        <time>2016-03-18T13:25:12Z</time>
      </trkpt>
      <trkpt lat="46.415994632989168" lon="11.772186364978552">
        <ele>1905.47</ele>
        <time>2016-03-18T13:25:22Z</time>
      </trkpt>
      <trkpt lat="46.416100161150098" lon="11.772070443257689">
        <ele>1904.51</ele>
        <time>2016-03-18T13:25:33Z</time>
      </trkpt>
      <trkpt lat="46.41619018279016" lon="11.771945804357529">
        <ele>1903.0699999999999</ele>
        <time>2016-03-18T13:25:44Z</time>
      </trkpt>
      <trkpt lat="46.416216166689992" lon="11.771925184875727">
        <ele>1903.0699999999999</ele>
        <time>2016-03-18T13:25:54Z</time>
      </trkpt>
      <trkpt lat="46.416233601048589" lon="11.771950665861368">
        <ele>1903.55</ele>
        <time>2016-03-18T13:26:02Z</time>
      </trkpt>
      <trkpt lat="46.416248101741076" lon="11.771931974217296">
        <ele>1903.0699999999999</ele>
        <time>2016-03-18T13:26:04Z</time>
      </trkpt>
      <trkpt lat="46.416311217471957" lon="11.771895010024309">
        <ele>1903.0699999999999</ele>
        <time>2016-03-18T13:26:15Z</time>
      </trkpt>
      <trkpt lat="46.416263524442911" lon="11.771909678354859">
        <ele>1903.0699999999999</ele>
        <time>2016-03-18T13:26:27Z</time>
      </trkpt>
      <trkpt lat="46.416228655725718" lon="11.771944630891085">
        <ele>1903.0699999999999</ele>
        <time>2016-03-18T13:26:34Z</time>
      </trkpt>
      <trkpt lat="46.41624441370368" lon="11.771946474909782">
        <ele>1902.5899999999999</ele>
        <time>2016-03-18T13:26:45Z</time>
      </trkpt>
      <trkpt lat="46.416244748979807" lon="11.771927364170551">
        <ele>1902.5899999999999</ele>
        <time>2016-03-18T13:26:57Z</time>
      </trkpt>
      <trkpt lat="46.416236702352762" lon="11.771915629506111">
        <ele>1902.5899999999999</ele>
        <time>2016-03-18T13:27:09Z</time>
      </trkpt>
      <trkpt lat="46.416213735938072" lon="11.771911773830652">
        <ele>1903.0699999999999</ele>
        <time>2016-03-18T13:27:20Z</time>
      </trkpt>
      <trkpt lat="46.416207952424884" lon="11.771898781880736">
        <ele>1903.0699999999999</ele>
        <time>2016-03-18T13:27:35Z</time>
      </trkpt>
      <trkpt lat="46.416198899969459" lon="11.771842120215297">
        <ele>1903.0699999999999</ele>
        <time>2016-03-18T13:27:50Z</time>
      </trkpt>
      <trkpt lat="46.416215663775802" lon="11.771927028894424">
        <ele>1903.0699999999999</ele>
        <time>2016-03-18T13:28:02Z</time>
      </trkpt>
      <trkpt lat="46.416236450895667" lon="11.771960640326142">
        <ele>1903.0699999999999</ele>
        <time>2016-03-18T13:28:15Z</time>
      </trkpt>
      <trkpt lat="46.41624734736979" lon="11.772010093554854">
        <ele>1903.55</ele>
        <time>2016-03-18T13:28:32Z</time>
      </trkpt>
      <trkpt lat="46.416264362633228" lon="11.771936416625977">
        <ele>1903.0699999999999</ele>
        <time>2016-03-18T13:28:43Z</time>
      </trkpt>
      <trkpt lat="46.416266961023211" lon="11.771869193762541">
        <ele>1903.0699999999999</ele>
        <time>2016-03-18T13:28:57Z</time>
      </trkpt>
      <trkpt lat="46.416273582726717" lon="11.771918563172221">
        <ele>1903.55</ele>
        <time>2016-03-18T13:29:13Z</time>
      </trkpt>
      <trkpt lat="46.416263189166784" lon="11.771935746073723">
        <ele>1902.5899999999999</ele>
        <time>2016-03-18T13:29:24Z</time>
      </trkpt>
      <trkpt lat="46.416241647675633" lon="11.771960305050015">
        <ele>1902.5899999999999</ele>
        <time>2016-03-18T13:29:33Z</time>
      </trkpt>
      <trkpt lat="46.416240474209189" lon="11.771963490173221">
        <ele>1902.1099999999999</ele>
        <time>2016-03-18T13:29:55Z</time>
      </trkpt>
      <trkpt lat="46.41623804345727" lon="11.771973129361868">
        <ele>1902.5899999999999</ele>
        <time>2016-03-18T13:30:15Z</time>
      </trkpt>
      <trkpt lat="46.416228404268622" lon="11.771941781044006">
        <ele>1902.5899999999999</ele>
        <time>2016-03-18T13:30:40Z</time>
      </trkpt>
      <trkpt lat="46.416226979345083" lon="11.77193901501596">
        <ele>1903.0699999999999</ele>
        <time>2016-03-18T13:30:52Z</time>
      </trkpt>
      <trkpt lat="46.416251705959439" lon="11.771929375827312">
        <ele>1903.55</ele>
        <time>2016-03-18T13:31:00Z</time>
      </trkpt>
      <trkpt lat="46.416263189166784" lon="11.771925101056695">
        <ele>1903.55</ele>
        <time>2016-03-18T13:31:15Z</time>
      </trkpt>
      <trkpt lat="46.416283557191491" lon="11.771909343078732">
        <ele>1903.55</ele>
        <time>2016-03-18T13:31:30Z</time>
      </trkpt>
      <trkpt lat="46.416251370683312" lon="11.771923508495092">
        <ele>1904.03</ele>
        <time>2016-03-18T13:31:45Z</time>
      </trkpt>
      <trkpt lat="46.416254471987486" lon="11.771904062479734">
        <ele>1904.03</ele>
        <time>2016-03-18T13:32:04Z</time>
      </trkpt>
      <trkpt lat="46.416253549978137" lon="11.771932560950518">
        <ele>1904.03</ele>
        <time>2016-03-18T13:32:24Z</time>
      </trkpt>
      <trkpt lat="46.416275929659605" lon="11.77189995534718">
        <ele>1904.03</ele>
        <time>2016-03-18T13:32:36Z</time>
      </trkpt>
      <trkpt lat="46.416420852765441" lon="11.771823763847351">
        <ele>1901.1400000000001</ele>
        <time>2016-03-18T13:32:49Z</time>
      </trkpt>
      <trkpt lat="46.416473742574453" lon="11.771734077483416">
        <ele>1900.1800000000001</ele>
        <time>2016-03-18T13:33:00Z</time>
      </trkpt>
      <trkpt lat="46.416470557451248" lon="11.771577000617981">
        <ele>1900.6600000000001</ele>
        <time>2016-03-18T13:33:13Z</time>
      </trkpt>
      <trkpt lat="46.416454967111349" lon="11.771414643153548">
        <ele>1901.1400000000001</ele>
        <time>2016-03-18T13:33:25Z</time>
      </trkpt>
      <trkpt lat="46.41645161435008" lon="11.771296123042703">
        <ele>1902.5899999999999</ele>
        <time>2016-03-18T13:33:36Z</time>
      </trkpt>
      <trkpt lat="46.416503498330712" lon="11.771203335374594">
        <ele>1902.1099999999999</ele>
        <time>2016-03-18T13:33:46Z</time>
      </trkpt>
      <trkpt lat="46.416627382859588" lon="11.771142482757568">
        <ele>1902.1099999999999</ele>
        <time>2016-03-18T13:33:57Z</time>
      </trkpt>
      <trkpt lat="46.416704077273607" lon="11.771088419482112">
        <ele>1902.5899999999999</ele>
        <time>2016-03-18T13:34:06Z</time>
      </trkpt>
      <trkpt lat="46.416738862171769" lon="11.771028069779277">
        <ele>1902.1099999999999</ele>
        <time>2016-03-18T13:34:13Z</time>
      </trkpt>
      <trkpt lat="46.416775323450565" lon="11.770941987633705">
        <ele>1901.6300000000001</ele>
        <time>2016-03-18T13:34:21Z</time>
      </trkpt>
      <trkpt lat="46.416799547150731" lon="11.770859090611339">
        <ele>1901.1400000000001</ele>
        <time>2016-03-18T13:34:27Z</time>
      </trkpt>
      <trkpt lat="46.416862159967422" lon="11.770756915211678">
        <ele>1900.6600000000001</ele>
        <time>2016-03-18T13:34:36Z</time>
      </trkpt>
      <trkpt lat="46.416902728378773" lon="11.770652141422033">
        <ele>1899.22</ele>
        <time>2016-03-18T13:34:45Z</time>
      </trkpt>
      <trkpt lat="46.416971124708652" lon="11.770551726222038">
        <ele>1898.26</ele>
        <time>2016-03-18T13:34:55Z</time>
      </trkpt>
      <trkpt lat="46.417052932083607" lon="11.770484838634729">
        <ele>1898.26</ele>
        <time>2016-03-18T13:35:05Z</time>
      </trkpt>
      <trkpt lat="46.417138427495956" lon="11.770379561930895">
        <ele>1897.78</ele>
        <time>2016-03-18T13:35:17Z</time>
      </trkpt>
      <trkpt lat="46.417207662016153" lon="11.770260035991669">
        <ele>1897.78</ele>
        <time>2016-03-18T13:35:27Z</time>
      </trkpt>
      <trkpt lat="46.417271615937352" lon="11.770146042108536">
        <ele>1898.26</ele>
        <time>2016-03-18T13:35:38Z</time>
      </trkpt>
      <trkpt lat="46.417367085814476" lon="11.770066497847438">
        <ele>1897.3</ele>
        <time>2016-03-18T13:35:51Z</time>
      </trkpt>
      <trkpt lat="46.417466327548027" lon="11.769987791776657">
        <ele>1896.8199999999999</ele>
        <time>2016-03-18T13:36:02Z</time>
      </trkpt>
      <trkpt lat="46.417578142136335" lon="11.769902044907212">
        <ele>1895.3800000000001</ele>
        <time>2016-03-18T13:36:14Z</time>
      </trkpt>
      <trkpt lat="46.417671767994761" lon="11.769799198955297">
        <ele>1893.9300000000001</ele>
        <time>2016-03-18T13:36:26Z</time>
      </trkpt>
      <trkpt lat="46.417757431045175" lon="11.7696747276932">
        <ele>1892.49</ele>
        <time>2016-03-18T13:36:41Z</time>
      </trkpt>
      <trkpt lat="46.417827419936657" lon="11.769607001915574">
        <ele>1892.01</ele>
        <time>2016-03-18T13:36:50Z</time>
      </trkpt>
      <trkpt lat="46.417882908135653" lon="11.769518237560987">
        <ele>1890.5699999999999</ele>
        <time>2016-03-18T13:37:00Z</time>
      </trkpt>
      <trkpt lat="46.41796245239675" lon="11.769437519833446">
        <ele>1889.6099999999999</ele>
        <time>2016-03-18T13:37:12Z</time>
      </trkpt>
      <trkpt lat="46.418036296963692" lon="11.769330063834786">
        <ele>1888.6500000000001</ele>
        <time>2016-03-18T13:37:24Z</time>
      </trkpt>
      <trkpt lat="46.418090024963021" lon="11.769199138507247">
        <ele>1887.21</ele>
        <time>2016-03-18T13:37:36Z</time>
      </trkpt>
      <trkpt lat="46.418103855103254" lon="11.769084809347987">
        <ele>1886.24</ele>
        <time>2016-03-18T13:37:45Z</time>
      </trkpt>
      <trkpt lat="46.418100837618113" lon="11.768924882635474">
        <ele>1884.3199999999999</ele>
        <time>2016-03-18T13:37:57Z</time>
      </trkpt>
      <trkpt lat="46.418094635009766" lon="11.768810553476214">
        <ele>1883.8399999999999</ele>
        <time>2016-03-18T13:38:04Z</time>
      </trkpt>
      <trkpt lat="46.418101424351335" lon="11.768741654232144">
        <ele>1883.3599999999999</ele>
        <time>2016-03-18T13:38:09Z</time>
      </trkpt>
      <trkpt lat="46.418141657486558" lon="11.768616931512952">
        <ele>1882.8800000000001</ele>
        <time>2016-03-18T13:38:19Z</time>
      </trkpt>
      <trkpt lat="46.418158253654838" lon="11.768511487171054">
        <ele>1882.4000000000001</ele>
        <time>2016-03-18T13:38:27Z</time>
      </trkpt>
      <trkpt lat="46.418189937248826" lon="11.768396319821477">
        <ele>1881.4400000000001</ele>
        <time>2016-03-18T13:38:39Z</time>
      </trkpt>
      <trkpt lat="46.418190021067858" lon="11.768383830785751">
        <ele>1881.4400000000001</ele>
        <time>2016-03-18T13:38:45Z</time>
      </trkpt>
      <trkpt lat="46.418198151513934" lon="11.768339071422815">
        <ele>1881.4400000000001</ele>
        <time>2016-03-18T13:38:49Z</time>
      </trkpt>
      <trkpt lat="46.418235786259174" lon="11.768275368958712">
        <ele>1880.96</ele>
        <time>2016-03-18T13:38:57Z</time>
      </trkpt>
      <trkpt lat="46.418236875906587" lon="11.768277045339346">
        <ele>1881.4400000000001</ele>
        <time>2016-03-18T13:38:58Z</time>
      </trkpt>
      <trkpt lat="46.418298566713929" lon="11.768130948767066">
        <ele>1880</ele>
        <time>2016-03-18T13:39:09Z</time>
      </trkpt>
      <trkpt lat="46.418341649696231" lon="11.768041681498289">
        <ele>1879.03</ele>
        <time>2016-03-18T13:39:17Z</time>
      </trkpt>
      <trkpt lat="46.418379871174693" lon="11.767951492220163">
        <ele>1878.55</ele>
        <time>2016-03-18T13:39:25Z</time>
      </trkpt>
      <trkpt lat="46.418426055461168" lon="11.767887705937028">
        <ele>1878.0699999999999</ele>
        <time>2016-03-18T13:39:32Z</time>
      </trkpt>
      <trkpt lat="46.418450949713588" lon="11.767829786986113">
        <ele>1877.5899999999999</ele>
        <time>2016-03-18T13:39:37Z</time>
      </trkpt>
      <trkpt lat="46.41846327111125" lon="11.767766252160072">
        <ele>1877.5899999999999</ele>
        <time>2016-03-18T13:39:42Z</time>
      </trkpt>
      <trkpt lat="46.418509455397725" lon="11.767611689865589">
        <ele>1877.5899999999999</ele>
        <time>2016-03-18T13:39:55Z</time>
      </trkpt>
      <trkpt lat="46.418572571128607" lon="11.767498198896646">
        <ele>1877.5899999999999</ele>
        <time>2016-03-18T13:40:06Z</time>
      </trkpt>
      <trkpt lat="46.418606182560325" lon="11.767408596351743">
        <ele>1876.1500000000001</ele>
        <time>2016-03-18T13:40:17Z</time>
      </trkpt>
      <trkpt lat="46.41868069767952" lon="11.76739577203989">
        <ele>1876.6300000000001</ele>
        <time>2016-03-18T13:40:27Z</time>
      </trkpt>
      <trkpt lat="46.418713387101889" lon="11.767441369593143">
        <ele>1877.5899999999999</ele>
        <time>2016-03-18T13:40:35Z</time>
      </trkpt>
      <trkpt lat="46.418697545304894" lon="11.76748420111835">
        <ele>1877.1099999999999</ele>
        <time>2016-03-18T13:40:47Z</time>
      </trkpt>
      <trkpt lat="46.418703915551305" lon="11.767489733174443">
        <ele>1877.1099999999999</ele>
        <time>2016-03-18T13:41:06Z</time>
      </trkpt>
      <trkpt lat="46.418721014633775" lon="11.767473556101322">
        <ele>1877.5899999999999</ele>
        <time>2016-03-18T13:41:20Z</time>
      </trkpt>
      <trkpt lat="46.418725792318583" lon="11.767463749274611">
        <ele>1877.1099999999999</ele>
        <time>2016-03-18T13:41:37Z</time>
      </trkpt>
      <trkpt lat="46.418713973835111" lon="11.767474478110671">
        <ele>1877.5899999999999</ele>
        <time>2016-03-18T13:41:50Z</time>
      </trkpt>
      <trkpt lat="46.418737526983023" lon="11.767520662397146">
        <ele>1878.0699999999999</ele>
        <time>2016-03-18T13:42:03Z</time>
      </trkpt>
      <trkpt lat="46.41877356916666" lon="11.767599955201149">
        <ele>1878.55</ele>
        <time>2016-03-18T13:42:13Z</time>
      </trkpt>
      <trkpt lat="46.418840121477842" lon="11.767656281590462">
        <ele>1879.03</ele>
        <time>2016-03-18T13:42:23Z</time>
      </trkpt>
      <trkpt lat="46.418915055692196" lon="11.767651252448559">
        <ele>1879.03</ele>
        <time>2016-03-18T13:42:30Z</time>
      </trkpt>
      <trkpt lat="46.419031815603375" lon="11.767584448680282">
        <ele>1879.03</ele>
        <time>2016-03-18T13:42:43Z</time>
      </trkpt>
      <trkpt lat="46.419131308794022" lon="11.767454026266932">
        <ele>1877.5899999999999</ele>
        <time>2016-03-18T13:42:56Z</time>
      </trkpt>
      <trkpt lat="46.419217810034752" lon="11.767366100102663">
        <ele>1877.1099999999999</ele>
        <time>2016-03-18T13:43:06Z</time>
      </trkpt>
      <trkpt lat="46.419335408136249" lon="11.767259817570448">
        <ele>1875.6700000000001</ele>
        <time>2016-03-18T13:43:19Z</time>
      </trkpt>
      <trkpt lat="46.419438002631068" lon="11.767203155905008">
        <ele>1874.71</ele>
        <time>2016-03-18T13:43:29Z</time>
      </trkpt>
      <trkpt lat="46.419572196900845" lon="11.767221344634891">
        <ele>1874.71</ele>
        <time>2016-03-18T13:43:40Z</time>
      </trkpt>
      <trkpt lat="46.419672025367618" lon="11.767223188653588">
        <ele>1874.23</ele>
        <time>2016-03-18T13:43:51Z</time>
      </trkpt>
      <trkpt lat="46.419751988723874" lon="11.767245652154088">
        <ele>1874.71</ele>
        <time>2016-03-18T13:44:02Z</time>
      </trkpt>
      <trkpt lat="46.419852739199996" lon="11.767302481457591">
        <ele>1874.71</ele>
        <time>2016-03-18T13:44:14Z</time>
      </trkpt>
      <trkpt lat="46.41997947357595" lon="11.767389820888638">
        <ele>1875.1900000000001</ele>
        <time>2016-03-18T13:44:28Z</time>
      </trkpt>
      <trkpt lat="46.420079721137881" lon="11.767406249418855">
        <ele>1875.1900000000001</ele>
        <time>2016-03-18T13:44:39Z</time>
      </trkpt>
      <trkpt lat="46.42011140473187" lon="11.767411027103662">
        <ele>1874.71</ele>
        <time>2016-03-18T13:44:42Z</time>
      </trkpt>
      <trkpt lat="46.420151051133871" lon="11.767395604401827">
        <ele>1874.71</ele>
        <time>2016-03-18T13:44:46Z</time>
      </trkpt>
      <trkpt lat="46.42025456763804" lon="11.767380349338055">
        <ele>1873.75</ele>
        <time>2016-03-18T13:44:58Z</time>
      </trkpt>
      <trkpt lat="46.420307205989957" lon="11.767368614673615">
        <ele>1872.79</ele>
        <time>2016-03-18T13:45:06Z</time>
      </trkpt>
      <trkpt lat="46.420337883755565" lon="11.767226960510015">
        <ele>1871.3399999999999</ele>
        <time>2016-03-18T13:45:17Z</time>
      </trkpt>
      <trkpt lat="46.420334028080106" lon="11.767198797315359">
        <ele>1871.3399999999999</ele>
        <time>2016-03-18T13:45:19Z</time>
      </trkpt>
      <trkpt lat="46.420356156304479" lon="11.767041385173798">
        <ele>1869.4200000000001</ele>
        <time>2016-03-18T13:45:30Z</time>
      </trkpt>
      <trkpt lat="46.420367807149887" lon="11.76701657474041">
        <ele>1869.4200000000001</ele>
        <time>2016-03-18T13:45:32Z</time>
      </trkpt>
      <trkpt lat="46.420372081920505" lon="11.766989836469293">
        <ele>1869.4200000000001</ele>
        <time>2016-03-18T13:45:34Z</time>
      </trkpt>
      <trkpt lat="46.420377530157566" lon="11.766943903639913">
        <ele>1868.46</ele>
        <time>2016-03-18T13:45:44Z</time>
      </trkpt>
      <trkpt lat="46.420359509065747" lon="11.766908699646592">
        <ele>1867.98</ele>
        <time>2016-03-18T13:45:56Z</time>
      </trkpt>
      <trkpt lat="46.420374428853393" lon="11.766896545886993">
        <ele>1867.98</ele>
        <time>2016-03-18T13:46:10Z</time>
      </trkpt>
      <trkpt lat="46.42041290178895" lon="11.766770146787167">
        <ele>1867.02</ele>
        <time>2016-03-18T13:46:20Z</time>
      </trkpt>
      <trkpt lat="46.420422792434692" lon="11.766720190644264">
        <ele>1866.0599999999999</ele>
        <time>2016-03-18T13:46:23Z</time>
      </trkpt>
      <trkpt lat="46.420449865981936" lon="11.766558839008212">
        <ele>1864.6099999999999</ele>
        <time>2016-03-18T13:46:34Z</time>
      </trkpt>
      <trkpt lat="46.420491691678762" lon="11.766496729105711">
        <ele>1863.6500000000001</ele>
        <time>2016-03-18T13:46:46Z</time>
      </trkpt>
      <trkpt lat="46.420483645051718" lon="11.766484323889017">
        <ele>1863.6500000000001</ele>
        <time>2016-03-18T13:47:00Z</time>
      </trkpt>
      <trkpt lat="46.420491775497794" lon="11.766492035239935">
        <ele>1863.6500000000001</ele>
        <time>2016-03-18T13:47:13Z</time>
      </trkpt>
      <trkpt lat="46.420488255098462" lon="11.766517097130418">
        <ele>1863.6500000000001</ele>
        <time>2016-03-18T13:47:27Z</time>
      </trkpt>
      <trkpt lat="46.420485740527511" lon="11.766515001654625">
        <ele>1864.6099999999999</ele>
        <time>2016-03-18T13:47:44Z</time>
      </trkpt>
      <trkpt lat="46.420479537919164" lon="11.76647812128067">
        <ele>1863.6500000000001</ele>
        <time>2016-03-18T13:47:54Z</time>
      </trkpt>
      <trkpt lat="46.420504180714488" lon="11.766510978341103">
        <ele>1863.6500000000001</ele>
        <time>2016-03-18T13:48:02Z</time>
      </trkpt>
      <trkpt lat="46.420507533475757" lon="11.766512151807547">
        <ele>1863.6500000000001</ele>
        <time>2016-03-18T13:48:16Z</time>
      </trkpt>
      <trkpt lat="46.42050233669579" lon="11.76645859144628">
        <ele>1863.6500000000001</ele>
        <time>2016-03-18T13:48:27Z</time>
      </trkpt>
      <trkpt lat="46.420493619516492" lon="11.766463201493025">
        <ele>1863.1700000000001</ele>
        <time>2016-03-18T13:48:39Z</time>
      </trkpt>
      <trkpt lat="46.420510383322835" lon="11.766447192057967">
        <ele>1863.6500000000001</ele>
        <time>2016-03-18T13:48:55Z</time>
      </trkpt>
      <trkpt lat="46.42050233669579" lon="11.766480384394526">
        <ele>1863.1700000000001</ele>
        <time>2016-03-18T13:49:14Z</time>
      </trkpt>
      <trkpt lat="46.420496050268412" lon="11.766462363302708">
        <ele>1863.6500000000001</ele>
        <time>2016-03-18T13:49:29Z</time>
      </trkpt>
      <trkpt lat="46.420500408858061" lon="11.766472002491355">
        <ele>1863.6500000000001</ele>
        <time>2016-03-18T13:49:40Z</time>
      </trkpt>
      <trkpt lat="46.420506527647376" lon="11.766463620588183">
        <ele>1863.6500000000001</ele>
        <time>2016-03-18T13:49:59Z</time>
      </trkpt>
      <trkpt lat="46.420513316988945" lon="11.766464374959469">
        <ele>1863.6500000000001</ele>
        <time>2016-03-18T13:50:12Z</time>
      </trkpt>
      <trkpt lat="46.420509880408645" lon="11.766445599496365">
        <ele>1863.6500000000001</ele>
        <time>2016-03-18T13:50:26Z</time>
      </trkpt>
      <trkpt lat="46.420505354180932" lon="11.766461776569486">
        <ele>1863.6500000000001</ele>
        <time>2016-03-18T13:50:41Z</time>
      </trkpt>
      <trkpt lat="46.420499151572585" lon="11.766451885923743">
        <ele>1863.6500000000001</ele>
        <time>2016-03-18T13:50:51Z</time>
      </trkpt>
      <trkpt lat="46.420503677800298" lon="11.766450125724077">
        <ele>1863.6500000000001</ele>
        <time>2016-03-18T13:51:06Z</time>
      </trkpt>
      <trkpt lat="46.420506108552217" lon="11.76643805578351">
        <ele>1863.6500000000001</ele>
        <time>2016-03-18T13:51:22Z</time>
      </trkpt>
      <trkpt lat="46.420486830174923" lon="11.766416933387518">
        <ele>1863.6500000000001</ele>
        <time>2016-03-18T13:51:37Z</time>
      </trkpt>
      <trkpt lat="46.420490937307477" lon="11.766403689980507">
        <ele>1863.1700000000001</ele>
        <time>2016-03-18T13:51:51Z</time>
      </trkpt>
      <trkpt lat="46.420492697507143" lon="11.766403187066317">
        <ele>1863.6500000000001</ele>
        <time>2016-03-18T13:52:06Z</time>
      </trkpt>
      <trkpt lat="46.420491775497794" lon="11.766408132389188">
        <ele>1863.6500000000001</ele>
        <time>2016-03-18T13:52:23Z</time>
      </trkpt>
      <trkpt lat="46.420495714992285" lon="11.766437385231256">
        <ele>1863.6500000000001</ele>
        <time>2016-03-18T13:52:40Z</time>
      </trkpt>
      <trkpt lat="46.420495295897126" lon="11.766345351934433">
        <ele>1863.1700000000001</ele>
        <time>2016-03-18T13:52:51Z</time>
      </trkpt>
      <trkpt lat="46.420518178492785" lon="11.766223143786192">
        <ele>1861.73</ele>
        <time>2016-03-18T13:53:02Z</time>
      </trkpt>
      <trkpt lat="46.420549359172583" lon="11.76617419347167">
        <ele>1860.77</ele>
        <time>2016-03-18T13:53:12Z</time>
      </trkpt>
      <trkpt lat="46.420553047209978" lon="11.76619028672576">
        <ele>1860.77</ele>
        <time>2016-03-18T13:53:30Z</time>
      </trkpt>
      <trkpt lat="46.4205760974437" lon="11.766202189028263">
        <ele>1860.29</ele>
        <time>2016-03-18T13:53:47Z</time>
      </trkpt>
      <trkpt lat="46.420557238161564" lon="11.766170170158148">
        <ele>1860.29</ele>
        <time>2016-03-18T13:54:02Z</time>
      </trkpt>
      <trkpt lat="46.420555394142866" lon="11.766142761334777">
        <ele>1859.8099999999999</ele>
        <time>2016-03-18T13:54:09Z</time>
      </trkpt>
      <trkpt lat="46.420561345294118" lon="11.76610428839922">
        <ele>1859.8099999999999</ele>
        <time>2016-03-18T13:54:13Z</time>
      </trkpt>
      <trkpt lat="46.420568386092782" lon="11.766037484630942">
        <ele>1859.3299999999999</ele>
        <time>2016-03-18T13:54:17Z</time>
      </trkpt>
      <trkpt lat="46.420582383871078" lon="11.765990713611245">
        <ele>1859.3299999999999</ele>
        <time>2016-03-18T13:54:20Z</time>
      </trkpt>
      <trkpt lat="46.42063912935555" lon="11.765958108007908">
        <ele>1858.3699999999999</ele>
        <time>2016-03-18T13:54:32Z</time>
      </trkpt>
      <trkpt lat="46.420640386641026" lon="11.765957605093718">
        <ele>1858.8499999999999</ele>
        <time>2016-03-18T13:54:37Z</time>
      </trkpt>
      <trkpt lat="46.420654216781259" lon="11.765863308683038">
        <ele>1857.8900000000001</ele>
        <time>2016-03-18T13:54:45Z</time>
      </trkpt>
      <trkpt lat="46.420690594241023" lon="11.765685444697738">
        <ele>1855.96</ele>
        <time>2016-03-18T13:54:57Z</time>
      </trkpt>
      <trkpt lat="46.420719930902123" lon="11.765535157173872">
        <ele>1854.52</ele>
        <time>2016-03-18T13:55:08Z</time>
      </trkpt>
      <trkpt lat="46.420742645859718" lon="11.765346061438322">
        <ele>1853.0799999999999</ele>
        <time>2016-03-18T13:55:18Z</time>
      </trkpt>
      <trkpt lat="46.420772150158882" lon="11.765188230201602">
        <ele>1851.1600000000001</ele>
        <time>2016-03-18T13:55:25Z</time>
      </trkpt>
      <trkpt lat="46.420790757983923" lon="11.765150679275393">
        <ele>1850.6800000000001</ele>
        <time>2016-03-18T13:55:33Z</time>
      </trkpt>
      <trkpt lat="46.420793272554874" lon="11.765111116692424">
        <ele>1850.6800000000001</ele>
        <time>2016-03-18T13:55:35Z</time>
      </trkpt>
      <trkpt lat="46.420786315575242" lon="11.765038529410958">
        <ele>1849.71</ele>
        <time>2016-03-18T13:55:45Z</time>
      </trkpt>
      <trkpt lat="46.420778520405293" lon="11.764896623790264">
        <ele>1848.75</ele>
        <time>2016-03-18T13:55:54Z</time>
      </trkpt>
      <trkpt lat="46.420772233977914" lon="11.764731584116817">
        <ele>1847.3099999999999</ele>
        <time>2016-03-18T13:56:04Z</time>
      </trkpt>
      <trkpt lat="46.420771898701787" lon="11.764547936618328">
        <ele>1845.3900000000001</ele>
        <time>2016-03-18T13:56:15Z</time>
      </trkpt>
      <trkpt lat="46.420791260898113" lon="11.764341909438372">
        <ele>1843.95</ele>
        <time>2016-03-18T13:56:27Z</time>
      </trkpt>
      <trkpt lat="46.42079746350646" lon="11.764287427067757">
        <ele>1843.47</ele>
        <time>2016-03-18T13:56:30Z</time>
      </trkpt>
      <trkpt lat="46.420795284211636" lon="11.764266975224018">
        <ele>1843.47</ele>
        <time>2016-03-18T13:56:31Z</time>
      </trkpt>
      <trkpt lat="46.420795619487762" lon="11.764248786494136">
        <ele>1842.98</ele>
        <time>2016-03-18T13:56:32Z</time>
      </trkpt>
      <trkpt lat="46.420797798782587" lon="11.764232609421015">
        <ele>1842.98</ele>
        <time>2016-03-18T13:56:33Z</time>
      </trkpt>
      <trkpt lat="46.420799558982253" lon="11.764215510338545">
        <ele>1842.98</ele>
        <time>2016-03-18T13:56:34Z</time>
      </trkpt>
      <trkpt lat="46.420805845409632" lon="11.764016356319189">
        <ele>1841.54</ele>
        <time>2016-03-18T13:56:46Z</time>
      </trkpt>
      <trkpt lat="46.420821351930499" lon="11.763838827610016">
        <ele>1839.6199999999999</ele>
        <time>2016-03-18T13:56:56Z</time>
      </trkpt>
      <trkpt lat="46.42085705883801" lon="11.76362450234592">
        <ele>1837.7</ele>
        <time>2016-03-18T13:57:08Z</time>
      </trkpt>
      <trkpt lat="46.420861249789596" lon="11.763610504567623">
        <ele>1837.7</ele>
        <time>2016-03-18T13:57:09Z</time>
      </trkpt>
      <trkpt lat="46.420865273103118" lon="11.763591477647424">
        <ele>1837.22</ele>
        <time>2016-03-18T13:57:10Z</time>
      </trkpt>
      <trkpt lat="46.420873068273067" lon="11.763560213148594">
        <ele>1837.22</ele>
        <time>2016-03-18T13:57:12Z</time>
      </trkpt>
      <trkpt lat="46.42087709158659" lon="11.763546466827393">
        <ele>1837.22</ele>
        <time>2016-03-18T13:57:13Z</time>
      </trkpt>
      <trkpt lat="46.420921767130494" lon="11.763373464345932">
        <ele>1835.29</ele>
        <time>2016-03-18T13:57:24Z</time>
      </trkpt>
      <trkpt lat="46.420946829020977" lon="11.763255698606372">
        <ele>1833.8499999999999</ele>
        <time>2016-03-18T13:57:31Z</time>
      </trkpt>
      <trkpt lat="46.420947248116136" lon="11.763233654201031">
        <ele>1833.8499999999999</ele>
        <time>2016-03-18T13:57:32Z</time>
      </trkpt>
      <trkpt lat="46.420978764072061" lon="11.763081438839436">
        <ele>1832.4100000000001</ele>
        <time>2016-03-18T13:57:42Z</time>
      </trkpt>
      <trkpt lat="46.421015979722142" lon="11.762930732220411">
        <ele>1830.97</ele>
        <time>2016-03-18T13:57:52Z</time>
      </trkpt>
      <trkpt lat="46.421020841225982" lon="11.76291111856699">
        <ele>1830.49</ele>
        <time>2016-03-18T13:57:53Z</time>
      </trkpt>
      <trkpt lat="46.421024696901441" lon="11.762892007827759">
        <ele>1830.97</ele>
        <time>2016-03-18T13:57:54Z</time>
      </trkpt>
      <trkpt lat="46.421074150130153" lon="11.762717496603727">
        <ele>1828.5599999999999</ele>
        <time>2016-03-18T13:58:05Z</time>
      </trkpt>
      <trkpt lat="46.421085717156529" lon="11.762666702270508">
        <ele>1828.5599999999999</ele>
        <time>2016-03-18T13:58:08Z</time>
      </trkpt>
      <trkpt lat="46.421102648600936" lon="11.762616410851479">
        <ele>1827.5999999999999</ele>
        <time>2016-03-18T13:58:12Z</time>
      </trkpt>
      <trkpt lat="46.421130644157529" lon="11.762390015646815">
        <ele>1825.6800000000001</ele>
        <time>2016-03-18T13:58:26Z</time>
      </trkpt>
      <trkpt lat="46.421168027445674" lon="11.762201841920614">
        <ele>1825.2</ele>
        <time>2016-03-18T13:58:38Z</time>
      </trkpt>
      <trkpt lat="46.42121915705502" lon="11.762097487226129">
        <ele>1821.8399999999999</ele>
        <time>2016-03-18T13:58:50Z</time>
      </trkpt>
      <trkpt lat="46.421228963881731" lon="11.762051470577717">
        <ele>1821.8399999999999</ele>
        <time>2016-03-18T13:58:59Z</time>
      </trkpt>
      <trkpt lat="46.421238016337156" lon="11.762034706771374">
        <ele>1822.3199999999999</ele>
        <time>2016-03-18T13:59:00Z</time>
      </trkpt>
      <trkpt lat="46.421246062964201" lon="11.762016685679555">
        <ele>1821.8399999999999</ele>
        <time>2016-03-18T13:59:01Z</time>
      </trkpt>
      <trkpt lat="46.421253941953182" lon="11.761998496949673">
        <ele>1821.8399999999999</ele>
        <time>2016-03-18T13:59:02Z</time>
      </trkpt>
      <trkpt lat="46.421260228380561" lon="11.761980978772044">
        <ele>1821.3499999999999</ele>
        <time>2016-03-18T13:59:03Z</time>
      </trkpt>
      <trkpt lat="46.421265676617622" lon="11.761962287127972">
        <ele>1821.3499999999999</ele>
        <time>2016-03-18T13:59:04Z</time>
      </trkpt>
      <trkpt lat="46.421271795406938" lon="11.761943930760026">
        <ele>1821.3499999999999</ele>
        <time>2016-03-18T13:59:05Z</time>
      </trkpt>
      <trkpt lat="46.421272717416286" lon="11.761928005144">
        <ele>1821.3499999999999</ele>
        <time>2016-03-18T13:59:06Z</time>
      </trkpt>
      <trkpt lat="46.421276237815619" lon="11.76190847530961">
        <ele>1820.8699999999999</ele>
        <time>2016-03-18T13:59:07Z</time>
      </trkpt>
      <trkpt lat="46.421279674395919" lon="11.761888274922967">
        <ele>1820.8699999999999</ele>
        <time>2016-03-18T13:59:08Z</time>
      </trkpt>
      <trkpt lat="46.421284703537822" lon="11.761874025687575">
        <ele>1820.8699999999999</ele>
        <time>2016-03-18T13:59:09Z</time>
      </trkpt>
      <trkpt lat="46.421292833983898" lon="11.761864889413118">
        <ele>1820.8699999999999</ele>
        <time>2016-03-18T13:59:10Z</time>
      </trkpt>
      <trkpt lat="46.421302808448672" lon="11.761854663491249">
        <ele>1820.8699999999999</ele>
        <time>2016-03-18T13:59:11Z</time>
      </trkpt>
      <trkpt lat="46.421310184523463" lon="11.761841587722301">
        <ele>1820.3900000000001</ele>
        <time>2016-03-18T13:59:12Z</time>
      </trkpt>
      <trkpt lat="46.421319404616952" lon="11.761829601600766">
        <ele>1820.3900000000001</ele>
        <time>2016-03-18T13:59:13Z</time>
      </trkpt>
      <trkpt lat="46.42135594971478" lon="11.761899841949344">
        <ele>1820.3900000000001</ele>
        <time>2016-03-18T13:59:21Z</time>
      </trkpt>
      <trkpt lat="46.421352094039321" lon="11.761953653767705">
        <ele>1820.8699999999999</ele>
        <time>2016-03-18T13:59:32Z</time>
      </trkpt>
      <trkpt lat="46.421353351324797" lon="11.761962454766035">
        <ele>1820.8699999999999</ele>
        <time>2016-03-18T13:59:46Z</time>
      </trkpt>
      <trkpt lat="46.421362403780222" lon="11.761927166953683">
        <ele>1820.8699999999999</ele>
        <time>2016-03-18T13:59:55Z</time>
      </trkpt>
      <trkpt lat="46.421369025483727" lon="11.761909564957023">
        <ele>1820.3900000000001</ele>
        <time>2016-03-18T13:59:56Z</time>
      </trkpt>
      <trkpt lat="46.421419400721788" lon="11.761826081201434">
        <ele>1819.9100000000001</ele>
        <time>2016-03-18T14:00:02Z</time>
      </trkpt>
      <trkpt lat="46.421485869213939" lon="11.761802779510617">
        <ele>1819.9100000000001</ele>
        <time>2016-03-18T14:00:12Z</time>
      </trkpt>
      <trkpt lat="46.421482432633638" lon="11.761785848066211">
        <ele>1820.3900000000001</ele>
        <time>2016-03-18T14:00:22Z</time>
      </trkpt>
      <trkpt lat="46.421471619978547" lon="11.761767826974392">
        <ele>1819.9100000000001</ele>
        <time>2016-03-18T14:00:44Z</time>
      </trkpt>
      <trkpt lat="46.421466423198581" lon="11.761773275211453">
        <ele>1820.3900000000001</ele>
        <time>2016-03-18T14:00:59Z</time>
      </trkpt>
      <trkpt lat="46.421478157863021" lon="11.761806467548013">
        <ele>1819.9100000000001</ele>
        <time>2016-03-18T14:01:10Z</time>
      </trkpt>
      <trkpt lat="46.421477403491735" lon="11.761829433962703">
        <ele>1818.95</ele>
        <time>2016-03-18T14:01:20Z</time>
      </trkpt>
      <trkpt lat="46.421467261388898" lon="11.761819962412119">
        <ele>1819.4300000000001</ele>
        <time>2016-03-18T14:01:42Z</time>
      </trkpt>
      <trkpt lat="46.421452509239316" lon="11.761819291859865">
        <ele>1818.95</ele>
        <time>2016-03-18T14:02:04Z</time>
      </trkpt>
      <trkpt lat="46.42147715203464" lon="11.761814430356026">
        <ele>1819.9100000000001</ele>
        <time>2016-03-18T14:02:15Z</time>
      </trkpt>
      <trkpt lat="46.421503135934472" lon="11.761766821146011">
        <ele>1820.3900000000001</ele>
        <time>2016-03-18T14:02:25Z</time>
      </trkpt>
      <trkpt lat="46.421521743759513" lon="11.761775789782405">
        <ele>1820.8699999999999</ele>
        <time>2016-03-18T14:02:35Z</time>
      </trkpt>
      <trkpt lat="46.421545967459679" lon="11.761805545538664">
        <ele>1820.8699999999999</ele>
        <time>2016-03-18T14:02:47Z</time>
      </trkpt>
      <trkpt lat="46.421547392383218" lon="11.761822979897261">
        <ele>1820.8699999999999</ele>
        <time>2016-03-18T14:03:05Z</time>
      </trkpt>
      <trkpt lat="46.421554014086723" lon="11.761853406205773">
        <ele>1820.8699999999999</ele>
        <time>2016-03-18T14:03:27Z</time>
      </trkpt>
      <trkpt lat="46.421550745144486" lon="11.761870756745338">
        <ele>1820.8699999999999</ele>
        <time>2016-03-18T14:03:48Z</time>
      </trkpt>
      <trkpt lat="46.421555522829294" lon="11.761818369850516">
        <ele>1820.8699999999999</ele>
        <time>2016-03-18T14:04:08Z</time>
      </trkpt>
      <trkpt lat="46.421552421525121" lon="11.761853825300932">
        <ele>1820.8699999999999</ele>
        <time>2016-03-18T14:04:30Z</time>
      </trkpt>
      <trkpt lat="46.421560971066356" lon="11.761817615479231">
        <ele>1820.8699999999999</ele>
        <time>2016-03-18T14:04:49Z</time>
      </trkpt>
      <trkpt lat="46.421567089855671" lon="11.761859860271215">
        <ele>1820.8699999999999</ele>
        <time>2016-03-18T14:05:11Z</time>
      </trkpt>
      <trkpt lat="46.421573460102081" lon="11.761753410100937">
        <ele>1820.8699999999999</ele>
        <time>2016-03-18T14:05:31Z</time>
      </trkpt>
      <trkpt lat="46.421571113169193" lon="11.761798923835158">
        <ele>1821.3499999999999</ele>
        <time>2016-03-18T14:05:53Z</time>
      </trkpt>
      <trkpt lat="46.421562898904085" lon="11.761759109795094">
        <ele>1820.8699999999999</ele>
        <time>2016-03-18T14:06:13Z</time>
      </trkpt>
      <trkpt lat="46.421563317999244" lon="11.761819459497929">
        <ele>1820.8699999999999</ele>
        <time>2016-03-18T14:06:45Z</time>
      </trkpt>
      <trkpt lat="46.42155627720058" lon="11.761786434799433">
        <ele>1820.8699999999999</ele>
        <time>2016-03-18T14:07:08Z</time>
      </trkpt>
      <trkpt lat="46.421554600819945" lon="11.761785596609116">
        <ele>1820.8699999999999</ele>
        <time>2016-03-18T14:07:29Z</time>
      </trkpt>
      <trkpt lat="46.421554768458009" lon="11.761773945763707">
        <ele>1820.8699999999999</ele>
        <time>2016-03-18T14:07:54Z</time>
      </trkpt>
      <trkpt lat="46.421541105955839" lon="11.761835049837828">
        <ele>1820.3900000000001</ele>
        <time>2016-03-18T14:08:20Z</time>
      </trkpt>
      <trkpt lat="46.421541022136807" lon="11.761827003210783">
        <ele>1820.3900000000001</ele>
        <time>2016-03-18T14:08:42Z</time>
      </trkpt>
      <trkpt lat="46.421531634405255" lon="11.761767324060202">
        <ele>1820.3900000000001</ele>
        <time>2016-03-18T14:09:08Z</time>
      </trkpt>
      <trkpt lat="46.42154018394649" lon="11.761774029582739">
        <ele>1820.3900000000001</ele>
        <time>2016-03-18T14:09:29Z</time>
      </trkpt>
      <trkpt lat="46.421545213088393" lon="11.761807221919298">
        <ele>1819.9100000000001</ele>
        <time>2016-03-18T14:09:57Z</time>
      </trkpt>
      <trkpt lat="46.421546554192901" lon="11.761780483648181">
        <ele>1819.9100000000001</ele>
        <time>2016-03-18T14:10:26Z</time>
      </trkpt>
      <trkpt lat="46.421561222523451" lon="11.761798840016127">
        <ele>1820.3900000000001</ele>
        <time>2016-03-18T14:10:51Z</time>
      </trkpt>
      <trkpt lat="46.421552002429962" lon="11.761782076209784">
        <ele>1819.9100000000001</ele>
        <time>2016-03-18T14:11:15Z</time>
      </trkpt>
      <trkpt lat="46.421562898904085" lon="11.761795151978731">
        <ele>1819.9100000000001</ele>
        <time>2016-03-18T14:11:39Z</time>
      </trkpt>
      <trkpt lat="46.421568095684052" lon="11.761760450899601">
        <ele>1819.9100000000001</ele>
        <time>2016-03-18T14:12:03Z</time>
      </trkpt>
      <trkpt lat="46.421553930267692" lon="11.761784004047513">
        <ele>1819.9100000000001</ele>
        <time>2016-03-18T14:12:25Z</time>
      </trkpt>
      <trkpt lat="46.421561054885387" lon="11.761790290474892">
        <ele>1819.9100000000001</ele>
        <time>2016-03-18T14:12:49Z</time>
      </trkpt>
      <trkpt lat="46.421538842841983" lon="11.761777298524976">
        <ele>1819.4300000000001</ele>
        <time>2016-03-18T14:13:18Z</time>
      </trkpt>
      <trkpt lat="46.421532472595572" lon="11.761814262717962">
        <ele>1819.4300000000001</ele>
        <time>2016-03-18T14:13:39Z</time>
      </trkpt>
      <trkpt lat="46.42156021669507" lon="11.761821806430817">
        <ele>1819.4300000000001</ele>
        <time>2016-03-18T14:14:11Z</time>
      </trkpt>
      <trkpt lat="46.421552505344152" lon="11.761818034574389">
        <ele>1819.4300000000001</ele>
        <time>2016-03-18T14:14:36Z</time>
      </trkpt>
      <trkpt lat="46.421567257493734" lon="11.761785764247179">
        <ele>1819.4300000000001</ele>
        <time>2016-03-18T14:15:02Z</time>
      </trkpt>
      <trkpt lat="46.421552086248994" lon="11.761777047067881">
        <ele>1819.9100000000001</ele>
        <time>2016-03-18T14:15:26Z</time>
      </trkpt>
      <trkpt lat="46.421564742922783" lon="11.761739160865545">
        <ele>1819.4300000000001</ele>
        <time>2016-03-18T14:15:51Z</time>
      </trkpt>
      <trkpt lat="46.421538339927793" lon="11.761775119230151">
        <ele>1819.4300000000001</ele>
        <time>2016-03-18T14:16:13Z</time>
      </trkpt>
      <trkpt lat="46.421549236401916" lon="11.761804288253188">
        <ele>1819.9100000000001</ele>
        <time>2016-03-18T14:16:31Z</time>
      </trkpt>
      <trkpt lat="46.421543955802917" lon="11.761787105351686">
        <ele>1819.4300000000001</ele>
        <time>2016-03-18T14:17:04Z</time>
      </trkpt>
      <trkpt lat="46.42153917811811" lon="11.76179900765419">
        <ele>1819.9100000000001</ele>
        <time>2016-03-18T14:17:28Z</time>
      </trkpt>
      <trkpt lat="46.421532388776541" lon="11.761807138100266">
        <ele>1819.9100000000001</ele>
        <time>2016-03-18T14:17:51Z</time>
      </trkpt>
      <trkpt lat="46.421553259715438" lon="11.761816358193755">
        <ele>1819.9100000000001</ele>
        <time>2016-03-18T14:18:24Z</time>
      </trkpt>
      <trkpt lat="46.421560803428292" lon="11.761797415092587">
        <ele>1820.3900000000001</ele>
        <time>2016-03-18T14:18:52Z</time>
      </trkpt>
      <trkpt lat="46.421538507565856" lon="11.761803701519966">
        <ele>1819.9100000000001</ele>
        <time>2016-03-18T14:19:16Z</time>
      </trkpt>
      <trkpt lat="46.421553008258343" lon="11.761795068159699">
        <ele>1820.3900000000001</ele>
        <time>2016-03-18T14:19:42Z</time>
      </trkpt>
      <trkpt lat="46.421524845063686" lon="11.761765815317631">
        <ele>1820.3900000000001</ele>
        <time>2016-03-18T14:20:04Z</time>
      </trkpt>
      <trkpt lat="46.42154554836452" lon="11.761815184727311">
        <ele>1820.3900000000001</ele>
        <time>2016-03-18T14:20:31Z</time>
      </trkpt>
      <trkpt lat="46.421526772901416" lon="11.761812083423138">
        <ele>1820.3900000000001</ele>
        <time>2016-03-18T14:20:56Z</time>
      </trkpt>
      <trkpt lat="46.421547643840313" lon="11.761803366243839">
        <ele>1820.3900000000001</ele>
        <time>2016-03-18T14:21:14Z</time>
      </trkpt>
      <trkpt lat="46.421516798436642" lon="11.761793056502938">
        <ele>1820.8699999999999</ele>
        <time>2016-03-18T14:21:21Z</time>
      </trkpt>
      <trkpt lat="46.421501794829965" lon="11.761767491698265">
        <ele>1820.3900000000001</ele>
        <time>2016-03-18T14:21:31Z</time>
      </trkpt>
      <trkpt lat="46.421495005488396" lon="11.761772353202105">
        <ele>1820.3900000000001</ele>
        <time>2016-03-18T14:21:42Z</time>
      </trkpt>
      <trkpt lat="46.421499447897077" lon="11.761855417862535">
        <ele>1819.9100000000001</ele>
        <time>2016-03-18T14:21:53Z</time>
      </trkpt>
      <trkpt lat="46.421454604715109" lon="11.761816777288914">
        <ele>1819.4300000000001</ele>
        <time>2016-03-18T14:22:02Z</time>
      </trkpt>
      <trkpt lat="46.42147027887404" lon="11.761774448677897">
        <ele>1818.47</ele>
        <time>2016-03-18T14:22:13Z</time>
      </trkpt>
      <trkpt lat="46.421470697969198" lon="11.761775622144341">
        <ele>1819.4300000000001</ele>
        <time>2016-03-18T14:22:29Z</time>
      </trkpt>
      <trkpt lat="46.421471033245325" lon="11.761774532496929">
        <ele>1816.0699999999999</ele>
        <time>2016-03-18T14:22:38Z</time>
      </trkpt>
      <trkpt lat="46.421471117064357" lon="11.761773694306612">
        <ele>1816.0699999999999</ele>
        <time>2016-03-18T14:22:39Z</time>
      </trkpt>
      <trkpt lat="46.421471536159515" lon="11.761771431192756">
        <ele>1822.8</ele>
        <time>2016-03-18T14:22:42Z</time>
      </trkpt>
      <trkpt lat="46.421468434855342" lon="11.761767407879233">
        <ele>1818.47</ele>
        <time>2016-03-18T14:22:45Z</time>
      </trkpt>
      <trkpt lat="46.421450832858682" lon="11.761791212484241">
        <ele>1819.4300000000001</ele>
        <time>2016-03-18T14:22:55Z</time>
      </trkpt>
      <trkpt lat="46.421460555866361" lon="11.761794397607446">
        <ele>1819.4300000000001</ele>
        <time>2016-03-18T14:23:11Z</time>
      </trkpt>
      <trkpt lat="46.421440355479717" lon="11.761751566082239">
        <ele>1819.4300000000001</ele>
        <time>2016-03-18T14:23:29Z</time>
      </trkpt>
      <trkpt lat="46.421435493975878" lon="11.761767994612455">
        <ele>1819.4300000000001</ele>
        <time>2016-03-18T14:23:42Z</time>
      </trkpt>
      <trkpt lat="46.421440942212939" lon="11.761760199442506">
        <ele>1819.4300000000001</ele>
        <time>2016-03-18T14:23:59Z</time>
      </trkpt>
      <trkpt lat="46.421433566138148" lon="11.761748883873224">
        <ele>1819.4300000000001</ele>
        <time>2016-03-18T14:24:12Z</time>
      </trkpt>
      <trkpt lat="46.421429961919785" lon="11.761750979349017">
        <ele>1819.4300000000001</ele>
        <time>2016-03-18T14:24:30Z</time>
      </trkpt>
      <trkpt lat="46.421433901414275" lon="11.761750979349017">
        <ele>1819.4300000000001</ele>
        <time>2016-03-18T14:24:47Z</time>
      </trkpt>
      <trkpt lat="46.42143658362329" lon="11.761742010712624">
        <ele>1819.4300000000001</ele>
        <time>2016-03-18T14:24:57Z</time>
      </trkpt>
      <trkpt lat="46.421432811766863" lon="11.761707058176398">
        <ele>1818.95</ele>
        <time>2016-03-18T14:25:01Z</time>
      </trkpt>
      <trkpt lat="46.421411354094744" lon="11.761658359318972">
        <ele>1818.47</ele>
        <time>2016-03-18T14:25:06Z</time>
      </trkpt>
      <trkpt lat="46.421405402943492" lon="11.7616465408355">
        <ele>1818.47</ele>
        <time>2016-03-18T14:25:07Z</time>
      </trkpt>
      <trkpt lat="46.421412695199251" lon="11.761626675724983">
        <ele>1818.47</ele>
        <time>2016-03-18T14:25:16Z</time>
      </trkpt>
      <trkpt lat="46.421425268054008" lon="11.761591639369726">
        <ele>1817.99</ele>
        <time>2016-03-18T14:25:19Z</time>
      </trkpt>
      <trkpt lat="46.421430129557848" lon="11.761573366820812">
        <ele>1818.47</ele>
        <time>2016-03-18T14:25:20Z</time>
      </trkpt>
      <trkpt lat="46.421523336321115" lon="11.761333225294948">
        <ele>1816.0699999999999</ele>
        <time>2016-03-18T14:25:35Z</time>
      </trkpt>
      <trkpt lat="46.421624422073364" lon="11.761190313845873">
        <ele>1815.1099999999999</ele>
        <time>2016-03-18T14:25:46Z</time>
      </trkpt>
      <trkpt lat="46.421705139800906" lon="11.761013455688953">
        <ele>1814.1500000000001</ele>
        <time>2016-03-18T14:25:58Z</time>
      </trkpt>
      <trkpt lat="46.421780744567513" lon="11.760895187035203">
        <ele>1813.1800000000001</ele>
        <time>2016-03-18T14:26:08Z</time>
      </trkpt>
      <trkpt lat="46.421802956610918" lon="11.760858809575438">
        <ele>1813.1800000000001</ele>
        <time>2016-03-18T14:26:11Z</time>
      </trkpt>
      <trkpt lat="46.421880908310413" lon="11.760738110169768">
        <ele>1812.22</ele>
        <time>2016-03-18T14:26:22Z</time>
      </trkpt>
      <trkpt lat="46.421909239143133" lon="11.760683711618185">
        <ele>1811.74</ele>
        <time>2016-03-18T14:26:26Z</time>
      </trkpt>
      <trkpt lat="46.421917034313083" lon="11.760666780173779">
        <ele>1811.74</ele>
        <time>2016-03-18T14:26:27Z</time>
      </trkpt>
      <trkpt lat="46.421925751492381" lon="11.7606570571661">
        <ele>1811.74</ele>
        <time>2016-03-18T14:26:28Z</time>
      </trkpt>
      <trkpt lat="46.421987526118755" lon="11.760547338053584">
        <ele>1811.26</ele>
        <time>2016-03-18T14:26:37Z</time>
      </trkpt>
      <trkpt lat="46.421996494755149" lon="11.760533424094319">
        <ele>1810.78</ele>
        <time>2016-03-18T14:26:38Z</time>
      </trkpt>
      <trkpt lat="46.422054665163159" lon="11.760401660576463">
        <ele>1809.8199999999999</ele>
        <time>2016-03-18T14:26:47Z</time>
      </trkpt>
      <trkpt lat="46.422171927988529" lon="11.760267550125718">
        <ele>1808.3800000000001</ele>
        <time>2016-03-18T14:26:59Z</time>
      </trkpt>
      <trkpt lat="46.422273768112063" lon="11.760115837678313">
        <ele>1807.4200000000001</ele>
        <time>2016-03-18T14:27:11Z</time>
      </trkpt>
      <trkpt lat="46.422374518588185" lon="11.759957922622561">
        <ele>1806.45</ele>
        <time>2016-03-18T14:27:23Z</time>
      </trkpt>
      <trkpt lat="46.422474598512053" lon="11.759782824665308">
        <ele>1805.49</ele>
        <time>2016-03-18T14:27:37Z</time>
      </trkpt>
      <trkpt lat="46.422505443915725" lon="11.759733036160469">
        <ele>1805.49</ele>
        <time>2016-03-18T14:27:41Z</time>
      </trkpt>
      <trkpt lat="46.422511897981167" lon="11.759717864915729">
        <ele>1805.01</ele>
        <time>2016-03-18T14:27:42Z</time>
      </trkpt>
      <trkpt lat="46.422532768920064" lon="11.759697580710053">
        <ele>1805.01</ele>
        <time>2016-03-18T14:27:44Z</time>
      </trkpt>
      <trkpt lat="46.42254383303225" lon="11.75968668423593">
        <ele>1805.01</ele>
        <time>2016-03-18T14:27:45Z</time>
      </trkpt>
      <trkpt lat="46.422552550211549" lon="11.759673357009888">
        <ele>1805.01</ele>
        <time>2016-03-18T14:27:46Z</time>
      </trkpt>
      <trkpt lat="46.422622455283999" lon="11.759506054222584">
        <ele>1804.05</ele>
        <time>2016-03-18T14:27:58Z</time>
      </trkpt>
      <trkpt lat="46.422626646235585" lon="11.75949021242559">
        <ele>1803.5699999999999</ele>
        <time>2016-03-18T14:27:59Z</time>
      </trkpt>
      <trkpt lat="46.422628741711378" lon="11.759474035352468">
        <ele>1803.5699999999999</ele>
        <time>2016-03-18T14:28:00Z</time>
      </trkpt>
      <trkpt lat="46.422631675377488" lon="11.759458109736443">
        <ele>1803.5699999999999</ele>
        <time>2016-03-18T14:28:01Z</time>
      </trkpt>
      <trkpt lat="46.422633854672313" lon="11.75944184884429">
        <ele>1803.5699999999999</ele>
        <time>2016-03-18T14:28:02Z</time>
      </trkpt>
      <trkpt lat="46.422637961804867" lon="11.759425587952137">
        <ele>1803.5699999999999</ele>
        <time>2016-03-18T14:28:03Z</time>
      </trkpt>
      <trkpt lat="46.422670735046268" lon="11.759271444752812">
        <ele>1803.0899999999999</ele>
        <time>2016-03-18T14:28:14Z</time>
      </trkpt>
      <trkpt lat="46.422698060050607" lon="11.75911302678287">
        <ele>1803.0899999999999</ele>
        <time>2016-03-18T14:28:25Z</time>
      </trkpt>
      <trkpt lat="46.422719014808536" lon="11.759028369560838">
        <ele>1802.6099999999999</ele>
        <time>2016-03-18T14:28:37Z</time>
      </trkpt>
      <trkpt lat="46.422755308449268" lon="11.758872466161847">
        <ele>1802.1300000000001</ele>
        <time>2016-03-18T14:28:48Z</time>
      </trkpt>
      <trkpt lat="46.422821441665292" lon="11.758707091212273">
        <ele>1801.6500000000001</ele>
        <time>2016-03-18T14:28:59Z</time>
      </trkpt>
      <trkpt lat="46.42287072725594" lon="11.758585553616285">
        <ele>1801.1700000000001</ele>
        <time>2016-03-18T14:29:08Z</time>
      </trkpt>
      <trkpt lat="46.422928981482983" lon="11.758413892239332">
        <ele>1801.1700000000001</ele>
        <time>2016-03-18T14:29:19Z</time>
      </trkpt>
      <trkpt lat="46.422954378649592" lon="11.758219264447689">
        <ele>1800.21</ele>
        <time>2016-03-18T14:29:31Z</time>
      </trkpt>
      <trkpt lat="46.422954630106688" lon="11.758207948878407">
        <ele>1800.21</ele>
        <time>2016-03-18T14:29:32Z</time>
      </trkpt>
      <trkpt lat="46.42296452075243" lon="11.758027989417315">
        <ele>1799.24</ele>
        <time>2016-03-18T14:29:43Z</time>
      </trkpt>
      <trkpt lat="46.423008106648922" lon="11.757808467373252">
        <ele>1798.28</ele>
        <time>2016-03-18T14:29:55Z</time>
      </trkpt>
      <trkpt lat="46.423054626211524" lon="11.757629597559571">
        <ele>1797.3199999999999</ele>
        <time>2016-03-18T14:30:06Z</time>
      </trkpt>
      <trkpt lat="46.423117574304342" lon="11.757442345842719">
        <ele>1796.3599999999999</ele>
        <time>2016-03-18T14:30:18Z</time>
      </trkpt>
      <trkpt lat="46.423197956755757" lon="11.757236486300826">
        <ele>1794.9200000000001</ele>
        <time>2016-03-18T14:30:31Z</time>
      </trkpt>
      <trkpt lat="46.423269622027874" lon="11.757049402222037">
        <ele>1793.48</ele>
        <time>2016-03-18T14:30:43Z</time>
      </trkpt>
      <trkpt lat="46.423352854326367" lon="11.756844129413366">
        <ele>1792.03</ele>
        <time>2016-03-18T14:30:57Z</time>
      </trkpt>
      <trkpt lat="46.423373892903328" lon="11.756808087229729">
        <ele>1792.03</ele>
        <time>2016-03-18T14:31:00Z</time>
      </trkpt>
      <trkpt lat="46.423377161845565" lon="11.756794005632401">
        <ele>1791.55</ele>
        <time>2016-03-18T14:31:01Z</time>
      </trkpt>
      <trkpt lat="46.423382693901658" lon="11.756775481626391">
        <ele>1791.55</ele>
        <time>2016-03-18T14:31:02Z</time>
      </trkpt>
      <trkpt lat="46.423403564840555" lon="11.756641371175647">
        <ele>1790.1099999999999</ele>
        <time>2016-03-18T14:31:10Z</time>
      </trkpt>
      <trkpt lat="46.423467099666595" lon="11.756411036476493">
        <ele>1787.23</ele>
        <time>2016-03-18T14:31:23Z</time>
      </trkpt>
      <trkpt lat="46.423516720533371" lon="11.756237866356969">
        <ele>1785.79</ele>
        <time>2016-03-18T14:31:33Z</time>
      </trkpt>
      <trkpt lat="46.423522587865591" lon="11.756221605464816">
        <ele>1785.79</ele>
        <time>2016-03-18T14:31:34Z</time>
      </trkpt>
      <trkpt lat="46.423528203740716" lon="11.756205931305885">
        <ele>1785.79</ele>
        <time>2016-03-18T14:31:35Z</time>
      </trkpt>
      <trkpt lat="46.423535412177444" lon="11.756192604079843">
        <ele>1785.3099999999999</ele>
        <time>2016-03-18T14:31:36Z</time>
      </trkpt>
      <trkpt lat="46.423542955890298" lon="11.756178522482514">
        <ele>1785.3099999999999</ele>
        <time>2016-03-18T14:31:37Z</time>
      </trkpt>
      <trkpt lat="46.423572711646557" lon="11.756092607975006">
        <ele>1784.8199999999999</ele>
        <time>2016-03-18T14:31:42Z</time>
      </trkpt>
      <trkpt lat="46.423576232045889" lon="11.756074419245124">
        <ele>1784.8199999999999</ele>
        <time>2016-03-18T14:31:43Z</time>
      </trkpt>
      <trkpt lat="46.423580506816506" lon="11.756055727601051">
        <ele>1784.3399999999999</ele>
        <time>2016-03-18T14:31:44Z</time>
      </trkpt>
      <trkpt lat="46.423587212339044" lon="11.756040640175343">
        <ele>1784.3399999999999</ele>
        <time>2016-03-18T14:31:45Z</time>
      </trkpt>
      <trkpt lat="46.423595007508993" lon="11.756025971844792">
        <ele>1784.3399999999999</ele>
        <time>2016-03-18T14:31:46Z</time>
      </trkpt>
      <trkpt lat="46.423601461574435" lon="11.756008956581354">
        <ele>1783.8599999999999</ele>
        <time>2016-03-18T14:31:47Z</time>
      </trkpt>
      <trkpt lat="46.423607831820846" lon="11.755990348756313">
        <ele>1783.8599999999999</ele>
        <time>2016-03-18T14:31:48Z</time>
      </trkpt>
      <trkpt lat="46.423622081056237" lon="11.755955144762993">
        <ele>1783.8599999999999</ele>
        <time>2016-03-18T14:31:50Z</time>
      </trkpt>
      <trkpt lat="46.423630798235536" lon="11.755941482260823">
        <ele>1783.3800000000001</ele>
        <time>2016-03-18T14:31:51Z</time>
      </trkpt>
      <trkpt lat="46.423637419939041" lon="11.755923628807068">
        <ele>1783.3800000000001</ele>
        <time>2016-03-18T14:31:52Z</time>
      </trkpt>
      <trkpt lat="46.423641024157405" lon="11.755907787010074">
        <ele>1783.3800000000001</ele>
        <time>2016-03-18T14:31:53Z</time>
      </trkpt>
      <trkpt lat="46.423644796013832" lon="11.755893537774682">
        <ele>1782.9000000000001</ele>
        <time>2016-03-18T14:31:54Z</time>
      </trkpt>
      <trkpt lat="46.423649406060576" lon="11.755878534168005">
        <ele>1782.9000000000001</ele>
        <time>2016-03-18T14:31:55Z</time>
      </trkpt>
      <trkpt lat="46.423656614497304" lon="11.755865123122931">
        <ele>1782.9000000000001</ele>
        <time>2016-03-18T14:31:56Z</time>
      </trkpt>
      <trkpt lat="46.423664577305317" lon="11.755852969363332">
        <ele>1782.4200000000001</ele>
        <time>2016-03-18T14:31:57Z</time>
      </trkpt>
      <trkpt lat="46.423674384132028" lon="11.75583872012794">
        <ele>1782.4200000000001</ele>
        <time>2016-03-18T14:31:58Z</time>
      </trkpt>
      <trkpt lat="46.423745965585113" lon="11.755645768716931">
        <ele>1780.5</ele>
        <time>2016-03-18T14:32:10Z</time>
      </trkpt>
      <trkpt lat="46.423748899251223" lon="11.755626993253827">
        <ele>1780.5</ele>
        <time>2016-03-18T14:32:11Z</time>
      </trkpt>
      <trkpt lat="46.423753257840872" lon="11.75561198964715">
        <ele>1780.02</ele>
        <time>2016-03-18T14:32:12Z</time>
      </trkpt>
      <trkpt lat="46.423758622258902" lon="11.755596064031124">
        <ele>1780.02</ele>
        <time>2016-03-18T14:32:13Z</time>
      </trkpt>
      <trkpt lat="46.423765914514661" lon="11.755580389872193">
        <ele>1780.02</ele>
        <time>2016-03-18T14:32:14Z</time>
      </trkpt>
      <trkpt lat="46.42376977019012" lon="11.755565889179707">
        <ele>1780.02</ele>
        <time>2016-03-18T14:32:15Z</time>
      </trkpt>
      <trkpt lat="46.423771446570754" lon="11.755551053211093">
        <ele>1780.02</ele>
        <time>2016-03-18T14:32:16Z</time>
      </trkpt>
      <trkpt lat="46.423816457390785" lon="11.755347205325961">
        <ele>1779.0599999999999</ele>
        <time>2016-03-18T14:32:28Z</time>
      </trkpt>
      <trkpt lat="46.423830706626177" lon="11.75526212900877">
        <ele>1778.5799999999999</ele>
        <time>2016-03-18T14:32:33Z</time>
      </trkpt>
      <trkpt lat="46.423834646120667" lon="11.755241593346">
        <ele>1778.5799999999999</ele>
        <time>2016-03-18T14:32:34Z</time>
      </trkpt>
      <trkpt lat="46.423838417977095" lon="11.755221309140325">
        <ele>1778.5799999999999</ele>
        <time>2016-03-18T14:32:35Z</time>
      </trkpt>
      <trkpt lat="46.42384210601449" lon="11.755206556990743">
        <ele>1778.5799999999999</ele>
        <time>2016-03-18T14:32:36Z</time>
      </trkpt>
      <trkpt lat="46.423845123499632" lon="11.755192475393414">
        <ele>1778.0999999999999</ele>
        <time>2016-03-18T14:32:37Z</time>
      </trkpt>
      <trkpt lat="46.423848560079932" lon="11.755178645253181">
        <ele>1778.0999999999999</ele>
        <time>2016-03-18T14:32:38Z</time>
      </trkpt>
      <trkpt lat="46.423851912841201" lon="11.755162803456187">
        <ele>1778.0999999999999</ele>
        <time>2016-03-18T14:32:39Z</time>
      </trkpt>
      <trkpt lat="46.423855265602469" lon="11.755144698545337">
        <ele>1778.0999999999999</ele>
        <time>2016-03-18T14:32:40Z</time>
      </trkpt>
      <trkpt lat="46.423859121277928" lon="11.755129359662533">
        <ele>1777.6099999999999</ele>
        <time>2016-03-18T14:32:41Z</time>
      </trkpt>
      <trkpt lat="46.423863898962736" lon="11.755113014951348">
        <ele>1777.6099999999999</ele>
        <time>2016-03-18T14:32:42Z</time>
      </trkpt>
      <trkpt lat="46.423867419362068" lon="11.755093904212117">
        <ele>1777.1300000000001</ele>
        <time>2016-03-18T14:32:43Z</time>
      </trkpt>
      <trkpt lat="46.42392567358911" lon="11.754825012758374">
        <ele>1775.6900000000001</ele>
        <time>2016-03-18T14:32:58Z</time>
      </trkpt>
      <trkpt lat="46.423966158181429" lon="11.754602221772075">
        <ele>1772.8099999999999</ele>
        <time>2016-03-18T14:33:11Z</time>
      </trkpt>
      <trkpt lat="46.423967164009809" lon="11.754582859575748">
        <ele>1772.8099999999999</ele>
        <time>2016-03-18T14:33:12Z</time>
      </trkpt>
      <trkpt lat="46.423967331647873" lon="11.754567185416818">
        <ele>1772.3299999999999</ele>
        <time>2016-03-18T14:33:13Z</time>
      </trkpt>
      <trkpt lat="46.423967499285936" lon="11.754546985030174">
        <ele>1772.3299999999999</ele>
        <time>2016-03-18T14:33:14Z</time>
      </trkpt>
      <trkpt lat="46.423967918381095" lon="11.754528544843197">
        <ele>1772.3299999999999</ele>
        <time>2016-03-18T14:33:15Z</time>
      </trkpt>
      <trkpt lat="46.423968756571412" lon="11.754509769380093">
        <ele>1771.8499999999999</ele>
        <time>2016-03-18T14:33:16Z</time>
      </trkpt>
      <trkpt lat="46.423968756571412" lon="11.754489149898291">
        <ele>1771.8499999999999</ele>
        <time>2016-03-18T14:33:17Z</time>
      </trkpt>
      <trkpt lat="46.42396867275238" lon="11.754469033330679">
        <ele>1771.8499999999999</ele>
        <time>2016-03-18T14:33:18Z</time>
      </trkpt>
      <trkpt lat="46.423968505114317" lon="11.754449838772416">
        <ele>1771.3699999999999</ele>
        <time>2016-03-18T14:33:19Z</time>
      </trkpt>
      <trkpt lat="46.42395400442183" lon="11.754216402769089">
        <ele>1768.96</ele>
        <time>2016-03-18T14:33:32Z</time>
      </trkpt>
      <trkpt lat="46.42393640242517" lon="11.754105426371098">
        <ele>1767.52</ele>
        <time>2016-03-18T14:33:43Z</time>
      </trkpt>
      <trkpt lat="46.423940677195787" lon="11.754113724455237">
        <ele>1766.5599999999999</ele>
        <time>2016-03-18T14:33:50Z</time>
      </trkpt>
      <trkpt lat="46.423950148746371" lon="11.754112970083952">
        <ele>1767.04</ele>
        <time>2016-03-18T14:34:16Z</time>
      </trkpt>
      <trkpt lat="46.423940341919661" lon="11.754128141328692">
        <ele>1767.52</ele>
        <time>2016-03-18T14:34:23Z</time>
      </trkpt>
      <trkpt lat="46.423939252272248" lon="11.754108443856239">
        <ele>1767.52</ele>
        <time>2016-03-18T14:34:38Z</time>
      </trkpt>
      <trkpt lat="46.423932798206806" lon="11.754097379744053">
        <ele>1767.52</ele>
        <time>2016-03-18T14:34:48Z</time>
      </trkpt>
      <trkpt lat="46.423956602811813" lon="11.754062846302986">
        <ele>1767.52</ele>
        <time>2016-03-18T14:34:58Z</time>
      </trkpt>
      <trkpt lat="46.423958446830511" lon="11.754044741392136">
        <ele>1767.04</ele>
        <time>2016-03-18T14:34:59Z</time>
      </trkpt>
      <trkpt lat="46.423964817076921" lon="11.753813400864601">
        <ele>1764.6400000000001</ele>
        <time>2016-03-18T14:35:12Z</time>
      </trkpt>
      <trkpt lat="46.423997841775417" lon="11.753579881042242">
        <ele>1763.2</ele>
        <time>2016-03-18T14:35:25Z</time>
      </trkpt>
      <trkpt lat="46.424039583653212" lon="11.753358263522387">
        <ele>1761.75</ele>
        <time>2016-03-18T14:35:37Z</time>
      </trkpt>
      <trkpt lat="46.424091467633843" lon="11.753119630739093">
        <ele>1760.3099999999999</ele>
        <time>2016-03-18T14:35:50Z</time>
      </trkpt>
      <trkpt lat="46.424144776538014" lon="11.752876471728086">
        <ele>1758.8699999999999</ele>
        <time>2016-03-18T14:36:04Z</time>
      </trkpt>
      <trkpt lat="46.424164054915309" lon="11.75262694247067">
        <ele>1757.9100000000001</ele>
        <time>2016-03-18T14:36:18Z</time>
      </trkpt>
      <trkpt lat="46.424158941954374" lon="11.752368360757828">
        <ele>1756.95</ele>
        <time>2016-03-18T14:36:32Z</time>
      </trkpt>
      <trkpt lat="46.424145782366395" lon="11.75214221701026">
        <ele>1756.47</ele>
        <time>2016-03-18T14:36:44Z</time>
      </trkpt>
      <trkpt lat="46.424139915034175" lon="11.751922611147165">
        <ele>1755.99</ele>
        <time>2016-03-18T14:36:56Z</time>
      </trkpt>
      <trkpt lat="46.424130946397781" lon="11.751688839867711">
        <ele>1755.99</ele>
        <time>2016-03-18T14:37:09Z</time>
      </trkpt>
      <trkpt lat="46.424132958054543" lon="11.751541737467051">
        <ele>1755.99</ele>
        <time>2016-03-18T14:37:18Z</time>
      </trkpt>
      <trkpt lat="46.424142764881253" lon="11.751425983384252">
        <ele>1755.5</ele>
        <time>2016-03-18T14:37:30Z</time>
      </trkpt>
      <trkpt lat="46.424150727689266" lon="11.751295225694776">
        <ele>1755.5</ele>
        <time>2016-03-18T14:37:38Z</time>
      </trkpt>
      <trkpt lat="46.424150057137012" lon="11.751153403893113">
        <ele>1755.02</ele>
        <time>2016-03-18T14:37:49Z</time>
      </trkpt>
      <trkpt lat="46.424169335514307" lon="11.751007391139865">
        <ele>1754.54</ele>
        <time>2016-03-18T14:37:56Z</time>
      </trkpt>
      <trkpt lat="46.424181321635842" lon="11.750793904066086">
        <ele>1754.0599999999999</ele>
        <time>2016-03-18T14:38:08Z</time>
      </trkpt>
      <trkpt lat="46.424171682447195" lon="11.750527359545231">
        <ele>1753.5799999999999</ele>
        <time>2016-03-18T14:38:22Z</time>
      </trkpt>
      <trkpt lat="46.424193726852536" lon="11.750283613801003">
        <ele>1753.0999999999999</ele>
        <time>2016-03-18T14:38:35Z</time>
      </trkpt>
      <trkpt lat="46.42420663498342" lon="11.75017599016428">
        <ele>1753.0999999999999</ele>
        <time>2016-03-18T14:38:41Z</time>
      </trkpt>
      <trkpt lat="46.424231696873903" lon="11.749928891658783">
        <ele>1751.6600000000001</ele>
        <time>2016-03-18T14:38:55Z</time>
      </trkpt>
      <trkpt lat="46.42426966689527" lon="11.749708950519562">
        <ele>1750.22</ele>
        <time>2016-03-18T14:39:07Z</time>
      </trkpt>
      <trkpt lat="46.424293303862214" lon="11.749525303021073">
        <ele>1749.26</ele>
        <time>2016-03-18T14:39:18Z</time>
      </trkpt>
      <trkpt lat="46.424296069890261" lon="11.749508455395699">
        <ele>1749.26</ele>
        <time>2016-03-18T14:39:19Z</time>
      </trkpt>
      <trkpt lat="46.424299674108624" lon="11.749491691589355">
        <ele>1749.26</ele>
        <time>2016-03-18T14:39:20Z</time>
      </trkpt>
      <trkpt lat="46.424302188679576" lon="11.749474760144949">
        <ele>1749.26</ele>
        <time>2016-03-18T14:39:21Z</time>
      </trkpt>
      <trkpt lat="46.424352815374732" lon="11.749234283342957">
        <ele>1748.29</ele>
        <time>2016-03-18T14:39:36Z</time>
      </trkpt>
      <trkpt lat="46.424401095137" lon="11.749035380780697">
        <ele>1746.3699999999999</ele>
        <time>2016-03-18T14:39:48Z</time>
      </trkpt>
      <trkpt lat="46.42445188947022" lon="11.748820217326283">
        <ele>1744.45</ele>
        <time>2016-03-18T14:40:00Z</time>
      </trkpt>
      <trkpt lat="46.424456918612123" lon="11.748788617551327">
        <ele>1743.97</ele>
        <time>2016-03-18T14:40:02Z</time>
      </trkpt>
      <trkpt lat="46.424461361020803" lon="11.748773194849491">
        <ele>1743.97</ele>
        <time>2016-03-18T14:40:03Z</time>
      </trkpt>
      <trkpt lat="46.424511317163706" lon="11.748541351407766">
        <ele>1741.5699999999999</ele>
        <time>2016-03-18T14:40:16Z</time>
      </trkpt>
      <trkpt lat="46.424565883353353" lon="11.748405480757356">
        <ele>1740.5999999999999</ele>
        <time>2016-03-18T14:40:24Z</time>
      </trkpt>
      <trkpt lat="46.424568062648177" lon="11.748387962579727">
        <ele>1740.5999999999999</ele>
        <time>2016-03-18T14:40:25Z</time>
      </trkpt>
      <trkpt lat="46.424569906666875" lon="11.748367846012115">
        <ele>1740.5999999999999</ele>
        <time>2016-03-18T14:40:26Z</time>
      </trkpt>
      <trkpt lat="46.424575690180063" lon="11.748352088034153">
        <ele>1740.1199999999999</ele>
        <time>2016-03-18T14:40:27Z</time>
      </trkpt>
      <trkpt lat="46.424580300226808" lon="11.748334234580398">
        <ele>1740.1199999999999</ele>
        <time>2016-03-18T14:40:28Z</time>
      </trkpt>
      <trkpt lat="46.424587005749345" lon="11.748320572078228">
        <ele>1740.1199999999999</ele>
        <time>2016-03-18T14:40:29Z</time>
      </trkpt>
      <trkpt lat="46.424619276076555" lon="11.748245302587748">
        <ele>1739.6400000000001</ele>
        <time>2016-03-18T14:40:34Z</time>
      </trkpt>
      <trkpt lat="46.424664705991745" lon="11.7480250261724">
        <ele>1738.2</ele>
        <time>2016-03-18T14:40:47Z</time>
      </trkpt>
      <trkpt lat="46.424736119806767" lon="11.747797541320324">
        <ele>1737.24</ele>
        <time>2016-03-18T14:41:00Z</time>
      </trkpt>
      <trkpt lat="46.424800409004092" lon="11.747586065903306">
        <ele>1735.8</ele>
        <time>2016-03-18T14:41:11Z</time>
      </trkpt>
      <trkpt lat="46.424821699038148" lon="11.747308876365423">
        <ele>1735.3199999999999</ele>
        <time>2016-03-18T14:41:25Z</time>
      </trkpt>
      <trkpt lat="46.424827817827463" lon="11.747041745111346">
        <ele>1734.3599999999999</ele>
        <time>2016-03-18T14:41:39Z</time>
      </trkpt>
      <trkpt lat="46.424832427874207" lon="11.74680981785059">
        <ele>1733.8800000000001</ele>
        <time>2016-03-18T14:41:52Z</time>
      </trkpt>
      <trkpt lat="46.4248276501894" lon="11.746601611375809">
        <ele>1733.3900000000001</ele>
        <time>2016-03-18T14:42:04Z</time>
      </trkpt>
      <trkpt lat="46.424819435924292" lon="11.746425591409206">
        <ele>1733.3900000000001</ele>
        <time>2016-03-18T14:42:15Z</time>
      </trkpt>
      <trkpt lat="46.424806779250503" lon="11.746221743524075">
        <ele>1732.9100000000001</ele>
        <time>2016-03-18T14:42:28Z</time>
      </trkpt>
      <trkpt lat="46.424784064292908" lon="11.746017644181848">
        <ele>1732.4300000000001</ele>
        <time>2016-03-18T14:42:40Z</time>
      </trkpt>
      <trkpt lat="46.424738969653845" lon="11.745798792690039">
        <ele>1731.95</ele>
        <time>2016-03-18T14:42:53Z</time>
      </trkpt>
      <trkpt lat="46.424683481454849" lon="11.745644398033619">
        <ele>1730.99</ele>
        <time>2016-03-18T14:43:04Z</time>
      </trkpt>
      <trkpt lat="46.424637716263533" lon="11.745469132438302">
        <ele>1730.51</ele>
        <time>2016-03-18T14:43:15Z</time>
      </trkpt>
      <trkpt lat="46.424597818404436" lon="11.745238965377212">
        <ele>1730.03</ele>
        <time>2016-03-18T14:43:28Z</time>
      </trkpt>
      <trkpt lat="46.424576109275222" lon="11.745014581829309">
        <ele>1728.5899999999999</ele>
        <time>2016-03-18T14:43:41Z</time>
      </trkpt>
      <trkpt lat="46.424573510885239" lon="11.744998237118125">
        <ele>1728.5899999999999</ele>
        <time>2016-03-18T14:43:42Z</time>
      </trkpt>
      <trkpt lat="46.424561692401767" lon="11.744767818599939">
        <ele>1728.1099999999999</ele>
        <time>2016-03-18T14:43:56Z</time>
      </trkpt>
      <trkpt lat="46.424566637724638" lon="11.744729680940509">
        <ele>1727.6300000000001</ele>
        <time>2016-03-18T14:43:59Z</time>
      </trkpt>
      <trkpt lat="46.424566973000765" lon="11.744712665677071">
        <ele>1727.6300000000001</ele>
        <time>2016-03-18T14:44:00Z</time>
      </trkpt>
      <trkpt lat="46.424568733200431" lon="11.744693219661713">
        <ele>1727.6300000000001</ele>
        <time>2016-03-18T14:44:01Z</time>
      </trkpt>
      <trkpt lat="46.424570493400097" lon="11.744504794478416">
        <ele>1726.6700000000001</ele>
        <time>2016-03-18T14:44:12Z</time>
      </trkpt>
      <trkpt lat="46.424572505056858" lon="11.744293654337525">
        <ele>1726.1800000000001</ele>
        <time>2016-03-18T14:44:25Z</time>
      </trkpt>
      <trkpt lat="46.424573678523302" lon="11.744276806712151">
        <ele>1726.1800000000001</ele>
        <time>2016-03-18T14:44:26Z</time>
      </trkpt>
      <trkpt lat="46.424571918323636" lon="11.744072623550892">
        <ele>1725.7</ele>
        <time>2016-03-18T14:44:38Z</time>
      </trkpt>
      <trkpt lat="46.424557669088244" lon="11.743861483410001">
        <ele>1724.74</ele>
        <time>2016-03-18T14:44:50Z</time>
      </trkpt>
      <trkpt lat="46.424539899453521" lon="11.743638776242733">
        <ele>1723.3</ele>
        <time>2016-03-18T14:45:02Z</time>
      </trkpt>
      <trkpt lat="46.424524057656527" lon="11.743424953892827">
        <ele>1722.3399999999999</ele>
        <time>2016-03-18T14:45:14Z</time>
      </trkpt>
      <trkpt lat="46.424531014636159" lon="11.743347002193332">
        <ele>1721.8599999999999</ele>
        <time>2016-03-18T14:45:25Z</time>
      </trkpt>
      <trkpt lat="46.42455892637372" lon="11.74313435330987">
        <ele>1721.3800000000001</ele>
        <time>2016-03-18T14:45:37Z</time>
      </trkpt>
      <trkpt lat="46.424590442329645" lon="11.742893373593688">
        <ele>1721.3800000000001</ele>
        <time>2016-03-18T14:45:50Z</time>
      </trkpt>
      <trkpt lat="46.424595220014453" lon="11.74285632558167">
        <ele>1719.46</ele>
        <time>2016-03-18T14:45:52Z</time>
      </trkpt>
      <trkpt lat="46.424598740413785" lon="11.74266773276031">
        <ele>1719.9400000000001</ele>
        <time>2016-03-18T14:46:03Z</time>
      </trkpt>
      <trkpt lat="46.424594968557358" lon="11.742423232644796">
        <ele>1718.49</ele>
        <time>2016-03-18T14:46:17Z</time>
      </trkpt>
      <trkpt lat="46.424560770392418" lon="11.742182169109583">
        <ele>1718.01</ele>
        <time>2016-03-18T14:46:31Z</time>
      </trkpt>
      <trkpt lat="46.424499917775393" lon="11.741967843845487">
        <ele>1717.05</ele>
        <time>2016-03-18T14:46:44Z</time>
      </trkpt>
      <trkpt lat="46.424444178119302" lon="11.741765085607767">
        <ele>1716.5699999999999</ele>
        <time>2016-03-18T14:46:57Z</time>
      </trkpt>
      <trkpt lat="46.424381900578737" lon="11.741575822234154">
        <ele>1716.0899999999999</ele>
        <time>2016-03-18T14:47:09Z</time>
      </trkpt>
      <trkpt lat="46.424330268055201" lon="11.741354204714298">
        <ele>1715.6099999999999</ele>
        <time>2016-03-18T14:47:23Z</time>
      </trkpt>
      <trkpt lat="46.424279222264886" lon="11.74119302071631">
        <ele>1715.1300000000001</ele>
        <time>2016-03-18T14:47:34Z</time>
      </trkpt>
      <trkpt lat="46.424223650246859" lon="11.741022616624832">
        <ele>1714.6500000000001</ele>
        <time>2016-03-18T14:47:45Z</time>
      </trkpt>
      <trkpt lat="46.42418023198843" lon="11.740913400426507">
        <ele>1714.1700000000001</ele>
        <time>2016-03-18T14:47:53Z</time>
      </trkpt>
      <trkpt lat="46.424172185361385" lon="11.740890769287944">
        <ele>1714.1700000000001</ele>
        <time>2016-03-18T14:47:55Z</time>
      </trkpt>
      <trkpt lat="46.424166988581419" lon="11.740875262767076">
        <ele>1714.1700000000001</ele>
        <time>2016-03-18T14:47:56Z</time>
      </trkpt>
      <trkpt lat="46.424161959439516" lon="11.740857157856226">
        <ele>1713.6900000000001</ele>
        <time>2016-03-18T14:47:57Z</time>
      </trkpt>
      <trkpt lat="46.424156343564391" lon="11.74083880148828">
        <ele>1713.6900000000001</ele>
        <time>2016-03-18T14:47:58Z</time>
      </trkpt>
      <trkpt lat="46.424149386584759" lon="11.740819355472922">
        <ele>1713.6900000000001</ele>
        <time>2016-03-18T14:47:59Z</time>
      </trkpt>
      <trkpt lat="46.424141339957714" lon="11.740802759304643">
        <ele>1713.6900000000001</ele>
        <time>2016-03-18T14:48:00Z</time>
      </trkpt>
      <trkpt lat="46.424068668857217" lon="11.74058323726058">
        <ele>1711.76</ele>
        <time>2016-03-18T14:48:13Z</time>
      </trkpt>
      <trkpt lat="46.424059197306633" lon="11.740528335794806">
        <ele>1711.28</ele>
        <time>2016-03-18T14:48:16Z</time>
      </trkpt>
      <trkpt lat="46.42405609600246" lon="11.740514421835542">
        <ele>1711.28</ele>
        <time>2016-03-18T14:48:17Z</time>
      </trkpt>
      <trkpt lat="46.424013851210475" lon="11.740293139591813">
        <ele>1709.3599999999999</ele>
        <time>2016-03-18T14:48:29Z</time>
      </trkpt>
      <trkpt lat="46.424000440165401" lon="11.740128351375461">
        <ele>1708.8800000000001</ele>
        <time>2016-03-18T14:48:38Z</time>
      </trkpt>
      <trkpt lat="46.424001278355718" lon="11.740108067169785">
        <ele>1708.4000000000001</ele>
        <time>2016-03-18T14:48:39Z</time>
      </trkpt>
      <trkpt lat="46.423999685794115" lon="11.74008920788765">
        <ele>1708.4000000000001</ele>
        <time>2016-03-18T14:48:40Z</time>
      </trkpt>
      <trkpt lat="46.423988621681929" lon="11.739958953112364">
        <ele>1707.4400000000001</ele>
        <time>2016-03-18T14:48:48Z</time>
      </trkpt>
      <trkpt lat="46.423989208415151" lon="11.739938165992498">
        <ele>1707.4400000000001</ele>
        <time>2016-03-18T14:48:49Z</time>
      </trkpt>
      <trkpt lat="46.42398820258677" lon="11.739918971434236">
        <ele>1707.4400000000001</ele>
        <time>2016-03-18T14:48:50Z</time>
      </trkpt>
      <trkpt lat="46.423986945301294" lon="11.73990111798048">
        <ele>1707.4400000000001</ele>
        <time>2016-03-18T14:48:51Z</time>
      </trkpt>
      <trkpt lat="46.423986861482263" lon="11.739885024726391">
        <ele>1706.96</ele>
        <time>2016-03-18T14:48:52Z</time>
      </trkpt>
      <trkpt lat="46.423989124596119" lon="11.73964605666697">
        <ele>1705.52</ele>
        <time>2016-03-18T14:49:04Z</time>
      </trkpt>
      <trkpt lat="46.424010833725333" lon="11.739417817443609">
        <ele>1703.1099999999999</ele>
        <time>2016-03-18T14:49:16Z</time>
      </trkpt>
      <trkpt lat="46.424014186486602" lon="11.739174155518413">
        <ele>1701.1900000000001</ele>
        <time>2016-03-18T14:49:28Z</time>
      </trkpt>
      <trkpt lat="46.424000859260559" lon="11.738976342603564">
        <ele>1698.79</ele>
        <time>2016-03-18T14:49:38Z</time>
      </trkpt>
      <trkpt lat="46.424004882574081" lon="11.738958321511745">
        <ele>1699.27</ele>
        <time>2016-03-18T14:49:39Z</time>
      </trkpt>
      <trkpt lat="46.42400580458343" lon="11.738938707858324">
        <ele>1698.79</ele>
        <time>2016-03-18T14:49:40Z</time>
      </trkpt>
      <trkpt lat="46.424005553126335" lon="11.738919261842966">
        <ele>1698.79</ele>
        <time>2016-03-18T14:49:41Z</time>
      </trkpt>
      <trkpt lat="46.424006726592779" lon="11.738899564370513">
        <ele>1698.79</ele>
        <time>2016-03-18T14:49:42Z</time>
      </trkpt>
      <trkpt lat="46.424009241163731" lon="11.73888229764998">
        <ele>1698.3099999999999</ele>
        <time>2016-03-18T14:49:43Z</time>
      </trkpt>
      <trkpt lat="46.424010498449206" lon="11.738865617662668">
        <ele>1698.3099999999999</ele>
        <time>2016-03-18T14:49:44Z</time>
      </trkpt>
      <trkpt lat="46.424012510105968" lon="11.738849272951484">
        <ele>1697.8299999999999</ele>
        <time>2016-03-18T14:49:45Z</time>
      </trkpt>
      <trkpt lat="46.424015527591109" lon="11.738833263516426">
        <ele>1697.8299999999999</ele>
        <time>2016-03-18T14:49:46Z</time>
      </trkpt>
      <trkpt lat="46.424017706885934" lon="11.738817086443305">
        <ele>1697.3399999999999</ele>
        <time>2016-03-18T14:49:47Z</time>
      </trkpt>
      <trkpt lat="46.424028938636184" lon="11.738672666251659">
        <ele>1695.9000000000001</ele>
        <time>2016-03-18T14:49:56Z</time>
      </trkpt>
      <trkpt lat="46.424014773219824" lon="11.73855590634048">
        <ele>1694.9400000000001</ele>
        <time>2016-03-18T14:50:04Z</time>
      </trkpt>
      <trkpt lat="46.424013180658221" lon="11.738537130877376">
        <ele>1694.9400000000001</ele>
        <time>2016-03-18T14:50:05Z</time>
      </trkpt>
      <trkpt lat="46.424012426286936" lon="11.73851927742362">
        <ele>1694.46</ele>
        <time>2016-03-18T14:50:06Z</time>
      </trkpt>
      <trkpt lat="46.424011252820492" lon="11.738500585779548">
        <ele>1694.46</ele>
        <time>2016-03-18T14:50:07Z</time>
      </trkpt>
      <trkpt lat="46.424007648602128" lon="11.73848164267838">
        <ele>1693.98</ele>
        <time>2016-03-18T14:50:08Z</time>
      </trkpt>
      <trkpt lat="46.424003876745701" lon="11.738461777567863">
        <ele>1694.46</ele>
        <time>2016-03-18T14:50:09Z</time>
      </trkpt>
      <trkpt lat="46.423986358568072" lon="11.73821241594851">
        <ele>1691.5799999999999</ele>
        <time>2016-03-18T14:50:21Z</time>
      </trkpt>
      <trkpt lat="46.423994824290276" lon="11.738102026283741">
        <ele>1690.1400000000001</ele>
        <time>2016-03-18T14:50:27Z</time>
      </trkpt>
      <trkpt lat="46.423992980271578" lon="11.738086184486747">
        <ele>1689.6500000000001</ele>
        <time>2016-03-18T14:50:28Z</time>
      </trkpt>
      <trkpt lat="46.4239901304245" lon="11.738070510327816">
        <ele>1689.6500000000001</ele>
        <time>2016-03-18T14:50:29Z</time>
      </trkpt>
      <trkpt lat="46.42398769967258" lon="11.738052237778902">
        <ele>1689.1700000000001</ele>
        <time>2016-03-18T14:50:30Z</time>
      </trkpt>
      <trkpt lat="46.423985520377755" lon="11.738033881410956">
        <ele>1689.1700000000001</ele>
        <time>2016-03-18T14:50:31Z</time>
      </trkpt>
      <trkpt lat="46.423943778499961" lon="11.737828189507127">
        <ele>1687.73</ele>
        <time>2016-03-18T14:50:42Z</time>
      </trkpt>
      <trkpt lat="46.42390413209796" lon="11.737702377140522">
        <ele>1686.29</ele>
        <time>2016-03-18T14:50:49Z</time>
      </trkpt>
      <trkpt lat="46.423899857327342" lon="11.73768469132483">
        <ele>1686.29</ele>
        <time>2016-03-18T14:50:50Z</time>
      </trkpt>
      <trkpt lat="46.423892397433519" lon="11.737667005509138">
        <ele>1686.29</ele>
        <time>2016-03-18T14:50:51Z</time>
      </trkpt>
      <trkpt lat="46.423883261159062" lon="11.737650576978922">
        <ele>1685.8099999999999</ele>
        <time>2016-03-18T14:50:52Z</time>
      </trkpt>
      <trkpt lat="46.423876220360398" lon="11.737634651362896">
        <ele>1685.8099999999999</ele>
        <time>2016-03-18T14:50:53Z</time>
      </trkpt>
      <trkpt lat="46.423870855942369" lon="11.737618055194616">
        <ele>1685.3299999999999</ele>
        <time>2016-03-18T14:50:54Z</time>
      </trkpt>
      <trkpt lat="46.423867587000132" lon="11.737600117921829">
        <ele>1685.3299999999999</ele>
        <time>2016-03-18T14:50:55Z</time>
      </trkpt>
      <trkpt lat="46.423862976953387" lon="11.737580504268408">
        <ele>1684.8499999999999</ele>
        <time>2016-03-18T14:50:56Z</time>
      </trkpt>
      <trkpt lat="46.423843195661902" lon="11.737400712445378">
        <ele>1682.9300000000001</ele>
        <time>2016-03-18T14:51:05Z</time>
      </trkpt>
      <trkpt lat="46.423850320279598" lon="11.737152859568596">
        <ele>1680.04</ele>
        <time>2016-03-18T14:51:17Z</time>
      </trkpt>
      <trkpt lat="46.423833053559065" lon="11.736881537362933">
        <ele>1677.1600000000001</ele>
        <time>2016-03-18T14:51:31Z</time>
      </trkpt>
      <trkpt lat="46.423798184841871" lon="11.736661596223712">
        <ele>1673.79</ele>
        <time>2016-03-18T14:51:42Z</time>
      </trkpt>
      <trkpt lat="46.423796089366078" lon="11.736625218763947">
        <ele>1673.79</ele>
        <time>2016-03-18T14:51:44Z</time>
      </trkpt>
      <trkpt lat="46.423793574795127" lon="11.736607113853097">
        <ele>1673.3099999999999</ele>
        <time>2016-03-18T14:51:45Z</time>
      </trkpt>
      <trkpt lat="46.423791982233524" lon="11.736588170751929">
        <ele>1673.3099999999999</ele>
        <time>2016-03-18T14:51:46Z</time>
      </trkpt>
      <trkpt lat="46.423754179850221" lon="11.736318441107869">
        <ele>1669.95</ele>
        <time>2016-03-18T14:52:00Z</time>
      </trkpt>
      <trkpt lat="46.42371604219079" lon="11.736081819981337">
        <ele>1667.54</ele>
        <time>2016-03-18T14:52:12Z</time>
      </trkpt>
      <trkpt lat="46.423700200393796" lon="11.735977716743946">
        <ele>1666.0999999999999</ele>
        <time>2016-03-18T14:52:17Z</time>
      </trkpt>
      <trkpt lat="46.423692405223846" lon="11.735958270728588">
        <ele>1666.0999999999999</ele>
        <time>2016-03-18T14:52:18Z</time>
      </trkpt>
      <trkpt lat="46.423687962815166" lon="11.735936645418406">
        <ele>1665.6199999999999</ele>
        <time>2016-03-18T14:52:19Z</time>
      </trkpt>
      <trkpt lat="46.423682933673263" lon="11.735915942117572">
        <ele>1665.1400000000001</ele>
        <time>2016-03-18T14:52:20Z</time>
      </trkpt>
      <trkpt lat="46.423680000007153" lon="11.735892053693533">
        <ele>1665.6199999999999</ele>
        <time>2016-03-18T14:52:21Z</time>
      </trkpt>
      <trkpt lat="46.423677653074265" lon="11.735872104763985">
        <ele>1665.1400000000001</ele>
        <time>2016-03-18T14:52:22Z</time>
      </trkpt>
      <trkpt lat="46.42367304302752" lon="11.735855508595705">
        <ele>1664.6600000000001</ele>
        <time>2016-03-18T14:52:23Z</time>
      </trkpt>
      <trkpt lat="46.423668852075934" lon="11.735839080065489">
        <ele>1664.1800000000001</ele>
        <time>2016-03-18T14:52:24Z</time>
      </trkpt>
      <trkpt lat="46.423663236200809" lon="11.735822902992368">
        <ele>1664.1800000000001</ele>
        <time>2016-03-18T14:52:25Z</time>
      </trkpt>
      <trkpt lat="46.423659380525351" lon="11.735805636271834">
        <ele>1664.1800000000001</ele>
        <time>2016-03-18T14:52:26Z</time>
      </trkpt>
      <trkpt lat="46.423654016107321" lon="11.735787698999047">
        <ele>1663.7</ele>
        <time>2016-03-18T14:52:27Z</time>
      </trkpt>
      <trkpt lat="46.423586625605822" lon="11.735535906627774">
        <ele>1660.8099999999999</ele>
        <time>2016-03-18T14:52:40Z</time>
      </trkpt>
      <trkpt lat="46.423517055809498" lon="11.735289311036468">
        <ele>1657.9300000000001</ele>
        <time>2016-03-18T14:52:53Z</time>
      </trkpt>
      <trkpt lat="46.423453604802489" lon="11.735046906396747">
        <ele>1655.05</ele>
        <time>2016-03-18T14:53:05Z</time>
      </trkpt>
      <trkpt lat="46.423369701951742" lon="11.734765190631151">
        <ele>1653.1199999999999</ele>
        <time>2016-03-18T14:53:20Z</time>
      </trkpt>
      <trkpt lat="46.423333575949073" lon="11.734636947512627">
        <ele>1651.6800000000001</ele>
        <time>2016-03-18T14:53:28Z</time>
      </trkpt>
      <trkpt lat="46.423316225409508" lon="11.734482049942017">
        <ele>1650.72</ele>
        <time>2016-03-18T14:53:37Z</time>
      </trkpt>
      <trkpt lat="46.423314800485969" lon="11.734369983896613">
        <ele>1650.24</ele>
        <time>2016-03-18T14:53:43Z</time>
      </trkpt>
      <trkpt lat="46.42330851405859" lon="11.734288008883595">
        <ele>1649.76</ele>
        <time>2016-03-18T14:53:48Z</time>
      </trkpt>
      <trkpt lat="46.423273561522365" lon="11.734070917591453">
        <ele>1648.8</ele>
        <time>2016-03-18T14:53:59Z</time>
      </trkpt>
      <trkpt lat="46.423257552087307" lon="11.733992714434862">
        <ele>1647.8399999999999</ele>
        <time>2016-03-18T14:54:03Z</time>
      </trkpt>
      <trkpt lat="46.423250176012516" lon="11.73397209495306">
        <ele>1647.3599999999999</ele>
        <time>2016-03-18T14:54:04Z</time>
      </trkpt>
      <trkpt lat="46.423176331445575" lon="11.733739664778113">
        <ele>1644.47</ele>
        <time>2016-03-18T14:54:17Z</time>
      </trkpt>
      <trkpt lat="46.423100726678967" lon="11.733518466353416">
        <ele>1641.5899999999999</ele>
        <time>2016-03-18T14:54:30Z</time>
      </trkpt>
      <trkpt lat="46.423025205731392" lon="11.733276229351759">
        <ele>1638.7</ele>
        <time>2016-03-18T14:54:43Z</time>
      </trkpt>
      <trkpt lat="46.422928646206856" lon="11.733120325952768">
        <ele>1637.74</ele>
        <time>2016-03-18T14:54:53Z</time>
      </trkpt>
      <trkpt lat="46.422801995649934" lon="11.732976157218218">
        <ele>1637.26</ele>
        <time>2016-03-18T14:55:05Z</time>
      </trkpt>
      <trkpt lat="46.422781543806195" lon="11.732955034822226">
        <ele>1637.26</ele>
        <time>2016-03-18T14:55:07Z</time>
      </trkpt>
      <trkpt lat="46.422695713117719" lon="11.732908934354782">
        <ele>1636.3</ele>
        <time>2016-03-18T14:55:14Z</time>
      </trkpt>
      <trkpt lat="46.422683726996183" lon="11.732904491946101">
        <ele>1636.3</ele>
        <time>2016-03-18T14:55:15Z</time>
      </trkpt>
      <trkpt lat="46.422671740874648" lon="11.732898624613881">
        <ele>1636.3</ele>
        <time>2016-03-18T14:55:16Z</time>
      </trkpt>
      <trkpt lat="46.4226586651057" lon="11.73289124853909">
        <ele>1636.3</ele>
        <time>2016-03-18T14:55:17Z</time>
      </trkpt>
      <trkpt lat="46.422645673155785" lon="11.732884207740426">
        <ele>1635.8199999999999</ele>
        <time>2016-03-18T14:55:18Z</time>
      </trkpt>
      <trkpt lat="46.422633184120059" lon="11.732878424227238">
        <ele>1636.3</ele>
        <time>2016-03-18T14:55:19Z</time>
      </trkpt>
      <trkpt lat="46.422621784731746" lon="11.73287414945662">
        <ele>1635.8199999999999</ele>
        <time>2016-03-18T14:55:20Z</time>
      </trkpt>
      <trkpt lat="46.422518016770482" lon="11.732826456427574">
        <ele>1634.8599999999999</ele>
        <time>2016-03-18T14:55:29Z</time>
      </trkpt>
      <trkpt lat="46.422387426719069" lon="11.732730315998197">
        <ele>1633.4200000000001</ele>
        <time>2016-03-18T14:55:40Z</time>
      </trkpt>
      <trkpt lat="46.422327496111393" lon="11.732645491138101">
        <ele>1631.49</ele>
        <time>2016-03-18T14:55:46Z</time>
      </trkpt>
      <trkpt lat="46.42219003289938" lon="11.732466369867325">
        <ele>1629.5699999999999</ele>
        <time>2016-03-18T14:55:56Z</time>
      </trkpt>
      <trkpt lat="46.422086097300053" lon="11.732260845601559">
        <ele>1627.6500000000001</ele>
        <time>2016-03-18T14:56:08Z</time>
      </trkpt>
      <trkpt lat="46.421978725120425" lon="11.732054483145475">
        <ele>1626.21</ele>
        <time>2016-03-18T14:56:20Z</time>
      </trkpt>
      <trkpt lat="46.421925835311413" lon="11.731947949156165">
        <ele>1625.25</ele>
        <time>2016-03-18T14:56:27Z</time>
      </trkpt>
      <trkpt lat="46.421914184466004" lon="11.731927078217268">
        <ele>1624.77</ele>
        <time>2016-03-18T14:56:29Z</time>
      </trkpt>
      <trkpt lat="46.421907311305404" lon="11.73191593028605">
        <ele>1624.77</ele>
        <time>2016-03-18T14:56:30Z</time>
      </trkpt>
      <trkpt lat="46.42189834266901" lon="11.731905285269022">
        <ele>1624.28</ele>
        <time>2016-03-18T14:56:31Z</time>
      </trkpt>
      <trkpt lat="46.421889290213585" lon="11.731893131509423">
        <ele>1624.28</ele>
        <time>2016-03-18T14:56:32Z</time>
      </trkpt>
      <trkpt lat="46.421878561377525" lon="11.731879133731127">
        <ele>1624.28</ele>
        <time>2016-03-18T14:56:33Z</time>
      </trkpt>
      <trkpt lat="46.421869089826941" lon="11.731863375753164">
        <ele>1623.8</ele>
        <time>2016-03-18T14:56:34Z</time>
      </trkpt>
      <trkpt lat="46.421860624104738" lon="11.731848623603582">
        <ele>1623.8</ele>
        <time>2016-03-18T14:56:35Z</time>
      </trkpt>
      <trkpt lat="46.421850901097059" lon="11.731838565319777">
        <ele>1623.3199999999999</ele>
        <time>2016-03-18T14:56:36Z</time>
      </trkpt>
      <trkpt lat="46.421839753165841" lon="11.731823142617941">
        <ele>1623.3199999999999</ele>
        <time>2016-03-18T14:56:37Z</time>
      </trkpt>
      <trkpt lat="46.421813433989882" lon="11.731788357719779">
        <ele>1622.8399999999999</ele>
        <time>2016-03-18T14:56:40Z</time>
      </trkpt>
      <trkpt lat="46.421806141734123" lon="11.731772432103753">
        <ele>1622.3599999999999</ele>
        <time>2016-03-18T14:56:41Z</time>
      </trkpt>
      <trkpt lat="46.421796083450317" lon="11.731754411011934">
        <ele>1622.3599999999999</ele>
        <time>2016-03-18T14:56:42Z</time>
      </trkpt>
      <trkpt lat="46.421734979376197" lon="11.731598172336817">
        <ele>1620.9200000000001</ele>
        <time>2016-03-18T14:56:52Z</time>
      </trkpt>
      <trkpt lat="46.421676222234964" lon="11.731355516240001">
        <ele>1619.48</ele>
        <time>2016-03-18T14:57:05Z</time>
      </trkpt>
      <trkpt lat="46.421627523377538" lon="11.731049157679081">
        <ele>1617.0699999999999</ele>
        <time>2016-03-18T14:57:22Z</time>
      </trkpt>
      <trkpt lat="46.421598354354501" lon="11.730790995061398">
        <ele>1615.1500000000001</ele>
        <time>2016-03-18T14:57:35Z</time>
      </trkpt>
      <trkpt lat="46.42158905044198" lon="11.730685718357563">
        <ele>1614.6700000000001</ele>
        <time>2016-03-18T14:57:40Z</time>
      </trkpt>
      <trkpt lat="46.421586871147156" lon="11.730663422495127">
        <ele>1614.1900000000001</ele>
        <time>2016-03-18T14:57:41Z</time>
      </trkpt>
      <trkpt lat="46.421585781499743" lon="11.730640958994627">
        <ele>1614.1900000000001</ele>
        <time>2016-03-18T14:57:42Z</time>
      </trkpt>
      <trkpt lat="46.421582931652665" lon="11.730618579313159">
        <ele>1614.1900000000001</ele>
        <time>2016-03-18T14:57:43Z</time>
      </trkpt>
      <trkpt lat="46.421578908339143" lon="11.730597876012325">
        <ele>1614.1900000000001</ele>
        <time>2016-03-18T14:57:44Z</time>
      </trkpt>
      <trkpt lat="46.421525180339813" lon="11.730408780276775">
        <ele>1613.71</ele>
        <time>2016-03-18T14:57:55Z</time>
      </trkpt>
      <trkpt lat="46.421437757089734" lon="11.730224210768938">
        <ele>1612.75</ele>
        <time>2016-03-18T14:58:07Z</time>
      </trkpt>
      <trkpt lat="46.421295767650008" lon="11.730028493329883">
        <ele>1611.79</ele>
        <time>2016-03-18T14:58:22Z</time>
      </trkpt>
      <trkpt lat="46.42117808572948" lon="11.72984266653657">
        <ele>1609.8599999999999</ele>
        <time>2016-03-18T14:58:34Z</time>
      </trkpt>
      <trkpt lat="46.421058224514127" lon="11.729687517508864">
        <ele>1609.3800000000001</ele>
        <time>2016-03-18T14:58:47Z</time>
      </trkpt>
      <trkpt lat="46.421048669144511" lon="11.729675363749266">
        <ele>1609.3800000000001</ele>
        <time>2016-03-18T14:58:48Z</time>
      </trkpt>
      <trkpt lat="46.420916486531496" lon="11.729516023769975">
        <ele>1607.9400000000001</ele>
        <time>2016-03-18T14:59:01Z</time>
      </trkpt>
      <trkpt lat="46.420794865116477" lon="11.729368669912219">
        <ele>1606.98</ele>
        <time>2016-03-18T14:59:13Z</time>
      </trkpt>
      <trkpt lat="46.420674500986934" lon="11.729204803705215">
        <ele>1606.5</ele>
        <time>2016-03-18T14:59:27Z</time>
      </trkpt>
      <trkpt lat="46.420619180426002" lon="11.729157194495201">
        <ele>1606.02</ele>
        <time>2016-03-18T14:59:33Z</time>
      </trkpt>
      <trkpt lat="46.420608870685101" lon="11.729141185060143">
        <ele>1605.54</ele>
        <time>2016-03-18T14:59:34Z</time>
      </trkpt>
      <trkpt lat="46.420481717213988" lon="11.728936415165663">
        <ele>1604.5799999999999</ele>
        <time>2016-03-18T14:59:47Z</time>
      </trkpt>
      <trkpt lat="46.420454559847713" lon="11.728898109868169">
        <ele>1604.0999999999999</ele>
        <time>2016-03-18T14:59:50Z</time>
      </trkpt>
      <trkpt lat="46.420447770506144" lon="11.728879921138287">
        <ele>1604.0999999999999</ele>
        <time>2016-03-18T14:59:51Z</time>
      </trkpt>
      <trkpt lat="46.420438969507813" lon="11.728862067684531">
        <ele>1604.0999999999999</ele>
        <time>2016-03-18T14:59:52Z</time>
      </trkpt>
      <trkpt lat="46.420322712510824" lon="11.728689568117261">
        <ele>1602.6600000000001</ele>
        <time>2016-03-18T15:00:04Z</time>
      </trkpt>
      <trkpt lat="46.420225901529193" lon="11.728529641404748">
        <ele>1601.6900000000001</ele>
        <time>2016-03-18T15:00:15Z</time>
      </trkpt>
      <trkpt lat="46.4202203694731" lon="11.728508770465851">
        <ele>1601.6900000000001</ele>
        <time>2016-03-18T15:00:16Z</time>
      </trkpt>
      <trkpt lat="46.420213244855404" lon="11.728489492088556">
        <ele>1601.6900000000001</ele>
        <time>2016-03-18T15:00:17Z</time>
      </trkpt>
      <trkpt lat="46.420095060020685" lon="11.728300731629133">
        <ele>1600.73</ele>
        <time>2016-03-18T15:00:30Z</time>
      </trkpt>
      <trkpt lat="46.419958602637053" lon="11.728163603693247">
        <ele>1599.29</ele>
        <time>2016-03-18T15:00:42Z</time>
      </trkpt>
      <trkpt lat="46.419918201863766" lon="11.728097889572382">
        <ele>1598.3299999999999</ele>
        <time>2016-03-18T15:00:52Z</time>
      </trkpt>
      <trkpt lat="46.419900599867105" lon="11.728046089410782">
        <ele>1598.3299999999999</ele>
        <time>2016-03-18T15:01:02Z</time>
      </trkpt>
      <trkpt lat="46.41989154741168" lon="11.728038629516959">
        <ele>1598.8099999999999</ele>
        <time>2016-03-18T15:01:10Z</time>
      </trkpt>
      <trkpt lat="46.419814433902502" lon="11.72800007276237">
        <ele>1597.8499999999999</ele>
        <time>2016-03-18T15:01:20Z</time>
      </trkpt>
      <trkpt lat="46.419757520779967" lon="11.727946428582072">
        <ele>1597.3699999999999</ele>
        <time>2016-03-18T15:01:26Z</time>
      </trkpt>
      <trkpt lat="46.419620560482144" lon="11.727902255952358">
        <ele>1596.4100000000001</ele>
        <time>2016-03-18T15:01:38Z</time>
      </trkpt>
      <trkpt lat="46.419596672058105" lon="11.727896388620138">
        <ele>1596.4100000000001</ele>
        <time>2016-03-18T15:01:40Z</time>
      </trkpt>
      <trkpt lat="46.41956465318799" lon="11.727890186011791">
        <ele>1596.4100000000001</ele>
        <time>2016-03-18T15:01:43Z</time>
      </trkpt>
      <trkpt lat="46.419539758935571" lon="11.727888509631157">
        <ele>1595.9300000000001</ele>
        <time>2016-03-18T15:01:45Z</time>
      </trkpt>
      <trkpt lat="46.419394416734576" lon="11.727848025038838">
        <ele>1594</ele>
        <time>2016-03-18T15:01:57Z</time>
      </trkpt>
      <trkpt lat="46.419215882197022" lon="11.727764457464218">
        <ele>1592.0799999999999</ele>
        <time>2016-03-18T15:02:11Z</time>
      </trkpt>
      <trkpt lat="46.419074311852455" lon="11.727683236822486">
        <ele>1589.6800000000001</ele>
        <time>2016-03-18T15:02:21Z</time>
      </trkpt>
      <trkpt lat="46.418997533619404" lon="11.727620037272573">
        <ele>1587.75</ele>
        <time>2016-03-18T15:02:28Z</time>
      </trkpt>
      <trkpt lat="46.418897537514567" lon="11.727495985105634">
        <ele>1586.79</ele>
        <time>2016-03-18T15:02:37Z</time>
      </trkpt>
      <trkpt lat="46.418797541409731" lon="11.727307057008147">
        <ele>1584.8699999999999</ele>
        <time>2016-03-18T15:02:49Z</time>
      </trkpt>
      <trkpt lat="46.418666616082191" lon="11.727073285728693">
        <ele>1582.95</ele>
        <time>2016-03-18T15:03:04Z</time>
      </trkpt>
      <trkpt lat="46.418593609705567" lon="11.727000949904323">
        <ele>1581.03</ele>
        <time>2016-03-18T15:03:11Z</time>
      </trkpt>
      <trkpt lat="46.418430749326944" lon="11.72688209451735">
        <ele>1578.1400000000001</ele>
        <time>2016-03-18T15:03:24Z</time>
      </trkpt>
      <trkpt lat="46.418301332741976" lon="11.726716468110681">
        <ele>1575.26</ele>
        <time>2016-03-18T15:03:36Z</time>
      </trkpt>
      <trkpt lat="46.41822773963213" lon="11.726476326584816">
        <ele>1572.8499999999999</ele>
        <time>2016-03-18T15:03:48Z</time>
      </trkpt>
      <trkpt lat="46.418210556730628" lon="11.726405918598175">
        <ele>1572.3699999999999</ele>
        <time>2016-03-18T15:03:52Z</time>
      </trkpt>
      <trkpt lat="46.4182033482939" lon="11.726390244439244">
        <ele>1571.8900000000001</ele>
        <time>2016-03-18T15:03:53Z</time>
      </trkpt>
      <trkpt lat="46.418196810409427" lon="11.726373145356774">
        <ele>1571.8900000000001</ele>
        <time>2016-03-18T15:03:54Z</time>
      </trkpt>
      <trkpt lat="46.418144004419446" lon="11.726142894476652">
        <ele>1569.49</ele>
        <time>2016-03-18T15:04:05Z</time>
      </trkpt>
      <trkpt lat="46.418095640838146" lon="11.725929742679">
        <ele>1567.5699999999999</ele>
        <time>2016-03-18T15:04:17Z</time>
      </trkpt>
      <trkpt lat="46.418040907010436" lon="11.725739138200879">
        <ele>1566.6099999999999</ele>
        <time>2016-03-18T15:04:28Z</time>
      </trkpt>
      <trkpt lat="46.417994471266866" lon="11.725524729117751">
        <ele>1565.6400000000001</ele>
        <time>2016-03-18T15:04:40Z</time>
      </trkpt>
      <trkpt lat="46.417985754087567" lon="11.725431270897388">
        <ele>1565.1600000000001</ele>
        <time>2016-03-18T15:04:45Z</time>
      </trkpt>
      <trkpt lat="46.417988520115614" lon="11.725411573424935">
        <ele>1565.6400000000001</ele>
        <time>2016-03-18T15:04:46Z</time>
      </trkpt>
      <trkpt lat="46.417988436296582" lon="11.725391540676355">
        <ele>1565.1600000000001</ele>
        <time>2016-03-18T15:04:47Z</time>
      </trkpt>
      <trkpt lat="46.417987011373043" lon="11.725369915366173">
        <ele>1565.1600000000001</ele>
        <time>2016-03-18T15:04:48Z</time>
      </trkpt>
      <trkpt lat="46.417984664440155" lon="11.72534829005599">
        <ele>1565.1600000000001</ele>
        <time>2016-03-18T15:04:49Z</time>
      </trkpt>
      <trkpt lat="46.417981898412108" lon="11.725330268964171">
        <ele>1564.6800000000001</ele>
        <time>2016-03-18T15:04:50Z</time>
      </trkpt>
      <trkpt lat="46.417981563135982" lon="11.72531115822494">
        <ele>1564.6800000000001</ele>
        <time>2016-03-18T15:04:51Z</time>
      </trkpt>
      <trkpt lat="46.417966643348336" lon="11.725093983113766">
        <ele>1563.24</ele>
        <time>2016-03-18T15:05:03Z</time>
      </trkpt>
      <trkpt lat="46.4179702475667" lon="11.725031621754169">
        <ele>1561.8</ele>
        <time>2016-03-18T15:05:06Z</time>
      </trkpt>
      <trkpt lat="46.417952226474881" lon="11.724819643422961">
        <ele>1560.8399999999999</ele>
        <time>2016-03-18T15:05:17Z</time>
      </trkpt>
      <trkpt lat="46.417937055230141" lon="11.724624009802938">
        <ele>1557.47</ele>
        <time>2016-03-18T15:05:27Z</time>
      </trkpt>
      <trkpt lat="46.417935714125633" lon="11.724608168005943">
        <ele>1557.47</ele>
        <time>2016-03-18T15:05:28Z</time>
      </trkpt>
      <trkpt lat="46.417929427698255" lon="11.724435081705451">
        <ele>1556.51</ele>
        <time>2016-03-18T15:05:39Z</time>
      </trkpt>
      <trkpt lat="46.417899336665869" lon="11.724173733964562">
        <ele>1555.55</ele>
        <time>2016-03-18T15:05:53Z</time>
      </trkpt>
      <trkpt lat="46.417845860123634" lon="11.72389805316925">
        <ele>1554.5899999999999</ele>
        <time>2016-03-18T15:06:08Z</time>
      </trkpt>
      <trkpt lat="46.417839238420129" lon="11.723880786448717">
        <ele>1554.5899999999999</ele>
        <time>2016-03-18T15:06:09Z</time>
      </trkpt>
      <trkpt lat="46.417831862345338" lon="11.723863938823342">
        <ele>1554.5899999999999</ele>
        <time>2016-03-18T15:06:10Z</time>
      </trkpt>
      <trkpt lat="46.417825240641832" lon="11.723847258836031">
        <ele>1554.1099999999999</ele>
        <time>2016-03-18T15:06:11Z</time>
      </trkpt>
      <trkpt lat="46.417817026376724" lon="11.72383057884872">
        <ele>1554.1099999999999</ele>
        <time>2016-03-18T15:06:12Z</time>
      </trkpt>
      <trkpt lat="46.417807806283236" lon="11.723814234137535">
        <ele>1554.1099999999999</ele>
        <time>2016-03-18T15:06:13Z</time>
      </trkpt>
      <trkpt lat="46.41780118457973" lon="11.723798727616668">
        <ele>1554.1099999999999</ele>
        <time>2016-03-18T15:06:14Z</time>
      </trkpt>
      <trkpt lat="46.417721221223474" lon="11.723608123138547">
        <ele>1552.6700000000001</ele>
        <time>2016-03-18T15:06:26Z</time>
      </trkpt>
      <trkpt lat="46.41764335334301" lon="11.723404778167605">
        <ele>1551.71</ele>
        <time>2016-03-18T15:06:38Z</time>
      </trkpt>
      <trkpt lat="46.417559366673231" lon="11.723214173689485">
        <ele>1550.26</ele>
        <time>2016-03-18T15:06:50Z</time>
      </trkpt>
      <trkpt lat="46.417464651167393" lon="11.723022311925888">
        <ele>1548.8199999999999</ele>
        <time>2016-03-18T15:07:03Z</time>
      </trkpt>
      <trkpt lat="46.417368678376079" lon="11.722802370786667">
        <ele>1547.8599999999999</ele>
        <time>2016-03-18T15:07:17Z</time>
      </trkpt>
      <trkpt lat="46.417310424149036" lon="11.722608413547277">
        <ele>1546.9000000000001</ele>
        <time>2016-03-18T15:07:28Z</time>
      </trkpt>
      <trkpt lat="46.417258456349373" lon="11.722327200695872">
        <ele>1545.46</ele>
        <time>2016-03-18T15:07:44Z</time>
      </trkpt>
      <trkpt lat="46.417247476056218" lon="11.722137266770005">
        <ele>1544.5</ele>
        <time>2016-03-18T15:07:54Z</time>
      </trkpt>
      <trkpt lat="46.41724563203752" lon="11.72190542332828">
        <ele>1543.05</ele>
        <time>2016-03-18T15:08:07Z</time>
      </trkpt>
      <trkpt lat="46.417248314246535" lon="11.721683135256171">
        <ele>1541.6099999999999</ele>
        <time>2016-03-18T15:08:20Z</time>
      </trkpt>
      <trkpt lat="46.417255774140358" lon="11.721433019265532">
        <ele>1540.6500000000001</ele>
        <time>2016-03-18T15:08:34Z</time>
      </trkpt>
      <trkpt lat="46.41722995787859" lon="11.721267057582736">
        <ele>1539.6900000000001</ele>
        <time>2016-03-18T15:08:44Z</time>
      </trkpt>
      <trkpt lat="46.417164579033852" lon="11.721021216362715">
        <ele>1538.25</ele>
        <time>2016-03-18T15:08:59Z</time>
      </trkpt>
      <trkpt lat="46.417122585698962" lon="11.720920046791434">
        <ele>1537.77</ele>
        <time>2016-03-18T15:09:05Z</time>
      </trkpt>
      <trkpt lat="46.417102217674255" lon="11.720902528613806">
        <ele>1537.77</ele>
        <time>2016-03-18T15:09:16Z</time>
      </trkpt>
      <trkpt lat="46.417094338685274" lon="11.720846705138683">
        <ele>1537.29</ele>
        <time>2016-03-18T15:09:30Z</time>
      </trkpt>
      <trkpt lat="46.416987050324678" lon="11.720631122589111">
        <ele>1535.8399999999999</ele>
        <time>2016-03-18T15:09:44Z</time>
      </trkpt>
      <trkpt lat="46.41688596457243" lon="11.720432052388787">
        <ele>1534.8800000000001</ele>
        <time>2016-03-18T15:09:57Z</time>
      </trkpt>
      <trkpt lat="46.416831649839878" lon="11.720200041308999">
        <ele>1533.4400000000001</ele>
        <time>2016-03-18T15:10:10Z</time>
      </trkpt>
      <trkpt lat="46.416826955974102" lon="11.72014195472002">
        <ele>1532.96</ele>
        <time>2016-03-18T15:10:13Z</time>
      </trkpt>
      <trkpt lat="46.416822094470263" lon="11.720120161771774">
        <ele>1532.48</ele>
        <time>2016-03-18T15:10:14Z</time>
      </trkpt>
      <trkpt lat="46.416818322613835" lon="11.720099542289972">
        <ele>1532.48</ele>
        <time>2016-03-18T15:10:15Z</time>
      </trkpt>
      <trkpt lat="46.416812287643552" lon="11.720081269741058">
        <ele>1532.48</ele>
        <time>2016-03-18T15:10:16Z</time>
      </trkpt>
      <trkpt lat="46.41680390574038" lon="11.720063583925366">
        <ele>1532.48</ele>
        <time>2016-03-18T15:10:17Z</time>
      </trkpt>
      <trkpt lat="46.416799128055573" lon="11.720048831775784">
        <ele>1532.48</ele>
        <time>2016-03-18T15:10:18Z</time>
      </trkpt>
      <trkpt lat="46.416793512180448" lon="11.720033325254917">
        <ele>1532.48</ele>
        <time>2016-03-18T15:10:19Z</time>
      </trkpt>
      <trkpt lat="46.416788315400481" lon="11.720015471801162">
        <ele>1532.48</ele>
        <time>2016-03-18T15:10:20Z</time>
      </trkpt>
      <trkpt lat="46.416781693696976" lon="11.719998456537724">
        <ele>1532.48</ele>
        <time>2016-03-18T15:10:21Z</time>
      </trkpt>
      <trkpt lat="46.416773227974772" lon="11.719984039664268">
        <ele>1532.48</ele>
        <time>2016-03-18T15:10:22Z</time>
      </trkpt>
      <trkpt lat="46.416708771139383" lon="11.719858143478632">
        <ele>1532</ele>
        <time>2016-03-18T15:10:32Z</time>
      </trkpt>
      <trkpt lat="46.416641799733043" lon="11.719703665003181">
        <ele>1531.52</ele>
        <time>2016-03-18T15:10:42Z</time>
      </trkpt>
      <trkpt lat="46.41665143892169" lon="11.719489591196179">
        <ele>1529.5899999999999</ele>
        <time>2016-03-18T15:10:52Z</time>
      </trkpt>
      <trkpt lat="46.416707849130034" lon="11.719220448285341">
        <ele>1528.1500000000001</ele>
        <time>2016-03-18T15:11:06Z</time>
      </trkpt>
      <trkpt lat="46.416715392842889" lon="11.719001848250628">
        <ele>1526.23</ele>
        <time>2016-03-18T15:11:18Z</time>
      </trkpt>
      <trkpt lat="46.416704161092639" lon="11.718745697289705">
        <ele>1524.3099999999999</ele>
        <time>2016-03-18T15:11:31Z</time>
      </trkpt>
      <trkpt lat="46.416704915463924" lon="11.718491809442639">
        <ele>1522.3900000000001</ele>
        <time>2016-03-18T15:11:44Z</time>
      </trkpt>
      <trkpt lat="46.416706088930368" lon="11.718255020678043">
        <ele>1520.9400000000001</ele>
        <time>2016-03-18T15:11:56Z</time>
      </trkpt>
      <trkpt lat="46.416701143607497" lon="11.717989901080728">
        <ele>1519.02</ele>
        <time>2016-03-18T15:12:10Z</time>
      </trkpt>
      <trkpt lat="46.416698880493641" lon="11.71779946424067">
        <ele>1517.5799999999999</ele>
        <time>2016-03-18T15:12:20Z</time>
      </trkpt>
      <trkpt lat="46.416700892150402" lon="11.717663845047355">
        <ele>1516.6199999999999</ele>
        <time>2016-03-18T15:12:27Z</time>
      </trkpt>
      <trkpt lat="46.416699886322021" lon="11.717647416517138">
        <ele>1516.6199999999999</ele>
        <time>2016-03-18T15:12:28Z</time>
      </trkpt>
      <trkpt lat="46.416697707027197" lon="11.717631407082081">
        <ele>1516.6199999999999</ele>
        <time>2016-03-18T15:12:29Z</time>
      </trkpt>
      <trkpt lat="46.416698126122355" lon="11.717611206695437">
        <ele>1516.6199999999999</ele>
        <time>2016-03-18T15:12:30Z</time>
      </trkpt>
      <trkpt lat="46.416697958484292" lon="11.717593604698777">
        <ele>1516.6199999999999</ele>
        <time>2016-03-18T15:12:31Z</time>
      </trkpt>
      <trkpt lat="46.416694270446897" lon="11.717571476474404">
        <ele>1516.6199999999999</ele>
        <time>2016-03-18T15:12:32Z</time>
      </trkpt>
      <trkpt lat="46.416691252961755" lon="11.717548929154873">
        <ele>1516.6199999999999</ele>
        <time>2016-03-18T15:12:33Z</time>
      </trkpt>
      <trkpt lat="46.416697790846229" lon="11.71745840460062">
        <ele>1515.1800000000001</ele>
        <time>2016-03-18T15:12:38Z</time>
      </trkpt>
      <trkpt lat="46.416667364537716" lon="11.717256065458059">
        <ele>1513.73</ele>
        <time>2016-03-18T15:12:50Z</time>
      </trkpt>
      <trkpt lat="46.41664850525558" lon="11.717032520100474">
        <ele>1512.29</ele>
        <time>2016-03-18T15:13:02Z</time>
      </trkpt>
      <trkpt lat="46.416660407558084" lon="11.716786008328199">
        <ele>1510.8499999999999</ele>
        <time>2016-03-18T15:13:15Z</time>
      </trkpt>
      <trkpt lat="46.416684295982122" lon="11.716572605073452">
        <ele>1509.4100000000001</ele>
        <time>2016-03-18T15:13:26Z</time>
      </trkpt>
      <trkpt lat="46.416712626814842" lon="11.71635459177196">
        <ele>1507.97</ele>
        <time>2016-03-18T15:13:38Z</time>
      </trkpt>
      <trkpt lat="46.416702987626195" lon="11.716109253466129">
        <ele>1506.04</ele>
        <time>2016-03-18T15:13:51Z</time>
      </trkpt>
      <trkpt lat="46.416652277112007" lon="11.715959133580327">
        <ele>1505.0799999999999</ele>
        <time>2016-03-18T15:14:02Z</time>
      </trkpt>
      <trkpt lat="46.416561668738723" lon="11.715851929038763">
        <ele>1507</ele>
        <time>2016-03-18T15:14:13Z</time>
      </trkpt>
      <trkpt lat="46.416464187204838" lon="11.715756878256798">
        <ele>1507.97</ele>
        <time>2016-03-18T15:14:22Z</time>
      </trkpt>
      <trkpt lat="46.416451279073954" lon="11.715748496353626">
        <ele>1508.45</ele>
        <time>2016-03-18T15:14:23Z</time>
      </trkpt>
      <trkpt lat="46.416350863873959" lon="11.71571446582675">
        <ele>1509.8900000000001</ele>
        <time>2016-03-18T15:14:33Z</time>
      </trkpt>
      <trkpt lat="46.416255980730057" lon="11.71567683108151">
        <ele>1511.3299999999999</ele>
        <time>2016-03-18T15:14:44Z</time>
      </trkpt>
      <trkpt lat="46.416223375126719" lon="11.715562585741282">
        <ele>1512.29</ele>
        <time>2016-03-18T15:14:53Z</time>
      </trkpt>
      <trkpt lat="46.416210634633899" lon="11.715446831658483">
        <ele>1513.73</ele>
        <time>2016-03-18T15:15:00Z</time>
      </trkpt>
      <trkpt lat="46.416200576350093" lon="11.715318756178021">
        <ele>1514.6900000000001</ele>
        <time>2016-03-18T15:15:08Z</time>
      </trkpt>
      <trkpt lat="46.416213568300009" lon="11.715203002095222">
        <ele>1516.1400000000001</ele>
        <time>2016-03-18T15:15:17Z</time>
      </trkpt>
      <trkpt lat="46.416216501966119" lon="11.715193949639797">
        <ele>1516.1400000000001</ele>
        <time>2016-03-18T15:15:18Z</time>
      </trkpt>
      <trkpt lat="46.416216753423214" lon="11.715167965739965">
        <ele>1516.6199999999999</ele>
        <time>2016-03-18T15:15:20Z</time>
      </trkpt>
      <trkpt lat="46.41622144728899" lon="11.715046344324946">
        <ele>1518.54</ele>
        <time>2016-03-18T15:15:30Z</time>
      </trkpt>
      <trkpt lat="46.416224548593163" lon="11.715033939108253">
        <ele>1518.54</ele>
        <time>2016-03-18T15:15:31Z</time>
      </trkpt>
      <trkpt lat="46.416226895526052" lon="11.714923633262515">
        <ele>1519.5</ele>
        <time>2016-03-18T15:15:40Z</time>
      </trkpt>
      <trkpt lat="46.416252795606852" lon="11.714763035997748">
        <ele>1519.98</ele>
        <time>2016-03-18T15:15:50Z</time>
      </trkpt>
      <trkpt lat="46.41627911478281" lon="11.714584836736321">
        <ele>1519.98</ele>
        <time>2016-03-18T15:16:00Z</time>
      </trkpt>
      <trkpt lat="46.416294956579804" lon="11.714380737394094">
        <ele>1519.5</ele>
        <time>2016-03-18T15:16:13Z</time>
      </trkpt>
      <trkpt lat="46.416307529434562" lon="11.714141014963388">
        <ele>1518.54</ele>
        <time>2016-03-18T15:16:26Z</time>
      </trkpt>
      <trkpt lat="46.416315659880638" lon="11.714096590876579">
        <ele>1518.0599999999999</ele>
        <time>2016-03-18T15:16:29Z</time>
      </trkpt>
      <trkpt lat="46.416346672922373" lon="11.713894000276923">
        <ele>1516.6199999999999</ele>
        <time>2016-03-18T15:16:40Z</time>
      </trkpt>
      <trkpt lat="46.416380451992154" lon="11.71367003582418">
        <ele>1517.0999999999999</ele>
        <time>2016-03-18T15:16:53Z</time>
      </trkpt>
      <trkpt lat="46.416416075080633" lon="11.713447161018848">
        <ele>1517.5799999999999</ele>
        <time>2016-03-18T15:17:04Z</time>
      </trkpt>
      <trkpt lat="46.41645161435008" lon="11.713350852951407">
        <ele>1517.0999999999999</ele>
        <time>2016-03-18T15:17:10Z</time>
      </trkpt>
      <trkpt lat="46.416460582986474" lon="11.713339453563094">
        <ele>1517.0999999999999</ele>
        <time>2016-03-18T15:17:11Z</time>
      </trkpt>
      <trkpt lat="46.416470808908343" lon="11.713325455784798">
        <ele>1516.6199999999999</ele>
        <time>2016-03-18T15:17:12Z</time>
      </trkpt>
      <trkpt lat="46.416475754231215" lon="11.713305842131376">
        <ele>1517.0999999999999</ele>
        <time>2016-03-18T15:17:13Z</time>
      </trkpt>
      <trkpt lat="46.416482711210847" lon="11.713295867666602">
        <ele>1516.6199999999999</ele>
        <time>2016-03-18T15:17:14Z</time>
      </trkpt>
      <trkpt lat="46.416584216058254" lon="11.71318338252604">
        <ele>1516.1400000000001</ele>
        <time>2016-03-18T15:17:25Z</time>
      </trkpt>
      <trkpt lat="46.416697707027197" lon="11.712975762784481">
        <ele>1515.1800000000001</ele>
        <time>2016-03-18T15:17:37Z</time>
      </trkpt>
      <trkpt lat="46.416727211326361" lon="11.712852297350764">
        <ele>1515.1800000000001</ele>
        <time>2016-03-18T15:17:44Z</time>
      </trkpt>
      <trkpt lat="46.416734838858247" lon="11.71277392655611">
        <ele>1513.25</ele>
        <time>2016-03-18T15:17:49Z</time>
      </trkpt>
      <trkpt lat="46.416738694533706" lon="11.712752804160118">
        <ele>1513.25</ele>
        <time>2016-03-18T15:17:50Z</time>
      </trkpt>
      <trkpt lat="46.416741963475943" lon="11.712729753926396">
        <ele>1513.25</ele>
        <time>2016-03-18T15:17:51Z</time>
      </trkpt>
      <trkpt lat="46.416747160255909" lon="11.712709218263626">
        <ele>1512.77</ele>
        <time>2016-03-18T15:17:52Z</time>
      </trkpt>
      <trkpt lat="46.416751183569431" lon="11.712684407830238">
        <ele>1512.77</ele>
        <time>2016-03-18T15:17:53Z</time>
      </trkpt>
      <trkpt lat="46.416753279045224" lon="11.712663704529405">
        <ele>1512.77</ele>
        <time>2016-03-18T15:17:54Z</time>
      </trkpt>
      <trkpt lat="46.416757386177778" lon="11.712644258514047">
        <ele>1512.77</ele>
        <time>2016-03-18T15:17:55Z</time>
      </trkpt>
      <trkpt lat="46.416761828586459" lon="11.712628332898021">
        <ele>1512.29</ele>
        <time>2016-03-18T15:17:56Z</time>
      </trkpt>
      <trkpt lat="46.416765600442886" lon="11.712593464180827">
        <ele>1511.8099999999999</ele>
        <time>2016-03-18T15:17:58Z</time>
      </trkpt>
      <trkpt lat="46.416791835799813" lon="11.712419455870986">
        <ele>1510.8499999999999</ele>
        <time>2016-03-18T15:18:07Z</time>
      </trkpt>
      <trkpt lat="46.41676970757544" lon="11.712202029302716">
        <ele>1508.9300000000001</ele>
        <time>2016-03-18T15:18:19Z</time>
      </trkpt>
      <trkpt lat="46.416820753365755" lon="11.712097842246294">
        <ele>1509.4100000000001</ele>
        <time>2016-03-18T15:18:27Z</time>
      </trkpt>
      <trkpt lat="46.416954025626183" lon="11.711962558329105">
        <ele>1508.45</ele>
        <time>2016-03-18T15:18:39Z</time>
      </trkpt>
      <trkpt lat="46.417125770822167" lon="11.711882259696722">
        <ele>1506.52</ele>
        <time>2016-03-18T15:18:52Z</time>
      </trkpt>
      <trkpt lat="46.41725292429328" lon="11.711762985214591">
        <ele>1504.1199999999999</ele>
        <time>2016-03-18T15:19:03Z</time>
      </trkpt>
      <trkpt lat="46.417281674221158" lon="11.711741778999567">
        <ele>1503.1600000000001</ele>
        <time>2016-03-18T15:19:06Z</time>
      </trkpt>
      <trkpt lat="46.41729449853301" lon="11.711742701008916">
        <ele>1503.1600000000001</ele>
        <time>2016-03-18T15:19:07Z</time>
      </trkpt>
      <trkpt lat="46.417306400835514" lon="11.711741611361504">
        <ele>1503.1600000000001</ele>
        <time>2016-03-18T15:19:08Z</time>
      </trkpt>
      <trkpt lat="46.417320566251874" lon="11.71173750422895">
        <ele>1502.6800000000001</ele>
        <time>2016-03-18T15:19:09Z</time>
      </trkpt>
      <trkpt lat="46.417334396392107" lon="11.711730547249317">
        <ele>1502.6800000000001</ele>
        <time>2016-03-18T15:19:10Z</time>
      </trkpt>
      <trkpt lat="46.417351244017482" lon="11.711722249165177">
        <ele>1502.2</ele>
        <time>2016-03-18T15:19:11Z</time>
      </trkpt>
      <trkpt lat="46.417471440508962" lon="11.71152007766068">
        <ele>1499.3099999999999</ele>
        <time>2016-03-18T15:19:24Z</time>
      </trkpt>
      <trkpt lat="46.417492562904954" lon="11.711345231160522">
        <ele>1495.95</ele>
        <time>2016-03-18T15:19:33Z</time>
      </trkpt>
      <trkpt lat="46.417565820738673" lon="11.711138030514121">
        <ele>1493.55</ele>
        <time>2016-03-18T15:19:44Z</time>
      </trkpt>
      <trkpt lat="46.417576968669891" lon="11.710942229256034">
        <ele>1491.1400000000001</ele>
        <time>2016-03-18T15:19:55Z</time>
      </trkpt>
      <trkpt lat="46.417512679472566" lon="11.710742739960551">
        <ele>1487.78</ele>
        <time>2016-03-18T15:20:06Z</time>
      </trkpt>
      <trkpt lat="46.417472781613469" lon="11.71048759482801">
        <ele>1484.8900000000001</ele>
        <time>2016-03-18T15:20:19Z</time>
      </trkpt>
      <trkpt lat="46.417471105232835" lon="11.710208728909492">
        <ele>1482.01</ele>
        <time>2016-03-18T15:20:34Z</time>
      </trkpt>
      <trkpt lat="46.417517205700278" lon="11.710145864635706">
        <ele>1480.5699999999999</ele>
        <time>2016-03-18T15:20:39Z</time>
      </trkpt>
      <trkpt lat="46.417531203478575" lon="11.710146702826023">
        <ele>1480.0899999999999</ele>
        <time>2016-03-18T15:20:40Z</time>
      </trkpt>
      <trkpt lat="46.417550314217806" lon="11.710159108042717">
        <ele>1480.0899999999999</ele>
        <time>2016-03-18T15:20:41Z</time>
      </trkpt>
      <trkpt lat="46.417571352794766" lon="11.710174363106489">
        <ele>1480.0899999999999</ele>
        <time>2016-03-18T15:20:42Z</time>
      </trkpt>
      <trkpt lat="46.41758912242949" lon="11.710193892940879">
        <ele>1479.6099999999999</ele>
        <time>2016-03-18T15:20:43Z</time>
      </trkpt>
      <trkpt lat="46.417601779103279" lon="11.710217278450727">
        <ele>1479.6099999999999</ele>
        <time>2016-03-18T15:20:44Z</time>
      </trkpt>
      <trkpt lat="46.417608316987753" lon="11.710238568484783">
        <ele>1479.1300000000001</ele>
        <time>2016-03-18T15:20:45Z</time>
      </trkpt>
      <trkpt lat="46.417612005025148" lon="11.710254745557904">
        <ele>1479.1300000000001</ele>
        <time>2016-03-18T15:20:46Z</time>
      </trkpt>
      <trkpt lat="46.417612340301275" lon="11.710268408060074">
        <ele>1479.1300000000001</ele>
        <time>2016-03-18T15:20:47Z</time>
      </trkpt>
      <trkpt lat="46.41761259175837" lon="11.710283244028687">
        <ele>1479.1300000000001</ele>
        <time>2016-03-18T15:20:48Z</time>
      </trkpt>
      <trkpt lat="46.417682245373726" lon="11.710496647283435">
        <ele>1477.6800000000001</ele>
        <time>2016-03-18T15:21:00Z</time>
      </trkpt>
      <trkpt lat="46.41771174967289" lon="11.710531013086438">
        <ele>1477.2</ele>
        <time>2016-03-18T15:21:03Z</time>
      </trkpt>
      <trkpt lat="46.417723819613457" lon="11.710539059713483">
        <ele>1477.2</ele>
        <time>2016-03-18T15:21:04Z</time>
      </trkpt>
      <trkpt lat="46.417738571763039" lon="11.710550291463733">
        <ele>1477.2</ele>
        <time>2016-03-18T15:21:05Z</time>
      </trkpt>
      <trkpt lat="46.417752988636494" lon="11.710558002814651">
        <ele>1476.72</ele>
        <time>2016-03-18T15:21:06Z</time>
      </trkpt>
      <trkpt lat="46.41787058673799" lon="11.71067425981164">
        <ele>1474.8</ele>
        <time>2016-03-18T15:21:18Z</time>
      </trkpt>
      <trkpt lat="46.417979719117284" lon="11.710778614506125">
        <ele>1471.9200000000001</ele>
        <time>2016-03-18T15:21:31Z</time>
      </trkpt>
      <trkpt lat="46.417999500408769" lon="11.710753133520484">
        <ele>1471.4400000000001</ele>
        <time>2016-03-18T15:21:34Z</time>
      </trkpt>
      <trkpt lat="46.418005116283894" lon="11.710738129913807">
        <ele>1471.4400000000001</ele>
        <time>2016-03-18T15:21:35Z</time>
      </trkpt>
      <trkpt lat="46.417998494580388" lon="11.710601169615984">
        <ele>1470.47</ele>
        <time>2016-03-18T15:21:43Z</time>
      </trkpt>
      <trkpt lat="46.417987933382392" lon="11.710584489628673">
        <ele>1470.47</ele>
        <time>2016-03-18T15:21:44Z</time>
      </trkpt>
      <trkpt lat="46.417976869270205" lon="11.710562529042363">
        <ele>1470.47</ele>
        <time>2016-03-18T15:21:45Z</time>
      </trkpt>
      <trkpt lat="46.417965302243829" lon="11.710544843226671">
        <ele>1469.99</ele>
        <time>2016-03-18T15:21:46Z</time>
      </trkpt>
      <trkpt lat="46.417955411598086" lon="11.71053059399128">
        <ele>1469.99</ele>
        <time>2016-03-18T15:21:47Z</time>
      </trkpt>
      <trkpt lat="46.417907048016787" lon="11.71031417325139">
        <ele>1468.0699999999999</ele>
        <time>2016-03-18T15:22:00Z</time>
      </trkpt>
      <trkpt lat="46.417973265051842" lon="11.710130944848061">
        <ele>1466.1500000000001</ele>
        <time>2016-03-18T15:22:10Z</time>
      </trkpt>
      <trkpt lat="46.418036967515945" lon="11.710002953186631">
        <ele>1463.74</ele>
        <time>2016-03-18T15:22:21Z</time>
      </trkpt>
      <trkpt lat="46.418043086305261" lon="11.709986440837383">
        <ele>1463.74</ele>
        <time>2016-03-18T15:22:22Z</time>
      </trkpt>
      <trkpt lat="46.418128497898579" lon="11.709899939596653">
        <ele>1461.8199999999999</ele>
        <time>2016-03-18T15:22:34Z</time>
      </trkpt>
      <trkpt lat="46.418158002197742" lon="11.709908908233047">
        <ele>1461.8199999999999</ele>
        <time>2016-03-18T15:23:02Z</time>
      </trkpt>
      <trkpt lat="46.418175520375371" lon="11.709773456677794">
        <ele>1461.3399999999999</ele>
        <time>2016-03-18T15:23:12Z</time>
      </trkpt>
      <trkpt lat="46.418223883956671" lon="11.709678908810019">
        <ele>1459.9000000000001</ele>
        <time>2016-03-18T15:23:19Z</time>
      </trkpt>
      <trkpt lat="46.418246263638139" lon="11.709648817777634">
        <ele>1459.4200000000001</ele>
        <time>2016-03-18T15:23:22Z</time>
      </trkpt>
      <trkpt lat="46.418252717703581" lon="11.709636747837067">
        <ele>1459.4200000000001</ele>
        <time>2016-03-18T15:23:23Z</time>
      </trkpt>
      <trkpt lat="46.418350450694561" lon="11.709495009854436">
        <ele>1457.02</ele>
        <time>2016-03-18T15:23:34Z</time>
      </trkpt>
      <trkpt lat="46.418457739055157" lon="11.709336508065462">
        <ele>1454.1300000000001</ele>
        <time>2016-03-18T15:23:46Z</time>
      </trkpt>
      <trkpt lat="46.418572822585702" lon="11.709149172529578">
        <ele>1451.25</ele>
        <time>2016-03-18T15:23:59Z</time>
      </trkpt>
      <trkpt lat="46.418696288019419" lon="11.708976840600371">
        <ele>1447.8800000000001</ele>
        <time>2016-03-18T15:24:12Z</time>
      </trkpt>
      <trkpt lat="46.418781448155642" lon="11.708863601088524">
        <ele>1446.4400000000001</ele>
        <time>2016-03-18T15:24:21Z</time>
      </trkpt>
      <trkpt lat="46.418925700709224" lon="11.708679450675845">
        <ele>1443.5599999999999</ele>
        <time>2016-03-18T15:24:35Z</time>
      </trkpt>
      <trkpt lat="46.418945230543613" lon="11.708653382956982">
        <ele>1442.5999999999999</ele>
        <time>2016-03-18T15:24:38Z</time>
      </trkpt>
      <trkpt lat="46.418954953551292" lon="11.708642151206732">
        <ele>1442.5999999999999</ele>
        <time>2016-03-18T15:24:39Z</time>
      </trkpt>
      <trkpt lat="46.418964341282845" lon="11.708624381572008">
        <ele>1442.5999999999999</ele>
        <time>2016-03-18T15:24:40Z</time>
      </trkpt>
      <trkpt lat="46.418971549719572" lon="11.708607953041792">
        <ele>1442.1099999999999</ele>
        <time>2016-03-18T15:24:41Z</time>
      </trkpt>
      <trkpt lat="46.418980434536934" lon="11.708591021597385">
        <ele>1442.1099999999999</ele>
        <time>2016-03-18T15:24:42Z</time>
      </trkpt>
      <trkpt lat="46.419061906635761" lon="11.708465963602066">
        <ele>1439.71</ele>
        <time>2016-03-18T15:24:50Z</time>
      </trkpt>
      <trkpt lat="46.419071042910218" lon="11.708450205624104">
        <ele>1439.23</ele>
        <time>2016-03-18T15:24:51Z</time>
      </trkpt>
      <trkpt lat="46.41908185556531" lon="11.708433190360665">
        <ele>1439.23</ele>
        <time>2016-03-18T15:24:52Z</time>
      </trkpt>
      <trkpt lat="46.419089650735259" lon="11.708415420725942">
        <ele>1438.75</ele>
        <time>2016-03-18T15:24:53Z</time>
      </trkpt>
      <trkpt lat="46.419096440076828" lon="11.708399327471852">
        <ele>1438.75</ele>
        <time>2016-03-18T15:24:54Z</time>
      </trkpt>
      <trkpt lat="46.419143043458462" lon="11.708309473469853">
        <ele>1436.8299999999999</ele>
        <time>2016-03-18T15:25:00Z</time>
      </trkpt>
      <trkpt lat="46.419152934104204" lon="11.708298325538635">
        <ele>1436.8299999999999</ele>
        <time>2016-03-18T15:25:01Z</time>
      </trkpt>
      <trkpt lat="46.419159807264805" lon="11.708275778219104">
        <ele>1436.8299999999999</ele>
        <time>2016-03-18T15:25:02Z</time>
      </trkpt>
      <trkpt lat="46.419168105348945" lon="11.708257421851158">
        <ele>1436.3499999999999</ele>
        <time>2016-03-18T15:25:03Z</time>
      </trkpt>
      <trkpt lat="46.419174307957292" lon="11.708237389102578">
        <ele>1436.3499999999999</ele>
        <time>2016-03-18T15:25:04Z</time>
      </trkpt>
      <trkpt lat="46.419226359575987" lon="11.708069331943989">
        <ele>1433.46</ele>
        <time>2016-03-18T15:25:14Z</time>
      </trkpt>
      <trkpt lat="46.419269861653447" lon="11.707901861518621">
        <ele>1431.54</ele>
        <time>2016-03-18T15:25:24Z</time>
      </trkpt>
      <trkpt lat="46.419315962120891" lon="11.707812007516623">
        <ele>1430.5799999999999</ele>
        <time>2016-03-18T15:25:28Z</time>
      </trkpt>
      <trkpt lat="46.419323673471808" lon="11.707801027223468">
        <ele>1430.5799999999999</ele>
        <time>2016-03-18T15:25:29Z</time>
      </trkpt>
      <trkpt lat="46.419329959899187" lon="11.70778401196003">
        <ele>1430.5799999999999</ele>
        <time>2016-03-18T15:25:30Z</time>
      </trkpt>
      <trkpt lat="46.419347394257784" lon="11.707734726369381">
        <ele>1430.0999999999999</ele>
        <time>2016-03-18T15:25:33Z</time>
      </trkpt>
      <trkpt lat="46.419357368722558" lon="11.70771662145853">
        <ele>1429.6199999999999</ele>
        <time>2016-03-18T15:25:34Z</time>
      </trkpt>
      <trkpt lat="46.419366421177983" lon="11.707701617851853">
        <ele>1429.6199999999999</ele>
        <time>2016-03-18T15:25:35Z</time>
      </trkpt>
      <trkpt lat="46.419372288510203" lon="11.707682842388749">
        <ele>1429.1400000000001</ele>
        <time>2016-03-18T15:25:36Z</time>
      </trkpt>
      <trkpt lat="46.419372288510203" lon="11.70753875747323">
        <ele>1427.7</ele>
        <time>2016-03-18T15:25:45Z</time>
      </trkpt>
      <trkpt lat="46.419449737295508" lon="11.707295766100287">
        <ele>1425.29</ele>
        <time>2016-03-18T15:25:58Z</time>
      </trkpt>
      <trkpt lat="46.419480331242085" lon="11.707210605964065">
        <ele>1424.3299999999999</ele>
        <time>2016-03-18T15:26:03Z</time>
      </trkpt>
      <trkpt lat="46.419523665681481" lon="11.7070447281003">
        <ele>1422.8900000000001</ele>
        <time>2016-03-18T15:26:14Z</time>
      </trkpt>
      <trkpt lat="46.419609077274799" lon="11.706826630979776">
        <ele>1421.9300000000001</ele>
        <time>2016-03-18T15:26:26Z</time>
      </trkpt>
      <trkpt lat="46.41961645334959" lon="11.706811124458909">
        <ele>1421.9300000000001</ele>
        <time>2016-03-18T15:26:27Z</time>
      </trkpt>
      <trkpt lat="46.419723741710186" lon="11.706619765609503">
        <ele>1421.45</ele>
        <time>2016-03-18T15:26:38Z</time>
      </trkpt>
      <trkpt lat="46.419769758358598" lon="11.706551369279623">
        <ele>1420.97</ele>
        <time>2016-03-18T15:26:42Z</time>
      </trkpt>
      <trkpt lat="46.419781828299165" lon="11.706536114215851">
        <ele>1420.97</ele>
        <time>2016-03-18T15:26:43Z</time>
      </trkpt>
      <trkpt lat="46.419903533533216" lon="11.706462102010846">
        <ele>1420.49</ele>
        <time>2016-03-18T15:26:54Z</time>
      </trkpt>
      <trkpt lat="46.420033453032374" lon="11.706355148926377">
        <ele>1420</ele>
        <time>2016-03-18T15:27:05Z</time>
      </trkpt>
      <trkpt lat="46.420095227658749" lon="11.706237802281976">
        <ele>1419.52</ele>
        <time>2016-03-18T15:27:16Z</time>
      </trkpt>
      <trkpt lat="46.420161863788962" lon="11.706047700718045">
        <ele>1418.0799999999999</ele>
        <time>2016-03-18T15:27:26Z</time>
      </trkpt>
      <trkpt lat="46.420269403606653" lon="11.705827340483665">
        <ele>1415.2</ele>
        <time>2016-03-18T15:27:37Z</time>
      </trkpt>
      <trkpt lat="46.420370908454061" lon="11.705601532012224">
        <ele>1413.76</ele>
        <time>2016-03-18T15:27:51Z</time>
      </trkpt>
      <trkpt lat="46.420391695573926" lon="11.705491729080677">
        <ele>1413.28</ele>
        <time>2016-03-18T15:27:59Z</time>
      </trkpt>
      <trkpt lat="46.420396640896797" lon="11.705481922253966">
        <ele>1413.28</ele>
        <time>2016-03-18T15:28:00Z</time>
      </trkpt>
      <trkpt lat="46.420404687523842" lon="11.705451244488358">
        <ele>1412.79</ele>
        <time>2016-03-18T15:28:09Z</time>
      </trkpt>
      <trkpt lat="46.420416925102472" lon="11.705395337194204">
        <ele>1412.3099999999999</ele>
        <time>2016-03-18T15:28:31Z</time>
      </trkpt>
      <trkpt lat="46.420432766899467" lon="11.705340268090367">
        <ele>1412.79</ele>
        <time>2016-03-18T15:28:40Z</time>
      </trkpt>
      <trkpt lat="46.420469479635358" lon="11.705221245065331">
        <ele>1411.3499999999999</ele>
        <time>2016-03-18T15:28:51Z</time>
      </trkpt>
      <trkpt lat="46.42048180103302" lon="11.705152848735452">
        <ele>1410.8699999999999</ele>
        <time>2016-03-18T15:28:55Z</time>
      </trkpt>
      <trkpt lat="46.420538714155555" lon="11.704930895939469">
        <ele>1410.3900000000001</ele>
        <time>2016-03-18T15:29:08Z</time>
      </trkpt>
      <trkpt lat="46.420593447983265" lon="11.704753367230296">
        <ele>1409.9100000000001</ele>
        <time>2016-03-18T15:29:18Z</time>
      </trkpt>
      <trkpt lat="46.420683553442359" lon="11.704523451626301">
        <ele>1408.95</ele>
        <time>2016-03-18T15:29:31Z</time>
      </trkpt>
      <trkpt lat="46.420701825991273" lon="11.704232012853026">
        <ele>1408.47</ele>
        <time>2016-03-18T15:29:44Z</time>
      </trkpt>
      <trkpt lat="46.420773910358548" lon="11.704042162746191">
        <ele>1407.51</ele>
        <time>2016-03-18T15:29:56Z</time>
      </trkpt>
      <trkpt lat="46.420787069946527" lon="11.704055909067392">
        <ele>1407.51</ele>
        <time>2016-03-18T15:29:57Z</time>
      </trkpt>
      <trkpt lat="46.42079796642065" lon="11.704049538820982">
        <ele>1407.51</ele>
        <time>2016-03-18T15:29:58Z</time>
      </trkpt>
      <trkpt lat="46.420805593952537" lon="11.70402355492115">
        <ele>1407.03</ele>
        <time>2016-03-18T15:30:00Z</time>
      </trkpt>
      <trkpt lat="46.42081649042666" lon="11.703955912962556">
        <ele>1407.03</ele>
        <time>2016-03-18T15:30:04Z</time>
      </trkpt>
      <trkpt lat="46.420822693035007" lon="11.703936969861388">
        <ele>1407.03</ele>
        <time>2016-03-18T15:30:05Z</time>
      </trkpt>
      <trkpt lat="46.420827889814973" lon="11.703919535502791">
        <ele>1407.03</ele>
        <time>2016-03-18T15:30:06Z</time>
      </trkpt>
      <trkpt lat="46.420902069658041" lon="11.70367612503469">
        <ele>1406.0699999999999</ele>
        <time>2016-03-18T15:30:20Z</time>
      </trkpt>
      <trkpt lat="46.420906595885754" lon="11.703659361228347">
        <ele>1406.0699999999999</ele>
        <time>2016-03-18T15:30:21Z</time>
      </trkpt>
      <trkpt lat="46.420984463766217" lon="11.703458027914166">
        <ele>1404.6199999999999</ele>
        <time>2016-03-18T15:30:34Z</time>
      </trkpt>
      <trkpt lat="46.421080520376563" lon="11.703410251066089">
        <ele>1403.6600000000001</ele>
        <time>2016-03-18T15:30:46Z</time>
      </trkpt>
      <trkpt lat="46.421183282509446" lon="11.703300112858415">
        <ele>1403.1800000000001</ele>
        <time>2016-03-18T15:30:56Z</time>
      </trkpt>
      <trkpt lat="46.421323763206601" lon="11.703164828941226">
        <ele>1401.74</ele>
        <time>2016-03-18T15:31:08Z</time>
      </trkpt>
      <trkpt lat="46.421438176184893" lon="11.702990736812353">
        <ele>1399.8199999999999</ele>
        <time>2016-03-18T15:31:21Z</time>
      </trkpt>
      <trkpt lat="46.421537837013602" lon="11.702810442075133">
        <ele>1398.3699999999999</ele>
        <time>2016-03-18T15:31:34Z</time>
      </trkpt>
      <trkpt lat="46.421559546142817" lon="11.702717486768961">
        <ele>1397.4100000000001</ele>
        <time>2016-03-18T15:31:40Z</time>
      </trkpt>
      <trkpt lat="46.421569688245654" lon="11.702704494819045">
        <ele>1397.8900000000001</ele>
        <time>2016-03-18T15:31:41Z</time>
      </trkpt>
      <trkpt lat="46.421578153967857" lon="11.702690748497844">
        <ele>1397.4100000000001</ele>
        <time>2016-03-18T15:31:42Z</time>
      </trkpt>
      <trkpt lat="46.421584524214268" lon="11.70267884619534">
        <ele>1397.4100000000001</ele>
        <time>2016-03-18T15:31:43Z</time>
      </trkpt>
      <trkpt lat="46.421590559184551" lon="11.702667362987995">
        <ele>1397.4100000000001</ele>
        <time>2016-03-18T15:31:44Z</time>
      </trkpt>
      <trkpt lat="46.421689046546817" lon="11.702507268637419">
        <ele>1395.49</ele>
        <time>2016-03-18T15:31:55Z</time>
      </trkpt>
      <trkpt lat="46.421700613573194" lon="11.702484134584665">
        <ele>1395.49</ele>
        <time>2016-03-18T15:31:57Z</time>
      </trkpt>
      <trkpt lat="46.421778649091721" lon="11.702375086024404">
        <ele>1395.49</ele>
        <time>2016-03-18T15:32:06Z</time>
      </trkpt>
      <trkpt lat="46.421797759830952" lon="11.702335020527244">
        <ele>1394.53</ele>
        <time>2016-03-18T15:32:09Z</time>
      </trkpt>
      <trkpt lat="46.421916112303734" lon="11.70209152624011">
        <ele>1392.6099999999999</ele>
        <time>2016-03-18T15:32:23Z</time>
      </trkpt>
      <trkpt lat="46.422040667384863" lon="11.701906537637115">
        <ele>1391.1700000000001</ele>
        <time>2016-03-18T15:32:36Z</time>
      </trkpt>
      <trkpt lat="46.422118870541453" lon="11.701743844896555">
        <ele>1390.2</ele>
        <time>2016-03-18T15:32:45Z</time>
      </trkpt>
      <trkpt lat="46.422230433672667" lon="11.701524825766683">
        <ele>1389.24</ele>
        <time>2016-03-18T15:32:59Z</time>
      </trkpt>
      <trkpt lat="46.422315509989858" lon="11.701323660090566">
        <ele>1388.28</ele>
        <time>2016-03-18T15:33:11Z</time>
      </trkpt>
      <trkpt lat="46.422415841370821" lon="11.701136576011777">
        <ele>1387.3199999999999</ele>
        <time>2016-03-18T15:33:23Z</time>
      </trkpt>
      <trkpt lat="46.422481639310718" lon="11.70098477974534">
        <ele>1386.8399999999999</ele>
        <time>2016-03-18T15:33:32Z</time>
      </trkpt>
      <trkpt lat="46.422490943223238" lon="11.70097597874701">
        <ele>1386.3599999999999</ele>
        <time>2016-03-18T15:33:33Z</time>
      </trkpt>
      <trkpt lat="46.422554142773151" lon="11.700870785862207">
        <ele>1385.8800000000001</ele>
        <time>2016-03-18T15:33:43Z</time>
      </trkpt>
      <trkpt lat="46.422694455832243" lon="11.70074824243784">
        <ele>1385.4000000000001</ele>
        <time>2016-03-18T15:33:56Z</time>
      </trkpt>
      <trkpt lat="46.422849856317043" lon="11.700651934370399">
        <ele>1384.9200000000001</ele>
        <time>2016-03-18T15:34:10Z</time>
      </trkpt>
      <trkpt lat="46.42299578525126" lon="11.70055721886456">
        <ele>1383.96</ele>
        <time>2016-03-18T15:34:22Z</time>
      </trkpt>
      <trkpt lat="46.423152862116694" lon="11.700433501973748">
        <ele>1383.47</ele>
        <time>2016-03-18T15:34:34Z</time>
      </trkpt>
      <trkpt lat="46.423319661989808" lon="11.700319424271584">
        <ele>1382.51</ele>
        <time>2016-03-18T15:34:47Z</time>
      </trkpt>
      <trkpt lat="46.423431392759085" lon="11.700220350176096">
        <ele>1382.03</ele>
        <time>2016-03-18T15:34:57Z</time>
      </trkpt>
      <trkpt lat="46.423548990860581" lon="11.70014088973403">
        <ele>1381.55</ele>
        <time>2016-03-18T15:35:07Z</time>
      </trkpt>
      <trkpt lat="46.423659380525351" lon="11.70009252615273">
        <ele>1381.0699999999999</ele>
        <time>2016-03-18T15:35:17Z</time>
      </trkpt>
      <trkpt lat="46.423665666952729" lon="11.700090765953064">
        <ele>1381.0699999999999</ele>
        <time>2016-03-18T15:35:18Z</time>
      </trkpt>
      <trkpt lat="46.423677569255233" lon="11.70008079148829">
        <ele>1380.5899999999999</ele>
        <time>2016-03-18T15:35:19Z</time>
      </trkpt>
      <trkpt lat="46.42379910685122" lon="11.700012981891632">
        <ele>1380.1099999999999</ele>
        <time>2016-03-18T15:35:30Z</time>
      </trkpt>
      <trkpt lat="46.423928271979094" lon="11.699954811483622">
        <ele>1378.6700000000001</ele>
        <time>2016-03-18T15:35:40Z</time>
      </trkpt>
      <trkpt lat="46.424117619171739" lon="11.699838889762759">
        <ele>1377.71</ele>
        <time>2016-03-18T15:35:51Z</time>
      </trkpt>
      <trkpt lat="46.424217782914639" lon="11.699768397957087">
        <ele>1377.23</ele>
        <time>2016-03-18T15:36:00Z</time>
      </trkpt>
      <trkpt lat="46.424351055175066" lon="11.699715508148074">
        <ele>1376.26</ele>
        <time>2016-03-18T15:36:12Z</time>
      </trkpt>
      <trkpt lat="46.424462785944343" lon="11.699686590582132">
        <ele>1375.78</ele>
        <time>2016-03-18T15:36:23Z</time>
      </trkpt>
      <trkpt lat="46.424547862261534" lon="11.699602352455258">
        <ele>1375.3</ele>
        <time>2016-03-18T15:36:32Z</time>
      </trkpt>
      <trkpt lat="46.42464785836637" lon="11.699532950296998">
        <ele>1374.8199999999999</ele>
        <time>2016-03-18T15:36:42Z</time>
      </trkpt>
      <trkpt lat="46.424796972423792" lon="11.699440833181143">
        <ele>1373.8599999999999</ele>
        <time>2016-03-18T15:36:54Z</time>
      </trkpt>
      <trkpt lat="46.424926472827792" lon="11.699386686086655">
        <ele>1372.9000000000001</ele>
        <time>2016-03-18T15:37:05Z</time>
      </trkpt>
      <trkpt lat="46.425112215802073" lon="11.699271937832236">
        <ele>1371.9400000000001</ele>
        <time>2016-03-18T15:37:20Z</time>
      </trkpt>
      <trkpt lat="46.42513694241643" lon="11.699260203167796">
        <ele>1371.9400000000001</ele>
        <time>2016-03-18T15:37:22Z</time>
      </trkpt>
      <trkpt lat="46.425265856087208" lon="11.699173031374812">
        <ele>1370.98</ele>
        <time>2016-03-18T15:37:33Z</time>
      </trkpt>
      <trkpt lat="46.425403486937284" lon="11.699095498770475">
        <ele>1370.02</ele>
        <time>2016-03-18T15:37:44Z</time>
      </trkpt>
      <trkpt lat="46.425523012876511" lon="11.699026767164469">
        <ele>1368.5699999999999</ele>
        <time>2016-03-18T15:37:55Z</time>
      </trkpt>
      <trkpt lat="46.425671204924583" lon="11.699006734415889">
        <ele>1367.6099999999999</ele>
        <time>2016-03-18T15:38:07Z</time>
      </trkpt>
      <trkpt lat="46.425705403089523" lon="11.698997765779495">
        <ele>1366.6500000000001</ele>
        <time>2016-03-18T15:38:10Z</time>
      </trkpt>
      <trkpt lat="46.425738846883178" lon="11.698989383876324">
        <ele>1367.1300000000001</ele>
        <time>2016-03-18T15:38:22Z</time>
      </trkpt>
    </trkseg>
  </trk>

</gpx>